<?xml version="1.0" encoding="UTF-8"?>
<gpx version="1.1" creator="https://www.youtrack.es" xsi:schemaLocation="http://www.topografix.com/GPX/1/1 http://www.topografix.com/GPX/1/1/gpx.xsd http://www.garmin.com/xmlschemas/GpxExtensions/v3 http://www.garmin.com/xmlschemas/GpxExtensionsv3.xsd http://www.garmin.com/xmlschemas/TrackPointExtension/v1 http://www.garmin.com/xmlschemas/TrackPointExtensionv1.xsd" xmlns:gpxtpx="http://www.garmin.com/xmlschemas/TrackPointExtension/v1" xmlns:gpxx="http://www.garmin.com/xmlschemas/GpxExtensions/v3" xmlns:xsi="http://www.w3.org/2001/XMLSchema-instance">
  <metadata>
    <link href="https://www.youtrack.es">
      <text>YouTrack.es</text>
    </link>
    <time>2026-05-10T17:56:40Z</time>
  </metadata>
  <trk>
    <src>https://www.youtrack.es</src>
    <link href="https://www.youtrack.es/ruta/36932-trevino-bira-test">
      <text>YouTrack.es</text>
    </link>
    <trkseg>
      <trkpt lat="42.763420" lon="-2.832590">
        <ele>452.497</ele>
        <time>2011-02-12T09:57:38Z</time>
      </trkpt>
      <trkpt lat="42.763420" lon="-2.832530">
        <ele>456.823</ele>
        <time>2011-02-12T09:57:43Z</time>
      </trkpt>
      <trkpt lat="42.763430" lon="-2.832460">
        <ele>459.625</ele>
        <time>2011-02-12T09:57:48Z</time>
      </trkpt>
      <trkpt lat="42.763421" lon="-2.832407">
        <ele>462.007</ele>
        <time>2011-02-12T09:57:53Z</time>
      </trkpt>
      <trkpt lat="42.763426" lon="-2.832321">
        <ele>465.911</ele>
        <time>2011-02-12T09:57:58Z</time>
      </trkpt>
      <trkpt lat="42.763430" lon="-2.832242">
        <ele>467.372</ele>
        <time>2011-02-12T09:58:03Z</time>
      </trkpt>
      <trkpt lat="42.763417" lon="-2.832162">
        <ele>469.381</ele>
        <time>2011-02-12T09:58:08Z</time>
      </trkpt>
      <trkpt lat="42.763416" lon="-2.832083">
        <ele>471.784</ele>
        <time>2011-02-12T09:58:13Z</time>
      </trkpt>
      <trkpt lat="42.763407" lon="-2.832009">
        <ele>472.697</ele>
        <time>2011-02-12T09:58:18Z</time>
      </trkpt>
      <trkpt lat="42.763407" lon="-2.831918">
        <ele>474.188</ele>
        <time>2011-02-12T09:58:23Z</time>
      </trkpt>
      <trkpt lat="42.763407" lon="-2.831838">
        <ele>475.040</ele>
        <time>2011-02-12T09:58:28Z</time>
      </trkpt>
      <trkpt lat="42.763407" lon="-2.831759">
        <ele>476.553</ele>
        <time>2011-02-12T09:58:33Z</time>
      </trkpt>
      <trkpt lat="42.763407" lon="-2.831667">
        <ele>477.404</ele>
        <time>2011-02-12T09:58:38Z</time>
      </trkpt>
      <trkpt lat="42.763398" lon="-2.831588">
        <ele>478.414</ele>
        <time>2011-02-12T09:58:43Z</time>
      </trkpt>
      <trkpt lat="42.763398" lon="-2.831502">
        <ele>478.907</ele>
        <time>2011-02-12T09:58:48Z</time>
      </trkpt>
      <trkpt lat="42.763397" lon="-2.831423">
        <ele>480.357</ele>
        <time>2011-02-12T09:58:53Z</time>
      </trkpt>
      <trkpt lat="42.763388" lon="-2.831331">
        <ele>480.828</ele>
        <time>2011-02-12T09:58:58Z</time>
      </trkpt>
      <trkpt lat="42.763388" lon="-2.831252">
        <ele>481.867</ele>
        <time>2011-02-12T09:59:03Z</time>
      </trkpt>
      <trkpt lat="42.763379" lon="-2.831227">
        <ele>482.270</ele>
        <time>2011-02-12T09:59:08Z</time>
      </trkpt>
      <trkpt lat="42.763379" lon="-2.831178">
        <ele>482.713</ele>
        <time>2011-02-12T09:59:13Z</time>
      </trkpt>
      <trkpt lat="42.763379" lon="-2.831099">
        <ele>482.724</ele>
        <time>2011-02-12T09:59:18Z</time>
      </trkpt>
      <trkpt lat="42.763370" lon="-2.831032">
        <ele>482.726</ele>
        <time>2011-02-12T09:59:23Z</time>
      </trkpt>
      <trkpt lat="42.763361" lon="-2.830952">
        <ele>484.232</ele>
        <time>2011-02-12T09:59:28Z</time>
      </trkpt>
      <trkpt lat="42.763361" lon="-2.830873">
        <ele>484.692</ele>
        <time>2011-02-12T09:59:33Z</time>
      </trkpt>
      <trkpt lat="42.763347" lon="-2.830781">
        <ele>485.111</ele>
        <time>2011-02-12T09:59:38Z</time>
      </trkpt>
      <trkpt lat="42.763360" lon="-2.830710">
        <ele>485.607</ele>
        <time>2011-02-12T09:59:43Z</time>
      </trkpt>
      <trkpt lat="42.763350" lon="-2.830640">
        <ele>486.165</ele>
        <time>2011-02-12T09:59:48Z</time>
      </trkpt>
      <trkpt lat="42.763320" lon="-2.830580">
        <ele>486.176</ele>
        <time>2011-02-12T09:59:53Z</time>
      </trkpt>
      <trkpt lat="42.763290" lon="-2.830520">
        <ele>486.135</ele>
        <time>2011-02-12T09:59:58Z</time>
      </trkpt>
      <trkpt lat="42.763240" lon="-2.830470">
        <ele>486.148</ele>
        <time>2011-02-12T10:00:03Z</time>
      </trkpt>
      <trkpt lat="42.763180" lon="-2.830460">
        <ele>485.671</ele>
        <time>2011-02-12T10:00:08Z</time>
      </trkpt>
      <trkpt lat="42.763120" lon="-2.830460">
        <ele>485.122</ele>
        <time>2011-02-12T10:00:13Z</time>
      </trkpt>
      <trkpt lat="42.763060" lon="-2.830480">
        <ele>484.634</ele>
        <time>2011-02-12T10:00:18Z</time>
      </trkpt>
      <trkpt lat="42.763000" lon="-2.830500">
        <ele>484.261</ele>
        <time>2011-02-12T10:00:23Z</time>
      </trkpt>
      <trkpt lat="42.762940" lon="-2.830510">
        <ele>483.721</ele>
        <time>2011-02-12T10:00:28Z</time>
      </trkpt>
      <trkpt lat="42.762880" lon="-2.830520">
        <ele>482.713</ele>
        <time>2011-02-12T10:00:33Z</time>
      </trkpt>
      <trkpt lat="42.762820" lon="-2.830530">
        <ele>482.207</ele>
        <time>2011-02-12T10:00:38Z</time>
      </trkpt>
      <trkpt lat="42.762760" lon="-2.830540">
        <ele>481.878</ele>
        <time>2011-02-12T10:00:43Z</time>
      </trkpt>
      <trkpt lat="42.762700" lon="-2.830550">
        <ele>480.849</ele>
        <time>2011-02-12T10:00:48Z</time>
      </trkpt>
      <trkpt lat="42.762640" lon="-2.830560">
        <ele>480.818</ele>
        <time>2011-02-12T10:00:53Z</time>
      </trkpt>
      <trkpt lat="42.762590" lon="-2.830570">
        <ele>480.881</ele>
        <time>2011-02-12T10:00:58Z</time>
      </trkpt>
      <trkpt lat="42.762540" lon="-2.830590">
        <ele>480.834</ele>
        <time>2011-02-12T10:01:03Z</time>
      </trkpt>
      <trkpt lat="42.762480" lon="-2.830600">
        <ele>480.335</ele>
        <time>2011-02-12T10:01:08Z</time>
      </trkpt>
      <trkpt lat="42.762420" lon="-2.830610">
        <ele>479.467</ele>
        <time>2011-02-12T10:01:13Z</time>
      </trkpt>
      <trkpt lat="42.762360" lon="-2.830630">
        <ele>479.875</ele>
        <time>2011-02-12T10:01:18Z</time>
      </trkpt>
      <trkpt lat="42.762300" lon="-2.830640">
        <ele>479.428</ele>
        <time>2011-02-12T10:01:23Z</time>
      </trkpt>
      <trkpt lat="42.762240" lon="-2.830660">
        <ele>478.420</ele>
        <time>2011-02-12T10:01:28Z</time>
      </trkpt>
      <trkpt lat="42.762180" lon="-2.830670">
        <ele>478.907</ele>
        <time>2011-02-12T10:01:33Z</time>
      </trkpt>
      <trkpt lat="42.762110" lon="-2.830690">
        <ele>478.499</ele>
        <time>2011-02-12T10:01:38Z</time>
      </trkpt>
      <trkpt lat="42.762050" lon="-2.830700">
        <ele>478.450</ele>
        <time>2011-02-12T10:01:43Z</time>
      </trkpt>
      <trkpt lat="42.761990" lon="-2.830720">
        <ele>477.989</ele>
        <time>2011-02-12T10:01:48Z</time>
      </trkpt>
      <trkpt lat="42.761930" lon="-2.830730">
        <ele>477.492</ele>
        <time>2011-02-12T10:01:53Z</time>
      </trkpt>
      <trkpt lat="42.761860" lon="-2.830740">
        <ele>477.415</ele>
        <time>2011-02-12T10:01:58Z</time>
      </trkpt>
      <trkpt lat="42.761800" lon="-2.830760">
        <ele>477.446</ele>
        <time>2011-02-12T10:02:03Z</time>
      </trkpt>
      <trkpt lat="42.761740" lon="-2.830770">
        <ele>477.048</ele>
        <time>2011-02-12T10:02:08Z</time>
      </trkpt>
      <trkpt lat="42.761670" lon="-2.830780">
        <ele>477.053</ele>
        <time>2011-02-12T10:02:13Z</time>
      </trkpt>
      <trkpt lat="42.761610" lon="-2.830790">
        <ele>477.404</ele>
        <time>2011-02-12T10:02:18Z</time>
      </trkpt>
      <trkpt lat="42.761550" lon="-2.830800">
        <ele>477.414</ele>
        <time>2011-02-12T10:02:23Z</time>
      </trkpt>
      <trkpt lat="42.761480" lon="-2.830810">
        <ele>477.407</ele>
        <time>2011-02-12T10:02:28Z</time>
      </trkpt>
      <trkpt lat="42.761420" lon="-2.830830">
        <ele>477.457</ele>
        <time>2011-02-12T10:02:33Z</time>
      </trkpt>
      <trkpt lat="42.761350" lon="-2.830840">
        <ele>477.088</ele>
        <time>2011-02-12T10:02:38Z</time>
      </trkpt>
      <trkpt lat="42.761290" lon="-2.830850">
        <ele>477.067</ele>
        <time>2011-02-12T10:02:43Z</time>
      </trkpt>
      <trkpt lat="42.761230" lon="-2.830850">
        <ele>477.050</ele>
        <time>2011-02-12T10:02:48Z</time>
      </trkpt>
      <trkpt lat="42.761160" lon="-2.830860">
        <ele>476.583</ele>
        <time>2011-02-12T10:02:53Z</time>
      </trkpt>
      <trkpt lat="42.761100" lon="-2.830870">
        <ele>477.474</ele>
        <time>2011-02-12T10:02:58Z</time>
      </trkpt>
      <trkpt lat="42.761040" lon="-2.830870">
        <ele>477.026</ele>
        <time>2011-02-12T10:03:03Z</time>
      </trkpt>
      <trkpt lat="42.760970" lon="-2.830880">
        <ele>477.082</ele>
        <time>2011-02-12T10:03:08Z</time>
      </trkpt>
      <trkpt lat="42.760910" lon="-2.830890">
        <ele>476.543</ele>
        <time>2011-02-12T10:03:13Z</time>
      </trkpt>
      <trkpt lat="42.760840" lon="-2.830900">
        <ele>476.017</ele>
        <time>2011-02-12T10:03:18Z</time>
      </trkpt>
      <trkpt lat="42.760770" lon="-2.830910">
        <ele>476.007</ele>
        <time>2011-02-12T10:03:23Z</time>
      </trkpt>
      <trkpt lat="42.760710" lon="-2.830930">
        <ele>476.030</ele>
        <time>2011-02-12T10:03:28Z</time>
      </trkpt>
      <trkpt lat="42.760640" lon="-2.830940">
        <ele>476.581</ele>
        <time>2011-02-12T10:03:33Z</time>
      </trkpt>
      <trkpt lat="42.760580" lon="-2.830960">
        <ele>476.570</ele>
        <time>2011-02-12T10:03:38Z</time>
      </trkpt>
      <trkpt lat="42.760510" lon="-2.830970">
        <ele>476.053</ele>
        <time>2011-02-12T10:03:43Z</time>
      </trkpt>
      <trkpt lat="42.760450" lon="-2.830990">
        <ele>475.596</ele>
        <time>2011-02-12T10:03:48Z</time>
      </trkpt>
      <trkpt lat="42.760390" lon="-2.831000">
        <ele>476.057</ele>
        <time>2011-02-12T10:03:53Z</time>
      </trkpt>
      <trkpt lat="42.760320" lon="-2.831030">
        <ele>475.549</ele>
        <time>2011-02-12T10:03:58Z</time>
      </trkpt>
      <trkpt lat="42.760260" lon="-2.831050">
        <ele>475.045</ele>
        <time>2011-02-12T10:04:03Z</time>
      </trkpt>
      <trkpt lat="42.760190" lon="-2.831060">
        <ele>475.047</ele>
        <time>2011-02-12T10:04:08Z</time>
      </trkpt>
      <trkpt lat="42.760130" lon="-2.831080">
        <ele>474.511</ele>
        <time>2011-02-12T10:04:13Z</time>
      </trkpt>
      <trkpt lat="42.760060" lon="-2.831100">
        <ele>475.507</ele>
        <time>2011-02-12T10:04:18Z</time>
      </trkpt>
      <trkpt lat="42.759990" lon="-2.831120">
        <ele>474.566</ele>
        <time>2011-02-12T10:04:23Z</time>
      </trkpt>
      <trkpt lat="42.759930" lon="-2.831140">
        <ele>475.077</ele>
        <time>2011-02-12T10:04:28Z</time>
      </trkpt>
      <trkpt lat="42.759860" lon="-2.831160">
        <ele>475.516</ele>
        <time>2011-02-12T10:04:33Z</time>
      </trkpt>
      <trkpt lat="42.759790" lon="-2.831180">
        <ele>475.539</ele>
        <time>2011-02-12T10:04:38Z</time>
      </trkpt>
      <trkpt lat="42.759730" lon="-2.831200">
        <ele>475.542</ele>
        <time>2011-02-12T10:04:43Z</time>
      </trkpt>
      <trkpt lat="42.759660" lon="-2.831210">
        <ele>474.533</ele>
        <time>2011-02-12T10:04:48Z</time>
      </trkpt>
      <trkpt lat="42.759590" lon="-2.831230">
        <ele>474.545</ele>
        <time>2011-02-12T10:04:53Z</time>
      </trkpt>
      <trkpt lat="42.759520" lon="-2.831250">
        <ele>474.559</ele>
        <time>2011-02-12T10:04:58Z</time>
      </trkpt>
      <trkpt lat="42.759450" lon="-2.831280">
        <ele>475.003</ele>
        <time>2011-02-12T10:05:03Z</time>
      </trkpt>
      <trkpt lat="42.759380" lon="-2.831300">
        <ele>473.623</ele>
        <time>2011-02-12T10:05:08Z</time>
      </trkpt>
      <trkpt lat="42.759310" lon="-2.831330">
        <ele>473.607</ele>
        <time>2011-02-12T10:05:13Z</time>
      </trkpt>
      <trkpt lat="42.759230" lon="-2.831350">
        <ele>474.157</ele>
        <time>2011-02-12T10:05:18Z</time>
      </trkpt>
      <trkpt lat="42.759170" lon="-2.831380">
        <ele>474.188</ele>
        <time>2011-02-12T10:05:23Z</time>
      </trkpt>
      <trkpt lat="42.759100" lon="-2.831410">
        <ele>473.677</ele>
        <time>2011-02-12T10:05:28Z</time>
      </trkpt>
      <trkpt lat="42.759040" lon="-2.831430">
        <ele>473.620</ele>
        <time>2011-02-12T10:05:33Z</time>
      </trkpt>
      <trkpt lat="42.758980" lon="-2.831460">
        <ele>473.673</ele>
        <time>2011-02-12T10:05:38Z</time>
      </trkpt>
      <trkpt lat="42.758910" lon="-2.831490">
        <ele>473.644</ele>
        <time>2011-02-12T10:05:43Z</time>
      </trkpt>
      <trkpt lat="42.758840" lon="-2.831530">
        <ele>473.126</ele>
        <time>2011-02-12T10:05:48Z</time>
      </trkpt>
      <trkpt lat="42.758770" lon="-2.831570">
        <ele>473.633</ele>
        <time>2011-02-12T10:05:53Z</time>
      </trkpt>
      <trkpt lat="42.758710" lon="-2.831610">
        <ele>474.123</ele>
        <time>2011-02-12T10:05:58Z</time>
      </trkpt>
      <trkpt lat="42.758650" lon="-2.831650">
        <ele>473.615</ele>
        <time>2011-02-12T10:06:03Z</time>
      </trkpt>
      <trkpt lat="42.758580" lon="-2.831690">
        <ele>473.607</ele>
        <time>2011-02-12T10:06:08Z</time>
      </trkpt>
      <trkpt lat="42.758520" lon="-2.831730">
        <ele>473.115</ele>
        <time>2011-02-12T10:06:13Z</time>
      </trkpt>
      <trkpt lat="42.758460" lon="-2.831780">
        <ele>473.186</ele>
        <time>2011-02-12T10:06:18Z</time>
      </trkpt>
      <trkpt lat="42.758400" lon="-2.831830">
        <ele>473.145</ele>
        <time>2011-02-12T10:06:23Z</time>
      </trkpt>
      <trkpt lat="42.758340" lon="-2.831880">
        <ele>473.198</ele>
        <time>2011-02-12T10:06:28Z</time>
      </trkpt>
      <trkpt lat="42.758280" lon="-2.831930">
        <ele>472.651</ele>
        <time>2011-02-12T10:06:33Z</time>
      </trkpt>
      <trkpt lat="42.758220" lon="-2.831980">
        <ele>473.662</ele>
        <time>2011-02-12T10:06:38Z</time>
      </trkpt>
      <trkpt lat="42.758170" lon="-2.832040">
        <ele>472.624</ele>
        <time>2011-02-12T10:06:43Z</time>
      </trkpt>
      <trkpt lat="42.758120" lon="-2.832070">
        <ele>472.613</ele>
        <time>2011-02-12T10:06:48Z</time>
      </trkpt>
      <trkpt lat="42.758070" lon="-2.832110">
        <ele>472.643</ele>
        <time>2011-02-12T10:06:53Z</time>
      </trkpt>
      <trkpt lat="42.758020" lon="-2.832160">
        <ele>473.107</ele>
        <time>2011-02-12T10:06:58Z</time>
      </trkpt>
      <trkpt lat="42.757970" lon="-2.832220">
        <ele>472.607</ele>
        <time>2011-02-12T10:07:03Z</time>
      </trkpt>
      <trkpt lat="42.757910" lon="-2.832280">
        <ele>472.183</ele>
        <time>2011-02-12T10:07:08Z</time>
      </trkpt>
      <trkpt lat="42.757800" lon="-2.832410">
        <ele>472.114</ele>
        <time>2011-02-12T10:07:18Z</time>
      </trkpt>
      <trkpt lat="42.757750" lon="-2.832480">
        <ele>471.743</ele>
        <time>2011-02-12T10:07:23Z</time>
      </trkpt>
      <trkpt lat="42.757690" lon="-2.832560">
        <ele>470.236</ele>
        <time>2011-02-12T10:07:29Z</time>
      </trkpt>
      <trkpt lat="42.757640" lon="-2.832620">
        <ele>470.249</ele>
        <time>2011-02-12T10:07:34Z</time>
      </trkpt>
      <trkpt lat="42.757590" lon="-2.832690">
        <ele>472.130</ele>
        <time>2011-02-12T10:07:39Z</time>
      </trkpt>
      <trkpt lat="42.757540" lon="-2.832750">
        <ele>471.272</ele>
        <time>2011-02-12T10:07:44Z</time>
      </trkpt>
      <trkpt lat="42.757490" lon="-2.832810">
        <ele>472.126</ele>
        <time>2011-02-12T10:07:49Z</time>
      </trkpt>
      <trkpt lat="42.757443" lon="-2.832869">
        <ele>471.747</ele>
        <time>2011-02-12T10:07:54Z</time>
      </trkpt>
      <trkpt lat="42.757384" lon="-2.832918">
        <ele>472.111</ele>
        <time>2011-02-12T10:07:59Z</time>
      </trkpt>
      <trkpt lat="42.757335" lon="-2.832991">
        <ele>472.607</ele>
        <time>2011-02-12T10:08:04Z</time>
      </trkpt>
      <trkpt lat="42.757285" lon="-2.833059">
        <ele>472.644</ele>
        <time>2011-02-12T10:08:09Z</time>
      </trkpt>
      <trkpt lat="42.757236" lon="-2.833120">
        <ele>472.625</ele>
        <time>2011-02-12T10:08:14Z</time>
      </trkpt>
      <trkpt lat="42.757195" lon="-2.833187">
        <ele>472.644</ele>
        <time>2011-02-12T10:08:19Z</time>
      </trkpt>
      <trkpt lat="42.757146" lon="-2.833261">
        <ele>472.187</ele>
        <time>2011-02-12T10:08:24Z</time>
      </trkpt>
      <trkpt lat="42.757097" lon="-2.833328">
        <ele>472.190</ele>
        <time>2011-02-12T10:08:29Z</time>
      </trkpt>
      <trkpt lat="42.757047" lon="-2.833401">
        <ele>472.191</ele>
        <time>2011-02-12T10:08:34Z</time>
      </trkpt>
      <trkpt lat="42.756984" lon="-2.833469">
        <ele>471.733</ele>
        <time>2011-02-12T10:08:39Z</time>
      </trkpt>
      <trkpt lat="42.756935" lon="-2.833536">
        <ele>471.269</ele>
        <time>2011-02-12T10:08:44Z</time>
      </trkpt>
      <trkpt lat="42.756876" lon="-2.833597">
        <ele>471.204</ele>
        <time>2011-02-12T10:08:49Z</time>
      </trkpt>
      <trkpt lat="42.756827" lon="-2.833677">
        <ele>471.724</ele>
        <time>2011-02-12T10:08:54Z</time>
      </trkpt>
      <trkpt lat="42.756769" lon="-2.833744">
        <ele>471.707</ele>
        <time>2011-02-12T10:08:59Z</time>
      </trkpt>
      <trkpt lat="42.756719" lon="-2.833818">
        <ele>471.278</ele>
        <time>2011-02-12T10:09:04Z</time>
      </trkpt>
      <trkpt lat="42.756679" lon="-2.833879">
        <ele>471.229</ele>
        <time>2011-02-12T10:09:09Z</time>
      </trkpt>
      <trkpt lat="42.756616" lon="-2.833959">
        <ele>471.258</ele>
        <time>2011-02-12T10:09:14Z</time>
      </trkpt>
      <trkpt lat="42.756566" lon="-2.834026">
        <ele>471.221</ele>
        <time>2011-02-12T10:09:19Z</time>
      </trkpt>
      <trkpt lat="42.756517" lon="-2.834105">
        <ele>471.264</ele>
        <time>2011-02-12T10:09:24Z</time>
      </trkpt>
      <trkpt lat="42.756454" lon="-2.834173">
        <ele>470.775</ele>
        <time>2011-02-12T10:09:29Z</time>
      </trkpt>
      <trkpt lat="42.756405" lon="-2.834252">
        <ele>470.727</ele>
        <time>2011-02-12T10:09:34Z</time>
      </trkpt>
      <trkpt lat="42.756351" lon="-2.834320">
        <ele>471.277</ele>
        <time>2011-02-12T10:09:39Z</time>
      </trkpt>
      <trkpt lat="42.756301" lon="-2.834393">
        <ele>471.261</ele>
        <time>2011-02-12T10:09:44Z</time>
      </trkpt>
      <trkpt lat="42.756238" lon="-2.834454">
        <ele>470.727</ele>
        <time>2011-02-12T10:09:49Z</time>
      </trkpt>
      <trkpt lat="42.756180" lon="-2.834522">
        <ele>470.707</ele>
        <time>2011-02-12T10:09:54Z</time>
      </trkpt>
      <trkpt lat="42.756130" lon="-2.834601">
        <ele>470.729</ele>
        <time>2011-02-12T10:09:59Z</time>
      </trkpt>
      <trkpt lat="42.756067" lon="-2.834675">
        <ele>470.270</ele>
        <time>2011-02-12T10:10:04Z</time>
      </trkpt>
      <trkpt lat="42.756027" lon="-2.834754">
        <ele>470.789</ele>
        <time>2011-02-12T10:10:09Z</time>
      </trkpt>
      <trkpt lat="42.755969" lon="-2.834822">
        <ele>470.262</ele>
        <time>2011-02-12T10:10:14Z</time>
      </trkpt>
      <trkpt lat="42.755919" lon="-2.834889">
        <ele>470.775</ele>
        <time>2011-02-12T10:10:19Z</time>
      </trkpt>
      <trkpt lat="42.755870" lon="-2.834963">
        <ele>470.786</ele>
        <time>2011-02-12T10:10:24Z</time>
      </trkpt>
      <trkpt lat="42.755820" lon="-2.835030">
        <ele>470.778</ele>
        <time>2011-02-12T10:10:29Z</time>
      </trkpt>
      <trkpt lat="42.755771" lon="-2.835103">
        <ele>471.231</ele>
        <time>2011-02-12T10:10:34Z</time>
      </trkpt>
      <trkpt lat="42.755708" lon="-2.835171">
        <ele>471.261</ele>
        <time>2011-02-12T10:10:39Z</time>
      </trkpt>
      <trkpt lat="42.755659" lon="-2.835244">
        <ele>470.707</ele>
        <time>2011-02-12T10:10:44Z</time>
      </trkpt>
      <trkpt lat="42.755609" lon="-2.835312">
        <ele>471.207</ele>
        <time>2011-02-12T10:10:49Z</time>
      </trkpt>
      <trkpt lat="42.755560" lon="-2.835385">
        <ele>470.765</ele>
        <time>2011-02-12T10:10:54Z</time>
      </trkpt>
      <trkpt lat="42.755510" lon="-2.835452">
        <ele>471.256</ele>
        <time>2011-02-12T10:10:59Z</time>
      </trkpt>
      <trkpt lat="42.755461" lon="-2.835520">
        <ele>471.285</ele>
        <time>2011-02-12T10:11:04Z</time>
      </trkpt>
      <trkpt lat="42.755407" lon="-2.835593">
        <ele>471.748</ele>
        <time>2011-02-12T10:11:09Z</time>
      </trkpt>
      <trkpt lat="42.755350" lon="-2.835650">
        <ele>471.291</ele>
        <time>2011-02-12T10:11:14Z</time>
      </trkpt>
      <trkpt lat="42.755290" lon="-2.835720">
        <ele>471.712</ele>
        <time>2011-02-12T10:11:19Z</time>
      </trkpt>
      <trkpt lat="42.755240" lon="-2.835790">
        <ele>471.294</ele>
        <time>2011-02-12T10:11:24Z</time>
      </trkpt>
      <trkpt lat="42.755190" lon="-2.835860">
        <ele>470.714</ele>
        <time>2011-02-12T10:11:29Z</time>
      </trkpt>
      <trkpt lat="42.755140" lon="-2.835940">
        <ele>470.754</ele>
        <time>2011-02-12T10:11:34Z</time>
      </trkpt>
      <trkpt lat="42.755090" lon="-2.836010">
        <ele>470.709</ele>
        <time>2011-02-12T10:11:39Z</time>
      </trkpt>
      <trkpt lat="42.755040" lon="-2.836080">
        <ele>470.207</ele>
        <time>2011-02-12T10:11:44Z</time>
      </trkpt>
      <trkpt lat="42.754980" lon="-2.836150">
        <ele>470.213</ele>
        <time>2011-02-12T10:11:49Z</time>
      </trkpt>
      <trkpt lat="42.754930" lon="-2.836220">
        <ele>470.284</ele>
        <time>2011-02-12T10:11:54Z</time>
      </trkpt>
      <trkpt lat="42.754880" lon="-2.836290">
        <ele>470.213</ele>
        <time>2011-02-12T10:11:59Z</time>
      </trkpt>
      <trkpt lat="42.754830" lon="-2.836360">
        <ele>470.266</ele>
        <time>2011-02-12T10:12:04Z</time>
      </trkpt>
      <trkpt lat="42.754770" lon="-2.836430">
        <ele>469.779</ele>
        <time>2011-02-12T10:12:09Z</time>
      </trkpt>
      <trkpt lat="42.754720" lon="-2.836500">
        <ele>470.270</ele>
        <time>2011-02-12T10:12:14Z</time>
      </trkpt>
      <trkpt lat="42.754670" lon="-2.836570">
        <ele>469.752</ele>
        <time>2011-02-12T10:12:19Z</time>
      </trkpt>
      <trkpt lat="42.754620" lon="-2.836640">
        <ele>469.744</ele>
        <time>2011-02-12T10:12:24Z</time>
      </trkpt>
      <trkpt lat="42.754570" lon="-2.836710">
        <ele>469.705</ele>
        <time>2011-02-12T10:12:29Z</time>
      </trkpt>
      <trkpt lat="42.754520" lon="-2.836770">
        <ele>470.215</ele>
        <time>2011-02-12T10:12:34Z</time>
      </trkpt>
      <trkpt lat="42.754470" lon="-2.836840">
        <ele>470.207</ele>
        <time>2011-02-12T10:12:39Z</time>
      </trkpt>
      <trkpt lat="42.754420" lon="-2.836920">
        <ele>470.276</ele>
        <time>2011-02-12T10:12:44Z</time>
      </trkpt>
      <trkpt lat="42.754370" lon="-2.836990">
        <ele>470.227</ele>
        <time>2011-02-12T10:12:49Z</time>
      </trkpt>
      <trkpt lat="42.754310" lon="-2.837060">
        <ele>470.736</ele>
        <time>2011-02-12T10:12:54Z</time>
      </trkpt>
      <trkpt lat="42.754270" lon="-2.837130">
        <ele>470.719</ele>
        <time>2011-02-12T10:12:59Z</time>
      </trkpt>
      <trkpt lat="42.754210" lon="-2.837200">
        <ele>470.712</ele>
        <time>2011-02-12T10:13:04Z</time>
      </trkpt>
      <trkpt lat="42.754160" lon="-2.837270">
        <ele>470.753</ele>
        <time>2011-02-12T10:13:09Z</time>
      </trkpt>
      <trkpt lat="42.754110" lon="-2.837340">
        <ele>470.725</ele>
        <time>2011-02-12T10:13:14Z</time>
      </trkpt>
      <trkpt lat="42.754060" lon="-2.837410">
        <ele>470.288</ele>
        <time>2011-02-12T10:13:19Z</time>
      </trkpt>
      <trkpt lat="42.754010" lon="-2.837480">
        <ele>470.724</ele>
        <time>2011-02-12T10:13:24Z</time>
      </trkpt>
      <trkpt lat="42.753950" lon="-2.837550">
        <ele>470.726</ele>
        <time>2011-02-12T10:13:29Z</time>
      </trkpt>
      <trkpt lat="42.753900" lon="-2.837620">
        <ele>470.207</ele>
        <time>2011-02-12T10:13:34Z</time>
      </trkpt>
      <trkpt lat="42.753850" lon="-2.837690">
        <ele>470.720</ele>
        <time>2011-02-12T10:13:39Z</time>
      </trkpt>
      <trkpt lat="42.753800" lon="-2.837760">
        <ele>470.731</ele>
        <time>2011-02-12T10:13:44Z</time>
      </trkpt>
      <trkpt lat="42.753750" lon="-2.837840">
        <ele>470.250</ele>
        <time>2011-02-12T10:13:49Z</time>
      </trkpt>
      <trkpt lat="42.753700" lon="-2.837900">
        <ele>470.273</ele>
        <time>2011-02-12T10:13:54Z</time>
      </trkpt>
      <trkpt lat="42.753650" lon="-2.837960">
        <ele>469.716</ele>
        <time>2011-02-12T10:13:59Z</time>
      </trkpt>
      <trkpt lat="42.753600" lon="-2.838020">
        <ele>469.327</ele>
        <time>2011-02-12T10:14:04Z</time>
      </trkpt>
      <trkpt lat="42.753540" lon="-2.838090">
        <ele>469.329</ele>
        <time>2011-02-12T10:14:09Z</time>
      </trkpt>
      <trkpt lat="42.753490" lon="-2.838160">
        <ele>468.838</ele>
        <time>2011-02-12T10:14:14Z</time>
      </trkpt>
      <trkpt lat="42.753430" lon="-2.838230">
        <ele>468.870</ele>
        <time>2011-02-12T10:14:19Z</time>
      </trkpt>
      <trkpt lat="42.753380" lon="-2.838290">
        <ele>469.717</ele>
        <time>2011-02-12T10:14:24Z</time>
      </trkpt>
      <trkpt lat="42.753330" lon="-2.838360">
        <ele>469.707</ele>
        <time>2011-02-12T10:14:29Z</time>
      </trkpt>
      <trkpt lat="42.753270" lon="-2.838420">
        <ele>469.795</ele>
        <time>2011-02-12T10:14:34Z</time>
      </trkpt>
      <trkpt lat="42.753220" lon="-2.838480">
        <ele>469.756</ele>
        <time>2011-02-12T10:14:39Z</time>
      </trkpt>
      <trkpt lat="42.753160" lon="-2.838510">
        <ele>470.265</ele>
        <time>2011-02-12T10:14:44Z</time>
      </trkpt>
      <trkpt lat="42.753100" lon="-2.838490">
        <ele>470.788</ele>
        <time>2011-02-12T10:14:49Z</time>
      </trkpt>
      <trkpt lat="42.753040" lon="-2.838450">
        <ele>471.231</ele>
        <time>2011-02-12T10:14:54Z</time>
      </trkpt>
      <trkpt lat="42.752990" lon="-2.838400">
        <ele>470.742</ele>
        <time>2011-02-12T10:14:59Z</time>
      </trkpt>
      <trkpt lat="42.752930" lon="-2.838340">
        <ele>470.284</ele>
        <time>2011-02-12T10:15:04Z</time>
      </trkpt>
      <trkpt lat="42.752880" lon="-2.838290">
        <ele>469.733</ele>
        <time>2011-02-12T10:15:09Z</time>
      </trkpt>
      <trkpt lat="42.752820" lon="-2.838220">
        <ele>469.323</ele>
        <time>2011-02-12T10:15:14Z</time>
      </trkpt>
      <trkpt lat="42.752770" lon="-2.838160">
        <ele>468.815</ele>
        <time>2011-02-12T10:15:19Z</time>
      </trkpt>
      <trkpt lat="42.752710" lon="-2.838100">
        <ele>469.307</ele>
        <time>2011-02-12T10:15:24Z</time>
      </trkpt>
      <trkpt lat="42.752660" lon="-2.838040">
        <ele>469.345</ele>
        <time>2011-02-12T10:15:29Z</time>
      </trkpt>
      <trkpt lat="42.752600" lon="-2.837980">
        <ele>469.726</ele>
        <time>2011-02-12T10:15:34Z</time>
      </trkpt>
      <trkpt lat="42.752550" lon="-2.837920">
        <ele>469.735</ele>
        <time>2011-02-12T10:15:39Z</time>
      </trkpt>
      <trkpt lat="42.752490" lon="-2.837860">
        <ele>469.368</ele>
        <time>2011-02-12T10:15:44Z</time>
      </trkpt>
      <trkpt lat="42.752440" lon="-2.837800">
        <ele>469.761</ele>
        <time>2011-02-12T10:15:49Z</time>
      </trkpt>
      <trkpt lat="42.752410" lon="-2.837730">
        <ele>469.772</ele>
        <time>2011-02-12T10:15:54Z</time>
      </trkpt>
      <trkpt lat="42.752350" lon="-2.837670">
        <ele>469.784</ele>
        <time>2011-02-12T10:15:59Z</time>
      </trkpt>
      <trkpt lat="42.752300" lon="-2.837620">
        <ele>469.771</ele>
        <time>2011-02-12T10:16:04Z</time>
      </trkpt>
      <trkpt lat="42.752250" lon="-2.837560">
        <ele>470.241</ele>
        <time>2011-02-12T10:16:09Z</time>
      </trkpt>
      <trkpt lat="42.752200" lon="-2.837500">
        <ele>470.215</ele>
        <time>2011-02-12T10:16:14Z</time>
      </trkpt>
      <trkpt lat="42.752140" lon="-2.837440">
        <ele>470.207</ele>
        <time>2011-02-12T10:16:19Z</time>
      </trkpt>
      <trkpt lat="42.752090" lon="-2.837370">
        <ele>470.269</ele>
        <time>2011-02-12T10:16:24Z</time>
      </trkpt>
      <trkpt lat="42.752030" lon="-2.837310">
        <ele>470.260</ele>
        <time>2011-02-12T10:16:29Z</time>
      </trkpt>
      <trkpt lat="42.751980" lon="-2.837250">
        <ele>470.739</ele>
        <time>2011-02-12T10:16:34Z</time>
      </trkpt>
      <trkpt lat="42.751920" lon="-2.837180">
        <ele>470.272</ele>
        <time>2011-02-12T10:16:39Z</time>
      </trkpt>
      <trkpt lat="42.751870" lon="-2.837120">
        <ele>470.255</ele>
        <time>2011-02-12T10:16:44Z</time>
      </trkpt>
      <trkpt lat="42.751810" lon="-2.837060">
        <ele>470.766</ele>
        <time>2011-02-12T10:16:49Z</time>
      </trkpt>
      <trkpt lat="42.751760" lon="-2.837000">
        <ele>470.218</ele>
        <time>2011-02-12T10:16:54Z</time>
      </trkpt>
      <trkpt lat="42.751710" lon="-2.836940">
        <ele>470.753</ele>
        <time>2011-02-12T10:16:59Z</time>
      </trkpt>
      <trkpt lat="42.751650" lon="-2.836880">
        <ele>470.704</ele>
        <time>2011-02-12T10:17:04Z</time>
      </trkpt>
      <trkpt lat="42.751600" lon="-2.836830">
        <ele>470.714</ele>
        <time>2011-02-12T10:17:09Z</time>
      </trkpt>
      <trkpt lat="42.751550" lon="-2.836760">
        <ele>470.707</ele>
        <time>2011-02-12T10:17:14Z</time>
      </trkpt>
      <trkpt lat="42.751490" lon="-2.836710">
        <ele>470.767</ele>
        <time>2011-02-12T10:17:19Z</time>
      </trkpt>
      <trkpt lat="42.751140" lon="-2.836310">
        <ele>471.218</ele>
        <time>2011-02-12T10:17:54Z</time>
      </trkpt>
      <trkpt lat="42.751070" lon="-2.836260">
        <ele>470.217</ele>
        <time>2011-02-12T10:17:59Z</time>
      </trkpt>
      <trkpt lat="42.751010" lon="-2.836210">
        <ele>470.770</ele>
        <time>2011-02-12T10:18:04Z</time>
      </trkpt>
      <trkpt lat="42.750950" lon="-2.836140">
        <ele>471.243</ele>
        <time>2011-02-12T10:18:10Z</time>
      </trkpt>
      <trkpt lat="42.750890" lon="-2.836090">
        <ele>470.754</ele>
        <time>2011-02-12T10:18:15Z</time>
      </trkpt>
      <trkpt lat="42.750830" lon="-2.836070">
        <ele>471.266</ele>
        <time>2011-02-12T10:18:20Z</time>
      </trkpt>
      <trkpt lat="42.750780" lon="-2.836110">
        <ele>471.794</ele>
        <time>2011-02-12T10:18:25Z</time>
      </trkpt>
      <trkpt lat="42.750760" lon="-2.836140">
        <ele>468.857</ele>
        <time>2011-02-12T10:18:28Z</time>
      </trkpt>
      <trkpt lat="42.750720" lon="-2.836280">
        <ele>471.722</ele>
        <time>2011-02-12T10:18:38Z</time>
      </trkpt>
      <trkpt lat="42.750720" lon="-2.836370">
        <ele>471.707</ele>
        <time>2011-02-12T10:18:43Z</time>
      </trkpt>
      <trkpt lat="42.750710" lon="-2.836440">
        <ele>471.781</ele>
        <time>2011-02-12T10:18:48Z</time>
      </trkpt>
      <trkpt lat="42.750710" lon="-2.836500">
        <ele>471.712</ele>
        <time>2011-02-12T10:18:53Z</time>
      </trkpt>
      <trkpt lat="42.750720" lon="-2.836560">
        <ele>471.741</ele>
        <time>2011-02-12T10:18:58Z</time>
      </trkpt>
      <trkpt lat="42.750710" lon="-2.836640">
        <ele>472.114</ele>
        <time>2011-02-12T10:19:03Z</time>
      </trkpt>
      <trkpt lat="42.750710" lon="-2.836720">
        <ele>471.747</ele>
        <time>2011-02-12T10:19:08Z</time>
      </trkpt>
      <trkpt lat="42.750700" lon="-2.836800">
        <ele>471.798</ele>
        <time>2011-02-12T10:19:13Z</time>
      </trkpt>
      <trkpt lat="42.750700" lon="-2.836890">
        <ele>471.740</ele>
        <time>2011-02-12T10:19:18Z</time>
      </trkpt>
      <trkpt lat="42.750690" lon="-2.836970">
        <ele>471.212</ele>
        <time>2011-02-12T10:19:23Z</time>
      </trkpt>
      <trkpt lat="42.750670" lon="-2.837050">
        <ele>471.732</ele>
        <time>2011-02-12T10:19:28Z</time>
      </trkpt>
      <trkpt lat="42.750650" lon="-2.837110">
        <ele>471.205</ele>
        <time>2011-02-12T10:19:33Z</time>
      </trkpt>
      <trkpt lat="42.750620" lon="-2.837170">
        <ele>471.707</ele>
        <time>2011-02-12T10:19:38Z</time>
      </trkpt>
      <trkpt lat="42.750600" lon="-2.837230">
        <ele>471.713</ele>
        <time>2011-02-12T10:19:43Z</time>
      </trkpt>
      <trkpt lat="42.750570" lon="-2.837310">
        <ele>471.224</ele>
        <time>2011-02-12T10:19:48Z</time>
      </trkpt>
      <trkpt lat="42.750550" lon="-2.837380">
        <ele>472.113</ele>
        <time>2011-02-12T10:19:53Z</time>
      </trkpt>
      <trkpt lat="42.750520" lon="-2.837460">
        <ele>471.746</ele>
        <time>2011-02-12T10:19:58Z</time>
      </trkpt>
      <trkpt lat="42.750490" lon="-2.837530">
        <ele>471.239</ele>
        <time>2011-02-12T10:20:03Z</time>
      </trkpt>
      <trkpt lat="42.750460" lon="-2.837610">
        <ele>471.790</ele>
        <time>2011-02-12T10:20:08Z</time>
      </trkpt>
      <trkpt lat="42.750430" lon="-2.837680">
        <ele>471.752</ele>
        <time>2011-02-12T10:20:13Z</time>
      </trkpt>
      <trkpt lat="42.750400" lon="-2.837760">
        <ele>471.774</ele>
        <time>2011-02-12T10:20:18Z</time>
      </trkpt>
      <trkpt lat="42.750370" lon="-2.837840">
        <ele>472.156</ele>
        <time>2011-02-12T10:20:23Z</time>
      </trkpt>
      <trkpt lat="42.750360" lon="-2.837900">
        <ele>471.721</ele>
        <time>2011-02-12T10:20:28Z</time>
      </trkpt>
      <trkpt lat="42.750330" lon="-2.837950">
        <ele>472.107</ele>
        <time>2011-02-12T10:20:33Z</time>
      </trkpt>
      <trkpt lat="42.750300" lon="-2.838030">
        <ele>471.749</ele>
        <time>2011-02-12T10:20:38Z</time>
      </trkpt>
      <trkpt lat="42.750280" lon="-2.838100">
        <ele>472.150</ele>
        <time>2011-02-12T10:20:43Z</time>
      </trkpt>
      <trkpt lat="42.750250" lon="-2.838170">
        <ele>472.659</ele>
        <time>2011-02-12T10:20:48Z</time>
      </trkpt>
      <trkpt lat="42.750220" lon="-2.838240">
        <ele>472.122</ele>
        <time>2011-02-12T10:20:53Z</time>
      </trkpt>
      <trkpt lat="42.750200" lon="-2.838310">
        <ele>472.195</ele>
        <time>2011-02-12T10:20:58Z</time>
      </trkpt>
      <trkpt lat="42.750170" lon="-2.838390">
        <ele>472.186</ele>
        <time>2011-02-12T10:21:03Z</time>
      </trkpt>
      <trkpt lat="42.750140" lon="-2.838460">
        <ele>472.198</ele>
        <time>2011-02-12T10:21:08Z</time>
      </trkpt>
      <trkpt lat="42.750110" lon="-2.838530">
        <ele>472.135</ele>
        <time>2011-02-12T10:21:13Z</time>
      </trkpt>
      <trkpt lat="42.750110" lon="-2.838540">
        <ele>472.686</ele>
        <time>2011-02-12T10:21:18Z</time>
      </trkpt>
      <trkpt lat="42.750100" lon="-2.838590">
        <ele>472.114</ele>
        <time>2011-02-12T10:21:23Z</time>
      </trkpt>
      <trkpt lat="42.750070" lon="-2.838660">
        <ele>472.107</ele>
        <time>2011-02-12T10:21:28Z</time>
      </trkpt>
      <trkpt lat="42.750040" lon="-2.838730">
        <ele>472.165</ele>
        <time>2011-02-12T10:21:33Z</time>
      </trkpt>
      <trkpt lat="42.750010" lon="-2.838810">
        <ele>472.126</ele>
        <time>2011-02-12T10:21:38Z</time>
      </trkpt>
      <trkpt lat="42.749970" lon="-2.838890">
        <ele>472.145</ele>
        <time>2011-02-12T10:21:43Z</time>
      </trkpt>
      <trkpt lat="42.749940" lon="-2.838970">
        <ele>472.198</ele>
        <time>2011-02-12T10:21:48Z</time>
      </trkpt>
      <trkpt lat="42.749910" lon="-2.839050">
        <ele>472.131</ele>
        <time>2011-02-12T10:21:53Z</time>
      </trkpt>
      <trkpt lat="42.749880" lon="-2.839130">
        <ele>472.652</ele>
        <time>2011-02-12T10:21:58Z</time>
      </trkpt>
      <trkpt lat="42.749850" lon="-2.839220">
        <ele>472.114</ele>
        <time>2011-02-12T10:22:03Z</time>
      </trkpt>
      <trkpt lat="42.749820" lon="-2.839300">
        <ele>472.626</ele>
        <time>2011-02-12T10:22:08Z</time>
      </trkpt>
      <trkpt lat="42.749790" lon="-2.839390">
        <ele>472.647</ele>
        <time>2011-02-12T10:22:13Z</time>
      </trkpt>
      <trkpt lat="42.749760" lon="-2.839480">
        <ele>472.611</ele>
        <time>2011-02-12T10:22:18Z</time>
      </trkpt>
      <trkpt lat="42.749730" lon="-2.839570">
        <ele>472.607</ele>
        <time>2011-02-12T10:22:23Z</time>
      </trkpt>
      <trkpt lat="42.749700" lon="-2.839660">
        <ele>472.684</ele>
        <time>2011-02-12T10:22:28Z</time>
      </trkpt>
      <trkpt lat="42.749670" lon="-2.839750">
        <ele>472.675</ele>
        <time>2011-02-12T10:22:33Z</time>
      </trkpt>
      <trkpt lat="42.749640" lon="-2.839840">
        <ele>472.124</ele>
        <time>2011-02-12T10:22:38Z</time>
      </trkpt>
      <trkpt lat="42.749610" lon="-2.839920">
        <ele>472.197</ele>
        <time>2011-02-12T10:22:43Z</time>
      </trkpt>
      <trkpt lat="42.749580" lon="-2.840010">
        <ele>472.180</ele>
        <time>2011-02-12T10:22:48Z</time>
      </trkpt>
      <trkpt lat="42.749550" lon="-2.840090">
        <ele>472.621</ele>
        <time>2011-02-12T10:22:53Z</time>
      </trkpt>
      <trkpt lat="42.749520" lon="-2.840180">
        <ele>472.633</ele>
        <time>2011-02-12T10:22:58Z</time>
      </trkpt>
      <trkpt lat="42.749490" lon="-2.840270">
        <ele>472.192</ele>
        <time>2011-02-12T10:23:03Z</time>
      </trkpt>
      <trkpt lat="42.749460" lon="-2.840360">
        <ele>472.173</ele>
        <time>2011-02-12T10:23:08Z</time>
      </trkpt>
      <trkpt lat="42.749440" lon="-2.840430">
        <ele>472.120</ele>
        <time>2011-02-12T10:23:13Z</time>
      </trkpt>
      <trkpt lat="42.749410" lon="-2.840530">
        <ele>472.607</ele>
        <time>2011-02-12T10:23:18Z</time>
      </trkpt>
      <trkpt lat="42.749380" lon="-2.840610">
        <ele>472.131</ele>
        <time>2011-02-12T10:23:23Z</time>
      </trkpt>
      <trkpt lat="42.749350" lon="-2.840700">
        <ele>472.682</ele>
        <time>2011-02-12T10:23:28Z</time>
      </trkpt>
      <trkpt lat="42.749320" lon="-2.840800">
        <ele>472.111</ele>
        <time>2011-02-12T10:23:33Z</time>
      </trkpt>
      <trkpt lat="42.749290" lon="-2.840880">
        <ele>472.634</ele>
        <time>2011-02-12T10:23:38Z</time>
      </trkpt>
      <trkpt lat="42.749270" lon="-2.840970">
        <ele>472.627</ele>
        <time>2011-02-12T10:23:43Z</time>
      </trkpt>
      <trkpt lat="42.749240" lon="-2.841060">
        <ele>472.158</ele>
        <time>2011-02-12T10:23:48Z</time>
      </trkpt>
      <trkpt lat="42.749210" lon="-2.841150">
        <ele>472.630</ele>
        <time>2011-02-12T10:23:53Z</time>
      </trkpt>
      <trkpt lat="42.749180" lon="-2.841230">
        <ele>472.133</ele>
        <time>2011-02-12T10:23:58Z</time>
      </trkpt>
      <trkpt lat="42.749150" lon="-2.841320">
        <ele>472.623</ele>
        <time>2011-02-12T10:24:03Z</time>
      </trkpt>
      <trkpt lat="42.749120" lon="-2.841410">
        <ele>472.615</ele>
        <time>2011-02-12T10:24:08Z</time>
      </trkpt>
      <trkpt lat="42.749090" lon="-2.841500">
        <ele>472.107</ele>
        <time>2011-02-12T10:24:13Z</time>
      </trkpt>
      <trkpt lat="42.749060" lon="-2.841580">
        <ele>472.175</ele>
        <time>2011-02-12T10:24:18Z</time>
      </trkpt>
      <trkpt lat="42.749040" lon="-2.841670">
        <ele>472.656</ele>
        <time>2011-02-12T10:24:23Z</time>
      </trkpt>
      <trkpt lat="42.749020" lon="-2.841760">
        <ele>472.635</ele>
        <time>2011-02-12T10:24:28Z</time>
      </trkpt>
      <trkpt lat="42.748990" lon="-2.841850">
        <ele>472.688</ele>
        <time>2011-02-12T10:24:33Z</time>
      </trkpt>
      <trkpt lat="42.748960" lon="-2.841940">
        <ele>473.111</ele>
        <time>2011-02-12T10:24:38Z</time>
      </trkpt>
      <trkpt lat="42.748920" lon="-2.842060">
        <ele>472.632</ele>
        <time>2011-02-12T10:24:43Z</time>
      </trkpt>
      <trkpt lat="42.748900" lon="-2.842150">
        <ele>472.634</ele>
        <time>2011-02-12T10:24:48Z</time>
      </trkpt>
      <trkpt lat="42.748870" lon="-2.842240">
        <ele>472.613</ele>
        <time>2011-02-12T10:24:53Z</time>
      </trkpt>
      <trkpt lat="42.748850" lon="-2.842320">
        <ele>473.143</ele>
        <time>2011-02-12T10:24:58Z</time>
      </trkpt>
      <trkpt lat="42.748820" lon="-2.842410">
        <ele>472.607</ele>
        <time>2011-02-12T10:25:03Z</time>
      </trkpt>
      <trkpt lat="42.748790" lon="-2.842500">
        <ele>473.107</ele>
        <time>2011-02-12T10:25:08Z</time>
      </trkpt>
      <trkpt lat="42.748770" lon="-2.842590">
        <ele>473.183</ele>
        <time>2011-02-12T10:25:13Z</time>
      </trkpt>
      <trkpt lat="42.748740" lon="-2.842680">
        <ele>473.124</ele>
        <time>2011-02-12T10:25:18Z</time>
      </trkpt>
      <trkpt lat="42.748710" lon="-2.842760">
        <ele>473.163</ele>
        <time>2011-02-12T10:25:23Z</time>
      </trkpt>
      <trkpt lat="42.748690" lon="-2.842850">
        <ele>473.146</ele>
        <time>2011-02-12T10:25:28Z</time>
      </trkpt>
      <trkpt lat="42.748660" lon="-2.842940">
        <ele>473.169</ele>
        <time>2011-02-12T10:25:33Z</time>
      </trkpt>
      <trkpt lat="42.748630" lon="-2.843030">
        <ele>472.650</ele>
        <time>2011-02-12T10:25:38Z</time>
      </trkpt>
      <trkpt lat="42.748610" lon="-2.843110">
        <ele>473.192</ele>
        <time>2011-02-12T10:25:43Z</time>
      </trkpt>
      <trkpt lat="42.748580" lon="-2.843200">
        <ele>472.627</ele>
        <time>2011-02-12T10:25:48Z</time>
      </trkpt>
      <trkpt lat="42.748560" lon="-2.843290">
        <ele>473.168</ele>
        <time>2011-02-12T10:25:53Z</time>
      </trkpt>
      <trkpt lat="42.748530" lon="-2.843370">
        <ele>473.114</ele>
        <time>2011-02-12T10:25:58Z</time>
      </trkpt>
      <trkpt lat="42.748500" lon="-2.843460">
        <ele>473.107</ele>
        <time>2011-02-12T10:26:03Z</time>
      </trkpt>
      <trkpt lat="42.748470" lon="-2.843550">
        <ele>472.694</ele>
        <time>2011-02-12T10:26:08Z</time>
      </trkpt>
      <trkpt lat="42.748450" lon="-2.843630">
        <ele>473.135</ele>
        <time>2011-02-12T10:26:13Z</time>
      </trkpt>
      <trkpt lat="42.748420" lon="-2.843720">
        <ele>473.694</ele>
        <time>2011-02-12T10:26:18Z</time>
      </trkpt>
      <trkpt lat="42.748390" lon="-2.843810">
        <ele>473.137</ele>
        <time>2011-02-12T10:26:23Z</time>
      </trkpt>
      <trkpt lat="42.748360" lon="-2.843900">
        <ele>473.130</ele>
        <time>2011-02-12T10:26:28Z</time>
      </trkpt>
      <trkpt lat="42.748330" lon="-2.843990">
        <ele>473.171</ele>
        <time>2011-02-12T10:26:33Z</time>
      </trkpt>
      <trkpt lat="42.748300" lon="-2.844080">
        <ele>472.623</ele>
        <time>2011-02-12T10:26:38Z</time>
      </trkpt>
      <trkpt lat="42.748280" lon="-2.844170">
        <ele>473.167</ele>
        <time>2011-02-12T10:26:43Z</time>
      </trkpt>
      <trkpt lat="42.748250" lon="-2.844260">
        <ele>472.681</ele>
        <time>2011-02-12T10:26:48Z</time>
      </trkpt>
      <trkpt lat="42.748220" lon="-2.844340">
        <ele>473.119</ele>
        <time>2011-02-12T10:26:53Z</time>
      </trkpt>
      <trkpt lat="42.748190" lon="-2.844430">
        <ele>473.107</ele>
        <time>2011-02-12T10:26:58Z</time>
      </trkpt>
      <trkpt lat="42.748160" lon="-2.844520">
        <ele>473.168</ele>
        <time>2011-02-12T10:27:03Z</time>
      </trkpt>
      <trkpt lat="42.748130" lon="-2.844610">
        <ele>473.199</ele>
        <time>2011-02-12T10:27:08Z</time>
      </trkpt>
      <trkpt lat="42.748100" lon="-2.844700">
        <ele>473.128</ele>
        <time>2011-02-12T10:27:13Z</time>
      </trkpt>
      <trkpt lat="42.748080" lon="-2.844780">
        <ele>473.191</ele>
        <time>2011-02-12T10:27:18Z</time>
      </trkpt>
      <trkpt lat="42.748050" lon="-2.844870">
        <ele>473.184</ele>
        <time>2011-02-12T10:27:23Z</time>
      </trkpt>
      <trkpt lat="42.748020" lon="-2.844960">
        <ele>473.145</ele>
        <time>2011-02-12T10:27:28Z</time>
      </trkpt>
      <trkpt lat="42.747990" lon="-2.845050">
        <ele>473.157</ele>
        <time>2011-02-12T10:27:33Z</time>
      </trkpt>
      <trkpt lat="42.747960" lon="-2.845130">
        <ele>473.167</ele>
        <time>2011-02-12T10:27:38Z</time>
      </trkpt>
      <trkpt lat="42.747940" lon="-2.845220">
        <ele>472.681</ele>
        <time>2011-02-12T10:27:43Z</time>
      </trkpt>
      <trkpt lat="42.747910" lon="-2.845310">
        <ele>473.119</ele>
        <time>2011-02-12T10:27:48Z</time>
      </trkpt>
      <trkpt lat="42.747880" lon="-2.845400">
        <ele>473.107</ele>
        <time>2011-02-12T10:27:53Z</time>
      </trkpt>
      <trkpt lat="42.747850" lon="-2.845490">
        <ele>473.128</ele>
        <time>2011-02-12T10:27:58Z</time>
      </trkpt>
      <trkpt lat="42.747820" lon="-2.845580">
        <ele>473.619</ele>
        <time>2011-02-12T10:28:03Z</time>
      </trkpt>
      <trkpt lat="42.747790" lon="-2.845670">
        <ele>473.638</ele>
        <time>2011-02-12T10:28:08Z</time>
      </trkpt>
      <trkpt lat="42.747760" lon="-2.845760">
        <ele>473.621</ele>
        <time>2011-02-12T10:28:13Z</time>
      </trkpt>
      <trkpt lat="42.747730" lon="-2.845850">
        <ele>473.624</ele>
        <time>2011-02-12T10:28:18Z</time>
      </trkpt>
      <trkpt lat="42.747710" lon="-2.845930">
        <ele>474.195</ele>
        <time>2011-02-12T10:28:23Z</time>
      </trkpt>
      <trkpt lat="42.747680" lon="-2.846020">
        <ele>473.677</ele>
        <time>2011-02-12T10:28:28Z</time>
      </trkpt>
      <trkpt lat="42.747650" lon="-2.846110">
        <ele>474.564</ele>
        <time>2011-02-12T10:28:33Z</time>
      </trkpt>
      <trkpt lat="42.747620" lon="-2.846200">
        <ele>474.506</ele>
        <time>2011-02-12T10:28:38Z</time>
      </trkpt>
      <trkpt lat="42.747590" lon="-2.846280">
        <ele>474.516</ele>
        <time>2011-02-12T10:28:43Z</time>
      </trkpt>
      <trkpt lat="42.747560" lon="-2.846370">
        <ele>474.107</ele>
        <time>2011-02-12T10:28:48Z</time>
      </trkpt>
      <trkpt lat="42.747530" lon="-2.846460">
        <ele>474.578</ele>
        <time>2011-02-12T10:28:53Z</time>
      </trkpt>
      <trkpt lat="42.747500" lon="-2.846550">
        <ele>474.519</ele>
        <time>2011-02-12T10:28:58Z</time>
      </trkpt>
      <trkpt lat="42.747480" lon="-2.846630">
        <ele>474.518</ele>
        <time>2011-02-12T10:29:03Z</time>
      </trkpt>
      <trkpt lat="42.747450" lon="-2.846720">
        <ele>474.511</ele>
        <time>2011-02-12T10:29:08Z</time>
      </trkpt>
      <trkpt lat="42.747420" lon="-2.846810">
        <ele>475.044</ele>
        <time>2011-02-12T10:29:13Z</time>
      </trkpt>
      <trkpt lat="42.747390" lon="-2.846900">
        <ele>475.085</ele>
        <time>2011-02-12T10:29:18Z</time>
      </trkpt>
      <trkpt lat="42.747360" lon="-2.846990">
        <ele>475.087</ele>
        <time>2011-02-12T10:29:23Z</time>
      </trkpt>
      <trkpt lat="42.747330" lon="-2.847080">
        <ele>475.055</ele>
        <time>2011-02-12T10:29:28Z</time>
      </trkpt>
      <trkpt lat="42.747300" lon="-2.847160">
        <ele>475.007</ele>
        <time>2011-02-12T10:29:33Z</time>
      </trkpt>
      <trkpt lat="42.747270" lon="-2.847250">
        <ele>475.017</ele>
        <time>2011-02-12T10:29:38Z</time>
      </trkpt>
      <trkpt lat="42.747230" lon="-2.847340">
        <ele>475.507</ele>
        <time>2011-02-12T10:29:43Z</time>
      </trkpt>
      <trkpt lat="42.747200" lon="-2.847420">
        <ele>475.567</ele>
        <time>2011-02-12T10:29:48Z</time>
      </trkpt>
      <trkpt lat="42.747170" lon="-2.847510">
        <ele>475.048</ele>
        <time>2011-02-12T10:29:53Z</time>
      </trkpt>
      <trkpt lat="42.747140" lon="-2.847600">
        <ele>475.587</ele>
        <time>2011-02-12T10:29:58Z</time>
      </trkpt>
      <trkpt lat="42.747110" lon="-2.847680">
        <ele>475.560</ele>
        <time>2011-02-12T10:30:03Z</time>
      </trkpt>
      <trkpt lat="42.747080" lon="-2.847770">
        <ele>475.043</ele>
        <time>2011-02-12T10:30:08Z</time>
      </trkpt>
      <trkpt lat="42.747050" lon="-2.847850">
        <ele>475.084</ele>
        <time>2011-02-12T10:30:13Z</time>
      </trkpt>
      <trkpt lat="42.747020" lon="-2.847940">
        <ele>475.076</ele>
        <time>2011-02-12T10:30:18Z</time>
      </trkpt>
      <trkpt lat="42.747000" lon="-2.848030">
        <ele>475.543</ele>
        <time>2011-02-12T10:30:23Z</time>
      </trkpt>
      <trkpt lat="42.746970" lon="-2.848110">
        <ele>475.564</ele>
        <time>2011-02-12T10:30:28Z</time>
      </trkpt>
      <trkpt lat="42.746920" lon="-2.848120">
        <ele>475.510</ele>
        <time>2011-02-12T10:30:33Z</time>
      </trkpt>
      <trkpt lat="42.746860" lon="-2.848080">
        <ele>475.507</ele>
        <time>2011-02-12T10:30:38Z</time>
      </trkpt>
      <trkpt lat="42.746800" lon="-2.848030">
        <ele>475.586</ele>
        <time>2011-02-12T10:30:43Z</time>
      </trkpt>
      <trkpt lat="42.746740" lon="-2.847990">
        <ele>476.097</ele>
        <time>2011-02-12T10:30:48Z</time>
      </trkpt>
      <trkpt lat="42.746680" lon="-2.847940">
        <ele>476.016</ele>
        <time>2011-02-12T10:30:53Z</time>
      </trkpt>
      <trkpt lat="42.746620" lon="-2.847890">
        <ele>476.599</ele>
        <time>2011-02-12T10:30:58Z</time>
      </trkpt>
      <trkpt lat="42.746560" lon="-2.847850">
        <ele>476.512</ele>
        <time>2011-02-12T10:31:03Z</time>
      </trkpt>
      <trkpt lat="42.746500" lon="-2.847800">
        <ele>477.033</ele>
        <time>2011-02-12T10:31:08Z</time>
      </trkpt>
      <trkpt lat="42.746440" lon="-2.847750">
        <ele>477.995</ele>
        <time>2011-02-12T10:31:13Z</time>
      </trkpt>
      <trkpt lat="42.746380" lon="-2.847710">
        <ele>477.998</ele>
        <time>2011-02-12T10:31:18Z</time>
      </trkpt>
      <trkpt lat="42.746320" lon="-2.847660">
        <ele>478.415</ele>
        <time>2011-02-12T10:31:23Z</time>
      </trkpt>
      <trkpt lat="42.746260" lon="-2.847620">
        <ele>478.926</ele>
        <time>2011-02-12T10:31:28Z</time>
      </trkpt>
      <trkpt lat="42.746190" lon="-2.847580">
        <ele>479.407</ele>
        <time>2011-02-12T10:31:33Z</time>
      </trkpt>
      <trkpt lat="42.746130" lon="-2.847530">
        <ele>479.891</ele>
        <time>2011-02-12T10:31:38Z</time>
      </trkpt>
      <trkpt lat="42.746070" lon="-2.847490">
        <ele>480.392</ele>
        <time>2011-02-12T10:31:43Z</time>
      </trkpt>
      <trkpt lat="42.746010" lon="-2.847450">
        <ele>480.841</ele>
        <time>2011-02-12T10:31:48Z</time>
      </trkpt>
      <trkpt lat="42.745950" lon="-2.847400">
        <ele>481.394</ele>
        <time>2011-02-12T10:31:53Z</time>
      </trkpt>
      <trkpt lat="42.745890" lon="-2.847360">
        <ele>481.867</ele>
        <time>2011-02-12T10:31:58Z</time>
      </trkpt>
      <trkpt lat="42.745830" lon="-2.847310">
        <ele>481.858</ele>
        <time>2011-02-12T10:32:03Z</time>
      </trkpt>
      <trkpt lat="42.745770" lon="-2.847260">
        <ele>482.250</ele>
        <time>2011-02-12T10:32:08Z</time>
      </trkpt>
      <trkpt lat="42.745720" lon="-2.847210">
        <ele>482.739</ele>
        <time>2011-02-12T10:32:13Z</time>
      </trkpt>
      <trkpt lat="42.745670" lon="-2.847160">
        <ele>483.701</ele>
        <time>2011-02-12T10:32:18Z</time>
      </trkpt>
      <trkpt lat="42.745610" lon="-2.847110">
        <ele>483.221</ele>
        <time>2011-02-12T10:32:23Z</time>
      </trkpt>
      <trkpt lat="42.745560" lon="-2.847050">
        <ele>483.707</ele>
        <time>2011-02-12T10:32:28Z</time>
      </trkpt>
      <trkpt lat="42.745500" lon="-2.847000">
        <ele>483.745</ele>
        <time>2011-02-12T10:32:33Z</time>
      </trkpt>
      <trkpt lat="42.745450" lon="-2.846940">
        <ele>485.616</ele>
        <time>2011-02-12T10:32:38Z</time>
      </trkpt>
      <trkpt lat="42.745400" lon="-2.846880">
        <ele>486.145</ele>
        <time>2011-02-12T10:32:43Z</time>
      </trkpt>
      <trkpt lat="42.745340" lon="-2.846840">
        <ele>486.668</ele>
        <time>2011-02-12T10:32:48Z</time>
      </trkpt>
      <trkpt lat="42.745290" lon="-2.846800">
        <ele>487.011</ele>
        <time>2011-02-12T10:32:53Z</time>
      </trkpt>
      <trkpt lat="42.745230" lon="-2.846780">
        <ele>488.092</ele>
        <time>2011-02-12T10:32:58Z</time>
      </trkpt>
      <trkpt lat="42.745160" lon="-2.846760">
        <ele>488.564</ele>
        <time>2011-02-12T10:33:03Z</time>
      </trkpt>
      <trkpt lat="42.745100" lon="-2.846760">
        <ele>489.433</ele>
        <time>2011-02-12T10:33:08Z</time>
      </trkpt>
      <trkpt lat="42.745030" lon="-2.846750">
        <ele>489.923</ele>
        <time>2011-02-12T10:33:13Z</time>
      </trkpt>
      <trkpt lat="42.744970" lon="-2.846750">
        <ele>491.415</ele>
        <time>2011-02-12T10:33:18Z</time>
      </trkpt>
      <trkpt lat="42.744900" lon="-2.846740">
        <ele>491.907</ele>
        <time>2011-02-12T10:33:23Z</time>
      </trkpt>
      <trkpt lat="42.744830" lon="-2.846740">
        <ele>492.865</ele>
        <time>2011-02-12T10:33:28Z</time>
      </trkpt>
      <trkpt lat="42.744770" lon="-2.846730">
        <ele>493.896</ele>
        <time>2011-02-12T10:33:33Z</time>
      </trkpt>
      <trkpt lat="42.744710" lon="-2.846730">
        <ele>494.735</ele>
        <time>2011-02-12T10:33:38Z</time>
      </trkpt>
      <trkpt lat="42.744650" lon="-2.846720">
        <ele>495.278</ele>
        <time>2011-02-12T10:33:43Z</time>
      </trkpt>
      <trkpt lat="42.744580" lon="-2.846710">
        <ele>495.261</ele>
        <time>2011-02-12T10:33:48Z</time>
      </trkpt>
      <trkpt lat="42.744520" lon="-2.846700">
        <ele>495.772</ele>
        <time>2011-02-12T10:33:53Z</time>
      </trkpt>
      <trkpt lat="42.744460" lon="-2.846690">
        <ele>495.724</ele>
        <time>2011-02-12T10:33:58Z</time>
      </trkpt>
      <trkpt lat="42.744400" lon="-2.846680">
        <ele>496.781</ele>
        <time>2011-02-12T10:34:03Z</time>
      </trkpt>
      <trkpt lat="42.744330" lon="-2.846670">
        <ele>496.761</ele>
        <time>2011-02-12T10:34:08Z</time>
      </trkpt>
      <trkpt lat="42.744269" lon="-2.846649">
        <ele>497.117</ele>
        <time>2011-02-12T10:34:13Z</time>
      </trkpt>
      <trkpt lat="42.744197" lon="-2.846619">
        <ele>498.107</ele>
        <time>2011-02-12T10:34:18Z</time>
      </trkpt>
      <trkpt lat="42.744140" lon="-2.846620">
        <ele>498.680</ele>
        <time>2011-02-12T10:34:23Z</time>
      </trkpt>
      <trkpt lat="42.744070" lon="-2.846600">
        <ele>499.531</ele>
        <time>2011-02-12T10:34:28Z</time>
      </trkpt>
      <trkpt lat="42.744000" lon="-2.846590">
        <ele>500.090</ele>
        <time>2011-02-12T10:34:33Z</time>
      </trkpt>
      <trkpt lat="42.743940" lon="-2.846560">
        <ele>501.083</ele>
        <time>2011-02-12T10:34:38Z</time>
      </trkpt>
      <trkpt lat="42.743880" lon="-2.846530">
        <ele>502.416</ele>
        <time>2011-02-12T10:34:43Z</time>
      </trkpt>
      <trkpt lat="42.743810" lon="-2.846490">
        <ele>502.427</ele>
        <time>2011-02-12T10:34:48Z</time>
      </trkpt>
      <trkpt lat="42.743750" lon="-2.846460">
        <ele>502.969</ele>
        <time>2011-02-12T10:34:53Z</time>
      </trkpt>
      <trkpt lat="42.743690" lon="-2.846420">
        <ele>503.478</ele>
        <time>2011-02-12T10:34:58Z</time>
      </trkpt>
      <trkpt lat="42.743630" lon="-2.846380">
        <ele>503.933</ele>
        <time>2011-02-12T10:35:03Z</time>
      </trkpt>
      <trkpt lat="42.743570" lon="-2.846340">
        <ele>503.926</ele>
        <time>2011-02-12T10:35:08Z</time>
      </trkpt>
      <trkpt lat="42.743500" lon="-2.846300">
        <ele>503.907</ele>
        <time>2011-02-12T10:35:13Z</time>
      </trkpt>
      <trkpt lat="42.743440" lon="-2.846260">
        <ele>503.949</ele>
        <time>2011-02-12T10:35:18Z</time>
      </trkpt>
      <trkpt lat="42.743380" lon="-2.846220">
        <ele>504.810</ele>
        <time>2011-02-12T10:35:23Z</time>
      </trkpt>
      <trkpt lat="42.743310" lon="-2.846180">
        <ele>504.859</ele>
        <time>2011-02-12T10:35:28Z</time>
      </trkpt>
      <trkpt lat="42.743250" lon="-2.846140">
        <ele>504.882</ele>
        <time>2011-02-12T10:35:33Z</time>
      </trkpt>
      <trkpt lat="42.743180" lon="-2.846110">
        <ele>505.315</ele>
        <time>2011-02-12T10:35:38Z</time>
      </trkpt>
      <trkpt lat="42.743100" lon="-2.846070">
        <ele>505.376</ele>
        <time>2011-02-12T10:35:44Z</time>
      </trkpt>
      <trkpt lat="42.743040" lon="-2.846040">
        <ele>505.898</ele>
        <time>2011-02-12T10:35:49Z</time>
      </trkpt>
      <trkpt lat="42.742970" lon="-2.846010">
        <ele>505.878</ele>
        <time>2011-02-12T10:35:54Z</time>
      </trkpt>
      <trkpt lat="42.742910" lon="-2.845990">
        <ele>506.333</ele>
        <time>2011-02-12T10:35:59Z</time>
      </trkpt>
      <trkpt lat="42.742840" lon="-2.845970">
        <ele>506.326</ele>
        <time>2011-02-12T10:36:04Z</time>
      </trkpt>
      <trkpt lat="42.742770" lon="-2.845950">
        <ele>506.807</ele>
        <time>2011-02-12T10:36:09Z</time>
      </trkpt>
      <trkpt lat="42.742700" lon="-2.845940">
        <ele>506.859</ele>
        <time>2011-02-12T10:36:14Z</time>
      </trkpt>
      <trkpt lat="42.742630" lon="-2.845940">
        <ele>507.750</ele>
        <time>2011-02-12T10:36:19Z</time>
      </trkpt>
      <trkpt lat="42.742560" lon="-2.845940">
        <ele>508.269</ele>
        <time>2011-02-12T10:36:24Z</time>
      </trkpt>
      <trkpt lat="42.742490" lon="-2.845950">
        <ele>508.262</ele>
        <time>2011-02-12T10:36:29Z</time>
      </trkpt>
      <trkpt lat="42.742410" lon="-2.845960">
        <ele>507.765</ele>
        <time>2011-02-12T10:36:34Z</time>
      </trkpt>
      <trkpt lat="42.742340" lon="-2.845980">
        <ele>508.726</ele>
        <time>2011-02-12T10:36:39Z</time>
      </trkpt>
      <trkpt lat="42.742270" lon="-2.846010">
        <ele>508.798</ele>
        <time>2011-02-12T10:36:44Z</time>
      </trkpt>
      <trkpt lat="42.742210" lon="-2.846040">
        <ele>508.233</ele>
        <time>2011-02-12T10:36:49Z</time>
      </trkpt>
      <trkpt lat="42.742150" lon="-2.846080">
        <ele>508.723</ele>
        <time>2011-02-12T10:36:54Z</time>
      </trkpt>
      <trkpt lat="42.742090" lon="-2.846130">
        <ele>508.715</ele>
        <time>2011-02-12T10:36:59Z</time>
      </trkpt>
      <trkpt lat="42.742030" lon="-2.846180">
        <ele>508.707</ele>
        <time>2011-02-12T10:37:04Z</time>
      </trkpt>
      <trkpt lat="42.741960" lon="-2.846230">
        <ele>508.735</ele>
        <time>2011-02-12T10:37:09Z</time>
      </trkpt>
      <trkpt lat="42.741910" lon="-2.846290">
        <ele>509.636</ele>
        <time>2011-02-12T10:37:14Z</time>
      </trkpt>
      <trkpt lat="42.741850" lon="-2.846340">
        <ele>510.145</ele>
        <time>2011-02-12T10:37:19Z</time>
      </trkpt>
      <trkpt lat="42.741790" lon="-2.846380">
        <ele>511.118</ele>
        <time>2011-02-12T10:37:24Z</time>
      </trkpt>
      <trkpt lat="42.741730" lon="-2.846430">
        <ele>511.141</ele>
        <time>2011-02-12T10:37:29Z</time>
      </trkpt>
      <trkpt lat="42.741660" lon="-2.846460">
        <ele>512.062</ele>
        <time>2011-02-12T10:37:34Z</time>
      </trkpt>
      <trkpt lat="42.741600" lon="-2.846480">
        <ele>512.514</ele>
        <time>2011-02-12T10:37:39Z</time>
      </trkpt>
      <trkpt lat="42.741540" lon="-2.846490">
        <ele>513.056</ele>
        <time>2011-02-12T10:37:44Z</time>
      </trkpt>
      <trkpt lat="42.741480" lon="-2.846500">
        <ele>513.559</ele>
        <time>2011-02-12T10:37:49Z</time>
      </trkpt>
      <trkpt lat="42.741420" lon="-2.846520">
        <ele>514.014</ele>
        <time>2011-02-12T10:37:54Z</time>
      </trkpt>
      <trkpt lat="42.741360" lon="-2.846530">
        <ele>514.407</ele>
        <time>2011-02-12T10:37:59Z</time>
      </trkpt>
      <trkpt lat="42.741280" lon="-2.846550">
        <ele>515.447</ele>
        <time>2011-02-12T10:38:04Z</time>
      </trkpt>
      <trkpt lat="42.741220" lon="-2.846560">
        <ele>515.918</ele>
        <time>2011-02-12T10:38:09Z</time>
      </trkpt>
      <trkpt lat="42.741150" lon="-2.846570">
        <ele>516.487</ele>
        <time>2011-02-12T10:38:14Z</time>
      </trkpt>
      <trkpt lat="42.741080" lon="-2.846590">
        <ele>516.860</ele>
        <time>2011-02-12T10:38:19Z</time>
      </trkpt>
      <trkpt lat="42.741020" lon="-2.846600">
        <ele>517.863</ele>
        <time>2011-02-12T10:38:24Z</time>
      </trkpt>
      <trkpt lat="42.740950" lon="-2.846620">
        <ele>518.324</ele>
        <time>2011-02-12T10:38:29Z</time>
      </trkpt>
      <trkpt lat="42.740880" lon="-2.846640">
        <ele>518.356</ele>
        <time>2011-02-12T10:38:34Z</time>
      </trkpt>
      <trkpt lat="42.740810" lon="-2.846650">
        <ele>518.354</ele>
        <time>2011-02-12T10:38:39Z</time>
      </trkpt>
      <trkpt lat="42.740750" lon="-2.846660">
        <ele>519.756</ele>
        <time>2011-02-12T10:38:44Z</time>
      </trkpt>
      <trkpt lat="42.740680" lon="-2.846680">
        <ele>520.211</ele>
        <time>2011-02-12T10:38:49Z</time>
      </trkpt>
      <trkpt lat="42.740610" lon="-2.846690">
        <ele>521.707</ele>
        <time>2011-02-12T10:38:54Z</time>
      </trkpt>
      <trkpt lat="42.740550" lon="-2.846710">
        <ele>522.147</ele>
        <time>2011-02-12T10:38:59Z</time>
      </trkpt>
      <trkpt lat="42.740480" lon="-2.846720">
        <ele>522.658</ele>
        <time>2011-02-12T10:39:04Z</time>
      </trkpt>
      <trkpt lat="42.740420" lon="-2.846740">
        <ele>522.617</ele>
        <time>2011-02-12T10:39:09Z</time>
      </trkpt>
      <trkpt lat="42.740370" lon="-2.846750">
        <ele>523.110</ele>
        <time>2011-02-12T10:39:14Z</time>
      </trkpt>
      <trkpt lat="42.740330" lon="-2.846760">
        <ele>523.123</ele>
        <time>2011-02-12T10:39:19Z</time>
      </trkpt>
      <trkpt lat="42.740280" lon="-2.846770">
        <ele>523.684</ele>
        <time>2011-02-12T10:39:24Z</time>
      </trkpt>
      <trkpt lat="42.740290" lon="-2.846720">
        <ele>523.686</ele>
        <time>2011-02-12T10:39:29Z</time>
      </trkpt>
      <trkpt lat="42.740310" lon="-2.846720">
        <ele>523.137</ele>
        <time>2011-02-12T10:39:34Z</time>
      </trkpt>
      <trkpt lat="42.740320" lon="-2.846710">
        <ele>523.649</ele>
        <time>2011-02-12T10:39:39Z</time>
      </trkpt>
      <trkpt lat="42.740380" lon="-2.846660">
        <ele>523.613</ele>
        <time>2011-02-12T10:39:44Z</time>
      </trkpt>
      <trkpt lat="42.740440" lon="-2.846620">
        <ele>523.607</ele>
        <time>2011-02-12T10:39:49Z</time>
      </trkpt>
      <trkpt lat="42.740500" lon="-2.846580">
        <ele>524.065</ele>
        <time>2011-02-12T10:39:54Z</time>
      </trkpt>
      <trkpt lat="42.740530" lon="-2.846520">
        <ele>525.096</ele>
        <time>2011-02-12T10:39:59Z</time>
      </trkpt>
      <trkpt lat="42.740520" lon="-2.846440">
        <ele>526.555</ele>
        <time>2011-02-12T10:40:04Z</time>
      </trkpt>
      <trkpt lat="42.740490" lon="-2.846360">
        <ele>527.478</ele>
        <time>2011-02-12T10:40:09Z</time>
      </trkpt>
      <trkpt lat="42.740450" lon="-2.846300">
        <ele>528.441</ele>
        <time>2011-02-12T10:40:14Z</time>
      </trkpt>
      <trkpt lat="42.740410" lon="-2.846220">
        <ele>529.372</ele>
        <time>2011-02-12T10:40:19Z</time>
      </trkpt>
      <trkpt lat="42.740370" lon="-2.846150">
        <ele>530.314</ele>
        <time>2011-02-12T10:40:24Z</time>
      </trkpt>
      <trkpt lat="42.740320" lon="-2.846090">
        <ele>530.833</ele>
        <time>2011-02-12T10:40:29Z</time>
      </trkpt>
      <trkpt lat="42.740270" lon="-2.846020">
        <ele>531.323</ele>
        <time>2011-02-12T10:40:34Z</time>
      </trkpt>
      <trkpt lat="42.740220" lon="-2.845960">
        <ele>532.215</ele>
        <time>2011-02-12T10:40:39Z</time>
      </trkpt>
      <trkpt lat="42.740180" lon="-2.845880">
        <ele>531.807</ele>
        <time>2011-02-12T10:40:44Z</time>
      </trkpt>
      <trkpt lat="42.740150" lon="-2.845800">
        <ele>532.295</ele>
        <time>2011-02-12T10:40:49Z</time>
      </trkpt>
      <trkpt lat="42.740120" lon="-2.845720">
        <ele>532.796</ele>
        <time>2011-02-12T10:40:54Z</time>
      </trkpt>
      <trkpt lat="42.740090" lon="-2.845630">
        <ele>532.745</ele>
        <time>2011-02-12T10:40:59Z</time>
      </trkpt>
      <trkpt lat="42.740070" lon="-2.845550">
        <ele>532.748</ele>
        <time>2011-02-12T10:41:04Z</time>
      </trkpt>
      <trkpt lat="42.740040" lon="-2.845460">
        <ele>533.221</ele>
        <time>2011-02-12T10:41:09Z</time>
      </trkpt>
      <trkpt lat="42.740010" lon="-2.845370">
        <ele>533.712</ele>
        <time>2011-02-12T10:41:14Z</time>
      </trkpt>
      <trkpt lat="42.739980" lon="-2.845280">
        <ele>534.244</ele>
        <time>2011-02-12T10:41:19Z</time>
      </trkpt>
      <trkpt lat="42.739950" lon="-2.845200">
        <ele>534.677</ele>
        <time>2011-02-12T10:41:24Z</time>
      </trkpt>
      <trkpt lat="42.739930" lon="-2.845140">
        <ele>535.161</ele>
        <time>2011-02-12T10:41:29Z</time>
      </trkpt>
      <trkpt lat="42.739920" lon="-2.845100">
        <ele>535.127</ele>
        <time>2011-02-12T10:41:34Z</time>
      </trkpt>
      <trkpt lat="42.739900" lon="-2.845060">
        <ele>535.107</ele>
        <time>2011-02-12T10:41:39Z</time>
      </trkpt>
      <trkpt lat="42.739870" lon="-2.844980">
        <ele>535.669</ele>
        <time>2011-02-12T10:41:44Z</time>
      </trkpt>
      <trkpt lat="42.739840" lon="-2.844900">
        <ele>536.510</ele>
        <time>2011-02-12T10:41:49Z</time>
      </trkpt>
      <trkpt lat="42.739820" lon="-2.844820">
        <ele>536.539</ele>
        <time>2011-02-12T10:41:54Z</time>
      </trkpt>
      <trkpt lat="42.739780" lon="-2.844750">
        <ele>536.172</ele>
        <time>2011-02-12T10:41:59Z</time>
      </trkpt>
      <trkpt lat="42.739750" lon="-2.844680">
        <ele>536.585</ele>
        <time>2011-02-12T10:42:04Z</time>
      </trkpt>
      <trkpt lat="42.739730" lon="-2.844630">
        <ele>537.036</ele>
        <time>2011-02-12T10:42:09Z</time>
      </trkpt>
      <trkpt lat="42.739760" lon="-2.844660">
        <ele>537.018</ele>
        <time>2011-02-12T10:42:14Z</time>
      </trkpt>
      <trkpt lat="42.739800" lon="-2.844620">
        <ele>537.575</ele>
        <time>2011-02-12T10:42:19Z</time>
      </trkpt>
      <trkpt lat="42.739800" lon="-2.844580">
        <ele>538.528</ele>
        <time>2011-02-12T10:42:24Z</time>
      </trkpt>
      <trkpt lat="42.739810" lon="-2.844520">
        <ele>538.520</ele>
        <time>2011-02-12T10:42:29Z</time>
      </trkpt>
      <trkpt lat="42.739820" lon="-2.844480">
        <ele>538.007</ele>
        <time>2011-02-12T10:42:34Z</time>
      </trkpt>
      <trkpt lat="42.739850" lon="-2.844500">
        <ele>538.569</ele>
        <time>2011-02-12T10:42:49Z</time>
      </trkpt>
      <trkpt lat="42.739850" lon="-2.844500">
        <ele>538.060</ele>
        <time>2011-02-12T10:42:54Z</time>
      </trkpt>
      <trkpt lat="42.739810" lon="-2.844490">
        <ele>538.089</ele>
        <time>2011-02-12T10:42:59Z</time>
      </trkpt>
      <trkpt lat="42.739780" lon="-2.844480">
        <ele>538.022</ele>
        <time>2011-02-12T10:43:04Z</time>
      </trkpt>
      <trkpt lat="42.739770" lon="-2.844480">
        <ele>538.065</ele>
        <time>2011-02-12T10:43:09Z</time>
      </trkpt>
      <trkpt lat="42.739760" lon="-2.844480">
        <ele>537.576</ele>
        <time>2011-02-12T10:43:14Z</time>
      </trkpt>
      <trkpt lat="42.739760" lon="-2.844430">
        <ele>537.088</ele>
        <time>2011-02-12T10:43:19Z</time>
      </trkpt>
      <trkpt lat="42.739739" lon="-2.844391">
        <ele>537.553</ele>
        <time>2011-02-12T10:43:24Z</time>
      </trkpt>
      <trkpt lat="42.739703" lon="-2.844330">
        <ele>537.004</ele>
        <time>2011-02-12T10:43:29Z</time>
      </trkpt>
      <trkpt lat="42.739650" lon="-2.844190">
        <ele>537.014</ele>
        <time>2011-02-12T10:43:39Z</time>
      </trkpt>
      <trkpt lat="42.739600" lon="-2.844200">
        <ele>537.007</ele>
        <time>2011-02-12T10:43:44Z</time>
      </trkpt>
      <trkpt lat="42.739560" lon="-2.844200">
        <ele>537.047</ele>
        <time>2011-02-12T10:43:49Z</time>
      </trkpt>
      <trkpt lat="42.739550" lon="-2.844130">
        <ele>537.088</ele>
        <time>2011-02-12T10:43:54Z</time>
      </trkpt>
      <trkpt lat="42.739530" lon="-2.844080">
        <ele>537.017</ele>
        <time>2011-02-12T10:43:59Z</time>
      </trkpt>
      <trkpt lat="42.739530" lon="-2.844070">
        <ele>537.520</ele>
        <time>2011-02-12T10:44:04Z</time>
      </trkpt>
      <trkpt lat="42.739520" lon="-2.844050">
        <ele>537.013</ele>
        <time>2011-02-12T10:44:09Z</time>
      </trkpt>
      <trkpt lat="42.739520" lon="-2.844050">
        <ele>537.594</ele>
        <time>2011-02-12T10:44:14Z</time>
      </trkpt>
      <trkpt lat="42.739510" lon="-2.844050">
        <ele>537.586</ele>
        <time>2011-02-12T10:44:19Z</time>
      </trkpt>
      <trkpt lat="42.739510" lon="-2.844050">
        <ele>537.527</ele>
        <time>2011-02-12T10:44:24Z</time>
      </trkpt>
      <trkpt lat="42.739510" lon="-2.844050">
        <ele>537.568</ele>
        <time>2011-02-12T10:44:29Z</time>
      </trkpt>
      <trkpt lat="42.739510" lon="-2.844050">
        <ele>537.514</ele>
        <time>2011-02-12T10:44:34Z</time>
      </trkpt>
      <trkpt lat="42.739510" lon="-2.844040">
        <ele>537.507</ele>
        <time>2011-02-12T10:44:39Z</time>
      </trkpt>
      <trkpt lat="42.739510" lon="-2.844040">
        <ele>538.054</ele>
        <time>2011-02-12T10:44:44Z</time>
      </trkpt>
      <trkpt lat="42.739500" lon="-2.844040">
        <ele>538.025</ele>
        <time>2011-02-12T10:44:49Z</time>
      </trkpt>
      <trkpt lat="42.739500" lon="-2.844040">
        <ele>538.044</ele>
        <time>2011-02-12T10:44:54Z</time>
      </trkpt>
      <trkpt lat="42.739500" lon="-2.844040">
        <ele>538.057</ele>
        <time>2011-02-12T10:44:59Z</time>
      </trkpt>
      <trkpt lat="42.739500" lon="-2.844020">
        <ele>538.550</ele>
        <time>2011-02-12T10:45:04Z</time>
      </trkpt>
      <trkpt lat="42.739500" lon="-2.844020">
        <ele>538.571</ele>
        <time>2011-02-12T10:45:09Z</time>
      </trkpt>
      <trkpt lat="42.739490" lon="-2.844030">
        <ele>538.573</ele>
        <time>2011-02-12T10:45:14Z</time>
      </trkpt>
      <trkpt lat="42.739490" lon="-2.844030">
        <ele>538.552</ele>
        <time>2011-02-12T10:45:19Z</time>
      </trkpt>
      <trkpt lat="42.739500" lon="-2.844050">
        <ele>538.053</ele>
        <time>2011-02-12T10:45:24Z</time>
      </trkpt>
      <trkpt lat="42.739520" lon="-2.844100">
        <ele>538.508</ele>
        <time>2011-02-12T10:45:29Z</time>
      </trkpt>
      <trkpt lat="42.739560" lon="-2.844130">
        <ele>538.007</ele>
        <time>2011-02-12T10:45:34Z</time>
      </trkpt>
      <trkpt lat="42.739600" lon="-2.844150">
        <ele>537.047</ele>
        <time>2011-02-12T10:45:39Z</time>
      </trkpt>
      <trkpt lat="42.739640" lon="-2.844160">
        <ele>538.038</ele>
        <time>2011-02-12T10:45:44Z</time>
      </trkpt>
      <trkpt lat="42.739680" lon="-2.844190">
        <ele>537.527</ele>
        <time>2011-02-12T10:45:49Z</time>
      </trkpt>
      <trkpt lat="42.739710" lon="-2.844240">
        <ele>537.090</ele>
        <time>2011-02-12T10:45:54Z</time>
      </trkpt>
      <trkpt lat="42.739720" lon="-2.844300">
        <ele>537.553</ele>
        <time>2011-02-12T10:45:59Z</time>
      </trkpt>
      <trkpt lat="42.739730" lon="-2.844340">
        <ele>538.074</ele>
        <time>2011-02-12T10:46:04Z</time>
      </trkpt>
      <trkpt lat="42.739750" lon="-2.844380">
        <ele>538.526</ele>
        <time>2011-02-12T10:46:09Z</time>
      </trkpt>
      <trkpt lat="42.739760" lon="-2.844420">
        <ele>538.096</ele>
        <time>2011-02-12T10:46:14Z</time>
      </trkpt>
      <trkpt lat="42.739780" lon="-2.844470">
        <ele>538.031</ele>
        <time>2011-02-12T10:46:19Z</time>
      </trkpt>
      <trkpt lat="42.739790" lon="-2.844470">
        <ele>538.524</ele>
        <time>2011-02-12T10:46:24Z</time>
      </trkpt>
      <trkpt lat="42.739790" lon="-2.844470">
        <ele>538.507</ele>
        <time>2011-02-12T10:46:29Z</time>
      </trkpt>
      <trkpt lat="42.739800" lon="-2.844490">
        <ele>538.511</ele>
        <time>2011-02-12T10:46:44Z</time>
      </trkpt>
      <trkpt lat="42.739820" lon="-2.844500">
        <ele>538.522</ele>
        <time>2011-02-12T10:46:54Z</time>
      </trkpt>
      <trkpt lat="42.739830" lon="-2.844510">
        <ele>538.051</ele>
        <time>2011-02-12T10:47:14Z</time>
      </trkpt>
      <trkpt lat="42.739840" lon="-2.844510">
        <ele>537.574</ele>
        <time>2011-02-12T10:47:24Z</time>
      </trkpt>
      <trkpt lat="42.739840" lon="-2.844510">
        <ele>536.157</ele>
        <time>2011-02-12T11:03:14Z</time>
      </trkpt>
      <trkpt lat="42.739720" lon="-2.844360">
        <ele>538.048</ele>
        <time>2011-02-12T11:03:30Z</time>
      </trkpt>
      <trkpt lat="42.739730" lon="-2.844410">
        <ele>537.010</ele>
        <time>2011-02-12T11:03:35Z</time>
      </trkpt>
      <trkpt lat="42.739710" lon="-2.844370">
        <ele>537.072</ele>
        <time>2011-02-12T11:03:40Z</time>
      </trkpt>
      <trkpt lat="42.739710" lon="-2.844330">
        <ele>537.013</ele>
        <time>2011-02-12T11:03:45Z</time>
      </trkpt>
      <trkpt lat="42.739690" lon="-2.844270">
        <ele>537.014</ele>
        <time>2011-02-12T11:03:50Z</time>
      </trkpt>
      <trkpt lat="42.739670" lon="-2.844220">
        <ele>537.007</ele>
        <time>2011-02-12T11:03:55Z</time>
      </trkpt>
      <trkpt lat="42.739630" lon="-2.844200">
        <ele>537.089</ele>
        <time>2011-02-12T11:04:00Z</time>
      </trkpt>
      <trkpt lat="42.739580" lon="-2.844170">
        <ele>536.580</ele>
        <time>2011-02-12T11:04:05Z</time>
      </trkpt>
      <trkpt lat="42.739550" lon="-2.844150">
        <ele>537.019</ele>
        <time>2011-02-12T11:04:10Z</time>
      </trkpt>
      <trkpt lat="42.739550" lon="-2.844150">
        <ele>537.042</ele>
        <time>2011-02-12T11:04:15Z</time>
      </trkpt>
      <trkpt lat="42.739550" lon="-2.844140">
        <ele>537.045</ele>
        <time>2011-02-12T11:04:20Z</time>
      </trkpt>
      <trkpt lat="42.739550" lon="-2.844140">
        <ele>537.046</ele>
        <time>2011-02-12T11:04:25Z</time>
      </trkpt>
      <trkpt lat="42.739550" lon="-2.844130">
        <ele>537.018</ele>
        <time>2011-02-12T11:04:30Z</time>
      </trkpt>
      <trkpt lat="42.739550" lon="-2.844130">
        <ele>537.023</ele>
        <time>2011-02-12T11:04:35Z</time>
      </trkpt>
      <trkpt lat="42.739550" lon="-2.844130">
        <ele>536.583</ele>
        <time>2011-02-12T11:04:40Z</time>
      </trkpt>
      <trkpt lat="42.739550" lon="-2.844130">
        <ele>537.011</ele>
        <time>2011-02-12T11:04:45Z</time>
      </trkpt>
      <trkpt lat="42.739540" lon="-2.844130">
        <ele>537.507</ele>
        <time>2011-02-12T11:04:50Z</time>
      </trkpt>
      <trkpt lat="42.739540" lon="-2.844120">
        <ele>537.514</ele>
        <time>2011-02-12T11:04:55Z</time>
      </trkpt>
      <trkpt lat="42.739550" lon="-2.844110">
        <ele>537.015</ele>
        <time>2011-02-12T11:05:00Z</time>
      </trkpt>
      <trkpt lat="42.739550" lon="-2.844110">
        <ele>537.034</ele>
        <time>2011-02-12T11:05:05Z</time>
      </trkpt>
      <trkpt lat="42.739550" lon="-2.844110">
        <ele>537.547</ele>
        <time>2011-02-12T11:05:10Z</time>
      </trkpt>
      <trkpt lat="42.739550" lon="-2.844110">
        <ele>538.080</ele>
        <time>2011-02-12T11:05:15Z</time>
      </trkpt>
      <trkpt lat="42.739550" lon="-2.844110">
        <ele>538.081</ele>
        <time>2011-02-12T11:05:20Z</time>
      </trkpt>
      <trkpt lat="42.739550" lon="-2.844110">
        <ele>537.573</ele>
        <time>2011-02-12T11:05:25Z</time>
      </trkpt>
      <trkpt lat="42.739530" lon="-2.844090">
        <ele>538.589</ele>
        <time>2011-02-12T11:05:30Z</time>
      </trkpt>
      <trkpt lat="42.739520" lon="-2.844110">
        <ele>538.506</ele>
        <time>2011-02-12T11:05:35Z</time>
      </trkpt>
      <trkpt lat="42.739500" lon="-2.844080">
        <ele>539.426</ele>
        <time>2011-02-12T11:05:40Z</time>
      </trkpt>
      <trkpt lat="42.739470" lon="-2.843990">
        <ele>539.407</ele>
        <time>2011-02-12T11:05:45Z</time>
      </trkpt>
      <trkpt lat="42.739450" lon="-2.843920">
        <ele>539.970</ele>
        <time>2011-02-12T11:05:50Z</time>
      </trkpt>
      <trkpt lat="42.739450" lon="-2.843920">
        <ele>539.411</ele>
        <time>2011-02-12T11:05:55Z</time>
      </trkpt>
      <trkpt lat="42.739440" lon="-2.843920">
        <ele>539.460</ele>
        <time>2011-02-12T11:06:00Z</time>
      </trkpt>
      <trkpt lat="42.739440" lon="-2.843920">
        <ele>538.933</ele>
        <time>2011-02-12T11:06:05Z</time>
      </trkpt>
      <trkpt lat="42.739440" lon="-2.843910">
        <ele>539.476</ele>
        <time>2011-02-12T11:06:10Z</time>
      </trkpt>
      <trkpt lat="42.739430" lon="-2.843910">
        <ele>539.477</ele>
        <time>2011-02-12T11:06:15Z</time>
      </trkpt>
      <trkpt lat="42.739430" lon="-2.843910">
        <ele>539.439</ele>
        <time>2011-02-12T11:06:20Z</time>
      </trkpt>
      <trkpt lat="42.739430" lon="-2.843910">
        <ele>538.537</ele>
        <time>2011-02-12T11:06:25Z</time>
      </trkpt>
      <trkpt lat="42.739430" lon="-2.843890">
        <ele>538.949</ele>
        <time>2011-02-12T11:06:30Z</time>
      </trkpt>
      <trkpt lat="42.739430" lon="-2.843910">
        <ele>538.513</ele>
        <time>2011-02-12T11:06:35Z</time>
      </trkpt>
      <trkpt lat="42.739440" lon="-2.843930">
        <ele>539.407</ele>
        <time>2011-02-12T11:06:40Z</time>
      </trkpt>
      <trkpt lat="42.739440" lon="-2.843920">
        <ele>538.935</ele>
        <time>2011-02-12T11:06:45Z</time>
      </trkpt>
      <trkpt lat="42.739440" lon="-2.843920">
        <ele>538.976</ele>
        <time>2011-02-12T11:06:50Z</time>
      </trkpt>
      <trkpt lat="42.739440" lon="-2.843920">
        <ele>538.955</ele>
        <time>2011-02-12T11:06:55Z</time>
      </trkpt>
      <trkpt lat="42.739440" lon="-2.843920">
        <ele>538.948</ele>
        <time>2011-02-12T11:07:00Z</time>
      </trkpt>
      <trkpt lat="42.739450" lon="-2.843910">
        <ele>538.991</ele>
        <time>2011-02-12T11:07:05Z</time>
      </trkpt>
      <trkpt lat="42.739450" lon="-2.843910">
        <ele>538.952</ele>
        <time>2011-02-12T11:07:10Z</time>
      </trkpt>
      <trkpt lat="42.739450" lon="-2.843910">
        <ele>538.924</ele>
        <time>2011-02-12T11:07:15Z</time>
      </trkpt>
      <trkpt lat="42.739450" lon="-2.843910">
        <ele>538.539</ele>
        <time>2011-02-12T11:07:20Z</time>
      </trkpt>
      <trkpt lat="42.739450" lon="-2.843910">
        <ele>538.901</ele>
        <time>2011-02-12T11:07:25Z</time>
      </trkpt>
      <trkpt lat="42.739450" lon="-2.843900">
        <ele>538.521</ele>
        <time>2011-02-12T11:07:30Z</time>
      </trkpt>
      <trkpt lat="42.739450" lon="-2.843910">
        <ele>538.907</ele>
        <time>2011-02-12T11:07:35Z</time>
      </trkpt>
      <trkpt lat="42.739460" lon="-2.843920">
        <ele>538.565</ele>
        <time>2011-02-12T11:07:40Z</time>
      </trkpt>
      <trkpt lat="42.739470" lon="-2.843960">
        <ele>538.596</ele>
        <time>2011-02-12T11:07:45Z</time>
      </trkpt>
      <trkpt lat="42.739490" lon="-2.844020">
        <ele>538.915</ele>
        <time>2011-02-12T11:07:50Z</time>
      </trkpt>
      <trkpt lat="42.739490" lon="-2.844050">
        <ele>538.538</ele>
        <time>2011-02-12T11:07:55Z</time>
      </trkpt>
      <trkpt lat="42.739470" lon="-2.844070">
        <ele>538.581</ele>
        <time>2011-02-12T11:08:00Z</time>
      </trkpt>
      <trkpt lat="42.739470" lon="-2.844070">
        <ele>538.592</ele>
        <time>2011-02-12T11:08:05Z</time>
      </trkpt>
      <trkpt lat="42.739470" lon="-2.844070">
        <ele>538.084</ele>
        <time>2011-02-12T11:08:10Z</time>
      </trkpt>
      <trkpt lat="42.739470" lon="-2.844070">
        <ele>538.053</ele>
        <time>2011-02-12T11:08:15Z</time>
      </trkpt>
      <trkpt lat="42.739470" lon="-2.844070">
        <ele>538.004</ele>
        <time>2011-02-12T11:08:20Z</time>
      </trkpt>
      <trkpt lat="42.739470" lon="-2.844070">
        <ele>538.014</ele>
        <time>2011-02-12T11:08:25Z</time>
      </trkpt>
      <trkpt lat="42.739470" lon="-2.844080">
        <ele>538.007</ele>
        <time>2011-02-12T11:08:30Z</time>
      </trkpt>
      <trkpt lat="42.739480" lon="-2.844070">
        <ele>538.087</ele>
        <time>2011-02-12T11:08:35Z</time>
      </trkpt>
      <trkpt lat="42.739480" lon="-2.844060">
        <ele>538.048</ele>
        <time>2011-02-12T11:08:40Z</time>
      </trkpt>
      <trkpt lat="42.739480" lon="-2.844060">
        <ele>538.517</ele>
        <time>2011-02-12T11:08:45Z</time>
      </trkpt>
      <trkpt lat="42.739490" lon="-2.844060">
        <ele>538.590</ele>
        <time>2011-02-12T11:08:50Z</time>
      </trkpt>
      <trkpt lat="42.739490" lon="-2.844060">
        <ele>538.593</ele>
        <time>2011-02-12T11:08:55Z</time>
      </trkpt>
      <trkpt lat="42.739480" lon="-2.844060">
        <ele>537.574</ele>
        <time>2011-02-12T11:09:00Z</time>
      </trkpt>
      <trkpt lat="42.739470" lon="-2.844080">
        <ele>537.546</ele>
        <time>2011-02-12T11:09:05Z</time>
      </trkpt>
      <trkpt lat="42.739470" lon="-2.844080">
        <ele>537.573</ele>
        <time>2011-02-12T11:09:10Z</time>
      </trkpt>
      <trkpt lat="42.739480" lon="-2.844080">
        <ele>538.085</ele>
        <time>2011-02-12T11:09:25Z</time>
      </trkpt>
      <trkpt lat="42.739300" lon="-2.844210">
        <ele>537.513</ele>
        <time>2011-02-12T11:09:54Z</time>
      </trkpt>
      <trkpt lat="42.739250" lon="-2.844300">
        <ele>537.507</ele>
        <time>2011-02-12T11:10:00Z</time>
      </trkpt>
      <trkpt lat="42.739210" lon="-2.844350">
        <ele>537.049</ele>
        <time>2011-02-12T11:10:05Z</time>
      </trkpt>
      <trkpt lat="42.739170" lon="-2.844420">
        <ele>537.090</ele>
        <time>2011-02-12T11:10:10Z</time>
      </trkpt>
      <trkpt lat="42.739120" lon="-2.844470">
        <ele>537.089</ele>
        <time>2011-02-12T11:10:15Z</time>
      </trkpt>
      <trkpt lat="42.739080" lon="-2.844540">
        <ele>536.182</ele>
        <time>2011-02-12T11:10:20Z</time>
      </trkpt>
      <trkpt lat="42.739030" lon="-2.844610">
        <ele>536.185</ele>
        <time>2011-02-12T11:10:25Z</time>
      </trkpt>
      <trkpt lat="42.738980" lon="-2.844660">
        <ele>536.126</ele>
        <time>2011-02-12T11:10:30Z</time>
      </trkpt>
      <trkpt lat="42.738930" lon="-2.844710">
        <ele>536.198</ele>
        <time>2011-02-12T11:10:35Z</time>
      </trkpt>
      <trkpt lat="42.738890" lon="-2.844710">
        <ele>536.159</ele>
        <time>2011-02-12T11:10:40Z</time>
      </trkpt>
      <trkpt lat="42.738840" lon="-2.844750">
        <ele>536.103</ele>
        <time>2011-02-12T11:10:45Z</time>
      </trkpt>
      <trkpt lat="42.738800" lon="-2.844790">
        <ele>536.123</ele>
        <time>2011-02-12T11:10:50Z</time>
      </trkpt>
      <trkpt lat="42.738770" lon="-2.844810">
        <ele>536.107</ele>
        <time>2011-02-12T11:10:55Z</time>
      </trkpt>
      <trkpt lat="42.738760" lon="-2.844820">
        <ele>535.657</ele>
        <time>2011-02-12T11:11:00Z</time>
      </trkpt>
      <trkpt lat="42.738760" lon="-2.844820">
        <ele>535.698</ele>
        <time>2011-02-12T11:11:05Z</time>
      </trkpt>
      <trkpt lat="42.738750" lon="-2.844780">
        <ele>535.657</ele>
        <time>2011-02-12T11:11:10Z</time>
      </trkpt>
      <trkpt lat="42.738730" lon="-2.844760">
        <ele>535.640</ele>
        <time>2011-02-12T11:11:15Z</time>
      </trkpt>
      <trkpt lat="42.738720" lon="-2.844750">
        <ele>535.633</ele>
        <time>2011-02-12T11:11:20Z</time>
      </trkpt>
      <trkpt lat="42.738720" lon="-2.844750">
        <ele>535.174</ele>
        <time>2011-02-12T11:11:25Z</time>
      </trkpt>
      <trkpt lat="42.738720" lon="-2.844750">
        <ele>535.196</ele>
        <time>2011-02-12T11:11:30Z</time>
      </trkpt>
      <trkpt lat="42.738720" lon="-2.844750">
        <ele>535.188</ele>
        <time>2011-02-12T11:11:35Z</time>
      </trkpt>
      <trkpt lat="42.738720" lon="-2.844750">
        <ele>535.624</ele>
        <time>2011-02-12T11:11:40Z</time>
      </trkpt>
      <trkpt lat="42.738720" lon="-2.844730">
        <ele>535.626</ele>
        <time>2011-02-12T11:11:45Z</time>
      </trkpt>
      <trkpt lat="42.738730" lon="-2.844720">
        <ele>535.607</ele>
        <time>2011-02-12T11:11:50Z</time>
      </trkpt>
      <trkpt lat="42.738730" lon="-2.844720">
        <ele>535.630</ele>
        <time>2011-02-12T11:11:55Z</time>
      </trkpt>
      <trkpt lat="42.738720" lon="-2.844730">
        <ele>536.161</ele>
        <time>2011-02-12T11:12:00Z</time>
      </trkpt>
      <trkpt lat="42.738690" lon="-2.844730">
        <ele>535.630</ele>
        <time>2011-02-12T11:12:05Z</time>
      </trkpt>
      <trkpt lat="42.738700" lon="-2.844750">
        <ele>535.653</ele>
        <time>2011-02-12T11:12:10Z</time>
      </trkpt>
      <trkpt lat="42.738710" lon="-2.844750">
        <ele>536.126</ele>
        <time>2011-02-12T11:12:15Z</time>
      </trkpt>
      <trkpt lat="42.738710" lon="-2.844750">
        <ele>535.697</ele>
        <time>2011-02-12T11:12:20Z</time>
      </trkpt>
      <trkpt lat="42.738710" lon="-2.844750">
        <ele>535.629</ele>
        <time>2011-02-12T11:12:25Z</time>
      </trkpt>
      <trkpt lat="42.738710" lon="-2.844760">
        <ele>535.636</ele>
        <time>2011-02-12T11:12:30Z</time>
      </trkpt>
      <trkpt lat="42.738710" lon="-2.844760">
        <ele>535.117</ele>
        <time>2011-02-12T11:12:35Z</time>
      </trkpt>
      <trkpt lat="42.738710" lon="-2.844760">
        <ele>535.118</ele>
        <time>2011-02-12T11:12:40Z</time>
      </trkpt>
      <trkpt lat="42.738710" lon="-2.844760">
        <ele>535.107</ele>
        <time>2011-02-12T11:12:45Z</time>
      </trkpt>
      <trkpt lat="42.738700" lon="-2.844770">
        <ele>535.165</ele>
        <time>2011-02-12T11:12:50Z</time>
      </trkpt>
      <trkpt lat="42.738700" lon="-2.844770">
        <ele>535.156</ele>
        <time>2011-02-12T11:12:55Z</time>
      </trkpt>
      <trkpt lat="42.738700" lon="-2.844770">
        <ele>534.685</ele>
        <time>2011-02-12T11:13:00Z</time>
      </trkpt>
      <trkpt lat="42.738700" lon="-2.844760">
        <ele>534.658</ele>
        <time>2011-02-12T11:13:05Z</time>
      </trkpt>
      <trkpt lat="42.738700" lon="-2.844760">
        <ele>534.651</ele>
        <time>2011-02-12T11:13:10Z</time>
      </trkpt>
      <trkpt lat="42.738700" lon="-2.844750">
        <ele>534.632</ele>
        <time>2011-02-12T11:13:15Z</time>
      </trkpt>
      <trkpt lat="42.738700" lon="-2.844750">
        <ele>535.144</ele>
        <time>2011-02-12T11:13:20Z</time>
      </trkpt>
      <trkpt lat="42.738690" lon="-2.844730">
        <ele>535.147</ele>
        <time>2011-02-12T11:13:25Z</time>
      </trkpt>
      <trkpt lat="42.738690" lon="-2.844740">
        <ele>535.129</ele>
        <time>2011-02-12T11:13:30Z</time>
      </trkpt>
      <trkpt lat="42.738690" lon="-2.844740">
        <ele>535.121</ele>
        <time>2011-02-12T11:13:35Z</time>
      </trkpt>
      <trkpt lat="42.738700" lon="-2.844730">
        <ele>534.607</ele>
        <time>2011-02-12T11:13:40Z</time>
      </trkpt>
      <trkpt lat="42.738710" lon="-2.844680">
        <ele>535.116</ele>
        <time>2011-02-12T11:13:45Z</time>
      </trkpt>
      <trkpt lat="42.738710" lon="-2.844650">
        <ele>534.687</ele>
        <time>2011-02-12T11:13:50Z</time>
      </trkpt>
      <trkpt lat="42.738710" lon="-2.844650">
        <ele>535.176</ele>
        <time>2011-02-12T11:13:55Z</time>
      </trkpt>
      <trkpt lat="42.738720" lon="-2.844660">
        <ele>535.179</ele>
        <time>2011-02-12T11:14:00Z</time>
      </trkpt>
      <trkpt lat="42.738680" lon="-2.844710">
        <ele>535.162</ele>
        <time>2011-02-12T11:14:05Z</time>
      </trkpt>
      <trkpt lat="42.738660" lon="-2.844780">
        <ele>534.233</ele>
        <time>2011-02-12T11:14:10Z</time>
      </trkpt>
      <trkpt lat="42.738670" lon="-2.844840">
        <ele>533.795</ele>
        <time>2011-02-12T11:14:15Z</time>
      </trkpt>
      <trkpt lat="42.738652" lon="-2.844892">
        <ele>533.711</ele>
        <time>2011-02-12T11:14:20Z</time>
      </trkpt>
      <trkpt lat="42.738621" lon="-2.844959">
        <ele>533.221</ele>
        <time>2011-02-12T11:14:25Z</time>
      </trkpt>
      <trkpt lat="42.738594" lon="-2.845002">
        <ele>533.703</ele>
        <time>2011-02-12T11:14:30Z</time>
      </trkpt>
      <trkpt lat="42.738540" lon="-2.845051">
        <ele>533.207</ele>
        <time>2011-02-12T11:14:35Z</time>
      </trkpt>
      <trkpt lat="42.738504" lon="-2.845082">
        <ele>533.723</ele>
        <time>2011-02-12T11:14:40Z</time>
      </trkpt>
      <trkpt lat="42.738463" lon="-2.845118">
        <ele>533.284</ele>
        <time>2011-02-12T11:14:45Z</time>
      </trkpt>
      <trkpt lat="42.738414" lon="-2.845167">
        <ele>534.283</ele>
        <time>2011-02-12T11:14:50Z</time>
      </trkpt>
      <trkpt lat="42.738360" lon="-2.845210">
        <ele>533.766</ele>
        <time>2011-02-12T11:14:55Z</time>
      </trkpt>
      <trkpt lat="42.738311" lon="-2.845247">
        <ele>534.299</ele>
        <time>2011-02-12T11:15:00Z</time>
      </trkpt>
      <trkpt lat="42.738261" lon="-2.845290">
        <ele>534.220</ele>
        <time>2011-02-12T11:15:05Z</time>
      </trkpt>
      <trkpt lat="42.738212" lon="-2.845339">
        <ele>534.682</ele>
        <time>2011-02-12T11:15:10Z</time>
      </trkpt>
      <trkpt lat="42.738162" lon="-2.845382">
        <ele>534.682</ele>
        <time>2011-02-12T11:15:15Z</time>
      </trkpt>
      <trkpt lat="42.738113" lon="-2.845431">
        <ele>535.643</ele>
        <time>2011-02-12T11:15:20Z</time>
      </trkpt>
      <trkpt lat="42.738063" lon="-2.845467">
        <ele>536.117</ele>
        <time>2011-02-12T11:15:25Z</time>
      </trkpt>
      <trkpt lat="42.738014" lon="-2.845516">
        <ele>536.107</ele>
        <time>2011-02-12T11:15:30Z</time>
      </trkpt>
      <trkpt lat="42.737951" lon="-2.845572">
        <ele>536.560</ele>
        <time>2011-02-12T11:15:35Z</time>
      </trkpt>
      <trkpt lat="42.737901" lon="-2.845608">
        <ele>537.561</ele>
        <time>2011-02-12T11:15:40Z</time>
      </trkpt>
      <trkpt lat="42.737852" lon="-2.845651">
        <ele>537.540</ele>
        <time>2011-02-12T11:15:45Z</time>
      </trkpt>
      <trkpt lat="42.737811" lon="-2.845700">
        <ele>538.043</ele>
        <time>2011-02-12T11:15:50Z</time>
      </trkpt>
      <trkpt lat="42.737771" lon="-2.845749">
        <ele>537.516</ele>
        <time>2011-02-12T11:15:55Z</time>
      </trkpt>
      <trkpt lat="42.737730" lon="-2.845780">
        <ele>538.017</ele>
        <time>2011-02-12T11:16:00Z</time>
      </trkpt>
      <trkpt lat="42.737703" lon="-2.845798">
        <ele>538.039</ele>
        <time>2011-02-12T11:16:05Z</time>
      </trkpt>
      <trkpt lat="42.737681" lon="-2.845798">
        <ele>537.055</ele>
        <time>2011-02-12T11:16:10Z</time>
      </trkpt>
      <trkpt lat="42.737663" lon="-2.845792">
        <ele>537.507</ele>
        <time>2011-02-12T11:16:15Z</time>
      </trkpt>
      <trkpt lat="42.737640" lon="-2.845768">
        <ele>538.017</ele>
        <time>2011-02-12T11:16:20Z</time>
      </trkpt>
      <trkpt lat="42.737630" lon="-2.845740">
        <ele>538.007</ele>
        <time>2011-02-12T11:16:25Z</time>
      </trkpt>
      <trkpt lat="42.737580" lon="-2.845700">
        <ele>538.567</ele>
        <time>2011-02-12T11:16:30Z</time>
      </trkpt>
      <trkpt lat="42.737540" lon="-2.845640">
        <ele>538.588</ele>
        <time>2011-02-12T11:16:35Z</time>
      </trkpt>
      <trkpt lat="42.737500" lon="-2.845590">
        <ele>538.977</ele>
        <time>2011-02-12T11:16:40Z</time>
      </trkpt>
      <trkpt lat="42.737460" lon="-2.845540">
        <ele>539.420</ele>
        <time>2011-02-12T11:16:45Z</time>
      </trkpt>
      <trkpt lat="42.737420" lon="-2.845490">
        <ele>539.453</ele>
        <time>2011-02-12T11:16:50Z</time>
      </trkpt>
      <trkpt lat="42.737380" lon="-2.845430">
        <ele>540.924</ele>
        <time>2011-02-12T11:16:55Z</time>
      </trkpt>
      <trkpt lat="42.737330" lon="-2.845370">
        <ele>540.936</ele>
        <time>2011-02-12T11:17:00Z</time>
      </trkpt>
      <trkpt lat="42.737290" lon="-2.845320">
        <ele>541.435</ele>
        <time>2011-02-12T11:17:05Z</time>
      </trkpt>
      <trkpt lat="42.737250" lon="-2.845270">
        <ele>540.986</ele>
        <time>2011-02-12T11:17:10Z</time>
      </trkpt>
      <trkpt lat="42.737210" lon="-2.845220">
        <ele>541.414</ele>
        <time>2011-02-12T11:17:15Z</time>
      </trkpt>
      <trkpt lat="42.737170" lon="-2.845160">
        <ele>541.807</ele>
        <time>2011-02-12T11:17:20Z</time>
      </trkpt>
      <trkpt lat="42.737120" lon="-2.845100">
        <ele>541.855</ele>
        <time>2011-02-12T11:17:25Z</time>
      </trkpt>
      <trkpt lat="42.737080" lon="-2.845040">
        <ele>541.846</ele>
        <time>2011-02-12T11:17:30Z</time>
      </trkpt>
      <trkpt lat="42.737040" lon="-2.844980">
        <ele>541.885</ele>
        <time>2011-02-12T11:17:35Z</time>
      </trkpt>
      <trkpt lat="42.737000" lon="-2.844930">
        <ele>541.818</ele>
        <time>2011-02-12T11:17:40Z</time>
      </trkpt>
      <trkpt lat="42.736950" lon="-2.844870">
        <ele>542.321</ele>
        <time>2011-02-12T11:17:45Z</time>
      </trkpt>
      <trkpt lat="42.736910" lon="-2.844810">
        <ele>542.842</ele>
        <time>2011-02-12T11:17:50Z</time>
      </trkpt>
      <trkpt lat="42.736870" lon="-2.844760">
        <ele>543.854</ele>
        <time>2011-02-12T11:17:55Z</time>
      </trkpt>
      <trkpt lat="42.736820" lon="-2.844700">
        <ele>544.316</ele>
        <time>2011-02-12T11:18:00Z</time>
      </trkpt>
      <trkpt lat="42.736780" lon="-2.844640">
        <ele>544.376</ele>
        <time>2011-02-12T11:18:05Z</time>
      </trkpt>
      <trkpt lat="42.736740" lon="-2.844580">
        <ele>544.313</ele>
        <time>2011-02-12T11:18:10Z</time>
      </trkpt>
      <trkpt lat="42.736690" lon="-2.844530">
        <ele>545.207</ele>
        <time>2011-02-12T11:18:15Z</time>
      </trkpt>
      <trkpt lat="42.736650" lon="-2.844470">
        <ele>545.283</ele>
        <time>2011-02-12T11:18:20Z</time>
      </trkpt>
      <trkpt lat="42.736610" lon="-2.844410">
        <ele>545.764</ele>
        <time>2011-02-12T11:18:25Z</time>
      </trkpt>
      <trkpt lat="42.736570" lon="-2.844360">
        <ele>546.213</ele>
        <time>2011-02-12T11:18:30Z</time>
      </trkpt>
      <trkpt lat="42.736520" lon="-2.844300">
        <ele>546.796</ele>
        <time>2011-02-12T11:18:35Z</time>
      </trkpt>
      <trkpt lat="42.736480" lon="-2.844250">
        <ele>547.129</ele>
        <time>2011-02-12T11:18:40Z</time>
      </trkpt>
      <trkpt lat="42.736440" lon="-2.844190">
        <ele>547.660</ele>
        <time>2011-02-12T11:18:45Z</time>
      </trkpt>
      <trkpt lat="42.736400" lon="-2.844140">
        <ele>548.122</ele>
        <time>2011-02-12T11:18:50Z</time>
      </trkpt>
      <trkpt lat="42.736360" lon="-2.844080">
        <ele>548.189</ele>
        <time>2011-02-12T11:18:55Z</time>
      </trkpt>
      <trkpt lat="42.736320" lon="-2.844020">
        <ele>548.606</ele>
        <time>2011-02-12T11:19:00Z</time>
      </trkpt>
      <trkpt lat="42.736280" lon="-2.843960">
        <ele>548.626</ele>
        <time>2011-02-12T11:19:05Z</time>
      </trkpt>
      <trkpt lat="42.736230" lon="-2.843910">
        <ele>549.507</ele>
        <time>2011-02-12T11:19:10Z</time>
      </trkpt>
      <trkpt lat="42.736190" lon="-2.843850">
        <ele>549.540</ele>
        <time>2011-02-12T11:19:15Z</time>
      </trkpt>
      <trkpt lat="42.736140" lon="-2.843800">
        <ele>550.021</ele>
        <time>2011-02-12T11:19:20Z</time>
      </trkpt>
      <trkpt lat="42.736110" lon="-2.843770">
        <ele>550.080</ele>
        <time>2011-02-12T11:19:25Z</time>
      </trkpt>
      <trkpt lat="42.736070" lon="-2.843710">
        <ele>550.523</ele>
        <time>2011-02-12T11:19:30Z</time>
      </trkpt>
      <trkpt lat="42.736030" lon="-2.843650">
        <ele>550.556</ele>
        <time>2011-02-12T11:19:35Z</time>
      </trkpt>
      <trkpt lat="42.735980" lon="-2.843600">
        <ele>551.487</ele>
        <time>2011-02-12T11:19:40Z</time>
      </trkpt>
      <trkpt lat="42.735940" lon="-2.843550">
        <ele>551.979</ele>
        <time>2011-02-12T11:19:45Z</time>
      </trkpt>
      <trkpt lat="42.735900" lon="-2.843500">
        <ele>551.911</ele>
        <time>2011-02-12T11:19:50Z</time>
      </trkpt>
      <trkpt lat="42.735860" lon="-2.843440">
        <ele>552.421</ele>
        <time>2011-02-12T11:19:55Z</time>
      </trkpt>
      <trkpt lat="42.735820" lon="-2.843390">
        <ele>551.903</ele>
        <time>2011-02-12T11:20:00Z</time>
      </trkpt>
      <trkpt lat="42.735780" lon="-2.843340">
        <ele>552.407</ele>
        <time>2011-02-12T11:20:05Z</time>
      </trkpt>
      <trkpt lat="42.735740" lon="-2.843290">
        <ele>552.963</ele>
        <time>2011-02-12T11:20:10Z</time>
      </trkpt>
      <trkpt lat="42.735700" lon="-2.843240">
        <ele>552.974</ele>
        <time>2011-02-12T11:20:15Z</time>
      </trkpt>
      <trkpt lat="42.735660" lon="-2.843190">
        <ele>553.953</ele>
        <time>2011-02-12T11:20:20Z</time>
      </trkpt>
      <trkpt lat="42.735620" lon="-2.843140">
        <ele>553.456</ele>
        <time>2011-02-12T11:20:25Z</time>
      </trkpt>
      <trkpt lat="42.735580" lon="-2.843090">
        <ele>553.919</ele>
        <time>2011-02-12T11:20:30Z</time>
      </trkpt>
      <trkpt lat="42.735540" lon="-2.843040">
        <ele>553.930</ele>
        <time>2011-02-12T11:20:35Z</time>
      </trkpt>
      <trkpt lat="42.735500" lon="-2.842990">
        <ele>553.912</ele>
        <time>2011-02-12T11:20:40Z</time>
      </trkpt>
      <trkpt lat="42.735460" lon="-2.842930">
        <ele>554.331</ele>
        <time>2011-02-12T11:20:45Z</time>
      </trkpt>
      <trkpt lat="42.735420" lon="-2.842880">
        <ele>554.361</ele>
        <time>2011-02-12T11:20:50Z</time>
      </trkpt>
      <trkpt lat="42.735380" lon="-2.842820">
        <ele>555.307</ele>
        <time>2011-02-12T11:20:55Z</time>
      </trkpt>
      <trkpt lat="42.735340" lon="-2.842770">
        <ele>554.807</ele>
        <time>2011-02-12T11:21:00Z</time>
      </trkpt>
      <trkpt lat="42.735300" lon="-2.842720">
        <ele>555.345</ele>
        <time>2011-02-12T11:21:05Z</time>
      </trkpt>
      <trkpt lat="42.735260" lon="-2.842660">
        <ele>555.846</ele>
        <time>2011-02-12T11:21:10Z</time>
      </trkpt>
      <trkpt lat="42.735220" lon="-2.842610">
        <ele>556.345</ele>
        <time>2011-02-12T11:21:15Z</time>
      </trkpt>
      <trkpt lat="42.735180" lon="-2.842560">
        <ele>556.758</ele>
        <time>2011-02-12T11:21:20Z</time>
      </trkpt>
      <trkpt lat="42.735150" lon="-2.842510">
        <ele>557.281</ele>
        <time>2011-02-12T11:21:25Z</time>
      </trkpt>
      <trkpt lat="42.735110" lon="-2.842460">
        <ele>557.762</ele>
        <time>2011-02-12T11:21:30Z</time>
      </trkpt>
      <trkpt lat="42.735070" lon="-2.842410">
        <ele>558.264</ele>
        <time>2011-02-12T11:21:35Z</time>
      </trkpt>
      <trkpt lat="42.735030" lon="-2.842360">
        <ele>558.789</ele>
        <time>2011-02-12T11:21:40Z</time>
      </trkpt>
      <trkpt lat="42.734990" lon="-2.842310">
        <ele>559.606</ele>
        <time>2011-02-12T11:21:45Z</time>
      </trkpt>
      <trkpt lat="42.734960" lon="-2.842260">
        <ele>560.126</ele>
        <time>2011-02-12T11:21:50Z</time>
      </trkpt>
      <trkpt lat="42.734920" lon="-2.842210">
        <ele>561.107</ele>
        <time>2011-02-12T11:21:55Z</time>
      </trkpt>
      <trkpt lat="42.734880" lon="-2.842170">
        <ele>561.550</ele>
        <time>2011-02-12T11:22:00Z</time>
      </trkpt>
      <trkpt lat="42.734840" lon="-2.842120">
        <ele>561.581</ele>
        <time>2011-02-12T11:22:05Z</time>
      </trkpt>
      <trkpt lat="42.734800" lon="-2.842090">
        <ele>562.030</ele>
        <time>2011-02-12T11:22:10Z</time>
      </trkpt>
      <trkpt lat="42.734750" lon="-2.842060">
        <ele>562.573</ele>
        <time>2011-02-12T11:22:15Z</time>
      </trkpt>
      <trkpt lat="42.734690" lon="-2.842050">
        <ele>562.516</ele>
        <time>2011-02-12T11:22:20Z</time>
      </trkpt>
      <trkpt lat="42.734640" lon="-2.842050">
        <ele>563.917</ele>
        <time>2011-02-12T11:22:25Z</time>
      </trkpt>
      <trkpt lat="42.734590" lon="-2.842050">
        <ele>563.559</ele>
        <time>2011-02-12T11:22:30Z</time>
      </trkpt>
      <trkpt lat="42.734550" lon="-2.842060">
        <ele>564.946</ele>
        <time>2011-02-12T11:22:35Z</time>
      </trkpt>
      <trkpt lat="42.734500" lon="-2.842060">
        <ele>565.488</ele>
        <time>2011-02-12T11:22:40Z</time>
      </trkpt>
      <trkpt lat="42.734460" lon="-2.842060">
        <ele>566.316</ele>
        <time>2011-02-12T11:22:45Z</time>
      </trkpt>
      <trkpt lat="42.734410" lon="-2.842060">
        <ele>566.807</ele>
        <time>2011-02-12T11:22:50Z</time>
      </trkpt>
      <trkpt lat="42.734370" lon="-2.842060">
        <ele>566.856</ele>
        <time>2011-02-12T11:22:55Z</time>
      </trkpt>
      <trkpt lat="42.734320" lon="-2.842070">
        <ele>567.367</ele>
        <time>2011-02-12T11:23:00Z</time>
      </trkpt>
      <trkpt lat="42.734280" lon="-2.842070">
        <ele>568.856</ele>
        <time>2011-02-12T11:23:05Z</time>
      </trkpt>
      <trkpt lat="42.734240" lon="-2.842070">
        <ele>569.749</ele>
        <time>2011-02-12T11:23:10Z</time>
      </trkpt>
      <trkpt lat="42.734200" lon="-2.842080">
        <ele>570.742</ele>
        <time>2011-02-12T11:23:15Z</time>
      </trkpt>
      <trkpt lat="42.734160" lon="-2.842080">
        <ele>571.243</ele>
        <time>2011-02-12T11:23:20Z</time>
      </trkpt>
      <trkpt lat="42.734120" lon="-2.842090">
        <ele>572.165</ele>
        <time>2011-02-12T11:23:25Z</time>
      </trkpt>
      <trkpt lat="42.734070" lon="-2.842110">
        <ele>573.153</ele>
        <time>2011-02-12T11:23:30Z</time>
      </trkpt>
      <trkpt lat="42.734040" lon="-2.842120">
        <ele>573.104</ele>
        <time>2011-02-12T11:23:35Z</time>
      </trkpt>
      <trkpt lat="42.734000" lon="-2.842130">
        <ele>573.114</ele>
        <time>2011-02-12T11:23:40Z</time>
      </trkpt>
      <trkpt lat="42.733980" lon="-2.842140">
        <ele>574.507</ele>
        <time>2011-02-12T11:23:45Z</time>
      </trkpt>
      <trkpt lat="42.733970" lon="-2.842130">
        <ele>575.537</ele>
        <time>2011-02-12T11:23:50Z</time>
      </trkpt>
      <trkpt lat="42.733980" lon="-2.842130">
        <ele>575.568</ele>
        <time>2011-02-12T11:23:55Z</time>
      </trkpt>
      <trkpt lat="42.733990" lon="-2.842120">
        <ele>575.067</ele>
        <time>2011-02-12T11:24:00Z</time>
      </trkpt>
      <trkpt lat="42.733990" lon="-2.842120">
        <ele>574.540</ele>
        <time>2011-02-12T11:24:05Z</time>
      </trkpt>
      <trkpt lat="42.733990" lon="-2.842120">
        <ele>574.533</ele>
        <time>2011-02-12T11:24:10Z</time>
      </trkpt>
      <trkpt lat="42.733990" lon="-2.842120">
        <ele>574.564</ele>
        <time>2011-02-12T11:24:15Z</time>
      </trkpt>
      <trkpt lat="42.733990" lon="-2.842120">
        <ele>574.546</ele>
        <time>2011-02-12T11:24:20Z</time>
      </trkpt>
      <trkpt lat="42.733990" lon="-2.842120">
        <ele>574.584</ele>
        <time>2011-02-12T11:24:25Z</time>
      </trkpt>
      <trkpt lat="42.733990" lon="-2.842120">
        <ele>574.007</ele>
        <time>2011-02-12T11:24:30Z</time>
      </trkpt>
      <trkpt lat="42.734000" lon="-2.842120">
        <ele>574.017</ele>
        <time>2011-02-12T11:24:35Z</time>
      </trkpt>
      <trkpt lat="42.734000" lon="-2.842120">
        <ele>574.007</ele>
        <time>2011-02-12T11:24:40Z</time>
      </trkpt>
      <trkpt lat="42.734000" lon="-2.842120">
        <ele>574.040</ele>
        <time>2011-02-12T11:24:45Z</time>
      </trkpt>
      <trkpt lat="42.734000" lon="-2.842120">
        <ele>574.061</ele>
        <time>2011-02-12T11:24:50Z</time>
      </trkpt>
      <trkpt lat="42.734000" lon="-2.842120">
        <ele>574.050</ele>
        <time>2011-02-12T11:24:55Z</time>
      </trkpt>
      <trkpt lat="42.734010" lon="-2.842120">
        <ele>573.113</ele>
        <time>2011-02-12T11:25:00Z</time>
      </trkpt>
      <trkpt lat="42.734010" lon="-2.842120">
        <ele>573.626</ele>
        <time>2011-02-12T11:25:05Z</time>
      </trkpt>
      <trkpt lat="42.734010" lon="-2.842120">
        <ele>574.087</ele>
        <time>2011-02-12T11:25:10Z</time>
      </trkpt>
      <trkpt lat="42.734010" lon="-2.842110">
        <ele>574.069</ele>
        <time>2011-02-12T11:25:15Z</time>
      </trkpt>
      <trkpt lat="42.734010" lon="-2.842110">
        <ele>574.017</ele>
        <time>2011-02-12T11:25:20Z</time>
      </trkpt>
      <trkpt lat="42.734010" lon="-2.842110">
        <ele>574.087</ele>
        <time>2011-02-12T11:25:25Z</time>
      </trkpt>
      <trkpt lat="42.734020" lon="-2.842110">
        <ele>574.515</ele>
        <time>2011-02-12T11:25:30Z</time>
      </trkpt>
      <trkpt lat="42.734010" lon="-2.842090">
        <ele>573.607</ele>
        <time>2011-02-12T11:25:35Z</time>
      </trkpt>
      <trkpt lat="42.733980" lon="-2.842060">
        <ele>574.593</ele>
        <time>2011-02-12T11:25:40Z</time>
      </trkpt>
      <trkpt lat="42.733930" lon="-2.842030">
        <ele>575.544</ele>
        <time>2011-02-12T11:25:45Z</time>
      </trkpt>
      <trkpt lat="42.733900" lon="-2.841980">
        <ele>575.523</ele>
        <time>2011-02-12T11:25:50Z</time>
      </trkpt>
      <trkpt lat="42.733880" lon="-2.841920">
        <ele>576.476</ele>
        <time>2011-02-12T11:25:55Z</time>
      </trkpt>
      <trkpt lat="42.733860" lon="-2.841860">
        <ele>577.429</ele>
        <time>2011-02-12T11:26:00Z</time>
      </trkpt>
      <trkpt lat="42.733830" lon="-2.841800">
        <ele>578.440</ele>
        <time>2011-02-12T11:26:05Z</time>
      </trkpt>
      <trkpt lat="42.733800" lon="-2.841740">
        <ele>578.872</ele>
        <time>2011-02-12T11:26:10Z</time>
      </trkpt>
      <trkpt lat="42.733770" lon="-2.841690">
        <ele>579.366</ele>
        <time>2011-02-12T11:26:15Z</time>
      </trkpt>
      <trkpt lat="42.733740" lon="-2.841640">
        <ele>580.329</ele>
        <time>2011-02-12T11:26:20Z</time>
      </trkpt>
      <trkpt lat="42.733700" lon="-2.841610">
        <ele>581.721</ele>
        <time>2011-02-12T11:26:25Z</time>
      </trkpt>
      <trkpt lat="42.733650" lon="-2.841600">
        <ele>581.707</ele>
        <time>2011-02-12T11:26:30Z</time>
      </trkpt>
      <trkpt lat="42.733600" lon="-2.841590">
        <ele>582.758</ele>
        <time>2011-02-12T11:26:35Z</time>
      </trkpt>
      <trkpt lat="42.733550" lon="-2.841590">
        <ele>583.289</ele>
        <time>2011-02-12T11:26:40Z</time>
      </trkpt>
      <trkpt lat="42.733500" lon="-2.841590">
        <ele>583.248</ele>
        <time>2011-02-12T11:26:45Z</time>
      </trkpt>
      <trkpt lat="42.733460" lon="-2.841600">
        <ele>585.111</ele>
        <time>2011-02-12T11:26:50Z</time>
      </trkpt>
      <trkpt lat="42.733410" lon="-2.841610">
        <ele>586.534</ele>
        <time>2011-02-12T11:26:55Z</time>
      </trkpt>
      <trkpt lat="42.733360" lon="-2.841610">
        <ele>587.015</ele>
        <time>2011-02-12T11:27:00Z</time>
      </trkpt>
      <trkpt lat="42.733310" lon="-2.841580">
        <ele>588.517</ele>
        <time>2011-02-12T11:27:06Z</time>
      </trkpt>
      <trkpt lat="42.733280" lon="-2.841520">
        <ele>588.038</ele>
        <time>2011-02-12T11:27:11Z</time>
      </trkpt>
      <trkpt lat="42.733270" lon="-2.841460">
        <ele>589.470</ele>
        <time>2011-02-12T11:27:16Z</time>
      </trkpt>
      <trkpt lat="42.733250" lon="-2.841390">
        <ele>589.917</ele>
        <time>2011-02-12T11:27:21Z</time>
      </trkpt>
      <trkpt lat="42.733230" lon="-2.841320">
        <ele>590.907</ele>
        <time>2011-02-12T11:27:26Z</time>
      </trkpt>
      <trkpt lat="42.733200" lon="-2.841260">
        <ele>591.395</ele>
        <time>2011-02-12T11:27:31Z</time>
      </trkpt>
      <trkpt lat="42.733180" lon="-2.841190">
        <ele>592.316</ele>
        <time>2011-02-12T11:27:36Z</time>
      </trkpt>
      <trkpt lat="42.733150" lon="-2.841140">
        <ele>593.365</ele>
        <time>2011-02-12T11:27:41Z</time>
      </trkpt>
      <trkpt lat="42.733110" lon="-2.841090">
        <ele>594.248</ele>
        <time>2011-02-12T11:27:46Z</time>
      </trkpt>
      <trkpt lat="42.733080" lon="-2.841030">
        <ele>595.291</ele>
        <time>2011-02-12T11:27:51Z</time>
      </trkpt>
      <trkpt lat="42.733050" lon="-2.840970">
        <ele>596.212</ele>
        <time>2011-02-12T11:27:56Z</time>
      </trkpt>
      <trkpt lat="42.733020" lon="-2.840900">
        <ele>595.794</ele>
        <time>2011-02-12T11:28:01Z</time>
      </trkpt>
      <trkpt lat="42.732990" lon="-2.840830">
        <ele>596.272</ele>
        <time>2011-02-12T11:28:06Z</time>
      </trkpt>
      <trkpt lat="42.732970" lon="-2.840760">
        <ele>596.613</ele>
        <time>2011-02-12T11:28:11Z</time>
      </trkpt>
      <trkpt lat="42.732940" lon="-2.840690">
        <ele>597.114</ele>
        <time>2011-02-12T11:28:16Z</time>
      </trkpt>
      <trkpt lat="42.732910" lon="-2.840620">
        <ele>597.607</ele>
        <time>2011-02-12T11:28:21Z</time>
      </trkpt>
      <trkpt lat="42.732890" lon="-2.840560">
        <ele>598.149</ele>
        <time>2011-02-12T11:28:26Z</time>
      </trkpt>
      <trkpt lat="42.732860" lon="-2.840490">
        <ele>599.050</ele>
        <time>2011-02-12T11:28:31Z</time>
      </trkpt>
      <trkpt lat="42.732830" lon="-2.840420">
        <ele>598.169</ele>
        <time>2011-02-12T11:28:36Z</time>
      </trkpt>
      <trkpt lat="42.732800" lon="-2.840350">
        <ele>599.052</ele>
        <time>2011-02-12T11:28:41Z</time>
      </trkpt>
      <trkpt lat="42.732780" lon="-2.840270">
        <ele>599.525</ele>
        <time>2011-02-12T11:28:46Z</time>
      </trkpt>
      <trkpt lat="42.732760" lon="-2.840190">
        <ele>600.036</ele>
        <time>2011-02-12T11:28:51Z</time>
      </trkpt>
      <trkpt lat="42.732740" lon="-2.840120">
        <ele>600.588</ele>
        <time>2011-02-12T11:28:56Z</time>
      </trkpt>
      <trkpt lat="42.732710" lon="-2.840030">
        <ele>600.583</ele>
        <time>2011-02-12T11:29:01Z</time>
      </trkpt>
      <trkpt lat="42.732690" lon="-2.839990">
        <ele>601.025</ele>
        <time>2011-02-12T11:29:06Z</time>
      </trkpt>
      <trkpt lat="42.732660" lon="-2.839940">
        <ele>601.017</ele>
        <time>2011-02-12T11:29:11Z</time>
      </trkpt>
      <trkpt lat="42.732640" lon="-2.839870">
        <ele>601.407</ele>
        <time>2011-02-12T11:29:16Z</time>
      </trkpt>
      <trkpt lat="42.732610" lon="-2.839810">
        <ele>601.440</ele>
        <time>2011-02-12T11:29:21Z</time>
      </trkpt>
      <trkpt lat="42.732570" lon="-2.839750">
        <ele>601.981</ele>
        <time>2011-02-12T11:29:26Z</time>
      </trkpt>
      <trkpt lat="42.732530" lon="-2.839700">
        <ele>601.990</ele>
        <time>2011-02-12T11:29:31Z</time>
      </trkpt>
      <trkpt lat="42.732490" lon="-2.839650">
        <ele>601.093</ele>
        <time>2011-02-12T11:29:36Z</time>
      </trkpt>
      <trkpt lat="42.732450" lon="-2.839580">
        <ele>601.996</ele>
        <time>2011-02-12T11:29:41Z</time>
      </trkpt>
      <trkpt lat="42.732410" lon="-2.839530">
        <ele>602.447</ele>
        <time>2011-02-12T11:29:46Z</time>
      </trkpt>
      <trkpt lat="42.732370" lon="-2.839470">
        <ele>602.429</ele>
        <time>2011-02-12T11:29:51Z</time>
      </trkpt>
      <trkpt lat="42.732330" lon="-2.839420">
        <ele>602.939</ele>
        <time>2011-02-12T11:29:56Z</time>
      </trkpt>
      <trkpt lat="42.732290" lon="-2.839370">
        <ele>602.901</ele>
        <time>2011-02-12T11:30:01Z</time>
      </trkpt>
      <trkpt lat="42.732250" lon="-2.839310">
        <ele>603.421</ele>
        <time>2011-02-12T11:30:06Z</time>
      </trkpt>
      <trkpt lat="42.732230" lon="-2.839220">
        <ele>603.407</ele>
        <time>2011-02-12T11:30:11Z</time>
      </trkpt>
      <trkpt lat="42.732220" lon="-2.839140">
        <ele>603.865</ele>
        <time>2011-02-12T11:30:16Z</time>
      </trkpt>
      <trkpt lat="42.732180" lon="-2.839110">
        <ele>604.356</ele>
        <time>2011-02-12T11:30:21Z</time>
      </trkpt>
      <trkpt lat="42.732170" lon="-2.839110">
        <ele>604.845</ele>
        <time>2011-02-12T11:30:26Z</time>
      </trkpt>
      <trkpt lat="42.732160" lon="-2.839140">
        <ele>604.898</ele>
        <time>2011-02-12T11:30:31Z</time>
      </trkpt>
      <trkpt lat="42.732150" lon="-2.839180">
        <ele>604.811</ele>
        <time>2011-02-12T11:30:36Z</time>
      </trkpt>
      <trkpt lat="42.732150" lon="-2.839210">
        <ele>605.342</ele>
        <time>2011-02-12T11:30:41Z</time>
      </trkpt>
      <trkpt lat="42.732160" lon="-2.839220">
        <ele>605.354</ele>
        <time>2011-02-12T11:30:46Z</time>
      </trkpt>
      <trkpt lat="42.732160" lon="-2.839230">
        <ele>604.858</ele>
        <time>2011-02-12T11:30:51Z</time>
      </trkpt>
      <trkpt lat="42.732160" lon="-2.839220">
        <ele>605.352</ele>
        <time>2011-02-12T11:30:56Z</time>
      </trkpt>
      <trkpt lat="42.732160" lon="-2.839210">
        <ele>604.817</ele>
        <time>2011-02-12T11:31:01Z</time>
      </trkpt>
      <trkpt lat="42.732170" lon="-2.839200">
        <ele>604.807</ele>
        <time>2011-02-12T11:31:06Z</time>
      </trkpt>
      <trkpt lat="42.732170" lon="-2.839200">
        <ele>604.827</ele>
        <time>2011-02-12T11:31:11Z</time>
      </trkpt>
      <trkpt lat="42.732170" lon="-2.839200">
        <ele>604.868</ele>
        <time>2011-02-12T11:31:16Z</time>
      </trkpt>
      <trkpt lat="42.732160" lon="-2.839200">
        <ele>604.347</ele>
        <time>2011-02-12T11:31:21Z</time>
      </trkpt>
      <trkpt lat="42.732160" lon="-2.839200">
        <ele>604.350</ele>
        <time>2011-02-12T11:31:26Z</time>
      </trkpt>
      <trkpt lat="42.732160" lon="-2.839200">
        <ele>604.373</ele>
        <time>2011-02-12T11:31:31Z</time>
      </trkpt>
      <trkpt lat="42.732160" lon="-2.839190">
        <ele>604.364</ele>
        <time>2011-02-12T11:31:36Z</time>
      </trkpt>
      <trkpt lat="42.732150" lon="-2.839190">
        <ele>604.836</ele>
        <time>2011-02-12T11:31:41Z</time>
      </trkpt>
      <trkpt lat="42.732150" lon="-2.839180">
        <ele>604.317</ele>
        <time>2011-02-12T11:31:46Z</time>
      </trkpt>
      <trkpt lat="42.732150" lon="-2.839190">
        <ele>604.887</ele>
        <time>2011-02-12T11:31:51Z</time>
      </trkpt>
      <trkpt lat="42.732150" lon="-2.839180">
        <ele>603.815</ele>
        <time>2011-02-12T11:31:56Z</time>
      </trkpt>
      <trkpt lat="42.732150" lon="-2.839180">
        <ele>604.807</ele>
        <time>2011-02-12T11:32:01Z</time>
      </trkpt>
      <trkpt lat="42.732170" lon="-2.839170">
        <ele>604.823</ele>
        <time>2011-02-12T11:32:06Z</time>
      </trkpt>
      <trkpt lat="42.732170" lon="-2.839160">
        <ele>604.894</ele>
        <time>2011-02-12T11:32:11Z</time>
      </trkpt>
      <trkpt lat="42.732160" lon="-2.839170">
        <ele>604.823</ele>
        <time>2011-02-12T11:32:16Z</time>
      </trkpt>
      <trkpt lat="42.732160" lon="-2.839180">
        <ele>604.876</ele>
        <time>2011-02-12T11:32:21Z</time>
      </trkpt>
      <trkpt lat="42.732150" lon="-2.839180">
        <ele>604.819</ele>
        <time>2011-02-12T11:32:26Z</time>
      </trkpt>
      <trkpt lat="42.732150" lon="-2.839150">
        <ele>604.890</ele>
        <time>2011-02-12T11:32:31Z</time>
      </trkpt>
      <trkpt lat="42.732170" lon="-2.839090">
        <ele>605.352</ele>
        <time>2011-02-12T11:32:41Z</time>
      </trkpt>
      <trkpt lat="42.732170" lon="-2.839100">
        <ele>605.338</ele>
        <time>2011-02-12T11:32:46Z</time>
      </trkpt>
      <trkpt lat="42.732170" lon="-2.839100">
        <ele>605.370</ele>
        <time>2011-02-12T11:32:51Z</time>
      </trkpt>
      <trkpt lat="42.732170" lon="-2.839100">
        <ele>605.317</ele>
        <time>2011-02-12T11:32:56Z</time>
      </trkpt>
      <trkpt lat="42.732170" lon="-2.839120">
        <ele>605.307</ele>
        <time>2011-02-12T11:33:01Z</time>
      </trkpt>
      <trkpt lat="42.732170" lon="-2.839120">
        <ele>605.845</ele>
        <time>2011-02-12T11:33:06Z</time>
      </trkpt>
      <trkpt lat="42.732170" lon="-2.839120">
        <ele>605.836</ele>
        <time>2011-02-12T11:33:11Z</time>
      </trkpt>
      <trkpt lat="42.732160" lon="-2.839110">
        <ele>605.375</ele>
        <time>2011-02-12T11:33:16Z</time>
      </trkpt>
      <trkpt lat="42.732150" lon="-2.839110">
        <ele>605.848</ele>
        <time>2011-02-12T11:33:21Z</time>
      </trkpt>
      <trkpt lat="42.732150" lon="-2.839130">
        <ele>604.831</ele>
        <time>2011-02-12T11:33:26Z</time>
      </trkpt>
      <trkpt lat="42.732150" lon="-2.839140">
        <ele>605.312</ele>
        <time>2011-02-12T11:33:31Z</time>
      </trkpt>
      <trkpt lat="42.732150" lon="-2.839180">
        <ele>604.334</ele>
        <time>2011-02-12T11:33:36Z</time>
      </trkpt>
      <trkpt lat="42.732140" lon="-2.839220">
        <ele>604.389</ele>
        <time>2011-02-12T11:33:41Z</time>
      </trkpt>
      <trkpt lat="42.732120" lon="-2.839290">
        <ele>604.806</ele>
        <time>2011-02-12T11:33:46Z</time>
      </trkpt>
      <trkpt lat="42.732110" lon="-2.839370">
        <ele>605.326</ele>
        <time>2011-02-12T11:33:51Z</time>
      </trkpt>
      <trkpt lat="42.732090" lon="-2.839440">
        <ele>605.307</ele>
        <time>2011-02-12T11:33:56Z</time>
      </trkpt>
      <trkpt lat="42.732080" lon="-2.839510">
        <ele>605.350</ele>
        <time>2011-02-12T11:34:01Z</time>
      </trkpt>
      <trkpt lat="42.732060" lon="-2.839590">
        <ele>605.341</ele>
        <time>2011-02-12T11:34:06Z</time>
      </trkpt>
      <trkpt lat="42.732040" lon="-2.839660">
        <ele>605.850</ele>
        <time>2011-02-12T11:34:11Z</time>
      </trkpt>
      <trkpt lat="42.732010" lon="-2.839730">
        <ele>605.813</ele>
        <time>2011-02-12T11:34:16Z</time>
      </trkpt>
      <trkpt lat="42.731980" lon="-2.839800">
        <ele>606.786</ele>
        <time>2011-02-12T11:34:21Z</time>
      </trkpt>
      <trkpt lat="42.731950" lon="-2.839860">
        <ele>606.267</ele>
        <time>2011-02-12T11:34:26Z</time>
      </trkpt>
      <trkpt lat="42.731920" lon="-2.839930">
        <ele>607.269</ele>
        <time>2011-02-12T11:34:31Z</time>
      </trkpt>
      <trkpt lat="42.731880" lon="-2.839990">
        <ele>607.262</ele>
        <time>2011-02-12T11:34:36Z</time>
      </trkpt>
      <trkpt lat="42.731850" lon="-2.840060">
        <ele>607.283</ele>
        <time>2011-02-12T11:34:41Z</time>
      </trkpt>
      <trkpt lat="42.731810" lon="-2.840120">
        <ele>607.711</ele>
        <time>2011-02-12T11:34:46Z</time>
      </trkpt>
      <trkpt lat="42.731770" lon="-2.840180">
        <ele>607.707</ele>
        <time>2011-02-12T11:34:51Z</time>
      </trkpt>
      <trkpt lat="42.731740" lon="-2.840220">
        <ele>608.298</ele>
        <time>2011-02-12T11:34:56Z</time>
      </trkpt>
      <trkpt lat="42.731720" lon="-2.840260">
        <ele>608.289</ele>
        <time>2011-02-12T11:35:01Z</time>
      </trkpt>
      <trkpt lat="42.731700" lon="-2.840310">
        <ele>609.138</ele>
        <time>2011-02-12T11:35:06Z</time>
      </trkpt>
      <trkpt lat="42.731670" lon="-2.840370">
        <ele>609.131</ele>
        <time>2011-02-12T11:35:11Z</time>
      </trkpt>
      <trkpt lat="42.731640" lon="-2.840430">
        <ele>609.194</ele>
        <time>2011-02-12T11:35:16Z</time>
      </trkpt>
      <trkpt lat="42.731600" lon="-2.840500">
        <ele>609.185</ele>
        <time>2011-02-12T11:35:21Z</time>
      </trkpt>
      <trkpt lat="42.731570" lon="-2.840570">
        <ele>609.117</ele>
        <time>2011-02-12T11:35:26Z</time>
      </trkpt>
      <trkpt lat="42.731530" lon="-2.840640">
        <ele>609.153</ele>
        <time>2011-02-12T11:35:31Z</time>
      </trkpt>
      <trkpt lat="42.731490" lon="-2.840710">
        <ele>609.104</ele>
        <time>2011-02-12T11:35:36Z</time>
      </trkpt>
      <trkpt lat="42.731450" lon="-2.840780">
        <ele>609.614</ele>
        <time>2011-02-12T11:35:41Z</time>
      </trkpt>
      <trkpt lat="42.731420" lon="-2.840840">
        <ele>610.107</ele>
        <time>2011-02-12T11:35:46Z</time>
      </trkpt>
      <trkpt lat="42.731380" lon="-2.840910">
        <ele>610.677</ele>
        <time>2011-02-12T11:35:51Z</time>
      </trkpt>
      <trkpt lat="42.731340" lon="-2.840970">
        <ele>610.658</ele>
        <time>2011-02-12T11:35:56Z</time>
      </trkpt>
      <trkpt lat="42.731300" lon="-2.841040">
        <ele>610.127</ele>
        <time>2011-02-12T11:36:01Z</time>
      </trkpt>
      <trkpt lat="42.731270" lon="-2.841090">
        <ele>611.160</ele>
        <time>2011-02-12T11:36:06Z</time>
      </trkpt>
      <trkpt lat="42.731250" lon="-2.841160">
        <ele>610.623</ele>
        <time>2011-02-12T11:36:11Z</time>
      </trkpt>
      <trkpt lat="42.731220" lon="-2.841240">
        <ele>611.654</ele>
        <time>2011-02-12T11:36:16Z</time>
      </trkpt>
      <trkpt lat="42.731210" lon="-2.841320">
        <ele>611.196</ele>
        <time>2011-02-12T11:36:21Z</time>
      </trkpt>
      <trkpt lat="42.731190" lon="-2.841390">
        <ele>611.644</ele>
        <time>2011-02-12T11:36:26Z</time>
      </trkpt>
      <trkpt lat="42.731180" lon="-2.841470">
        <ele>612.005</ele>
        <time>2011-02-12T11:36:31Z</time>
      </trkpt>
      <trkpt lat="42.731170" lon="-2.841540">
        <ele>612.015</ele>
        <time>2011-02-12T11:36:36Z</time>
      </trkpt>
      <trkpt lat="42.731160" lon="-2.841620">
        <ele>612.507</ele>
        <time>2011-02-12T11:36:41Z</time>
      </trkpt>
      <trkpt lat="42.731130" lon="-2.841690">
        <ele>613.596</ele>
        <time>2011-02-12T11:36:46Z</time>
      </trkpt>
      <trkpt lat="42.731110" lon="-2.841750">
        <ele>614.447</ele>
        <time>2011-02-12T11:36:51Z</time>
      </trkpt>
      <trkpt lat="42.731080" lon="-2.841820">
        <ele>614.486</ele>
        <time>2011-02-12T11:36:56Z</time>
      </trkpt>
      <trkpt lat="42.731060" lon="-2.841880">
        <ele>615.439</ele>
        <time>2011-02-12T11:37:01Z</time>
      </trkpt>
      <trkpt lat="42.731040" lon="-2.841940">
        <ele>615.852</ele>
        <time>2011-02-12T11:37:06Z</time>
      </trkpt>
      <trkpt lat="42.731010" lon="-2.842010">
        <ele>616.833</ele>
        <time>2011-02-12T11:37:11Z</time>
      </trkpt>
      <trkpt lat="42.730980" lon="-2.842080">
        <ele>617.375</ele>
        <time>2011-02-12T11:37:16Z</time>
      </trkpt>
      <trkpt lat="42.730960" lon="-2.842140">
        <ele>617.332</ele>
        <time>2011-02-12T11:37:21Z</time>
      </trkpt>
      <trkpt lat="42.730930" lon="-2.842210">
        <ele>617.892</ele>
        <time>2011-02-12T11:37:26Z</time>
      </trkpt>
      <trkpt lat="42.730900" lon="-2.842270">
        <ele>618.311</ele>
        <time>2011-02-12T11:37:31Z</time>
      </trkpt>
      <trkpt lat="42.730870" lon="-2.842340">
        <ele>619.707</ele>
        <time>2011-02-12T11:37:36Z</time>
      </trkpt>
      <trkpt lat="42.730840" lon="-2.842400">
        <ele>619.715</ele>
        <time>2011-02-12T11:37:41Z</time>
      </trkpt>
      <trkpt lat="42.730810" lon="-2.842460">
        <ele>621.296</ele>
        <time>2011-02-12T11:37:46Z</time>
      </trkpt>
      <trkpt lat="42.730800" lon="-2.842470">
        <ele>621.685</ele>
        <time>2011-02-12T11:37:51Z</time>
      </trkpt>
      <trkpt lat="42.730760" lon="-2.842520">
        <ele>621.678</ele>
        <time>2011-02-12T11:37:56Z</time>
      </trkpt>
      <trkpt lat="42.730730" lon="-2.842580">
        <ele>622.611</ele>
        <time>2011-02-12T11:38:01Z</time>
      </trkpt>
      <trkpt lat="42.730690" lon="-2.842630">
        <ele>623.112</ele>
        <time>2011-02-12T11:38:06Z</time>
      </trkpt>
      <trkpt lat="42.730640" lon="-2.842680">
        <ele>624.074</ele>
        <time>2011-02-12T11:38:11Z</time>
      </trkpt>
      <trkpt lat="42.730590" lon="-2.842730">
        <ele>624.565</ele>
        <time>2011-02-12T11:38:16Z</time>
      </trkpt>
      <trkpt lat="42.730530" lon="-2.842760">
        <ele>624.068</ele>
        <time>2011-02-12T11:38:21Z</time>
      </trkpt>
      <trkpt lat="42.730470" lon="-2.842790">
        <ele>624.514</ele>
        <time>2011-02-12T11:38:26Z</time>
      </trkpt>
      <trkpt lat="42.730410" lon="-2.842830">
        <ele>625.507</ele>
        <time>2011-02-12T11:38:31Z</time>
      </trkpt>
      <trkpt lat="42.730360" lon="-2.842870">
        <ele>625.538</ele>
        <time>2011-02-12T11:38:36Z</time>
      </trkpt>
      <trkpt lat="42.730320" lon="-2.842920">
        <ele>626.919</ele>
        <time>2011-02-12T11:38:41Z</time>
      </trkpt>
      <trkpt lat="42.730280" lon="-2.842940">
        <ele>626.988</ele>
        <time>2011-02-12T11:38:46Z</time>
      </trkpt>
      <trkpt lat="42.730270" lon="-2.842930">
        <ele>626.991</ele>
        <time>2011-02-12T11:38:51Z</time>
      </trkpt>
      <trkpt lat="42.730280" lon="-2.842920">
        <ele>626.954</ele>
        <time>2011-02-12T11:38:56Z</time>
      </trkpt>
      <trkpt lat="42.730280" lon="-2.842920">
        <ele>627.455</ele>
        <time>2011-02-12T11:39:01Z</time>
      </trkpt>
      <trkpt lat="42.730280" lon="-2.842920">
        <ele>626.967</ele>
        <time>2011-02-12T11:39:06Z</time>
      </trkpt>
      <trkpt lat="42.730300" lon="-2.842910">
        <ele>627.474</ele>
        <time>2011-02-12T11:39:11Z</time>
      </trkpt>
      <trkpt lat="42.730300" lon="-2.842900">
        <ele>627.456</ele>
        <time>2011-02-12T11:39:16Z</time>
      </trkpt>
      <trkpt lat="42.730290" lon="-2.842900">
        <ele>627.921</ele>
        <time>2011-02-12T11:39:21Z</time>
      </trkpt>
      <trkpt lat="42.730280" lon="-2.842880">
        <ele>627.907</ele>
        <time>2011-02-12T11:39:26Z</time>
      </trkpt>
      <trkpt lat="42.730280" lon="-2.842880">
        <ele>627.989</ele>
        <time>2011-02-12T11:39:31Z</time>
      </trkpt>
      <trkpt lat="42.730280" lon="-2.842860">
        <ele>628.350</ele>
        <time>2011-02-12T11:39:36Z</time>
      </trkpt>
      <trkpt lat="42.730270" lon="-2.842840">
        <ele>628.849</ele>
        <time>2011-02-12T11:39:41Z</time>
      </trkpt>
      <trkpt lat="42.730260" lon="-2.842800">
        <ele>628.382</ele>
        <time>2011-02-12T11:39:46Z</time>
      </trkpt>
      <trkpt lat="42.730240" lon="-2.842760">
        <ele>628.835</ele>
        <time>2011-02-12T11:39:51Z</time>
      </trkpt>
      <trkpt lat="42.730230" lon="-2.842730">
        <ele>628.846</ele>
        <time>2011-02-12T11:39:56Z</time>
      </trkpt>
      <trkpt lat="42.730210" lon="-2.842710">
        <ele>629.358</ele>
        <time>2011-02-12T11:40:01Z</time>
      </trkpt>
      <trkpt lat="42.730190" lon="-2.842670">
        <ele>628.812</ele>
        <time>2011-02-12T11:40:06Z</time>
      </trkpt>
      <trkpt lat="42.730150" lon="-2.842620">
        <ele>630.332</ele>
        <time>2011-02-12T11:40:11Z</time>
      </trkpt>
      <trkpt lat="42.730110" lon="-2.842570">
        <ele>630.805</ele>
        <time>2011-02-12T11:40:16Z</time>
      </trkpt>
      <trkpt lat="42.730060" lon="-2.842510">
        <ele>631.207</ele>
        <time>2011-02-12T11:40:21Z</time>
      </trkpt>
      <trkpt lat="42.730020" lon="-2.842450">
        <ele>631.753</ele>
        <time>2011-02-12T11:40:26Z</time>
      </trkpt>
      <trkpt lat="42.729990" lon="-2.842400">
        <ele>633.254</ele>
        <time>2011-02-12T11:40:31Z</time>
      </trkpt>
      <trkpt lat="42.729930" lon="-2.842320">
        <ele>634.173</ele>
        <time>2011-02-12T11:40:41Z</time>
      </trkpt>
      <trkpt lat="42.729940" lon="-2.842320">
        <ele>634.156</ele>
        <time>2011-02-12T11:40:46Z</time>
      </trkpt>
      <trkpt lat="42.729940" lon="-2.842300">
        <ele>634.669</ele>
        <time>2011-02-12T11:40:51Z</time>
      </trkpt>
      <trkpt lat="42.729940" lon="-2.842280">
        <ele>634.140</ele>
        <time>2011-02-12T11:40:56Z</time>
      </trkpt>
      <trkpt lat="42.729940" lon="-2.842270">
        <ele>633.612</ele>
        <time>2011-02-12T11:41:01Z</time>
      </trkpt>
      <trkpt lat="42.729940" lon="-2.842270">
        <ele>634.144</ele>
        <time>2011-02-12T11:41:06Z</time>
      </trkpt>
      <trkpt lat="42.729930" lon="-2.842270">
        <ele>633.605</ele>
        <time>2011-02-12T11:41:10Z</time>
      </trkpt>
      <trkpt lat="42.729900" lon="-2.842240">
        <ele>633.615</ele>
        <time>2011-02-12T11:41:16Z</time>
      </trkpt>
      <trkpt lat="42.729860" lon="-2.842200">
        <ele>634.607</ele>
        <time>2011-02-12T11:41:21Z</time>
      </trkpt>
      <trkpt lat="42.729830" lon="-2.842150">
        <ele>635.656</ele>
        <time>2011-02-12T11:41:26Z</time>
      </trkpt>
      <trkpt lat="42.729810" lon="-2.842100">
        <ele>636.117</ele>
        <time>2011-02-12T11:41:31Z</time>
      </trkpt>
      <trkpt lat="42.729780" lon="-2.842040">
        <ele>636.576</ele>
        <time>2011-02-12T11:41:36Z</time>
      </trkpt>
      <trkpt lat="42.729750" lon="-2.841980">
        <ele>636.539</ele>
        <time>2011-02-12T11:41:41Z</time>
      </trkpt>
      <trkpt lat="42.729720" lon="-2.841920">
        <ele>637.082</ele>
        <time>2011-02-12T11:41:46Z</time>
      </trkpt>
      <trkpt lat="42.729690" lon="-2.841870">
        <ele>638.013</ele>
        <time>2011-02-12T11:41:51Z</time>
      </trkpt>
      <trkpt lat="42.729590" lon="-2.841780">
        <ele>638.955</ele>
        <time>2011-02-12T11:42:01Z</time>
      </trkpt>
      <trkpt lat="42.729540" lon="-2.841760">
        <ele>639.923</ele>
        <time>2011-02-12T11:42:06Z</time>
      </trkpt>
      <trkpt lat="42.729510" lon="-2.841720">
        <ele>640.883</ele>
        <time>2011-02-12T11:42:11Z</time>
      </trkpt>
      <trkpt lat="42.729480" lon="-2.841660">
        <ele>640.411</ele>
        <time>2011-02-12T11:42:16Z</time>
      </trkpt>
      <trkpt lat="42.729460" lon="-2.841590">
        <ele>640.407</ele>
        <time>2011-02-12T11:42:21Z</time>
      </trkpt>
      <trkpt lat="42.729440" lon="-2.841510">
        <ele>640.414</ele>
        <time>2011-02-12T11:42:26Z</time>
      </trkpt>
      <trkpt lat="42.729420" lon="-2.841440">
        <ele>640.895</ele>
        <time>2011-02-12T11:42:31Z</time>
      </trkpt>
      <trkpt lat="42.729390" lon="-2.841390">
        <ele>640.464</ele>
        <time>2011-02-12T11:42:36Z</time>
      </trkpt>
      <trkpt lat="42.729360" lon="-2.841360">
        <ele>640.877</ele>
        <time>2011-02-12T11:42:41Z</time>
      </trkpt>
      <trkpt lat="42.729320" lon="-2.841330">
        <ele>641.310</ele>
        <time>2011-02-12T11:42:46Z</time>
      </trkpt>
      <trkpt lat="42.729280" lon="-2.841270">
        <ele>641.311</ele>
        <time>2011-02-12T11:42:51Z</time>
      </trkpt>
      <trkpt lat="42.729240" lon="-2.841220">
        <ele>640.483</ele>
        <time>2011-02-12T11:42:56Z</time>
      </trkpt>
      <trkpt lat="42.729190" lon="-2.841170">
        <ele>640.435</ele>
        <time>2011-02-12T11:43:01Z</time>
      </trkpt>
      <trkpt lat="42.729140" lon="-2.841120">
        <ele>640.486</ele>
        <time>2011-02-12T11:43:06Z</time>
      </trkpt>
      <trkpt lat="42.729110" lon="-2.841070">
        <ele>640.814</ele>
        <time>2011-02-12T11:43:11Z</time>
      </trkpt>
      <trkpt lat="42.729060" lon="-2.841060">
        <ele>641.807</ele>
        <time>2011-02-12T11:43:16Z</time>
      </trkpt>
      <trkpt lat="42.729000" lon="-2.841050">
        <ele>642.375</ele>
        <time>2011-02-12T11:43:21Z</time>
      </trkpt>
      <trkpt lat="42.728940" lon="-2.841040">
        <ele>642.326</ele>
        <time>2011-02-12T11:43:26Z</time>
      </trkpt>
      <trkpt lat="42.728870" lon="-2.841030">
        <ele>642.375</ele>
        <time>2011-02-12T11:43:31Z</time>
      </trkpt>
      <trkpt lat="42.728810" lon="-2.841020">
        <ele>641.848</ele>
        <time>2011-02-12T11:43:36Z</time>
      </trkpt>
      <trkpt lat="42.728740" lon="-2.841020">
        <ele>640.451</ele>
        <time>2011-02-12T11:43:41Z</time>
      </trkpt>
      <trkpt lat="42.728690" lon="-2.840990">
        <ele>640.892</ele>
        <time>2011-02-12T11:43:46Z</time>
      </trkpt>
      <trkpt lat="42.728640" lon="-2.840940">
        <ele>641.394</ele>
        <time>2011-02-12T11:43:51Z</time>
      </trkpt>
      <trkpt lat="42.728600" lon="-2.840890">
        <ele>641.376</ele>
        <time>2011-02-12T11:43:56Z</time>
      </trkpt>
      <trkpt lat="42.728550" lon="-2.840870">
        <ele>641.890</ele>
        <time>2011-02-12T11:44:01Z</time>
      </trkpt>
      <trkpt lat="42.728520" lon="-2.840810">
        <ele>642.319</ele>
        <time>2011-02-12T11:44:06Z</time>
      </trkpt>
      <trkpt lat="42.728500" lon="-2.840750">
        <ele>644.207</ele>
        <time>2011-02-12T11:44:11Z</time>
      </trkpt>
      <trkpt lat="42.728490" lon="-2.840680">
        <ele>645.229</ele>
        <time>2011-02-12T11:44:16Z</time>
      </trkpt>
      <trkpt lat="42.728490" lon="-2.840630">
        <ele>646.140</ele>
        <time>2011-02-12T11:44:21Z</time>
      </trkpt>
      <trkpt lat="42.728480" lon="-2.840620">
        <ele>646.129</ele>
        <time>2011-02-12T11:44:26Z</time>
      </trkpt>
      <trkpt lat="42.728450" lon="-2.840600">
        <ele>647.142</ele>
        <time>2011-02-12T11:44:31Z</time>
      </trkpt>
      <trkpt lat="42.728410" lon="-2.840570">
        <ele>647.135</ele>
        <time>2011-02-12T11:44:36Z</time>
      </trkpt>
      <trkpt lat="42.728360" lon="-2.840550">
        <ele>647.646</ele>
        <time>2011-02-12T11:44:41Z</time>
      </trkpt>
      <trkpt lat="42.728310" lon="-2.840530">
        <ele>648.638</ele>
        <time>2011-02-12T11:44:46Z</time>
      </trkpt>
      <trkpt lat="42.728270" lon="-2.840500">
        <ele>649.524</ele>
        <time>2011-02-12T11:44:51Z</time>
      </trkpt>
      <trkpt lat="42.728230" lon="-2.840480">
        <ele>650.504</ele>
        <time>2011-02-12T11:44:56Z</time>
      </trkpt>
      <trkpt lat="42.728190" lon="-2.840450">
        <ele>651.014</ele>
        <time>2011-02-12T11:45:01Z</time>
      </trkpt>
      <trkpt lat="42.728150" lon="-2.840420">
        <ele>651.007</ele>
        <time>2011-02-12T11:45:06Z</time>
      </trkpt>
      <trkpt lat="42.728120" lon="-2.840370">
        <ele>651.044</ele>
        <time>2011-02-12T11:45:11Z</time>
      </trkpt>
      <trkpt lat="42.728080" lon="-2.840320">
        <ele>652.465</ele>
        <time>2011-02-12T11:45:16Z</time>
      </trkpt>
      <trkpt lat="42.728050" lon="-2.840270">
        <ele>652.954</ele>
        <time>2011-02-12T11:45:21Z</time>
      </trkpt>
      <trkpt lat="42.728020" lon="-2.840220">
        <ele>654.317</ele>
        <time>2011-02-12T11:45:26Z</time>
      </trkpt>
      <trkpt lat="42.727990" lon="-2.840160">
        <ele>654.360</ele>
        <time>2011-02-12T11:45:31Z</time>
      </trkpt>
      <trkpt lat="42.727970" lon="-2.840110">
        <ele>655.311</ele>
        <time>2011-02-12T11:45:36Z</time>
      </trkpt>
      <trkpt lat="42.727950" lon="-2.840060">
        <ele>656.243</ele>
        <time>2011-02-12T11:45:41Z</time>
      </trkpt>
      <trkpt lat="42.727930" lon="-2.839990">
        <ele>656.296</ele>
        <time>2011-02-12T11:45:46Z</time>
      </trkpt>
      <trkpt lat="42.727910" lon="-2.839930">
        <ele>656.731</ele>
        <time>2011-02-12T11:45:51Z</time>
      </trkpt>
      <trkpt lat="42.727900" lon="-2.839860">
        <ele>658.224</ele>
        <time>2011-02-12T11:45:56Z</time>
      </trkpt>
      <trkpt lat="42.727880" lon="-2.839790">
        <ele>658.607</ele>
        <time>2011-02-12T11:46:01Z</time>
      </trkpt>
      <trkpt lat="42.727850" lon="-2.839740">
        <ele>659.671</ele>
        <time>2011-02-12T11:46:06Z</time>
      </trkpt>
      <trkpt lat="42.727840" lon="-2.839740">
        <ele>659.632</ele>
        <time>2011-02-12T11:46:11Z</time>
      </trkpt>
      <trkpt lat="42.727830" lon="-2.839730">
        <ele>659.621</ele>
        <time>2011-02-12T11:46:16Z</time>
      </trkpt>
      <trkpt lat="42.727820" lon="-2.839670">
        <ele>660.194</ele>
        <time>2011-02-12T11:46:21Z</time>
      </trkpt>
      <trkpt lat="42.727800" lon="-2.839610">
        <ele>661.167</ele>
        <time>2011-02-12T11:46:26Z</time>
      </trkpt>
      <trkpt lat="42.727780" lon="-2.839540">
        <ele>662.088</ele>
        <time>2011-02-12T11:46:31Z</time>
      </trkpt>
      <trkpt lat="42.727760" lon="-2.839480">
        <ele>662.510</ele>
        <time>2011-02-12T11:46:36Z</time>
      </trkpt>
      <trkpt lat="42.727750" lon="-2.839430">
        <ele>663.037</ele>
        <time>2011-02-12T11:46:41Z</time>
      </trkpt>
      <trkpt lat="42.727730" lon="-2.839380">
        <ele>663.949</ele>
        <time>2011-02-12T11:46:46Z</time>
      </trkpt>
      <trkpt lat="42.727710" lon="-2.839300">
        <ele>664.913</ele>
        <time>2011-02-12T11:46:51Z</time>
      </trkpt>
      <trkpt lat="42.727700" lon="-2.839220">
        <ele>665.807</ele>
        <time>2011-02-12T11:46:56Z</time>
      </trkpt>
      <trkpt lat="42.727680" lon="-2.839150">
        <ele>665.415</ele>
        <time>2011-02-12T11:47:01Z</time>
      </trkpt>
      <trkpt lat="42.727670" lon="-2.839080">
        <ele>665.846</ele>
        <time>2011-02-12T11:47:06Z</time>
      </trkpt>
      <trkpt lat="42.727660" lon="-2.839000">
        <ele>666.385</ele>
        <time>2011-02-12T11:47:11Z</time>
      </trkpt>
      <trkpt lat="42.727650" lon="-2.838920">
        <ele>666.878</ele>
        <time>2011-02-12T11:47:16Z</time>
      </trkpt>
      <trkpt lat="42.727640" lon="-2.838840">
        <ele>666.861</ele>
        <time>2011-02-12T11:47:21Z</time>
      </trkpt>
      <trkpt lat="42.727620" lon="-2.838760">
        <ele>667.352</ele>
        <time>2011-02-12T11:47:26Z</time>
      </trkpt>
      <trkpt lat="42.727610" lon="-2.838670">
        <ele>667.364</ele>
        <time>2011-02-12T11:47:31Z</time>
      </trkpt>
      <trkpt lat="42.727600" lon="-2.838590">
        <ele>668.711</ele>
        <time>2011-02-12T11:47:36Z</time>
      </trkpt>
      <trkpt lat="42.727590" lon="-2.838520">
        <ele>669.721</ele>
        <time>2011-02-12T11:47:41Z</time>
      </trkpt>
      <trkpt lat="42.727580" lon="-2.838450">
        <ele>670.203</ele>
        <time>2011-02-12T11:47:46Z</time>
      </trkpt>
      <trkpt lat="42.727570" lon="-2.838370">
        <ele>670.207</ele>
        <time>2011-02-12T11:47:51Z</time>
      </trkpt>
      <trkpt lat="42.727560" lon="-2.838290">
        <ele>670.783</ele>
        <time>2011-02-12T11:47:56Z</time>
      </trkpt>
      <trkpt lat="42.727550" lon="-2.838220">
        <ele>671.174</ele>
        <time>2011-02-12T11:48:01Z</time>
      </trkpt>
      <trkpt lat="42.727550" lon="-2.838140">
        <ele>672.113</ele>
        <time>2011-02-12T11:48:06Z</time>
      </trkpt>
      <trkpt lat="42.727560" lon="-2.838060">
        <ele>673.146</ele>
        <time>2011-02-12T11:48:11Z</time>
      </trkpt>
      <trkpt lat="42.727570" lon="-2.837990">
        <ele>673.529</ele>
        <time>2011-02-12T11:48:16Z</time>
      </trkpt>
      <trkpt lat="42.727570" lon="-2.837920">
        <ele>675.530</ele>
        <time>2011-02-12T11:48:21Z</time>
      </trkpt>
      <trkpt lat="42.727570" lon="-2.837840">
        <ele>676.042</ele>
        <time>2011-02-12T11:48:26Z</time>
      </trkpt>
      <trkpt lat="42.727570" lon="-2.837770">
        <ele>676.044</ele>
        <time>2011-02-12T11:48:31Z</time>
      </trkpt>
      <trkpt lat="42.727570" lon="-2.837700">
        <ele>676.905</ele>
        <time>2011-02-12T11:48:36Z</time>
      </trkpt>
      <trkpt lat="42.727540" lon="-2.837630">
        <ele>677.415</ele>
        <time>2011-02-12T11:48:41Z</time>
      </trkpt>
      <trkpt lat="42.727510" lon="-2.837560">
        <ele>678.307</ele>
        <time>2011-02-12T11:48:46Z</time>
      </trkpt>
      <trkpt lat="42.727500" lon="-2.837490">
        <ele>679.856</ele>
        <time>2011-02-12T11:48:51Z</time>
      </trkpt>
      <trkpt lat="42.727470" lon="-2.837420">
        <ele>679.887</ele>
        <time>2011-02-12T11:48:56Z</time>
      </trkpt>
      <trkpt lat="42.727440" lon="-2.837350">
        <ele>680.766</ele>
        <time>2011-02-12T11:49:01Z</time>
      </trkpt>
      <trkpt lat="42.727410" lon="-2.837290">
        <ele>681.259</ele>
        <time>2011-02-12T11:49:06Z</time>
      </trkpt>
      <trkpt lat="42.727380" lon="-2.837220">
        <ele>682.242</ele>
        <time>2011-02-12T11:49:11Z</time>
      </trkpt>
      <trkpt lat="42.727350" lon="-2.837160">
        <ele>682.763</ele>
        <time>2011-02-12T11:49:16Z</time>
      </trkpt>
      <trkpt lat="42.727320" lon="-2.837090">
        <ele>683.135</ele>
        <time>2011-02-12T11:49:21Z</time>
      </trkpt>
      <trkpt lat="42.727290" lon="-2.837020">
        <ele>683.683</ele>
        <time>2011-02-12T11:49:26Z</time>
      </trkpt>
      <trkpt lat="42.727250" lon="-2.836950">
        <ele>684.125</ele>
        <time>2011-02-12T11:49:31Z</time>
      </trkpt>
      <trkpt lat="42.727230" lon="-2.836880">
        <ele>684.617</ele>
        <time>2011-02-12T11:49:36Z</time>
      </trkpt>
      <trkpt lat="42.727210" lon="-2.836800">
        <ele>685.107</ele>
        <time>2011-02-12T11:49:41Z</time>
      </trkpt>
      <trkpt lat="42.727180" lon="-2.836740">
        <ele>685.190</ele>
        <time>2011-02-12T11:49:46Z</time>
      </trkpt>
      <trkpt lat="42.727160" lon="-2.836670">
        <ele>685.611</ele>
        <time>2011-02-12T11:49:51Z</time>
      </trkpt>
      <trkpt lat="42.727140" lon="-2.836600">
        <ele>685.680</ele>
        <time>2011-02-12T11:49:56Z</time>
      </trkpt>
      <trkpt lat="42.727120" lon="-2.836530">
        <ele>686.013</ele>
        <time>2011-02-12T11:50:01Z</time>
      </trkpt>
      <trkpt lat="42.727100" lon="-2.836460">
        <ele>686.536</ele>
        <time>2011-02-12T11:50:06Z</time>
      </trkpt>
      <trkpt lat="42.727070" lon="-2.836400">
        <ele>687.027</ele>
        <time>2011-02-12T11:50:11Z</time>
      </trkpt>
      <trkpt lat="42.727050" lon="-2.836320">
        <ele>687.589</ele>
        <time>2011-02-12T11:50:16Z</time>
      </trkpt>
      <trkpt lat="42.727030" lon="-2.836240">
        <ele>688.535</ele>
        <time>2011-02-12T11:50:21Z</time>
      </trkpt>
      <trkpt lat="42.727000" lon="-2.836180">
        <ele>688.986</ele>
        <time>2011-02-12T11:50:26Z</time>
      </trkpt>
      <trkpt lat="42.726970" lon="-2.836120">
        <ele>689.914</ele>
        <time>2011-02-12T11:50:31Z</time>
      </trkpt>
      <trkpt lat="42.726940" lon="-2.836040">
        <ele>689.907</ele>
        <time>2011-02-12T11:50:36Z</time>
      </trkpt>
      <trkpt lat="42.726910" lon="-2.835970">
        <ele>689.955</ele>
        <time>2011-02-12T11:50:41Z</time>
      </trkpt>
      <trkpt lat="42.726890" lon="-2.835890">
        <ele>690.916</ele>
        <time>2011-02-12T11:50:46Z</time>
      </trkpt>
      <trkpt lat="42.726870" lon="-2.835820">
        <ele>690.955</ele>
        <time>2011-02-12T11:50:51Z</time>
      </trkpt>
      <trkpt lat="42.726840" lon="-2.835740">
        <ele>691.388</ele>
        <time>2011-02-12T11:50:56Z</time>
      </trkpt>
      <trkpt lat="42.726800" lon="-2.835660">
        <ele>691.321</ele>
        <time>2011-02-12T11:51:01Z</time>
      </trkpt>
      <trkpt lat="42.726770" lon="-2.835600">
        <ele>691.312</ele>
        <time>2011-02-12T11:51:06Z</time>
      </trkpt>
      <trkpt lat="42.726740" lon="-2.835530">
        <ele>692.314</ele>
        <time>2011-02-12T11:51:11Z</time>
      </trkpt>
      <trkpt lat="42.726710" lon="-2.835460">
        <ele>692.881</ele>
        <time>2011-02-12T11:51:16Z</time>
      </trkpt>
      <trkpt lat="42.726670" lon="-2.835390">
        <ele>692.861</ele>
        <time>2011-02-12T11:51:21Z</time>
      </trkpt>
      <trkpt lat="42.726630" lon="-2.835320">
        <ele>693.217</ele>
        <time>2011-02-12T11:51:26Z</time>
      </trkpt>
      <trkpt lat="42.726590" lon="-2.835260">
        <ele>694.207</ele>
        <time>2011-02-12T11:51:31Z</time>
      </trkpt>
      <trkpt lat="42.726560" lon="-2.835200">
        <ele>695.210</ele>
        <time>2011-02-12T11:51:36Z</time>
      </trkpt>
      <trkpt lat="42.726530" lon="-2.835140">
        <ele>696.151</ele>
        <time>2011-02-12T11:51:41Z</time>
      </trkpt>
      <trkpt lat="42.726500" lon="-2.835080">
        <ele>696.650</ele>
        <time>2011-02-12T11:51:46Z</time>
      </trkpt>
      <trkpt lat="42.726470" lon="-2.835020">
        <ele>696.683</ele>
        <time>2011-02-12T11:51:51Z</time>
      </trkpt>
      <trkpt lat="42.726430" lon="-2.834950">
        <ele>697.156</ele>
        <time>2011-02-12T11:51:56Z</time>
      </trkpt>
      <trkpt lat="42.726400" lon="-2.834890">
        <ele>697.677</ele>
        <time>2011-02-12T11:52:01Z</time>
      </trkpt>
      <trkpt lat="42.726370" lon="-2.834820">
        <ele>698.149</ele>
        <time>2011-02-12T11:52:06Z</time>
      </trkpt>
      <trkpt lat="42.726340" lon="-2.834750">
        <ele>699.597</ele>
        <time>2011-02-12T11:52:11Z</time>
      </trkpt>
      <trkpt lat="42.726310" lon="-2.834690">
        <ele>699.023</ele>
        <time>2011-02-12T11:52:16Z</time>
      </trkpt>
      <trkpt lat="42.726280" lon="-2.834620">
        <ele>700.025</ele>
        <time>2011-02-12T11:52:21Z</time>
      </trkpt>
      <trkpt lat="42.726260" lon="-2.834550">
        <ele>701.407</ele>
        <time>2011-02-12T11:52:26Z</time>
      </trkpt>
      <trkpt lat="42.726220" lon="-2.834490">
        <ele>700.941</ele>
        <time>2011-02-12T11:52:31Z</time>
      </trkpt>
      <trkpt lat="42.726190" lon="-2.834420">
        <ele>701.992</ele>
        <time>2011-02-12T11:52:36Z</time>
      </trkpt>
      <trkpt lat="42.726160" lon="-2.834350">
        <ele>702.481</ele>
        <time>2011-02-12T11:52:41Z</time>
      </trkpt>
      <trkpt lat="42.726130" lon="-2.834280">
        <ele>702.484</ele>
        <time>2011-02-12T11:52:46Z</time>
      </trkpt>
      <trkpt lat="42.726100" lon="-2.834210">
        <ele>703.487</ele>
        <time>2011-02-12T11:52:51Z</time>
      </trkpt>
      <trkpt lat="42.726060" lon="-2.834140">
        <ele>703.878</ele>
        <time>2011-02-12T11:52:56Z</time>
      </trkpt>
      <trkpt lat="42.726030" lon="-2.834070">
        <ele>703.820</ele>
        <time>2011-02-12T11:53:01Z</time>
      </trkpt>
      <trkpt lat="42.725990" lon="-2.834010">
        <ele>704.381</ele>
        <time>2011-02-12T11:53:06Z</time>
      </trkpt>
      <trkpt lat="42.725950" lon="-2.833950">
        <ele>705.361</ele>
        <time>2011-02-12T11:53:11Z</time>
      </trkpt>
      <trkpt lat="42.725920" lon="-2.833880">
        <ele>705.717</ele>
        <time>2011-02-12T11:53:16Z</time>
      </trkpt>
      <trkpt lat="42.725890" lon="-2.833820">
        <ele>706.707</ele>
        <time>2011-02-12T11:53:21Z</time>
      </trkpt>
      <trkpt lat="42.725850" lon="-2.833750">
        <ele>707.750</ele>
        <time>2011-02-12T11:53:26Z</time>
      </trkpt>
      <trkpt lat="42.725820" lon="-2.833690">
        <ele>708.691</ele>
        <time>2011-02-12T11:53:31Z</time>
      </trkpt>
      <trkpt lat="42.725780" lon="-2.833640">
        <ele>709.170</ele>
        <time>2011-02-12T11:53:36Z</time>
      </trkpt>
      <trkpt lat="42.725750" lon="-2.833590">
        <ele>710.163</ele>
        <time>2011-02-12T11:53:41Z</time>
      </trkpt>
      <trkpt lat="42.725700" lon="-2.833540">
        <ele>710.546</ele>
        <time>2011-02-12T11:53:46Z</time>
      </trkpt>
      <trkpt lat="42.725660" lon="-2.833470">
        <ele>710.117</ele>
        <time>2011-02-12T11:53:51Z</time>
      </trkpt>
      <trkpt lat="42.725620" lon="-2.833400">
        <ele>710.579</ele>
        <time>2011-02-12T11:53:56Z</time>
      </trkpt>
      <trkpt lat="42.725590" lon="-2.833320">
        <ele>711.568</ele>
        <time>2011-02-12T11:54:01Z</time>
      </trkpt>
      <trkpt lat="42.725570" lon="-2.833250">
        <ele>712.042</ele>
        <time>2011-02-12T11:54:06Z</time>
      </trkpt>
      <trkpt lat="42.725560" lon="-2.833170">
        <ele>712.026</ele>
        <time>2011-02-12T11:54:11Z</time>
      </trkpt>
      <trkpt lat="42.725540" lon="-2.833090">
        <ele>712.007</ele>
        <time>2011-02-12T11:54:16Z</time>
      </trkpt>
      <trkpt lat="42.725530" lon="-2.833030">
        <ele>712.588</ele>
        <time>2011-02-12T11:54:21Z</time>
      </trkpt>
      <trkpt lat="42.725510" lon="-2.832950">
        <ele>713.019</ele>
        <time>2011-02-12T11:54:26Z</time>
      </trkpt>
      <trkpt lat="42.725480" lon="-2.832880">
        <ele>713.038</ele>
        <time>2011-02-12T11:54:31Z</time>
      </trkpt>
      <trkpt lat="42.725440" lon="-2.832810">
        <ele>713.021</ele>
        <time>2011-02-12T11:54:36Z</time>
      </trkpt>
      <trkpt lat="42.725410" lon="-2.832750">
        <ele>713.934</ele>
        <time>2011-02-12T11:54:41Z</time>
      </trkpt>
      <trkpt lat="42.725380" lon="-2.832690">
        <ele>713.925</ele>
        <time>2011-02-12T11:54:46Z</time>
      </trkpt>
      <trkpt lat="42.725360" lon="-2.832660">
        <ele>714.977</ele>
        <time>2011-02-12T11:54:51Z</time>
      </trkpt>
      <trkpt lat="42.725360" lon="-2.832670">
        <ele>714.957</ele>
        <time>2011-02-12T11:54:56Z</time>
      </trkpt>
      <trkpt lat="42.725370" lon="-2.832650">
        <ele>714.900</ele>
        <time>2011-02-12T11:55:01Z</time>
      </trkpt>
      <trkpt lat="42.725370" lon="-2.832650">
        <ele>714.920</ele>
        <time>2011-02-12T11:55:06Z</time>
      </trkpt>
      <trkpt lat="42.725370" lon="-2.832650">
        <ele>714.907</ele>
        <time>2011-02-12T11:55:11Z</time>
      </trkpt>
      <trkpt lat="42.725370" lon="-2.832660">
        <ele>714.987</ele>
        <time>2011-02-12T11:55:16Z</time>
      </trkpt>
      <trkpt lat="42.725370" lon="-2.832650">
        <ele>715.438</ele>
        <time>2011-02-12T11:55:21Z</time>
      </trkpt>
      <trkpt lat="42.725370" lon="-2.832660">
        <ele>715.487</ele>
        <time>2011-02-12T11:55:26Z</time>
      </trkpt>
      <trkpt lat="42.725360" lon="-2.832660">
        <ele>715.980</ele>
        <time>2011-02-12T11:55:31Z</time>
      </trkpt>
      <trkpt lat="42.725350" lon="-2.832650">
        <ele>715.933</ele>
        <time>2011-02-12T11:55:36Z</time>
      </trkpt>
      <trkpt lat="42.725350" lon="-2.832650">
        <ele>715.984</ele>
        <time>2011-02-12T11:55:41Z</time>
      </trkpt>
      <trkpt lat="42.725330" lon="-2.832620">
        <ele>715.976</ele>
        <time>2011-02-12T11:55:46Z</time>
      </trkpt>
      <trkpt lat="42.725280" lon="-2.832550">
        <ele>716.324</ele>
        <time>2011-02-12T11:55:51Z</time>
      </trkpt>
      <trkpt lat="42.725240" lon="-2.832490">
        <ele>716.804</ele>
        <time>2011-02-12T11:55:56Z</time>
      </trkpt>
      <trkpt lat="42.725200" lon="-2.832430">
        <ele>717.814</ele>
        <time>2011-02-12T11:56:01Z</time>
      </trkpt>
      <trkpt lat="42.725150" lon="-2.832380">
        <ele>717.807</ele>
        <time>2011-02-12T11:56:06Z</time>
      </trkpt>
      <trkpt lat="42.725090" lon="-2.832330">
        <ele>717.834</ele>
        <time>2011-02-12T11:56:11Z</time>
      </trkpt>
      <trkpt lat="42.725030" lon="-2.832280">
        <ele>718.215</ele>
        <time>2011-02-12T11:56:16Z</time>
      </trkpt>
      <trkpt lat="42.724990" lon="-2.832240">
        <ele>718.734</ele>
        <time>2011-02-12T11:56:21Z</time>
      </trkpt>
      <trkpt lat="42.724940" lon="-2.832190">
        <ele>719.237</ele>
        <time>2011-02-12T11:56:26Z</time>
      </trkpt>
      <trkpt lat="42.724890" lon="-2.832140">
        <ele>720.220</ele>
        <time>2011-02-12T11:56:31Z</time>
      </trkpt>
      <trkpt lat="42.724840" lon="-2.832100">
        <ele>721.621</ele>
        <time>2011-02-12T11:56:36Z</time>
      </trkpt>
      <trkpt lat="42.724800" lon="-2.832050">
        <ele>722.613</ele>
        <time>2011-02-12T11:56:41Z</time>
      </trkpt>
      <trkpt lat="42.724750" lon="-2.832020">
        <ele>724.043</ele>
        <time>2011-02-12T11:56:46Z</time>
      </trkpt>
      <trkpt lat="42.724710" lon="-2.832000">
        <ele>725.064</ele>
        <time>2011-02-12T11:56:51Z</time>
      </trkpt>
      <trkpt lat="42.724660" lon="-2.831970">
        <ele>725.510</ele>
        <time>2011-02-12T11:56:56Z</time>
      </trkpt>
      <trkpt lat="42.724600" lon="-2.831930">
        <ele>725.907</ele>
        <time>2011-02-12T11:57:01Z</time>
      </trkpt>
      <trkpt lat="42.724560" lon="-2.831870">
        <ele>727.446</ele>
        <time>2011-02-12T11:57:06Z</time>
      </trkpt>
      <trkpt lat="42.724510" lon="-2.831800">
        <ele>728.817</ele>
        <time>2011-02-12T11:57:11Z</time>
      </trkpt>
      <trkpt lat="42.724450" lon="-2.831750">
        <ele>729.366</ele>
        <time>2011-02-12T11:57:16Z</time>
      </trkpt>
      <trkpt lat="42.724410" lon="-2.831700">
        <ele>730.389</ele>
        <time>2011-02-12T11:57:21Z</time>
      </trkpt>
      <trkpt lat="42.724360" lon="-2.831660">
        <ele>730.762</ele>
        <time>2011-02-12T11:57:26Z</time>
      </trkpt>
      <trkpt lat="42.724320" lon="-2.831630">
        <ele>731.713</ele>
        <time>2011-02-12T11:57:31Z</time>
      </trkpt>
      <trkpt lat="42.724270" lon="-2.831600">
        <ele>733.155</ele>
        <time>2011-02-12T11:57:36Z</time>
      </trkpt>
      <trkpt lat="42.724220" lon="-2.831580">
        <ele>734.627</ele>
        <time>2011-02-12T11:57:41Z</time>
      </trkpt>
      <trkpt lat="42.724170" lon="-2.831560">
        <ele>734.668</ele>
        <time>2011-02-12T11:57:46Z</time>
      </trkpt>
      <trkpt lat="42.724120" lon="-2.831540">
        <ele>736.014</ele>
        <time>2011-02-12T11:57:51Z</time>
      </trkpt>
      <trkpt lat="42.724060" lon="-2.831540">
        <ele>736.507</ele>
        <time>2011-02-12T11:57:56Z</time>
      </trkpt>
      <trkpt lat="42.724010" lon="-2.831530">
        <ele>736.534</ele>
        <time>2011-02-12T11:58:01Z</time>
      </trkpt>
      <trkpt lat="42.723950" lon="-2.831520">
        <ele>739.485</ele>
        <time>2011-02-12T11:58:06Z</time>
      </trkpt>
      <trkpt lat="42.723900" lon="-2.831510">
        <ele>740.414</ele>
        <time>2011-02-12T11:58:11Z</time>
      </trkpt>
      <trkpt lat="42.723850" lon="-2.831500">
        <ele>740.847</ele>
        <time>2011-02-12T11:58:16Z</time>
      </trkpt>
      <trkpt lat="42.723800" lon="-2.831480">
        <ele>741.830</ele>
        <time>2011-02-12T11:58:21Z</time>
      </trkpt>
      <trkpt lat="42.723740" lon="-2.831460">
        <ele>743.241</ele>
        <time>2011-02-12T11:58:26Z</time>
      </trkpt>
      <trkpt lat="42.723680" lon="-2.831450">
        <ele>743.263</ele>
        <time>2011-02-12T11:58:31Z</time>
      </trkpt>
      <trkpt lat="42.723630" lon="-2.831440">
        <ele>743.727</ele>
        <time>2011-02-12T11:58:36Z</time>
      </trkpt>
      <trkpt lat="42.723570" lon="-2.831420">
        <ele>745.168</ele>
        <time>2011-02-12T11:58:41Z</time>
      </trkpt>
      <trkpt lat="42.723520" lon="-2.831410">
        <ele>746.114</ele>
        <time>2011-02-12T11:58:46Z</time>
      </trkpt>
      <trkpt lat="42.723480" lon="-2.831380">
        <ele>747.107</ele>
        <time>2011-02-12T11:58:51Z</time>
      </trkpt>
      <trkpt lat="42.723460" lon="-2.831330">
        <ele>748.054</ele>
        <time>2011-02-12T11:58:56Z</time>
      </trkpt>
      <trkpt lat="42.723441" lon="-2.831281">
        <ele>748.015</ele>
        <time>2011-02-12T11:59:01Z</time>
      </trkpt>
      <trkpt lat="42.723432" lon="-2.831226">
        <ele>748.044</ele>
        <time>2011-02-12T11:59:06Z</time>
      </trkpt>
      <trkpt lat="42.723423" lon="-2.831189">
        <ele>750.017</ele>
        <time>2011-02-12T12:00:26Z</time>
      </trkpt>
      <trkpt lat="42.723400" lon="-2.831180">
        <ele>750.430</ele>
        <time>2011-02-12T12:00:31Z</time>
      </trkpt>
      <trkpt lat="42.723350" lon="-2.831180">
        <ele>750.931</ele>
        <time>2011-02-12T12:00:36Z</time>
      </trkpt>
      <trkpt lat="42.723310" lon="-2.831150">
        <ele>751.443</ele>
        <time>2011-02-12T12:00:41Z</time>
      </trkpt>
      <trkpt lat="42.723270" lon="-2.831100">
        <ele>752.441</ele>
        <time>2011-02-12T12:00:46Z</time>
      </trkpt>
      <trkpt lat="42.723230" lon="-2.831060">
        <ele>753.381</ele>
        <time>2011-02-12T12:00:51Z</time>
      </trkpt>
      <trkpt lat="42.723200" lon="-2.831050">
        <ele>753.309</ele>
        <time>2011-02-12T12:00:56Z</time>
      </trkpt>
      <trkpt lat="42.723170" lon="-2.830990">
        <ele>754.307</ele>
        <time>2011-02-12T12:01:01Z</time>
      </trkpt>
      <trkpt lat="42.723130" lon="-2.830950">
        <ele>755.786</ele>
        <time>2011-02-12T12:01:06Z</time>
      </trkpt>
      <trkpt lat="42.723110" lon="-2.830900">
        <ele>756.217</ele>
        <time>2011-02-12T12:01:11Z</time>
      </trkpt>
      <trkpt lat="42.723100" lon="-2.830880">
        <ele>756.716</ele>
        <time>2011-02-12T12:01:16Z</time>
      </trkpt>
      <trkpt lat="42.723100" lon="-2.830880">
        <ele>756.799</ele>
        <time>2011-02-12T12:01:21Z</time>
      </trkpt>
      <trkpt lat="42.723100" lon="-2.830890">
        <ele>756.262</ele>
        <time>2011-02-12T12:01:26Z</time>
      </trkpt>
      <trkpt lat="42.723100" lon="-2.830880">
        <ele>756.763</ele>
        <time>2011-02-12T12:01:31Z</time>
      </trkpt>
      <trkpt lat="42.723090" lon="-2.830880">
        <ele>756.235</ele>
        <time>2011-02-12T12:01:36Z</time>
      </trkpt>
      <trkpt lat="42.723090" lon="-2.830880">
        <ele>756.781</ele>
        <time>2011-02-12T12:01:41Z</time>
      </trkpt>
      <trkpt lat="42.723100" lon="-2.830870">
        <ele>756.261</ele>
        <time>2011-02-12T12:01:46Z</time>
      </trkpt>
      <trkpt lat="42.723090" lon="-2.830870">
        <ele>756.217</ele>
        <time>2011-02-12T12:01:51Z</time>
      </trkpt>
      <trkpt lat="42.723100" lon="-2.830870">
        <ele>756.207</ele>
        <time>2011-02-12T12:01:56Z</time>
      </trkpt>
      <trkpt lat="42.723100" lon="-2.830870">
        <ele>756.270</ele>
        <time>2011-02-12T12:02:01Z</time>
      </trkpt>
      <trkpt lat="42.723100" lon="-2.830870">
        <ele>756.241</ele>
        <time>2011-02-12T12:02:06Z</time>
      </trkpt>
      <trkpt lat="42.723090" lon="-2.830880">
        <ele>755.730</ele>
        <time>2011-02-12T12:02:11Z</time>
      </trkpt>
      <trkpt lat="42.723070" lon="-2.830920">
        <ele>756.223</ele>
        <time>2011-02-12T12:02:16Z</time>
      </trkpt>
      <trkpt lat="42.723010" lon="-2.830950">
        <ele>757.256</ele>
        <time>2011-02-12T12:02:21Z</time>
      </trkpt>
      <trkpt lat="42.722945" lon="-2.830964">
        <ele>757.257</ele>
        <time>2011-02-12T12:02:26Z</time>
      </trkpt>
      <trkpt lat="42.722910" lon="-2.830980">
        <ele>757.289</ele>
        <time>2011-02-12T12:02:31Z</time>
      </trkpt>
      <trkpt lat="42.722890" lon="-2.830990">
        <ele>757.284</ele>
        <time>2011-02-12T12:02:36Z</time>
      </trkpt>
      <trkpt lat="42.722840" lon="-2.830970">
        <ele>757.207</ele>
        <time>2011-02-12T12:02:41Z</time>
      </trkpt>
      <trkpt lat="42.722790" lon="-2.830950">
        <ele>756.717</ele>
        <time>2011-02-12T12:02:46Z</time>
      </trkpt>
      <trkpt lat="42.722760" lon="-2.830920">
        <ele>757.207</ele>
        <time>2011-02-12T12:02:51Z</time>
      </trkpt>
      <trkpt lat="42.722740" lon="-2.830870">
        <ele>756.270</ele>
        <time>2011-02-12T12:02:56Z</time>
      </trkpt>
      <trkpt lat="42.722750" lon="-2.830870">
        <ele>756.211</ele>
        <time>2011-02-12T12:03:01Z</time>
      </trkpt>
      <trkpt lat="42.722750" lon="-2.830870">
        <ele>756.720</ele>
        <time>2011-02-12T12:03:06Z</time>
      </trkpt>
      <trkpt lat="42.722750" lon="-2.830870">
        <ele>756.293</ele>
        <time>2011-02-12T12:03:11Z</time>
      </trkpt>
      <trkpt lat="42.722740" lon="-2.830880">
        <ele>756.266</ele>
        <time>2011-02-12T12:03:16Z</time>
      </trkpt>
      <trkpt lat="42.722750" lon="-2.830880">
        <ele>755.747</ele>
        <time>2011-02-12T12:03:21Z</time>
      </trkpt>
      <trkpt lat="42.722750" lon="-2.830880">
        <ele>756.719</ele>
        <time>2011-02-12T12:03:26Z</time>
      </trkpt>
      <trkpt lat="42.722750" lon="-2.830870">
        <ele>755.776</ele>
        <time>2011-02-12T12:03:31Z</time>
      </trkpt>
      <trkpt lat="42.722750" lon="-2.830870">
        <ele>756.290</ele>
        <time>2011-02-12T12:03:36Z</time>
      </trkpt>
      <trkpt lat="42.722760" lon="-2.830880">
        <ele>756.219</ele>
        <time>2011-02-12T12:03:41Z</time>
      </trkpt>
      <trkpt lat="42.722760" lon="-2.830880">
        <ele>756.207</ele>
        <time>2011-02-12T12:03:46Z</time>
      </trkpt>
      <trkpt lat="42.722770" lon="-2.830880">
        <ele>756.729</ele>
        <time>2011-02-12T12:03:51Z</time>
      </trkpt>
      <trkpt lat="42.722760" lon="-2.830880">
        <ele>756.240</ele>
        <time>2011-02-12T12:03:56Z</time>
      </trkpt>
      <trkpt lat="42.722760" lon="-2.830880">
        <ele>756.259</ele>
        <time>2011-02-12T12:04:01Z</time>
      </trkpt>
      <trkpt lat="42.722760" lon="-2.830880">
        <ele>756.712</ele>
        <time>2011-02-12T12:04:06Z</time>
      </trkpt>
      <trkpt lat="42.722760" lon="-2.830880">
        <ele>756.795</ele>
        <time>2011-02-12T12:04:11Z</time>
      </trkpt>
      <trkpt lat="42.722760" lon="-2.830860">
        <ele>756.296</ele>
        <time>2011-02-12T12:04:16Z</time>
      </trkpt>
      <trkpt lat="42.722760" lon="-2.830860">
        <ele>756.238</ele>
        <time>2011-02-12T12:04:21Z</time>
      </trkpt>
      <trkpt lat="42.722760" lon="-2.830860">
        <ele>756.227</ele>
        <time>2011-02-12T12:04:26Z</time>
      </trkpt>
      <trkpt lat="42.722750" lon="-2.830860">
        <ele>756.768</ele>
        <time>2011-02-12T12:04:31Z</time>
      </trkpt>
      <trkpt lat="42.722750" lon="-2.830860">
        <ele>756.214</ele>
        <time>2011-02-12T12:04:36Z</time>
      </trkpt>
      <trkpt lat="42.722760" lon="-2.830860">
        <ele>755.307</ele>
        <time>2011-02-12T12:04:41Z</time>
      </trkpt>
      <trkpt lat="42.722760" lon="-2.830850">
        <ele>756.214</ele>
        <time>2011-02-12T12:04:46Z</time>
      </trkpt>
      <trkpt lat="42.722760" lon="-2.830850">
        <ele>755.775</ele>
        <time>2011-02-12T12:04:51Z</time>
      </trkpt>
      <trkpt lat="42.722760" lon="-2.830850">
        <ele>755.744</ele>
        <time>2011-02-12T12:04:56Z</time>
      </trkpt>
      <trkpt lat="42.722760" lon="-2.830840">
        <ele>755.777</ele>
        <time>2011-02-12T12:05:01Z</time>
      </trkpt>
      <trkpt lat="42.722760" lon="-2.830850">
        <ele>756.270</ele>
        <time>2011-02-12T12:05:06Z</time>
      </trkpt>
      <trkpt lat="42.722760" lon="-2.830850">
        <ele>756.231</ele>
        <time>2011-02-12T12:05:11Z</time>
      </trkpt>
      <trkpt lat="42.722770" lon="-2.830850">
        <ele>756.233</ele>
        <time>2011-02-12T12:05:16Z</time>
      </trkpt>
      <trkpt lat="42.722770" lon="-2.830850">
        <ele>756.799</ele>
        <time>2011-02-12T12:05:21Z</time>
      </trkpt>
      <trkpt lat="42.722770" lon="-2.830850">
        <ele>756.207</ele>
        <time>2011-02-12T12:05:26Z</time>
      </trkpt>
      <trkpt lat="42.722770" lon="-2.830860">
        <ele>756.227</ele>
        <time>2011-02-12T12:05:31Z</time>
      </trkpt>
      <trkpt lat="42.722770" lon="-2.830860">
        <ele>756.207</ele>
        <time>2011-02-12T12:05:36Z</time>
      </trkpt>
      <trkpt lat="42.722770" lon="-2.830860">
        <ele>755.751</ele>
        <time>2011-02-12T12:05:41Z</time>
      </trkpt>
      <trkpt lat="42.722780" lon="-2.830850">
        <ele>755.722</ele>
        <time>2011-02-12T12:05:46Z</time>
      </trkpt>
      <trkpt lat="42.722780" lon="-2.830850">
        <ele>756.221</ele>
        <time>2011-02-12T12:05:51Z</time>
      </trkpt>
      <trkpt lat="42.722770" lon="-2.830880">
        <ele>755.754</ele>
        <time>2011-02-12T12:05:56Z</time>
      </trkpt>
      <trkpt lat="42.722770" lon="-2.830880">
        <ele>756.217</ele>
        <time>2011-02-12T12:06:01Z</time>
      </trkpt>
      <trkpt lat="42.722790" lon="-2.830930">
        <ele>756.218</ele>
        <time>2011-02-12T12:06:06Z</time>
      </trkpt>
      <trkpt lat="42.722830" lon="-2.830960">
        <ele>757.210</ele>
        <time>2011-02-12T12:06:11Z</time>
      </trkpt>
      <trkpt lat="42.722880" lon="-2.830980">
        <ele>756.719</ele>
        <time>2011-02-12T12:06:16Z</time>
      </trkpt>
      <trkpt lat="42.722900" lon="-2.830970">
        <ele>757.209</ele>
        <time>2011-02-12T12:06:21Z</time>
      </trkpt>
      <trkpt lat="42.722910" lon="-2.830950">
        <ele>758.119</ele>
        <time>2011-02-12T12:06:26Z</time>
      </trkpt>
      <trkpt lat="42.722940" lon="-2.830890">
        <ele>759.107</ele>
        <time>2011-02-12T12:06:31Z</time>
      </trkpt>
      <trkpt lat="42.722923" lon="-2.830800">
        <ele>759.693</ele>
        <time>2011-02-12T12:06:36Z</time>
      </trkpt>
      <trkpt lat="42.722930" lon="-2.830700">
        <ele>759.134</ele>
        <time>2011-02-12T12:06:46Z</time>
      </trkpt>
      <trkpt lat="42.722930" lon="-2.830650">
        <ele>759.173</ele>
        <time>2011-02-12T12:06:52Z</time>
      </trkpt>
      <trkpt lat="42.722932" lon="-2.830842">
        <ele>763.486</ele>
        <time>2011-02-12T12:56:25Z</time>
      </trkpt>
      <trkpt lat="42.722970" lon="-2.830970">
        <ele>763.499</ele>
        <time>2011-02-12T12:56:30Z</time>
      </trkpt>
      <trkpt lat="42.722920" lon="-2.830850">
        <ele>763.980</ele>
        <time>2011-02-12T12:56:41Z</time>
      </trkpt>
      <trkpt lat="42.722940" lon="-2.830880">
        <ele>762.512</ele>
        <time>2011-02-12T12:56:46Z</time>
      </trkpt>
      <trkpt lat="42.722930" lon="-2.830890">
        <ele>761.562</ele>
        <time>2011-02-12T12:56:51Z</time>
      </trkpt>
      <trkpt lat="42.722940" lon="-2.830900">
        <ele>761.083</ele>
        <time>2011-02-12T12:56:56Z</time>
      </trkpt>
      <trkpt lat="42.722940" lon="-2.830900">
        <ele>759.611</ele>
        <time>2011-02-12T12:57:01Z</time>
      </trkpt>
      <trkpt lat="42.722927" lon="-2.830830">
        <ele>758.607</ele>
        <time>2011-02-12T12:57:06Z</time>
      </trkpt>
      <trkpt lat="42.722990" lon="-2.830950">
        <ele>758.658</ele>
        <time>2011-02-12T12:57:11Z</time>
      </trkpt>
      <trkpt lat="42.723040" lon="-2.830950">
        <ele>756.259</ele>
        <time>2011-02-12T12:57:16Z</time>
      </trkpt>
      <trkpt lat="42.723080" lon="-2.830930">
        <ele>756.258</ele>
        <time>2011-02-12T12:57:21Z</time>
      </trkpt>
      <trkpt lat="42.723080" lon="-2.830950">
        <ele>755.731</ele>
        <time>2011-02-12T12:57:26Z</time>
      </trkpt>
      <trkpt lat="42.723020" lon="-2.830960">
        <ele>756.294</ele>
        <time>2011-02-12T12:57:31Z</time>
      </trkpt>
      <trkpt lat="42.722977" lon="-2.830946">
        <ele>757.295</ele>
        <time>2011-02-12T12:57:35Z</time>
      </trkpt>
      <trkpt lat="42.722920" lon="-2.830990">
        <ele>757.617</ele>
        <time>2011-02-12T12:57:41Z</time>
      </trkpt>
      <trkpt lat="42.722920" lon="-2.831000">
        <ele>757.678</ele>
        <time>2011-02-12T12:57:46Z</time>
      </trkpt>
      <trkpt lat="42.722890" lon="-2.830990">
        <ele>757.233</ele>
        <time>2011-02-12T12:57:51Z</time>
      </trkpt>
      <trkpt lat="42.722820" lon="-2.830980">
        <ele>757.226</ele>
        <time>2011-02-12T12:57:56Z</time>
      </trkpt>
      <trkpt lat="42.722770" lon="-2.830970">
        <ele>756.207</ele>
        <time>2011-02-12T12:58:01Z</time>
      </trkpt>
      <trkpt lat="42.722740" lon="-2.830930">
        <ele>756.229</ele>
        <time>2011-02-12T12:58:06Z</time>
      </trkpt>
      <trkpt lat="42.722740" lon="-2.830890">
        <ele>756.290</ele>
        <time>2011-02-12T12:58:11Z</time>
      </trkpt>
      <trkpt lat="42.722750" lon="-2.830890">
        <ele>756.749</ele>
        <time>2011-02-12T12:58:16Z</time>
      </trkpt>
      <trkpt lat="42.722750" lon="-2.830900">
        <ele>756.212</ele>
        <time>2011-02-12T12:58:21Z</time>
      </trkpt>
      <trkpt lat="42.722750" lon="-2.830900">
        <ele>756.285</ele>
        <time>2011-02-12T12:58:26Z</time>
      </trkpt>
      <trkpt lat="42.722750" lon="-2.830900">
        <ele>756.296</ele>
        <time>2011-02-12T12:58:31Z</time>
      </trkpt>
      <trkpt lat="42.722750" lon="-2.830890">
        <ele>756.218</ele>
        <time>2011-02-12T12:58:36Z</time>
      </trkpt>
      <trkpt lat="42.722760" lon="-2.830910">
        <ele>756.779</ele>
        <time>2011-02-12T12:58:41Z</time>
      </trkpt>
      <trkpt lat="42.722750" lon="-2.830900">
        <ele>756.205</ele>
        <time>2011-02-12T12:58:46Z</time>
      </trkpt>
      <trkpt lat="42.722750" lon="-2.830900">
        <ele>756.225</ele>
        <time>2011-02-12T12:58:51Z</time>
      </trkpt>
      <trkpt lat="42.722760" lon="-2.830900">
        <ele>756.207</ele>
        <time>2011-02-12T12:58:56Z</time>
      </trkpt>
      <trkpt lat="42.722760" lon="-2.830900">
        <ele>756.239</ele>
        <time>2011-02-12T12:59:01Z</time>
      </trkpt>
      <trkpt lat="42.722760" lon="-2.830900">
        <ele>756.280</ele>
        <time>2011-02-12T12:59:06Z</time>
      </trkpt>
      <trkpt lat="42.722760" lon="-2.830900">
        <ele>756.239</ele>
        <time>2011-02-12T12:59:11Z</time>
      </trkpt>
      <trkpt lat="42.722760" lon="-2.830900">
        <ele>756.282</ele>
        <time>2011-02-12T12:59:16Z</time>
      </trkpt>
      <trkpt lat="42.722760" lon="-2.830900">
        <ele>755.785</ele>
        <time>2011-02-12T12:59:21Z</time>
      </trkpt>
      <trkpt lat="42.722760" lon="-2.830900">
        <ele>756.736</ele>
        <time>2011-02-12T12:59:26Z</time>
      </trkpt>
      <trkpt lat="42.722760" lon="-2.830900">
        <ele>755.758</ele>
        <time>2011-02-12T12:59:31Z</time>
      </trkpt>
      <trkpt lat="42.722760" lon="-2.830900">
        <ele>756.261</ele>
        <time>2011-02-12T12:59:36Z</time>
      </trkpt>
      <trkpt lat="42.722780" lon="-2.830910">
        <ele>756.221</ele>
        <time>2011-02-12T12:59:41Z</time>
      </trkpt>
      <trkpt lat="42.722780" lon="-2.830870">
        <ele>756.213</ele>
        <time>2011-02-12T12:59:46Z</time>
      </trkpt>
      <trkpt lat="42.722780" lon="-2.830870">
        <ele>756.707</ele>
        <time>2011-02-12T12:59:51Z</time>
      </trkpt>
      <trkpt lat="42.722800" lon="-2.830880">
        <ele>758.158</ele>
        <time>2011-02-12T12:59:56Z</time>
      </trkpt>
      <trkpt lat="42.722770" lon="-2.830900">
        <ele>757.269</ele>
        <time>2011-02-12T13:00:06Z</time>
      </trkpt>
      <trkpt lat="42.722770" lon="-2.830900">
        <ele>756.768</ele>
        <time>2011-02-12T13:00:11Z</time>
      </trkpt>
      <trkpt lat="42.722770" lon="-2.830900">
        <ele>757.271</ele>
        <time>2011-02-12T13:00:16Z</time>
      </trkpt>
      <trkpt lat="42.722770" lon="-2.830900">
        <ele>756.724</ele>
        <time>2011-02-12T13:00:21Z</time>
      </trkpt>
      <trkpt lat="42.722770" lon="-2.830900">
        <ele>758.135</ele>
        <time>2011-02-12T13:00:26Z</time>
      </trkpt>
      <trkpt lat="42.722780" lon="-2.830870">
        <ele>758.127</ele>
        <time>2011-02-12T13:00:31Z</time>
      </trkpt>
      <trkpt lat="42.722740" lon="-2.830900">
        <ele>755.741</ele>
        <time>2011-02-12T13:00:36Z</time>
      </trkpt>
      <trkpt lat="42.722840" lon="-2.831000">
        <ele>757.281</ele>
        <time>2011-02-12T13:00:46Z</time>
      </trkpt>
      <trkpt lat="42.722890" lon="-2.831010">
        <ele>757.609</ele>
        <time>2011-02-12T13:00:51Z</time>
      </trkpt>
      <trkpt lat="42.722910" lon="-2.831010">
        <ele>757.207</ele>
        <time>2011-02-12T13:00:56Z</time>
      </trkpt>
      <trkpt lat="42.722950" lon="-2.830990">
        <ele>758.136</ele>
        <time>2011-02-12T13:01:01Z</time>
      </trkpt>
      <trkpt lat="42.723020" lon="-2.830970">
        <ele>757.297</ele>
        <time>2011-02-12T13:01:06Z</time>
      </trkpt>
      <trkpt lat="42.723090" lon="-2.830930">
        <ele>757.276</ele>
        <time>2011-02-12T13:01:11Z</time>
      </trkpt>
      <trkpt lat="42.723130" lon="-2.830840">
        <ele>756.279</ele>
        <time>2011-02-12T13:01:16Z</time>
      </trkpt>
      <trkpt lat="42.723160" lon="-2.830750">
        <ele>756.732</ele>
        <time>2011-02-12T13:01:21Z</time>
      </trkpt>
      <trkpt lat="42.723179" lon="-2.830658">
        <ele>756.763</ele>
        <time>2011-02-12T13:01:26Z</time>
      </trkpt>
      <trkpt lat="42.723188" lon="-2.830561">
        <ele>756.295</ele>
        <time>2011-02-12T13:01:31Z</time>
      </trkpt>
      <trkpt lat="42.723210" lon="-2.830469">
        <ele>755.315</ele>
        <time>2011-02-12T13:01:36Z</time>
      </trkpt>
      <trkpt lat="42.723220" lon="-2.830400">
        <ele>755.365</ele>
        <time>2011-02-12T13:01:41Z</time>
      </trkpt>
      <trkpt lat="42.723200" lon="-2.830320">
        <ele>754.811</ele>
        <time>2011-02-12T13:01:46Z</time>
      </trkpt>
      <trkpt lat="42.723190" lon="-2.830230">
        <ele>754.807</ele>
        <time>2011-02-12T13:01:51Z</time>
      </trkpt>
      <trkpt lat="42.723180" lon="-2.830150">
        <ele>754.343</ele>
        <time>2011-02-12T13:01:56Z</time>
      </trkpt>
      <trkpt lat="42.723190" lon="-2.830130">
        <ele>753.874</ele>
        <time>2011-02-12T13:02:01Z</time>
      </trkpt>
      <trkpt lat="42.723190" lon="-2.830130">
        <ele>753.883</ele>
        <time>2011-02-12T13:02:06Z</time>
      </trkpt>
      <trkpt lat="42.723180" lon="-2.830130">
        <ele>754.346</ele>
        <time>2011-02-12T13:02:11Z</time>
      </trkpt>
      <trkpt lat="42.723180" lon="-2.830130">
        <ele>754.399</ele>
        <time>2011-02-12T13:02:16Z</time>
      </trkpt>
      <trkpt lat="42.723180" lon="-2.830130">
        <ele>753.880</ele>
        <time>2011-02-12T13:02:21Z</time>
      </trkpt>
      <trkpt lat="42.723180" lon="-2.830140">
        <ele>754.312</ele>
        <time>2011-02-12T13:02:26Z</time>
      </trkpt>
      <trkpt lat="42.723180" lon="-2.830140">
        <ele>754.839</ele>
        <time>2011-02-12T13:02:31Z</time>
      </trkpt>
      <trkpt lat="42.723180" lon="-2.830140">
        <ele>754.301</ele>
        <time>2011-02-12T13:02:36Z</time>
      </trkpt>
      <trkpt lat="42.723180" lon="-2.830140">
        <ele>754.321</ele>
        <time>2011-02-12T13:02:41Z</time>
      </trkpt>
      <trkpt lat="42.723180" lon="-2.830140">
        <ele>754.807</ele>
        <time>2011-02-12T13:02:46Z</time>
      </trkpt>
      <trkpt lat="42.723170" lon="-2.830140">
        <ele>754.355</ele>
        <time>2011-02-12T13:02:51Z</time>
      </trkpt>
      <trkpt lat="42.723170" lon="-2.830140">
        <ele>754.856</ele>
        <time>2011-02-12T13:02:56Z</time>
      </trkpt>
      <trkpt lat="42.723170" lon="-2.830140">
        <ele>754.395</ele>
        <time>2011-02-12T13:03:01Z</time>
      </trkpt>
      <trkpt lat="42.723170" lon="-2.830140">
        <ele>754.848</ele>
        <time>2011-02-12T13:03:06Z</time>
      </trkpt>
      <trkpt lat="42.723170" lon="-2.830160">
        <ele>754.351</ele>
        <time>2011-02-12T13:03:11Z</time>
      </trkpt>
      <trkpt lat="42.723200" lon="-2.830140">
        <ele>754.832</ele>
        <time>2011-02-12T13:03:16Z</time>
      </trkpt>
      <trkpt lat="42.723220" lon="-2.830160">
        <ele>754.324</ele>
        <time>2011-02-12T13:03:21Z</time>
      </trkpt>
      <trkpt lat="42.723260" lon="-2.830210">
        <ele>754.314</ele>
        <time>2011-02-12T13:03:26Z</time>
      </trkpt>
      <trkpt lat="42.723310" lon="-2.830180">
        <ele>753.854</ele>
        <time>2011-02-12T13:03:31Z</time>
      </trkpt>
      <trkpt lat="42.723340" lon="-2.830110">
        <ele>752.909</ele>
        <time>2011-02-12T13:03:36Z</time>
      </trkpt>
      <trkpt lat="42.723370" lon="-2.830040">
        <ele>751.407</ele>
        <time>2011-02-12T13:03:41Z</time>
      </trkpt>
      <trkpt lat="42.723400" lon="-2.829960">
        <ele>750.443</ele>
        <time>2011-02-12T13:03:46Z</time>
      </trkpt>
      <trkpt lat="42.723421" lon="-2.829888">
        <ele>750.044</ele>
        <time>2011-02-12T13:03:51Z</time>
      </trkpt>
      <trkpt lat="42.723453" lon="-2.829803">
        <ele>749.533</ele>
        <time>2011-02-12T13:03:56Z</time>
      </trkpt>
      <trkpt lat="42.723479" lon="-2.829705">
        <ele>749.056</ele>
        <time>2011-02-12T13:04:01Z</time>
      </trkpt>
      <trkpt lat="42.723515" lon="-2.829619">
        <ele>748.099</ele>
        <time>2011-02-12T13:04:06Z</time>
      </trkpt>
      <trkpt lat="42.723538" lon="-2.829534">
        <ele>746.110</ele>
        <time>2011-02-12T13:04:11Z</time>
      </trkpt>
      <trkpt lat="42.723551" lon="-2.829497">
        <ele>745.672</ele>
        <time>2011-02-12T13:04:21Z</time>
      </trkpt>
      <trkpt lat="42.723565" lon="-2.829448">
        <ele>746.172</ele>
        <time>2011-02-12T13:04:26Z</time>
      </trkpt>
      <trkpt lat="42.723569" lon="-2.829412">
        <ele>745.613</ele>
        <time>2011-02-12T13:04:31Z</time>
      </trkpt>
      <trkpt lat="42.723570" lon="-2.829370">
        <ele>744.714</ele>
        <time>2011-02-12T13:04:36Z</time>
      </trkpt>
      <trkpt lat="42.723560" lon="-2.829280">
        <ele>745.107</ele>
        <time>2011-02-12T13:04:41Z</time>
      </trkpt>
      <trkpt lat="42.723550" lon="-2.829220">
        <ele>745.129</ele>
        <time>2011-02-12T13:04:46Z</time>
      </trkpt>
      <trkpt lat="42.723600" lon="-2.829170">
        <ele>744.210</ele>
        <time>2011-02-12T13:04:51Z</time>
      </trkpt>
      <trkpt lat="42.723630" lon="-2.829100">
        <ele>742.889</ele>
        <time>2011-02-12T13:04:56Z</time>
      </trkpt>
      <trkpt lat="42.723680" lon="-2.828980">
        <ele>741.852</ele>
        <time>2011-02-12T13:05:06Z</time>
      </trkpt>
      <trkpt lat="42.723710" lon="-2.828910">
        <ele>741.825</ele>
        <time>2011-02-12T13:05:11Z</time>
      </trkpt>
      <trkpt lat="42.723750" lon="-2.828860">
        <ele>741.396</ele>
        <time>2011-02-12T13:05:16Z</time>
      </trkpt>
      <trkpt lat="42.723790" lon="-2.828850">
        <ele>740.478</ele>
        <time>2011-02-12T13:05:21Z</time>
      </trkpt>
      <trkpt lat="42.723850" lon="-2.828810">
        <ele>738.946</ele>
        <time>2011-02-12T13:05:26Z</time>
      </trkpt>
      <trkpt lat="42.723880" lon="-2.828730">
        <ele>738.088</ele>
        <time>2011-02-12T13:05:31Z</time>
      </trkpt>
      <trkpt lat="42.723930" lon="-2.828630">
        <ele>737.516</ele>
        <time>2011-02-12T13:05:36Z</time>
      </trkpt>
      <trkpt lat="42.723970" lon="-2.828570">
        <ele>735.507</ele>
        <time>2011-02-12T13:05:41Z</time>
      </trkpt>
      <trkpt lat="42.724010" lon="-2.828510">
        <ele>735.536</ele>
        <time>2011-02-12T13:05:46Z</time>
      </trkpt>
      <trkpt lat="42.724080" lon="-2.828390">
        <ele>734.147</ele>
        <time>2011-02-12T13:05:56Z</time>
      </trkpt>
      <trkpt lat="42.724120" lon="-2.828330">
        <ele>733.166</ele>
        <time>2011-02-12T13:06:01Z</time>
      </trkpt>
      <trkpt lat="42.724140" lon="-2.828270">
        <ele>732.239</ele>
        <time>2011-02-12T13:06:06Z</time>
      </trkpt>
      <trkpt lat="42.724160" lon="-2.828230">
        <ele>730.722</ele>
        <time>2011-02-12T13:06:11Z</time>
      </trkpt>
      <trkpt lat="42.724200" lon="-2.828180">
        <ele>728.843</ele>
        <time>2011-02-12T13:06:21Z</time>
      </trkpt>
      <trkpt lat="42.724220" lon="-2.828160">
        <ele>728.455</ele>
        <time>2011-02-12T13:06:26Z</time>
      </trkpt>
      <trkpt lat="42.724260" lon="-2.828120">
        <ele>727.486</ele>
        <time>2011-02-12T13:06:31Z</time>
      </trkpt>
      <trkpt lat="42.724290" lon="-2.828070">
        <ele>726.460</ele>
        <time>2011-02-12T13:06:36Z</time>
      </trkpt>
      <trkpt lat="42.724330" lon="-2.828020">
        <ele>725.526</ele>
        <time>2011-02-12T13:06:41Z</time>
      </trkpt>
      <trkpt lat="42.724410" lon="-2.827940">
        <ele>724.507</ele>
        <time>2011-02-12T13:06:51Z</time>
      </trkpt>
      <trkpt lat="42.724520" lon="-2.827850">
        <ele>723.090</ele>
        <time>2011-02-12T13:07:06Z</time>
      </trkpt>
      <trkpt lat="42.724580" lon="-2.827780">
        <ele>722.621</ele>
        <time>2011-02-12T13:07:16Z</time>
      </trkpt>
      <trkpt lat="42.724610" lon="-2.827750">
        <ele>722.140</ele>
        <time>2011-02-12T13:07:21Z</time>
      </trkpt>
      <trkpt lat="42.724660" lon="-2.827740">
        <ele>720.253</ele>
        <time>2011-02-12T13:07:31Z</time>
      </trkpt>
      <trkpt lat="42.724750" lon="-2.827680">
        <ele>718.776</ele>
        <time>2011-02-12T13:07:46Z</time>
      </trkpt>
      <trkpt lat="42.724830" lon="-2.827610">
        <ele>717.337</ele>
        <time>2011-02-12T13:08:01Z</time>
      </trkpt>
      <trkpt lat="42.724880" lon="-2.827590">
        <ele>716.359</ele>
        <time>2011-02-12T13:08:06Z</time>
      </trkpt>
      <trkpt lat="42.724980" lon="-2.827600">
        <ele>714.928</ele>
        <time>2011-02-12T13:08:16Z</time>
      </trkpt>
      <trkpt lat="42.725020" lon="-2.827600">
        <ele>713.489</ele>
        <time>2011-02-12T13:08:21Z</time>
      </trkpt>
      <trkpt lat="42.725160" lon="-2.827620">
        <ele>713.017</ele>
        <time>2011-02-12T13:08:36Z</time>
      </trkpt>
      <trkpt lat="42.725220" lon="-2.827620">
        <ele>712.007</ele>
        <time>2011-02-12T13:08:41Z</time>
      </trkpt>
      <trkpt lat="42.725260" lon="-2.827610">
        <ele>710.524</ele>
        <time>2011-02-12T13:08:46Z</time>
      </trkpt>
      <trkpt lat="42.725300" lon="-2.827600">
        <ele>710.135</ele>
        <time>2011-02-12T13:08:51Z</time>
      </trkpt>
      <trkpt lat="42.725340" lon="-2.827610">
        <ele>710.134</ele>
        <time>2011-02-12T13:08:56Z</time>
      </trkpt>
      <trkpt lat="42.725370" lon="-2.827600">
        <ele>709.617</ele>
        <time>2011-02-12T13:09:01Z</time>
      </trkpt>
      <trkpt lat="42.725400" lon="-2.827570">
        <ele>709.140</ele>
        <time>2011-02-12T13:09:06Z</time>
      </trkpt>
      <trkpt lat="42.725430" lon="-2.827570">
        <ele>708.661</ele>
        <time>2011-02-12T13:09:11Z</time>
      </trkpt>
      <trkpt lat="42.725460" lon="-2.827560">
        <ele>707.753</ele>
        <time>2011-02-12T13:09:16Z</time>
      </trkpt>
      <trkpt lat="42.725490" lon="-2.827530">
        <ele>705.767</ele>
        <time>2011-02-12T13:09:21Z</time>
      </trkpt>
      <trkpt lat="42.725510" lon="-2.827540">
        <ele>704.881</ele>
        <time>2011-02-12T13:09:26Z</time>
      </trkpt>
      <trkpt lat="42.725550" lon="-2.827520">
        <ele>704.819</ele>
        <time>2011-02-12T13:09:31Z</time>
      </trkpt>
      <trkpt lat="42.725610" lon="-2.827480">
        <ele>704.307</ele>
        <time>2011-02-12T13:09:36Z</time>
      </trkpt>
      <trkpt lat="42.725660" lon="-2.827440">
        <ele>703.818</ele>
        <time>2011-02-12T13:09:41Z</time>
      </trkpt>
      <trkpt lat="42.725710" lon="-2.827410">
        <ele>702.919</ele>
        <time>2011-02-12T13:09:46Z</time>
      </trkpt>
      <trkpt lat="42.725750" lon="-2.827350">
        <ele>702.498</ele>
        <time>2011-02-12T13:09:51Z</time>
      </trkpt>
      <trkpt lat="42.725780" lon="-2.827290">
        <ele>701.931</ele>
        <time>2011-02-12T13:09:56Z</time>
      </trkpt>
      <trkpt lat="42.725810" lon="-2.827260">
        <ele>701.414</ele>
        <time>2011-02-12T13:10:01Z</time>
      </trkpt>
      <trkpt lat="42.725850" lon="-2.827250">
        <ele>700.065</ele>
        <time>2011-02-12T13:10:06Z</time>
      </trkpt>
      <trkpt lat="42.725890" lon="-2.827220">
        <ele>699.547</ele>
        <time>2011-02-12T13:10:11Z</time>
      </trkpt>
      <trkpt lat="42.725920" lon="-2.827170">
        <ele>698.532</ele>
        <time>2011-02-12T13:10:16Z</time>
      </trkpt>
      <trkpt lat="42.725960" lon="-2.827150">
        <ele>698.592</ele>
        <time>2011-02-12T13:10:21Z</time>
      </trkpt>
      <trkpt lat="42.726000" lon="-2.827140">
        <ele>698.111</ele>
        <time>2011-02-12T13:10:26Z</time>
      </trkpt>
      <trkpt lat="42.726050" lon="-2.827160">
        <ele>697.607</ele>
        <time>2011-02-12T13:10:31Z</time>
      </trkpt>
      <trkpt lat="42.726090" lon="-2.827170">
        <ele>697.635</ele>
        <time>2011-02-12T13:10:36Z</time>
      </trkpt>
      <trkpt lat="42.726130" lon="-2.827160">
        <ele>696.126</ele>
        <time>2011-02-12T13:10:41Z</time>
      </trkpt>
      <trkpt lat="42.726170" lon="-2.827160">
        <ele>694.795</ele>
        <time>2011-02-12T13:10:46Z</time>
      </trkpt>
      <trkpt lat="42.726210" lon="-2.827160">
        <ele>694.218</ele>
        <time>2011-02-12T13:10:51Z</time>
      </trkpt>
      <trkpt lat="42.726230" lon="-2.827110">
        <ele>693.761</ele>
        <time>2011-02-12T13:10:56Z</time>
      </trkpt>
      <trkpt lat="42.726250" lon="-2.827060">
        <ele>693.252</ele>
        <time>2011-02-12T13:11:01Z</time>
      </trkpt>
      <trkpt lat="42.726270" lon="-2.827000">
        <ele>693.274</ele>
        <time>2011-02-12T13:11:06Z</time>
      </trkpt>
      <trkpt lat="42.726290" lon="-2.826940">
        <ele>693.295</ele>
        <time>2011-02-12T13:11:11Z</time>
      </trkpt>
      <trkpt lat="42.726290" lon="-2.826870">
        <ele>692.849</ele>
        <time>2011-02-12T13:11:16Z</time>
      </trkpt>
      <trkpt lat="42.726290" lon="-2.826810">
        <ele>692.823</ele>
        <time>2011-02-12T13:11:21Z</time>
      </trkpt>
      <trkpt lat="42.726290" lon="-2.826740">
        <ele>692.807</ele>
        <time>2011-02-12T13:11:26Z</time>
      </trkpt>
      <trkpt lat="42.726270" lon="-2.826670">
        <ele>692.841</ele>
        <time>2011-02-12T13:11:31Z</time>
      </trkpt>
      <trkpt lat="42.726260" lon="-2.826490">
        <ele>692.352</ele>
        <time>2011-02-12T13:11:41Z</time>
      </trkpt>
      <trkpt lat="42.726280" lon="-2.826400">
        <ele>692.351</ele>
        <time>2011-02-12T13:11:46Z</time>
      </trkpt>
      <trkpt lat="42.726270" lon="-2.826340">
        <ele>691.384</ele>
        <time>2011-02-12T13:11:51Z</time>
      </trkpt>
      <trkpt lat="42.726260" lon="-2.826280">
        <ele>690.487</ele>
        <time>2011-02-12T13:11:56Z</time>
      </trkpt>
      <trkpt lat="42.726260" lon="-2.826190">
        <ele>689.478</ele>
        <time>2011-02-12T13:12:01Z</time>
      </trkpt>
      <trkpt lat="42.726240" lon="-2.826140">
        <ele>689.460</ele>
        <time>2011-02-12T13:12:06Z</time>
      </trkpt>
      <trkpt lat="42.726240" lon="-2.826130">
        <ele>689.497</ele>
        <time>2011-02-12T13:12:11Z</time>
      </trkpt>
      <trkpt lat="42.726230" lon="-2.826110">
        <ele>689.423</ele>
        <time>2011-02-12T13:12:16Z</time>
      </trkpt>
      <trkpt lat="42.726230" lon="-2.826100">
        <ele>689.425</ele>
        <time>2011-02-12T13:12:21Z</time>
      </trkpt>
      <trkpt lat="42.726230" lon="-2.826100">
        <ele>689.407</ele>
        <time>2011-02-12T13:12:26Z</time>
      </trkpt>
      <trkpt lat="42.726220" lon="-2.826090">
        <ele>689.451</ele>
        <time>2011-02-12T13:12:31Z</time>
      </trkpt>
      <trkpt lat="42.726220" lon="-2.826080">
        <ele>688.912</ele>
        <time>2011-02-12T13:12:36Z</time>
      </trkpt>
      <trkpt lat="42.726190" lon="-2.826060">
        <ele>688.981</ele>
        <time>2011-02-12T13:12:41Z</time>
      </trkpt>
      <trkpt lat="42.726170" lon="-2.826040">
        <ele>689.434</ele>
        <time>2011-02-12T13:12:46Z</time>
      </trkpt>
      <trkpt lat="42.726140" lon="-2.826050">
        <ele>688.987</ele>
        <time>2011-02-12T13:12:51Z</time>
      </trkpt>
      <trkpt lat="42.726108" lon="-2.826033">
        <ele>688.938</ele>
        <time>2011-02-12T13:12:56Z</time>
      </trkpt>
      <trkpt lat="42.726090" lon="-2.826000">
        <ele>688.570</ele>
        <time>2011-02-12T13:13:11Z</time>
      </trkpt>
      <trkpt lat="42.726060" lon="-2.825970">
        <ele>687.586</ele>
        <time>2011-02-12T13:13:16Z</time>
      </trkpt>
      <trkpt lat="42.726030" lon="-2.825950">
        <ele>685.660</ele>
        <time>2011-02-12T13:13:21Z</time>
      </trkpt>
      <trkpt lat="42.726060" lon="-2.825950">
        <ele>686.026</ele>
        <time>2011-02-12T13:13:26Z</time>
      </trkpt>
      <trkpt lat="42.726060" lon="-2.825950">
        <ele>687.007</ele>
        <time>2011-02-12T13:13:31Z</time>
      </trkpt>
      <trkpt lat="42.726080" lon="-2.825970">
        <ele>686.590</ele>
        <time>2011-02-12T13:13:36Z</time>
      </trkpt>
      <trkpt lat="42.726120" lon="-2.826000">
        <ele>688.011</ele>
        <time>2011-02-12T13:13:41Z</time>
      </trkpt>
      <trkpt lat="42.726140" lon="-2.826010">
        <ele>688.060</ele>
        <time>2011-02-12T13:13:46Z</time>
      </trkpt>
      <trkpt lat="42.726160" lon="-2.825970">
        <ele>687.573</ele>
        <time>2011-02-12T13:13:51Z</time>
      </trkpt>
      <trkpt lat="42.726190" lon="-2.825900">
        <ele>688.556</ele>
        <time>2011-02-12T13:13:56Z</time>
      </trkpt>
      <trkpt lat="42.726225" lon="-2.825813">
        <ele>688.097</ele>
        <time>2011-02-12T13:14:01Z</time>
      </trkpt>
      <trkpt lat="42.726265" lon="-2.825752">
        <ele>689.449</ele>
        <time>2011-02-12T13:14:06Z</time>
      </trkpt>
      <trkpt lat="42.726306" lon="-2.825691">
        <ele>689.947</ele>
        <time>2011-02-12T13:14:11Z</time>
      </trkpt>
      <trkpt lat="42.726320" lon="-2.825650">
        <ele>689.929</ele>
        <time>2011-02-12T13:14:16Z</time>
      </trkpt>
      <trkpt lat="42.726330" lon="-2.825570">
        <ele>689.921</ele>
        <time>2011-02-12T13:14:21Z</time>
      </trkpt>
      <trkpt lat="42.726340" lon="-2.825490">
        <ele>689.907</ele>
        <time>2011-02-12T13:14:26Z</time>
      </trkpt>
      <trkpt lat="42.726350" lon="-2.825320">
        <ele>691.326</ele>
        <time>2011-02-12T13:14:36Z</time>
      </trkpt>
      <trkpt lat="42.726350" lon="-2.825240">
        <ele>690.957</ele>
        <time>2011-02-12T13:14:41Z</time>
      </trkpt>
      <trkpt lat="42.726350" lon="-2.825150">
        <ele>690.986</ele>
        <time>2011-02-12T13:14:46Z</time>
      </trkpt>
      <trkpt lat="42.726340" lon="-2.825060">
        <ele>691.869</ele>
        <time>2011-02-12T13:14:51Z</time>
      </trkpt>
      <trkpt lat="42.726330" lon="-2.824980">
        <ele>692.352</ele>
        <time>2011-02-12T13:14:56Z</time>
      </trkpt>
      <trkpt lat="42.726320" lon="-2.824910">
        <ele>692.353</ele>
        <time>2011-02-12T13:15:01Z</time>
      </trkpt>
      <trkpt lat="42.726310" lon="-2.824840">
        <ele>693.295</ele>
        <time>2011-02-12T13:15:06Z</time>
      </trkpt>
      <trkpt lat="42.726290" lon="-2.824760">
        <ele>693.251</ele>
        <time>2011-02-12T13:15:11Z</time>
      </trkpt>
      <trkpt lat="42.726280" lon="-2.824680">
        <ele>693.701</ele>
        <time>2011-02-12T13:15:16Z</time>
      </trkpt>
      <trkpt lat="42.726270" lon="-2.824600">
        <ele>693.711</ele>
        <time>2011-02-12T13:15:21Z</time>
      </trkpt>
      <trkpt lat="42.726260" lon="-2.824520">
        <ele>694.707</ele>
        <time>2011-02-12T13:15:26Z</time>
      </trkpt>
      <trkpt lat="42.726250" lon="-2.824450">
        <ele>694.247</ele>
        <time>2011-02-12T13:15:31Z</time>
      </trkpt>
      <trkpt lat="42.726240" lon="-2.824370">
        <ele>695.298</ele>
        <time>2011-02-12T13:15:36Z</time>
      </trkpt>
      <trkpt lat="42.726230" lon="-2.824290">
        <ele>695.227</ele>
        <time>2011-02-12T13:15:41Z</time>
      </trkpt>
      <trkpt lat="42.726230" lon="-2.824200">
        <ele>694.760</ele>
        <time>2011-02-12T13:15:46Z</time>
      </trkpt>
      <trkpt lat="42.726240" lon="-2.824120">
        <ele>694.753</ele>
        <time>2011-02-12T13:15:51Z</time>
      </trkpt>
      <trkpt lat="42.726260" lon="-2.824050">
        <ele>694.754</ele>
        <time>2011-02-12T13:15:56Z</time>
      </trkpt>
      <trkpt lat="42.726260" lon="-2.823970">
        <ele>695.246</ele>
        <time>2011-02-12T13:16:01Z</time>
      </trkpt>
      <trkpt lat="42.726270" lon="-2.823900">
        <ele>696.695</ele>
        <time>2011-02-12T13:16:06Z</time>
      </trkpt>
      <trkpt lat="42.726270" lon="-2.823820">
        <ele>698.149</ele>
        <time>2011-02-12T13:16:11Z</time>
      </trkpt>
      <trkpt lat="42.726260" lon="-2.823740">
        <ele>697.123</ele>
        <time>2011-02-12T13:16:16Z</time>
      </trkpt>
      <trkpt lat="42.726240" lon="-2.823670">
        <ele>698.507</ele>
        <time>2011-02-12T13:16:21Z</time>
      </trkpt>
      <trkpt lat="42.726200" lon="-2.823610">
        <ele>698.581</ele>
        <time>2011-02-12T13:16:26Z</time>
      </trkpt>
      <trkpt lat="42.726180" lon="-2.823540">
        <ele>699.022</ele>
        <time>2011-02-12T13:16:31Z</time>
      </trkpt>
      <trkpt lat="42.726170" lon="-2.823460">
        <ele>699.551</ele>
        <time>2011-02-12T13:16:36Z</time>
      </trkpt>
      <trkpt lat="42.726160" lon="-2.823390">
        <ele>700.564</ele>
        <time>2011-02-12T13:16:41Z</time>
      </trkpt>
      <trkpt lat="42.726140" lon="-2.823320">
        <ele>700.997</ele>
        <time>2011-02-12T13:16:46Z</time>
      </trkpt>
      <trkpt lat="42.726130" lon="-2.823250">
        <ele>700.568</ele>
        <time>2011-02-12T13:16:51Z</time>
      </trkpt>
      <trkpt lat="42.726120" lon="-2.823170">
        <ele>701.920</ele>
        <time>2011-02-12T13:16:56Z</time>
      </trkpt>
      <trkpt lat="42.726120" lon="-2.823110">
        <ele>702.415</ele>
        <time>2011-02-12T13:17:01Z</time>
      </trkpt>
      <trkpt lat="42.726110" lon="-2.823030">
        <ele>702.965</ele>
        <time>2011-02-12T13:17:06Z</time>
      </trkpt>
      <trkpt lat="42.726100" lon="-2.822960">
        <ele>703.811</ele>
        <time>2011-02-12T13:17:11Z</time>
      </trkpt>
      <trkpt lat="42.726090" lon="-2.822890">
        <ele>703.807</ele>
        <time>2011-02-12T13:17:16Z</time>
      </trkpt>
      <trkpt lat="42.726090" lon="-2.822810">
        <ele>703.833</ele>
        <time>2011-02-12T13:17:21Z</time>
      </trkpt>
      <trkpt lat="42.726080" lon="-2.822740">
        <ele>705.734</ele>
        <time>2011-02-12T13:17:26Z</time>
      </trkpt>
      <trkpt lat="42.726060" lon="-2.822670">
        <ele>705.763</ele>
        <time>2011-02-12T13:17:31Z</time>
      </trkpt>
      <trkpt lat="42.726040" lon="-2.822590">
        <ele>706.236</ele>
        <time>2011-02-12T13:17:36Z</time>
      </trkpt>
      <trkpt lat="42.726030" lon="-2.822520">
        <ele>706.229</ele>
        <time>2011-02-12T13:17:41Z</time>
      </trkpt>
      <trkpt lat="42.726030" lon="-2.822440">
        <ele>706.280</ele>
        <time>2011-02-12T13:17:46Z</time>
      </trkpt>
      <trkpt lat="42.726020" lon="-2.822370">
        <ele>706.712</ele>
        <time>2011-02-12T13:17:51Z</time>
      </trkpt>
      <trkpt lat="42.726020" lon="-2.822290">
        <ele>707.272</ele>
        <time>2011-02-12T13:17:56Z</time>
      </trkpt>
      <trkpt lat="42.726010" lon="-2.822210">
        <ele>707.213</ele>
        <time>2011-02-12T13:18:01Z</time>
      </trkpt>
      <trkpt lat="42.726010" lon="-2.822130">
        <ele>707.214</ele>
        <time>2011-02-12T13:18:06Z</time>
      </trkpt>
      <trkpt lat="42.726020" lon="-2.822050">
        <ele>707.207</ele>
        <time>2011-02-12T13:18:11Z</time>
      </trkpt>
      <trkpt lat="42.726030" lon="-2.821970">
        <ele>707.799</ele>
        <time>2011-02-12T13:18:16Z</time>
      </trkpt>
      <trkpt lat="42.726020" lon="-2.821900">
        <ele>707.290</ele>
        <time>2011-02-12T13:18:21Z</time>
      </trkpt>
      <trkpt lat="42.726000" lon="-2.821820">
        <ele>706.749</ele>
        <time>2011-02-12T13:18:26Z</time>
      </trkpt>
      <trkpt lat="42.725990" lon="-2.821750">
        <ele>707.712</ele>
        <time>2011-02-12T13:18:31Z</time>
      </trkpt>
      <trkpt lat="42.725960" lon="-2.821670">
        <ele>707.255</ele>
        <time>2011-02-12T13:18:36Z</time>
      </trkpt>
      <trkpt lat="42.725950" lon="-2.821600">
        <ele>708.146</ele>
        <time>2011-02-12T13:18:41Z</time>
      </trkpt>
      <trkpt lat="42.725920" lon="-2.821530">
        <ele>709.148</ele>
        <time>2011-02-12T13:18:46Z</time>
      </trkpt>
      <trkpt lat="42.725910" lon="-2.821460">
        <ele>709.199</ele>
        <time>2011-02-12T13:18:51Z</time>
      </trkpt>
      <trkpt lat="42.725880" lon="-2.821390">
        <ele>708.607</ele>
        <time>2011-02-12T13:18:56Z</time>
      </trkpt>
      <trkpt lat="42.725860" lon="-2.821320">
        <ele>709.127</ele>
        <time>2011-02-12T13:19:01Z</time>
      </trkpt>
      <trkpt lat="42.725840" lon="-2.821250">
        <ele>709.107</ele>
        <time>2011-02-12T13:19:06Z</time>
      </trkpt>
      <trkpt lat="42.725810" lon="-2.821180">
        <ele>709.151</ele>
        <time>2011-02-12T13:19:11Z</time>
      </trkpt>
      <trkpt lat="42.725790" lon="-2.821110">
        <ele>709.182</ele>
        <time>2011-02-12T13:19:16Z</time>
      </trkpt>
      <trkpt lat="42.725760" lon="-2.821040">
        <ele>710.571</ele>
        <time>2011-02-12T13:19:21Z</time>
      </trkpt>
      <trkpt lat="42.725740" lon="-2.820970">
        <ele>710.584</ele>
        <time>2011-02-12T13:19:26Z</time>
      </trkpt>
      <trkpt lat="42.725720" lon="-2.820890">
        <ele>711.587</ele>
        <time>2011-02-12T13:19:31Z</time>
      </trkpt>
      <trkpt lat="42.725700" lon="-2.820810">
        <ele>711.048</ele>
        <time>2011-02-12T13:19:36Z</time>
      </trkpt>
      <trkpt lat="42.725680" lon="-2.820750">
        <ele>711.530</ele>
        <time>2011-02-12T13:19:41Z</time>
      </trkpt>
      <trkpt lat="42.725650" lon="-2.820680">
        <ele>711.594</ele>
        <time>2011-02-12T13:19:46Z</time>
      </trkpt>
      <trkpt lat="42.725630" lon="-2.820610">
        <ele>712.057</ele>
        <time>2011-02-12T13:19:51Z</time>
      </trkpt>
      <trkpt lat="42.725600" lon="-2.820540">
        <ele>713.022</ele>
        <time>2011-02-12T13:19:56Z</time>
      </trkpt>
      <trkpt lat="42.725590" lon="-2.820480">
        <ele>713.007</ele>
        <time>2011-02-12T13:20:01Z</time>
      </trkpt>
      <trkpt lat="42.725580" lon="-2.820400">
        <ele>713.471</ele>
        <time>2011-02-12T13:20:06Z</time>
      </trkpt>
      <trkpt lat="42.725550" lon="-2.820330">
        <ele>713.482</ele>
        <time>2011-02-12T13:20:11Z</time>
      </trkpt>
      <trkpt lat="42.725530" lon="-2.820260">
        <ele>713.421</ele>
        <time>2011-02-12T13:20:16Z</time>
      </trkpt>
      <trkpt lat="42.725520" lon="-2.820190">
        <ele>713.954</ele>
        <time>2011-02-12T13:20:21Z</time>
      </trkpt>
      <trkpt lat="42.725510" lon="-2.820110">
        <ele>714.447</ele>
        <time>2011-02-12T13:20:26Z</time>
      </trkpt>
      <trkpt lat="42.725500" lon="-2.820040">
        <ele>714.938</ele>
        <time>2011-02-12T13:20:31Z</time>
      </trkpt>
      <trkpt lat="42.725480" lon="-2.819970">
        <ele>714.980</ele>
        <time>2011-02-12T13:20:36Z</time>
      </trkpt>
      <trkpt lat="42.725460" lon="-2.819890">
        <ele>716.384</ele>
        <time>2011-02-12T13:20:41Z</time>
      </trkpt>
      <trkpt lat="42.725440" lon="-2.819820">
        <ele>716.807</ele>
        <time>2011-02-12T13:20:46Z</time>
      </trkpt>
      <trkpt lat="42.725430" lon="-2.819750">
        <ele>717.317</ele>
        <time>2011-02-12T13:20:51Z</time>
      </trkpt>
      <trkpt lat="42.725420" lon="-2.819680">
        <ele>717.307</ele>
        <time>2011-02-12T13:20:56Z</time>
      </trkpt>
      <trkpt lat="42.725420" lon="-2.819610">
        <ele>717.850</ele>
        <time>2011-02-12T13:21:01Z</time>
      </trkpt>
      <trkpt lat="42.725420" lon="-2.819530">
        <ele>717.861</ele>
        <time>2011-02-12T13:21:06Z</time>
      </trkpt>
      <trkpt lat="42.725420" lon="-2.819470">
        <ele>716.890</ele>
        <time>2011-02-12T13:21:10Z</time>
      </trkpt>
      <trkpt lat="42.725420" lon="-2.819400">
        <ele>719.273</ele>
        <time>2011-02-12T13:21:15Z</time>
      </trkpt>
      <trkpt lat="42.725420" lon="-2.819320">
        <ele>719.276</ele>
        <time>2011-02-12T13:21:20Z</time>
      </trkpt>
      <trkpt lat="42.725440" lon="-2.819250">
        <ele>718.267</ele>
        <time>2011-02-12T13:21:25Z</time>
      </trkpt>
      <trkpt lat="42.725470" lon="-2.819180">
        <ele>717.849</ele>
        <time>2011-02-12T13:21:30Z</time>
      </trkpt>
      <trkpt lat="42.725490" lon="-2.819110">
        <ele>717.358</ele>
        <time>2011-02-12T13:21:35Z</time>
      </trkpt>
      <trkpt lat="42.725510" lon="-2.819030">
        <ele>717.352</ele>
        <time>2011-02-12T13:21:40Z</time>
      </trkpt>
      <trkpt lat="42.725530" lon="-2.818950">
        <ele>717.817</ele>
        <time>2011-02-12T13:21:45Z</time>
      </trkpt>
      <trkpt lat="42.725550" lon="-2.818870">
        <ele>717.307</ele>
        <time>2011-02-12T13:21:50Z</time>
      </trkpt>
      <trkpt lat="42.725570" lon="-2.818790">
        <ele>717.317</ele>
        <time>2011-02-12T13:21:55Z</time>
      </trkpt>
      <trkpt lat="42.725590" lon="-2.818710">
        <ele>717.318</ele>
        <time>2011-02-12T13:22:00Z</time>
      </trkpt>
      <trkpt lat="42.725600" lon="-2.818620">
        <ele>716.877</ele>
        <time>2011-02-12T13:22:05Z</time>
      </trkpt>
      <trkpt lat="42.725630" lon="-2.818540">
        <ele>717.310</ele>
        <time>2011-02-12T13:22:10Z</time>
      </trkpt>
      <trkpt lat="42.725650" lon="-2.818470">
        <ele>716.893</ele>
        <time>2011-02-12T13:22:15Z</time>
      </trkpt>
      <trkpt lat="42.725680" lon="-2.818390">
        <ele>716.844</ele>
        <time>2011-02-12T13:22:20Z</time>
      </trkpt>
      <trkpt lat="42.725700" lon="-2.818320">
        <ele>716.836</ele>
        <time>2011-02-12T13:22:25Z</time>
      </trkpt>
      <trkpt lat="42.725720" lon="-2.818240">
        <ele>716.367</ele>
        <time>2011-02-12T13:22:30Z</time>
      </trkpt>
      <trkpt lat="42.725750" lon="-2.818150">
        <ele>715.981</ele>
        <time>2011-02-12T13:22:35Z</time>
      </trkpt>
      <trkpt lat="42.725760" lon="-2.818070">
        <ele>715.919</ele>
        <time>2011-02-12T13:22:40Z</time>
      </trkpt>
      <trkpt lat="42.725790" lon="-2.817990">
        <ele>715.407</ele>
        <time>2011-02-12T13:22:45Z</time>
      </trkpt>
      <trkpt lat="42.725830" lon="-2.817920">
        <ele>714.438</ele>
        <time>2011-02-12T13:22:50Z</time>
      </trkpt>
      <trkpt lat="42.725860" lon="-2.817840">
        <ele>713.919</ele>
        <time>2011-02-12T13:22:55Z</time>
      </trkpt>
      <trkpt lat="42.725890" lon="-2.817760">
        <ele>713.438</ele>
        <time>2011-02-12T13:23:00Z</time>
      </trkpt>
      <trkpt lat="42.725900" lon="-2.817670">
        <ele>713.491</ele>
        <time>2011-02-12T13:23:05Z</time>
      </trkpt>
      <trkpt lat="42.725920" lon="-2.817600">
        <ele>712.534</ele>
        <time>2011-02-12T13:23:10Z</time>
      </trkpt>
      <trkpt lat="42.725950" lon="-2.817520">
        <ele>712.555</ele>
        <time>2011-02-12T13:23:15Z</time>
      </trkpt>
      <trkpt lat="42.725980" lon="-2.817440">
        <ele>712.047</ele>
        <time>2011-02-12T13:23:20Z</time>
      </trkpt>
      <trkpt lat="42.726000" lon="-2.817360">
        <ele>711.511</ele>
        <time>2011-02-12T13:23:25Z</time>
      </trkpt>
      <trkpt lat="42.726030" lon="-2.817290">
        <ele>711.521</ele>
        <time>2011-02-12T13:23:30Z</time>
      </trkpt>
      <trkpt lat="42.726050" lon="-2.817240">
        <ele>711.003</ele>
        <time>2011-02-12T13:23:35Z</time>
      </trkpt>
      <trkpt lat="42.726070" lon="-2.817160">
        <ele>711.007</ele>
        <time>2011-02-12T13:23:40Z</time>
      </trkpt>
      <trkpt lat="42.726100" lon="-2.817090">
        <ele>711.093</ele>
        <time>2011-02-12T13:23:45Z</time>
      </trkpt>
      <trkpt lat="42.726120" lon="-2.817010">
        <ele>710.524</ele>
        <time>2011-02-12T13:23:50Z</time>
      </trkpt>
      <trkpt lat="42.726150" lon="-2.816930">
        <ele>710.553</ele>
        <time>2011-02-12T13:23:55Z</time>
      </trkpt>
      <trkpt lat="42.726180" lon="-2.816850">
        <ele>710.186</ele>
        <time>2011-02-12T13:24:00Z</time>
      </trkpt>
      <trkpt lat="42.726200" lon="-2.816760">
        <ele>710.139</ele>
        <time>2011-02-12T13:24:05Z</time>
      </trkpt>
      <trkpt lat="42.726220" lon="-2.816680">
        <ele>709.620</ele>
        <time>2011-02-12T13:24:10Z</time>
      </trkpt>
      <trkpt lat="42.726240" lon="-2.816590">
        <ele>709.652</ele>
        <time>2011-02-12T13:24:15Z</time>
      </trkpt>
      <trkpt lat="42.726260" lon="-2.816510">
        <ele>709.692</ele>
        <time>2011-02-12T13:24:20Z</time>
      </trkpt>
      <trkpt lat="42.726260" lon="-2.816420">
        <ele>709.173</ele>
        <time>2011-02-12T13:24:25Z</time>
      </trkpt>
      <trkpt lat="42.726260" lon="-2.816330">
        <ele>708.120</ele>
        <time>2011-02-12T13:24:30Z</time>
      </trkpt>
      <trkpt lat="42.726250" lon="-2.816250">
        <ele>708.107</ele>
        <time>2011-02-12T13:24:35Z</time>
      </trkpt>
      <trkpt lat="42.726240" lon="-2.816160">
        <ele>707.221</ele>
        <time>2011-02-12T13:24:40Z</time>
      </trkpt>
      <trkpt lat="42.726220" lon="-2.816080">
        <ele>708.142</ele>
        <time>2011-02-12T13:24:45Z</time>
      </trkpt>
      <trkpt lat="42.726190" lon="-2.816010">
        <ele>708.151</ele>
        <time>2011-02-12T13:24:50Z</time>
      </trkpt>
      <trkpt lat="42.726150" lon="-2.815950">
        <ele>707.244</ele>
        <time>2011-02-12T13:24:55Z</time>
      </trkpt>
      <trkpt lat="42.726120" lon="-2.815890">
        <ele>707.297</ele>
        <time>2011-02-12T13:25:00Z</time>
      </trkpt>
      <trkpt lat="42.726080" lon="-2.815820">
        <ele>707.268</ele>
        <time>2011-02-12T13:25:05Z</time>
      </trkpt>
      <trkpt lat="42.726060" lon="-2.815730">
        <ele>706.230</ele>
        <time>2011-02-12T13:25:10Z</time>
      </trkpt>
      <trkpt lat="42.726050" lon="-2.815650">
        <ele>705.722</ele>
        <time>2011-02-12T13:25:15Z</time>
      </trkpt>
      <trkpt lat="42.726030" lon="-2.815600">
        <ele>705.762</ele>
        <time>2011-02-12T13:25:20Z</time>
      </trkpt>
      <trkpt lat="42.726030" lon="-2.815600">
        <ele>705.708</ele>
        <time>2011-02-12T13:25:25Z</time>
      </trkpt>
      <trkpt lat="42.726030" lon="-2.815600">
        <ele>706.207</ele>
        <time>2011-02-12T13:25:30Z</time>
      </trkpt>
      <trkpt lat="42.726030" lon="-2.815590">
        <ele>705.324</ele>
        <time>2011-02-12T13:25:35Z</time>
      </trkpt>
      <trkpt lat="42.726020" lon="-2.815580">
        <ele>706.285</ele>
        <time>2011-02-12T13:25:40Z</time>
      </trkpt>
      <trkpt lat="42.726020" lon="-2.815580">
        <ele>705.764</ele>
        <time>2011-02-12T13:25:45Z</time>
      </trkpt>
      <trkpt lat="42.726010" lon="-2.815580">
        <ele>705.747</ele>
        <time>2011-02-12T13:25:50Z</time>
      </trkpt>
      <trkpt lat="42.726010" lon="-2.815580">
        <ele>705.740</ele>
        <time>2011-02-12T13:25:55Z</time>
      </trkpt>
      <trkpt lat="42.726010" lon="-2.815580">
        <ele>706.281</ele>
        <time>2011-02-12T13:26:00Z</time>
      </trkpt>
      <trkpt lat="42.726000" lon="-2.815580">
        <ele>705.323</ele>
        <time>2011-02-12T13:26:05Z</time>
      </trkpt>
      <trkpt lat="42.726000" lon="-2.815580">
        <ele>705.797</ele>
        <time>2011-02-12T13:26:10Z</time>
      </trkpt>
      <trkpt lat="42.726000" lon="-2.815580">
        <ele>705.723</ele>
        <time>2011-02-12T13:26:15Z</time>
      </trkpt>
      <trkpt lat="42.726000" lon="-2.815580">
        <ele>706.225</ele>
        <time>2011-02-12T13:26:20Z</time>
      </trkpt>
      <trkpt lat="42.726000" lon="-2.815570">
        <ele>705.707</ele>
        <time>2011-02-12T13:26:25Z</time>
      </trkpt>
      <trkpt lat="42.726000" lon="-2.815570">
        <ele>705.751</ele>
        <time>2011-02-12T13:26:30Z</time>
      </trkpt>
      <trkpt lat="42.726000" lon="-2.815580">
        <ele>706.262</ele>
        <time>2011-02-12T13:26:35Z</time>
      </trkpt>
      <trkpt lat="42.726000" lon="-2.815570">
        <ele>705.771</ele>
        <time>2011-02-12T13:26:40Z</time>
      </trkpt>
      <trkpt lat="42.726000" lon="-2.815570">
        <ele>706.274</ele>
        <time>2011-02-12T13:26:45Z</time>
      </trkpt>
      <trkpt lat="42.726000" lon="-2.815570">
        <ele>706.297</ele>
        <time>2011-02-12T13:26:50Z</time>
      </trkpt>
      <trkpt lat="42.725990" lon="-2.815570">
        <ele>705.768</ele>
        <time>2011-02-12T13:26:55Z</time>
      </trkpt>
      <trkpt lat="42.725990" lon="-2.815570">
        <ele>706.280</ele>
        <time>2011-02-12T13:27:00Z</time>
      </trkpt>
      <trkpt lat="42.726000" lon="-2.815570">
        <ele>706.279</ele>
        <time>2011-02-12T13:27:05Z</time>
      </trkpt>
      <trkpt lat="42.726000" lon="-2.815570">
        <ele>705.705</ele>
        <time>2011-02-12T13:27:10Z</time>
      </trkpt>
      <trkpt lat="42.726000" lon="-2.815570">
        <ele>706.225</ele>
        <time>2011-02-12T13:27:15Z</time>
      </trkpt>
      <trkpt lat="42.726000" lon="-2.815570">
        <ele>706.207</ele>
        <time>2011-02-12T13:27:20Z</time>
      </trkpt>
      <trkpt lat="42.726010" lon="-2.815570">
        <ele>706.299</ele>
        <time>2011-02-12T13:27:25Z</time>
      </trkpt>
      <trkpt lat="42.726000" lon="-2.815580">
        <ele>706.240</ele>
        <time>2011-02-12T13:27:30Z</time>
      </trkpt>
      <trkpt lat="42.726000" lon="-2.815580">
        <ele>706.229</ele>
        <time>2011-02-12T13:27:35Z</time>
      </trkpt>
      <trkpt lat="42.726000" lon="-2.815580">
        <ele>706.222</ele>
        <time>2011-02-12T13:27:40Z</time>
      </trkpt>
      <trkpt lat="42.726000" lon="-2.815580">
        <ele>706.295</ele>
        <time>2011-02-12T13:27:45Z</time>
      </trkpt>
      <trkpt lat="42.726000" lon="-2.815580">
        <ele>705.776</ele>
        <time>2011-02-12T13:27:50Z</time>
      </trkpt>
      <trkpt lat="42.726000" lon="-2.815580">
        <ele>706.218</ele>
        <time>2011-02-12T13:27:55Z</time>
      </trkpt>
      <trkpt lat="42.725980" lon="-2.815570">
        <ele>706.254</ele>
        <time>2011-02-12T13:28:00Z</time>
      </trkpt>
      <trkpt lat="42.725960" lon="-2.815500">
        <ele>705.356</ele>
        <time>2011-02-12T13:28:05Z</time>
      </trkpt>
      <trkpt lat="42.725950" lon="-2.815420">
        <ele>704.311</ele>
        <time>2011-02-12T13:28:10Z</time>
      </trkpt>
      <trkpt lat="42.725950" lon="-2.815350">
        <ele>702.907</ele>
        <time>2011-02-12T13:28:15Z</time>
      </trkpt>
      <trkpt lat="42.725970" lon="-2.815290">
        <ele>701.487</ele>
        <time>2011-02-12T13:28:20Z</time>
      </trkpt>
      <trkpt lat="42.725990" lon="-2.815230">
        <ele>700.948</ele>
        <time>2011-02-12T13:28:25Z</time>
      </trkpt>
      <trkpt lat="42.726020" lon="-2.815160">
        <ele>700.057</ele>
        <time>2011-02-12T13:28:30Z</time>
      </trkpt>
      <trkpt lat="42.726040" lon="-2.815090">
        <ele>699.540</ele>
        <time>2011-02-12T13:28:35Z</time>
      </trkpt>
      <trkpt lat="42.726050" lon="-2.815030">
        <ele>697.113</ele>
        <time>2011-02-12T13:28:40Z</time>
      </trkpt>
      <trkpt lat="42.726060" lon="-2.814960">
        <ele>695.694</ele>
        <time>2011-02-12T13:28:45Z</time>
      </trkpt>
      <trkpt lat="42.726080" lon="-2.814890">
        <ele>694.776</ele>
        <time>2011-02-12T13:28:50Z</time>
      </trkpt>
      <trkpt lat="42.726110" lon="-2.814830">
        <ele>694.271</ele>
        <time>2011-02-12T13:28:55Z</time>
      </trkpt>
      <trkpt lat="42.726140" lon="-2.814750">
        <ele>691.841</ele>
        <time>2011-02-12T13:29:00Z</time>
      </trkpt>
      <trkpt lat="42.726150" lon="-2.814670">
        <ele>690.915</ele>
        <time>2011-02-12T13:29:05Z</time>
      </trkpt>
      <trkpt lat="42.726170" lon="-2.814590">
        <ele>690.407</ele>
        <time>2011-02-12T13:29:10Z</time>
      </trkpt>
      <trkpt lat="42.726210" lon="-2.814520">
        <ele>689.959</ele>
        <time>2011-02-12T13:29:15Z</time>
      </trkpt>
      <trkpt lat="42.726230" lon="-2.814440">
        <ele>688.040</ele>
        <time>2011-02-12T13:29:20Z</time>
      </trkpt>
      <trkpt lat="42.726240" lon="-2.814360">
        <ele>686.559</ele>
        <time>2011-02-12T13:29:25Z</time>
      </trkpt>
      <trkpt lat="42.726250" lon="-2.814270">
        <ele>686.562</ele>
        <time>2011-02-12T13:29:30Z</time>
      </trkpt>
      <trkpt lat="42.726260" lon="-2.814190">
        <ele>686.035</ele>
        <time>2011-02-12T13:29:35Z</time>
      </trkpt>
      <trkpt lat="42.726260" lon="-2.814110">
        <ele>685.656</ele>
        <time>2011-02-12T13:29:40Z</time>
      </trkpt>
      <trkpt lat="42.726260" lon="-2.814050">
        <ele>685.178</ele>
        <time>2011-02-12T13:29:45Z</time>
      </trkpt>
      <trkpt lat="42.726240" lon="-2.814050">
        <ele>684.116</ele>
        <time>2011-02-12T13:29:50Z</time>
      </trkpt>
      <trkpt lat="42.726230" lon="-2.814080">
        <ele>683.176</ele>
        <time>2011-02-12T13:29:55Z</time>
      </trkpt>
      <trkpt lat="42.726210" lon="-2.814090">
        <ele>682.213</ele>
        <time>2011-02-12T13:30:00Z</time>
      </trkpt>
      <trkpt lat="42.726210" lon="-2.814050">
        <ele>681.707</ele>
        <time>2011-02-12T13:30:05Z</time>
      </trkpt>
      <trkpt lat="42.726210" lon="-2.814030">
        <ele>682.223</ele>
        <time>2011-02-12T13:30:10Z</time>
      </trkpt>
      <trkpt lat="42.726200" lon="-2.813980">
        <ele>681.214</ele>
        <time>2011-02-12T13:30:15Z</time>
      </trkpt>
      <trkpt lat="42.726190" lon="-2.813930">
        <ele>679.373</ele>
        <time>2011-02-12T13:30:20Z</time>
      </trkpt>
      <trkpt lat="42.726150" lon="-2.813890">
        <ele>677.956</ele>
        <time>2011-02-12T13:30:25Z</time>
      </trkpt>
      <trkpt lat="42.726120" lon="-2.813840">
        <ele>676.949</ele>
        <time>2011-02-12T13:30:30Z</time>
      </trkpt>
      <trkpt lat="42.726090" lon="-2.813790">
        <ele>675.090</ele>
        <time>2011-02-12T13:30:35Z</time>
      </trkpt>
      <trkpt lat="42.726050" lon="-2.813750">
        <ele>673.532</ele>
        <time>2011-02-12T13:30:40Z</time>
      </trkpt>
      <trkpt lat="42.726000" lon="-2.813730">
        <ele>672.676</ele>
        <time>2011-02-12T13:30:45Z</time>
      </trkpt>
      <trkpt lat="42.725960" lon="-2.813690">
        <ele>671.690</ele>
        <time>2011-02-12T13:30:50Z</time>
      </trkpt>
      <trkpt lat="42.725920" lon="-2.813630">
        <ele>670.719</ele>
        <time>2011-02-12T13:30:55Z</time>
      </trkpt>
      <trkpt lat="42.725880" lon="-2.813580">
        <ele>670.207</ele>
        <time>2011-02-12T13:31:00Z</time>
      </trkpt>
      <trkpt lat="42.725860" lon="-2.813530">
        <ele>669.239</ele>
        <time>2011-02-12T13:31:05Z</time>
      </trkpt>
      <trkpt lat="42.725820" lon="-2.813500">
        <ele>669.240</ele>
        <time>2011-02-12T13:31:10Z</time>
      </trkpt>
      <trkpt lat="42.725780" lon="-2.813460">
        <ele>668.789</ele>
        <time>2011-02-12T13:31:15Z</time>
      </trkpt>
      <trkpt lat="42.725750" lon="-2.813440">
        <ele>667.812</ele>
        <time>2011-02-12T13:31:20Z</time>
      </trkpt>
      <trkpt lat="42.725750" lon="-2.813440">
        <ele>667.345</ele>
        <time>2011-02-12T13:31:25Z</time>
      </trkpt>
      <trkpt lat="42.725760" lon="-2.813430">
        <ele>667.866</ele>
        <time>2011-02-12T13:31:30Z</time>
      </trkpt>
      <trkpt lat="42.725770" lon="-2.813430">
        <ele>668.238</ele>
        <time>2011-02-12T13:31:35Z</time>
      </trkpt>
      <trkpt lat="42.725760" lon="-2.813420">
        <ele>667.876</ele>
        <time>2011-02-12T13:31:40Z</time>
      </trkpt>
      <trkpt lat="42.725730" lon="-2.813370">
        <ele>666.890</ele>
        <time>2011-02-12T13:31:45Z</time>
      </trkpt>
      <trkpt lat="42.725700" lon="-2.813310">
        <ele>665.419</ele>
        <time>2011-02-12T13:31:50Z</time>
      </trkpt>
      <trkpt lat="42.725670" lon="-2.813240">
        <ele>664.907</ele>
        <time>2011-02-12T13:31:55Z</time>
      </trkpt>
      <trkpt lat="42.725640" lon="-2.813170">
        <ele>663.989</ele>
        <time>2011-02-12T13:32:00Z</time>
      </trkpt>
      <trkpt lat="42.725600" lon="-2.813110">
        <ele>663.940</ele>
        <time>2011-02-12T13:32:05Z</time>
      </trkpt>
      <trkpt lat="42.725570" lon="-2.813040">
        <ele>662.599</ele>
        <time>2011-02-12T13:32:10Z</time>
      </trkpt>
      <trkpt lat="42.725530" lon="-2.812980">
        <ele>662.092</ele>
        <time>2011-02-12T13:32:15Z</time>
      </trkpt>
      <trkpt lat="42.725490" lon="-2.812910">
        <ele>659.115</ele>
        <time>2011-02-12T13:32:20Z</time>
      </trkpt>
      <trkpt lat="42.725450" lon="-2.812850">
        <ele>657.746</ele>
        <time>2011-02-12T13:32:25Z</time>
      </trkpt>
      <trkpt lat="42.725410" lon="-2.812780">
        <ele>656.718</ele>
        <time>2011-02-12T13:32:30Z</time>
      </trkpt>
      <trkpt lat="42.725370" lon="-2.812720">
        <ele>655.742</ele>
        <time>2011-02-12T13:32:35Z</time>
      </trkpt>
      <trkpt lat="42.725340" lon="-2.812640">
        <ele>654.822</ele>
        <time>2011-02-12T13:32:40Z</time>
      </trkpt>
      <trkpt lat="42.725300" lon="-2.812570">
        <ele>653.814</ele>
        <time>2011-02-12T13:32:45Z</time>
      </trkpt>
      <trkpt lat="42.725270" lon="-2.812500">
        <ele>652.907</ele>
        <time>2011-02-12T13:32:50Z</time>
      </trkpt>
      <trkpt lat="42.725270" lon="-2.812480">
        <ele>652.466</ele>
        <time>2011-02-12T13:32:55Z</time>
      </trkpt>
      <trkpt lat="42.725250" lon="-2.812430">
        <ele>652.957</ele>
        <time>2011-02-12T13:33:00Z</time>
      </trkpt>
      <trkpt lat="42.725220" lon="-2.812360">
        <ele>652.456</ele>
        <time>2011-02-12T13:33:05Z</time>
      </trkpt>
      <trkpt lat="42.725200" lon="-2.812290">
        <ele>651.439</ele>
        <time>2011-02-12T13:33:10Z</time>
      </trkpt>
      <trkpt lat="42.725170" lon="-2.812220">
        <ele>651.412</ele>
        <time>2011-02-12T13:33:15Z</time>
      </trkpt>
      <trkpt lat="42.725140" lon="-2.812160">
        <ele>651.023</ele>
        <time>2011-02-12T13:33:20Z</time>
      </trkpt>
      <trkpt lat="42.725110" lon="-2.812080">
        <ele>651.015</ele>
        <time>2011-02-12T13:33:25Z</time>
      </trkpt>
      <trkpt lat="42.725080" lon="-2.812000">
        <ele>650.541</ele>
        <time>2011-02-12T13:33:30Z</time>
      </trkpt>
      <trkpt lat="42.725050" lon="-2.811930">
        <ele>650.081</ele>
        <time>2011-02-12T13:33:35Z</time>
      </trkpt>
      <trkpt lat="42.725020" lon="-2.811860">
        <ele>648.609</ele>
        <time>2011-02-12T13:33:40Z</time>
      </trkpt>
      <trkpt lat="42.724980" lon="-2.811780">
        <ele>648.107</ele>
        <time>2011-02-12T13:33:45Z</time>
      </trkpt>
      <trkpt lat="42.724940" lon="-2.811700">
        <ele>647.116</ele>
        <time>2011-02-12T13:33:50Z</time>
      </trkpt>
      <trkpt lat="42.724910" lon="-2.811610">
        <ele>646.657</ele>
        <time>2011-02-12T13:33:55Z</time>
      </trkpt>
      <trkpt lat="42.724880" lon="-2.811530">
        <ele>646.156</ele>
        <time>2011-02-12T13:34:00Z</time>
      </trkpt>
      <trkpt lat="42.724840" lon="-2.811450">
        <ele>645.779</ele>
        <time>2011-02-12T13:34:05Z</time>
      </trkpt>
      <trkpt lat="42.724810" lon="-2.811370">
        <ele>644.712</ele>
        <time>2011-02-12T13:34:10Z</time>
      </trkpt>
      <trkpt lat="42.724780" lon="-2.811280">
        <ele>644.283</ele>
        <time>2011-02-12T13:34:15Z</time>
      </trkpt>
      <trkpt lat="42.724740" lon="-2.811200">
        <ele>642.815</ele>
        <time>2011-02-12T13:34:20Z</time>
      </trkpt>
      <trkpt lat="42.724710" lon="-2.811130">
        <ele>641.362</ele>
        <time>2011-02-12T13:34:25Z</time>
      </trkpt>
      <trkpt lat="42.724670" lon="-2.811050">
        <ele>639.983</ele>
        <time>2011-02-12T13:34:30Z</time>
      </trkpt>
      <trkpt lat="42.724630" lon="-2.810980">
        <ele>639.411</ele>
        <time>2011-02-12T13:34:35Z</time>
      </trkpt>
      <trkpt lat="42.724590" lon="-2.810910">
        <ele>638.907</ele>
        <time>2011-02-12T13:34:40Z</time>
      </trkpt>
      <trkpt lat="42.724560" lon="-2.810830">
        <ele>638.528</ele>
        <time>2011-02-12T13:34:45Z</time>
      </trkpt>
      <trkpt lat="42.724520" lon="-2.810750">
        <ele>638.069</ele>
        <time>2011-02-12T13:34:50Z</time>
      </trkpt>
      <trkpt lat="42.724500" lon="-2.810680">
        <ele>637.548</ele>
        <time>2011-02-12T13:34:55Z</time>
      </trkpt>
      <trkpt lat="42.724480" lon="-2.810600">
        <ele>637.041</ele>
        <time>2011-02-12T13:35:00Z</time>
      </trkpt>
      <trkpt lat="42.724460" lon="-2.810530">
        <ele>637.054</ele>
        <time>2011-02-12T13:35:05Z</time>
      </trkpt>
      <trkpt lat="42.724450" lon="-2.810510">
        <ele>637.035</ele>
        <time>2011-02-12T13:35:10Z</time>
      </trkpt>
      <trkpt lat="42.724440" lon="-2.810450">
        <ele>636.177</ele>
        <time>2011-02-12T13:35:15Z</time>
      </trkpt>
      <trkpt lat="42.724420" lon="-2.810350">
        <ele>636.143</ele>
        <time>2011-02-12T13:35:20Z</time>
      </trkpt>
      <trkpt lat="42.724410" lon="-2.810260">
        <ele>636.564</ele>
        <time>2011-02-12T13:35:25Z</time>
      </trkpt>
      <trkpt lat="42.724400" lon="-2.810220">
        <ele>636.510</ele>
        <time>2011-02-12T13:35:30Z</time>
      </trkpt>
      <trkpt lat="42.724399" lon="-2.810196">
        <ele>636.107</ele>
        <time>2011-02-12T13:35:45Z</time>
      </trkpt>
      <trkpt lat="42.724403" lon="-2.810172">
        <ele>636.156</ele>
        <time>2011-02-12T13:35:55Z</time>
      </trkpt>
      <trkpt lat="42.724403" lon="-2.810141">
        <ele>636.557</ele>
        <time>2011-02-12T13:36:10Z</time>
      </trkpt>
      <trkpt lat="42.724390" lon="-2.810050">
        <ele>636.566</ele>
        <time>2011-02-12T13:36:15Z</time>
      </trkpt>
      <trkpt lat="42.724394" lon="-2.809958">
        <ele>636.179</ele>
        <time>2011-02-12T13:36:20Z</time>
      </trkpt>
      <trkpt lat="42.724400" lon="-2.809910">
        <ele>636.132</ele>
        <time>2011-02-12T13:36:25Z</time>
      </trkpt>
      <trkpt lat="42.724390" lon="-2.809820">
        <ele>635.653</ele>
        <time>2011-02-12T13:36:30Z</time>
      </trkpt>
      <trkpt lat="42.724380" lon="-2.809750">
        <ele>635.175</ele>
        <time>2011-02-12T13:36:35Z</time>
      </trkpt>
      <trkpt lat="42.724370" lon="-2.809670">
        <ele>634.672</ele>
        <time>2011-02-12T13:36:40Z</time>
      </trkpt>
      <trkpt lat="42.724350" lon="-2.809590">
        <ele>633.613</ele>
        <time>2011-02-12T13:36:45Z</time>
      </trkpt>
      <trkpt lat="42.724340" lon="-2.809500">
        <ele>633.614</ele>
        <time>2011-02-12T13:36:50Z</time>
      </trkpt>
      <trkpt lat="42.724320" lon="-2.809410">
        <ele>632.207</ele>
        <time>2011-02-12T13:36:55Z</time>
      </trkpt>
      <trkpt lat="42.724300" lon="-2.809320">
        <ele>632.229</ele>
        <time>2011-02-12T13:37:00Z</time>
      </trkpt>
      <trkpt lat="42.724280" lon="-2.809240">
        <ele>631.720</ele>
        <time>2011-02-12T13:37:05Z</time>
      </trkpt>
      <trkpt lat="42.724250" lon="-2.809160">
        <ele>630.379</ele>
        <time>2011-02-12T13:37:10Z</time>
      </trkpt>
      <trkpt lat="42.724240" lon="-2.809070">
        <ele>629.342</ele>
        <time>2011-02-12T13:37:15Z</time>
      </trkpt>
      <trkpt lat="42.724230" lon="-2.808990">
        <ele>628.875</ele>
        <time>2011-02-12T13:37:20Z</time>
      </trkpt>
      <trkpt lat="42.724230" lon="-2.808900">
        <ele>627.416</ele>
        <time>2011-02-12T13:37:25Z</time>
      </trkpt>
      <trkpt lat="42.724230" lon="-2.808810">
        <ele>626.468</ele>
        <time>2011-02-12T13:37:30Z</time>
      </trkpt>
      <trkpt lat="42.724230" lon="-2.808730">
        <ele>626.456</ele>
        <time>2011-02-12T13:37:35Z</time>
      </trkpt>
      <trkpt lat="42.724240" lon="-2.808640">
        <ele>626.059</ele>
        <time>2011-02-12T13:37:40Z</time>
      </trkpt>
      <trkpt lat="42.724240" lon="-2.808560">
        <ele>625.514</ele>
        <time>2011-02-12T13:37:45Z</time>
      </trkpt>
      <trkpt lat="42.724240" lon="-2.808470">
        <ele>625.007</ele>
        <time>2011-02-12T13:37:50Z</time>
      </trkpt>
      <trkpt lat="42.724240" lon="-2.808380">
        <ele>625.537</ele>
        <time>2011-02-12T13:37:55Z</time>
      </trkpt>
      <trkpt lat="42.724230" lon="-2.808290">
        <ele>624.588</ele>
        <time>2011-02-12T13:38:00Z</time>
      </trkpt>
      <trkpt lat="42.724230" lon="-2.808200">
        <ele>624.527</ele>
        <time>2011-02-12T13:38:05Z</time>
      </trkpt>
      <trkpt lat="42.724200" lon="-2.808120">
        <ele>624.540</ele>
        <time>2011-02-12T13:38:10Z</time>
      </trkpt>
      <trkpt lat="42.724150" lon="-2.808060">
        <ele>623.653</ele>
        <time>2011-02-12T13:38:15Z</time>
      </trkpt>
      <trkpt lat="42.724110" lon="-2.808010">
        <ele>623.144</ele>
        <time>2011-02-12T13:38:20Z</time>
      </trkpt>
      <trkpt lat="42.724060" lon="-2.807960">
        <ele>620.776</ele>
        <time>2011-02-12T13:38:25Z</time>
      </trkpt>
      <trkpt lat="42.724040" lon="-2.807900">
        <ele>619.799</ele>
        <time>2011-02-12T13:38:30Z</time>
      </trkpt>
      <trkpt lat="42.724030" lon="-2.807820">
        <ele>619.207</ele>
        <time>2011-02-12T13:38:35Z</time>
      </trkpt>
      <trkpt lat="42.724040" lon="-2.807780">
        <ele>619.227</ele>
        <time>2011-02-12T13:38:40Z</time>
      </trkpt>
      <trkpt lat="42.724050" lon="-2.807770">
        <ele>618.707</ele>
        <time>2011-02-12T13:38:45Z</time>
      </trkpt>
      <trkpt lat="42.724040" lon="-2.807780">
        <ele>618.731</ele>
        <time>2011-02-12T13:38:50Z</time>
      </trkpt>
      <trkpt lat="42.724040" lon="-2.807780">
        <ele>618.712</ele>
        <time>2011-02-12T13:38:55Z</time>
      </trkpt>
      <trkpt lat="42.724040" lon="-2.807780">
        <ele>618.761</ele>
        <time>2011-02-12T13:39:00Z</time>
      </trkpt>
      <trkpt lat="42.724080" lon="-2.807760">
        <ele>619.274</ele>
        <time>2011-02-12T13:39:05Z</time>
      </trkpt>
      <trkpt lat="42.724130" lon="-2.807710">
        <ele>619.767</ele>
        <time>2011-02-12T13:39:10Z</time>
      </trkpt>
      <trkpt lat="42.724170" lon="-2.807660">
        <ele>619.248</ele>
        <time>2011-02-12T13:39:15Z</time>
      </trkpt>
      <trkpt lat="42.724220" lon="-2.807610">
        <ele>619.260</ele>
        <time>2011-02-12T13:39:20Z</time>
      </trkpt>
      <trkpt lat="42.724270" lon="-2.807560">
        <ele>619.241</ele>
        <time>2011-02-12T13:39:25Z</time>
      </trkpt>
      <trkpt lat="42.724320" lon="-2.807520">
        <ele>619.281</ele>
        <time>2011-02-12T13:39:30Z</time>
      </trkpt>
      <trkpt lat="42.724370" lon="-2.807480">
        <ele>619.709</ele>
        <time>2011-02-12T13:39:35Z</time>
      </trkpt>
      <trkpt lat="42.724420" lon="-2.807430">
        <ele>619.707</ele>
        <time>2011-02-12T13:39:40Z</time>
      </trkpt>
      <trkpt lat="42.724470" lon="-2.807390">
        <ele>620.236</ele>
        <time>2011-02-12T13:39:45Z</time>
      </trkpt>
      <trkpt lat="42.724520" lon="-2.807340">
        <ele>620.237</ele>
        <time>2011-02-12T13:39:50Z</time>
      </trkpt>
      <trkpt lat="42.724580" lon="-2.807300">
        <ele>620.716</ele>
        <time>2011-02-12T13:39:55Z</time>
      </trkpt>
      <trkpt lat="42.724630" lon="-2.807250">
        <ele>621.269</ele>
        <time>2011-02-12T13:40:00Z</time>
      </trkpt>
      <trkpt lat="42.724680" lon="-2.807200">
        <ele>621.232</ele>
        <time>2011-02-12T13:40:05Z</time>
      </trkpt>
      <trkpt lat="42.724730" lon="-2.807150">
        <ele>621.623</ele>
        <time>2011-02-12T13:40:10Z</time>
      </trkpt>
      <trkpt lat="42.724780" lon="-2.807110">
        <ele>620.785</ele>
        <time>2011-02-12T13:40:15Z</time>
      </trkpt>
      <trkpt lat="42.724840" lon="-2.807050">
        <ele>621.248</ele>
        <time>2011-02-12T13:40:21Z</time>
      </trkpt>
      <trkpt lat="42.724890" lon="-2.807000">
        <ele>620.261</ele>
        <time>2011-02-12T13:40:26Z</time>
      </trkpt>
      <trkpt lat="42.724950" lon="-2.806960">
        <ele>620.717</ele>
        <time>2011-02-12T13:40:31Z</time>
      </trkpt>
      <trkpt lat="42.725000" lon="-2.806910">
        <ele>620.207</ele>
        <time>2011-02-12T13:40:36Z</time>
      </trkpt>
      <trkpt lat="42.725050" lon="-2.806870">
        <ele>619.766</ele>
        <time>2011-02-12T13:40:41Z</time>
      </trkpt>
      <trkpt lat="42.725110" lon="-2.806820">
        <ele>620.297</ele>
        <time>2011-02-12T13:40:46Z</time>
      </trkpt>
      <trkpt lat="42.725160" lon="-2.806780">
        <ele>619.246</ele>
        <time>2011-02-12T13:40:51Z</time>
      </trkpt>
      <trkpt lat="42.725210" lon="-2.806730">
        <ele>619.249</ele>
        <time>2011-02-12T13:40:56Z</time>
      </trkpt>
      <trkpt lat="42.725260" lon="-2.806690">
        <ele>619.232</ele>
        <time>2011-02-12T13:41:01Z</time>
      </trkpt>
      <trkpt lat="42.725320" lon="-2.806640">
        <ele>618.733</ele>
        <time>2011-02-12T13:41:06Z</time>
      </trkpt>
      <trkpt lat="42.725370" lon="-2.806600">
        <ele>619.295</ele>
        <time>2011-02-12T13:41:11Z</time>
      </trkpt>
      <trkpt lat="42.725420" lon="-2.806550">
        <ele>618.311</ele>
        <time>2011-02-12T13:41:16Z</time>
      </trkpt>
      <trkpt lat="42.725470" lon="-2.806500">
        <ele>618.721</ele>
        <time>2011-02-12T13:41:21Z</time>
      </trkpt>
      <trkpt lat="42.725520" lon="-2.806460">
        <ele>617.303</ele>
        <time>2011-02-12T13:41:26Z</time>
      </trkpt>
      <trkpt lat="42.725570" lon="-2.806420">
        <ele>616.807</ele>
        <time>2011-02-12T13:41:31Z</time>
      </trkpt>
      <trkpt lat="42.725630" lon="-2.806380">
        <ele>615.813</ele>
        <time>2011-02-12T13:41:36Z</time>
      </trkpt>
      <trkpt lat="42.725680" lon="-2.806330">
        <ele>615.414</ele>
        <time>2011-02-12T13:41:41Z</time>
      </trkpt>
      <trkpt lat="42.725730" lon="-2.806290">
        <ele>615.493</ele>
        <time>2011-02-12T13:41:46Z</time>
      </trkpt>
      <trkpt lat="42.725790" lon="-2.806250">
        <ele>614.936</ele>
        <time>2011-02-12T13:41:51Z</time>
      </trkpt>
      <trkpt lat="42.725850" lon="-2.806220">
        <ele>613.979</ele>
        <time>2011-02-12T13:41:56Z</time>
      </trkpt>
      <trkpt lat="42.725900" lon="-2.806180">
        <ele>613.930</ele>
        <time>2011-02-12T13:42:01Z</time>
      </trkpt>
      <trkpt lat="42.725960" lon="-2.806140">
        <ele>613.072</ele>
        <time>2011-02-12T13:42:06Z</time>
      </trkpt>
      <trkpt lat="42.726010" lon="-2.806100">
        <ele>613.095</ele>
        <time>2011-02-12T13:42:11Z</time>
      </trkpt>
      <trkpt lat="42.726060" lon="-2.806040">
        <ele>612.549</ele>
        <time>2011-02-12T13:42:16Z</time>
      </trkpt>
      <trkpt lat="42.726110" lon="-2.805980">
        <ele>612.023</ele>
        <time>2011-02-12T13:42:21Z</time>
      </trkpt>
      <trkpt lat="42.726150" lon="-2.805970">
        <ele>612.007</ele>
        <time>2011-02-12T13:42:26Z</time>
      </trkpt>
      <trkpt lat="42.726210" lon="-2.805990">
        <ele>612.011</ele>
        <time>2011-02-12T13:42:31Z</time>
      </trkpt>
      <trkpt lat="42.726270" lon="-2.806000">
        <ele>613.012</ele>
        <time>2011-02-12T13:42:36Z</time>
      </trkpt>
      <trkpt lat="42.726330" lon="-2.805990">
        <ele>613.561</ele>
        <time>2011-02-12T13:42:41Z</time>
      </trkpt>
      <trkpt lat="42.726390" lon="-2.805980">
        <ele>613.974</ele>
        <time>2011-02-12T13:42:46Z</time>
      </trkpt>
      <trkpt lat="42.726460" lon="-2.805970">
        <ele>613.547</ele>
        <time>2011-02-12T13:42:51Z</time>
      </trkpt>
      <trkpt lat="42.726520" lon="-2.805970">
        <ele>613.938</ele>
        <time>2011-02-12T13:42:56Z</time>
      </trkpt>
      <trkpt lat="42.726590" lon="-2.805960">
        <ele>613.940</ele>
        <time>2011-02-12T13:43:01Z</time>
      </trkpt>
      <trkpt lat="42.726650" lon="-2.805940">
        <ele>613.951</ele>
        <time>2011-02-12T13:43:06Z</time>
      </trkpt>
      <trkpt lat="42.726700" lon="-2.805910">
        <ele>613.901</ele>
        <time>2011-02-12T13:43:11Z</time>
      </trkpt>
      <trkpt lat="42.726740" lon="-2.805890">
        <ele>613.911</ele>
        <time>2011-02-12T13:43:16Z</time>
      </trkpt>
      <trkpt lat="42.726800" lon="-2.805860">
        <ele>613.007</ele>
        <time>2011-02-12T13:43:21Z</time>
      </trkpt>
      <trkpt lat="42.726820" lon="-2.805860">
        <ele>613.097</ele>
        <time>2011-02-12T13:43:26Z</time>
      </trkpt>
      <trkpt lat="42.726800" lon="-2.805890">
        <ele>612.558</ele>
        <time>2011-02-12T13:43:31Z</time>
      </trkpt>
      <trkpt lat="42.726840" lon="-2.805910">
        <ele>614.427</ele>
        <time>2011-02-12T13:43:36Z</time>
      </trkpt>
      <trkpt lat="42.726850" lon="-2.805910">
        <ele>614.450</ele>
        <time>2011-02-12T13:43:41Z</time>
      </trkpt>
      <trkpt lat="42.726890" lon="-2.805920">
        <ele>614.413</ele>
        <time>2011-02-12T13:43:46Z</time>
      </trkpt>
      <trkpt lat="42.726950" lon="-2.805890">
        <ele>613.994</ele>
        <time>2011-02-12T13:43:51Z</time>
      </trkpt>
      <trkpt lat="42.726980" lon="-2.805840">
        <ele>612.516</ele>
        <time>2011-02-12T13:43:56Z</time>
      </trkpt>
      <trkpt lat="42.727000" lon="-2.805830">
        <ele>612.064</ele>
        <time>2011-02-12T13:44:01Z</time>
      </trkpt>
      <trkpt lat="42.727000" lon="-2.805830">
        <ele>612.006</ele>
        <time>2011-02-12T13:44:06Z</time>
      </trkpt>
      <trkpt lat="42.727010" lon="-2.805810">
        <ele>612.516</ele>
        <time>2011-02-12T13:44:11Z</time>
      </trkpt>
      <trkpt lat="42.727010" lon="-2.805800">
        <ele>612.007</ele>
        <time>2011-02-12T13:44:16Z</time>
      </trkpt>
      <trkpt lat="42.727010" lon="-2.805800">
        <ele>611.658</ele>
        <time>2011-02-12T13:44:21Z</time>
      </trkpt>
      <trkpt lat="42.727010" lon="-2.805800">
        <ele>612.529</ele>
        <time>2011-02-12T13:44:26Z</time>
      </trkpt>
      <trkpt lat="42.727000" lon="-2.805790">
        <ele>613.088</ele>
        <time>2011-02-12T13:44:31Z</time>
      </trkpt>
      <trkpt lat="42.727000" lon="-2.805730">
        <ele>612.521</ele>
        <time>2011-02-12T13:44:36Z</time>
      </trkpt>
      <trkpt lat="42.726990" lon="-2.805680">
        <ele>612.534</ele>
        <time>2011-02-12T13:44:41Z</time>
      </trkpt>
      <trkpt lat="42.727010" lon="-2.805620">
        <ele>610.665</ele>
        <time>2011-02-12T13:44:46Z</time>
      </trkpt>
      <trkpt lat="42.727010" lon="-2.805610">
        <ele>610.127</ele>
        <time>2011-02-12T13:44:51Z</time>
      </trkpt>
      <trkpt lat="42.727010" lon="-2.805610">
        <ele>610.663</ele>
        <time>2011-02-12T13:44:56Z</time>
      </trkpt>
      <trkpt lat="42.727020" lon="-2.805620">
        <ele>610.644</ele>
        <time>2011-02-12T13:45:01Z</time>
      </trkpt>
      <trkpt lat="42.727020" lon="-2.805610">
        <ele>610.618</ele>
        <time>2011-02-12T13:45:06Z</time>
      </trkpt>
      <trkpt lat="42.727020" lon="-2.805620">
        <ele>610.107</ele>
        <time>2011-02-12T13:45:11Z</time>
      </trkpt>
      <trkpt lat="42.727030" lon="-2.805580">
        <ele>609.658</ele>
        <time>2011-02-12T13:45:16Z</time>
      </trkpt>
      <trkpt lat="42.727030" lon="-2.805510">
        <ele>609.189</ele>
        <time>2011-02-12T13:45:21Z</time>
      </trkpt>
      <trkpt lat="42.727040" lon="-2.805450">
        <ele>607.798</ele>
        <time>2011-02-12T13:45:26Z</time>
      </trkpt>
      <trkpt lat="42.727080" lon="-2.805390">
        <ele>607.211</ele>
        <time>2011-02-12T13:45:31Z</time>
      </trkpt>
      <trkpt lat="42.727100" lon="-2.805360">
        <ele>607.244</ele>
        <time>2011-02-12T13:45:36Z</time>
      </trkpt>
      <trkpt lat="42.727130" lon="-2.805360">
        <ele>606.715</ele>
        <time>2011-02-12T13:45:41Z</time>
      </trkpt>
      <trkpt lat="42.727160" lon="-2.805360">
        <ele>606.267</ele>
        <time>2011-02-12T13:45:46Z</time>
      </trkpt>
      <trkpt lat="42.727200" lon="-2.805350">
        <ele>605.845</ele>
        <time>2011-02-12T13:45:51Z</time>
      </trkpt>
      <trkpt lat="42.727190" lon="-2.805340">
        <ele>606.247</ele>
        <time>2011-02-12T13:45:56Z</time>
      </trkpt>
      <trkpt lat="42.727190" lon="-2.805340">
        <ele>606.211</ele>
        <time>2011-02-12T13:46:01Z</time>
      </trkpt>
      <trkpt lat="42.727180" lon="-2.805330">
        <ele>606.207</ele>
        <time>2011-02-12T13:46:06Z</time>
      </trkpt>
      <trkpt lat="42.727230" lon="-2.805320">
        <ele>605.886</ele>
        <time>2011-02-12T13:46:11Z</time>
      </trkpt>
      <trkpt lat="42.727230" lon="-2.805330">
        <ele>605.857</ele>
        <time>2011-02-12T13:46:16Z</time>
      </trkpt>
      <trkpt lat="42.727200" lon="-2.805320">
        <ele>605.866</ele>
        <time>2011-02-12T13:46:21Z</time>
      </trkpt>
      <trkpt lat="42.727200" lon="-2.805320">
        <ele>605.829</ele>
        <time>2011-02-12T13:46:26Z</time>
      </trkpt>
      <trkpt lat="42.727200" lon="-2.805320">
        <ele>605.872</ele>
        <time>2011-02-12T13:46:31Z</time>
      </trkpt>
      <trkpt lat="42.727200" lon="-2.805320">
        <ele>605.873</ele>
        <time>2011-02-12T13:46:36Z</time>
      </trkpt>
      <trkpt lat="42.727200" lon="-2.805340">
        <ele>606.245</ele>
        <time>2011-02-12T13:46:41Z</time>
      </trkpt>
      <trkpt lat="42.727200" lon="-2.805340">
        <ele>606.236</ele>
        <time>2011-02-12T13:46:46Z</time>
      </trkpt>
      <trkpt lat="42.727200" lon="-2.805320">
        <ele>605.817</ele>
        <time>2011-02-12T13:46:51Z</time>
      </trkpt>
      <trkpt lat="42.727210" lon="-2.805320">
        <ele>605.818</ele>
        <time>2011-02-12T13:46:56Z</time>
      </trkpt>
      <trkpt lat="42.727220" lon="-2.805320">
        <ele>606.207</ele>
        <time>2011-02-12T13:47:01Z</time>
      </trkpt>
      <trkpt lat="42.727250" lon="-2.805320">
        <ele>605.825</ele>
        <time>2011-02-12T13:47:06Z</time>
      </trkpt>
      <trkpt lat="42.727260" lon="-2.805310">
        <ele>605.876</ele>
        <time>2011-02-12T13:47:11Z</time>
      </trkpt>
      <trkpt lat="42.727260" lon="-2.805310">
        <ele>605.815</ele>
        <time>2011-02-12T13:47:16Z</time>
      </trkpt>
      <trkpt lat="42.727240" lon="-2.805330">
        <ele>606.278</ele>
        <time>2011-02-12T13:47:21Z</time>
      </trkpt>
      <trkpt lat="42.727230" lon="-2.805340">
        <ele>605.871</ele>
        <time>2011-02-12T13:47:26Z</time>
      </trkpt>
      <trkpt lat="42.727240" lon="-2.805330">
        <ele>605.822</ele>
        <time>2011-02-12T13:47:31Z</time>
      </trkpt>
      <trkpt lat="42.727240" lon="-2.805330">
        <ele>605.824</ele>
        <time>2011-02-12T13:47:36Z</time>
      </trkpt>
      <trkpt lat="42.727250" lon="-2.805330">
        <ele>605.886</ele>
        <time>2011-02-12T13:47:41Z</time>
      </trkpt>
      <trkpt lat="42.727250" lon="-2.805320">
        <ele>605.360</ele>
        <time>2011-02-12T13:47:46Z</time>
      </trkpt>
      <trkpt lat="42.727250" lon="-2.805330">
        <ele>605.326</ele>
        <time>2011-02-12T13:47:51Z</time>
      </trkpt>
      <trkpt lat="42.727250" lon="-2.805330">
        <ele>605.307</ele>
        <time>2011-02-12T13:47:56Z</time>
      </trkpt>
      <trkpt lat="42.727250" lon="-2.805330">
        <ele>605.360</ele>
        <time>2011-02-12T13:48:01Z</time>
      </trkpt>
      <trkpt lat="42.727250" lon="-2.805330">
        <ele>605.851</ele>
        <time>2011-02-12T13:48:06Z</time>
      </trkpt>
      <trkpt lat="42.727240" lon="-2.805330">
        <ele>606.240</ele>
        <time>2011-02-12T13:48:11Z</time>
      </trkpt>
      <trkpt lat="42.727240" lon="-2.805340">
        <ele>605.893</ele>
        <time>2011-02-12T13:48:16Z</time>
      </trkpt>
      <trkpt lat="42.727240" lon="-2.805340">
        <ele>605.816</ele>
        <time>2011-02-12T13:48:21Z</time>
      </trkpt>
      <trkpt lat="42.727240" lon="-2.805340">
        <ele>605.847</ele>
        <time>2011-02-12T13:48:26Z</time>
      </trkpt>
      <trkpt lat="42.727240" lon="-2.805330">
        <ele>606.259</ele>
        <time>2011-02-12T13:48:31Z</time>
      </trkpt>
      <trkpt lat="42.727240" lon="-2.805330">
        <ele>606.217</ele>
        <time>2011-02-12T13:48:36Z</time>
      </trkpt>
      <trkpt lat="42.727240" lon="-2.805340">
        <ele>606.287</ele>
        <time>2011-02-12T13:48:41Z</time>
      </trkpt>
      <trkpt lat="42.727240" lon="-2.805340">
        <ele>606.215</ele>
        <time>2011-02-12T13:48:46Z</time>
      </trkpt>
      <trkpt lat="42.727250" lon="-2.805350">
        <ele>606.707</ele>
        <time>2011-02-12T13:48:51Z</time>
      </trkpt>
      <trkpt lat="42.727260" lon="-2.805350">
        <ele>606.763</ele>
        <time>2011-02-12T13:48:56Z</time>
      </trkpt>
      <trkpt lat="42.727260" lon="-2.805350">
        <ele>606.734</ele>
        <time>2011-02-12T13:49:01Z</time>
      </trkpt>
      <trkpt lat="42.727260" lon="-2.805350">
        <ele>606.753</ele>
        <time>2011-02-12T13:49:06Z</time>
      </trkpt>
      <trkpt lat="42.727260" lon="-2.805350">
        <ele>606.716</ele>
        <time>2011-02-12T13:49:11Z</time>
      </trkpt>
      <trkpt lat="42.727250" lon="-2.805350">
        <ele>607.249</ele>
        <time>2011-02-12T13:49:16Z</time>
      </trkpt>
      <trkpt lat="42.727250" lon="-2.805350">
        <ele>607.780</ele>
        <time>2011-02-12T13:49:21Z</time>
      </trkpt>
      <trkpt lat="42.727250" lon="-2.805350">
        <ele>607.242</ele>
        <time>2011-02-12T13:49:26Z</time>
      </trkpt>
      <trkpt lat="42.727250" lon="-2.805340">
        <ele>607.766</ele>
        <time>2011-02-12T13:49:31Z</time>
      </trkpt>
      <trkpt lat="42.727250" lon="-2.805340">
        <ele>607.729</ele>
        <time>2011-02-12T13:49:36Z</time>
      </trkpt>
      <trkpt lat="42.727250" lon="-2.805340">
        <ele>607.221</ele>
        <time>2011-02-12T13:49:41Z</time>
      </trkpt>
      <trkpt lat="42.727250" lon="-2.805340">
        <ele>607.207</ele>
        <time>2011-02-12T13:49:46Z</time>
      </trkpt>
      <trkpt lat="42.727250" lon="-2.805340">
        <ele>606.738</ele>
        <time>2011-02-12T13:49:51Z</time>
      </trkpt>
      <trkpt lat="42.727250" lon="-2.805340">
        <ele>607.239</ele>
        <time>2011-02-12T13:49:56Z</time>
      </trkpt>
      <trkpt lat="42.727250" lon="-2.805340">
        <ele>606.788</ele>
        <time>2011-02-12T13:50:01Z</time>
      </trkpt>
      <trkpt lat="42.727250" lon="-2.805340">
        <ele>606.731</ele>
        <time>2011-02-12T13:50:06Z</time>
      </trkpt>
      <trkpt lat="42.727250" lon="-2.805340">
        <ele>606.784</ele>
        <time>2011-02-12T13:50:11Z</time>
      </trkpt>
      <trkpt lat="42.727250" lon="-2.805340">
        <ele>606.765</ele>
        <time>2011-02-12T13:50:16Z</time>
      </trkpt>
      <trkpt lat="42.727260" lon="-2.805360">
        <ele>606.747</ele>
        <time>2011-02-12T13:50:21Z</time>
      </trkpt>
      <trkpt lat="42.727260" lon="-2.805360">
        <ele>606.795</ele>
        <time>2011-02-12T13:50:26Z</time>
      </trkpt>
      <trkpt lat="42.727250" lon="-2.805360">
        <ele>607.249</ele>
        <time>2011-02-12T13:50:31Z</time>
      </trkpt>
      <trkpt lat="42.727250" lon="-2.805350">
        <ele>606.723</ele>
        <time>2011-02-12T13:50:36Z</time>
      </trkpt>
      <trkpt lat="42.727250" lon="-2.805350">
        <ele>606.707</ele>
        <time>2011-02-12T13:50:41Z</time>
      </trkpt>
      <trkpt lat="42.727250" lon="-2.805350">
        <ele>606.721</ele>
        <time>2011-02-12T13:50:46Z</time>
      </trkpt>
      <trkpt lat="42.727250" lon="-2.805350">
        <ele>606.712</ele>
        <time>2011-02-12T13:50:51Z</time>
      </trkpt>
      <trkpt lat="42.727240" lon="-2.805350">
        <ele>607.261</ele>
        <time>2011-02-12T13:50:56Z</time>
      </trkpt>
      <trkpt lat="42.727250" lon="-2.805350">
        <ele>606.244</ele>
        <time>2011-02-12T13:51:01Z</time>
      </trkpt>
      <trkpt lat="42.727250" lon="-2.805350">
        <ele>606.737</ele>
        <time>2011-02-12T13:51:06Z</time>
      </trkpt>
      <trkpt lat="42.727240" lon="-2.805350">
        <ele>606.228</ele>
        <time>2011-02-12T13:51:11Z</time>
      </trkpt>
      <trkpt lat="42.727240" lon="-2.805350">
        <ele>606.270</ele>
        <time>2011-02-12T13:51:16Z</time>
      </trkpt>
      <trkpt lat="42.727240" lon="-2.805350">
        <ele>606.716</ele>
        <time>2011-02-12T13:51:21Z</time>
      </trkpt>
      <trkpt lat="42.727240" lon="-2.805350">
        <ele>606.276</ele>
        <time>2011-02-12T13:51:26Z</time>
      </trkpt>
      <trkpt lat="42.727230" lon="-2.805350">
        <ele>606.713</ele>
        <time>2011-02-12T13:51:31Z</time>
      </trkpt>
      <trkpt lat="42.727240" lon="-2.805340">
        <ele>606.707</ele>
        <time>2011-02-12T13:51:36Z</time>
      </trkpt>
      <trkpt lat="42.727230" lon="-2.805340">
        <ele>606.793</ele>
        <time>2011-02-12T13:51:41Z</time>
      </trkpt>
      <trkpt lat="42.727240" lon="-2.805330">
        <ele>606.234</ele>
        <time>2011-02-12T13:51:46Z</time>
      </trkpt>
      <trkpt lat="42.727240" lon="-2.805330">
        <ele>606.223</ele>
        <time>2011-02-12T13:51:51Z</time>
      </trkpt>
      <trkpt lat="42.727250" lon="-2.805350">
        <ele>606.796</ele>
        <time>2011-02-12T13:51:56Z</time>
      </trkpt>
      <trkpt lat="42.727250" lon="-2.805350">
        <ele>606.779</ele>
        <time>2011-02-12T13:52:01Z</time>
      </trkpt>
      <trkpt lat="42.727240" lon="-2.805350">
        <ele>606.710</ele>
        <time>2011-02-12T13:52:06Z</time>
      </trkpt>
      <trkpt lat="42.727220" lon="-2.805360">
        <ele>606.752</ele>
        <time>2011-02-12T13:52:11Z</time>
      </trkpt>
      <trkpt lat="42.727220" lon="-2.805370">
        <ele>607.223</ele>
        <time>2011-02-12T13:52:16Z</time>
      </trkpt>
      <trkpt lat="42.727230" lon="-2.805370">
        <ele>607.283</ele>
        <time>2011-02-12T13:52:21Z</time>
      </trkpt>
      <trkpt lat="42.727220" lon="-2.805360">
        <ele>606.711</ele>
        <time>2011-02-12T13:52:26Z</time>
      </trkpt>
      <trkpt lat="42.727230" lon="-2.805360">
        <ele>607.207</ele>
        <time>2011-02-12T13:52:31Z</time>
      </trkpt>
      <trkpt lat="42.727240" lon="-2.805350">
        <ele>606.744</ele>
        <time>2011-02-12T13:52:36Z</time>
      </trkpt>
      <trkpt lat="42.727240" lon="-2.805340">
        <ele>607.775</ele>
        <time>2011-02-12T13:52:41Z</time>
      </trkpt>
      <trkpt lat="42.727270" lon="-2.805310">
        <ele>606.714</ele>
        <time>2011-02-12T13:52:46Z</time>
      </trkpt>
      <trkpt lat="42.727280" lon="-2.805300">
        <ele>606.237</ele>
        <time>2011-02-12T13:52:51Z</time>
      </trkpt>
      <trkpt lat="42.727280" lon="-2.805300">
        <ele>606.290</ele>
        <time>2011-02-12T13:52:56Z</time>
      </trkpt>
      <trkpt lat="42.727280" lon="-2.805300">
        <ele>606.291</ele>
        <time>2011-02-12T13:53:01Z</time>
      </trkpt>
      <trkpt lat="42.727280" lon="-2.805300">
        <ele>606.253</ele>
        <time>2011-02-12T13:53:06Z</time>
      </trkpt>
      <trkpt lat="42.727280" lon="-2.805300">
        <ele>606.784</ele>
        <time>2011-02-12T13:53:11Z</time>
      </trkpt>
      <trkpt lat="42.727280" lon="-2.805300">
        <ele>606.207</ele>
        <time>2011-02-12T13:53:16Z</time>
      </trkpt>
      <trkpt lat="42.727280" lon="-2.805310">
        <ele>606.217</ele>
        <time>2011-02-12T13:53:21Z</time>
      </trkpt>
      <trkpt lat="42.727280" lon="-2.805310">
        <ele>606.207</ele>
        <time>2011-02-12T13:53:26Z</time>
      </trkpt>
      <trkpt lat="42.727280" lon="-2.805300">
        <ele>606.770</ele>
        <time>2011-02-12T13:53:31Z</time>
      </trkpt>
      <trkpt lat="42.727290" lon="-2.805300">
        <ele>606.771</ele>
        <time>2011-02-12T13:53:36Z</time>
      </trkpt>
      <trkpt lat="42.727290" lon="-2.805310">
        <ele>606.730</ele>
        <time>2011-02-12T13:53:41Z</time>
      </trkpt>
      <trkpt lat="42.727300" lon="-2.805280">
        <ele>606.253</ele>
        <time>2011-02-12T13:53:46Z</time>
      </trkpt>
      <trkpt lat="42.727300" lon="-2.805220">
        <ele>605.376</ele>
        <time>2011-02-12T13:53:51Z</time>
      </trkpt>
      <trkpt lat="42.727260" lon="-2.805190">
        <ele>605.347</ele>
        <time>2011-02-12T13:53:56Z</time>
      </trkpt>
      <trkpt lat="42.727240" lon="-2.805170">
        <ele>605.359</ele>
        <time>2011-02-12T13:54:01Z</time>
      </trkpt>
      <trkpt lat="42.727190" lon="-2.805050">
        <ele>604.884</ele>
        <time>2011-02-12T13:54:21Z</time>
      </trkpt>
      <trkpt lat="42.727140" lon="-2.805040">
        <ele>603.807</ele>
        <time>2011-02-12T13:54:26Z</time>
      </trkpt>
      <trkpt lat="42.727080" lon="-2.805040">
        <ele>603.817</ele>
        <time>2011-02-12T13:54:31Z</time>
      </trkpt>
      <trkpt lat="42.727050" lon="-2.805030">
        <ele>603.807</ele>
        <time>2011-02-12T13:54:36Z</time>
      </trkpt>
      <trkpt lat="42.727020" lon="-2.804990">
        <ele>603.840</ele>
        <time>2011-02-12T13:54:41Z</time>
      </trkpt>
      <trkpt lat="42.726990" lon="-2.804920">
        <ele>603.471</ele>
        <time>2011-02-12T13:54:46Z</time>
      </trkpt>
      <trkpt lat="42.726960" lon="-2.804850">
        <ele>602.470</ele>
        <time>2011-02-12T13:54:51Z</time>
      </trkpt>
      <trkpt lat="42.726920" lon="-2.804790">
        <ele>602.423</ele>
        <time>2011-02-12T13:54:56Z</time>
      </trkpt>
      <trkpt lat="42.726880" lon="-2.804730">
        <ele>601.946</ele>
        <time>2011-02-12T13:55:01Z</time>
      </trkpt>
      <trkpt lat="42.726850" lon="-2.804660">
        <ele>601.467</ele>
        <time>2011-02-12T13:55:06Z</time>
      </trkpt>
      <trkpt lat="42.726810" lon="-2.804590">
        <ele>601.439</ele>
        <time>2011-02-12T13:55:11Z</time>
      </trkpt>
      <trkpt lat="42.726780" lon="-2.804540">
        <ele>601.437</ele>
        <time>2011-02-12T13:55:16Z</time>
      </trkpt>
      <trkpt lat="42.726750" lon="-2.804470">
        <ele>601.449</ele>
        <time>2011-02-12T13:55:21Z</time>
      </trkpt>
      <trkpt lat="42.726730" lon="-2.804410">
        <ele>601.413</ele>
        <time>2011-02-12T13:55:26Z</time>
      </trkpt>
      <trkpt lat="42.726710" lon="-2.804370">
        <ele>601.407</ele>
        <time>2011-02-12T13:55:31Z</time>
      </trkpt>
      <trkpt lat="42.726680" lon="-2.804300">
        <ele>601.015</ele>
        <time>2011-02-12T13:55:36Z</time>
      </trkpt>
      <trkpt lat="42.726650" lon="-2.804230">
        <ele>601.076</ele>
        <time>2011-02-12T13:55:41Z</time>
      </trkpt>
      <trkpt lat="42.726620" lon="-2.804150">
        <ele>600.555</ele>
        <time>2011-02-12T13:55:46Z</time>
      </trkpt>
      <trkpt lat="42.726580" lon="-2.804080">
        <ele>600.048</ele>
        <time>2011-02-12T13:55:51Z</time>
      </trkpt>
      <trkpt lat="42.726550" lon="-2.804000">
        <ele>599.551</ele>
        <time>2011-02-12T13:55:56Z</time>
      </trkpt>
      <trkpt lat="42.726520" lon="-2.803910">
        <ele>598.622</ele>
        <time>2011-02-12T13:56:01Z</time>
      </trkpt>
      <trkpt lat="42.726490" lon="-2.803840">
        <ele>598.644</ele>
        <time>2011-02-12T13:56:06Z</time>
      </trkpt>
      <trkpt lat="42.726450" lon="-2.803760">
        <ele>597.661</ele>
        <time>2011-02-12T13:56:11Z</time>
      </trkpt>
      <trkpt lat="42.726420" lon="-2.803700">
        <ele>597.621</ele>
        <time>2011-02-12T13:56:16Z</time>
      </trkpt>
      <trkpt lat="42.726380" lon="-2.803630">
        <ele>597.113</ele>
        <time>2011-02-12T13:56:21Z</time>
      </trkpt>
      <trkpt lat="42.726340" lon="-2.803560">
        <ele>596.207</ele>
        <time>2011-02-12T13:56:26Z</time>
      </trkpt>
      <trkpt lat="42.726300" lon="-2.803500">
        <ele>596.218</ele>
        <time>2011-02-12T13:56:31Z</time>
      </trkpt>
      <trkpt lat="42.726250" lon="-2.803430">
        <ele>595.779</ele>
        <time>2011-02-12T13:56:36Z</time>
      </trkpt>
      <trkpt lat="42.726200" lon="-2.803370">
        <ele>595.248</ele>
        <time>2011-02-12T13:56:41Z</time>
      </trkpt>
      <trkpt lat="42.726140" lon="-2.803310">
        <ele>594.731</ele>
        <time>2011-02-12T13:56:46Z</time>
      </trkpt>
      <trkpt lat="42.726110" lon="-2.803240">
        <ele>594.284</ele>
        <time>2011-02-12T13:56:51Z</time>
      </trkpt>
      <trkpt lat="42.726060" lon="-2.803180">
        <ele>593.395</ele>
        <time>2011-02-12T13:56:56Z</time>
      </trkpt>
      <trkpt lat="42.726020" lon="-2.803100">
        <ele>592.877</ele>
        <time>2011-02-12T13:57:01Z</time>
      </trkpt>
      <trkpt lat="42.725990" lon="-2.803020">
        <ele>592.329</ele>
        <time>2011-02-12T13:57:06Z</time>
      </trkpt>
      <trkpt lat="42.725950" lon="-2.802950">
        <ele>591.300</ele>
        <time>2011-02-12T13:57:11Z</time>
      </trkpt>
      <trkpt lat="42.725910" lon="-2.802880">
        <ele>590.920</ele>
        <time>2011-02-12T13:57:16Z</time>
      </trkpt>
      <trkpt lat="42.725880" lon="-2.802800">
        <ele>590.907</ele>
        <time>2011-02-12T13:57:21Z</time>
      </trkpt>
      <trkpt lat="42.725840" lon="-2.802720">
        <ele>590.444</ele>
        <time>2011-02-12T13:57:26Z</time>
      </trkpt>
      <trkpt lat="42.725810" lon="-2.802650">
        <ele>588.995</ele>
        <time>2011-02-12T13:57:31Z</time>
      </trkpt>
      <trkpt lat="42.725770" lon="-2.802570">
        <ele>588.524</ele>
        <time>2011-02-12T13:57:36Z</time>
      </trkpt>
      <trkpt lat="42.725750" lon="-2.802520">
        <ele>588.547</ele>
        <time>2011-02-12T13:57:41Z</time>
      </trkpt>
      <trkpt lat="42.725720" lon="-2.802450">
        <ele>588.550</ele>
        <time>2011-02-12T13:57:46Z</time>
      </trkpt>
      <trkpt lat="42.725690" lon="-2.802380">
        <ele>587.061</ele>
        <time>2011-02-12T13:57:51Z</time>
      </trkpt>
      <trkpt lat="42.725660" lon="-2.802310">
        <ele>586.513</ele>
        <time>2011-02-12T13:57:56Z</time>
      </trkpt>
      <trkpt lat="42.725620" lon="-2.802240">
        <ele>585.147</ele>
        <time>2011-02-12T13:58:01Z</time>
      </trkpt>
      <trkpt lat="42.725580" lon="-2.802170">
        <ele>584.629</ele>
        <time>2011-02-12T13:58:06Z</time>
      </trkpt>
      <trkpt lat="42.725530" lon="-2.802110">
        <ele>583.221</ele>
        <time>2011-02-12T13:58:11Z</time>
      </trkpt>
      <trkpt lat="42.725480" lon="-2.802070">
        <ele>583.207</ele>
        <time>2011-02-12T13:58:16Z</time>
      </trkpt>
      <trkpt lat="42.725420" lon="-2.802030">
        <ele>582.736</ele>
        <time>2011-02-12T13:58:21Z</time>
      </trkpt>
      <trkpt lat="42.725360" lon="-2.802010">
        <ele>582.237</ele>
        <time>2011-02-12T13:58:26Z</time>
      </trkpt>
      <trkpt lat="42.725290" lon="-2.802000">
        <ele>580.826</ele>
        <time>2011-02-12T13:58:31Z</time>
      </trkpt>
      <trkpt lat="42.725240" lon="-2.801980">
        <ele>580.359</ele>
        <time>2011-02-12T13:58:36Z</time>
      </trkpt>
      <trkpt lat="42.725170" lon="-2.801980">
        <ele>579.352</ele>
        <time>2011-02-12T13:58:41Z</time>
      </trkpt>
      <trkpt lat="42.725110" lon="-2.801970">
        <ele>577.973</ele>
        <time>2011-02-12T13:58:46Z</time>
      </trkpt>
      <trkpt lat="42.725020" lon="-2.801950">
        <ele>577.465</ele>
        <time>2011-02-12T13:58:51Z</time>
      </trkpt>
      <trkpt lat="42.724960" lon="-2.801900">
        <ele>576.947</ele>
        <time>2011-02-12T13:58:56Z</time>
      </trkpt>
      <trkpt lat="42.724910" lon="-2.801850">
        <ele>575.529</ele>
        <time>2011-02-12T13:59:01Z</time>
      </trkpt>
      <trkpt lat="42.724880" lon="-2.801770">
        <ele>574.521</ele>
        <time>2011-02-12T13:59:06Z</time>
      </trkpt>
      <trkpt lat="42.724870" lon="-2.801700">
        <ele>573.607</ele>
        <time>2011-02-12T13:59:11Z</time>
      </trkpt>
      <trkpt lat="42.724860" lon="-2.801620">
        <ele>573.116</ele>
        <time>2011-02-12T13:59:16Z</time>
      </trkpt>
      <trkpt lat="42.724840" lon="-2.801530">
        <ele>572.687</ele>
        <time>2011-02-12T13:59:21Z</time>
      </trkpt>
      <trkpt lat="42.724830" lon="-2.801440">
        <ele>571.716</ele>
        <time>2011-02-12T13:59:26Z</time>
      </trkpt>
      <trkpt lat="42.724820" lon="-2.801350">
        <ele>570.779</ele>
        <time>2011-02-12T13:59:31Z</time>
      </trkpt>
      <trkpt lat="42.724800" lon="-2.801260">
        <ele>569.792</ele>
        <time>2011-02-12T13:59:36Z</time>
      </trkpt>
      <trkpt lat="42.724790" lon="-2.801160">
        <ele>568.833</ele>
        <time>2011-02-12T13:59:41Z</time>
      </trkpt>
      <trkpt lat="42.724780" lon="-2.801070">
        <ele>568.855</ele>
        <time>2011-02-12T13:59:46Z</time>
      </trkpt>
      <trkpt lat="42.724760" lon="-2.800970">
        <ele>568.355</ele>
        <time>2011-02-12T13:59:51Z</time>
      </trkpt>
      <trkpt lat="42.724760" lon="-2.800870">
        <ele>567.307</ele>
        <time>2011-02-12T13:59:56Z</time>
      </trkpt>
      <trkpt lat="42.724740" lon="-2.800780">
        <ele>566.317</ele>
        <time>2011-02-12T14:00:01Z</time>
      </trkpt>
      <trkpt lat="42.724720" lon="-2.800690">
        <ele>565.907</ele>
        <time>2011-02-12T14:00:06Z</time>
      </trkpt>
      <trkpt lat="42.724710" lon="-2.800590">
        <ele>564.917</ele>
        <time>2011-02-12T14:00:11Z</time>
      </trkpt>
      <trkpt lat="42.724690" lon="-2.800490">
        <ele>563.948</ele>
        <time>2011-02-12T14:00:16Z</time>
      </trkpt>
      <trkpt lat="42.724680" lon="-2.800390">
        <ele>563.587</ele>
        <time>2011-02-12T14:00:21Z</time>
      </trkpt>
      <trkpt lat="42.724660" lon="-2.800300">
        <ele>563.550</ele>
        <time>2011-02-12T14:00:26Z</time>
      </trkpt>
      <trkpt lat="42.724640" lon="-2.800200">
        <ele>563.033</ele>
        <time>2011-02-12T14:00:31Z</time>
      </trkpt>
      <trkpt lat="42.724620" lon="-2.800110">
        <ele>562.584</ele>
        <time>2011-02-12T14:00:36Z</time>
      </trkpt>
      <trkpt lat="42.724610" lon="-2.800020">
        <ele>561.556</ele>
        <time>2011-02-12T14:00:41Z</time>
      </trkpt>
      <trkpt lat="42.724590" lon="-2.799930">
        <ele>561.141</ele>
        <time>2011-02-12T14:00:46Z</time>
      </trkpt>
      <trkpt lat="42.724580" lon="-2.799840">
        <ele>561.181</ele>
        <time>2011-02-12T14:00:51Z</time>
      </trkpt>
      <trkpt lat="42.724560" lon="-2.799750">
        <ele>561.109</ele>
        <time>2011-02-12T14:00:56Z</time>
      </trkpt>
      <trkpt lat="42.724550" lon="-2.799660">
        <ele>560.607</ele>
        <time>2011-02-12T14:01:01Z</time>
      </trkpt>
      <trkpt lat="42.724530" lon="-2.799570">
        <ele>560.626</ele>
        <time>2011-02-12T14:01:06Z</time>
      </trkpt>
      <trkpt lat="42.724520" lon="-2.799480">
        <ele>558.247</ele>
        <time>2011-02-12T14:01:11Z</time>
      </trkpt>
      <trkpt lat="42.724500" lon="-2.799390">
        <ele>558.286</ele>
        <time>2011-02-12T14:01:16Z</time>
      </trkpt>
      <trkpt lat="42.724480" lon="-2.799300">
        <ele>557.759</ele>
        <time>2011-02-12T14:01:21Z</time>
      </trkpt>
      <trkpt lat="42.724460" lon="-2.799210">
        <ele>557.262</ele>
        <time>2011-02-12T14:01:26Z</time>
      </trkpt>
      <trkpt lat="42.724440" lon="-2.799130">
        <ele>556.353</ele>
        <time>2011-02-12T14:01:31Z</time>
      </trkpt>
      <trkpt lat="42.724420" lon="-2.799040">
        <ele>555.855</ele>
        <time>2011-02-12T14:01:36Z</time>
      </trkpt>
      <trkpt lat="42.724400" lon="-2.798950">
        <ele>555.339</ele>
        <time>2011-02-12T14:01:41Z</time>
      </trkpt>
      <trkpt lat="42.724380" lon="-2.798860">
        <ele>554.801</ele>
        <time>2011-02-12T14:01:46Z</time>
      </trkpt>
      <trkpt lat="42.724370" lon="-2.798770">
        <ele>553.921</ele>
        <time>2011-02-12T14:01:51Z</time>
      </trkpt>
      <trkpt lat="42.724350" lon="-2.798680">
        <ele>552.407</ele>
        <time>2011-02-12T14:01:56Z</time>
      </trkpt>
      <trkpt lat="42.724330" lon="-2.798600">
        <ele>552.965</ele>
        <time>2011-02-12T14:02:01Z</time>
      </trkpt>
      <trkpt lat="42.724300" lon="-2.798510">
        <ele>551.956</ele>
        <time>2011-02-12T14:02:06Z</time>
      </trkpt>
      <trkpt lat="42.724270" lon="-2.798430">
        <ele>551.425</ele>
        <time>2011-02-12T14:02:11Z</time>
      </trkpt>
      <trkpt lat="42.724240" lon="-2.798350">
        <ele>550.588</ele>
        <time>2011-02-12T14:02:16Z</time>
      </trkpt>
      <trkpt lat="42.724200" lon="-2.798270">
        <ele>550.051</ele>
        <time>2011-02-12T14:02:21Z</time>
      </trkpt>
      <trkpt lat="42.724170" lon="-2.798190">
        <ele>549.062</ele>
        <time>2011-02-12T14:02:26Z</time>
      </trkpt>
      <trkpt lat="42.724140" lon="-2.798120">
        <ele>548.634</ele>
        <time>2011-02-12T14:02:31Z</time>
      </trkpt>
      <trkpt lat="42.724100" lon="-2.798040">
        <ele>548.139</ele>
        <time>2011-02-12T14:02:36Z</time>
      </trkpt>
      <trkpt lat="42.724070" lon="-2.797950">
        <ele>548.101</ele>
        <time>2011-02-12T14:02:41Z</time>
      </trkpt>
      <trkpt lat="42.724040" lon="-2.797880">
        <ele>547.121</ele>
        <time>2011-02-12T14:02:46Z</time>
      </trkpt>
      <trkpt lat="42.724010" lon="-2.797800">
        <ele>547.107</ele>
        <time>2011-02-12T14:02:51Z</time>
      </trkpt>
      <trkpt lat="42.723970" lon="-2.797710">
        <ele>546.715</ele>
        <time>2011-02-12T14:02:56Z</time>
      </trkpt>
      <trkpt lat="42.723940" lon="-2.797640">
        <ele>546.266</ele>
        <time>2011-02-12T14:03:01Z</time>
      </trkpt>
      <trkpt lat="42.723910" lon="-2.797550">
        <ele>545.235</ele>
        <time>2011-02-12T14:03:06Z</time>
      </trkpt>
      <trkpt lat="42.723880" lon="-2.797470">
        <ele>544.338</ele>
        <time>2011-02-12T14:03:11Z</time>
      </trkpt>
      <trkpt lat="42.723850" lon="-2.797390">
        <ele>544.381</ele>
        <time>2011-02-12T14:03:16Z</time>
      </trkpt>
      <trkpt lat="42.723810" lon="-2.797310">
        <ele>543.872</ele>
        <time>2011-02-12T14:03:21Z</time>
      </trkpt>
      <trkpt lat="42.723780" lon="-2.797220">
        <ele>542.884</ele>
        <time>2011-02-12T14:03:26Z</time>
      </trkpt>
      <trkpt lat="42.723740" lon="-2.797150">
        <ele>542.837</ele>
        <time>2011-02-12T14:03:31Z</time>
      </trkpt>
      <trkpt lat="42.723710" lon="-2.797070">
        <ele>541.449</ele>
        <time>2011-02-12T14:03:36Z</time>
      </trkpt>
      <trkpt lat="42.723680" lon="-2.796990">
        <ele>539.913</ele>
        <time>2011-02-12T14:03:41Z</time>
      </trkpt>
      <trkpt lat="42.723640" lon="-2.796920">
        <ele>538.907</ele>
        <time>2011-02-12T14:03:46Z</time>
      </trkpt>
      <trkpt lat="42.723600" lon="-2.796860">
        <ele>538.985</ele>
        <time>2011-02-12T14:03:51Z</time>
      </trkpt>
      <trkpt lat="42.723560" lon="-2.796800">
        <ele>538.566</ele>
        <time>2011-02-12T14:03:56Z</time>
      </trkpt>
      <trkpt lat="42.723510" lon="-2.796740">
        <ele>537.535</ele>
        <time>2011-02-12T14:04:01Z</time>
      </trkpt>
      <trkpt lat="42.723460" lon="-2.796680">
        <ele>537.518</ele>
        <time>2011-02-12T14:04:06Z</time>
      </trkpt>
      <trkpt lat="42.723420" lon="-2.796620">
        <ele>537.051</ele>
        <time>2011-02-12T14:04:11Z</time>
      </trkpt>
      <trkpt lat="42.723370" lon="-2.796560">
        <ele>536.592</ele>
        <time>2011-02-12T14:04:16Z</time>
      </trkpt>
      <trkpt lat="42.723320" lon="-2.796500">
        <ele>535.634</ele>
        <time>2011-02-12T14:04:21Z</time>
      </trkpt>
      <trkpt lat="42.723280" lon="-2.796440">
        <ele>534.613</ele>
        <time>2011-02-12T14:04:26Z</time>
      </trkpt>
      <trkpt lat="42.723230" lon="-2.796380">
        <ele>534.243</ele>
        <time>2011-02-12T14:04:31Z</time>
      </trkpt>
      <trkpt lat="42.723180" lon="-2.796310">
        <ele>532.707</ele>
        <time>2011-02-12T14:04:36Z</time>
      </trkpt>
      <trkpt lat="42.723140" lon="-2.796250">
        <ele>532.707</ele>
        <time>2011-02-12T14:04:41Z</time>
      </trkpt>
      <trkpt lat="42.723100" lon="-2.796180">
        <ele>531.843</ele>
        <time>2011-02-12T14:04:46Z</time>
      </trkpt>
      <trkpt lat="42.723050" lon="-2.796120">
        <ele>531.324</ele>
        <time>2011-02-12T14:04:51Z</time>
      </trkpt>
      <trkpt lat="42.723000" lon="-2.796050">
        <ele>530.843</ele>
        <time>2011-02-12T14:04:56Z</time>
      </trkpt>
      <trkpt lat="42.722960" lon="-2.795980">
        <ele>530.326</ele>
        <time>2011-02-12T14:05:01Z</time>
      </trkpt>
      <trkpt lat="42.722910" lon="-2.795920">
        <ele>529.329</ele>
        <time>2011-02-12T14:05:06Z</time>
      </trkpt>
      <trkpt lat="42.722870" lon="-2.795850">
        <ele>529.320</ele>
        <time>2011-02-12T14:05:11Z</time>
      </trkpt>
      <trkpt lat="42.722840" lon="-2.795780">
        <ele>527.472</ele>
        <time>2011-02-12T14:05:16Z</time>
      </trkpt>
      <trkpt lat="42.722810" lon="-2.795700">
        <ele>526.071</ele>
        <time>2011-02-12T14:05:21Z</time>
      </trkpt>
      <trkpt lat="42.722800" lon="-2.795620">
        <ele>525.041</ele>
        <time>2011-02-12T14:05:26Z</time>
      </trkpt>
      <trkpt lat="42.722790" lon="-2.795530">
        <ele>524.515</ele>
        <time>2011-02-12T14:05:31Z</time>
      </trkpt>
      <trkpt lat="42.722790" lon="-2.795440">
        <ele>523.607</ele>
        <time>2011-02-12T14:05:36Z</time>
      </trkpt>
      <trkpt lat="42.722800" lon="-2.795350">
        <ele>522.699</ele>
        <time>2011-02-12T14:05:41Z</time>
      </trkpt>
      <trkpt lat="42.722830" lon="-2.795270">
        <ele>520.290</ele>
        <time>2011-02-12T14:05:46Z</time>
      </trkpt>
      <trkpt lat="42.722870" lon="-2.795200">
        <ele>519.779</ele>
        <time>2011-02-12T14:05:51Z</time>
      </trkpt>
      <trkpt lat="42.722940" lon="-2.795140">
        <ele>519.312</ele>
        <time>2011-02-12T14:05:57Z</time>
      </trkpt>
      <trkpt lat="42.723010" lon="-2.795100">
        <ele>517.885</ele>
        <time>2011-02-12T14:06:02Z</time>
      </trkpt>
      <trkpt lat="42.723070" lon="-2.795040">
        <ele>515.446</ele>
        <time>2011-02-12T14:06:07Z</time>
      </trkpt>
      <trkpt lat="42.723090" lon="-2.794960">
        <ele>514.418</ele>
        <time>2011-02-12T14:06:12Z</time>
      </trkpt>
      <trkpt lat="42.723110" lon="-2.794880">
        <ele>514.045</ele>
        <time>2011-02-12T14:06:17Z</time>
      </trkpt>
      <trkpt lat="42.723100" lon="-2.794780">
        <ele>512.547</ele>
        <time>2011-02-12T14:06:22Z</time>
      </trkpt>
      <trkpt lat="42.723090" lon="-2.794700">
        <ele>512.011</ele>
        <time>2011-02-12T14:06:27Z</time>
      </trkpt>
      <trkpt lat="42.723050" lon="-2.794620">
        <ele>511.107</ele>
        <time>2011-02-12T14:06:32Z</time>
      </trkpt>
      <trkpt lat="42.723000" lon="-2.794570">
        <ele>510.656</ele>
        <time>2011-02-12T14:06:37Z</time>
      </trkpt>
      <trkpt lat="42.722940" lon="-2.794530">
        <ele>510.157</ele>
        <time>2011-02-12T14:06:42Z</time>
      </trkpt>
      <trkpt lat="42.722890" lon="-2.794490">
        <ele>509.656</ele>
        <time>2011-02-12T14:06:47Z</time>
      </trkpt>
      <trkpt lat="42.722850" lon="-2.794460">
        <ele>509.669</ele>
        <time>2011-02-12T14:06:52Z</time>
      </trkpt>
      <trkpt lat="42.722790" lon="-2.794430">
        <ele>509.652</ele>
        <time>2011-02-12T14:06:57Z</time>
      </trkpt>
      <trkpt lat="42.722740" lon="-2.794390">
        <ele>509.613</ele>
        <time>2011-02-12T14:07:02Z</time>
      </trkpt>
      <trkpt lat="42.722700" lon="-2.794360">
        <ele>509.275</ele>
        <time>2011-02-12T14:07:07Z</time>
      </trkpt>
      <trkpt lat="42.722650" lon="-2.794330">
        <ele>509.261</ele>
        <time>2011-02-12T14:07:12Z</time>
      </trkpt>
      <trkpt lat="42.722600" lon="-2.794300">
        <ele>508.721</ele>
        <time>2011-02-12T14:07:17Z</time>
      </trkpt>
      <trkpt lat="42.722540" lon="-2.794260">
        <ele>508.713</ele>
        <time>2011-02-12T14:07:22Z</time>
      </trkpt>
      <trkpt lat="42.722490" lon="-2.794220">
        <ele>508.207</ele>
        <time>2011-02-12T14:07:27Z</time>
      </trkpt>
      <trkpt lat="42.722430" lon="-2.794180">
        <ele>507.778</ele>
        <time>2011-02-12T14:07:32Z</time>
      </trkpt>
      <trkpt lat="42.722370" lon="-2.794130">
        <ele>507.739</ele>
        <time>2011-02-12T14:07:37Z</time>
      </trkpt>
      <trkpt lat="42.722310" lon="-2.794090">
        <ele>507.798</ele>
        <time>2011-02-12T14:07:42Z</time>
      </trkpt>
      <trkpt lat="42.722250" lon="-2.794050">
        <ele>507.741</ele>
        <time>2011-02-12T14:07:47Z</time>
      </trkpt>
      <trkpt lat="42.722200" lon="-2.794000">
        <ele>507.224</ele>
        <time>2011-02-12T14:07:52Z</time>
      </trkpt>
      <trkpt lat="42.722140" lon="-2.793960">
        <ele>506.895</ele>
        <time>2011-02-12T14:07:57Z</time>
      </trkpt>
      <trkpt lat="42.722090" lon="-2.793930">
        <ele>506.867</ele>
        <time>2011-02-12T14:08:02Z</time>
      </trkpt>
      <trkpt lat="42.722040" lon="-2.793890">
        <ele>506.895</ele>
        <time>2011-02-12T14:08:07Z</time>
      </trkpt>
      <trkpt lat="42.721980" lon="-2.793850">
        <ele>506.849</ele>
        <time>2011-02-12T14:08:12Z</time>
      </trkpt>
      <trkpt lat="42.721930" lon="-2.793800">
        <ele>506.823</ele>
        <time>2011-02-12T14:08:17Z</time>
      </trkpt>
      <trkpt lat="42.721880" lon="-2.793770">
        <ele>506.807</ele>
        <time>2011-02-12T14:08:22Z</time>
      </trkpt>
      <trkpt lat="42.721820" lon="-2.793730">
        <ele>506.371</ele>
        <time>2011-02-12T14:08:27Z</time>
      </trkpt>
      <trkpt lat="42.721760" lon="-2.793680">
        <ele>506.332</ele>
        <time>2011-02-12T14:08:32Z</time>
      </trkpt>
      <trkpt lat="42.721710" lon="-2.793670">
        <ele>506.311</ele>
        <time>2011-02-12T14:08:37Z</time>
      </trkpt>
      <trkpt lat="42.721660" lon="-2.793720">
        <ele>505.834</ele>
        <time>2011-02-12T14:08:42Z</time>
      </trkpt>
      <trkpt lat="42.721610" lon="-2.793790">
        <ele>505.857</ele>
        <time>2011-02-12T14:08:47Z</time>
      </trkpt>
      <trkpt lat="42.721560" lon="-2.793850">
        <ele>505.898</ele>
        <time>2011-02-12T14:08:52Z</time>
      </trkpt>
      <trkpt lat="42.721520" lon="-2.793910">
        <ele>505.880</ele>
        <time>2011-02-12T14:08:57Z</time>
      </trkpt>
      <trkpt lat="42.721470" lon="-2.793980">
        <ele>505.328</ele>
        <time>2011-02-12T14:09:02Z</time>
      </trkpt>
      <trkpt lat="42.721430" lon="-2.794040">
        <ele>505.889</ele>
        <time>2011-02-12T14:09:07Z</time>
      </trkpt>
      <trkpt lat="42.721380" lon="-2.794110">
        <ele>505.817</ele>
        <time>2011-02-12T14:09:12Z</time>
      </trkpt>
      <trkpt lat="42.721340" lon="-2.794170">
        <ele>505.307</ele>
        <time>2011-02-12T14:09:17Z</time>
      </trkpt>
      <trkpt lat="42.721290" lon="-2.794220">
        <ele>506.854</ele>
        <time>2011-02-12T14:09:22Z</time>
      </trkpt>
      <trkpt lat="42.721240" lon="-2.794280">
        <ele>504.855</ele>
        <time>2011-02-12T14:09:27Z</time>
      </trkpt>
      <trkpt lat="42.721200" lon="-2.794330">
        <ele>504.844</ele>
        <time>2011-02-12T14:09:32Z</time>
      </trkpt>
      <trkpt lat="42.721150" lon="-2.794380">
        <ele>504.877</ele>
        <time>2011-02-12T14:09:37Z</time>
      </trkpt>
      <trkpt lat="42.721100" lon="-2.794430">
        <ele>504.880</ele>
        <time>2011-02-12T14:09:42Z</time>
      </trkpt>
      <trkpt lat="42.721060" lon="-2.794480">
        <ele>504.841</ele>
        <time>2011-02-12T14:09:47Z</time>
      </trkpt>
      <trkpt lat="42.721020" lon="-2.794540">
        <ele>505.373</ele>
        <time>2011-02-12T14:09:52Z</time>
      </trkpt>
      <trkpt lat="42.720970" lon="-2.794590">
        <ele>505.339</ele>
        <time>2011-02-12T14:09:57Z</time>
      </trkpt>
      <trkpt lat="42.720920" lon="-2.794650">
        <ele>505.301</ele>
        <time>2011-02-12T14:10:02Z</time>
      </trkpt>
      <trkpt lat="42.720870" lon="-2.794700">
        <ele>505.321</ele>
        <time>2011-02-12T14:10:07Z</time>
      </trkpt>
      <trkpt lat="42.720830" lon="-2.794760">
        <ele>505.307</ele>
        <time>2011-02-12T14:10:12Z</time>
      </trkpt>
      <trkpt lat="42.720780" lon="-2.794820">
        <ele>505.365</ele>
        <time>2011-02-12T14:10:17Z</time>
      </trkpt>
      <trkpt lat="42.720730" lon="-2.794880">
        <ele>504.856</ele>
        <time>2011-02-12T14:10:22Z</time>
      </trkpt>
      <trkpt lat="42.720680" lon="-2.794930">
        <ele>505.385</ele>
        <time>2011-02-12T14:10:27Z</time>
      </trkpt>
      <trkpt lat="42.720630" lon="-2.794990">
        <ele>505.378</ele>
        <time>2011-02-12T14:10:32Z</time>
      </trkpt>
      <trkpt lat="42.720590" lon="-2.795050">
        <ele>504.821</ele>
        <time>2011-02-12T14:10:37Z</time>
      </trkpt>
      <trkpt lat="42.720550" lon="-2.795110">
        <ele>504.842</ele>
        <time>2011-02-12T14:10:42Z</time>
      </trkpt>
      <trkpt lat="42.720510" lon="-2.795160">
        <ele>505.374</ele>
        <time>2011-02-12T14:10:47Z</time>
      </trkpt>
      <trkpt lat="42.720470" lon="-2.795210">
        <ele>505.347</ele>
        <time>2011-02-12T14:10:52Z</time>
      </trkpt>
      <trkpt lat="42.720420" lon="-2.795270">
        <ele>505.329</ele>
        <time>2011-02-12T14:10:57Z</time>
      </trkpt>
      <trkpt lat="42.720380" lon="-2.795330">
        <ele>505.321</ele>
        <time>2011-02-12T14:11:02Z</time>
      </trkpt>
      <trkpt lat="42.720320" lon="-2.795390">
        <ele>505.307</ele>
        <time>2011-02-12T14:11:07Z</time>
      </trkpt>
      <trkpt lat="42.720270" lon="-2.795440">
        <ele>505.376</ele>
        <time>2011-02-12T14:11:12Z</time>
      </trkpt>
      <trkpt lat="42.720220" lon="-2.795500">
        <ele>505.327</ele>
        <time>2011-02-12T14:11:17Z</time>
      </trkpt>
      <trkpt lat="42.720170" lon="-2.795560">
        <ele>505.376</ele>
        <time>2011-02-12T14:11:22Z</time>
      </trkpt>
      <trkpt lat="42.720070" lon="-2.795690">
        <ele>504.419</ele>
        <time>2011-02-12T14:11:32Z</time>
      </trkpt>
      <trkpt lat="42.720030" lon="-2.795750">
        <ele>504.892</ele>
        <time>2011-02-12T14:11:37Z</time>
      </trkpt>
      <trkpt lat="42.719980" lon="-2.795810">
        <ele>504.873</ele>
        <time>2011-02-12T14:11:42Z</time>
      </trkpt>
      <trkpt lat="42.719920" lon="-2.795870">
        <ele>504.845</ele>
        <time>2011-02-12T14:11:47Z</time>
      </trkpt>
      <trkpt lat="42.719870" lon="-2.795930">
        <ele>504.883</ele>
        <time>2011-02-12T14:11:52Z</time>
      </trkpt>
      <trkpt lat="42.719690" lon="-2.796130">
        <ele>505.325</ele>
        <time>2011-02-12T14:12:07Z</time>
      </trkpt>
      <trkpt lat="42.719650" lon="-2.796190">
        <ele>504.817</ele>
        <time>2011-02-12T14:12:12Z</time>
      </trkpt>
      <trkpt lat="42.719610" lon="-2.796240">
        <ele>505.307</ele>
        <time>2011-02-12T14:12:17Z</time>
      </trkpt>
      <trkpt lat="42.719570" lon="-2.796290">
        <ele>505.350</ele>
        <time>2011-02-12T14:12:22Z</time>
      </trkpt>
      <trkpt lat="42.719520" lon="-2.796350">
        <ele>504.841</ele>
        <time>2011-02-12T14:12:27Z</time>
      </trkpt>
      <trkpt lat="42.719480" lon="-2.796390">
        <ele>504.880</ele>
        <time>2011-02-12T14:12:32Z</time>
      </trkpt>
      <trkpt lat="42.719440" lon="-2.796460">
        <ele>504.873</ele>
        <time>2011-02-12T14:12:37Z</time>
      </trkpt>
      <trkpt lat="42.719390" lon="-2.796510">
        <ele>504.836</ele>
        <time>2011-02-12T14:12:42Z</time>
      </trkpt>
      <trkpt lat="42.719350" lon="-2.796550">
        <ele>504.437</ele>
        <time>2011-02-12T14:12:47Z</time>
      </trkpt>
      <trkpt lat="42.719310" lon="-2.796600">
        <ele>504.839</ele>
        <time>2011-02-12T14:12:52Z</time>
      </trkpt>
      <trkpt lat="42.719260" lon="-2.796660">
        <ele>505.351</ele>
        <time>2011-02-12T14:12:57Z</time>
      </trkpt>
      <trkpt lat="42.719220" lon="-2.796720">
        <ele>504.801</ele>
        <time>2011-02-12T14:13:02Z</time>
      </trkpt>
      <trkpt lat="42.719170" lon="-2.796770">
        <ele>505.311</ele>
        <time>2011-02-12T14:13:07Z</time>
      </trkpt>
      <trkpt lat="42.719120" lon="-2.796830">
        <ele>505.307</ele>
        <time>2011-02-12T14:13:12Z</time>
      </trkpt>
      <trkpt lat="42.719070" lon="-2.796890">
        <ele>505.817</ele>
        <time>2011-02-12T14:13:17Z</time>
      </trkpt>
      <trkpt lat="42.719030" lon="-2.796950">
        <ele>505.838</ele>
        <time>2011-02-12T14:13:22Z</time>
      </trkpt>
      <trkpt lat="42.718980" lon="-2.797000">
        <ele>505.867</ele>
        <time>2011-02-12T14:13:27Z</time>
      </trkpt>
      <trkpt lat="42.718930" lon="-2.797070">
        <ele>505.350</ele>
        <time>2011-02-12T14:13:32Z</time>
      </trkpt>
      <trkpt lat="42.718890" lon="-2.797120">
        <ele>506.833</ele>
        <time>2011-02-12T14:13:37Z</time>
      </trkpt>
      <trkpt lat="42.718840" lon="-2.797180">
        <ele>505.384</ele>
        <time>2011-02-12T14:13:42Z</time>
      </trkpt>
      <trkpt lat="42.718790" lon="-2.797230">
        <ele>505.856</ele>
        <time>2011-02-12T14:13:47Z</time>
      </trkpt>
      <trkpt lat="42.718750" lon="-2.797290">
        <ele>504.826</ele>
        <time>2011-02-12T14:13:52Z</time>
      </trkpt>
      <trkpt lat="42.718700" lon="-2.797350">
        <ele>504.447</ele>
        <time>2011-02-12T14:13:57Z</time>
      </trkpt>
      <trkpt lat="42.718650" lon="-2.797420">
        <ele>504.811</ele>
        <time>2011-02-12T14:14:02Z</time>
      </trkpt>
      <trkpt lat="42.718590" lon="-2.797490">
        <ele>505.807</ele>
        <time>2011-02-12T14:14:07Z</time>
      </trkpt>
      <trkpt lat="42.718550" lon="-2.797540">
        <ele>505.824</ele>
        <time>2011-02-12T14:14:12Z</time>
      </trkpt>
      <trkpt lat="42.718490" lon="-2.797600">
        <ele>505.365</ele>
        <time>2011-02-12T14:14:17Z</time>
      </trkpt>
      <trkpt lat="42.718450" lon="-2.797670">
        <ele>504.844</ele>
        <time>2011-02-12T14:14:22Z</time>
      </trkpt>
      <trkpt lat="42.718390" lon="-2.797730">
        <ele>504.427</ele>
        <time>2011-02-12T14:14:27Z</time>
      </trkpt>
      <trkpt lat="42.718340" lon="-2.797800">
        <ele>504.860</ele>
        <time>2011-02-12T14:14:32Z</time>
      </trkpt>
      <trkpt lat="42.718290" lon="-2.797860">
        <ele>505.311</ele>
        <time>2011-02-12T14:14:37Z</time>
      </trkpt>
      <trkpt lat="42.718250" lon="-2.797920">
        <ele>504.823</ele>
        <time>2011-02-12T14:14:42Z</time>
      </trkpt>
      <trkpt lat="42.718190" lon="-2.797980">
        <ele>504.811</ele>
        <time>2011-02-12T14:14:47Z</time>
      </trkpt>
      <trkpt lat="42.718140" lon="-2.798050">
        <ele>505.321</ele>
        <time>2011-02-12T14:14:52Z</time>
      </trkpt>
      <trkpt lat="42.718090" lon="-2.798110">
        <ele>504.803</ele>
        <time>2011-02-12T14:14:57Z</time>
      </trkpt>
      <trkpt lat="42.718050" lon="-2.798170">
        <ele>504.807</ele>
        <time>2011-02-12T14:15:02Z</time>
      </trkpt>
      <trkpt lat="42.718000" lon="-2.798230">
        <ele>504.813</ele>
        <time>2011-02-12T14:15:07Z</time>
      </trkpt>
      <trkpt lat="42.717950" lon="-2.798300">
        <ele>504.424</ele>
        <time>2011-02-12T14:15:12Z</time>
      </trkpt>
      <trkpt lat="42.717900" lon="-2.798350">
        <ele>504.483</ele>
        <time>2011-02-12T14:15:17Z</time>
      </trkpt>
      <trkpt lat="42.717870" lon="-2.798410">
        <ele>504.416</ele>
        <time>2011-02-12T14:15:22Z</time>
      </trkpt>
      <trkpt lat="42.717800" lon="-2.798470">
        <ele>504.869</ele>
        <time>2011-02-12T14:15:27Z</time>
      </trkpt>
      <trkpt lat="42.717760" lon="-2.798520">
        <ele>503.980</ele>
        <time>2011-02-12T14:15:32Z</time>
      </trkpt>
      <trkpt lat="42.717730" lon="-2.798560">
        <ele>504.492</ele>
        <time>2011-02-12T14:15:37Z</time>
      </trkpt>
      <trkpt lat="42.717690" lon="-2.798620">
        <ele>503.413</ele>
        <time>2011-02-12T14:15:42Z</time>
      </trkpt>
      <trkpt lat="42.717650" lon="-2.798690">
        <ele>504.443</ele>
        <time>2011-02-12T14:15:47Z</time>
      </trkpt>
      <trkpt lat="42.717610" lon="-2.798770">
        <ele>504.407</ele>
        <time>2011-02-12T14:15:52Z</time>
      </trkpt>
      <trkpt lat="42.717570" lon="-2.798850">
        <ele>504.407</ele>
        <time>2011-02-12T14:15:57Z</time>
      </trkpt>
      <trkpt lat="42.717530" lon="-2.798920">
        <ele>504.443</ele>
        <time>2011-02-12T14:16:02Z</time>
      </trkpt>
      <trkpt lat="42.717490" lon="-2.799000">
        <ele>504.834</ele>
        <time>2011-02-12T14:16:07Z</time>
      </trkpt>
      <trkpt lat="42.717450" lon="-2.799090">
        <ele>504.823</ele>
        <time>2011-02-12T14:16:12Z</time>
      </trkpt>
      <trkpt lat="42.717410" lon="-2.799170">
        <ele>504.486</ele>
        <time>2011-02-12T14:16:17Z</time>
      </trkpt>
      <trkpt lat="42.717380" lon="-2.799250">
        <ele>504.479</ele>
        <time>2011-02-12T14:16:22Z</time>
      </trkpt>
      <trkpt lat="42.717350" lon="-2.799340">
        <ele>504.420</ele>
        <time>2011-02-12T14:16:27Z</time>
      </trkpt>
      <trkpt lat="42.717310" lon="-2.799420">
        <ele>504.422</ele>
        <time>2011-02-12T14:16:32Z</time>
      </trkpt>
      <trkpt lat="42.717270" lon="-2.799500">
        <ele>504.498</ele>
        <time>2011-02-12T14:16:37Z</time>
      </trkpt>
      <trkpt lat="42.717230" lon="-2.799580">
        <ele>504.415</ele>
        <time>2011-02-12T14:16:42Z</time>
      </trkpt>
      <trkpt lat="42.717190" lon="-2.799660">
        <ele>504.826</ele>
        <time>2011-02-12T14:16:47Z</time>
      </trkpt>
      <trkpt lat="42.717160" lon="-2.799740">
        <ele>504.807</ele>
        <time>2011-02-12T14:16:52Z</time>
      </trkpt>
      <trkpt lat="42.717120" lon="-2.799820">
        <ele>504.891</ele>
        <time>2011-02-12T14:16:57Z</time>
      </trkpt>
      <trkpt lat="42.717090" lon="-2.799900">
        <ele>504.432</ele>
        <time>2011-02-12T14:17:02Z</time>
      </trkpt>
      <trkpt lat="42.717060" lon="-2.799980">
        <ele>504.481</ele>
        <time>2011-02-12T14:17:07Z</time>
      </trkpt>
      <trkpt lat="42.717020" lon="-2.800060">
        <ele>504.894</ele>
        <time>2011-02-12T14:17:12Z</time>
      </trkpt>
      <trkpt lat="42.716980" lon="-2.800140">
        <ele>504.427</ele>
        <time>2011-02-12T14:17:17Z</time>
      </trkpt>
      <trkpt lat="42.716950" lon="-2.800210">
        <ele>504.498</ele>
        <time>2011-02-12T14:17:21Z</time>
      </trkpt>
      <trkpt lat="42.716910" lon="-2.800300">
        <ele>504.430</ele>
        <time>2011-02-12T14:17:27Z</time>
      </trkpt>
      <trkpt lat="42.716880" lon="-2.800390">
        <ele>504.484</ele>
        <time>2011-02-12T14:17:32Z</time>
      </trkpt>
      <trkpt lat="42.716850" lon="-2.800470">
        <ele>503.907</ele>
        <time>2011-02-12T14:17:37Z</time>
      </trkpt>
      <trkpt lat="42.716820" lon="-2.800560">
        <ele>504.417</ele>
        <time>2011-02-12T14:17:42Z</time>
      </trkpt>
      <trkpt lat="42.716800" lon="-2.800630">
        <ele>504.807</ele>
        <time>2011-02-12T14:17:47Z</time>
      </trkpt>
      <trkpt lat="42.716780" lon="-2.800720">
        <ele>504.420</ele>
        <time>2011-02-12T14:17:52Z</time>
      </trkpt>
      <trkpt lat="42.716770" lon="-2.800810">
        <ele>504.441</ele>
        <time>2011-02-12T14:17:57Z</time>
      </trkpt>
      <trkpt lat="42.716750" lon="-2.800900">
        <ele>503.930</ele>
        <time>2011-02-12T14:18:02Z</time>
      </trkpt>
      <trkpt lat="42.716730" lon="-2.800990">
        <ele>503.953</ele>
        <time>2011-02-12T14:18:07Z</time>
      </trkpt>
      <trkpt lat="42.716710" lon="-2.801080">
        <ele>503.926</ele>
        <time>2011-02-12T14:18:12Z</time>
      </trkpt>
      <trkpt lat="42.716680" lon="-2.801170">
        <ele>504.467</ele>
        <time>2011-02-12T14:18:17Z</time>
      </trkpt>
      <trkpt lat="42.716650" lon="-2.801250">
        <ele>503.949</ele>
        <time>2011-02-12T14:18:22Z</time>
      </trkpt>
      <trkpt lat="42.716600" lon="-2.801320">
        <ele>503.985</ele>
        <time>2011-02-12T14:18:27Z</time>
      </trkpt>
      <trkpt lat="42.716540" lon="-2.801370">
        <ele>503.489</ele>
        <time>2011-02-12T14:18:32Z</time>
      </trkpt>
      <trkpt lat="42.716480" lon="-2.801430">
        <ele>503.417</ele>
        <time>2011-02-12T14:18:37Z</time>
      </trkpt>
      <trkpt lat="42.716420" lon="-2.801480">
        <ele>502.907</ele>
        <time>2011-02-12T14:18:42Z</time>
      </trkpt>
      <trkpt lat="42.716360" lon="-2.801530">
        <ele>502.450</ele>
        <time>2011-02-12T14:18:47Z</time>
      </trkpt>
      <trkpt lat="42.716300" lon="-2.801580">
        <ele>502.471</ele>
        <time>2011-02-12T14:18:52Z</time>
      </trkpt>
      <trkpt lat="42.716240" lon="-2.801640">
        <ele>502.450</ele>
        <time>2011-02-12T14:18:57Z</time>
      </trkpt>
      <trkpt lat="42.716180" lon="-2.801690">
        <ele>502.993</ele>
        <time>2011-02-12T14:19:02Z</time>
      </trkpt>
      <trkpt lat="42.716130" lon="-2.801750">
        <ele>502.426</ele>
        <time>2011-02-12T14:19:07Z</time>
      </trkpt>
      <trkpt lat="42.716080" lon="-2.801820">
        <ele>502.927</ele>
        <time>2011-02-12T14:19:12Z</time>
      </trkpt>
      <trkpt lat="42.716030" lon="-2.801880">
        <ele>502.469</ele>
        <time>2011-02-12T14:19:17Z</time>
      </trkpt>
      <trkpt lat="42.715980" lon="-2.801960">
        <ele>501.924</ele>
        <time>2011-02-12T14:19:22Z</time>
      </trkpt>
      <trkpt lat="42.715940" lon="-2.802040">
        <ele>502.404</ele>
        <time>2011-02-12T14:19:27Z</time>
      </trkpt>
      <trkpt lat="42.715900" lon="-2.802120">
        <ele>502.414</ele>
        <time>2011-02-12T14:19:32Z</time>
      </trkpt>
      <trkpt lat="42.715870" lon="-2.802200">
        <ele>502.407</ele>
        <time>2011-02-12T14:19:37Z</time>
      </trkpt>
      <trkpt lat="42.715830" lon="-2.802270">
        <ele>502.414</ele>
        <time>2011-02-12T14:19:42Z</time>
      </trkpt>
      <trkpt lat="42.715800" lon="-2.802350">
        <ele>502.465</ele>
        <time>2011-02-12T14:19:47Z</time>
      </trkpt>
      <trkpt lat="42.715770" lon="-2.802430">
        <ele>502.474</ele>
        <time>2011-02-12T14:19:52Z</time>
      </trkpt>
      <trkpt lat="42.715730" lon="-2.802510">
        <ele>501.937</ele>
        <time>2011-02-12T14:19:57Z</time>
      </trkpt>
      <trkpt lat="42.715690" lon="-2.802590">
        <ele>501.970</ele>
        <time>2011-02-12T14:20:02Z</time>
      </trkpt>
      <trkpt lat="42.715660" lon="-2.802670">
        <ele>501.951</ele>
        <time>2011-02-12T14:20:07Z</time>
      </trkpt>
      <trkpt lat="42.715620" lon="-2.802750">
        <ele>501.973</ele>
        <time>2011-02-12T14:20:12Z</time>
      </trkpt>
      <trkpt lat="42.715590" lon="-2.802840">
        <ele>501.943</ele>
        <time>2011-02-12T14:20:17Z</time>
      </trkpt>
      <trkpt lat="42.715550" lon="-2.802920">
        <ele>501.964</ele>
        <time>2011-02-12T14:20:22Z</time>
      </trkpt>
      <trkpt lat="42.715520" lon="-2.803000">
        <ele>501.910</ele>
        <time>2011-02-12T14:20:27Z</time>
      </trkpt>
      <trkpt lat="42.715480" lon="-2.803080">
        <ele>501.507</ele>
        <time>2011-02-12T14:20:32Z</time>
      </trkpt>
      <trkpt lat="42.715450" lon="-2.803160">
        <ele>501.066</ele>
        <time>2011-02-12T14:20:37Z</time>
      </trkpt>
      <trkpt lat="42.715420" lon="-2.803230">
        <ele>501.537</ele>
        <time>2011-02-12T14:20:42Z</time>
      </trkpt>
      <trkpt lat="42.715390" lon="-2.803300">
        <ele>501.576</ele>
        <time>2011-02-12T14:20:47Z</time>
      </trkpt>
      <trkpt lat="42.715360" lon="-2.803380">
        <ele>501.089</ele>
        <time>2011-02-12T14:20:52Z</time>
      </trkpt>
      <trkpt lat="42.715320" lon="-2.803460">
        <ele>501.032</ele>
        <time>2011-02-12T14:20:57Z</time>
      </trkpt>
      <trkpt lat="42.715270" lon="-2.803520">
        <ele>501.093</ele>
        <time>2011-02-12T14:21:02Z</time>
      </trkpt>
      <trkpt lat="42.715210" lon="-2.803560">
        <ele>501.095</ele>
        <time>2011-02-12T14:21:07Z</time>
      </trkpt>
      <trkpt lat="42.715150" lon="-2.803580">
        <ele>501.089</ele>
        <time>2011-02-12T14:21:12Z</time>
      </trkpt>
      <trkpt lat="42.715090" lon="-2.803590">
        <ele>500.506</ele>
        <time>2011-02-12T14:21:17Z</time>
      </trkpt>
      <trkpt lat="42.715040" lon="-2.803550">
        <ele>501.026</ele>
        <time>2011-02-12T14:21:22Z</time>
      </trkpt>
      <trkpt lat="42.715000" lon="-2.803500">
        <ele>500.507</ele>
        <time>2011-02-12T14:21:27Z</time>
      </trkpt>
      <trkpt lat="42.714970" lon="-2.803500">
        <ele>501.060</ele>
        <time>2011-02-12T14:21:32Z</time>
      </trkpt>
      <trkpt lat="42.714970" lon="-2.803500">
        <ele>500.591</ele>
        <time>2011-02-12T14:21:37Z</time>
      </trkpt>
      <trkpt lat="42.714970" lon="-2.803490">
        <ele>501.080</ele>
        <time>2011-02-12T14:21:42Z</time>
      </trkpt>
      <trkpt lat="42.714970" lon="-2.803490">
        <ele>501.013</ele>
        <time>2011-02-12T14:21:47Z</time>
      </trkpt>
      <trkpt lat="42.714970" lon="-2.803490">
        <ele>501.016</ele>
        <time>2011-02-12T14:21:52Z</time>
      </trkpt>
      <trkpt lat="42.714960" lon="-2.803490">
        <ele>501.057</ele>
        <time>2011-02-12T14:21:57Z</time>
      </trkpt>
      <trkpt lat="42.714960" lon="-2.803490">
        <ele>501.019</ele>
        <time>2011-02-12T14:22:02Z</time>
      </trkpt>
      <trkpt lat="42.714960" lon="-2.803500">
        <ele>501.093</ele>
        <time>2011-02-12T14:22:07Z</time>
      </trkpt>
      <trkpt lat="42.714960" lon="-2.803500">
        <ele>501.065</ele>
        <time>2011-02-12T14:22:12Z</time>
      </trkpt>
      <trkpt lat="42.714960" lon="-2.803500">
        <ele>501.021</ele>
        <time>2011-02-12T14:22:17Z</time>
      </trkpt>
      <trkpt lat="42.714970" lon="-2.803500">
        <ele>501.507</ele>
        <time>2011-02-12T14:22:22Z</time>
      </trkpt>
      <trkpt lat="42.714940" lon="-2.803460">
        <ele>501.031</ele>
        <time>2011-02-12T14:22:27Z</time>
      </trkpt>
      <trkpt lat="42.714910" lon="-2.803390">
        <ele>500.092</ele>
        <time>2011-02-12T14:22:32Z</time>
      </trkpt>
      <trkpt lat="42.714870" lon="-2.803380">
        <ele>500.061</ele>
        <time>2011-02-12T14:22:37Z</time>
      </trkpt>
      <trkpt lat="42.714850" lon="-2.803410">
        <ele>499.084</ele>
        <time>2011-02-12T14:22:42Z</time>
      </trkpt>
      <trkpt lat="42.714790" lon="-2.803480">
        <ele>499.097</ele>
        <time>2011-02-12T14:22:47Z</time>
      </trkpt>
      <trkpt lat="42.714750" lon="-2.803530">
        <ele>499.098</ele>
        <time>2011-02-12T14:22:51Z</time>
      </trkpt>
      <trkpt lat="42.714690" lon="-2.803600">
        <ele>499.020</ele>
        <time>2011-02-12T14:22:57Z</time>
      </trkpt>
      <trkpt lat="42.714630" lon="-2.803630">
        <ele>498.644</ele>
        <time>2011-02-12T14:23:02Z</time>
      </trkpt>
      <trkpt lat="42.714580" lon="-2.803680">
        <ele>498.105</ele>
        <time>2011-02-12T14:23:07Z</time>
      </trkpt>
      <trkpt lat="42.714533" lon="-2.803745">
        <ele>498.115</ele>
        <time>2011-02-12T14:24:22Z</time>
      </trkpt>
      <trkpt lat="42.714560" lon="-2.803890">
        <ele>498.607</ele>
        <time>2011-02-12T14:24:27Z</time>
      </trkpt>
      <trkpt lat="42.714520" lon="-2.803850">
        <ele>498.196</ele>
        <time>2011-02-12T14:24:32Z</time>
      </trkpt>
      <trkpt lat="42.714510" lon="-2.803780">
        <ele>498.137</ele>
        <time>2011-02-12T14:24:37Z</time>
      </trkpt>
      <trkpt lat="42.714556" lon="-2.803861">
        <ele>497.126</ele>
        <time>2011-02-12T14:28:45Z</time>
      </trkpt>
      <trkpt lat="42.714610" lon="-2.803891">
        <ele>496.769</ele>
        <time>2011-02-12T14:28:50Z</time>
      </trkpt>
      <trkpt lat="42.714637" lon="-2.803848">
        <ele>496.742</ele>
        <time>2011-02-12T14:28:55Z</time>
      </trkpt>
      <trkpt lat="42.714640" lon="-2.803800">
        <ele>496.773</ele>
        <time>2011-02-12T14:29:00Z</time>
      </trkpt>
      <trkpt lat="42.714640" lon="-2.803810">
        <ele>496.285</ele>
        <time>2011-02-12T14:29:05Z</time>
      </trkpt>
      <trkpt lat="42.714640" lon="-2.803810">
        <ele>496.744</ele>
        <time>2011-02-12T14:29:10Z</time>
      </trkpt>
      <trkpt lat="42.714640" lon="-2.803820">
        <ele>496.705</ele>
        <time>2011-02-12T14:29:15Z</time>
      </trkpt>
      <trkpt lat="42.714640" lon="-2.803820">
        <ele>496.715</ele>
        <time>2011-02-12T14:29:20Z</time>
      </trkpt>
      <trkpt lat="42.714640" lon="-2.803830">
        <ele>496.707</ele>
        <time>2011-02-12T14:29:25Z</time>
      </trkpt>
      <trkpt lat="42.714606" lon="-2.803910">
        <ele>496.726</ele>
        <time>2011-02-12T14:29:30Z</time>
      </trkpt>
      <trkpt lat="42.714540" lon="-2.803830">
        <ele>497.127</ele>
        <time>2011-02-12T14:29:55Z</time>
      </trkpt>
      <trkpt lat="42.714530" lon="-2.803810">
        <ele>497.156</ele>
        <time>2011-02-12T14:30:00Z</time>
      </trkpt>
      <trkpt lat="42.714520" lon="-2.803780">
        <ele>497.679</ele>
        <time>2011-02-12T14:30:05Z</time>
      </trkpt>
      <trkpt lat="42.714570" lon="-2.803680">
        <ele>497.182</ele>
        <time>2011-02-12T14:30:15Z</time>
      </trkpt>
      <trkpt lat="42.714590" lon="-2.803640">
        <ele>497.183</ele>
        <time>2011-02-12T14:30:20Z</time>
      </trkpt>
      <trkpt lat="42.714620" lon="-2.803600">
        <ele>497.625</ele>
        <time>2011-02-12T14:30:25Z</time>
      </trkpt>
      <trkpt lat="42.714650" lon="-2.803580">
        <ele>497.619</ele>
        <time>2011-02-12T14:30:30Z</time>
      </trkpt>
      <trkpt lat="42.714670" lon="-2.803580">
        <ele>497.109</ele>
        <time>2011-02-12T14:30:35Z</time>
      </trkpt>
      <trkpt lat="42.714700" lon="-2.803610">
        <ele>498.119</ele>
        <time>2011-02-12T14:30:40Z</time>
      </trkpt>
      <trkpt lat="42.714710" lon="-2.803610">
        <ele>498.107</ele>
        <time>2011-02-12T14:30:45Z</time>
      </trkpt>
      <trkpt lat="42.714710" lon="-2.803600">
        <ele>498.663</ele>
        <time>2011-02-12T14:30:50Z</time>
      </trkpt>
      <trkpt lat="42.714710" lon="-2.803580">
        <ele>498.174</ele>
        <time>2011-02-12T14:30:55Z</time>
      </trkpt>
      <trkpt lat="42.714700" lon="-2.803540">
        <ele>497.693</ele>
        <time>2011-02-12T14:31:00Z</time>
      </trkpt>
      <trkpt lat="42.714710" lon="-2.803530">
        <ele>497.646</ele>
        <time>2011-02-12T14:31:05Z</time>
      </trkpt>
      <trkpt lat="42.714720" lon="-2.803520">
        <ele>497.629</ele>
        <time>2011-02-12T14:31:10Z</time>
      </trkpt>
      <trkpt lat="42.714760" lon="-2.803480">
        <ele>497.680</ele>
        <time>2011-02-12T14:31:15Z</time>
      </trkpt>
      <trkpt lat="42.714800" lon="-2.803430">
        <ele>498.192</ele>
        <time>2011-02-12T14:31:20Z</time>
      </trkpt>
      <trkpt lat="42.714830" lon="-2.803390">
        <ele>498.163</ele>
        <time>2011-02-12T14:31:25Z</time>
      </trkpt>
      <trkpt lat="42.714870" lon="-2.803340">
        <ele>498.144</ele>
        <time>2011-02-12T14:31:30Z</time>
      </trkpt>
      <trkpt lat="42.714900" lon="-2.803290">
        <ele>498.118</ele>
        <time>2011-02-12T14:31:35Z</time>
      </trkpt>
      <trkpt lat="42.714910" lon="-2.803230">
        <ele>498.607</ele>
        <time>2011-02-12T14:31:40Z</time>
      </trkpt>
      <trkpt lat="42.714890" lon="-2.803190">
        <ele>498.678</ele>
        <time>2011-02-12T14:31:45Z</time>
      </trkpt>
      <trkpt lat="42.714880" lon="-2.803120">
        <ele>498.649</ele>
        <time>2011-02-12T14:31:50Z</time>
      </trkpt>
      <trkpt lat="42.714860" lon="-2.803050">
        <ele>498.628</ele>
        <time>2011-02-12T14:31:55Z</time>
      </trkpt>
      <trkpt lat="42.714830" lon="-2.802960">
        <ele>498.641</ele>
        <time>2011-02-12T14:32:00Z</time>
      </trkpt>
      <trkpt lat="42.714800" lon="-2.802890">
        <ele>498.634</ele>
        <time>2011-02-12T14:32:05Z</time>
      </trkpt>
      <trkpt lat="42.714770" lon="-2.802830">
        <ele>498.655</ele>
        <time>2011-02-12T14:32:10Z</time>
      </trkpt>
      <trkpt lat="42.714730" lon="-2.802760">
        <ele>498.647</ele>
        <time>2011-02-12T14:32:15Z</time>
      </trkpt>
      <trkpt lat="42.714700" lon="-2.802680">
        <ele>498.682</ele>
        <time>2011-02-12T14:32:20Z</time>
      </trkpt>
      <trkpt lat="42.714660" lon="-2.802600">
        <ele>498.643</ele>
        <time>2011-02-12T14:32:25Z</time>
      </trkpt>
      <trkpt lat="42.714630" lon="-2.802540">
        <ele>498.617</ele>
        <time>2011-02-12T14:32:30Z</time>
      </trkpt>
      <trkpt lat="42.714590" lon="-2.802460">
        <ele>498.107</ele>
        <time>2011-02-12T14:32:35Z</time>
      </trkpt>
      <trkpt lat="42.714550" lon="-2.802390">
        <ele>498.160</ele>
        <time>2011-02-12T14:32:40Z</time>
      </trkpt>
      <trkpt lat="42.714510" lon="-2.802330">
        <ele>499.091</ele>
        <time>2011-02-12T14:32:45Z</time>
      </trkpt>
      <trkpt lat="42.714460" lon="-2.802250">
        <ele>498.690</ele>
        <time>2011-02-12T14:32:50Z</time>
      </trkpt>
      <trkpt lat="42.714420" lon="-2.802180">
        <ele>498.653</ele>
        <time>2011-02-12T14:32:55Z</time>
      </trkpt>
      <trkpt lat="42.714380" lon="-2.802110">
        <ele>498.686</ele>
        <time>2011-02-12T14:33:00Z</time>
      </trkpt>
      <trkpt lat="42.714340" lon="-2.802040">
        <ele>498.627</ele>
        <time>2011-02-12T14:33:05Z</time>
      </trkpt>
      <trkpt lat="42.714300" lon="-2.801960">
        <ele>498.659</ele>
        <time>2011-02-12T14:33:10Z</time>
      </trkpt>
      <trkpt lat="42.714260" lon="-2.801890">
        <ele>498.684</ele>
        <time>2011-02-12T14:33:15Z</time>
      </trkpt>
      <trkpt lat="42.714220" lon="-2.801810">
        <ele>498.107</ele>
        <time>2011-02-12T14:33:20Z</time>
      </trkpt>
      <trkpt lat="42.714180" lon="-2.801740">
        <ele>498.617</ele>
        <time>2011-02-12T14:33:25Z</time>
      </trkpt>
      <trkpt lat="42.714150" lon="-2.801660">
        <ele>498.607</ele>
        <time>2011-02-12T14:33:30Z</time>
      </trkpt>
      <trkpt lat="42.714110" lon="-2.801590">
        <ele>498.670</ele>
        <time>2011-02-12T14:33:35Z</time>
      </trkpt>
      <trkpt lat="42.714070" lon="-2.801520">
        <ele>498.691</ele>
        <time>2011-02-12T14:33:40Z</time>
      </trkpt>
      <trkpt lat="42.714030" lon="-2.801450">
        <ele>498.620</ele>
        <time>2011-02-12T14:33:45Z</time>
      </trkpt>
      <trkpt lat="42.713990" lon="-2.801380">
        <ele>498.673</ele>
        <time>2011-02-12T14:33:50Z</time>
      </trkpt>
      <trkpt lat="42.713950" lon="-2.801310">
        <ele>499.016</ele>
        <time>2011-02-12T14:33:55Z</time>
      </trkpt>
      <trkpt lat="42.713910" lon="-2.801240">
        <ele>499.097</ele>
        <time>2011-02-12T14:34:00Z</time>
      </trkpt>
      <trkpt lat="42.713870" lon="-2.801170">
        <ele>500.019</ele>
        <time>2011-02-12T14:34:05Z</time>
      </trkpt>
      <trkpt lat="42.713830" lon="-2.801110">
        <ele>500.035</ele>
        <time>2011-02-12T14:34:10Z</time>
      </trkpt>
      <trkpt lat="42.713790" lon="-2.801040">
        <ele>501.086</ele>
        <time>2011-02-12T14:34:15Z</time>
      </trkpt>
      <trkpt lat="42.713760" lon="-2.800970">
        <ele>501.514</ele>
        <time>2011-02-12T14:34:20Z</time>
      </trkpt>
      <trkpt lat="42.713720" lon="-2.800910">
        <ele>501.507</ele>
        <time>2011-02-12T14:34:25Z</time>
      </trkpt>
      <trkpt lat="42.713690" lon="-2.800840">
        <ele>501.955</ele>
        <time>2011-02-12T14:34:30Z</time>
      </trkpt>
      <trkpt lat="42.713650" lon="-2.800780">
        <ele>502.436</ele>
        <time>2011-02-12T14:34:35Z</time>
      </trkpt>
      <trkpt lat="42.713620" lon="-2.800720">
        <ele>502.425</ele>
        <time>2011-02-12T14:34:40Z</time>
      </trkpt>
      <trkpt lat="42.713590" lon="-2.800660">
        <ele>502.448</ele>
        <time>2011-02-12T14:34:45Z</time>
      </trkpt>
      <trkpt lat="42.713550" lon="-2.800590">
        <ele>503.441</ele>
        <time>2011-02-12T14:34:50Z</time>
      </trkpt>
      <trkpt lat="42.713520" lon="-2.800520">
        <ele>503.492</ele>
        <time>2011-02-12T14:34:55Z</time>
      </trkpt>
      <trkpt lat="42.713480" lon="-2.800460">
        <ele>504.464</ele>
        <time>2011-02-12T14:35:00Z</time>
      </trkpt>
      <trkpt lat="42.713440" lon="-2.800390">
        <ele>504.454</ele>
        <time>2011-02-12T14:35:05Z</time>
      </trkpt>
      <trkpt lat="42.713400" lon="-2.800320">
        <ele>504.856</ele>
        <time>2011-02-12T14:35:10Z</time>
      </trkpt>
      <trkpt lat="42.713370" lon="-2.800260">
        <ele>505.811</ele>
        <time>2011-02-12T14:35:15Z</time>
      </trkpt>
      <trkpt lat="42.713330" lon="-2.800190">
        <ele>505.807</ele>
        <time>2011-02-12T14:35:20Z</time>
      </trkpt>
      <trkpt lat="42.713300" lon="-2.800130">
        <ele>506.347</ele>
        <time>2011-02-12T14:35:25Z</time>
      </trkpt>
      <trkpt lat="42.713260" lon="-2.800050">
        <ele>506.858</ele>
        <time>2011-02-12T14:35:30Z</time>
      </trkpt>
      <trkpt lat="42.713220" lon="-2.799990">
        <ele>507.787</ele>
        <time>2011-02-12T14:35:35Z</time>
      </trkpt>
      <trkpt lat="42.713190" lon="-2.799930">
        <ele>508.270</ele>
        <time>2011-02-12T14:35:40Z</time>
      </trkpt>
      <trkpt lat="42.713150" lon="-2.799860">
        <ele>508.763</ele>
        <time>2011-02-12T14:35:45Z</time>
      </trkpt>
      <trkpt lat="42.713110" lon="-2.799800">
        <ele>509.234</ele>
        <time>2011-02-12T14:35:50Z</time>
      </trkpt>
      <trkpt lat="42.713070" lon="-2.799740">
        <ele>509.236</ele>
        <time>2011-02-12T14:35:55Z</time>
      </trkpt>
      <trkpt lat="42.713040" lon="-2.799680">
        <ele>509.617</ele>
        <time>2011-02-12T14:36:00Z</time>
      </trkpt>
      <trkpt lat="42.713010" lon="-2.799610">
        <ele>509.687</ele>
        <time>2011-02-12T14:36:05Z</time>
      </trkpt>
      <trkpt lat="42.712970" lon="-2.799550">
        <ele>509.615</ele>
        <time>2011-02-12T14:36:10Z</time>
      </trkpt>
      <trkpt lat="42.712940" lon="-2.799480">
        <ele>510.607</ele>
        <time>2011-02-12T14:36:15Z</time>
      </trkpt>
      <trkpt lat="42.712900" lon="-2.799400">
        <ele>511.133</ele>
        <time>2011-02-12T14:36:20Z</time>
      </trkpt>
      <trkpt lat="42.712880" lon="-2.799320">
        <ele>511.554</ele>
        <time>2011-02-12T14:36:25Z</time>
      </trkpt>
      <trkpt lat="42.712850" lon="-2.799250">
        <ele>511.543</ele>
        <time>2011-02-12T14:36:30Z</time>
      </trkpt>
      <trkpt lat="42.712820" lon="-2.799170">
        <ele>512.086</ele>
        <time>2011-02-12T14:36:35Z</time>
      </trkpt>
      <trkpt lat="42.712790" lon="-2.799100">
        <ele>512.529</ele>
        <time>2011-02-12T14:36:40Z</time>
      </trkpt>
      <trkpt lat="42.712760" lon="-2.799020">
        <ele>513.090</ele>
        <time>2011-02-12T14:36:45Z</time>
      </trkpt>
      <trkpt lat="42.712730" lon="-2.798960">
        <ele>513.532</ele>
        <time>2011-02-12T14:36:50Z</time>
      </trkpt>
      <trkpt lat="42.712700" lon="-2.798890">
        <ele>513.585</ele>
        <time>2011-02-12T14:36:55Z</time>
      </trkpt>
      <trkpt lat="42.712670" lon="-2.798830">
        <ele>513.589</ele>
        <time>2011-02-12T14:37:00Z</time>
      </trkpt>
      <trkpt lat="42.712650" lon="-2.798770">
        <ele>513.517</ele>
        <time>2011-02-12T14:37:05Z</time>
      </trkpt>
      <trkpt lat="42.712630" lon="-2.798710">
        <ele>513.507</ele>
        <time>2011-02-12T14:37:10Z</time>
      </trkpt>
      <trkpt lat="42.712600" lon="-2.798640">
        <ele>514.450</ele>
        <time>2011-02-12T14:37:15Z</time>
      </trkpt>
      <trkpt lat="42.712580" lon="-2.798570">
        <ele>514.411</ele>
        <time>2011-02-12T14:37:20Z</time>
      </trkpt>
      <trkpt lat="42.712550" lon="-2.798500">
        <ele>514.990</ele>
        <time>2011-02-12T14:37:25Z</time>
      </trkpt>
      <trkpt lat="42.712530" lon="-2.798430">
        <ele>515.973</ele>
        <time>2011-02-12T14:37:30Z</time>
      </trkpt>
      <trkpt lat="42.712510" lon="-2.798360">
        <ele>516.896</ele>
        <time>2011-02-12T14:37:35Z</time>
      </trkpt>
      <trkpt lat="42.712500" lon="-2.798280">
        <ele>517.387</ele>
        <time>2011-02-12T14:37:40Z</time>
      </trkpt>
      <trkpt lat="42.712490" lon="-2.798200">
        <ele>517.389</ele>
        <time>2011-02-12T14:37:45Z</time>
      </trkpt>
      <trkpt lat="42.712480" lon="-2.798130">
        <ele>517.882</ele>
        <time>2011-02-12T14:37:50Z</time>
      </trkpt>
      <trkpt lat="42.712480" lon="-2.798050">
        <ele>518.343</ele>
        <time>2011-02-12T14:37:55Z</time>
      </trkpt>
      <trkpt lat="42.712480" lon="-2.797960">
        <ele>518.317</ele>
        <time>2011-02-12T14:38:00Z</time>
      </trkpt>
      <trkpt lat="42.712480" lon="-2.797890">
        <ele>518.307</ele>
        <time>2011-02-12T14:38:05Z</time>
      </trkpt>
      <trkpt lat="42.712480" lon="-2.797810">
        <ele>518.360</ele>
        <time>2011-02-12T14:38:10Z</time>
      </trkpt>
      <trkpt lat="42.712490" lon="-2.797720">
        <ele>519.311</ele>
        <time>2011-02-12T14:38:15Z</time>
      </trkpt>
      <trkpt lat="42.712490" lon="-2.797640">
        <ele>519.320</ele>
        <time>2011-02-12T14:38:20Z</time>
      </trkpt>
      <trkpt lat="42.712490" lon="-2.797550">
        <ele>519.793</ele>
        <time>2011-02-12T14:38:25Z</time>
      </trkpt>
      <trkpt lat="42.712490" lon="-2.797470">
        <ele>519.736</ele>
        <time>2011-02-12T14:38:30Z</time>
      </trkpt>
      <trkpt lat="42.712500" lon="-2.797390">
        <ele>519.747</ele>
        <time>2011-02-12T14:38:35Z</time>
      </trkpt>
      <trkpt lat="42.712500" lon="-2.797310">
        <ele>520.219</ele>
        <time>2011-02-12T14:38:40Z</time>
      </trkpt>
      <trkpt lat="42.712490" lon="-2.797230">
        <ele>521.265</ele>
        <time>2011-02-12T14:38:45Z</time>
      </trkpt>
      <trkpt lat="42.712490" lon="-2.797150">
        <ele>521.768</ele>
        <time>2011-02-12T14:38:50Z</time>
      </trkpt>
      <trkpt lat="42.712480" lon="-2.797070">
        <ele>522.614</ele>
        <time>2011-02-12T14:38:55Z</time>
      </trkpt>
      <trkpt lat="42.712470" lon="-2.797000">
        <ele>523.107</ele>
        <time>2011-02-12T14:39:00Z</time>
      </trkpt>
      <trkpt lat="42.712460" lon="-2.796930">
        <ele>523.668</ele>
        <time>2011-02-12T14:39:05Z</time>
      </trkpt>
      <trkpt lat="42.712470" lon="-2.796850">
        <ele>524.099</ele>
        <time>2011-02-12T14:39:10Z</time>
      </trkpt>
      <trkpt lat="42.712490" lon="-2.796770">
        <ele>524.088</ele>
        <time>2011-02-12T14:39:15Z</time>
      </trkpt>
      <trkpt lat="42.712500" lon="-2.796680">
        <ele>524.521</ele>
        <time>2011-02-12T14:39:20Z</time>
      </trkpt>
      <trkpt lat="42.712510" lon="-2.796600">
        <ele>525.044</ele>
        <time>2011-02-12T14:39:25Z</time>
      </trkpt>
      <trkpt lat="42.712520" lon="-2.796510">
        <ele>524.585</ele>
        <time>2011-02-12T14:39:30Z</time>
      </trkpt>
      <trkpt lat="42.712530" lon="-2.796440">
        <ele>525.577</ele>
        <time>2011-02-12T14:39:35Z</time>
      </trkpt>
      <trkpt lat="42.712530" lon="-2.796360">
        <ele>526.068</ele>
        <time>2011-02-12T14:39:40Z</time>
      </trkpt>
      <trkpt lat="42.712530" lon="-2.796280">
        <ele>526.042</ele>
        <time>2011-02-12T14:39:45Z</time>
      </trkpt>
      <trkpt lat="42.712530" lon="-2.796210">
        <ele>526.526</ele>
        <time>2011-02-12T14:39:50Z</time>
      </trkpt>
      <trkpt lat="42.712530" lon="-2.796150">
        <ele>526.907</ele>
        <time>2011-02-12T14:39:55Z</time>
      </trkpt>
      <trkpt lat="42.712540" lon="-2.796080">
        <ele>527.428</ele>
        <time>2011-02-12T14:40:00Z</time>
      </trkpt>
      <trkpt lat="42.712540" lon="-2.796010">
        <ele>528.449</ele>
        <time>2011-02-12T14:40:05Z</time>
      </trkpt>
      <trkpt lat="42.712540" lon="-2.795940">
        <ele>528.968</ele>
        <time>2011-02-12T14:40:10Z</time>
      </trkpt>
      <trkpt lat="42.712530" lon="-2.795880">
        <ele>530.331</ele>
        <time>2011-02-12T14:40:15Z</time>
      </trkpt>
      <trkpt lat="42.712530" lon="-2.795810">
        <ele>530.894</ele>
        <time>2011-02-12T14:40:20Z</time>
      </trkpt>
      <trkpt lat="42.712530" lon="-2.795730">
        <ele>531.875</ele>
        <time>2011-02-12T14:40:26Z</time>
      </trkpt>
      <trkpt lat="42.712530" lon="-2.795660">
        <ele>532.287</ele>
        <time>2011-02-12T14:40:31Z</time>
      </trkpt>
      <trkpt lat="42.712530" lon="-2.795580">
        <ele>532.743</ele>
        <time>2011-02-12T14:40:36Z</time>
      </trkpt>
      <trkpt lat="42.712520" lon="-2.795510">
        <ele>533.264</ele>
        <time>2011-02-12T14:40:41Z</time>
      </trkpt>
      <trkpt lat="42.712520" lon="-2.795440">
        <ele>534.210</ele>
        <time>2011-02-12T14:40:46Z</time>
      </trkpt>
      <trkpt lat="42.712520" lon="-2.795370">
        <ele>534.607</ele>
        <time>2011-02-12T14:40:51Z</time>
      </trkpt>
      <trkpt lat="42.712520" lon="-2.795290">
        <ele>534.666</ele>
        <time>2011-02-12T14:40:56Z</time>
      </trkpt>
      <trkpt lat="42.712520" lon="-2.795220">
        <ele>535.697</ele>
        <time>2011-02-12T14:41:01Z</time>
      </trkpt>
      <trkpt lat="42.712520" lon="-2.795150">
        <ele>536.176</ele>
        <time>2011-02-12T14:41:06Z</time>
      </trkpt>
      <trkpt lat="42.712510" lon="-2.795090">
        <ele>536.599</ele>
        <time>2011-02-12T14:41:11Z</time>
      </trkpt>
      <trkpt lat="42.712510" lon="-2.795010">
        <ele>537.522</ele>
        <time>2011-02-12T14:41:16Z</time>
      </trkpt>
      <trkpt lat="42.712510" lon="-2.794950">
        <ele>538.943</ele>
        <time>2011-02-12T14:41:21Z</time>
      </trkpt>
      <trkpt lat="42.712500" lon="-2.794890">
        <ele>539.435</ele>
        <time>2011-02-12T14:41:26Z</time>
      </trkpt>
      <trkpt lat="42.712490" lon="-2.794820">
        <ele>540.486</ele>
        <time>2011-02-12T14:41:31Z</time>
      </trkpt>
      <trkpt lat="42.712470" lon="-2.794770">
        <ele>540.960</ele>
        <time>2011-02-12T14:41:36Z</time>
      </trkpt>
      <trkpt lat="42.712460" lon="-2.794720">
        <ele>541.826</ele>
        <time>2011-02-12T14:41:41Z</time>
      </trkpt>
      <trkpt lat="42.712450" lon="-2.794660">
        <ele>542.307</ele>
        <time>2011-02-12T14:41:46Z</time>
      </trkpt>
      <trkpt lat="42.712450" lon="-2.794600">
        <ele>543.380</ele>
        <time>2011-02-12T14:41:51Z</time>
      </trkpt>
      <trkpt lat="42.712450" lon="-2.794540">
        <ele>544.321</ele>
        <time>2011-02-12T14:41:56Z</time>
      </trkpt>
      <trkpt lat="42.712440" lon="-2.794490">
        <ele>545.240</ele>
        <time>2011-02-12T14:42:01Z</time>
      </trkpt>
      <trkpt lat="42.712440" lon="-2.794430">
        <ele>546.223</ele>
        <time>2011-02-12T14:42:06Z</time>
      </trkpt>
      <trkpt lat="42.712430" lon="-2.794370">
        <ele>546.786</ele>
        <time>2011-02-12T14:42:11Z</time>
      </trkpt>
      <trkpt lat="42.712420" lon="-2.794310">
        <ele>547.177</ele>
        <time>2011-02-12T14:42:16Z</time>
      </trkpt>
      <trkpt lat="42.712420" lon="-2.794250">
        <ele>547.629</ele>
        <time>2011-02-12T14:42:21Z</time>
      </trkpt>
      <trkpt lat="42.712410" lon="-2.794180">
        <ele>548.119</ele>
        <time>2011-02-12T14:42:26Z</time>
      </trkpt>
      <trkpt lat="42.712390" lon="-2.794130">
        <ele>549.009</ele>
        <time>2011-02-12T14:42:31Z</time>
      </trkpt>
      <trkpt lat="42.712380" lon="-2.794060">
        <ele>549.519</ele>
        <time>2011-02-12T14:42:36Z</time>
      </trkpt>
      <trkpt lat="42.712360" lon="-2.794000">
        <ele>550.507</ele>
        <time>2011-02-12T14:42:41Z</time>
      </trkpt>
      <trkpt lat="42.712350" lon="-2.793940">
        <ele>552.473</ele>
        <time>2011-02-12T14:42:46Z</time>
      </trkpt>
      <trkpt lat="42.712340" lon="-2.793880">
        <ele>553.424</ele>
        <time>2011-02-12T14:42:51Z</time>
      </trkpt>
      <trkpt lat="42.712320" lon="-2.793820">
        <ele>553.943</ele>
        <time>2011-02-12T14:42:56Z</time>
      </trkpt>
      <trkpt lat="42.712320" lon="-2.793750">
        <ele>554.876</ele>
        <time>2011-02-12T14:43:01Z</time>
      </trkpt>
      <trkpt lat="42.712310" lon="-2.793690">
        <ele>555.339</ele>
        <time>2011-02-12T14:43:06Z</time>
      </trkpt>
      <trkpt lat="42.712310" lon="-2.793620">
        <ele>556.330</ele>
        <time>2011-02-12T14:43:11Z</time>
      </trkpt>
      <trkpt lat="42.712310" lon="-2.793560">
        <ele>557.722</ele>
        <time>2011-02-12T14:43:16Z</time>
      </trkpt>
      <trkpt lat="42.712310" lon="-2.793520">
        <ele>557.785</ele>
        <time>2011-02-12T14:43:21Z</time>
      </trkpt>
      <trkpt lat="42.712310" lon="-2.793520">
        <ele>558.289</ele>
        <time>2011-02-12T14:43:26Z</time>
      </trkpt>
      <trkpt lat="42.712310" lon="-2.793520">
        <ele>558.217</ele>
        <time>2011-02-12T14:43:31Z</time>
      </trkpt>
      <trkpt lat="42.712300" lon="-2.793500">
        <ele>558.207</ele>
        <time>2011-02-12T14:43:36Z</time>
      </trkpt>
      <trkpt lat="42.712280" lon="-2.793460">
        <ele>558.750</ele>
        <time>2011-02-12T14:43:41Z</time>
      </trkpt>
      <trkpt lat="42.712260" lon="-2.793440">
        <ele>559.621</ele>
        <time>2011-02-12T14:43:46Z</time>
      </trkpt>
      <trkpt lat="42.712230" lon="-2.793410">
        <ele>560.670</ele>
        <time>2011-02-12T14:43:51Z</time>
      </trkpt>
      <trkpt lat="42.712210" lon="-2.793390">
        <ele>561.143</ele>
        <time>2011-02-12T14:43:56Z</time>
      </trkpt>
      <trkpt lat="42.712170" lon="-2.793380">
        <ele>562.066</ele>
        <time>2011-02-12T14:44:01Z</time>
      </trkpt>
      <trkpt lat="42.712130" lon="-2.793410">
        <ele>562.537</ele>
        <time>2011-02-12T14:44:06Z</time>
      </trkpt>
      <trkpt lat="42.712110" lon="-2.793420">
        <ele>563.559</ele>
        <time>2011-02-12T14:44:11Z</time>
      </trkpt>
      <trkpt lat="42.712070" lon="-2.793430">
        <ele>563.983</ele>
        <time>2011-02-12T14:44:16Z</time>
      </trkpt>
      <trkpt lat="42.712050" lon="-2.793410">
        <ele>564.425</ele>
        <time>2011-02-12T14:44:21Z</time>
      </trkpt>
      <trkpt lat="42.712030" lon="-2.793390">
        <ele>564.917</ele>
        <time>2011-02-12T14:44:26Z</time>
      </trkpt>
      <trkpt lat="42.711990" lon="-2.793390">
        <ele>564.907</ele>
        <time>2011-02-12T14:44:31Z</time>
      </trkpt>
      <trkpt lat="42.711950" lon="-2.793410">
        <ele>565.440</ele>
        <time>2011-02-12T14:44:36Z</time>
      </trkpt>
      <trkpt lat="42.711910" lon="-2.793440">
        <ele>565.491</ele>
        <time>2011-02-12T14:44:41Z</time>
      </trkpt>
      <trkpt lat="42.711890" lon="-2.793480">
        <ele>564.920</ele>
        <time>2011-02-12T14:44:46Z</time>
      </trkpt>
      <trkpt lat="42.711880" lon="-2.793560">
        <ele>564.473</ele>
        <time>2011-02-12T14:44:51Z</time>
      </trkpt>
      <trkpt lat="42.711870" lon="-2.793630">
        <ele>564.476</ele>
        <time>2011-02-12T14:44:56Z</time>
      </trkpt>
      <trkpt lat="42.711850" lon="-2.793790">
        <ele>563.577</ele>
        <time>2011-02-12T14:45:06Z</time>
      </trkpt>
      <trkpt lat="42.711830" lon="-2.793850">
        <ele>563.989</ele>
        <time>2011-02-12T14:45:11Z</time>
      </trkpt>
      <trkpt lat="42.711810" lon="-2.793911">
        <ele>563.585</ele>
        <time>2011-02-12T14:45:16Z</time>
      </trkpt>
      <trkpt lat="42.711810" lon="-2.793980">
        <ele>563.089</ele>
        <time>2011-02-12T14:45:21Z</time>
      </trkpt>
      <trkpt lat="42.711840" lon="-2.794030">
        <ele>563.017</ele>
        <time>2011-02-12T14:45:26Z</time>
      </trkpt>
      <trkpt lat="42.711890" lon="-2.794110">
        <ele>563.007</ele>
        <time>2011-02-12T14:45:36Z</time>
      </trkpt>
      <trkpt lat="42.711890" lon="-2.794110">
        <ele>563.080</ele>
        <time>2011-02-12T14:45:41Z</time>
      </trkpt>
      <trkpt lat="42.711890" lon="-2.794110">
        <ele>562.521</ele>
        <time>2011-02-12T14:45:46Z</time>
      </trkpt>
      <trkpt lat="42.711890" lon="-2.794110">
        <ele>562.510</ele>
        <time>2011-02-12T14:45:51Z</time>
      </trkpt>
      <trkpt lat="42.711870" lon="-2.794110">
        <ele>562.533</ele>
        <time>2011-02-12T14:45:56Z</time>
      </trkpt>
      <trkpt lat="42.711840" lon="-2.794090">
        <ele>562.556</ele>
        <time>2011-02-12T14:46:01Z</time>
      </trkpt>
      <trkpt lat="42.711810" lon="-2.794060">
        <ele>563.077</ele>
        <time>2011-02-12T14:46:06Z</time>
      </trkpt>
      <trkpt lat="42.711780" lon="-2.794010">
        <ele>563.079</ele>
        <time>2011-02-12T14:46:11Z</time>
      </trkpt>
      <trkpt lat="42.711740" lon="-2.793980">
        <ele>562.513</ele>
        <time>2011-02-12T14:46:16Z</time>
      </trkpt>
      <trkpt lat="42.711630" lon="-2.793960">
        <ele>561.143</ele>
        <time>2011-02-12T14:46:26Z</time>
      </trkpt>
      <trkpt lat="42.711570" lon="-2.793970">
        <ele>561.107</ele>
        <time>2011-02-12T14:46:31Z</time>
      </trkpt>
      <trkpt lat="42.711520" lon="-2.793970">
        <ele>561.107</ele>
        <time>2011-02-12T14:46:36Z</time>
      </trkpt>
      <trkpt lat="42.711500" lon="-2.793970">
        <ele>561.143</ele>
        <time>2011-02-12T14:46:41Z</time>
      </trkpt>
      <trkpt lat="42.711500" lon="-2.793970">
        <ele>561.124</ele>
        <time>2011-02-12T14:46:46Z</time>
      </trkpt>
      <trkpt lat="42.711480" lon="-2.793990">
        <ele>560.643</ele>
        <time>2011-02-12T14:46:51Z</time>
      </trkpt>
      <trkpt lat="42.711450" lon="-2.794040">
        <ele>560.696</ele>
        <time>2011-02-12T14:46:56Z</time>
      </trkpt>
      <trkpt lat="42.711430" lon="-2.794090">
        <ele>559.289</ele>
        <time>2011-02-12T14:47:01Z</time>
      </trkpt>
      <trkpt lat="42.711410" lon="-2.794160">
        <ele>557.720</ele>
        <time>2011-02-12T14:47:06Z</time>
      </trkpt>
      <trkpt lat="42.711390" lon="-2.794230">
        <ele>556.782</ele>
        <time>2011-02-12T14:47:11Z</time>
      </trkpt>
      <trkpt lat="42.711370" lon="-2.794290">
        <ele>556.761</ele>
        <time>2011-02-12T14:47:16Z</time>
      </trkpt>
      <trkpt lat="42.711370" lon="-2.794340">
        <ele>556.721</ele>
        <time>2011-02-12T14:47:21Z</time>
      </trkpt>
      <trkpt lat="42.711370" lon="-2.794340">
        <ele>556.313</ele>
        <time>2011-02-12T14:47:26Z</time>
      </trkpt>
      <trkpt lat="42.711370" lon="-2.794340">
        <ele>556.307</ele>
        <time>2011-02-12T14:47:31Z</time>
      </trkpt>
      <trkpt lat="42.711360" lon="-2.794360">
        <ele>556.348</ele>
        <time>2011-02-12T14:47:36Z</time>
      </trkpt>
      <trkpt lat="42.711350" lon="-2.794380">
        <ele>555.859</ele>
        <time>2011-02-12T14:47:41Z</time>
      </trkpt>
      <trkpt lat="42.711350" lon="-2.794380">
        <ele>555.898</ele>
        <time>2011-02-12T14:47:46Z</time>
      </trkpt>
      <trkpt lat="42.711330" lon="-2.794390">
        <ele>555.321</ele>
        <time>2011-02-12T14:47:51Z</time>
      </trkpt>
      <trkpt lat="42.711330" lon="-2.794400">
        <ele>555.344</ele>
        <time>2011-02-12T14:47:56Z</time>
      </trkpt>
      <trkpt lat="42.711320" lon="-2.794390">
        <ele>555.315</ele>
        <time>2011-02-12T14:48:01Z</time>
      </trkpt>
      <trkpt lat="42.711320" lon="-2.794400">
        <ele>554.837</ele>
        <time>2011-02-12T14:48:06Z</time>
      </trkpt>
      <trkpt lat="42.711310" lon="-2.794440">
        <ele>554.355</ele>
        <time>2011-02-12T14:48:11Z</time>
      </trkpt>
      <trkpt lat="42.711310" lon="-2.794460">
        <ele>554.307</ele>
        <time>2011-02-12T14:48:16Z</time>
      </trkpt>
      <trkpt lat="42.711280" lon="-2.794520">
        <ele>553.917</ele>
        <time>2011-02-12T14:48:21Z</time>
      </trkpt>
      <trkpt lat="42.711240" lon="-2.794590">
        <ele>552.907</ele>
        <time>2011-02-12T14:48:26Z</time>
      </trkpt>
      <trkpt lat="42.711200" lon="-2.794640">
        <ele>551.977</ele>
        <time>2011-02-12T14:48:31Z</time>
      </trkpt>
      <trkpt lat="42.711170" lon="-2.794710">
        <ele>551.098</ele>
        <time>2011-02-12T14:48:36Z</time>
      </trkpt>
      <trkpt lat="42.711140" lon="-2.794790">
        <ele>550.087</ele>
        <time>2011-02-12T14:48:41Z</time>
      </trkpt>
      <trkpt lat="42.711120" lon="-2.794870">
        <ele>550.080</ele>
        <time>2011-02-12T14:48:46Z</time>
      </trkpt>
      <trkpt lat="42.711090" lon="-2.794940">
        <ele>549.073</ele>
        <time>2011-02-12T14:48:51Z</time>
      </trkpt>
      <trkpt lat="42.711070" lon="-2.795000">
        <ele>549.054</ele>
        <time>2011-02-12T14:48:56Z</time>
      </trkpt>
      <trkpt lat="42.711060" lon="-2.795070">
        <ele>548.676</ele>
        <time>2011-02-12T14:49:01Z</time>
      </trkpt>
      <trkpt lat="42.711040" lon="-2.795150">
        <ele>548.136</ele>
        <time>2011-02-12T14:49:06Z</time>
      </trkpt>
      <trkpt lat="42.711040" lon="-2.795230">
        <ele>546.717</ele>
        <time>2011-02-12T14:49:11Z</time>
      </trkpt>
      <trkpt lat="42.711030" lon="-2.795310">
        <ele>545.218</ele>
        <time>2011-02-12T14:49:16Z</time>
      </trkpt>
      <trkpt lat="42.711030" lon="-2.795390">
        <ele>544.307</ele>
        <time>2011-02-12T14:49:21Z</time>
      </trkpt>
      <trkpt lat="42.710990" lon="-2.795460">
        <ele>544.375</ele>
        <time>2011-02-12T14:49:26Z</time>
      </trkpt>
      <trkpt lat="42.710970" lon="-2.795530">
        <ele>543.846</ele>
        <time>2011-02-12T14:49:31Z</time>
      </trkpt>
      <trkpt lat="42.710970" lon="-2.795570">
        <ele>543.865</ele>
        <time>2011-02-12T14:49:36Z</time>
      </trkpt>
      <trkpt lat="42.710990" lon="-2.795590">
        <ele>543.378</ele>
        <time>2011-02-12T14:49:41Z</time>
      </trkpt>
      <trkpt lat="42.711010" lon="-2.795640">
        <ele>542.891</ele>
        <time>2011-02-12T14:49:46Z</time>
      </trkpt>
      <trkpt lat="42.710990" lon="-2.795670">
        <ele>543.862</ele>
        <time>2011-02-12T14:49:51Z</time>
      </trkpt>
      <trkpt lat="42.710960" lon="-2.795680">
        <ele>543.864</ele>
        <time>2011-02-12T14:49:56Z</time>
      </trkpt>
      <trkpt lat="42.710950" lon="-2.795700">
        <ele>543.327</ele>
        <time>2011-02-12T14:50:02Z</time>
      </trkpt>
      <trkpt lat="42.710910" lon="-2.795700">
        <ele>543.868</ele>
        <time>2011-02-12T14:50:07Z</time>
      </trkpt>
      <trkpt lat="42.710890" lon="-2.795690">
        <ele>543.814</ele>
        <time>2011-02-12T14:50:12Z</time>
      </trkpt>
      <trkpt lat="42.710880" lon="-2.795680">
        <ele>544.307</ele>
        <time>2011-02-12T14:50:17Z</time>
      </trkpt>
      <trkpt lat="42.710880" lon="-2.795680">
        <ele>542.814</ele>
        <time>2011-02-12T14:50:22Z</time>
      </trkpt>
      <trkpt lat="42.710880" lon="-2.795680">
        <ele>544.715</ele>
        <time>2011-02-12T14:50:27Z</time>
      </trkpt>
      <trkpt lat="42.710880" lon="-2.795680">
        <ele>542.334</ele>
        <time>2011-02-12T14:50:28Z</time>
      </trkpt>
      <trkpt lat="42.711019" lon="-2.795595">
        <ele>582.746</ele>
        <time>2011-03-12T10:07:45Z</time>
      </trkpt>
      <trkpt lat="42.711050" lon="-2.795595">
        <ele>536.588</ele>
        <time>2011-03-12T10:11:37Z</time>
      </trkpt>
      <trkpt lat="42.711070" lon="-2.795590">
        <ele>536.116</ele>
        <time>2011-03-12T10:11:50Z</time>
      </trkpt>
      <trkpt lat="42.711070" lon="-2.795460">
        <ele>537.007</ele>
        <time>2011-03-12T10:11:59Z</time>
      </trkpt>
      <trkpt lat="42.711070" lon="-2.795330">
        <ele>537.526</ele>
        <time>2011-03-12T10:12:08Z</time>
      </trkpt>
      <trkpt lat="42.711070" lon="-2.795190">
        <ele>538.957</ele>
        <time>2011-03-12T10:12:18Z</time>
      </trkpt>
      <trkpt lat="42.711090" lon="-2.795050">
        <ele>539.946</ele>
        <time>2011-03-12T10:12:27Z</time>
      </trkpt>
      <trkpt lat="42.711094" lon="-2.794911">
        <ele>540.971</ele>
        <time>2011-03-12T10:12:35Z</time>
      </trkpt>
      <trkpt lat="42.711112" lon="-2.794777">
        <ele>542.843</ele>
        <time>2011-03-12T10:12:43Z</time>
      </trkpt>
      <trkpt lat="42.711157" lon="-2.794642">
        <ele>543.873</ele>
        <time>2011-03-12T10:12:52Z</time>
      </trkpt>
      <trkpt lat="42.711215" lon="-2.794538">
        <ele>545.775</ele>
        <time>2011-03-12T10:13:01Z</time>
      </trkpt>
      <trkpt lat="42.711278" lon="-2.794447">
        <ele>546.269</ele>
        <time>2011-03-12T10:13:10Z</time>
      </trkpt>
      <trkpt lat="42.711330" lon="-2.794360">
        <ele>548.104</ele>
        <time>2011-03-12T10:13:19Z</time>
      </trkpt>
      <trkpt lat="42.711370" lon="-2.794250">
        <ele>549.024</ele>
        <time>2011-03-12T10:13:28Z</time>
      </trkpt>
      <trkpt lat="42.711410" lon="-2.794130">
        <ele>551.007</ele>
        <time>2011-03-12T10:13:38Z</time>
      </trkpt>
      <trkpt lat="42.711448" lon="-2.794007">
        <ele>552.428</ele>
        <time>2011-03-12T10:13:48Z</time>
      </trkpt>
      <trkpt lat="42.711511" lon="-2.793921">
        <ele>553.429</ele>
        <time>2011-03-12T10:13:59Z</time>
      </trkpt>
      <trkpt lat="42.711610" lon="-2.793920">
        <ele>554.348</ele>
        <time>2011-03-12T10:14:11Z</time>
      </trkpt>
      <trkpt lat="42.711714" lon="-2.793914">
        <ele>556.333</ele>
        <time>2011-03-12T10:14:21Z</time>
      </trkpt>
      <trkpt lat="42.711790" lon="-2.793932">
        <ele>556.715</ele>
        <time>2011-03-12T10:14:31Z</time>
      </trkpt>
      <trkpt lat="42.711810" lon="-2.794070">
        <ele>557.215</ele>
        <time>2011-03-12T10:14:50Z</time>
      </trkpt>
      <trkpt lat="42.711800" lon="-2.794120">
        <ele>557.297</ele>
        <time>2011-03-12T10:15:34Z</time>
      </trkpt>
      <trkpt lat="42.711831" lon="-2.794066">
        <ele>557.258</ele>
        <time>2011-03-12T10:16:52Z</time>
      </trkpt>
      <trkpt lat="42.711881" lon="-2.794097">
        <ele>556.752</ele>
        <time>2011-03-12T10:17:27Z</time>
      </trkpt>
      <trkpt lat="42.711953" lon="-2.794109">
        <ele>555.317</ele>
        <time>2011-03-12T10:17:57Z</time>
      </trkpt>
      <trkpt lat="42.711990" lon="-2.794140">
        <ele>555.807</ele>
        <time>2011-03-12T10:18:30Z</time>
      </trkpt>
      <trkpt lat="42.712000" lon="-2.794120">
        <ele>555.367</ele>
        <time>2011-03-12T10:19:50Z</time>
      </trkpt>
      <trkpt lat="42.711910" lon="-2.794100">
        <ele>556.768</ele>
        <time>2011-03-12T10:20:04Z</time>
      </trkpt>
      <trkpt lat="42.711820" lon="-2.794030">
        <ele>557.237</ele>
        <time>2011-03-12T10:20:16Z</time>
      </trkpt>
      <trkpt lat="42.711800" lon="-2.793900">
        <ele>557.742</ele>
        <time>2011-03-12T10:20:25Z</time>
      </trkpt>
      <trkpt lat="42.711820" lon="-2.793770">
        <ele>558.224</ele>
        <time>2011-03-12T10:20:35Z</time>
      </trkpt>
      <trkpt lat="42.711830" lon="-2.793639">
        <ele>559.234</ele>
        <time>2011-03-12T10:20:43Z</time>
      </trkpt>
      <trkpt lat="42.711853" lon="-2.793511">
        <ele>560.696</ele>
        <time>2011-03-12T10:20:51Z</time>
      </trkpt>
      <trkpt lat="42.711879" lon="-2.793370">
        <ele>560.145</ele>
        <time>2011-03-12T10:20:59Z</time>
      </trkpt>
      <trkpt lat="42.711938" lon="-2.793242">
        <ele>561.547</ele>
        <time>2011-03-12T10:21:08Z</time>
      </trkpt>
      <trkpt lat="42.711983" lon="-2.793174">
        <ele>562.011</ele>
        <time>2011-03-12T10:21:17Z</time>
      </trkpt>
      <trkpt lat="42.712027" lon="-2.793064">
        <ele>562.507</ele>
        <time>2011-03-12T10:21:52Z</time>
      </trkpt>
      <trkpt lat="42.712050" lon="-2.792954">
        <ele>563.556</ele>
        <time>2011-03-12T10:21:59Z</time>
      </trkpt>
      <trkpt lat="42.712063" lon="-2.792838">
        <ele>564.487</ele>
        <time>2011-03-12T10:22:06Z</time>
      </trkpt>
      <trkpt lat="42.712076" lon="-2.792728">
        <ele>565.486</ele>
        <time>2011-03-12T10:22:14Z</time>
      </trkpt>
      <trkpt lat="42.712094" lon="-2.792606">
        <ele>566.311</ele>
        <time>2011-03-12T10:22:21Z</time>
      </trkpt>
      <trkpt lat="42.712094" lon="-2.792490">
        <ele>566.833</ele>
        <time>2011-03-12T10:22:29Z</time>
      </trkpt>
      <trkpt lat="42.712089" lon="-2.792350">
        <ele>568.323</ele>
        <time>2011-03-12T10:22:39Z</time>
      </trkpt>
      <trkpt lat="42.712070" lon="-2.792240">
        <ele>570.775</ele>
        <time>2011-03-12T10:22:48Z</time>
      </trkpt>
      <trkpt lat="42.712000" lon="-2.792170">
        <ele>572.155</ele>
        <time>2011-03-12T10:22:59Z</time>
      </trkpt>
      <trkpt lat="42.711910" lon="-2.792110">
        <ele>574.007</ele>
        <time>2011-03-12T10:23:09Z</time>
      </trkpt>
      <trkpt lat="42.711830" lon="-2.792040">
        <ele>575.517</ele>
        <time>2011-03-12T10:23:19Z</time>
      </trkpt>
      <trkpt lat="42.711760" lon="-2.791950">
        <ele>576.407</ele>
        <time>2011-03-12T10:23:28Z</time>
      </trkpt>
      <trkpt lat="42.711700" lon="-2.791850">
        <ele>577.937</ele>
        <time>2011-03-12T10:23:36Z</time>
      </trkpt>
      <trkpt lat="42.711620" lon="-2.791760">
        <ele>578.828</ele>
        <time>2011-03-12T10:23:45Z</time>
      </trkpt>
      <trkpt lat="42.711550" lon="-2.791660">
        <ele>579.337</ele>
        <time>2011-03-12T10:23:54Z</time>
      </trkpt>
      <trkpt lat="42.711480" lon="-2.791590">
        <ele>580.352</ele>
        <time>2011-03-12T10:24:03Z</time>
      </trkpt>
      <trkpt lat="42.711380" lon="-2.791540">
        <ele>583.244</ele>
        <time>2011-03-12T10:24:13Z</time>
      </trkpt>
      <trkpt lat="42.711300" lon="-2.791490">
        <ele>584.694</ele>
        <time>2011-03-12T10:24:23Z</time>
      </trkpt>
      <trkpt lat="42.711210" lon="-2.791440">
        <ele>587.016</ele>
        <time>2011-03-12T10:24:33Z</time>
      </trkpt>
      <trkpt lat="42.711130" lon="-2.791390">
        <ele>588.562</ele>
        <time>2011-03-12T10:24:43Z</time>
      </trkpt>
      <trkpt lat="42.711040" lon="-2.791340">
        <ele>591.383</ele>
        <time>2011-03-12T10:24:54Z</time>
      </trkpt>
      <trkpt lat="42.710950" lon="-2.791290">
        <ele>593.311</ele>
        <time>2011-03-12T10:25:05Z</time>
      </trkpt>
      <trkpt lat="42.710870" lon="-2.791230">
        <ele>596.207</ele>
        <time>2011-03-12T10:25:16Z</time>
      </trkpt>
      <trkpt lat="42.710790" lon="-2.791150">
        <ele>598.188</ele>
        <time>2011-03-12T10:25:28Z</time>
      </trkpt>
      <trkpt lat="42.710720" lon="-2.791070">
        <ele>601.069</ele>
        <time>2011-03-12T10:25:39Z</time>
      </trkpt>
      <trkpt lat="42.710650" lon="-2.790990">
        <ele>602.928</ele>
        <time>2011-03-12T10:25:50Z</time>
      </trkpt>
      <trkpt lat="42.710580" lon="-2.790900">
        <ele>605.833</ele>
        <time>2011-03-12T10:26:02Z</time>
      </trkpt>
      <trkpt lat="42.710510" lon="-2.790820">
        <ele>606.775</ele>
        <time>2011-03-12T10:26:13Z</time>
      </trkpt>
      <trkpt lat="42.710440" lon="-2.790730">
        <ele>609.665</ele>
        <time>2011-03-12T10:26:24Z</time>
      </trkpt>
      <trkpt lat="42.710380" lon="-2.790650">
        <ele>609.657</ele>
        <time>2011-03-12T10:26:34Z</time>
      </trkpt>
      <trkpt lat="42.710340" lon="-2.790540">
        <ele>611.188</ele>
        <time>2011-03-12T10:26:45Z</time>
      </trkpt>
      <trkpt lat="42.710300" lon="-2.790420">
        <ele>613.024</ele>
        <time>2011-03-12T10:26:56Z</time>
      </trkpt>
      <trkpt lat="42.710260" lon="-2.790300">
        <ele>614.926</ele>
        <time>2011-03-12T10:27:06Z</time>
      </trkpt>
      <trkpt lat="42.710200" lon="-2.790200">
        <ele>617.307</ele>
        <time>2011-03-12T10:27:16Z</time>
      </trkpt>
      <trkpt lat="42.710140" lon="-2.790100">
        <ele>617.830</ele>
        <time>2011-03-12T10:27:26Z</time>
      </trkpt>
      <trkpt lat="42.710080" lon="-2.790000">
        <ele>618.711</ele>
        <time>2011-03-12T10:27:35Z</time>
      </trkpt>
      <trkpt lat="42.710020" lon="-2.789880">
        <ele>619.230</ele>
        <time>2011-03-12T10:27:45Z</time>
      </trkpt>
      <trkpt lat="42.709980" lon="-2.789770">
        <ele>620.275</ele>
        <time>2011-03-12T10:27:56Z</time>
      </trkpt>
      <trkpt lat="42.709890" lon="-2.789720">
        <ele>621.657</ele>
        <time>2011-03-12T10:28:07Z</time>
      </trkpt>
      <trkpt lat="42.709790" lon="-2.789700">
        <ele>624.077</ele>
        <time>2011-03-12T10:28:17Z</time>
      </trkpt>
      <trkpt lat="42.709700" lon="-2.789680">
        <ele>624.519</ele>
        <time>2011-03-12T10:28:27Z</time>
      </trkpt>
      <trkpt lat="42.709600" lon="-2.789650">
        <ele>625.593</ele>
        <time>2011-03-12T10:28:37Z</time>
      </trkpt>
      <trkpt lat="42.709510" lon="-2.789620">
        <ele>626.965</ele>
        <time>2011-03-12T10:28:47Z</time>
      </trkpt>
      <trkpt lat="42.709420" lon="-2.789590">
        <ele>627.921</ele>
        <time>2011-03-12T10:28:57Z</time>
      </trkpt>
      <trkpt lat="42.709330" lon="-2.789550">
        <ele>629.307</ele>
        <time>2011-03-12T10:29:07Z</time>
      </trkpt>
      <trkpt lat="42.709240" lon="-2.789530">
        <ele>631.281</ele>
        <time>2011-03-12T10:29:17Z</time>
      </trkpt>
      <trkpt lat="42.709150" lon="-2.789560">
        <ele>633.252</ele>
        <time>2011-03-12T10:29:28Z</time>
      </trkpt>
      <trkpt lat="42.709060" lon="-2.789580">
        <ele>635.161</ele>
        <time>2011-03-12T10:29:39Z</time>
      </trkpt>
      <trkpt lat="42.708970" lon="-2.789580">
        <ele>637.566</ele>
        <time>2011-03-12T10:29:49Z</time>
      </trkpt>
      <trkpt lat="42.708870" lon="-2.789580">
        <ele>638.518</ele>
        <time>2011-03-12T10:30:00Z</time>
      </trkpt>
      <trkpt lat="42.708780" lon="-2.789570">
        <ele>640.868</ele>
        <time>2011-03-12T10:30:10Z</time>
      </trkpt>
      <trkpt lat="42.708690" lon="-2.789530">
        <ele>642.390</ele>
        <time>2011-03-12T10:30:22Z</time>
      </trkpt>
      <trkpt lat="42.708600" lon="-2.789470">
        <ele>644.735</ele>
        <time>2011-03-12T10:30:33Z</time>
      </trkpt>
      <trkpt lat="42.708510" lon="-2.789420">
        <ele>646.686</ele>
        <time>2011-03-12T10:30:44Z</time>
      </trkpt>
      <trkpt lat="42.708430" lon="-2.789360">
        <ele>647.614</ele>
        <time>2011-03-12T10:30:54Z</time>
      </trkpt>
      <trkpt lat="42.708350" lon="-2.789300">
        <ele>650.007</ele>
        <time>2011-03-12T10:31:05Z</time>
      </trkpt>
      <trkpt lat="42.708270" lon="-2.789220">
        <ele>651.995</ele>
        <time>2011-03-12T10:31:17Z</time>
      </trkpt>
      <trkpt lat="42.708200" lon="-2.789130">
        <ele>655.376</ele>
        <time>2011-03-12T10:31:29Z</time>
      </trkpt>
      <trkpt lat="42.708130" lon="-2.789040">
        <ele>657.275</ele>
        <time>2011-03-12T10:31:40Z</time>
      </trkpt>
      <trkpt lat="42.708060" lon="-2.788990">
        <ele>660.640</ele>
        <time>2011-03-12T10:31:52Z</time>
      </trkpt>
      <trkpt lat="42.707990" lon="-2.788910">
        <ele>662.042</ele>
        <time>2011-03-12T10:32:03Z</time>
      </trkpt>
      <trkpt lat="42.707940" lon="-2.788810">
        <ele>663.522</ele>
        <time>2011-03-12T10:32:14Z</time>
      </trkpt>
      <trkpt lat="42.707900" lon="-2.788720">
        <ele>666.384</ele>
        <time>2011-03-12T10:32:25Z</time>
      </trkpt>
      <trkpt lat="42.707850" lon="-2.788610">
        <ele>667.346</ele>
        <time>2011-03-12T10:32:36Z</time>
      </trkpt>
      <trkpt lat="42.707800" lon="-2.788510">
        <ele>669.288</ele>
        <time>2011-03-12T10:32:46Z</time>
      </trkpt>
      <trkpt lat="42.707730" lon="-2.788420">
        <ele>671.116</ele>
        <time>2011-03-12T10:32:57Z</time>
      </trkpt>
      <trkpt lat="42.707650" lon="-2.788340">
        <ele>672.107</ele>
        <time>2011-03-12T10:33:07Z</time>
      </trkpt>
      <trkpt lat="42.707570" lon="-2.788260">
        <ele>674.096</ele>
        <time>2011-03-12T10:33:17Z</time>
      </trkpt>
      <trkpt lat="42.707490" lon="-2.788190">
        <ele>676.447</ele>
        <time>2011-03-12T10:33:28Z</time>
      </trkpt>
      <trkpt lat="42.707420" lon="-2.788110">
        <ele>677.936</ele>
        <time>2011-03-12T10:33:39Z</time>
      </trkpt>
      <trkpt lat="42.707350" lon="-2.788020">
        <ele>679.841</ele>
        <time>2011-03-12T10:33:50Z</time>
      </trkpt>
      <trkpt lat="42.707310" lon="-2.787910">
        <ele>682.773</ele>
        <time>2011-03-12T10:34:01Z</time>
      </trkpt>
      <trkpt lat="42.707270" lon="-2.787810">
        <ele>684.643</ele>
        <time>2011-03-12T10:34:12Z</time>
      </trkpt>
      <trkpt lat="42.707210" lon="-2.787710">
        <ele>686.535</ele>
        <time>2011-03-12T10:34:24Z</time>
      </trkpt>
      <trkpt lat="42.707130" lon="-2.787650">
        <ele>688.039</ele>
        <time>2011-03-12T10:34:36Z</time>
      </trkpt>
      <trkpt lat="42.707040" lon="-2.787590">
        <ele>691.301</ele>
        <time>2011-03-12T10:34:48Z</time>
      </trkpt>
      <trkpt lat="42.706950" lon="-2.787540">
        <ele>692.321</ele>
        <time>2011-03-12T10:34:59Z</time>
      </trkpt>
      <trkpt lat="42.706860" lon="-2.787500">
        <ele>694.707</ele>
        <time>2011-03-12T10:35:11Z</time>
      </trkpt>
      <trkpt lat="42.706780" lon="-2.787440">
        <ele>697.655</ele>
        <time>2011-03-12T10:35:23Z</time>
      </trkpt>
      <trkpt lat="42.706720" lon="-2.787350">
        <ele>700.086</ele>
        <time>2011-03-12T10:35:34Z</time>
      </trkpt>
      <trkpt lat="42.706630" lon="-2.787330">
        <ele>700.985</ele>
        <time>2011-03-12T10:35:45Z</time>
      </trkpt>
      <trkpt lat="42.706560" lon="-2.787410">
        <ele>700.940</ele>
        <time>2011-03-12T10:35:54Z</time>
      </trkpt>
      <trkpt lat="42.706470" lon="-2.787430">
        <ele>701.952</ele>
        <time>2011-03-12T10:36:03Z</time>
      </trkpt>
      <trkpt lat="42.706370" lon="-2.787440">
        <ele>702.932</ele>
        <time>2011-03-12T10:36:13Z</time>
      </trkpt>
      <trkpt lat="42.706280" lon="-2.787460">
        <ele>705.344</ele>
        <time>2011-03-12T10:36:23Z</time>
      </trkpt>
      <trkpt lat="42.706190" lon="-2.787480">
        <ele>706.744</ele>
        <time>2011-03-12T10:36:33Z</time>
      </trkpt>
      <trkpt lat="42.706090" lon="-2.787510">
        <ele>707.205</ele>
        <time>2011-03-12T10:36:43Z</time>
      </trkpt>
      <trkpt lat="42.706000" lon="-2.787500">
        <ele>707.715</ele>
        <time>2011-03-12T10:36:52Z</time>
      </trkpt>
      <trkpt lat="42.705890" lon="-2.787490">
        <ele>709.107</ele>
        <time>2011-03-12T10:37:02Z</time>
      </trkpt>
      <trkpt lat="42.705800" lon="-2.787480">
        <ele>709.636</ele>
        <time>2011-03-12T10:37:11Z</time>
      </trkpt>
      <trkpt lat="42.705700" lon="-2.787460">
        <ele>709.697</ele>
        <time>2011-03-12T10:37:20Z</time>
      </trkpt>
      <trkpt lat="42.705610" lon="-2.787440">
        <ele>710.556</ele>
        <time>2011-03-12T10:37:30Z</time>
      </trkpt>
      <trkpt lat="42.705510" lon="-2.787400">
        <ele>710.181</ele>
        <time>2011-03-12T10:37:39Z</time>
      </trkpt>
      <trkpt lat="42.705410" lon="-2.787370">
        <ele>711.583</ele>
        <time>2011-03-12T10:37:48Z</time>
      </trkpt>
      <trkpt lat="42.705320" lon="-2.787350">
        <ele>712.033</ele>
        <time>2011-03-12T10:37:56Z</time>
      </trkpt>
      <trkpt lat="42.705220" lon="-2.787340">
        <ele>713.095</ele>
        <time>2011-03-12T10:38:05Z</time>
      </trkpt>
      <trkpt lat="42.705130" lon="-2.787300">
        <ele>713.417</ele>
        <time>2011-03-12T10:38:14Z</time>
      </trkpt>
      <trkpt lat="42.705040" lon="-2.787240">
        <ele>714.487</ele>
        <time>2011-03-12T10:38:23Z</time>
      </trkpt>
      <trkpt lat="42.704960" lon="-2.787170">
        <ele>715.415</ele>
        <time>2011-03-12T10:38:32Z</time>
      </trkpt>
      <trkpt lat="42.704890" lon="-2.787090">
        <ele>715.907</ele>
        <time>2011-03-12T10:38:41Z</time>
      </trkpt>
      <trkpt lat="42.704820" lon="-2.787010">
        <ele>716.893</ele>
        <time>2011-03-12T10:38:50Z</time>
      </trkpt>
      <trkpt lat="42.704770" lon="-2.786910">
        <ele>718.264</ele>
        <time>2011-03-12T10:39:02Z</time>
      </trkpt>
      <trkpt lat="42.704720" lon="-2.786880">
        <ele>719.253</ele>
        <time>2011-03-12T10:42:19Z</time>
      </trkpt>
      <trkpt lat="42.704660" lon="-2.786800">
        <ele>718.788</ele>
        <time>2011-03-12T10:42:27Z</time>
      </trkpt>
      <trkpt lat="42.704590" lon="-2.786710">
        <ele>719.280</ele>
        <time>2011-03-12T10:42:35Z</time>
      </trkpt>
      <trkpt lat="42.704510" lon="-2.786630">
        <ele>718.710</ele>
        <time>2011-03-12T10:42:43Z</time>
      </trkpt>
      <trkpt lat="42.704440" lon="-2.786540">
        <ele>718.782</ele>
        <time>2011-03-12T10:42:51Z</time>
      </trkpt>
      <trkpt lat="42.704380" lon="-2.786440">
        <ele>719.296</ele>
        <time>2011-03-12T10:42:59Z</time>
      </trkpt>
      <trkpt lat="42.704320" lon="-2.786360">
        <ele>719.231</ele>
        <time>2011-03-12T10:43:08Z</time>
      </trkpt>
      <trkpt lat="42.704250" lon="-2.786260">
        <ele>718.724</ele>
        <time>2011-03-12T10:43:17Z</time>
      </trkpt>
      <trkpt lat="42.704190" lon="-2.786160">
        <ele>719.207</ele>
        <time>2011-03-12T10:43:25Z</time>
      </trkpt>
      <trkpt lat="42.704120" lon="-2.786080">
        <ele>719.281</ele>
        <time>2011-03-12T10:43:33Z</time>
      </trkpt>
      <trkpt lat="42.704030" lon="-2.786050">
        <ele>719.712</ele>
        <time>2011-03-12T10:43:41Z</time>
      </trkpt>
      <trkpt lat="42.703940" lon="-2.786090">
        <ele>720.671</ele>
        <time>2011-03-12T10:43:50Z</time>
      </trkpt>
      <trkpt lat="42.703850" lon="-2.786130">
        <ele>721.636</ele>
        <time>2011-03-12T10:43:59Z</time>
      </trkpt>
      <trkpt lat="42.703760" lon="-2.786160">
        <ele>722.168</ele>
        <time>2011-03-12T10:44:08Z</time>
      </trkpt>
      <trkpt lat="42.703670" lon="-2.786200">
        <ele>724.038</ele>
        <time>2011-03-12T10:44:17Z</time>
      </trkpt>
      <trkpt lat="42.703590" lon="-2.786250">
        <ele>725.520</ele>
        <time>2011-03-12T10:44:27Z</time>
      </trkpt>
      <trkpt lat="42.703520" lon="-2.786320">
        <ele>728.415</ele>
        <time>2011-03-12T10:44:38Z</time>
      </trkpt>
      <trkpt lat="42.703450" lon="-2.786430">
        <ele>729.865</ele>
        <time>2011-03-12T10:44:51Z</time>
      </trkpt>
      <trkpt lat="42.703400" lon="-2.786530">
        <ele>732.211</ele>
        <time>2011-03-12T10:45:01Z</time>
      </trkpt>
      <trkpt lat="42.703350" lon="-2.786650">
        <ele>732.207</ele>
        <time>2011-03-12T10:45:11Z</time>
      </trkpt>
      <trkpt lat="42.703300" lon="-2.786750">
        <ele>732.613</ele>
        <time>2011-03-12T10:45:20Z</time>
      </trkpt>
      <trkpt lat="42.703240" lon="-2.786850">
        <ele>733.624</ele>
        <time>2011-03-12T10:45:30Z</time>
      </trkpt>
      <trkpt lat="42.703180" lon="-2.786950">
        <ele>734.613</ele>
        <time>2011-03-12T10:45:40Z</time>
      </trkpt>
      <trkpt lat="42.703110" lon="-2.787030">
        <ele>735.558</ele>
        <time>2011-03-12T10:45:51Z</time>
      </trkpt>
      <trkpt lat="42.703040" lon="-2.787110">
        <ele>737.560</ele>
        <time>2011-03-12T10:46:01Z</time>
      </trkpt>
      <trkpt lat="42.702980" lon="-2.787200">
        <ele>739.450</ele>
        <time>2011-03-12T10:46:11Z</time>
      </trkpt>
      <trkpt lat="42.702920" lon="-2.787300">
        <ele>739.992</ele>
        <time>2011-03-12T10:46:21Z</time>
      </trkpt>
      <trkpt lat="42.702850" lon="-2.787390">
        <ele>741.339</ele>
        <time>2011-03-12T10:46:32Z</time>
      </trkpt>
      <trkpt lat="42.702780" lon="-2.787480">
        <ele>743.201</ele>
        <time>2011-03-12T10:46:42Z</time>
      </trkpt>
      <trkpt lat="42.702710" lon="-2.787580">
        <ele>743.721</ele>
        <time>2011-03-12T10:46:52Z</time>
      </trkpt>
      <trkpt lat="42.702640" lon="-2.787680">
        <ele>744.207</ele>
        <time>2011-03-12T10:47:02Z</time>
      </trkpt>
      <trkpt lat="42.702570" lon="-2.787780">
        <ele>744.725</ele>
        <time>2011-03-12T10:47:12Z</time>
      </trkpt>
      <trkpt lat="42.702510" lon="-2.787880">
        <ele>744.776</ele>
        <time>2011-03-12T10:47:21Z</time>
      </trkpt>
      <trkpt lat="42.702430" lon="-2.787960">
        <ele>745.695</ele>
        <time>2011-03-12T10:47:30Z</time>
      </trkpt>
      <trkpt lat="42.702360" lon="-2.788040">
        <ele>746.620</ele>
        <time>2011-03-12T10:47:39Z</time>
      </trkpt>
      <trkpt lat="42.702290" lon="-2.788110">
        <ele>747.192</ele>
        <time>2011-03-12T10:47:48Z</time>
      </trkpt>
      <trkpt lat="42.702210" lon="-2.788200">
        <ele>749.052</ele>
        <time>2011-03-12T10:47:58Z</time>
      </trkpt>
      <trkpt lat="42.702140" lon="-2.788280">
        <ele>749.544</ele>
        <time>2011-03-12T10:48:07Z</time>
      </trkpt>
      <trkpt lat="42.702070" lon="-2.788360">
        <ele>750.427</ele>
        <time>2011-03-12T10:48:16Z</time>
      </trkpt>
      <trkpt lat="42.702000" lon="-2.788470">
        <ele>751.468</ele>
        <time>2011-03-12T10:48:26Z</time>
      </trkpt>
      <trkpt lat="42.701930" lon="-2.788550">
        <ele>752.414</ele>
        <time>2011-03-12T10:48:35Z</time>
      </trkpt>
      <trkpt lat="42.701860" lon="-2.788620">
        <ele>752.407</ele>
        <time>2011-03-12T10:48:44Z</time>
      </trkpt>
      <trkpt lat="42.701770" lon="-2.788670">
        <ele>753.814</ele>
        <time>2011-03-12T10:48:53Z</time>
      </trkpt>
      <trkpt lat="42.701690" lon="-2.788730">
        <ele>754.315</ele>
        <time>2011-03-12T10:49:02Z</time>
      </trkpt>
      <trkpt lat="42.701600" lon="-2.788740">
        <ele>754.354</ele>
        <time>2011-03-12T10:49:11Z</time>
      </trkpt>
      <trkpt lat="42.701500" lon="-2.788730">
        <ele>754.839</ele>
        <time>2011-03-12T10:49:20Z</time>
      </trkpt>
      <trkpt lat="42.701400" lon="-2.788710">
        <ele>754.831</ele>
        <time>2011-03-12T10:49:29Z</time>
      </trkpt>
      <trkpt lat="42.701310" lon="-2.788700">
        <ele>754.871</ele>
        <time>2011-03-12T10:49:37Z</time>
      </trkpt>
      <trkpt lat="42.701220" lon="-2.788690">
        <ele>756.263</ele>
        <time>2011-03-12T10:49:46Z</time>
      </trkpt>
      <trkpt lat="42.701130" lon="-2.788710">
        <ele>758.131</ele>
        <time>2011-03-12T10:49:56Z</time>
      </trkpt>
      <trkpt lat="42.701040" lon="-2.788750">
        <ele>759.161</ele>
        <time>2011-03-12T10:50:06Z</time>
      </trkpt>
      <trkpt lat="42.700950" lon="-2.788780">
        <ele>760.007</ele>
        <time>2011-03-12T10:50:15Z</time>
      </trkpt>
      <trkpt lat="42.700850" lon="-2.788810">
        <ele>760.507</ele>
        <time>2011-03-12T10:50:24Z</time>
      </trkpt>
      <trkpt lat="42.700750" lon="-2.788810">
        <ele>762.545</ele>
        <time>2011-03-12T10:50:34Z</time>
      </trkpt>
      <trkpt lat="42.700660" lon="-2.788830">
        <ele>762.916</ele>
        <time>2011-03-12T10:50:44Z</time>
      </trkpt>
      <trkpt lat="42.700570" lon="-2.788860">
        <ele>763.435</ele>
        <time>2011-03-12T10:50:54Z</time>
      </trkpt>
      <trkpt lat="42.700480" lon="-2.788910">
        <ele>763.960</ele>
        <time>2011-03-12T10:51:04Z</time>
      </trkpt>
      <trkpt lat="42.700400" lon="-2.788980">
        <ele>764.492</ele>
        <time>2011-03-12T10:51:13Z</time>
      </trkpt>
      <trkpt lat="42.700320" lon="-2.789060">
        <ele>764.442</ele>
        <time>2011-03-12T10:51:22Z</time>
      </trkpt>
      <trkpt lat="42.700240" lon="-2.789140">
        <ele>764.984</ele>
        <time>2011-03-12T10:51:31Z</time>
      </trkpt>
      <trkpt lat="42.700150" lon="-2.789200">
        <ele>765.456</ele>
        <time>2011-03-12T10:51:40Z</time>
      </trkpt>
      <trkpt lat="42.700060" lon="-2.789230">
        <ele>765.459</ele>
        <time>2011-03-12T10:51:49Z</time>
      </trkpt>
      <trkpt lat="42.699970" lon="-2.789200">
        <ele>765.414</ele>
        <time>2011-03-12T10:51:58Z</time>
      </trkpt>
      <trkpt lat="42.699870" lon="-2.789200">
        <ele>766.807</ele>
        <time>2011-03-12T10:52:08Z</time>
      </trkpt>
      <trkpt lat="42.699780" lon="-2.789210">
        <ele>767.377</ele>
        <time>2011-03-12T10:52:17Z</time>
      </trkpt>
      <trkpt lat="42.699710" lon="-2.789280">
        <ele>768.288</ele>
        <time>2011-03-12T10:52:26Z</time>
      </trkpt>
      <trkpt lat="42.699640" lon="-2.789380">
        <ele>768.777</ele>
        <time>2011-03-12T10:52:35Z</time>
      </trkpt>
      <trkpt lat="42.699570" lon="-2.789460">
        <ele>770.192</ele>
        <time>2011-03-12T10:52:44Z</time>
      </trkpt>
      <trkpt lat="42.699490" lon="-2.789530">
        <ele>771.134</ele>
        <time>2011-03-12T10:52:53Z</time>
      </trkpt>
      <trkpt lat="42.699430" lon="-2.789620">
        <ele>773.524</ele>
        <time>2011-03-12T10:53:02Z</time>
      </trkpt>
      <trkpt lat="42.699370" lon="-2.789720">
        <ele>775.076</ele>
        <time>2011-03-12T10:53:12Z</time>
      </trkpt>
      <trkpt lat="42.699300" lon="-2.789820">
        <ele>776.489</ele>
        <time>2011-03-12T10:53:22Z</time>
      </trkpt>
      <trkpt lat="42.699220" lon="-2.789800">
        <ele>775.406</ele>
        <time>2011-03-12T10:53:35Z</time>
      </trkpt>
      <trkpt lat="42.699210" lon="-2.789670">
        <ele>776.926</ele>
        <time>2011-03-12T10:53:54Z</time>
      </trkpt>
      <trkpt lat="42.699210" lon="-2.789780">
        <ele>775.407</ele>
        <time>2011-03-12T10:54:07Z</time>
      </trkpt>
      <trkpt lat="42.699220" lon="-2.789670">
        <ele>775.930</ele>
        <time>2011-03-12T10:57:10Z</time>
      </trkpt>
      <trkpt lat="42.699160" lon="-2.789570">
        <ele>777.891</ele>
        <time>2011-03-12T10:57:22Z</time>
      </trkpt>
      <trkpt lat="42.699080" lon="-2.789490">
        <ele>778.310</ele>
        <time>2011-03-12T10:57:32Z</time>
      </trkpt>
      <trkpt lat="42.699060" lon="-2.789360">
        <ele>779.395</ele>
        <time>2011-03-12T10:57:43Z</time>
      </trkpt>
      <trkpt lat="42.699060" lon="-2.789230">
        <ele>781.767</ele>
        <time>2011-03-12T10:57:54Z</time>
      </trkpt>
      <trkpt lat="42.699050" lon="-2.789110">
        <ele>783.147</ele>
        <time>2011-03-12T10:58:04Z</time>
      </trkpt>
      <trkpt lat="42.699040" lon="-2.788980">
        <ele>785.039</ele>
        <time>2011-03-12T10:58:14Z</time>
      </trkpt>
      <trkpt lat="42.699040" lon="-2.788860">
        <ele>787.047</ele>
        <time>2011-03-12T10:58:24Z</time>
      </trkpt>
      <trkpt lat="42.699060" lon="-2.788730">
        <ele>789.429</ele>
        <time>2011-03-12T10:58:35Z</time>
      </trkpt>
      <trkpt lat="42.699090" lon="-2.788600">
        <ele>791.821</ele>
        <time>2011-03-12T10:58:46Z</time>
      </trkpt>
      <trkpt lat="42.699140" lon="-2.788490">
        <ele>793.207</ele>
        <time>2011-03-12T10:58:57Z</time>
      </trkpt>
      <trkpt lat="42.699210" lon="-2.788420">
        <ele>794.256</ele>
        <time>2011-03-12T10:59:08Z</time>
      </trkpt>
      <trkpt lat="42.699290" lon="-2.788340">
        <ele>797.587</ele>
        <time>2011-03-12T10:59:19Z</time>
      </trkpt>
      <trkpt lat="42.699350" lon="-2.788230">
        <ele>797.526</ele>
        <time>2011-03-12T10:59:29Z</time>
      </trkpt>
      <trkpt lat="42.699410" lon="-2.788140">
        <ele>798.521</ele>
        <time>2011-03-12T10:59:38Z</time>
      </trkpt>
      <trkpt lat="42.699480" lon="-2.788050">
        <ele>799.943</ele>
        <time>2011-03-12T10:59:49Z</time>
      </trkpt>
      <trkpt lat="42.699550" lon="-2.787970">
        <ele>801.913</ele>
        <time>2011-03-12T10:59:58Z</time>
      </trkpt>
      <trkpt lat="42.699620" lon="-2.787880">
        <ele>806.255</ele>
        <time>2011-03-12T11:00:10Z</time>
      </trkpt>
      <trkpt lat="42.699680" lon="-2.787790">
        <ele>806.291</ele>
        <time>2011-03-12T11:00:28Z</time>
      </trkpt>
      <trkpt lat="42.699740" lon="-2.787690">
        <ele>806.281</ele>
        <time>2011-03-12T11:00:38Z</time>
      </trkpt>
      <trkpt lat="42.699800" lon="-2.787600">
        <ele>805.719</ele>
        <time>2011-03-12T11:00:46Z</time>
      </trkpt>
      <trkpt lat="42.699860" lon="-2.787490">
        <ele>806.207</ele>
        <time>2011-03-12T11:00:54Z</time>
      </trkpt>
      <trkpt lat="42.699920" lon="-2.787390">
        <ele>805.741</ele>
        <time>2011-03-12T11:01:02Z</time>
      </trkpt>
      <trkpt lat="42.699980" lon="-2.787290">
        <ele>806.292</ele>
        <time>2011-03-12T11:01:10Z</time>
      </trkpt>
      <trkpt lat="42.700050" lon="-2.787200">
        <ele>806.711</ele>
        <time>2011-03-12T11:01:18Z</time>
      </trkpt>
      <trkpt lat="42.700120" lon="-2.787110">
        <ele>808.196</ele>
        <time>2011-03-12T11:01:26Z</time>
      </trkpt>
      <trkpt lat="42.700190" lon="-2.787020">
        <ele>810.518</ele>
        <time>2011-03-12T11:01:36Z</time>
      </trkpt>
      <trkpt lat="42.700270" lon="-2.786940">
        <ele>812.488</ele>
        <time>2011-03-12T11:01:48Z</time>
      </trkpt>
      <trkpt lat="42.700340" lon="-2.786860">
        <ele>812.950</ele>
        <time>2011-03-12T11:01:57Z</time>
      </trkpt>
      <trkpt lat="42.700410" lon="-2.786760">
        <ele>813.498</ele>
        <time>2011-03-12T11:02:06Z</time>
      </trkpt>
      <trkpt lat="42.700440" lon="-2.786640">
        <ele>814.415</ele>
        <time>2011-03-12T11:02:15Z</time>
      </trkpt>
      <trkpt lat="42.700460" lon="-2.786510">
        <ele>815.826</ele>
        <time>2011-03-12T11:02:25Z</time>
      </trkpt>
      <trkpt lat="42.700480" lon="-2.786390">
        <ele>816.807</ele>
        <time>2011-03-12T11:02:34Z</time>
      </trkpt>
      <trkpt lat="42.700490" lon="-2.786260">
        <ele>817.791</ele>
        <time>2011-03-12T11:02:43Z</time>
      </trkpt>
      <trkpt lat="42.700490" lon="-2.786130">
        <ele>818.282</ele>
        <time>2011-03-12T11:02:52Z</time>
      </trkpt>
      <trkpt lat="42.700490" lon="-2.786010">
        <ele>821.641</ele>
        <time>2011-03-12T11:03:01Z</time>
      </trkpt>
      <trkpt lat="42.700490" lon="-2.785880">
        <ele>822.166</ele>
        <time>2011-03-12T11:03:10Z</time>
      </trkpt>
      <trkpt lat="42.700480" lon="-2.785750">
        <ele>823.088</ele>
        <time>2011-03-12T11:03:19Z</time>
      </trkpt>
      <trkpt lat="42.700490" lon="-2.785620">
        <ele>824.978</ele>
        <time>2011-03-12T11:03:28Z</time>
      </trkpt>
      <trkpt lat="42.700500" lon="-2.785490">
        <ele>825.960</ele>
        <time>2011-03-12T11:03:37Z</time>
      </trkpt>
      <trkpt lat="42.700520" lon="-2.785370">
        <ele>826.434</ele>
        <time>2011-03-12T11:03:45Z</time>
      </trkpt>
      <trkpt lat="42.700560" lon="-2.785240">
        <ele>827.355</ele>
        <time>2011-03-12T11:03:54Z</time>
      </trkpt>
      <trkpt lat="42.700590" lon="-2.785120">
        <ele>826.910</ele>
        <time>2011-03-12T11:04:02Z</time>
      </trkpt>
      <trkpt lat="42.700610" lon="-2.785000">
        <ele>827.307</ele>
        <time>2011-03-12T11:04:10Z</time>
      </trkpt>
      <trkpt lat="42.700640" lon="-2.784880">
        <ele>826.925</ele>
        <time>2011-03-12T11:04:18Z</time>
      </trkpt>
      <trkpt lat="42.700670" lon="-2.784740">
        <ele>827.376</ele>
        <time>2011-03-12T11:04:27Z</time>
      </trkpt>
      <trkpt lat="42.700700" lon="-2.784620">
        <ele>827.365</ele>
        <time>2011-03-12T11:04:35Z</time>
      </trkpt>
      <trkpt lat="42.700720" lon="-2.784510">
        <ele>828.810</ele>
        <time>2011-03-12T11:05:07Z</time>
      </trkpt>
      <trkpt lat="42.700720" lon="-2.784420">
        <ele>828.832</ele>
        <time>2011-03-12T11:05:39Z</time>
      </trkpt>
      <trkpt lat="42.700730" lon="-2.784300">
        <ele>828.822</ele>
        <time>2011-03-12T11:05:47Z</time>
      </trkpt>
      <trkpt lat="42.700740" lon="-2.784160">
        <ele>829.344</ele>
        <time>2011-03-12T11:05:55Z</time>
      </trkpt>
      <trkpt lat="42.700760" lon="-2.784040">
        <ele>831.268</ele>
        <time>2011-03-12T11:06:02Z</time>
      </trkpt>
      <trkpt lat="42.700770" lon="-2.783890">
        <ele>832.242</ele>
        <time>2011-03-12T11:06:10Z</time>
      </trkpt>
      <trkpt lat="42.700780" lon="-2.783760">
        <ele>833.126</ele>
        <time>2011-03-12T11:06:17Z</time>
      </trkpt>
      <trkpt lat="42.700810" lon="-2.783630">
        <ele>834.607</ele>
        <time>2011-03-12T11:06:25Z</time>
      </trkpt>
      <trkpt lat="42.700840" lon="-2.783500">
        <ele>835.558</ele>
        <time>2011-03-12T11:06:32Z</time>
      </trkpt>
      <trkpt lat="42.700860" lon="-2.783370">
        <ele>835.099</ele>
        <time>2011-03-12T11:06:39Z</time>
      </trkpt>
      <trkpt lat="42.700860" lon="-2.783240">
        <ele>835.098</ele>
        <time>2011-03-12T11:06:46Z</time>
      </trkpt>
      <trkpt lat="42.700860" lon="-2.783130">
        <ele>836.013</ele>
        <time>2011-03-12T11:06:55Z</time>
      </trkpt>
      <trkpt lat="42.700830" lon="-2.783000">
        <ele>833.645</ele>
        <time>2011-03-12T11:07:33Z</time>
      </trkpt>
      <trkpt lat="42.700840" lon="-2.783050">
        <ele>834.185</ele>
        <time>2011-03-12T11:08:04Z</time>
      </trkpt>
      <trkpt lat="42.700860" lon="-2.783080">
        <ele>835.077</ele>
        <time>2011-03-12T11:09:11Z</time>
      </trkpt>
      <trkpt lat="42.700870" lon="-2.783100">
        <ele>836.599</ele>
        <time>2011-03-12T11:09:59Z</time>
      </trkpt>
      <trkpt lat="42.700880" lon="-2.783100">
        <ele>836.007</ele>
        <time>2011-03-12T11:11:27Z</time>
      </trkpt>
      <trkpt lat="42.700900" lon="-2.783030">
        <ele>834.127</ele>
        <time>2011-03-12T11:12:35Z</time>
      </trkpt>
      <trkpt lat="42.700910" lon="-2.782970">
        <ele>834.107</ele>
        <time>2011-03-12T11:12:58Z</time>
      </trkpt>
      <trkpt lat="42.700990" lon="-2.782890">
        <ele>831.251</ele>
        <time>2011-03-12T11:13:07Z</time>
      </trkpt>
      <trkpt lat="42.701070" lon="-2.782810">
        <ele>830.782</ele>
        <time>2011-03-12T11:13:16Z</time>
      </trkpt>
      <trkpt lat="42.701150" lon="-2.782750">
        <ele>829.831</ele>
        <time>2011-03-12T11:13:23Z</time>
      </trkpt>
      <trkpt lat="42.701240" lon="-2.782690">
        <ele>827.826</ele>
        <time>2011-03-12T11:13:30Z</time>
      </trkpt>
      <trkpt lat="42.701320" lon="-2.782610">
        <ele>827.398</ele>
        <time>2011-03-12T11:13:37Z</time>
      </trkpt>
      <trkpt lat="42.701400" lon="-2.782530">
        <ele>825.958</ele>
        <time>2011-03-12T11:13:44Z</time>
      </trkpt>
      <trkpt lat="42.701480" lon="-2.782470">
        <ele>824.520</ele>
        <time>2011-03-12T11:13:51Z</time>
      </trkpt>
      <trkpt lat="42.701580" lon="-2.782420">
        <ele>822.162</ele>
        <time>2011-03-12T11:13:59Z</time>
      </trkpt>
      <trkpt lat="42.701680" lon="-2.782400">
        <ele>820.683</ele>
        <time>2011-03-12T11:14:06Z</time>
      </trkpt>
      <trkpt lat="42.701760" lon="-2.782310">
        <ele>817.711</ele>
        <time>2011-03-12T11:14:13Z</time>
      </trkpt>
      <trkpt lat="42.701820" lon="-2.782210">
        <ele>816.807</ele>
        <time>2011-03-12T11:14:19Z</time>
      </trkpt>
      <trkpt lat="42.701890" lon="-2.782120">
        <ele>815.398</ele>
        <time>2011-03-12T11:14:25Z</time>
      </trkpt>
      <trkpt lat="42.701970" lon="-2.782070">
        <ele>814.439</ele>
        <time>2011-03-12T11:14:31Z</time>
      </trkpt>
      <trkpt lat="42.702060" lon="-2.782010">
        <ele>813.928</ele>
        <time>2011-03-12T11:14:37Z</time>
      </trkpt>
      <trkpt lat="42.702140" lon="-2.781930">
        <ele>812.943</ele>
        <time>2011-03-12T11:14:43Z</time>
      </trkpt>
      <trkpt lat="42.702220" lon="-2.781840">
        <ele>812.075</ele>
        <time>2011-03-12T11:14:49Z</time>
      </trkpt>
      <trkpt lat="42.702280" lon="-2.781730">
        <ele>812.445</ele>
        <time>2011-03-12T11:14:55Z</time>
      </trkpt>
      <trkpt lat="42.702350" lon="-2.781610">
        <ele>812.087</ele>
        <time>2011-03-12T11:15:01Z</time>
      </trkpt>
      <trkpt lat="42.702410" lon="-2.781520">
        <ele>811.522</ele>
        <time>2011-03-12T11:15:07Z</time>
      </trkpt>
      <trkpt lat="42.702470" lon="-2.781410">
        <ele>810.562</ele>
        <time>2011-03-12T11:15:13Z</time>
      </trkpt>
      <trkpt lat="42.702510" lon="-2.781310">
        <ele>810.508</ele>
        <time>2011-03-12T11:15:19Z</time>
      </trkpt>
      <trkpt lat="42.702550" lon="-2.781170">
        <ele>810.507</ele>
        <time>2011-03-12T11:15:26Z</time>
      </trkpt>
      <trkpt lat="42.702560" lon="-2.781040">
        <ele>811.564</ele>
        <time>2011-03-12T11:15:32Z</time>
      </trkpt>
      <trkpt lat="42.702590" lon="-2.780910">
        <ele>812.435</ele>
        <time>2011-03-12T11:15:39Z</time>
      </trkpt>
      <trkpt lat="42.702610" lon="-2.780770">
        <ele>813.484</ele>
        <time>2011-03-12T11:15:46Z</time>
      </trkpt>
      <trkpt lat="42.702630" lon="-2.780630">
        <ele>814.929</ele>
        <time>2011-03-12T11:15:53Z</time>
      </trkpt>
      <trkpt lat="42.702640" lon="-2.780490">
        <ele>815.891</ele>
        <time>2011-03-12T11:16:00Z</time>
      </trkpt>
      <trkpt lat="42.702660" lon="-2.780370">
        <ele>818.221</ele>
        <time>2011-03-12T11:16:07Z</time>
      </trkpt>
      <trkpt lat="42.702670" lon="-2.780240">
        <ele>819.723</ele>
        <time>2011-03-12T11:16:15Z</time>
      </trkpt>
      <trkpt lat="42.702680" lon="-2.780100">
        <ele>821.159</ele>
        <time>2011-03-12T11:16:23Z</time>
      </trkpt>
      <trkpt lat="42.702700" lon="-2.779970">
        <ele>823.503</ele>
        <time>2011-03-12T11:16:31Z</time>
      </trkpt>
      <trkpt lat="42.702710" lon="-2.779850">
        <ele>825.423</ele>
        <time>2011-03-12T11:16:39Z</time>
      </trkpt>
      <trkpt lat="42.702710" lon="-2.779720">
        <ele>827.307</ele>
        <time>2011-03-12T11:16:48Z</time>
      </trkpt>
      <trkpt lat="42.702730" lon="-2.779590">
        <ele>831.257</ele>
        <time>2011-03-12T11:16:58Z</time>
      </trkpt>
      <trkpt lat="42.702730" lon="-2.779460">
        <ele>833.168</ele>
        <time>2011-03-12T11:17:08Z</time>
      </trkpt>
      <trkpt lat="42.702720" lon="-2.779330">
        <ele>835.057</ele>
        <time>2011-03-12T11:17:18Z</time>
      </trkpt>
      <trkpt lat="42.702720" lon="-2.779200">
        <ele>837.442</ele>
        <time>2011-03-12T11:17:28Z</time>
      </trkpt>
      <trkpt lat="42.702720" lon="-2.779070">
        <ele>839.484</ele>
        <time>2011-03-12T11:17:39Z</time>
      </trkpt>
      <trkpt lat="42.702740" lon="-2.778950">
        <ele>840.844</ele>
        <time>2011-03-12T11:17:50Z</time>
      </trkpt>
      <trkpt lat="42.702750" lon="-2.778830">
        <ele>842.796</ele>
        <time>2011-03-12T11:18:00Z</time>
      </trkpt>
      <trkpt lat="42.702750" lon="-2.778700">
        <ele>844.785</ele>
        <time>2011-03-12T11:18:11Z</time>
      </trkpt>
      <trkpt lat="42.702750" lon="-2.778560">
        <ele>847.189</ele>
        <time>2011-03-12T11:18:21Z</time>
      </trkpt>
      <trkpt lat="42.702760" lon="-2.778430">
        <ele>849.417</ele>
        <time>2011-03-12T11:18:31Z</time>
      </trkpt>
      <trkpt lat="42.702780" lon="-2.778300">
        <ele>851.407</ele>
        <time>2011-03-12T11:18:41Z</time>
      </trkpt>
      <trkpt lat="42.702810" lon="-2.778180">
        <ele>852.830</ele>
        <time>2011-03-12T11:18:51Z</time>
      </trkpt>
      <trkpt lat="42.702830" lon="-2.778060">
        <ele>853.331</ele>
        <time>2011-03-12T11:18:59Z</time>
      </trkpt>
      <trkpt lat="42.702860" lon="-2.777940">
        <ele>853.350</ele>
        <time>2011-03-12T11:19:07Z</time>
      </trkpt>
      <trkpt lat="42.702880" lon="-2.777810">
        <ele>856.765</ele>
        <time>2011-03-12T11:19:16Z</time>
      </trkpt>
      <trkpt lat="42.702900" lon="-2.777690">
        <ele>858.167</ele>
        <time>2011-03-12T11:19:25Z</time>
      </trkpt>
      <trkpt lat="42.702920" lon="-2.777560">
        <ele>860.597</ele>
        <time>2011-03-12T11:19:34Z</time>
      </trkpt>
      <trkpt lat="42.702920" lon="-2.777430">
        <ele>862.969</ele>
        <time>2011-03-12T11:19:43Z</time>
      </trkpt>
      <trkpt lat="42.702920" lon="-2.777300">
        <ele>862.431</ele>
        <time>2011-03-12T11:19:52Z</time>
      </trkpt>
      <trkpt lat="42.702920" lon="-2.777190">
        <ele>863.961</ele>
        <time>2011-03-12T11:20:05Z</time>
      </trkpt>
      <trkpt lat="42.702910" lon="-2.777040">
        <ele>864.807</ele>
        <time>2011-03-12T11:20:14Z</time>
      </trkpt>
      <trkpt lat="42.702900" lon="-2.776900">
        <ele>865.307</ele>
        <time>2011-03-12T11:20:22Z</time>
      </trkpt>
      <trkpt lat="42.702890" lon="-2.776760">
        <ele>866.395</ele>
        <time>2011-03-12T11:20:30Z</time>
      </trkpt>
      <trkpt lat="42.702880" lon="-2.776620">
        <ele>866.326</ele>
        <time>2011-03-12T11:20:38Z</time>
      </trkpt>
      <trkpt lat="42.702880" lon="-2.776480">
        <ele>867.735</ele>
        <time>2011-03-12T11:20:46Z</time>
      </trkpt>
      <trkpt lat="42.702880" lon="-2.776350">
        <ele>868.750</ele>
        <time>2011-03-12T11:20:54Z</time>
      </trkpt>
      <trkpt lat="42.702900" lon="-2.776220">
        <ele>869.272</ele>
        <time>2011-03-12T11:21:02Z</time>
      </trkpt>
      <trkpt lat="42.702930" lon="-2.776100">
        <ele>869.282</ele>
        <time>2011-03-12T11:21:09Z</time>
      </trkpt>
      <trkpt lat="42.702960" lon="-2.775980">
        <ele>868.284</ele>
        <time>2011-03-12T11:21:16Z</time>
      </trkpt>
      <trkpt lat="42.703000" lon="-2.775860">
        <ele>865.838</ele>
        <time>2011-03-12T11:21:23Z</time>
      </trkpt>
      <trkpt lat="42.703030" lon="-2.775740">
        <ele>864.470</ele>
        <time>2011-03-12T11:21:30Z</time>
      </trkpt>
      <trkpt lat="42.703070" lon="-2.775610">
        <ele>864.817</ele>
        <time>2011-03-12T11:21:37Z</time>
      </trkpt>
      <trkpt lat="42.703110" lon="-2.775490">
        <ele>863.907</ele>
        <time>2011-03-12T11:21:44Z</time>
      </trkpt>
      <trkpt lat="42.703140" lon="-2.775360">
        <ele>863.985</ele>
        <time>2011-03-12T11:21:51Z</time>
      </trkpt>
      <trkpt lat="42.703170" lon="-2.775240">
        <ele>863.936</ele>
        <time>2011-03-12T11:21:59Z</time>
      </trkpt>
      <trkpt lat="42.703200" lon="-2.775120">
        <ele>863.435</ele>
        <time>2011-03-12T11:22:06Z</time>
      </trkpt>
      <trkpt lat="42.703220" lon="-2.774980">
        <ele>862.930</ele>
        <time>2011-03-12T11:22:13Z</time>
      </trkpt>
      <trkpt lat="42.703240" lon="-2.774860">
        <ele>863.472</ele>
        <time>2011-03-12T11:22:20Z</time>
      </trkpt>
      <trkpt lat="42.703250" lon="-2.774730">
        <ele>863.422</ele>
        <time>2011-03-12T11:22:27Z</time>
      </trkpt>
      <trkpt lat="42.703260" lon="-2.774590">
        <ele>863.454</ele>
        <time>2011-03-12T11:22:34Z</time>
      </trkpt>
      <trkpt lat="42.703270" lon="-2.774480">
        <ele>862.977</ele>
        <time>2011-03-12T11:22:40Z</time>
      </trkpt>
      <trkpt lat="42.703270" lon="-2.774340">
        <ele>867.261</ele>
        <time>2011-03-12T11:22:48Z</time>
      </trkpt>
      <trkpt lat="42.703280" lon="-2.774210">
        <ele>865.827</ele>
        <time>2011-03-12T11:22:55Z</time>
      </trkpt>
      <trkpt lat="42.703290" lon="-2.774090">
        <ele>867.207</ele>
        <time>2011-03-12T11:23:02Z</time>
      </trkpt>
      <trkpt lat="42.703310" lon="-2.773960">
        <ele>865.379</ele>
        <time>2011-03-12T11:23:10Z</time>
      </trkpt>
      <trkpt lat="42.703330" lon="-2.773840">
        <ele>868.780</ele>
        <time>2011-03-12T11:23:19Z</time>
      </trkpt>
      <trkpt lat="42.703340" lon="-2.773710">
        <ele>870.159</ele>
        <time>2011-03-12T11:23:27Z</time>
      </trkpt>
      <trkpt lat="42.703350" lon="-2.773570">
        <ele>871.194</ele>
        <time>2011-03-12T11:23:35Z</time>
      </trkpt>
      <trkpt lat="42.703360" lon="-2.773450">
        <ele>871.616</ele>
        <time>2011-03-12T11:23:43Z</time>
      </trkpt>
      <trkpt lat="42.703380" lon="-2.773320">
        <ele>873.556</ele>
        <time>2011-03-12T11:23:50Z</time>
      </trkpt>
      <trkpt lat="42.703380" lon="-2.773200">
        <ele>873.098</ele>
        <time>2011-03-12T11:23:57Z</time>
      </trkpt>
      <trkpt lat="42.703390" lon="-2.773080">
        <ele>873.013</ele>
        <time>2011-03-12T11:24:04Z</time>
      </trkpt>
      <trkpt lat="42.703390" lon="-2.772950">
        <ele>871.143</ele>
        <time>2011-03-12T11:24:11Z</time>
      </trkpt>
      <trkpt lat="42.703410" lon="-2.772830">
        <ele>869.207</ele>
        <time>2011-03-12T11:24:18Z</time>
      </trkpt>
      <trkpt lat="42.703450" lon="-2.772710">
        <ele>867.707</ele>
        <time>2011-03-12T11:24:25Z</time>
      </trkpt>
      <trkpt lat="42.703500" lon="-2.772590">
        <ele>865.833</ele>
        <time>2011-03-12T11:24:33Z</time>
      </trkpt>
      <trkpt lat="42.703540" lon="-2.772490">
        <ele>863.444</ele>
        <time>2011-03-12T11:24:40Z</time>
      </trkpt>
      <trkpt lat="42.703590" lon="-2.772370">
        <ele>861.523</ele>
        <time>2011-03-12T11:24:48Z</time>
      </trkpt>
      <trkpt lat="42.703640" lon="-2.772260">
        <ele>858.118</ele>
        <time>2011-03-12T11:24:55Z</time>
      </trkpt>
      <trkpt lat="42.703670" lon="-2.772140">
        <ele>855.790</ele>
        <time>2011-03-12T11:25:02Z</time>
      </trkpt>
      <trkpt lat="42.703730" lon="-2.772030">
        <ele>853.880</ele>
        <time>2011-03-12T11:25:09Z</time>
      </trkpt>
      <trkpt lat="42.703780" lon="-2.771920">
        <ele>850.462</ele>
        <time>2011-03-12T11:25:16Z</time>
      </trkpt>
      <trkpt lat="42.703850" lon="-2.771810">
        <ele>849.052</ele>
        <time>2011-03-12T11:25:23Z</time>
      </trkpt>
      <trkpt lat="42.703910" lon="-2.771710">
        <ele>848.053</ele>
        <time>2011-03-12T11:25:30Z</time>
      </trkpt>
      <trkpt lat="42.703980" lon="-2.771610">
        <ele>845.108</ele>
        <time>2011-03-12T11:25:37Z</time>
      </trkpt>
      <trkpt lat="42.704030" lon="-2.771500">
        <ele>844.207</ele>
        <time>2011-03-12T11:25:44Z</time>
      </trkpt>
      <trkpt lat="42.704090" lon="-2.771400">
        <ele>840.897</ele>
        <time>2011-03-12T11:25:51Z</time>
      </trkpt>
      <trkpt lat="42.704160" lon="-2.771310">
        <ele>838.428</ele>
        <time>2011-03-12T11:25:58Z</time>
      </trkpt>
      <trkpt lat="42.704230" lon="-2.771220">
        <ele>836.547</ele>
        <time>2011-03-12T11:26:05Z</time>
      </trkpt>
      <trkpt lat="42.704290" lon="-2.771130">
        <ele>833.612</ele>
        <time>2011-03-12T11:26:12Z</time>
      </trkpt>
      <trkpt lat="42.704350" lon="-2.771030">
        <ele>831.234</ele>
        <time>2011-03-12T11:26:20Z</time>
      </trkpt>
      <trkpt lat="42.704410" lon="-2.770920">
        <ele>829.854</ele>
        <time>2011-03-12T11:26:27Z</time>
      </trkpt>
      <trkpt lat="42.704470" lon="-2.770820">
        <ele>828.836</ele>
        <time>2011-03-12T11:26:34Z</time>
      </trkpt>
      <trkpt lat="42.704530" lon="-2.770710">
        <ele>826.452</ele>
        <time>2011-03-12T11:26:41Z</time>
      </trkpt>
      <trkpt lat="42.704590" lon="-2.770610">
        <ele>824.053</ele>
        <time>2011-03-12T11:26:48Z</time>
      </trkpt>
      <trkpt lat="42.704660" lon="-2.770500">
        <ele>823.008</ele>
        <time>2011-03-12T11:26:55Z</time>
      </trkpt>
      <trkpt lat="42.704720" lon="-2.770400">
        <ele>822.107</ele>
        <time>2011-03-12T11:27:02Z</time>
      </trkpt>
      <trkpt lat="42.704750" lon="-2.770290">
        <ele>821.617</ele>
        <time>2011-03-12T11:27:13Z</time>
      </trkpt>
      <trkpt lat="42.704700" lon="-2.770270">
        <ele>820.628</ele>
        <time>2011-03-12T11:30:17Z</time>
      </trkpt>
      <trkpt lat="42.704630" lon="-2.770370">
        <ele>817.757</ele>
        <time>2011-03-12T11:30:26Z</time>
      </trkpt>
      <trkpt lat="42.704550" lon="-2.770330">
        <ele>815.862</ele>
        <time>2011-03-12T11:30:35Z</time>
      </trkpt>
      <trkpt lat="42.704550" lon="-2.770200">
        <ele>813.974</ele>
        <time>2011-03-12T11:30:45Z</time>
      </trkpt>
      <trkpt lat="42.704530" lon="-2.770080">
        <ele>811.524</ele>
        <time>2011-03-12T11:30:54Z</time>
      </trkpt>
      <trkpt lat="42.704500" lon="-2.769950">
        <ele>808.676</ele>
        <time>2011-03-12T11:31:02Z</time>
      </trkpt>
      <trkpt lat="42.704450" lon="-2.769830">
        <ele>806.775</ele>
        <time>2011-03-12T11:31:10Z</time>
      </trkpt>
      <trkpt lat="42.704400" lon="-2.769720">
        <ele>804.828</ele>
        <time>2011-03-12T11:31:18Z</time>
      </trkpt>
      <trkpt lat="42.704330" lon="-2.769610">
        <ele>801.420</ele>
        <time>2011-03-12T11:31:26Z</time>
      </trkpt>
      <trkpt lat="42.704260" lon="-2.769520">
        <ele>798.007</ele>
        <time>2011-03-12T11:31:34Z</time>
      </trkpt>
      <trkpt lat="42.704180" lon="-2.769440">
        <ele>795.649</ele>
        <time>2011-03-12T11:31:42Z</time>
      </trkpt>
      <trkpt lat="42.704100" lon="-2.769350">
        <ele>792.340</ele>
        <time>2011-03-12T11:31:50Z</time>
      </trkpt>
      <trkpt lat="42.704020" lon="-2.769270">
        <ele>789.989</ele>
        <time>2011-03-12T11:31:57Z</time>
      </trkpt>
      <trkpt lat="42.703950" lon="-2.769190">
        <ele>787.054</ele>
        <time>2011-03-12T11:32:04Z</time>
      </trkpt>
      <trkpt lat="42.703880" lon="-2.769110">
        <ele>786.066</ele>
        <time>2011-03-12T11:32:11Z</time>
      </trkpt>
      <trkpt lat="42.703810" lon="-2.769030">
        <ele>785.036</ele>
        <time>2011-03-12T11:32:18Z</time>
      </trkpt>
      <trkpt lat="42.703730" lon="-2.768960">
        <ele>783.158</ele>
        <time>2011-03-12T11:32:25Z</time>
      </trkpt>
      <trkpt lat="42.703670" lon="-2.768850">
        <ele>779.896</ele>
        <time>2011-03-12T11:32:32Z</time>
      </trkpt>
      <trkpt lat="42.703600" lon="-2.768760">
        <ele>777.431</ele>
        <time>2011-03-12T11:32:39Z</time>
      </trkpt>
      <trkpt lat="42.703550" lon="-2.768650">
        <ele>776.424</ele>
        <time>2011-03-12T11:32:46Z</time>
      </trkpt>
      <trkpt lat="42.703500" lon="-2.768550">
        <ele>775.007</ele>
        <time>2011-03-12T11:32:53Z</time>
      </trkpt>
      <trkpt lat="42.703440" lon="-2.768440">
        <ele>773.011</ele>
        <time>2011-03-12T11:33:00Z</time>
      </trkpt>
      <trkpt lat="42.703380" lon="-2.768350">
        <ele>770.192</ele>
        <time>2011-03-12T11:33:07Z</time>
      </trkpt>
      <trkpt lat="42.703310" lon="-2.768250">
        <ele>766.831</ele>
        <time>2011-03-12T11:33:15Z</time>
      </trkpt>
      <trkpt lat="42.703250" lon="-2.768150">
        <ele>764.916</ele>
        <time>2011-03-12T11:33:23Z</time>
      </trkpt>
      <trkpt lat="42.703190" lon="-2.768040">
        <ele>762.038</ele>
        <time>2011-03-12T11:33:31Z</time>
      </trkpt>
      <trkpt lat="42.703130" lon="-2.767950">
        <ele>758.658</ele>
        <time>2011-03-12T11:33:38Z</time>
      </trkpt>
      <trkpt lat="42.703070" lon="-2.767840">
        <ele>758.640</ele>
        <time>2011-03-12T11:33:46Z</time>
      </trkpt>
      <trkpt lat="42.703010" lon="-2.767730">
        <ele>759.195</ele>
        <time>2011-03-12T11:33:54Z</time>
      </trkpt>
      <trkpt lat="42.702960" lon="-2.767800">
        <ele>753.349</ele>
        <time>2011-03-12T11:34:03Z</time>
      </trkpt>
      <trkpt lat="42.702970" lon="-2.767920">
        <ele>752.923</ele>
        <time>2011-03-12T11:34:11Z</time>
      </trkpt>
      <trkpt lat="42.702980" lon="-2.768050">
        <ele>750.907</ele>
        <time>2011-03-12T11:34:19Z</time>
      </trkpt>
      <trkpt lat="42.702990" lon="-2.768190">
        <ele>749.081</ele>
        <time>2011-03-12T11:34:27Z</time>
      </trkpt>
      <trkpt lat="42.702984" lon="-2.768265">
        <ele>749.582</ele>
        <time>2011-03-12T11:34:29Z</time>
      </trkpt>
      <trkpt lat="42.702948" lon="-2.768308">
        <ele>750.461</ele>
        <time>2011-03-12T11:34:53Z</time>
      </trkpt>
      <trkpt lat="42.702808" lon="-2.768138">
        <ele>738.416</ele>
        <time>2011-03-12T11:35:01Z</time>
      </trkpt>
      <trkpt lat="42.702713" lon="-2.767986">
        <ele>734.178</ele>
        <time>2011-03-12T11:35:09Z</time>
      </trkpt>
      <trkpt lat="42.702609" lon="-2.767919">
        <ele>733.658</ele>
        <time>2011-03-12T11:35:16Z</time>
      </trkpt>
      <trkpt lat="42.702537" lon="-2.767791">
        <ele>733.660</ele>
        <time>2011-03-12T11:35:23Z</time>
      </trkpt>
      <trkpt lat="42.702447" lon="-2.767730">
        <ele>733.115</ele>
        <time>2011-03-12T11:35:30Z</time>
      </trkpt>
      <trkpt lat="42.702393" lon="-2.767614">
        <ele>731.265</ele>
        <time>2011-03-12T11:35:37Z</time>
      </trkpt>
      <trkpt lat="42.702329" lon="-2.767511">
        <ele>726.911</ele>
        <time>2011-03-12T11:35:45Z</time>
      </trkpt>
      <trkpt lat="42.702266" lon="-2.767499">
        <ele>724.507</ele>
        <time>2011-03-12T11:35:54Z</time>
      </trkpt>
      <trkpt lat="42.702230" lon="-2.767760">
        <ele>722.693</ele>
        <time>2011-03-12T11:36:03Z</time>
      </trkpt>
      <trkpt lat="42.702240" lon="-2.767890">
        <ele>719.774</ele>
        <time>2011-03-12T11:36:11Z</time>
      </trkpt>
      <trkpt lat="42.702250" lon="-2.768040">
        <ele>719.263</ele>
        <time>2011-03-12T11:36:19Z</time>
      </trkpt>
      <trkpt lat="42.702250" lon="-2.768170">
        <ele>716.878</ele>
        <time>2011-03-12T11:36:27Z</time>
      </trkpt>
      <trkpt lat="42.702250" lon="-2.768300">
        <ele>715.950</ele>
        <time>2011-03-12T11:36:34Z</time>
      </trkpt>
      <trkpt lat="42.702260" lon="-2.768420">
        <ele>713.950</ele>
        <time>2011-03-12T11:36:41Z</time>
      </trkpt>
      <trkpt lat="42.702210" lon="-2.768421">
        <ele>713.462</ele>
        <time>2011-03-12T11:36:49Z</time>
      </trkpt>
      <trkpt lat="42.702160" lon="-2.768360">
        <ele>712.098</ele>
        <time>2011-03-12T11:36:57Z</time>
      </trkpt>
      <trkpt lat="42.702110" lon="-2.768260">
        <ele>710.115</ele>
        <time>2011-03-12T11:37:04Z</time>
      </trkpt>
      <trkpt lat="42.702070" lon="-2.768140">
        <ele>708.626</ele>
        <time>2011-03-12T11:37:11Z</time>
      </trkpt>
      <trkpt lat="42.702040" lon="-2.768030">
        <ele>707.207</ele>
        <time>2011-03-12T11:37:18Z</time>
      </trkpt>
      <trkpt lat="42.702000" lon="-2.767900">
        <ele>706.711</ele>
        <time>2011-03-12T11:37:25Z</time>
      </trkpt>
      <trkpt lat="42.701960" lon="-2.767780">
        <ele>705.382</ele>
        <time>2011-03-12T11:37:32Z</time>
      </trkpt>
      <trkpt lat="42.701920" lon="-2.767650">
        <ele>705.361</ele>
        <time>2011-03-12T11:37:39Z</time>
      </trkpt>
      <trkpt lat="42.701880" lon="-2.767520">
        <ele>705.376</ele>
        <time>2011-03-12T11:37:46Z</time>
      </trkpt>
      <trkpt lat="42.701830" lon="-2.767400">
        <ele>705.758</ele>
        <time>2011-03-12T11:37:53Z</time>
      </trkpt>
      <trkpt lat="42.701790" lon="-2.767280">
        <ele>704.858</ele>
        <time>2011-03-12T11:38:00Z</time>
      </trkpt>
      <trkpt lat="42.701740" lon="-2.767160">
        <ele>703.880</ele>
        <time>2011-03-12T11:38:07Z</time>
      </trkpt>
      <trkpt lat="42.701700" lon="-2.767030">
        <ele>703.865</ele>
        <time>2011-03-12T11:38:14Z</time>
      </trkpt>
      <trkpt lat="42.701660" lon="-2.766900">
        <ele>703.468</ele>
        <time>2011-03-12T11:38:21Z</time>
      </trkpt>
      <trkpt lat="42.701620" lon="-2.766770">
        <ele>703.414</ele>
        <time>2011-03-12T11:38:28Z</time>
      </trkpt>
      <trkpt lat="42.701590" lon="-2.766640">
        <ele>701.907</ele>
        <time>2011-03-12T11:38:35Z</time>
      </trkpt>
      <trkpt lat="42.701540" lon="-2.766520">
        <ele>701.458</ele>
        <time>2011-03-12T11:38:42Z</time>
      </trkpt>
      <trkpt lat="42.701510" lon="-2.766400">
        <ele>698.579</ele>
        <time>2011-03-12T11:38:49Z</time>
      </trkpt>
      <trkpt lat="42.701470" lon="-2.766280">
        <ele>697.688</ele>
        <time>2011-03-12T11:38:56Z</time>
      </trkpt>
      <trkpt lat="42.701440" lon="-2.766160">
        <ele>697.193</ele>
        <time>2011-03-12T11:39:03Z</time>
      </trkpt>
      <trkpt lat="42.701390" lon="-2.766040">
        <ele>696.195</ele>
        <time>2011-03-12T11:39:10Z</time>
      </trkpt>
      <trkpt lat="42.701320" lon="-2.765940">
        <ele>693.735</ele>
        <time>2011-03-12T11:39:17Z</time>
      </trkpt>
      <trkpt lat="42.701250" lon="-2.765860">
        <ele>691.357</ele>
        <time>2011-03-12T11:39:24Z</time>
      </trkpt>
      <trkpt lat="42.701170" lon="-2.765800">
        <ele>689.997</ele>
        <time>2011-03-12T11:39:31Z</time>
      </trkpt>
      <trkpt lat="42.701080" lon="-2.765770">
        <ele>687.523</ele>
        <time>2011-03-12T11:39:38Z</time>
      </trkpt>
      <trkpt lat="42.700980" lon="-2.765770">
        <ele>686.025</ele>
        <time>2011-03-12T11:39:46Z</time>
      </trkpt>
      <trkpt lat="42.700900" lon="-2.765870">
        <ele>684.607</ele>
        <time>2011-03-12T11:39:54Z</time>
      </trkpt>
      <trkpt lat="42.700830" lon="-2.765940">
        <ele>683.641</ele>
        <time>2011-03-12T11:40:01Z</time>
      </trkpt>
      <trkpt lat="42.700730" lon="-2.765920">
        <ele>682.282</ele>
        <time>2011-03-12T11:40:09Z</time>
      </trkpt>
      <trkpt lat="42.700680" lon="-2.765810">
        <ele>682.281</ele>
        <time>2011-03-12T11:40:18Z</time>
      </trkpt>
      <trkpt lat="42.700670" lon="-2.765680">
        <ele>681.226</ele>
        <time>2011-03-12T11:40:28Z</time>
      </trkpt>
      <trkpt lat="42.700660" lon="-2.765540">
        <ele>680.718</ele>
        <time>2011-03-12T11:40:38Z</time>
      </trkpt>
      <trkpt lat="42.700590" lon="-2.765450">
        <ele>680.328</ele>
        <time>2011-03-12T11:40:46Z</time>
      </trkpt>
      <trkpt lat="42.700510" lon="-2.765470">
        <ele>678.870</ele>
        <time>2011-03-12T11:40:55Z</time>
      </trkpt>
      <trkpt lat="42.700450" lon="-2.765560">
        <ele>677.919</ele>
        <time>2011-03-12T11:41:03Z</time>
      </trkpt>
      <trkpt lat="42.700410" lon="-2.765680">
        <ele>676.909</ele>
        <time>2011-03-12T11:41:11Z</time>
      </trkpt>
      <trkpt lat="42.700400" lon="-2.765800">
        <ele>676.419</ele>
        <time>2011-03-12T11:41:19Z</time>
      </trkpt>
      <trkpt lat="42.700358" lon="-2.765919">
        <ele>675.007</ele>
        <time>2011-03-12T11:41:27Z</time>
      </trkpt>
      <trkpt lat="42.700300" lon="-2.765925">
        <ele>674.533</ele>
        <time>2011-03-12T11:41:34Z</time>
      </trkpt>
      <trkpt lat="42.700230" lon="-2.765850">
        <ele>673.144</ele>
        <time>2011-03-12T11:41:41Z</time>
      </trkpt>
      <trkpt lat="42.700160" lon="-2.765760">
        <ele>671.683</ele>
        <time>2011-03-12T11:41:48Z</time>
      </trkpt>
      <trkpt lat="42.700100" lon="-2.765650">
        <ele>670.738</ele>
        <time>2011-03-12T11:41:55Z</time>
      </trkpt>
      <trkpt lat="42.700060" lon="-2.765520">
        <ele>669.710</ele>
        <time>2011-03-12T11:42:02Z</time>
      </trkpt>
      <trkpt lat="42.700050" lon="-2.765380">
        <ele>668.250</ele>
        <time>2011-03-12T11:42:09Z</time>
      </trkpt>
      <trkpt lat="42.700060" lon="-2.765250">
        <ele>665.882</ele>
        <time>2011-03-12T11:42:15Z</time>
      </trkpt>
      <trkpt lat="42.700060" lon="-2.765130">
        <ele>664.933</ele>
        <time>2011-03-12T11:42:22Z</time>
      </trkpt>
      <trkpt lat="42.700040" lon="-2.765000">
        <ele>663.523</ele>
        <time>2011-03-12T11:42:29Z</time>
      </trkpt>
      <trkpt lat="42.700010" lon="-2.764870">
        <ele>662.015</ele>
        <time>2011-03-12T11:42:36Z</time>
      </trkpt>
      <trkpt lat="42.699960" lon="-2.764760">
        <ele>661.507</ele>
        <time>2011-03-12T11:42:43Z</time>
      </trkpt>
      <trkpt lat="42.699890" lon="-2.764660">
        <ele>661.125</ele>
        <time>2011-03-12T11:42:50Z</time>
      </trkpt>
      <trkpt lat="42.699790" lon="-2.764620">
        <ele>660.116</ele>
        <time>2011-03-12T11:42:57Z</time>
      </trkpt>
      <trkpt lat="42.699700" lon="-2.764610">
        <ele>660.125</ele>
        <time>2011-03-12T11:43:04Z</time>
      </trkpt>
      <trkpt lat="42.699610" lon="-2.764600">
        <ele>659.690</ele>
        <time>2011-03-12T11:43:15Z</time>
      </trkpt>
      <trkpt lat="42.699510" lon="-2.764570">
        <ele>659.162</ele>
        <time>2011-03-12T11:43:22Z</time>
      </trkpt>
      <trkpt lat="42.699410" lon="-2.764530">
        <ele>659.152</ele>
        <time>2011-03-12T11:43:29Z</time>
      </trkpt>
      <trkpt lat="42.699320" lon="-2.764480">
        <ele>658.634</ele>
        <time>2011-03-12T11:43:36Z</time>
      </trkpt>
      <trkpt lat="42.699240" lon="-2.764430">
        <ele>658.247</ele>
        <time>2011-03-12T11:43:43Z</time>
      </trkpt>
      <trkpt lat="42.699160" lon="-2.764360">
        <ele>658.229</ele>
        <time>2011-03-12T11:43:50Z</time>
      </trkpt>
      <trkpt lat="42.699080" lon="-2.764300">
        <ele>657.721</ele>
        <time>2011-03-12T11:43:57Z</time>
      </trkpt>
      <trkpt lat="42.698990" lon="-2.764240">
        <ele>656.707</ele>
        <time>2011-03-12T11:44:04Z</time>
      </trkpt>
      <trkpt lat="42.698890" lon="-2.764220">
        <ele>656.716</ele>
        <time>2011-03-12T11:44:13Z</time>
      </trkpt>
      <trkpt lat="42.698790" lon="-2.764210">
        <ele>655.317</ele>
        <time>2011-03-12T11:44:20Z</time>
      </trkpt>
      <trkpt lat="42.698690" lon="-2.764210">
        <ele>653.846</ele>
        <time>2011-03-12T11:44:27Z</time>
      </trkpt>
      <trkpt lat="42.698600" lon="-2.764220">
        <ele>653.371</ele>
        <time>2011-03-12T11:44:33Z</time>
      </trkpt>
      <trkpt lat="42.698500" lon="-2.764230">
        <ele>652.973</ele>
        <time>2011-03-12T11:44:40Z</time>
      </trkpt>
      <trkpt lat="42.698400" lon="-2.764220">
        <ele>652.453</ele>
        <time>2011-03-12T11:44:47Z</time>
      </trkpt>
      <trkpt lat="42.698300" lon="-2.764220">
        <ele>651.915</ele>
        <time>2011-03-12T11:44:54Z</time>
      </trkpt>
      <trkpt lat="42.698200" lon="-2.764230">
        <ele>652.438</ele>
        <time>2011-03-12T11:45:01Z</time>
      </trkpt>
      <trkpt lat="42.698100" lon="-2.764230">
        <ele>652.470</ele>
        <time>2011-03-12T11:45:08Z</time>
      </trkpt>
      <trkpt lat="42.698000" lon="-2.764240">
        <ele>652.417</ele>
        <time>2011-03-12T11:45:15Z</time>
      </trkpt>
      <trkpt lat="42.697910" lon="-2.764270">
        <ele>651.907</ele>
        <time>2011-03-12T11:45:22Z</time>
      </trkpt>
      <trkpt lat="42.697810" lon="-2.764300">
        <ele>651.025</ele>
        <time>2011-03-12T11:45:29Z</time>
      </trkpt>
      <trkpt lat="42.697730" lon="-2.764360">
        <ele>649.016</ele>
        <time>2011-03-12T11:45:36Z</time>
      </trkpt>
      <trkpt lat="42.697650" lon="-2.764390">
        <ele>648.165</ele>
        <time>2011-03-12T11:45:46Z</time>
      </trkpt>
      <trkpt lat="42.697560" lon="-2.764460">
        <ele>647.630</ele>
        <time>2011-03-12T11:45:53Z</time>
      </trkpt>
      <trkpt lat="42.697480" lon="-2.764520">
        <ele>647.152</ele>
        <time>2011-03-12T11:46:00Z</time>
      </trkpt>
      <trkpt lat="42.697390" lon="-2.764590">
        <ele>645.792</ele>
        <time>2011-03-12T11:46:07Z</time>
      </trkpt>
      <trkpt lat="42.697300" lon="-2.764660">
        <ele>644.734</ele>
        <time>2011-03-12T11:46:14Z</time>
      </trkpt>
      <trkpt lat="42.697210" lon="-2.764720">
        <ele>642.846</ele>
        <time>2011-03-12T11:46:21Z</time>
      </trkpt>
      <trkpt lat="42.697110" lon="-2.764780">
        <ele>641.388</ele>
        <time>2011-03-12T11:46:28Z</time>
      </trkpt>
      <trkpt lat="42.697020" lon="-2.764850">
        <ele>639.416</ele>
        <time>2011-03-12T11:46:35Z</time>
      </trkpt>
      <trkpt lat="42.696940" lon="-2.764920">
        <ele>638.007</ele>
        <time>2011-03-12T11:46:42Z</time>
      </trkpt>
      <trkpt lat="42.696850" lon="-2.764990">
        <ele>637.076</ele>
        <time>2011-03-12T11:46:49Z</time>
      </trkpt>
      <trkpt lat="42.696760" lon="-2.765050">
        <ele>636.127</ele>
        <time>2011-03-12T11:46:56Z</time>
      </trkpt>
      <trkpt lat="42.696680" lon="-2.765110">
        <ele>635.646</ele>
        <time>2011-03-12T11:47:02Z</time>
      </trkpt>
      <trkpt lat="42.696590" lon="-2.765180">
        <ele>635.691</ele>
        <time>2011-03-12T11:47:09Z</time>
      </trkpt>
      <trkpt lat="42.696490" lon="-2.765240">
        <ele>635.633</ele>
        <time>2011-03-12T11:47:16Z</time>
      </trkpt>
      <trkpt lat="42.696410" lon="-2.765290">
        <ele>635.663</ele>
        <time>2011-03-12T11:47:25Z</time>
      </trkpt>
      <trkpt lat="42.696320" lon="-2.765340">
        <ele>634.625</ele>
        <time>2011-03-12T11:47:32Z</time>
      </trkpt>
      <trkpt lat="42.696220" lon="-2.765370">
        <ele>634.142</ele>
        <time>2011-03-12T11:47:39Z</time>
      </trkpt>
      <trkpt lat="42.696120" lon="-2.765400">
        <ele>633.622</ele>
        <time>2011-03-12T11:47:46Z</time>
      </trkpt>
      <trkpt lat="42.696030" lon="-2.765440">
        <ele>633.214</ele>
        <time>2011-03-12T11:47:53Z</time>
      </trkpt>
      <trkpt lat="42.695930" lon="-2.765470">
        <ele>634.107</ele>
        <time>2011-03-12T11:48:00Z</time>
      </trkpt>
      <trkpt lat="42.695830" lon="-2.765510">
        <ele>634.646</ele>
        <time>2011-03-12T11:48:07Z</time>
      </trkpt>
      <trkpt lat="42.695730" lon="-2.765540">
        <ele>635.677</ele>
        <time>2011-03-12T11:48:14Z</time>
      </trkpt>
      <trkpt lat="42.695630" lon="-2.765570">
        <ele>634.626</ele>
        <time>2011-03-12T11:48:21Z</time>
      </trkpt>
      <trkpt lat="42.695530" lon="-2.765610">
        <ele>634.621</ele>
        <time>2011-03-12T11:48:28Z</time>
      </trkpt>
      <trkpt lat="42.695430" lon="-2.765640">
        <ele>634.663</ele>
        <time>2011-03-12T11:48:35Z</time>
      </trkpt>
      <trkpt lat="42.695330" lon="-2.765680">
        <ele>635.173</ele>
        <time>2011-03-12T11:48:42Z</time>
      </trkpt>
      <trkpt lat="42.695230" lon="-2.765710">
        <ele>633.645</ele>
        <time>2011-03-12T11:48:49Z</time>
      </trkpt>
      <trkpt lat="42.695130" lon="-2.765730">
        <ele>633.241</ele>
        <time>2011-03-12T11:48:56Z</time>
      </trkpt>
      <trkpt lat="42.695040" lon="-2.765770">
        <ele>631.281</ele>
        <time>2011-03-12T11:49:03Z</time>
      </trkpt>
      <trkpt lat="42.694940" lon="-2.765800">
        <ele>630.809</ele>
        <time>2011-03-12T11:49:10Z</time>
      </trkpt>
      <trkpt lat="42.694840" lon="-2.765830">
        <ele>629.307</ele>
        <time>2011-03-12T11:49:17Z</time>
      </trkpt>
      <trkpt lat="42.694750" lon="-2.765860">
        <ele>629.336</ele>
        <time>2011-03-12T11:49:24Z</time>
      </trkpt>
      <trkpt lat="42.694650" lon="-2.765880">
        <ele>629.397</ele>
        <time>2011-03-12T11:49:31Z</time>
      </trkpt>
      <trkpt lat="42.694560" lon="-2.765910">
        <ele>627.946</ele>
        <time>2011-03-12T11:49:38Z</time>
      </trkpt>
      <trkpt lat="42.694490" lon="-2.766000">
        <ele>626.981</ele>
        <time>2011-03-12T11:49:46Z</time>
      </trkpt>
      <trkpt lat="42.694480" lon="-2.766120">
        <ele>626.923</ele>
        <time>2011-03-12T11:49:53Z</time>
      </trkpt>
      <trkpt lat="42.694520" lon="-2.766250">
        <ele>625.563</ele>
        <time>2011-03-12T11:50:01Z</time>
      </trkpt>
      <trkpt lat="42.694580" lon="-2.766350">
        <ele>624.545</ele>
        <time>2011-03-12T11:50:08Z</time>
      </trkpt>
      <trkpt lat="42.694630" lon="-2.766460">
        <ele>623.149</ele>
        <time>2011-03-12T11:50:15Z</time>
      </trkpt>
      <trkpt lat="42.694680" lon="-2.766580">
        <ele>622.602</ele>
        <time>2011-03-12T11:50:22Z</time>
      </trkpt>
      <trkpt lat="42.694730" lon="-2.766710">
        <ele>621.622</ele>
        <time>2011-03-12T11:50:29Z</time>
      </trkpt>
      <trkpt lat="42.694760" lon="-2.766840">
        <ele>621.207</ele>
        <time>2011-03-12T11:50:36Z</time>
      </trkpt>
      <trkpt lat="42.694770" lon="-2.766970">
        <ele>621.656</ele>
        <time>2011-03-12T11:50:43Z</time>
      </trkpt>
      <trkpt lat="42.694760" lon="-2.767100">
        <ele>622.137</ele>
        <time>2011-03-12T11:50:50Z</time>
      </trkpt>
      <trkpt lat="42.694740" lon="-2.767230">
        <ele>622.136</ele>
        <time>2011-03-12T11:50:57Z</time>
      </trkpt>
      <trkpt lat="42.694720" lon="-2.767360">
        <ele>622.191</ele>
        <time>2011-03-12T11:51:04Z</time>
      </trkpt>
      <trkpt lat="42.694700" lon="-2.767500">
        <ele>621.673</ele>
        <time>2011-03-12T11:51:11Z</time>
      </trkpt>
      <trkpt lat="42.694680" lon="-2.767630">
        <ele>622.173</ele>
        <time>2011-03-12T11:51:18Z</time>
      </trkpt>
      <trkpt lat="42.694670" lon="-2.767760">
        <ele>621.635</ele>
        <time>2011-03-12T11:51:25Z</time>
      </trkpt>
      <trkpt lat="42.694650" lon="-2.767890">
        <ele>622.161</ele>
        <time>2011-03-12T11:51:32Z</time>
      </trkpt>
      <trkpt lat="42.694640" lon="-2.768020">
        <ele>621.621</ele>
        <time>2011-03-12T11:51:39Z</time>
      </trkpt>
      <trkpt lat="42.694620" lon="-2.768150">
        <ele>622.113</ele>
        <time>2011-03-12T11:51:46Z</time>
      </trkpt>
      <trkpt lat="42.694610" lon="-2.768280">
        <ele>621.607</ele>
        <time>2011-03-12T11:51:53Z</time>
      </trkpt>
      <trkpt lat="42.694600" lon="-2.768400">
        <ele>621.248</ele>
        <time>2011-03-12T11:52:06Z</time>
      </trkpt>
      <trkpt lat="42.694580" lon="-2.768520">
        <ele>620.789</ele>
        <time>2011-03-12T11:52:13Z</time>
      </trkpt>
      <trkpt lat="42.694560" lon="-2.768650">
        <ele>620.718</ele>
        <time>2011-03-12T11:52:20Z</time>
      </trkpt>
      <trkpt lat="42.694550" lon="-2.768780">
        <ele>620.753</ele>
        <time>2011-03-12T11:52:27Z</time>
      </trkpt>
      <trkpt lat="42.694540" lon="-2.768910">
        <ele>620.285</ele>
        <time>2011-03-12T11:52:34Z</time>
      </trkpt>
      <trkpt lat="42.694520" lon="-2.769040">
        <ele>619.745</ele>
        <time>2011-03-12T11:52:41Z</time>
      </trkpt>
      <trkpt lat="42.694510" lon="-2.769180">
        <ele>619.727</ele>
        <time>2011-03-12T11:52:48Z</time>
      </trkpt>
      <trkpt lat="42.694490" lon="-2.769320">
        <ele>619.785</ele>
        <time>2011-03-12T11:52:55Z</time>
      </trkpt>
      <trkpt lat="42.694480" lon="-2.769450">
        <ele>620.289</ele>
        <time>2011-03-12T11:53:02Z</time>
      </trkpt>
      <trkpt lat="42.694460" lon="-2.769580">
        <ele>619.717</ele>
        <time>2011-03-12T11:53:09Z</time>
      </trkpt>
      <trkpt lat="42.694450" lon="-2.769720">
        <ele>620.207</ele>
        <time>2011-03-12T11:53:16Z</time>
      </trkpt>
      <trkpt lat="42.694440" lon="-2.769850">
        <ele>620.770</ele>
        <time>2011-03-12T11:53:23Z</time>
      </trkpt>
      <trkpt lat="42.694420" lon="-2.769990">
        <ele>620.751</ele>
        <time>2011-03-12T11:53:30Z</time>
      </trkpt>
      <trkpt lat="42.694410" lon="-2.770120">
        <ele>621.240</ele>
        <time>2011-03-12T11:53:37Z</time>
      </trkpt>
      <trkpt lat="42.694390" lon="-2.770250">
        <ele>621.255</ele>
        <time>2011-03-12T11:53:44Z</time>
      </trkpt>
      <trkpt lat="42.694380" lon="-2.770380">
        <ele>621.637</ele>
        <time>2011-03-12T11:53:51Z</time>
      </trkpt>
      <trkpt lat="42.694360" lon="-2.770510">
        <ele>622.647</ele>
        <time>2011-03-12T11:53:59Z</time>
      </trkpt>
      <trkpt lat="42.694330" lon="-2.770630">
        <ele>623.629</ele>
        <time>2011-03-12T11:54:06Z</time>
      </trkpt>
      <trkpt lat="42.694310" lon="-2.770740">
        <ele>625.058</ele>
        <time>2011-03-12T11:54:13Z</time>
      </trkpt>
      <trkpt lat="42.694230" lon="-2.770820">
        <ele>626.452</ele>
        <time>2011-03-12T11:54:21Z</time>
      </trkpt>
      <trkpt lat="42.694130" lon="-2.770810">
        <ele>626.417</ele>
        <time>2011-03-12T11:54:29Z</time>
      </trkpt>
      <trkpt lat="42.694040" lon="-2.770770">
        <ele>624.007</ele>
        <time>2011-03-12T11:54:36Z</time>
      </trkpt>
      <trkpt lat="42.693950" lon="-2.770740">
        <ele>625.037</ele>
        <time>2011-03-12T11:54:44Z</time>
      </trkpt>
      <trkpt lat="42.693870" lon="-2.770700">
        <ele>623.638</ele>
        <time>2011-03-12T11:54:53Z</time>
      </trkpt>
      <trkpt lat="42.693770" lon="-2.770670">
        <ele>623.677</ele>
        <time>2011-03-12T11:55:01Z</time>
      </trkpt>
      <trkpt lat="42.693680" lon="-2.770630">
        <ele>623.632</ele>
        <time>2011-03-12T11:55:08Z</time>
      </trkpt>
      <trkpt lat="42.693590" lon="-2.770590">
        <ele>621.614</ele>
        <time>2011-03-12T11:55:15Z</time>
      </trkpt>
      <trkpt lat="42.693500" lon="-2.770530">
        <ele>622.144</ele>
        <time>2011-03-12T11:55:23Z</time>
      </trkpt>
      <trkpt lat="42.693420" lon="-2.770470">
        <ele>622.646</ele>
        <time>2011-03-12T11:55:30Z</time>
      </trkpt>
      <trkpt lat="42.693350" lon="-2.770400">
        <ele>621.698</ele>
        <time>2011-03-12T11:55:37Z</time>
      </trkpt>
      <trkpt lat="42.693270" lon="-2.770330">
        <ele>619.715</ele>
        <time>2011-03-12T11:55:44Z</time>
      </trkpt>
      <trkpt lat="42.693200" lon="-2.770270">
        <ele>621.226</ele>
        <time>2011-03-12T11:55:51Z</time>
      </trkpt>
      <trkpt lat="42.693110" lon="-2.770200">
        <ele>620.207</ele>
        <time>2011-03-12T11:55:58Z</time>
      </trkpt>
      <trkpt lat="42.693040" lon="-2.770130">
        <ele>620.741</ele>
        <time>2011-03-12T11:56:07Z</time>
      </trkpt>
      <trkpt lat="42.692950" lon="-2.770060">
        <ele>619.752</ele>
        <time>2011-03-12T11:56:19Z</time>
      </trkpt>
      <trkpt lat="42.692870" lon="-2.770010">
        <ele>619.281</ele>
        <time>2011-03-12T11:56:26Z</time>
      </trkpt>
      <trkpt lat="42.692780" lon="-2.769940">
        <ele>619.286</ele>
        <time>2011-03-12T11:56:33Z</time>
      </trkpt>
      <trkpt lat="42.692690" lon="-2.769890">
        <ele>618.788</ele>
        <time>2011-03-12T11:56:40Z</time>
      </trkpt>
      <trkpt lat="42.692610" lon="-2.769840">
        <ele>618.378</ele>
        <time>2011-03-12T11:56:47Z</time>
      </trkpt>
      <trkpt lat="42.692520" lon="-2.769780">
        <ele>617.860</ele>
        <time>2011-03-12T11:56:54Z</time>
      </trkpt>
      <trkpt lat="42.692430" lon="-2.769730">
        <ele>617.827</ele>
        <time>2011-03-12T11:57:01Z</time>
      </trkpt>
      <trkpt lat="42.692350" lon="-2.769670">
        <ele>617.868</ele>
        <time>2011-03-12T11:57:08Z</time>
      </trkpt>
      <trkpt lat="42.692260" lon="-2.769620">
        <ele>617.314</ele>
        <time>2011-03-12T11:57:15Z</time>
      </trkpt>
      <trkpt lat="42.692170" lon="-2.769560">
        <ele>616.807</ele>
        <time>2011-03-12T11:57:22Z</time>
      </trkpt>
      <trkpt lat="42.692090" lon="-2.769510">
        <ele>615.814</ele>
        <time>2011-03-12T11:57:29Z</time>
      </trkpt>
      <trkpt lat="42.692000" lon="-2.769460">
        <ele>614.975</ele>
        <time>2011-03-12T11:57:36Z</time>
      </trkpt>
      <trkpt lat="42.691920" lon="-2.769410">
        <ele>614.464</ele>
        <time>2011-03-12T11:57:43Z</time>
      </trkpt>
      <trkpt lat="42.691830" lon="-2.769350">
        <ele>613.069</ele>
        <time>2011-03-12T11:57:50Z</time>
      </trkpt>
      <trkpt lat="42.691750" lon="-2.769290">
        <ele>611.141</ele>
        <time>2011-03-12T11:57:58Z</time>
      </trkpt>
      <trkpt lat="42.691650" lon="-2.769230">
        <ele>610.121</ele>
        <time>2011-03-12T11:58:06Z</time>
      </trkpt>
      <trkpt lat="42.691570" lon="-2.769180">
        <ele>609.113</ele>
        <time>2011-03-12T11:58:13Z</time>
      </trkpt>
      <trkpt lat="42.691480" lon="-2.769140">
        <ele>607.273</ele>
        <time>2011-03-12T11:58:20Z</time>
      </trkpt>
      <trkpt lat="42.691390" lon="-2.769100">
        <ele>606.285</ele>
        <time>2011-03-12T11:58:27Z</time>
      </trkpt>
      <trkpt lat="42.691290" lon="-2.769070">
        <ele>605.313</ele>
        <time>2011-03-12T11:58:36Z</time>
      </trkpt>
      <trkpt lat="42.691190" lon="-2.769060">
        <ele>603.807</ele>
        <time>2011-03-12T11:58:44Z</time>
      </trkpt>
      <trkpt lat="42.691100" lon="-2.769050">
        <ele>603.499</ele>
        <time>2011-03-12T11:58:52Z</time>
      </trkpt>
      <trkpt lat="42.691010" lon="-2.769050">
        <ele>602.480</ele>
        <time>2011-03-12T11:59:01Z</time>
      </trkpt>
      <trkpt lat="42.690910" lon="-2.769040">
        <ele>601.029</ele>
        <time>2011-03-12T11:59:09Z</time>
      </trkpt>
      <trkpt lat="42.690810" lon="-2.769040">
        <ele>600.014</ele>
        <time>2011-03-12T11:59:17Z</time>
      </trkpt>
      <trkpt lat="42.690710" lon="-2.769030">
        <ele>599.576</ele>
        <time>2011-03-12T11:59:25Z</time>
      </trkpt>
      <trkpt lat="42.690610" lon="-2.769020">
        <ele>599.086</ele>
        <time>2011-03-12T11:59:32Z</time>
      </trkpt>
      <trkpt lat="42.690520" lon="-2.769020">
        <ele>597.668</ele>
        <time>2011-03-12T11:59:39Z</time>
      </trkpt>
      <trkpt lat="42.690420" lon="-2.769010">
        <ele>596.289</ele>
        <time>2011-03-12T11:59:46Z</time>
      </trkpt>
      <trkpt lat="42.690320" lon="-2.769000">
        <ele>595.706</ele>
        <time>2011-03-12T11:59:53Z</time>
      </trkpt>
      <trkpt lat="42.690220" lon="-2.769000">
        <ele>594.726</ele>
        <time>2011-03-12T12:00:00Z</time>
      </trkpt>
      <trkpt lat="42.690130" lon="-2.768990">
        <ele>594.207</ele>
        <time>2011-03-12T12:00:07Z</time>
      </trkpt>
      <trkpt lat="42.690030" lon="-2.768990">
        <ele>593.810</ele>
        <time>2011-03-12T12:00:14Z</time>
      </trkpt>
      <trkpt lat="42.689930" lon="-2.768980">
        <ele>593.391</ele>
        <time>2011-03-12T12:00:21Z</time>
      </trkpt>
      <trkpt lat="42.689830" lon="-2.768980">
        <ele>593.390</ele>
        <time>2011-03-12T12:00:28Z</time>
      </trkpt>
      <trkpt lat="42.689730" lon="-2.768970">
        <ele>593.395</ele>
        <time>2011-03-12T12:00:35Z</time>
      </trkpt>
      <trkpt lat="42.689630" lon="-2.768970">
        <ele>592.847</ele>
        <time>2011-03-12T12:00:42Z</time>
      </trkpt>
      <trkpt lat="42.689530" lon="-2.768960">
        <ele>591.877</ele>
        <time>2011-03-12T12:00:49Z</time>
      </trkpt>
      <trkpt lat="42.689430" lon="-2.768960">
        <ele>591.839</ele>
        <time>2011-03-12T12:00:56Z</time>
      </trkpt>
      <trkpt lat="42.689330" lon="-2.768950">
        <ele>591.372</ele>
        <time>2011-03-12T12:01:03Z</time>
      </trkpt>
      <trkpt lat="42.689230" lon="-2.768950">
        <ele>590.413</ele>
        <time>2011-03-12T12:01:10Z</time>
      </trkpt>
      <trkpt lat="42.689130" lon="-2.768940">
        <ele>590.914</ele>
        <time>2011-03-12T12:01:17Z</time>
      </trkpt>
      <trkpt lat="42.689030" lon="-2.768930">
        <ele>589.407</ele>
        <time>2011-03-12T12:01:24Z</time>
      </trkpt>
      <trkpt lat="42.688930" lon="-2.768910">
        <ele>589.419</ele>
        <time>2011-03-12T12:01:31Z</time>
      </trkpt>
      <trkpt lat="42.688840" lon="-2.768860">
        <ele>589.450</ele>
        <time>2011-03-12T12:01:38Z</time>
      </trkpt>
      <trkpt lat="42.688750" lon="-2.768800">
        <ele>589.439</ele>
        <time>2011-03-12T12:01:45Z</time>
      </trkpt>
      <trkpt lat="42.688670" lon="-2.768740">
        <ele>588.514</ele>
        <time>2011-03-12T12:01:51Z</time>
      </trkpt>
      <trkpt lat="42.688580" lon="-2.768670">
        <ele>587.086</ele>
        <time>2011-03-12T12:01:58Z</time>
      </trkpt>
      <trkpt lat="42.688490" lon="-2.768600">
        <ele>587.066</ele>
        <time>2011-03-12T12:02:05Z</time>
      </trkpt>
      <trkpt lat="42.688410" lon="-2.768520">
        <ele>587.088</ele>
        <time>2011-03-12T12:02:12Z</time>
      </trkpt>
      <trkpt lat="42.688320" lon="-2.768440">
        <ele>585.631</ele>
        <time>2011-03-12T12:02:19Z</time>
      </trkpt>
      <trkpt lat="42.688230" lon="-2.768370">
        <ele>584.661</ele>
        <time>2011-03-12T12:02:26Z</time>
      </trkpt>
      <trkpt lat="42.688160" lon="-2.768300">
        <ele>584.107</ele>
        <time>2011-03-12T12:02:32Z</time>
      </trkpt>
      <trkpt lat="42.688080" lon="-2.768240">
        <ele>583.707</ele>
        <time>2011-03-12T12:02:38Z</time>
      </trkpt>
      <trkpt lat="42.687980" lon="-2.768170">
        <ele>583.715</ele>
        <time>2011-03-12T12:02:45Z</time>
      </trkpt>
      <trkpt lat="42.687890" lon="-2.768100">
        <ele>582.266</ele>
        <time>2011-03-12T12:02:52Z</time>
      </trkpt>
      <trkpt lat="42.687800" lon="-2.768030">
        <ele>581.395</ele>
        <time>2011-03-12T12:02:59Z</time>
      </trkpt>
      <trkpt lat="42.687720" lon="-2.767970">
        <ele>580.340</ele>
        <time>2011-03-12T12:03:06Z</time>
      </trkpt>
      <trkpt lat="42.687630" lon="-2.767910">
        <ele>579.812</ele>
        <time>2011-03-12T12:03:16Z</time>
      </trkpt>
      <trkpt lat="42.687540" lon="-2.767860">
        <ele>578.472</ele>
        <time>2011-03-12T12:03:25Z</time>
      </trkpt>
      <trkpt lat="42.687460" lon="-2.767790">
        <ele>577.954</ele>
        <time>2011-03-12T12:03:32Z</time>
      </trkpt>
      <trkpt lat="42.687380" lon="-2.767730">
        <ele>576.937</ele>
        <time>2011-03-12T12:03:39Z</time>
      </trkpt>
      <trkpt lat="42.687310" lon="-2.767660">
        <ele>576.049</ele>
        <time>2011-03-12T12:03:46Z</time>
      </trkpt>
      <trkpt lat="42.687240" lon="-2.767560">
        <ele>574.513</ele>
        <time>2011-03-12T12:03:53Z</time>
      </trkpt>
      <trkpt lat="42.687240" lon="-2.767430">
        <ele>574.507</ele>
        <time>2011-03-12T12:04:00Z</time>
      </trkpt>
      <trkpt lat="42.687270" lon="-2.767320">
        <ele>574.065</ele>
        <time>2011-03-12T12:04:07Z</time>
      </trkpt>
      <trkpt lat="42.687300" lon="-2.767200">
        <ele>573.136</ele>
        <time>2011-03-12T12:04:14Z</time>
      </trkpt>
      <trkpt lat="42.687310" lon="-2.767070">
        <ele>573.145</ele>
        <time>2011-03-12T12:04:21Z</time>
      </trkpt>
      <trkpt lat="42.687320" lon="-2.766940">
        <ele>572.630</ele>
        <time>2011-03-12T12:04:28Z</time>
      </trkpt>
      <trkpt lat="42.687290" lon="-2.766810">
        <ele>572.672</ele>
        <time>2011-03-12T12:04:35Z</time>
      </trkpt>
      <trkpt lat="42.687260" lon="-2.766690">
        <ele>573.162</ele>
        <time>2011-03-12T12:04:42Z</time>
      </trkpt>
      <trkpt lat="42.687230" lon="-2.766560">
        <ele>573.634</ele>
        <time>2011-03-12T12:04:49Z</time>
      </trkpt>
      <trkpt lat="42.687200" lon="-2.766450">
        <ele>573.619</ele>
        <time>2011-03-12T12:04:56Z</time>
      </trkpt>
      <trkpt lat="42.687160" lon="-2.766320">
        <ele>574.509</ele>
        <time>2011-03-12T12:05:04Z</time>
      </trkpt>
      <trkpt lat="42.687130" lon="-2.766250">
        <ele>575.519</ele>
        <time>2011-03-12T12:05:18Z</time>
      </trkpt>
      <trkpt lat="42.687120" lon="-2.766140">
        <ele>576.007</ele>
        <time>2011-03-12T12:05:30Z</time>
      </trkpt>
      <trkpt lat="42.687080" lon="-2.766170">
        <ele>576.443</ele>
        <time>2011-03-12T12:05:43Z</time>
      </trkpt>
      <trkpt lat="42.687000" lon="-2.766210">
        <ele>576.064</ele>
        <time>2011-03-12T12:05:59Z</time>
      </trkpt>
      <trkpt lat="42.687013" lon="-2.766170">
        <ele>577.443</ele>
        <time>2011-03-12T12:06:44Z</time>
      </trkpt>
      <trkpt lat="42.687050" lon="-2.766120">
        <ele>576.998</ele>
        <time>2011-03-12T12:06:57Z</time>
      </trkpt>
      <trkpt lat="42.687040" lon="-2.766030">
        <ele>578.430</ele>
        <time>2011-03-12T12:07:09Z</time>
      </trkpt>
      <trkpt lat="42.686954" lon="-2.766061">
        <ele>581.370</ele>
        <time>2011-03-12T12:07:21Z</time>
      </trkpt>
      <trkpt lat="42.686860" lon="-2.766134">
        <ele>581.322</ele>
        <time>2011-03-12T12:07:31Z</time>
      </trkpt>
      <trkpt lat="42.686527" lon="-2.766288">
        <ele>581.781</ele>
        <time>2011-03-12T12:07:40Z</time>
      </trkpt>
      <trkpt lat="42.686504" lon="-2.766172">
        <ele>580.861</ele>
        <time>2011-03-12T12:07:50Z</time>
      </trkpt>
      <trkpt lat="42.686590" lon="-2.766123">
        <ele>581.317</ele>
        <time>2011-03-12T12:07:59Z</time>
      </trkpt>
      <trkpt lat="42.686504" lon="-2.766142">
        <ele>581.707</ele>
        <time>2011-03-12T12:08:11Z</time>
      </trkpt>
      <trkpt lat="42.686532" lon="-2.766264">
        <ele>582.220</ele>
        <time>2011-03-12T12:08:29Z</time>
      </trkpt>
      <trkpt lat="42.686599" lon="-2.766245">
        <ele>584.171</ele>
        <time>2011-03-12T12:08:45Z</time>
      </trkpt>
      <trkpt lat="42.686640" lon="-2.766233">
        <ele>582.080</ele>
        <time>2011-03-12T12:32:44Z</time>
      </trkpt>
      <trkpt lat="42.686725" lon="-2.766202">
        <ele>580.375</ele>
        <time>2011-03-12T12:33:12Z</time>
      </trkpt>
      <trkpt lat="42.686760" lon="-2.766190">
        <ele>576.487</ele>
        <time>2011-03-12T12:33:20Z</time>
      </trkpt>
      <trkpt lat="42.686824" lon="-2.766147">
        <ele>575.597</ele>
        <time>2011-03-12T12:33:29Z</time>
      </trkpt>
      <trkpt lat="42.686910" lon="-2.766060">
        <ele>575.089</ele>
        <time>2011-03-12T12:33:40Z</time>
      </trkpt>
      <trkpt lat="42.687000" lon="-2.766020">
        <ele>573.181</ele>
        <time>2011-03-12T12:33:51Z</time>
      </trkpt>
      <trkpt lat="42.687060" lon="-2.766080">
        <ele>571.261</ele>
        <time>2011-03-12T12:34:02Z</time>
      </trkpt>
      <trkpt lat="42.687030" lon="-2.766170">
        <ele>570.717</ele>
        <time>2011-03-12T12:35:49Z</time>
      </trkpt>
      <trkpt lat="42.687060" lon="-2.766060">
        <ele>572.607</ele>
        <time>2011-03-12T12:38:36Z</time>
      </trkpt>
      <trkpt lat="42.687040" lon="-2.765940">
        <ele>573.690</ele>
        <time>2011-03-12T12:38:46Z</time>
      </trkpt>
      <trkpt lat="42.687010" lon="-2.765810">
        <ele>574.581</ele>
        <time>2011-03-12T12:38:55Z</time>
      </trkpt>
      <trkpt lat="42.686940" lon="-2.765609">
        <ele>574.030</ele>
        <time>2011-03-12T12:39:14Z</time>
      </trkpt>
      <trkpt lat="42.686810" lon="-2.765560">
        <ele>572.635</ele>
        <time>2011-03-12T12:39:24Z</time>
      </trkpt>
      <trkpt lat="42.686710" lon="-2.765550">
        <ele>570.227</ele>
        <time>2011-03-12T12:39:33Z</time>
      </trkpt>
      <trkpt lat="42.686620" lon="-2.765530">
        <ele>568.367</ele>
        <time>2011-03-12T12:39:42Z</time>
      </trkpt>
      <trkpt lat="42.686520" lon="-2.765540">
        <ele>567.319</ele>
        <time>2011-03-12T12:39:52Z</time>
      </trkpt>
      <trkpt lat="42.686450" lon="-2.765490">
        <ele>565.927</ele>
        <time>2011-03-12T12:40:14Z</time>
      </trkpt>
      <trkpt lat="42.686370" lon="-2.765410">
        <ele>566.368</ele>
        <time>2011-03-12T12:40:22Z</time>
      </trkpt>
      <trkpt lat="42.686300" lon="-2.765330">
        <ele>565.414</ele>
        <time>2011-03-12T12:40:30Z</time>
      </trkpt>
      <trkpt lat="42.686240" lon="-2.765220">
        <ele>565.407</ele>
        <time>2011-03-12T12:40:38Z</time>
      </trkpt>
      <trkpt lat="42.686173" lon="-2.765117">
        <ele>565.444</ele>
        <time>2011-03-12T12:40:46Z</time>
      </trkpt>
      <trkpt lat="42.686080" lon="-2.765070">
        <ele>565.485</ele>
        <time>2011-03-12T12:40:54Z</time>
      </trkpt>
      <trkpt lat="42.686020" lon="-2.764970">
        <ele>565.474</ele>
        <time>2011-03-12T12:41:03Z</time>
      </trkpt>
      <trkpt lat="42.686060" lon="-2.764860">
        <ele>564.929</ele>
        <time>2011-03-12T12:41:13Z</time>
      </trkpt>
      <trkpt lat="42.686060" lon="-2.764730">
        <ele>565.481</ele>
        <time>2011-03-12T12:41:28Z</time>
      </trkpt>
      <trkpt lat="42.686040" lon="-2.764600">
        <ele>567.361</ele>
        <time>2011-03-12T12:41:39Z</time>
      </trkpt>
      <trkpt lat="42.686020" lon="-2.764480">
        <ele>568.343</ele>
        <time>2011-03-12T12:41:52Z</time>
      </trkpt>
      <trkpt lat="42.685990" lon="-2.764340">
        <ele>569.267</ele>
        <time>2011-03-12T12:42:03Z</time>
      </trkpt>
      <trkpt lat="42.685990" lon="-2.764210">
        <ele>570.281</ele>
        <time>2011-03-12T12:42:11Z</time>
      </trkpt>
      <trkpt lat="42.685990" lon="-2.764060">
        <ele>571.219</ele>
        <time>2011-03-12T12:42:20Z</time>
      </trkpt>
      <trkpt lat="42.685980" lon="-2.763920">
        <ele>570.207</ele>
        <time>2011-03-12T12:42:28Z</time>
      </trkpt>
      <trkpt lat="42.685970" lon="-2.763780">
        <ele>573.618</ele>
        <time>2011-03-12T12:42:37Z</time>
      </trkpt>
      <trkpt lat="42.685960" lon="-2.763640">
        <ele>572.669</ele>
        <time>2011-03-12T12:42:45Z</time>
      </trkpt>
      <trkpt lat="42.685960" lon="-2.763520">
        <ele>574.588</ele>
        <time>2011-03-12T12:42:52Z</time>
      </trkpt>
      <trkpt lat="42.685960" lon="-2.763390">
        <ele>575.083</ele>
        <time>2011-03-12T12:42:59Z</time>
      </trkpt>
      <trkpt lat="42.685960" lon="-2.763260">
        <ele>575.015</ele>
        <time>2011-03-12T12:43:07Z</time>
      </trkpt>
      <trkpt lat="42.685950" lon="-2.763140">
        <ele>576.475</ele>
        <time>2011-03-12T12:43:23Z</time>
      </trkpt>
      <trkpt lat="42.685950" lon="-2.763000">
        <ele>576.077</ele>
        <time>2011-03-12T12:43:32Z</time>
      </trkpt>
      <trkpt lat="42.685960" lon="-2.762870">
        <ele>576.488</ele>
        <time>2011-03-12T12:43:40Z</time>
      </trkpt>
      <trkpt lat="42.685980" lon="-2.762740">
        <ele>576.424</ele>
        <time>2011-03-12T12:43:47Z</time>
      </trkpt>
      <trkpt lat="42.686000" lon="-2.762610">
        <ele>576.026</ele>
        <time>2011-03-12T12:43:55Z</time>
      </trkpt>
      <trkpt lat="42.686000" lon="-2.762470">
        <ele>576.407</ele>
        <time>2011-03-12T12:44:03Z</time>
      </trkpt>
      <trkpt lat="42.685990" lon="-2.762340">
        <ele>577.950</ele>
        <time>2011-03-12T12:44:11Z</time>
      </trkpt>
      <trkpt lat="42.685980" lon="-2.762210">
        <ele>578.881</ele>
        <time>2011-03-12T12:44:21Z</time>
      </trkpt>
      <trkpt lat="42.685970" lon="-2.762070">
        <ele>581.340</ele>
        <time>2011-03-12T12:44:30Z</time>
      </trkpt>
      <trkpt lat="42.685960" lon="-2.761940">
        <ele>581.345</ele>
        <time>2011-03-12T12:44:39Z</time>
      </trkpt>
      <trkpt lat="42.685930" lon="-2.761810">
        <ele>582.777</ele>
        <time>2011-03-12T12:44:48Z</time>
      </trkpt>
      <trkpt lat="42.685880" lon="-2.761690">
        <ele>583.757</ele>
        <time>2011-03-12T12:44:57Z</time>
      </trkpt>
      <trkpt lat="42.685830" lon="-2.761580">
        <ele>583.769</ele>
        <time>2011-03-12T12:45:05Z</time>
      </trkpt>
      <trkpt lat="42.685800" lon="-2.761450">
        <ele>584.121</ele>
        <time>2011-03-12T12:45:13Z</time>
      </trkpt>
      <trkpt lat="42.685780" lon="-2.761340">
        <ele>584.641</ele>
        <time>2011-03-12T12:45:20Z</time>
      </trkpt>
      <trkpt lat="42.685750" lon="-2.761220">
        <ele>584.605</ele>
        <time>2011-03-12T12:45:27Z</time>
      </trkpt>
      <trkpt lat="42.685740" lon="-2.761080">
        <ele>584.607</ele>
        <time>2011-03-12T12:45:35Z</time>
      </trkpt>
      <trkpt lat="42.685730" lon="-2.760950">
        <ele>586.124</ele>
        <time>2011-03-12T12:45:43Z</time>
      </trkpt>
      <trkpt lat="42.685740" lon="-2.760820">
        <ele>588.035</ele>
        <time>2011-03-12T12:45:51Z</time>
      </trkpt>
      <trkpt lat="42.685760" lon="-2.760700">
        <ele>589.424</ele>
        <time>2011-03-12T12:45:59Z</time>
      </trkpt>
      <trkpt lat="42.685780" lon="-2.760570">
        <ele>591.399</ele>
        <time>2011-03-12T12:46:08Z</time>
      </trkpt>
      <trkpt lat="42.685800" lon="-2.760440">
        <ele>592.311</ele>
        <time>2011-03-12T12:46:16Z</time>
      </trkpt>
      <trkpt lat="42.685800" lon="-2.760320">
        <ele>592.811</ele>
        <time>2011-03-12T12:46:23Z</time>
      </trkpt>
      <trkpt lat="42.685790" lon="-2.760180">
        <ele>593.363</ele>
        <time>2011-03-12T12:46:31Z</time>
      </trkpt>
      <trkpt lat="42.685770" lon="-2.760050">
        <ele>593.842</ele>
        <time>2011-03-12T12:46:39Z</time>
      </trkpt>
      <trkpt lat="42.685740" lon="-2.759920">
        <ele>594.222</ele>
        <time>2011-03-12T12:46:47Z</time>
      </trkpt>
      <trkpt lat="42.685690" lon="-2.759800">
        <ele>594.214</ele>
        <time>2011-03-12T12:46:55Z</time>
      </trkpt>
      <trkpt lat="42.685640" lon="-2.759690">
        <ele>594.707</ele>
        <time>2011-03-12T12:47:03Z</time>
      </trkpt>
      <trkpt lat="42.685580" lon="-2.759580">
        <ele>594.726</ele>
        <time>2011-03-12T12:47:10Z</time>
      </trkpt>
      <trkpt lat="42.685530" lon="-2.759470">
        <ele>595.227</ele>
        <time>2011-03-12T12:47:18Z</time>
      </trkpt>
      <trkpt lat="42.685490" lon="-2.759350">
        <ele>595.726</ele>
        <time>2011-03-12T12:47:26Z</time>
      </trkpt>
      <trkpt lat="42.685470" lon="-2.759230">
        <ele>595.721</ele>
        <time>2011-03-12T12:47:34Z</time>
      </trkpt>
      <trkpt lat="42.685450" lon="-2.759110">
        <ele>596.223</ele>
        <time>2011-03-12T12:47:42Z</time>
      </trkpt>
      <trkpt lat="42.685440" lon="-2.758990">
        <ele>597.193</ele>
        <time>2011-03-12T12:47:50Z</time>
      </trkpt>
      <trkpt lat="42.685410" lon="-2.758860">
        <ele>598.655</ele>
        <time>2011-03-12T12:47:59Z</time>
      </trkpt>
      <trkpt lat="42.685380" lon="-2.758740">
        <ele>600.082</ele>
        <time>2011-03-12T12:48:08Z</time>
      </trkpt>
      <trkpt lat="42.685350" lon="-2.758620">
        <ele>600.043</ele>
        <time>2011-03-12T12:48:17Z</time>
      </trkpt>
      <trkpt lat="42.685310" lon="-2.758500">
        <ele>601.917</ele>
        <time>2011-03-12T12:48:27Z</time>
      </trkpt>
      <trkpt lat="42.685280" lon="-2.758390">
        <ele>601.907</ele>
        <time>2011-03-12T12:48:36Z</time>
      </trkpt>
      <trkpt lat="42.685250" lon="-2.758270">
        <ele>604.380</ele>
        <time>2011-03-12T12:48:44Z</time>
      </trkpt>
      <trkpt lat="42.685230" lon="-2.758140">
        <ele>605.341</ele>
        <time>2011-03-12T12:48:52Z</time>
      </trkpt>
      <trkpt lat="42.685210" lon="-2.758010">
        <ele>606.260</ele>
        <time>2011-03-12T12:49:00Z</time>
      </trkpt>
      <trkpt lat="42.685160" lon="-2.757900">
        <ele>606.795</ele>
        <time>2011-03-12T12:49:08Z</time>
      </trkpt>
      <trkpt lat="42.685120" lon="-2.757790">
        <ele>606.797</ele>
        <time>2011-03-12T12:49:15Z</time>
      </trkpt>
      <trkpt lat="42.685070" lon="-2.757660">
        <ele>607.297</ele>
        <time>2011-03-12T12:49:23Z</time>
      </trkpt>
      <trkpt lat="42.685030" lon="-2.757540">
        <ele>609.199</ele>
        <time>2011-03-12T12:49:31Z</time>
      </trkpt>
      <trkpt lat="42.684970" lon="-2.757430">
        <ele>610.631</ele>
        <time>2011-03-12T12:49:39Z</time>
      </trkpt>
      <trkpt lat="42.684910" lon="-2.757320">
        <ele>611.161</ele>
        <time>2011-03-12T12:49:47Z</time>
      </trkpt>
      <trkpt lat="42.684860" lon="-2.757200">
        <ele>612.507</ele>
        <time>2011-03-12T12:49:55Z</time>
      </trkpt>
      <trkpt lat="42.684810" lon="-2.757090">
        <ele>612.007</ele>
        <time>2011-03-12T12:50:02Z</time>
      </trkpt>
      <trkpt lat="42.684770" lon="-2.756990">
        <ele>613.985</ele>
        <time>2011-03-12T12:50:09Z</time>
      </trkpt>
      <trkpt lat="42.684720" lon="-2.756880">
        <ele>614.416</ele>
        <time>2011-03-12T12:50:16Z</time>
      </trkpt>
      <trkpt lat="42.684650" lon="-2.756790">
        <ele>613.955</ele>
        <time>2011-03-12T12:50:23Z</time>
      </trkpt>
      <trkpt lat="42.684580" lon="-2.756720">
        <ele>612.030</ele>
        <time>2011-03-12T12:50:31Z</time>
      </trkpt>
      <trkpt lat="42.684490" lon="-2.756670">
        <ele>611.612</ele>
        <time>2011-03-12T12:50:39Z</time>
      </trkpt>
      <trkpt lat="42.684400" lon="-2.756600">
        <ele>611.172</ele>
        <time>2011-03-12T12:50:47Z</time>
      </trkpt>
      <trkpt lat="42.684320" lon="-2.756540">
        <ele>610.164</ele>
        <time>2011-03-12T12:50:54Z</time>
      </trkpt>
      <trkpt lat="42.684240" lon="-2.756480">
        <ele>610.152</ele>
        <time>2011-03-12T12:51:01Z</time>
      </trkpt>
      <trkpt lat="42.684170" lon="-2.756400">
        <ele>610.153</ele>
        <time>2011-03-12T12:51:09Z</time>
      </trkpt>
      <trkpt lat="42.684100" lon="-2.756310">
        <ele>609.608</ele>
        <time>2011-03-12T12:51:18Z</time>
      </trkpt>
      <trkpt lat="42.684040" lon="-2.756210">
        <ele>610.107</ele>
        <time>2011-03-12T12:51:27Z</time>
      </trkpt>
      <trkpt lat="42.683990" lon="-2.756100">
        <ele>610.687</ele>
        <time>2011-03-12T12:51:36Z</time>
      </trkpt>
      <trkpt lat="42.683990" lon="-2.755980">
        <ele>612.018</ele>
        <time>2011-03-12T12:51:44Z</time>
      </trkpt>
      <trkpt lat="42.684050" lon="-2.755860">
        <ele>612.067</ele>
        <time>2011-03-12T12:51:52Z</time>
      </trkpt>
      <trkpt lat="42.684090" lon="-2.755750">
        <ele>613.082</ele>
        <time>2011-03-12T12:52:00Z</time>
      </trkpt>
      <trkpt lat="42.684110" lon="-2.755620">
        <ele>613.584</ele>
        <time>2011-03-12T12:52:08Z</time>
      </trkpt>
      <trkpt lat="42.684120" lon="-2.755490">
        <ele>613.994</ele>
        <time>2011-03-12T12:52:16Z</time>
      </trkpt>
      <trkpt lat="42.684100" lon="-2.755350">
        <ele>614.936</ele>
        <time>2011-03-12T12:52:25Z</time>
      </trkpt>
      <trkpt lat="42.684070" lon="-2.755240">
        <ele>616.319</ele>
        <time>2011-03-12T12:52:34Z</time>
      </trkpt>
      <trkpt lat="42.684030" lon="-2.755120">
        <ele>617.809</ele>
        <time>2011-03-12T12:52:44Z</time>
      </trkpt>
      <trkpt lat="42.683980" lon="-2.755010">
        <ele>618.319</ele>
        <time>2011-03-12T12:52:53Z</time>
      </trkpt>
      <trkpt lat="42.683940" lon="-2.754890">
        <ele>619.707</ele>
        <time>2011-03-12T12:53:02Z</time>
      </trkpt>
      <trkpt lat="42.683890" lon="-2.754780">
        <ele>620.253</ele>
        <time>2011-03-12T12:53:21Z</time>
      </trkpt>
      <trkpt lat="42.683840" lon="-2.754670">
        <ele>621.664</ele>
        <time>2011-03-12T12:53:29Z</time>
      </trkpt>
      <trkpt lat="42.683780" lon="-2.754560">
        <ele>622.653</ele>
        <time>2011-03-12T12:53:37Z</time>
      </trkpt>
      <trkpt lat="42.683710" lon="-2.754460">
        <ele>623.628</ele>
        <time>2011-03-12T12:53:46Z</time>
      </trkpt>
      <trkpt lat="42.683620" lon="-2.754380">
        <ele>624.560</ele>
        <time>2011-03-12T12:53:54Z</time>
      </trkpt>
      <trkpt lat="42.683540" lon="-2.754330">
        <ele>624.590</ele>
        <time>2011-03-12T12:54:01Z</time>
      </trkpt>
      <trkpt lat="42.683440" lon="-2.754290">
        <ele>625.042</ele>
        <time>2011-03-12T12:54:09Z</time>
      </trkpt>
      <trkpt lat="42.683340" lon="-2.754250">
        <ele>626.413</ele>
        <time>2011-03-12T12:54:17Z</time>
      </trkpt>
      <trkpt lat="42.683250" lon="-2.754200">
        <ele>626.443</ele>
        <time>2011-03-12T12:54:25Z</time>
      </trkpt>
      <trkpt lat="42.683190" lon="-2.754110">
        <ele>627.407</ele>
        <time>2011-03-12T12:54:32Z</time>
      </trkpt>
      <trkpt lat="42.683150" lon="-2.753980">
        <ele>626.907</ele>
        <time>2011-03-12T12:54:40Z</time>
      </trkpt>
      <trkpt lat="42.683130" lon="-2.753850">
        <ele>627.493</ele>
        <time>2011-03-12T12:54:48Z</time>
      </trkpt>
      <trkpt lat="42.683120" lon="-2.753720">
        <ele>627.984</ele>
        <time>2011-03-12T12:54:56Z</time>
      </trkpt>
      <trkpt lat="42.683110" lon="-2.753600">
        <ele>626.483</ele>
        <time>2011-03-12T12:55:03Z</time>
      </trkpt>
      <trkpt lat="42.683090" lon="-2.753470">
        <ele>626.948</ele>
        <time>2011-03-12T12:55:11Z</time>
      </trkpt>
      <trkpt lat="42.683060" lon="-2.753340">
        <ele>627.920</ele>
        <time>2011-03-12T12:55:19Z</time>
      </trkpt>
      <trkpt lat="42.683030" lon="-2.753210">
        <ele>629.380</ele>
        <time>2011-03-12T12:55:28Z</time>
      </trkpt>
      <trkpt lat="42.683000" lon="-2.753080">
        <ele>628.832</ele>
        <time>2011-03-12T12:55:36Z</time>
      </trkpt>
      <trkpt lat="42.682970" lon="-2.752960">
        <ele>629.332</ele>
        <time>2011-03-12T12:55:44Z</time>
      </trkpt>
      <trkpt lat="42.682930" lon="-2.752840">
        <ele>629.892</ele>
        <time>2011-03-12T12:55:51Z</time>
      </trkpt>
      <trkpt lat="42.682900" lon="-2.752720">
        <ele>630.311</ele>
        <time>2011-03-12T12:55:58Z</time>
      </trkpt>
      <trkpt lat="42.682870" lon="-2.752610">
        <ele>631.207</ele>
        <time>2011-03-12T12:56:05Z</time>
      </trkpt>
      <trkpt lat="42.682820" lon="-2.752510">
        <ele>631.285</ele>
        <time>2011-03-12T12:56:17Z</time>
      </trkpt>
      <trkpt lat="42.682790" lon="-2.752490">
        <ele>630.846</ele>
        <time>2011-03-12T12:57:17Z</time>
      </trkpt>
      <trkpt lat="42.682700" lon="-2.752430">
        <ele>632.225</ele>
        <time>2011-03-12T12:57:25Z</time>
      </trkpt>
      <trkpt lat="42.682610" lon="-2.752390">
        <ele>633.270</ele>
        <time>2011-03-12T12:57:33Z</time>
      </trkpt>
      <trkpt lat="42.682520" lon="-2.752360">
        <ele>633.692</ele>
        <time>2011-03-12T12:57:41Z</time>
      </trkpt>
      <trkpt lat="42.682420" lon="-2.752320">
        <ele>634.172</ele>
        <time>2011-03-12T12:57:49Z</time>
      </trkpt>
      <trkpt lat="42.682330" lon="-2.752300">
        <ele>634.174</ele>
        <time>2011-03-12T12:57:57Z</time>
      </trkpt>
      <trkpt lat="42.682230" lon="-2.752290">
        <ele>636.197</ele>
        <time>2011-03-12T12:58:05Z</time>
      </trkpt>
      <trkpt lat="42.682130" lon="-2.752300">
        <ele>637.523</ele>
        <time>2011-03-12T12:58:13Z</time>
      </trkpt>
      <trkpt lat="42.682040" lon="-2.752290">
        <ele>638.025</ele>
        <time>2011-03-12T12:58:21Z</time>
      </trkpt>
      <trkpt lat="42.681950" lon="-2.752260">
        <ele>638.507</ele>
        <time>2011-03-12T12:58:29Z</time>
      </trkpt>
      <trkpt lat="42.681860" lon="-2.752220">
        <ele>641.391</ele>
        <time>2011-03-12T12:58:37Z</time>
      </trkpt>
      <trkpt lat="42.681780" lon="-2.752160">
        <ele>642.312</ele>
        <time>2011-03-12T12:58:48Z</time>
      </trkpt>
      <trkpt lat="42.681700" lon="-2.752100">
        <ele>643.251</ele>
        <time>2011-03-12T12:58:58Z</time>
      </trkpt>
      <trkpt lat="42.681620" lon="-2.752030">
        <ele>643.766</ele>
        <time>2011-03-12T12:59:07Z</time>
      </trkpt>
      <trkpt lat="42.681540" lon="-2.751990">
        <ele>645.278</ele>
        <time>2011-03-12T12:59:15Z</time>
      </trkpt>
      <trkpt lat="42.681440" lon="-2.751970">
        <ele>646.118</ele>
        <time>2011-03-12T12:59:24Z</time>
      </trkpt>
      <trkpt lat="42.681340" lon="-2.751930">
        <ele>647.130</ele>
        <time>2011-03-12T12:59:32Z</time>
      </trkpt>
      <trkpt lat="42.681250" lon="-2.751930">
        <ele>648.115</ele>
        <time>2011-03-12T12:59:41Z</time>
      </trkpt>
      <trkpt lat="42.681150" lon="-2.751940">
        <ele>649.065</ele>
        <time>2011-03-12T12:59:49Z</time>
      </trkpt>
      <trkpt lat="42.681050" lon="-2.751950">
        <ele>649.511</ele>
        <time>2011-03-12T12:59:57Z</time>
      </trkpt>
      <trkpt lat="42.680950" lon="-2.751950">
        <ele>650.007</ele>
        <time>2011-03-12T13:00:05Z</time>
      </trkpt>
      <trkpt lat="42.680850" lon="-2.751970">
        <ele>650.513</ele>
        <time>2011-03-12T13:00:13Z</time>
      </trkpt>
      <trkpt lat="42.680760" lon="-2.751950">
        <ele>651.454</ele>
        <time>2011-03-12T13:00:21Z</time>
      </trkpt>
      <trkpt lat="42.680680" lon="-2.751890">
        <ele>651.993</ele>
        <time>2011-03-12T13:00:29Z</time>
      </trkpt>
      <trkpt lat="42.680610" lon="-2.751810">
        <ele>653.338</ele>
        <time>2011-03-12T13:00:36Z</time>
      </trkpt>
      <trkpt lat="42.680540" lon="-2.751730">
        <ele>653.830</ele>
        <time>2011-03-12T13:00:46Z</time>
      </trkpt>
      <trkpt lat="42.680460" lon="-2.751650">
        <ele>654.330</ele>
        <time>2011-03-12T13:00:55Z</time>
      </trkpt>
      <trkpt lat="42.680380" lon="-2.751580">
        <ele>654.842</ele>
        <time>2011-03-12T13:01:02Z</time>
      </trkpt>
      <trkpt lat="42.680300" lon="-2.751510">
        <ele>654.837</ele>
        <time>2011-03-12T13:01:10Z</time>
      </trkpt>
      <trkpt lat="42.680210" lon="-2.751460">
        <ele>655.749</ele>
        <time>2011-03-12T13:01:18Z</time>
      </trkpt>
      <trkpt lat="42.680120" lon="-2.751430">
        <ele>656.713</ele>
        <time>2011-03-12T13:01:26Z</time>
      </trkpt>
      <trkpt lat="42.680030" lon="-2.751420">
        <ele>658.607</ele>
        <time>2011-03-12T13:01:35Z</time>
      </trkpt>
      <trkpt lat="42.679940" lon="-2.751440">
        <ele>659.635</ele>
        <time>2011-03-12T13:01:44Z</time>
      </trkpt>
      <trkpt lat="42.679870" lon="-2.751370">
        <ele>662.046</ele>
        <time>2011-03-12T13:01:54Z</time>
      </trkpt>
      <trkpt lat="42.679880" lon="-2.751240">
        <ele>664.935</ele>
        <time>2011-03-12T13:02:06Z</time>
      </trkpt>
      <trkpt lat="42.679910" lon="-2.751130">
        <ele>665.810</ele>
        <time>2011-03-12T13:02:30Z</time>
      </trkpt>
      <trkpt lat="42.679950" lon="-2.751010">
        <ele>668.782</ele>
        <time>2011-03-12T13:02:43Z</time>
      </trkpt>
      <trkpt lat="42.680000" lon="-2.750900">
        <ele>670.792</ele>
        <time>2011-03-12T13:02:55Z</time>
      </trkpt>
      <trkpt lat="42.680040" lon="-2.750780">
        <ele>672.634</ele>
        <time>2011-03-12T13:03:07Z</time>
      </trkpt>
      <trkpt lat="42.680100" lon="-2.750680">
        <ele>675.094</ele>
        <time>2011-03-12T13:03:19Z</time>
      </trkpt>
      <trkpt lat="42.680170" lon="-2.750590">
        <ele>677.457</ele>
        <time>2011-03-12T13:03:30Z</time>
      </trkpt>
      <trkpt lat="42.680250" lon="-2.750520">
        <ele>678.822</ele>
        <time>2011-03-12T13:03:42Z</time>
      </trkpt>
      <trkpt lat="42.680320" lon="-2.750440">
        <ele>680.307</ele>
        <time>2011-03-12T13:03:57Z</time>
      </trkpt>
      <trkpt lat="42.680380" lon="-2.750340">
        <ele>682.281</ele>
        <time>2011-03-12T13:04:08Z</time>
      </trkpt>
      <trkpt lat="42.680390" lon="-2.750210">
        <ele>684.112</ele>
        <time>2011-03-12T13:04:18Z</time>
      </trkpt>
      <trkpt lat="42.680360" lon="-2.750100">
        <ele>685.161</ele>
        <time>2011-03-12T13:04:27Z</time>
      </trkpt>
      <trkpt lat="42.680300" lon="-2.750010">
        <ele>686.546</ele>
        <time>2011-03-12T13:04:36Z</time>
      </trkpt>
      <trkpt lat="42.680230" lon="-2.749930">
        <ele>687.018</ele>
        <time>2011-03-12T13:04:45Z</time>
      </trkpt>
      <trkpt lat="42.680150" lon="-2.749870">
        <ele>688.098</ele>
        <time>2011-03-12T13:04:55Z</time>
      </trkpt>
      <trkpt lat="42.680070" lon="-2.749820">
        <ele>691.320</ele>
        <time>2011-03-12T13:05:05Z</time>
      </trkpt>
      <trkpt lat="42.679970" lon="-2.749790">
        <ele>692.858</ele>
        <time>2011-03-12T13:05:15Z</time>
      </trkpt>
      <trkpt lat="42.679880" lon="-2.749740">
        <ele>694.752</ele>
        <time>2011-03-12T13:05:25Z</time>
      </trkpt>
      <trkpt lat="42.679800" lon="-2.749680">
        <ele>695.217</ele>
        <time>2011-03-12T13:05:35Z</time>
      </trkpt>
      <trkpt lat="42.679730" lon="-2.749590">
        <ele>697.107</ele>
        <time>2011-03-12T13:05:44Z</time>
      </trkpt>
      <trkpt lat="42.679670" lon="-2.749490">
        <ele>698.577</ele>
        <time>2011-03-12T13:05:53Z</time>
      </trkpt>
      <trkpt lat="42.679600" lon="-2.749410">
        <ele>700.078</ele>
        <time>2011-03-12T13:06:02Z</time>
      </trkpt>
      <trkpt lat="42.679510" lon="-2.749370">
        <ele>700.957</ele>
        <time>2011-03-12T13:06:10Z</time>
      </trkpt>
      <trkpt lat="42.679410" lon="-2.749350">
        <ele>700.912</ele>
        <time>2011-03-12T13:06:18Z</time>
      </trkpt>
      <trkpt lat="42.679320" lon="-2.749310">
        <ele>701.414</ele>
        <time>2011-03-12T13:06:26Z</time>
      </trkpt>
      <trkpt lat="42.679230" lon="-2.749260">
        <ele>700.954</ele>
        <time>2011-03-12T13:06:34Z</time>
      </trkpt>
      <trkpt lat="42.679150" lon="-2.749200">
        <ele>700.526</ele>
        <time>2011-03-12T13:06:41Z</time>
      </trkpt>
      <trkpt lat="42.679060" lon="-2.749120">
        <ele>700.561</ele>
        <time>2011-03-12T13:06:49Z</time>
      </trkpt>
      <trkpt lat="42.678990" lon="-2.749020">
        <ele>701.921</ele>
        <time>2011-03-12T13:06:57Z</time>
      </trkpt>
      <trkpt lat="42.678920" lon="-2.748940">
        <ele>702.913</ele>
        <time>2011-03-12T13:07:04Z</time>
      </trkpt>
      <trkpt lat="42.678850" lon="-2.748860">
        <ele>703.807</ele>
        <time>2011-03-12T13:07:11Z</time>
      </trkpt>
      <trkpt lat="42.678770" lon="-2.748780">
        <ele>704.818</ele>
        <time>2011-03-12T13:07:19Z</time>
      </trkpt>
      <trkpt lat="42.678690" lon="-2.748700">
        <ele>707.269</ele>
        <time>2011-03-12T13:07:27Z</time>
      </trkpt>
      <trkpt lat="42.678630" lon="-2.748600">
        <ele>708.188</ele>
        <time>2011-03-12T13:07:36Z</time>
      </trkpt>
      <trkpt lat="42.678590" lon="-2.748480">
        <ele>708.163</ele>
        <time>2011-03-12T13:07:44Z</time>
      </trkpt>
      <trkpt lat="42.678560" lon="-2.748370">
        <ele>709.695</ele>
        <time>2011-03-12T13:07:52Z</time>
      </trkpt>
      <trkpt lat="42.678510" lon="-2.748260">
        <ele>710.175</ele>
        <time>2011-03-12T13:08:00Z</time>
      </trkpt>
      <trkpt lat="42.678450" lon="-2.748160">
        <ele>710.597</ele>
        <time>2011-03-12T13:08:08Z</time>
      </trkpt>
      <trkpt lat="42.678390" lon="-2.748080">
        <ele>712.572</ele>
        <time>2011-03-12T13:08:16Z</time>
      </trkpt>
      <trkpt lat="42.678350" lon="-2.747990">
        <ele>713.413</ele>
        <time>2011-03-12T13:09:46Z</time>
      </trkpt>
      <trkpt lat="42.678270" lon="-2.747910">
        <ele>714.914</ele>
        <time>2011-03-12T13:09:58Z</time>
      </trkpt>
      <trkpt lat="42.678170" lon="-2.747840">
        <ele>715.907</ele>
        <time>2011-03-12T13:10:08Z</time>
      </trkpt>
      <trkpt lat="42.678080" lon="-2.747800">
        <ele>717.319</ele>
        <time>2011-03-12T13:10:17Z</time>
      </trkpt>
      <trkpt lat="42.677970" lon="-2.747770">
        <ele>719.230</ele>
        <time>2011-03-12T13:10:26Z</time>
      </trkpt>
      <trkpt lat="42.677890" lon="-2.747770">
        <ele>721.119</ele>
        <time>2011-03-12T13:10:35Z</time>
      </trkpt>
      <trkpt lat="42.677800" lon="-2.747750">
        <ele>723.094</ele>
        <time>2011-03-12T13:10:44Z</time>
      </trkpt>
      <trkpt lat="42.677700" lon="-2.747730">
        <ele>725.926</ele>
        <time>2011-03-12T13:10:54Z</time>
      </trkpt>
      <trkpt lat="42.677610" lon="-2.747720">
        <ele>726.946</ele>
        <time>2011-03-12T13:11:03Z</time>
      </trkpt>
      <trkpt lat="42.677490" lon="-2.747710">
        <ele>727.428</ele>
        <time>2011-03-12T13:11:12Z</time>
      </trkpt>
      <trkpt lat="42.677400" lon="-2.747730">
        <ele>728.469</ele>
        <time>2011-03-12T13:11:20Z</time>
      </trkpt>
      <trkpt lat="42.677320" lon="-2.747770">
        <ele>728.804</ele>
        <time>2011-03-12T13:11:28Z</time>
      </trkpt>
      <trkpt lat="42.677240" lon="-2.747810">
        <ele>730.324</ele>
        <time>2011-03-12T13:11:37Z</time>
      </trkpt>
      <trkpt lat="42.677160" lon="-2.747840">
        <ele>731.707</ele>
        <time>2011-03-12T13:11:46Z</time>
      </trkpt>
      <trkpt lat="42.677080" lon="-2.747850">
        <ele>733.648</ele>
        <time>2011-03-12T13:11:55Z</time>
      </trkpt>
      <trkpt lat="42.676980" lon="-2.747830">
        <ele>735.159</ele>
        <time>2011-03-12T13:12:04Z</time>
      </trkpt>
      <trkpt lat="42.676880" lon="-2.747820">
        <ele>735.568</ele>
        <time>2011-03-12T13:12:12Z</time>
      </trkpt>
      <trkpt lat="42.676790" lon="-2.747820">
        <ele>736.513</ele>
        <time>2011-03-12T13:12:20Z</time>
      </trkpt>
      <trkpt lat="42.676700" lon="-2.747820">
        <ele>738.035</ele>
        <time>2011-03-12T13:12:27Z</time>
      </trkpt>
      <trkpt lat="42.676590" lon="-2.747830">
        <ele>738.425</ele>
        <time>2011-03-12T13:12:35Z</time>
      </trkpt>
      <trkpt lat="42.676480" lon="-2.747830">
        <ele>739.957</ele>
        <time>2011-03-12T13:12:44Z</time>
      </trkpt>
      <trkpt lat="42.676390" lon="-2.747850">
        <ele>740.497</ele>
        <time>2011-03-12T13:12:52Z</time>
      </trkpt>
      <trkpt lat="42.676300" lon="-2.747870">
        <ele>741.823</ele>
        <time>2011-03-12T13:13:00Z</time>
      </trkpt>
      <trkpt lat="42.676210" lon="-2.747880">
        <ele>742.325</ele>
        <time>2011-03-12T13:13:08Z</time>
      </trkpt>
      <trkpt lat="42.676120" lon="-2.747880">
        <ele>743.207</ele>
        <time>2011-03-12T13:13:17Z</time>
      </trkpt>
      <trkpt lat="42.676030" lon="-2.747850">
        <ele>744.271</ele>
        <time>2011-03-12T13:13:26Z</time>
      </trkpt>
      <trkpt lat="42.675930" lon="-2.747830">
        <ele>744.252</ele>
        <time>2011-03-12T13:13:34Z</time>
      </trkpt>
      <trkpt lat="42.675830" lon="-2.747780">
        <ele>744.291</ele>
        <time>2011-03-12T13:13:42Z</time>
      </trkpt>
      <trkpt lat="42.675760" lon="-2.747700">
        <ele>745.166</ele>
        <time>2011-03-12T13:13:50Z</time>
      </trkpt>
      <trkpt lat="42.675720" lon="-2.747590">
        <ele>745.688</ele>
        <time>2011-03-12T13:13:58Z</time>
      </trkpt>
      <trkpt lat="42.675720" lon="-2.747470">
        <ele>748.038</ele>
        <time>2011-03-12T13:14:09Z</time>
      </trkpt>
      <trkpt lat="42.675710" lon="-2.747340">
        <ele>750.960</ele>
        <time>2011-03-12T13:14:19Z</time>
      </trkpt>
      <trkpt lat="42.675650" lon="-2.747240">
        <ele>752.479</ele>
        <time>2011-03-12T13:14:28Z</time>
      </trkpt>
      <trkpt lat="42.675580" lon="-2.747150">
        <ele>753.305</ele>
        <time>2011-03-12T13:14:37Z</time>
      </trkpt>
      <trkpt lat="42.675500" lon="-2.747060">
        <ele>754.325</ele>
        <time>2011-03-12T13:14:46Z</time>
      </trkpt>
      <trkpt lat="42.675390" lon="-2.746870">
        <ele>756.707</ele>
        <time>2011-03-12T13:15:05Z</time>
      </trkpt>
      <trkpt lat="42.675320" lon="-2.746780">
        <ele>757.669</ele>
        <time>2011-03-12T13:15:13Z</time>
      </trkpt>
      <trkpt lat="42.675270" lon="-2.746680">
        <ele>760.090</ele>
        <time>2011-03-12T13:15:22Z</time>
      </trkpt>
      <trkpt lat="42.675230" lon="-2.746590">
        <ele>761.539</ele>
        <time>2011-03-12T13:15:31Z</time>
      </trkpt>
      <trkpt lat="42.675190" lon="-2.746490">
        <ele>762.944</ele>
        <time>2011-03-12T13:15:40Z</time>
      </trkpt>
      <trkpt lat="42.675140" lon="-2.746390">
        <ele>764.986</ele>
        <time>2011-03-12T13:15:50Z</time>
      </trkpt>
      <trkpt lat="42.675090" lon="-2.746280">
        <ele>766.876</ele>
        <time>2011-03-12T13:16:01Z</time>
      </trkpt>
      <trkpt lat="42.675040" lon="-2.746170">
        <ele>767.848</ele>
        <time>2011-03-12T13:16:12Z</time>
      </trkpt>
      <trkpt lat="42.674980" lon="-2.746070">
        <ele>769.746</ele>
        <time>2011-03-12T13:16:23Z</time>
      </trkpt>
      <trkpt lat="42.674940" lon="-2.745960">
        <ele>771.188</ele>
        <time>2011-03-12T13:16:34Z</time>
      </trkpt>
      <trkpt lat="42.674880" lon="-2.745850">
        <ele>772.116</ele>
        <time>2011-03-12T13:16:44Z</time>
      </trkpt>
      <trkpt lat="42.674840" lon="-2.745740">
        <ele>774.507</ele>
        <time>2011-03-12T13:16:54Z</time>
      </trkpt>
      <trkpt lat="42.674800" lon="-2.745630">
        <ele>777.846</ele>
        <time>2011-03-12T13:17:04Z</time>
      </trkpt>
      <trkpt lat="42.674760" lon="-2.745520">
        <ele>779.367</ele>
        <time>2011-03-12T13:17:14Z</time>
      </trkpt>
      <trkpt lat="42.674710" lon="-2.745420">
        <ele>781.726</ele>
        <time>2011-03-12T13:17:24Z</time>
      </trkpt>
      <trkpt lat="42.674650" lon="-2.745320">
        <ele>783.621</ele>
        <time>2011-03-12T13:17:33Z</time>
      </trkpt>
      <trkpt lat="42.674580" lon="-2.745230">
        <ele>785.083</ele>
        <time>2011-03-12T13:17:44Z</time>
      </trkpt>
      <trkpt lat="42.674510" lon="-2.745160">
        <ele>786.583</ele>
        <time>2011-03-12T13:17:53Z</time>
      </trkpt>
      <trkpt lat="42.674440" lon="-2.745070">
        <ele>787.945</ele>
        <time>2011-03-12T13:18:03Z</time>
      </trkpt>
      <trkpt lat="42.674370" lon="-2.744980">
        <ele>789.959</ele>
        <time>2011-03-12T13:18:15Z</time>
      </trkpt>
      <trkpt lat="42.674300" lon="-2.744900">
        <ele>792.303</ele>
        <time>2011-03-12T13:18:27Z</time>
      </trkpt>
      <trkpt lat="42.674210" lon="-2.744850">
        <ele>793.723</ele>
        <time>2011-03-12T13:18:37Z</time>
      </trkpt>
      <trkpt lat="42.674110" lon="-2.744810">
        <ele>796.107</ele>
        <time>2011-03-12T13:18:47Z</time>
      </trkpt>
      <trkpt lat="42.674020" lon="-2.744800">
        <ele>796.697</ele>
        <time>2011-03-12T13:18:57Z</time>
      </trkpt>
      <trkpt lat="42.673920" lon="-2.744790">
        <ele>799.588</ele>
        <time>2011-03-12T13:19:07Z</time>
      </trkpt>
      <trkpt lat="42.673830" lon="-2.744780">
        <ele>800.947</ele>
        <time>2011-03-12T13:19:16Z</time>
      </trkpt>
      <trkpt lat="42.673730" lon="-2.744800">
        <ele>802.872</ele>
        <time>2011-03-12T13:19:26Z</time>
      </trkpt>
      <trkpt lat="42.673650" lon="-2.744840">
        <ele>804.394</ele>
        <time>2011-03-12T13:19:35Z</time>
      </trkpt>
      <trkpt lat="42.673570" lon="-2.744910">
        <ele>804.344</ele>
        <time>2011-03-12T13:19:44Z</time>
      </trkpt>
      <trkpt lat="42.673490" lon="-2.744990">
        <ele>805.316</ele>
        <time>2011-03-12T13:19:53Z</time>
      </trkpt>
      <trkpt lat="42.673410" lon="-2.745050">
        <ele>806.296</ele>
        <time>2011-03-12T13:20:01Z</time>
      </trkpt>
      <trkpt lat="42.673320" lon="-2.745100">
        <ele>806.231</ele>
        <time>2011-03-12T13:20:09Z</time>
      </trkpt>
      <trkpt lat="42.673240" lon="-2.745150">
        <ele>806.724</ele>
        <time>2011-03-12T13:20:17Z</time>
      </trkpt>
      <trkpt lat="42.673150" lon="-2.745200">
        <ele>806.707</ele>
        <time>2011-03-12T13:20:25Z</time>
      </trkpt>
      <trkpt lat="42.673070" lon="-2.745280">
        <ele>806.711</ele>
        <time>2011-03-12T13:20:33Z</time>
      </trkpt>
      <trkpt lat="42.673000" lon="-2.745370">
        <ele>807.772</ele>
        <time>2011-03-12T13:20:42Z</time>
      </trkpt>
      <trkpt lat="42.672960" lon="-2.745470">
        <ele>809.181</ele>
        <time>2011-03-12T13:20:51Z</time>
      </trkpt>
      <trkpt lat="42.672940" lon="-2.745600">
        <ele>811.016</ele>
        <time>2011-03-12T13:21:00Z</time>
      </trkpt>
      <trkpt lat="42.672920" lon="-2.745720">
        <ele>812.928</ele>
        <time>2011-03-12T13:21:09Z</time>
      </trkpt>
      <trkpt lat="42.672880" lon="-2.745830">
        <ele>813.488</ele>
        <time>2011-03-12T13:21:18Z</time>
      </trkpt>
      <trkpt lat="42.672820" lon="-2.745930">
        <ele>815.390</ele>
        <time>2011-03-12T13:21:27Z</time>
      </trkpt>
      <trkpt lat="42.672750" lon="-2.746010">
        <ele>816.355</ele>
        <time>2011-03-12T13:21:36Z</time>
      </trkpt>
      <trkpt lat="42.672660" lon="-2.746060">
        <ele>817.307</ele>
        <time>2011-03-12T13:21:45Z</time>
      </trkpt>
      <trkpt lat="42.672570" lon="-2.746100">
        <ele>818.717</ele>
        <time>2011-03-12T13:21:54Z</time>
      </trkpt>
      <trkpt lat="42.672480" lon="-2.746150">
        <ele>822.107</ele>
        <time>2011-03-12T13:22:04Z</time>
      </trkpt>
      <trkpt lat="42.672400" lon="-2.746230">
        <ele>823.037</ele>
        <time>2011-03-12T13:22:14Z</time>
      </trkpt>
      <trkpt lat="42.672330" lon="-2.746310">
        <ele>824.028</ele>
        <time>2011-03-12T13:22:23Z</time>
      </trkpt>
      <trkpt lat="42.672280" lon="-2.746420">
        <ele>824.997</ele>
        <time>2011-03-12T13:22:32Z</time>
      </trkpt>
      <trkpt lat="42.672230" lon="-2.746540">
        <ele>826.982</ele>
        <time>2011-03-12T13:22:47Z</time>
      </trkpt>
      <trkpt lat="42.672200" lon="-2.746660">
        <ele>828.394</ele>
        <time>2011-03-12T13:22:55Z</time>
      </trkpt>
      <trkpt lat="42.672190" lon="-2.746780">
        <ele>828.334</ele>
        <time>2011-03-12T13:23:03Z</time>
      </trkpt>
      <trkpt lat="42.672160" lon="-2.746910">
        <ele>828.386</ele>
        <time>2011-03-12T13:23:12Z</time>
      </trkpt>
      <trkpt lat="42.672110" lon="-2.747010">
        <ele>829.893</ele>
        <time>2011-03-12T13:23:21Z</time>
      </trkpt>
      <trkpt lat="42.672040" lon="-2.747110">
        <ele>832.765</ele>
        <time>2011-03-12T13:23:31Z</time>
      </trkpt>
      <trkpt lat="42.671980" lon="-2.747210">
        <ele>833.121</ele>
        <time>2011-03-12T13:23:39Z</time>
      </trkpt>
      <trkpt lat="42.671920" lon="-2.747300">
        <ele>835.007</ele>
        <time>2011-03-12T13:23:49Z</time>
      </trkpt>
      <trkpt lat="42.671850" lon="-2.747380">
        <ele>836.051</ele>
        <time>2011-03-12T13:23:59Z</time>
      </trkpt>
      <trkpt lat="42.671770" lon="-2.747440">
        <ele>839.872</ele>
        <time>2011-03-12T13:24:11Z</time>
      </trkpt>
      <trkpt lat="42.671680" lon="-2.747380">
        <ele>841.851</ele>
        <time>2011-03-12T13:24:25Z</time>
      </trkpt>
      <trkpt lat="42.671640" lon="-2.747270">
        <ele>843.796</ele>
        <time>2011-03-12T13:24:36Z</time>
      </trkpt>
      <trkpt lat="42.671590" lon="-2.747170">
        <ele>846.118</ele>
        <time>2011-03-12T13:24:47Z</time>
      </trkpt>
      <trkpt lat="42.671540" lon="-2.747070">
        <ele>847.598</ele>
        <time>2011-03-12T13:24:57Z</time>
      </trkpt>
      <trkpt lat="42.671510" lon="-2.746950">
        <ele>848.010</ele>
        <time>2011-03-12T13:25:09Z</time>
      </trkpt>
      <trkpt lat="42.671450" lon="-2.746840">
        <ele>849.066</ele>
        <time>2011-03-12T13:25:20Z</time>
      </trkpt>
      <trkpt lat="42.671370" lon="-2.746770">
        <ele>849.929</ele>
        <time>2011-03-12T13:25:30Z</time>
      </trkpt>
      <trkpt lat="42.671290" lon="-2.746850">
        <ele>852.321</ele>
        <time>2011-03-12T13:25:41Z</time>
      </trkpt>
      <trkpt lat="42.671270" lon="-2.746980">
        <ele>852.807</ele>
        <time>2011-03-12T13:25:52Z</time>
      </trkpt>
      <trkpt lat="42.671260" lon="-2.747110">
        <ele>853.878</ele>
        <time>2011-03-12T13:26:02Z</time>
      </trkpt>
      <trkpt lat="42.671240" lon="-2.747240">
        <ele>855.279</ele>
        <time>2011-03-12T13:26:12Z</time>
      </trkpt>
      <trkpt lat="42.671240" lon="-2.747370">
        <ele>856.228</ele>
        <time>2011-03-12T13:26:22Z</time>
      </trkpt>
      <trkpt lat="42.671220" lon="-2.747490">
        <ele>858.193</ele>
        <time>2011-03-12T13:26:32Z</time>
      </trkpt>
      <trkpt lat="42.671210" lon="-2.747620">
        <ele>859.655</ele>
        <time>2011-03-12T13:26:42Z</time>
      </trkpt>
      <trkpt lat="42.671190" lon="-2.747750">
        <ele>860.025</ele>
        <time>2011-03-12T13:26:52Z</time>
      </trkpt>
      <trkpt lat="42.671160" lon="-2.747870">
        <ele>861.057</ele>
        <time>2011-03-12T13:27:02Z</time>
      </trkpt>
      <trkpt lat="42.671110" lon="-2.747990">
        <ele>863.487</ele>
        <time>2011-03-12T13:27:12Z</time>
      </trkpt>
      <trkpt lat="42.671070" lon="-2.748100">
        <ele>865.342</ele>
        <time>2011-03-12T13:27:21Z</time>
      </trkpt>
      <trkpt lat="42.671050" lon="-2.748230">
        <ele>866.826</ele>
        <time>2011-03-12T13:27:31Z</time>
      </trkpt>
      <trkpt lat="42.671020" lon="-2.748350">
        <ele>867.707</ele>
        <time>2011-03-12T13:27:41Z</time>
      </trkpt>
      <trkpt lat="42.670960" lon="-2.748430">
        <ele>869.210</ele>
        <time>2011-03-12T13:27:53Z</time>
      </trkpt>
      <trkpt lat="42.670900" lon="-2.748500">
        <ele>870.691</ele>
        <time>2011-03-12T13:28:06Z</time>
      </trkpt>
      <trkpt lat="42.670810" lon="-2.748540">
        <ele>874.960</ele>
        <time>2011-03-12T13:28:22Z</time>
      </trkpt>
      <trkpt lat="42.670740" lon="-2.748500">
        <ele>878.895</ele>
        <time>2011-03-12T13:28:43Z</time>
      </trkpt>
      <trkpt lat="42.670680" lon="-2.748560">
        <ele>883.157</ele>
        <time>2011-03-12T13:29:16Z</time>
      </trkpt>
      <trkpt lat="42.670610" lon="-2.748560">
        <ele>882.687</ele>
        <time>2011-03-12T13:30:12Z</time>
      </trkpt>
      <trkpt lat="42.670640" lon="-2.748560">
        <ele>885.039</ele>
        <time>2011-03-12T13:31:47Z</time>
      </trkpt>
      <trkpt lat="42.670670" lon="-2.748530">
        <ele>885.578</ele>
        <time>2011-03-12T13:33:29Z</time>
      </trkpt>
      <trkpt lat="42.670650" lon="-2.748530">
        <ele>885.533</ele>
        <time>2011-03-12T13:37:43Z</time>
      </trkpt>
      <trkpt lat="42.670590" lon="-2.748620">
        <ele>884.126</ele>
        <time>2011-03-12T13:38:00Z</time>
      </trkpt>
      <trkpt lat="42.670520" lon="-2.748700">
        <ele>883.607</ele>
        <time>2011-03-12T13:38:09Z</time>
      </trkpt>
      <trkpt lat="42.670450" lon="-2.748770">
        <ele>881.769</ele>
        <time>2011-03-12T13:38:18Z</time>
      </trkpt>
      <trkpt lat="42.670380" lon="-2.748850">
        <ele>879.790</ele>
        <time>2011-03-12T13:38:28Z</time>
      </trkpt>
      <trkpt lat="42.670300" lon="-2.748920">
        <ele>876.859</ele>
        <time>2011-03-12T13:38:38Z</time>
      </trkpt>
      <trkpt lat="42.670220" lon="-2.749010">
        <ele>874.514</ele>
        <time>2011-03-12T13:38:48Z</time>
      </trkpt>
      <trkpt lat="42.670160" lon="-2.749110">
        <ele>873.046</ele>
        <time>2011-03-12T13:38:57Z</time>
      </trkpt>
      <trkpt lat="42.670140" lon="-2.749220">
        <ele>872.156</ele>
        <time>2011-03-12T13:39:05Z</time>
      </trkpt>
      <trkpt lat="42.670120" lon="-2.749340">
        <ele>869.288</ele>
        <time>2011-03-12T13:39:14Z</time>
      </trkpt>
      <trkpt lat="42.670110" lon="-2.749470">
        <ele>868.252</ele>
        <time>2011-03-12T13:39:23Z</time>
      </trkpt>
      <trkpt lat="42.670100" lon="-2.749600">
        <ele>867.253</ele>
        <time>2011-03-12T13:39:31Z</time>
      </trkpt>
      <trkpt lat="42.670100" lon="-2.749720">
        <ele>865.308</ele>
        <time>2011-03-12T13:39:39Z</time>
      </trkpt>
      <trkpt lat="42.670100" lon="-2.749850">
        <ele>863.907</ele>
        <time>2011-03-12T13:39:47Z</time>
      </trkpt>
      <trkpt lat="42.670100" lon="-2.749980">
        <ele>862.977</ele>
        <time>2011-03-12T13:39:55Z</time>
      </trkpt>
      <trkpt lat="42.670090" lon="-2.750110">
        <ele>861.098</ele>
        <time>2011-03-12T13:40:03Z</time>
      </trkpt>
      <trkpt lat="42.670080" lon="-2.750240">
        <ele>859.157</ele>
        <time>2011-03-12T13:40:11Z</time>
      </trkpt>
      <trkpt lat="42.670060" lon="-2.750380">
        <ele>857.682</ele>
        <time>2011-03-12T13:40:19Z</time>
      </trkpt>
      <trkpt lat="42.670000" lon="-2.750470">
        <ele>856.264</ele>
        <time>2011-03-12T13:40:27Z</time>
      </trkpt>
      <trkpt lat="42.669920" lon="-2.750520">
        <ele>855.214</ele>
        <time>2011-03-12T13:40:35Z</time>
      </trkpt>
      <trkpt lat="42.669830" lon="-2.750550">
        <ele>852.326</ele>
        <time>2011-03-12T13:40:43Z</time>
      </trkpt>
      <trkpt lat="42.669740" lon="-2.750570">
        <ele>850.429</ele>
        <time>2011-03-12T13:40:51Z</time>
      </trkpt>
      <trkpt lat="42.669650" lon="-2.750600">
        <ele>848.000</ele>
        <time>2011-03-12T13:40:59Z</time>
      </trkpt>
      <trkpt lat="42.669550" lon="-2.750590">
        <ele>847.520</ele>
        <time>2011-03-12T13:41:07Z</time>
      </trkpt>
      <trkpt lat="42.669480" lon="-2.750490">
        <ele>846.607</ele>
        <time>2011-03-12T13:41:15Z</time>
      </trkpt>
      <trkpt lat="42.669450" lon="-2.750370">
        <ele>846.114</ele>
        <time>2011-03-12T13:41:22Z</time>
      </trkpt>
      <trkpt lat="42.669440" lon="-2.750250">
        <ele>845.655</ele>
        <time>2011-03-12T13:41:29Z</time>
      </trkpt>
      <trkpt lat="42.669420" lon="-2.750120">
        <ele>845.664</ele>
        <time>2011-03-12T13:41:37Z</time>
      </trkpt>
      <trkpt lat="42.669400" lon="-2.749990">
        <ele>844.779</ele>
        <time>2011-03-12T13:41:45Z</time>
      </trkpt>
      <trkpt lat="42.669370" lon="-2.749870">
        <ele>844.261</ele>
        <time>2011-03-12T13:41:53Z</time>
      </trkpt>
      <trkpt lat="42.669300" lon="-2.749780">
        <ele>844.751</ele>
        <time>2011-03-12T13:42:01Z</time>
      </trkpt>
      <trkpt lat="42.669210" lon="-2.749720">
        <ele>845.133</ele>
        <time>2011-03-12T13:42:09Z</time>
      </trkpt>
      <trkpt lat="42.669140" lon="-2.749640">
        <ele>845.697</ele>
        <time>2011-03-12T13:42:18Z</time>
      </trkpt>
      <trkpt lat="42.669080" lon="-2.749530">
        <ele>846.623</ele>
        <time>2011-03-12T13:42:27Z</time>
      </trkpt>
      <trkpt lat="42.669050" lon="-2.749420">
        <ele>847.125</ele>
        <time>2011-03-12T13:42:37Z</time>
      </trkpt>
      <trkpt lat="42.669010" lon="-2.749310">
        <ele>848.507</ele>
        <time>2011-03-12T13:42:46Z</time>
      </trkpt>
      <trkpt lat="42.668960" lon="-2.749190">
        <ele>849.491</ele>
        <time>2011-03-12T13:42:56Z</time>
      </trkpt>
      <trkpt lat="42.668930" lon="-2.749070">
        <ele>851.962</ele>
        <time>2011-03-12T13:43:06Z</time>
      </trkpt>
      <trkpt lat="42.668890" lon="-2.748950">
        <ele>851.931</ele>
        <time>2011-03-12T13:43:16Z</time>
      </trkpt>
      <trkpt lat="42.668860" lon="-2.748830">
        <ele>853.836</ele>
        <time>2011-03-12T13:43:26Z</time>
      </trkpt>
      <trkpt lat="42.668850" lon="-2.748700">
        <ele>854.388</ele>
        <time>2011-03-12T13:43:35Z</time>
      </trkpt>
      <trkpt lat="42.668830" lon="-2.748580">
        <ele>855.228</ele>
        <time>2011-03-12T13:43:44Z</time>
      </trkpt>
      <trkpt lat="42.668810" lon="-2.748450">
        <ele>855.760</ele>
        <time>2011-03-12T13:43:53Z</time>
      </trkpt>
      <trkpt lat="42.668770" lon="-2.748330">
        <ele>857.289</ele>
        <time>2011-03-12T13:44:03Z</time>
      </trkpt>
      <trkpt lat="42.668700" lon="-2.748230">
        <ele>859.606</ele>
        <time>2011-03-12T13:44:14Z</time>
      </trkpt>
      <trkpt lat="42.668630" lon="-2.748170">
        <ele>862.426</ele>
        <time>2011-03-12T13:44:27Z</time>
      </trkpt>
      <trkpt lat="42.668550" lon="-2.748100">
        <ele>864.407</ele>
        <time>2011-03-12T13:44:41Z</time>
      </trkpt>
      <trkpt lat="42.668470" lon="-2.748070">
        <ele>866.320</ele>
        <time>2011-03-12T13:44:55Z</time>
      </trkpt>
      <trkpt lat="42.668380" lon="-2.748080">
        <ele>871.121</ele>
        <time>2011-03-12T13:45:14Z</time>
      </trkpt>
      <trkpt lat="42.668300" lon="-2.748090">
        <ele>875.960</ele>
        <time>2011-03-12T13:45:31Z</time>
      </trkpt>
      <trkpt lat="42.668210" lon="-2.748120">
        <ele>879.365</ele>
        <time>2011-03-12T13:45:51Z</time>
      </trkpt>
      <trkpt lat="42.668130" lon="-2.748120">
        <ele>882.667</ele>
        <time>2011-03-12T13:46:12Z</time>
      </trkpt>
      <trkpt lat="42.668050" lon="-2.748150">
        <ele>887.017</ele>
        <time>2011-03-12T13:46:33Z</time>
      </trkpt>
      <trkpt lat="42.667980" lon="-2.748230">
        <ele>889.359</ele>
        <time>2011-03-12T13:46:51Z</time>
      </trkpt>
      <trkpt lat="42.667920" lon="-2.748320">
        <ele>892.241</ele>
        <time>2011-03-12T13:47:07Z</time>
      </trkpt>
      <trkpt lat="42.667860" lon="-2.748430">
        <ele>893.781</ele>
        <time>2011-03-12T13:47:21Z</time>
      </trkpt>
      <trkpt lat="42.667810" lon="-2.748530">
        <ele>896.609</ele>
        <time>2011-03-12T13:47:36Z</time>
      </trkpt>
      <trkpt lat="42.667770" lon="-2.748650">
        <ele>899.007</ele>
        <time>2011-03-12T13:47:50Z</time>
      </trkpt>
      <trkpt lat="42.667710" lon="-2.748740">
        <ele>900.986</ele>
        <time>2011-03-12T13:48:03Z</time>
      </trkpt>
      <trkpt lat="42.667650" lon="-2.748830">
        <ele>902.877</ele>
        <time>2011-03-12T13:48:16Z</time>
      </trkpt>
      <trkpt lat="42.667600" lon="-2.748930">
        <ele>904.776</ele>
        <time>2011-03-12T13:48:29Z</time>
      </trkpt>
      <trkpt lat="42.667550" lon="-2.749040">
        <ele>907.121</ele>
        <time>2011-03-12T13:48:42Z</time>
      </trkpt>
      <trkpt lat="42.667490" lon="-2.749130">
        <ele>909.683</ele>
        <time>2011-03-12T13:48:54Z</time>
      </trkpt>
      <trkpt lat="42.667430" lon="-2.749230">
        <ele>913.473</ele>
        <time>2011-03-12T13:49:08Z</time>
      </trkpt>
      <trkpt lat="42.667370" lon="-2.749320">
        <ele>915.355</ele>
        <time>2011-03-12T13:49:22Z</time>
      </trkpt>
      <trkpt lat="42.667310" lon="-2.749410">
        <ele>917.241</ele>
        <time>2011-03-12T13:49:35Z</time>
      </trkpt>
      <trkpt lat="42.667250" lon="-2.749510">
        <ele>920.681</ele>
        <time>2011-03-12T13:49:48Z</time>
      </trkpt>
      <trkpt lat="42.667190" lon="-2.749600">
        <ele>922.109</ele>
        <time>2011-03-12T13:50:00Z</time>
      </trkpt>
      <trkpt lat="42.667140" lon="-2.749700">
        <ele>923.507</ele>
        <time>2011-03-12T13:50:12Z</time>
      </trkpt>
      <trkpt lat="42.667090" lon="-2.749810">
        <ele>925.456</ele>
        <time>2011-03-12T13:50:24Z</time>
      </trkpt>
      <trkpt lat="42.667040" lon="-2.749910">
        <ele>927.887</ele>
        <time>2011-03-12T13:50:35Z</time>
      </trkpt>
      <trkpt lat="42.666980" lon="-2.750000">
        <ele>929.266</ele>
        <time>2011-03-12T13:50:46Z</time>
      </trkpt>
      <trkpt lat="42.666920" lon="-2.750100">
        <ele>931.781</ele>
        <time>2011-03-12T13:50:58Z</time>
      </trkpt>
      <trkpt lat="42.666860" lon="-2.750190">
        <ele>934.133</ele>
        <time>2011-03-12T13:51:12Z</time>
      </trkpt>
      <trkpt lat="42.666800" lon="-2.750290">
        <ele>936.593</ele>
        <time>2011-03-12T13:51:25Z</time>
      </trkpt>
      <trkpt lat="42.666740" lon="-2.750380">
        <ele>937.975</ele>
        <time>2011-03-12T13:51:37Z</time>
      </trkpt>
      <trkpt lat="42.666680" lon="-2.750480">
        <ele>940.328</ele>
        <time>2011-03-12T13:51:50Z</time>
      </trkpt>
      <trkpt lat="42.666620" lon="-2.750570">
        <ele>942.289</ele>
        <time>2011-03-12T13:52:02Z</time>
      </trkpt>
      <trkpt lat="42.666560" lon="-2.750660">
        <ele>944.117</ele>
        <time>2011-03-12T13:52:13Z</time>
      </trkpt>
      <trkpt lat="42.666500" lon="-2.750750">
        <ele>945.607</ele>
        <time>2011-03-12T13:52:24Z</time>
      </trkpt>
      <trkpt lat="42.666430" lon="-2.750830">
        <ele>948.034</ele>
        <time>2011-03-12T13:52:37Z</time>
      </trkpt>
      <trkpt lat="42.666370" lon="-2.750930">
        <ele>949.995</ele>
        <time>2011-03-12T13:52:49Z</time>
      </trkpt>
      <trkpt lat="42.666300" lon="-2.751020">
        <ele>951.414</ele>
        <time>2011-03-12T13:53:01Z</time>
      </trkpt>
      <trkpt lat="42.666240" lon="-2.751120">
        <ele>954.259</ele>
        <time>2011-03-12T13:53:14Z</time>
      </trkpt>
      <trkpt lat="42.666180" lon="-2.751210">
        <ele>955.761</ele>
        <time>2011-03-12T13:53:27Z</time>
      </trkpt>
      <trkpt lat="42.666110" lon="-2.751300">
        <ele>957.131</ele>
        <time>2011-03-12T13:53:41Z</time>
      </trkpt>
      <trkpt lat="42.666050" lon="-2.751390">
        <ele>961.033</ele>
        <time>2011-03-12T13:53:56Z</time>
      </trkpt>
      <trkpt lat="42.665990" lon="-2.751480">
        <ele>963.475</ele>
        <time>2011-03-12T13:54:11Z</time>
      </trkpt>
      <trkpt lat="42.665930" lon="-2.751570">
        <ele>966.328</ele>
        <time>2011-03-12T13:54:25Z</time>
      </trkpt>
      <trkpt lat="42.665880" lon="-2.751650">
        <ele>968.720</ele>
        <time>2011-03-12T13:54:41Z</time>
      </trkpt>
      <trkpt lat="42.665810" lon="-2.751740">
        <ele>971.607</ele>
        <time>2011-03-12T13:54:56Z</time>
      </trkpt>
      <trkpt lat="42.665730" lon="-2.751790">
        <ele>973.079</ele>
        <time>2011-03-12T13:55:21Z</time>
      </trkpt>
      <trkpt lat="42.665680" lon="-2.751910">
        <ele>973.540</ele>
        <time>2011-03-12T13:55:35Z</time>
      </trkpt>
      <trkpt lat="42.665630" lon="-2.752020">
        <ele>974.989</ele>
        <time>2011-03-12T13:55:45Z</time>
      </trkpt>
      <trkpt lat="42.665580" lon="-2.752120">
        <ele>974.084</ele>
        <time>2011-03-12T13:55:55Z</time>
      </trkpt>
      <trkpt lat="42.665520" lon="-2.752080">
        <ele>974.956</ele>
        <time>2011-03-12T13:56:07Z</time>
      </trkpt>
      <trkpt lat="42.665520" lon="-2.751940">
        <ele>977.816</ele>
        <time>2011-03-12T13:56:17Z</time>
      </trkpt>
      <trkpt lat="42.665510" lon="-2.751810">
        <ele>975.478</ele>
        <time>2011-03-12T13:56:26Z</time>
      </trkpt>
      <trkpt lat="42.665530" lon="-2.751680">
        <ele>975.995</ele>
        <time>2011-03-12T13:56:35Z</time>
      </trkpt>
      <trkpt lat="42.665530" lon="-2.751540">
        <ele>976.449</ele>
        <time>2011-03-12T13:56:44Z</time>
      </trkpt>
      <trkpt lat="42.665530" lon="-2.751410">
        <ele>976.823</ele>
        <time>2011-03-12T13:56:53Z</time>
      </trkpt>
      <trkpt lat="42.665520" lon="-2.751290">
        <ele>976.807</ele>
        <time>2011-03-12T13:57:01Z</time>
      </trkpt>
      <trkpt lat="42.665520" lon="-2.751160">
        <ele>977.311</ele>
        <time>2011-03-12T13:57:09Z</time>
      </trkpt>
      <trkpt lat="42.665520" lon="-2.751040">
        <ele>977.822</ele>
        <time>2011-03-12T13:57:17Z</time>
      </trkpt>
      <trkpt lat="42.665500" lon="-2.750910">
        <ele>977.851</ele>
        <time>2011-03-12T13:57:25Z</time>
      </trkpt>
      <trkpt lat="42.665500" lon="-2.750770">
        <ele>977.396</ele>
        <time>2011-03-12T13:57:33Z</time>
      </trkpt>
      <trkpt lat="42.665500" lon="-2.750640">
        <ele>977.338</ele>
        <time>2011-03-12T13:57:40Z</time>
      </trkpt>
      <trkpt lat="42.665510" lon="-2.750520">
        <ele>976.858</ele>
        <time>2011-03-12T13:57:47Z</time>
      </trkpt>
      <trkpt lat="42.665530" lon="-2.750390">
        <ele>976.490</ele>
        <time>2011-03-12T13:57:55Z</time>
      </trkpt>
      <trkpt lat="42.665540" lon="-2.750260">
        <ele>975.981</ele>
        <time>2011-03-12T13:58:02Z</time>
      </trkpt>
      <trkpt lat="42.665560" lon="-2.750130">
        <ele>975.461</ele>
        <time>2011-03-12T13:58:10Z</time>
      </trkpt>
      <trkpt lat="42.665580" lon="-2.750010">
        <ele>975.417</ele>
        <time>2011-03-12T13:58:18Z</time>
      </trkpt>
      <trkpt lat="42.665610" lon="-2.749880">
        <ele>974.407</ele>
        <time>2011-03-12T13:58:26Z</time>
      </trkpt>
      <trkpt lat="42.665650" lon="-2.749760">
        <ele>974.040</ele>
        <time>2011-03-12T13:58:33Z</time>
      </trkpt>
      <trkpt lat="42.665670" lon="-2.749630">
        <ele>973.521</ele>
        <time>2011-03-12T13:58:40Z</time>
      </trkpt>
      <trkpt lat="42.665700" lon="-2.749510">
        <ele>973.040</ele>
        <time>2011-03-12T13:58:47Z</time>
      </trkpt>
      <trkpt lat="42.665730" lon="-2.749390">
        <ele>973.075</ele>
        <time>2011-03-12T13:58:54Z</time>
      </trkpt>
      <trkpt lat="42.665740" lon="-2.749260">
        <ele>973.097</ele>
        <time>2011-03-12T13:59:01Z</time>
      </trkpt>
      <trkpt lat="42.665760" lon="-2.749130">
        <ele>972.557</ele>
        <time>2011-03-12T13:59:08Z</time>
      </trkpt>
      <trkpt lat="42.665770" lon="-2.749010">
        <ele>972.559</ele>
        <time>2011-03-12T13:59:15Z</time>
      </trkpt>
      <trkpt lat="42.665770" lon="-2.748890">
        <ele>972.527</ele>
        <time>2011-03-12T13:59:22Z</time>
      </trkpt>
      <trkpt lat="42.665770" lon="-2.748760">
        <ele>973.068</ele>
        <time>2011-03-12T13:59:29Z</time>
      </trkpt>
      <trkpt lat="42.665770" lon="-2.748640">
        <ele>972.514</ele>
        <time>2011-03-12T13:59:36Z</time>
      </trkpt>
      <trkpt lat="42.665770" lon="-2.748510">
        <ele>973.007</ele>
        <time>2011-03-12T13:59:44Z</time>
      </trkpt>
      <trkpt lat="42.665760" lon="-2.748380">
        <ele>973.524</ele>
        <time>2011-03-12T13:59:52Z</time>
      </trkpt>
      <trkpt lat="42.665750" lon="-2.748260">
        <ele>973.595</ele>
        <time>2011-03-12T14:00:00Z</time>
      </trkpt>
      <trkpt lat="42.665740" lon="-2.748140">
        <ele>973.514</ele>
        <time>2011-03-12T14:00:08Z</time>
      </trkpt>
      <trkpt lat="42.665730" lon="-2.748020">
        <ele>974.499</ele>
        <time>2011-03-12T14:00:17Z</time>
      </trkpt>
      <trkpt lat="42.665720" lon="-2.747880">
        <ele>974.991</ele>
        <time>2011-03-12T14:00:26Z</time>
      </trkpt>
      <trkpt lat="42.665700" lon="-2.747750">
        <ele>975.991</ele>
        <time>2011-03-12T14:00:34Z</time>
      </trkpt>
      <trkpt lat="42.665670" lon="-2.747630">
        <ele>977.393</ele>
        <time>2011-03-12T14:00:42Z</time>
      </trkpt>
      <trkpt lat="42.665640" lon="-2.747510">
        <ele>979.254</ele>
        <time>2011-03-12T14:00:50Z</time>
      </trkpt>
      <trkpt lat="42.665600" lon="-2.747390">
        <ele>980.256</ele>
        <time>2011-03-12T14:00:59Z</time>
      </trkpt>
      <trkpt lat="42.665550" lon="-2.747280">
        <ele>983.111</ele>
        <time>2011-03-12T14:01:08Z</time>
      </trkpt>
      <trkpt lat="42.665510" lon="-2.747160">
        <ele>982.107</ele>
        <time>2011-03-12T14:01:17Z</time>
      </trkpt>
      <trkpt lat="42.665480" lon="-2.747040">
        <ele>984.087</ele>
        <time>2011-03-12T14:01:26Z</time>
      </trkpt>
      <trkpt lat="42.665440" lon="-2.746920">
        <ele>984.528</ele>
        <time>2011-03-12T14:01:35Z</time>
      </trkpt>
      <trkpt lat="42.665400" lon="-2.746810">
        <ele>985.597</ele>
        <time>2011-03-12T14:01:44Z</time>
      </trkpt>
      <trkpt lat="42.665370" lon="-2.746690">
        <ele>986.942</ele>
        <time>2011-03-12T14:01:53Z</time>
      </trkpt>
      <trkpt lat="42.665330" lon="-2.746580">
        <ele>987.484</ele>
        <time>2011-03-12T14:02:02Z</time>
      </trkpt>
      <trkpt lat="42.665290" lon="-2.746460">
        <ele>989.374</ele>
        <time>2011-03-12T14:02:11Z</time>
      </trkpt>
      <trkpt lat="42.665260" lon="-2.746340">
        <ele>990.376</ele>
        <time>2011-03-12T14:02:20Z</time>
      </trkpt>
      <trkpt lat="42.665230" lon="-2.746220">
        <ele>991.365</ele>
        <time>2011-03-12T14:02:29Z</time>
      </trkpt>
      <trkpt lat="42.665190" lon="-2.746110">
        <ele>991.768</ele>
        <time>2011-03-12T14:02:38Z</time>
      </trkpt>
      <trkpt lat="42.665150" lon="-2.745990">
        <ele>993.214</ele>
        <time>2011-03-12T14:02:47Z</time>
      </trkpt>
      <trkpt lat="42.665100" lon="-2.745880">
        <ele>994.607</ele>
        <time>2011-03-12T14:02:56Z</time>
      </trkpt>
      <trkpt lat="42.665060" lon="-2.745770">
        <ele>995.118</ele>
        <time>2011-03-12T14:03:05Z</time>
      </trkpt>
      <trkpt lat="42.665030" lon="-2.745640">
        <ele>997.579</ele>
        <time>2011-03-12T14:03:15Z</time>
      </trkpt>
      <trkpt lat="42.665010" lon="-2.745520">
        <ele>999.098</ele>
        <time>2011-03-12T14:03:24Z</time>
      </trkpt>
      <trkpt lat="42.664980" lon="-2.745400">
        <ele>1000.453</ele>
        <time>2011-03-12T14:03:33Z</time>
      </trkpt>
      <trkpt lat="42.664960" lon="-2.745270">
        <ele>1000.915</ele>
        <time>2011-03-12T14:03:42Z</time>
      </trkpt>
      <trkpt lat="42.664940" lon="-2.745150">
        <ele>1002.815</ele>
        <time>2011-03-12T14:03:51Z</time>
      </trkpt>
      <trkpt lat="42.664930" lon="-2.745010">
        <ele>1004.227</ele>
        <time>2011-03-12T14:04:00Z</time>
      </trkpt>
      <trkpt lat="42.664910" lon="-2.744890">
        <ele>1005.268</ele>
        <time>2011-03-12T14:04:08Z</time>
      </trkpt>
      <trkpt lat="42.664900" lon="-2.744760">
        <ele>1006.142</ele>
        <time>2011-03-12T14:04:16Z</time>
      </trkpt>
      <trkpt lat="42.664890" lon="-2.744630">
        <ele>1006.626</ele>
        <time>2011-03-12T14:04:24Z</time>
      </trkpt>
      <trkpt lat="42.664870" lon="-2.744510">
        <ele>1008.107</ele>
        <time>2011-03-12T14:04:32Z</time>
      </trkpt>
      <trkpt lat="42.664830" lon="-2.744390">
        <ele>1009.028</ele>
        <time>2011-03-12T14:04:41Z</time>
      </trkpt>
      <trkpt lat="42.664800" lon="-2.744270">
        <ele>1010.089</ele>
        <time>2011-03-12T14:04:49Z</time>
      </trkpt>
      <trkpt lat="42.664770" lon="-2.744140">
        <ele>1010.518</ele>
        <time>2011-03-12T14:04:57Z</time>
      </trkpt>
      <trkpt lat="42.664750" lon="-2.744010">
        <ele>1011.413</ele>
        <time>2011-03-12T14:05:05Z</time>
      </trkpt>
      <trkpt lat="42.664730" lon="-2.743880">
        <ele>1012.415</ele>
        <time>2011-03-12T14:05:13Z</time>
      </trkpt>
      <trkpt lat="42.664720" lon="-2.743750">
        <ele>1012.965</ele>
        <time>2011-03-12T14:05:21Z</time>
      </trkpt>
      <trkpt lat="42.664720" lon="-2.743610">
        <ele>1012.957</ele>
        <time>2011-03-12T14:05:29Z</time>
      </trkpt>
      <trkpt lat="42.664740" lon="-2.743460">
        <ele>1013.418</ele>
        <time>2011-03-12T14:05:37Z</time>
      </trkpt>
      <trkpt lat="42.664730" lon="-2.743340">
        <ele>1013.998</ele>
        <time>2011-03-12T14:05:45Z</time>
      </trkpt>
      <trkpt lat="42.664710" lon="-2.743210">
        <ele>1014.317</ele>
        <time>2011-03-12T14:05:53Z</time>
      </trkpt>
      <trkpt lat="42.664701" lon="-2.743061">
        <ele>1014.307</ele>
        <time>2011-03-12T14:06:01Z</time>
      </trkpt>
      <trkpt lat="42.664682" lon="-2.742933">
        <ele>1015.313</ele>
        <time>2011-03-12T14:06:09Z</time>
      </trkpt>
      <trkpt lat="42.664691" lon="-2.742787">
        <ele>1015.354</ele>
        <time>2011-03-12T14:06:17Z</time>
      </trkpt>
      <trkpt lat="42.664677" lon="-2.742659">
        <ele>1016.763</ele>
        <time>2011-03-12T14:06:25Z</time>
      </trkpt>
      <trkpt lat="42.664677" lon="-2.742537">
        <ele>1016.758</ele>
        <time>2011-03-12T14:06:33Z</time>
      </trkpt>
      <trkpt lat="42.664654" lon="-2.742415">
        <ele>1017.280</ele>
        <time>2011-03-12T14:06:41Z</time>
      </trkpt>
      <trkpt lat="42.664658" lon="-2.742281">
        <ele>1018.670</ele>
        <time>2011-03-12T14:06:49Z</time>
      </trkpt>
      <trkpt lat="42.664649" lon="-2.742159">
        <ele>1019.692</ele>
        <time>2011-03-12T14:06:57Z</time>
      </trkpt>
      <trkpt lat="42.664644" lon="-2.742024">
        <ele>1020.149</ele>
        <time>2011-03-12T14:07:05Z</time>
      </trkpt>
      <trkpt lat="42.664644" lon="-2.741890">
        <ele>1019.602</ele>
        <time>2011-03-12T14:07:13Z</time>
      </trkpt>
      <trkpt lat="42.664640" lon="-2.741760">
        <ele>1021.022</ele>
        <time>2011-03-12T14:07:21Z</time>
      </trkpt>
      <trkpt lat="42.664620" lon="-2.741630">
        <ele>1022.007</ele>
        <time>2011-03-12T14:07:29Z</time>
      </trkpt>
      <trkpt lat="42.664630" lon="-2.741490">
        <ele>1022.586</ele>
        <time>2011-03-12T14:07:37Z</time>
      </trkpt>
      <trkpt lat="42.664611" lon="-2.741347">
        <ele>1022.097</ele>
        <time>2011-03-12T14:07:44Z</time>
      </trkpt>
      <trkpt lat="42.664615" lon="-2.741207">
        <ele>1022.546</ele>
        <time>2011-03-12T14:07:51Z</time>
      </trkpt>
      <trkpt lat="42.664615" lon="-2.741091">
        <ele>1022.581</ele>
        <time>2011-03-12T14:07:58Z</time>
      </trkpt>
      <trkpt lat="42.664620" lon="-2.740980">
        <ele>1023.593</ele>
        <time>2011-03-12T14:08:06Z</time>
      </trkpt>
      <trkpt lat="42.664560" lon="-2.740880">
        <ele>1024.963</ele>
        <time>2011-03-12T14:08:15Z</time>
      </trkpt>
      <trkpt lat="42.664520" lon="-2.740770">
        <ele>1025.915</ele>
        <time>2011-03-12T14:08:23Z</time>
      </trkpt>
      <trkpt lat="42.664497" lon="-2.740707">
        <ele>1026.427</ele>
        <time>2011-03-12T14:08:31Z</time>
      </trkpt>
      <trkpt lat="42.664474" lon="-2.740652">
        <ele>1026.468</ele>
        <time>2011-03-12T14:08:39Z</time>
      </trkpt>
      <trkpt lat="42.664470" lon="-2.740660">
        <ele>1026.814</ele>
        <time>2011-03-12T14:09:13Z</time>
      </trkpt>
      <trkpt lat="42.664460" lon="-2.740650">
        <ele>1028.307</ele>
        <time>2011-03-12T14:14:37Z</time>
      </trkpt>
      <trkpt lat="42.664470" lon="-2.740630">
        <ele>1028.364</ele>
        <time>2011-03-12T14:16:20Z</time>
      </trkpt>
      <trkpt lat="42.664480" lon="-2.740500">
        <ele>1028.395</ele>
        <time>2011-03-12T14:16:32Z</time>
      </trkpt>
      <trkpt lat="42.664480" lon="-2.740360">
        <ele>1028.894</ele>
        <time>2011-03-12T14:16:40Z</time>
      </trkpt>
      <trkpt lat="42.664470" lon="-2.740230">
        <ele>1029.269</ele>
        <time>2011-03-12T14:16:47Z</time>
      </trkpt>
      <trkpt lat="42.664450" lon="-2.740090">
        <ele>1029.211</ele>
        <time>2011-03-12T14:16:54Z</time>
      </trkpt>
      <trkpt lat="42.664430" lon="-2.739950">
        <ele>1029.791</ele>
        <time>2011-03-12T14:17:01Z</time>
      </trkpt>
      <trkpt lat="42.664410" lon="-2.739820">
        <ele>1030.213</ele>
        <time>2011-03-12T14:17:08Z</time>
      </trkpt>
      <trkpt lat="42.664400" lon="-2.739690">
        <ele>1030.728</ele>
        <time>2011-03-12T14:17:15Z</time>
      </trkpt>
      <trkpt lat="42.664390" lon="-2.739570">
        <ele>1031.189</ele>
        <time>2011-03-12T14:17:22Z</time>
      </trkpt>
      <trkpt lat="42.664350" lon="-2.739440">
        <ele>1032.117</ele>
        <time>2011-03-12T14:17:29Z</time>
      </trkpt>
      <trkpt lat="42.664310" lon="-2.739320">
        <ele>1032.107</ele>
        <time>2011-03-12T14:17:35Z</time>
      </trkpt>
      <trkpt lat="42.664270" lon="-2.739220">
        <ele>1032.164</ele>
        <time>2011-03-12T14:17:41Z</time>
      </trkpt>
      <trkpt lat="42.664220" lon="-2.739100">
        <ele>1032.635</ele>
        <time>2011-03-12T14:17:47Z</time>
      </trkpt>
      <trkpt lat="42.664150" lon="-2.739000">
        <ele>1032.644</ele>
        <time>2011-03-12T14:17:53Z</time>
      </trkpt>
      <trkpt lat="42.664060" lon="-2.738900">
        <ele>1033.169</ele>
        <time>2011-03-12T14:17:59Z</time>
      </trkpt>
      <trkpt lat="42.663990" lon="-2.738810">
        <ele>1033.521</ele>
        <time>2011-03-12T14:18:05Z</time>
      </trkpt>
      <trkpt lat="42.663920" lon="-2.738720">
        <ele>1034.521</ele>
        <time>2011-03-12T14:18:11Z</time>
      </trkpt>
      <trkpt lat="42.663850" lon="-2.738620">
        <ele>1035.513</ele>
        <time>2011-03-12T14:18:17Z</time>
      </trkpt>
      <trkpt lat="42.663790" lon="-2.738540">
        <ele>1036.453</ele>
        <time>2011-03-12T14:18:23Z</time>
      </trkpt>
      <trkpt lat="42.663710" lon="-2.738440">
        <ele>1037.404</ele>
        <time>2011-03-12T14:18:30Z</time>
      </trkpt>
      <trkpt lat="42.663660" lon="-2.738340">
        <ele>1038.814</ele>
        <time>2011-03-12T14:18:36Z</time>
      </trkpt>
      <trkpt lat="42.663590" lon="-2.738230">
        <ele>1039.807</ele>
        <time>2011-03-12T14:18:43Z</time>
      </trkpt>
      <trkpt lat="42.663540" lon="-2.738130">
        <ele>1040.367</ele>
        <time>2011-03-12T14:18:49Z</time>
      </trkpt>
      <trkpt lat="42.663490" lon="-2.738010">
        <ele>1040.868</ele>
        <time>2011-03-12T14:18:56Z</time>
      </trkpt>
      <trkpt lat="42.663440" lon="-2.737900">
        <ele>1041.727</ele>
        <time>2011-03-12T14:19:02Z</time>
      </trkpt>
      <trkpt lat="42.663380" lon="-2.737800">
        <ele>1042.262</ele>
        <time>2011-03-12T14:19:08Z</time>
      </trkpt>
      <trkpt lat="42.663330" lon="-2.737680">
        <ele>1042.214</ele>
        <time>2011-03-12T14:19:14Z</time>
      </trkpt>
      <trkpt lat="42.663300" lon="-2.737560">
        <ele>1044.164</ele>
        <time>2011-03-12T14:19:21Z</time>
      </trkpt>
      <trkpt lat="42.663260" lon="-2.737440">
        <ele>1045.196</ele>
        <time>2011-03-12T14:19:28Z</time>
      </trkpt>
      <trkpt lat="42.663220" lon="-2.737320">
        <ele>1047.066</ele>
        <time>2011-03-12T14:19:35Z</time>
      </trkpt>
      <trkpt lat="42.663180" lon="-2.737210">
        <ele>1048.029</ele>
        <time>2011-03-12T14:19:42Z</time>
      </trkpt>
      <trkpt lat="42.663130" lon="-2.737100">
        <ele>1049.921</ele>
        <time>2011-03-12T14:19:49Z</time>
      </trkpt>
      <trkpt lat="42.663080" lon="-2.736990">
        <ele>1050.407</ele>
        <time>2011-03-12T14:19:56Z</time>
      </trkpt>
      <trkpt lat="42.663010" lon="-2.736890">
        <ele>1050.458</ele>
        <time>2011-03-12T14:20:03Z</time>
      </trkpt>
      <trkpt lat="42.662984" lon="-2.736839">
        <ele>1050.989</ele>
        <time>2011-03-12T14:20:11Z</time>
      </trkpt>
      <trkpt lat="42.663011" lon="-2.736803">
        <ele>1052.318</ele>
        <time>2011-03-12T14:22:02Z</time>
      </trkpt>
      <trkpt lat="42.663000" lon="-2.736770">
        <ele>1052.373</ele>
        <time>2011-03-12T14:23:08Z</time>
      </trkpt>
      <trkpt lat="42.663020" lon="-2.736770">
        <ele>1052.825</ele>
        <time>2011-03-12T14:29:04Z</time>
      </trkpt>
      <trkpt lat="42.663010" lon="-2.736780">
        <ele>1052.885</ele>
        <time>2011-03-12T14:30:13Z</time>
      </trkpt>
      <trkpt lat="42.663030" lon="-2.736770">
        <ele>1054.767</ele>
        <time>2011-03-12T14:40:40Z</time>
      </trkpt>
      <trkpt lat="42.663110" lon="-2.736720">
        <ele>1054.285</ele>
        <time>2011-03-12T14:41:11Z</time>
      </trkpt>
      <trkpt lat="42.663178" lon="-2.736735">
        <ele>1052.889</ele>
        <time>2011-03-12T14:41:22Z</time>
      </trkpt>
      <trkpt lat="42.663268" lon="-2.736679">
        <ele>1050.917</ele>
        <time>2011-03-12T14:41:33Z</time>
      </trkpt>
      <trkpt lat="42.663340" lon="-2.736550">
        <ele>1048.907</ele>
        <time>2011-03-12T14:41:42Z</time>
      </trkpt>
      <trkpt lat="42.663370" lon="-2.736430">
        <ele>1047.090</ele>
        <time>2011-03-12T14:41:51Z</time>
      </trkpt>
      <trkpt lat="42.663410" lon="-2.736310">
        <ele>1046.041</ele>
        <time>2011-03-12T14:42:01Z</time>
      </trkpt>
      <trkpt lat="42.663410" lon="-2.736180">
        <ele>1044.190</ele>
        <time>2011-03-12T14:42:08Z</time>
      </trkpt>
      <trkpt lat="42.663406" lon="-2.736093">
        <ele>1043.675</ele>
        <time>2011-03-12T14:42:16Z</time>
      </trkpt>
      <trkpt lat="42.663437" lon="-2.736038">
        <ele>1043.677</ele>
        <time>2011-03-12T14:42:27Z</time>
      </trkpt>
      <trkpt lat="42.663490" lon="-2.735980">
        <ele>1044.187</ele>
        <time>2011-03-12T14:42:35Z</time>
      </trkpt>
      <trkpt lat="42.663540" lon="-2.735860">
        <ele>1043.629</ele>
        <time>2011-03-12T14:42:43Z</time>
      </trkpt>
      <trkpt lat="42.663570" lon="-2.735720">
        <ele>1043.629</ele>
        <time>2011-03-12T14:42:51Z</time>
      </trkpt>
      <trkpt lat="42.663600" lon="-2.735590">
        <ele>1043.200</ele>
        <time>2011-03-12T14:42:58Z</time>
      </trkpt>
      <trkpt lat="42.663620" lon="-2.735460">
        <ele>1042.720</ele>
        <time>2011-03-12T14:43:05Z</time>
      </trkpt>
      <trkpt lat="42.663670" lon="-2.735340">
        <ele>1042.207</ele>
        <time>2011-03-12T14:43:12Z</time>
      </trkpt>
      <trkpt lat="42.663700" lon="-2.735220">
        <ele>1041.794</ele>
        <time>2011-03-12T14:43:19Z</time>
      </trkpt>
      <trkpt lat="42.663730" lon="-2.735090">
        <ele>1040.365</ele>
        <time>2011-03-12T14:43:26Z</time>
      </trkpt>
      <trkpt lat="42.663770" lon="-2.734980">
        <ele>1039.354</ele>
        <time>2011-03-12T14:43:33Z</time>
      </trkpt>
      <trkpt lat="42.663820" lon="-2.734860">
        <ele>1039.399</ele>
        <time>2011-03-12T14:43:40Z</time>
      </trkpt>
      <trkpt lat="42.663850" lon="-2.734730">
        <ele>1038.871</ele>
        <time>2011-03-12T14:43:47Z</time>
      </trkpt>
      <trkpt lat="42.663890" lon="-2.734600">
        <ele>1038.441</ele>
        <time>2011-03-12T14:43:55Z</time>
      </trkpt>
      <trkpt lat="42.663940" lon="-2.734480">
        <ele>1036.933</ele>
        <time>2011-03-12T14:44:02Z</time>
      </trkpt>
      <trkpt lat="42.663930" lon="-2.734370">
        <ele>1035.599</ele>
        <time>2011-03-12T14:44:10Z</time>
      </trkpt>
      <trkpt lat="42.663920" lon="-2.734250">
        <ele>1034.007</ele>
        <time>2011-03-12T14:44:17Z</time>
      </trkpt>
      <trkpt lat="42.663950" lon="-2.734120">
        <ele>1031.627</ele>
        <time>2011-03-12T14:44:26Z</time>
      </trkpt>
      <trkpt lat="42.663980" lon="-2.734000">
        <ele>1030.707</ele>
        <time>2011-03-12T14:44:33Z</time>
      </trkpt>
      <trkpt lat="42.664010" lon="-2.733880">
        <ele>1028.321</ele>
        <time>2011-03-12T14:44:40Z</time>
      </trkpt>
      <trkpt lat="42.664020" lon="-2.733760">
        <ele>1025.962</ele>
        <time>2011-03-12T14:44:47Z</time>
      </trkpt>
      <trkpt lat="42.664060" lon="-2.733630">
        <ele>1022.561</ele>
        <time>2011-03-12T14:44:55Z</time>
      </trkpt>
      <trkpt lat="42.664110" lon="-2.733530">
        <ele>1020.686</ele>
        <time>2011-03-12T14:45:02Z</time>
      </trkpt>
      <trkpt lat="42.664140" lon="-2.733420">
        <ele>1017.778</ele>
        <time>2011-03-12T14:45:09Z</time>
      </trkpt>
      <trkpt lat="42.664160" lon="-2.733290">
        <ele>1016.748</ele>
        <time>2011-03-12T14:45:17Z</time>
      </trkpt>
      <trkpt lat="42.664180" lon="-2.733170">
        <ele>1015.360</ele>
        <time>2011-03-12T14:45:27Z</time>
      </trkpt>
      <trkpt lat="42.664180" lon="-2.733050">
        <ele>1011.423</ele>
        <time>2011-03-12T14:45:36Z</time>
      </trkpt>
      <trkpt lat="42.664180" lon="-2.732930">
        <ele>1009.083</ele>
        <time>2011-03-12T14:45:48Z</time>
      </trkpt>
      <trkpt lat="42.664150" lon="-2.732800">
        <ele>1009.511</ele>
        <time>2011-03-12T14:45:57Z</time>
      </trkpt>
      <trkpt lat="42.664110" lon="-2.732700">
        <ele>1010.007</ele>
        <time>2011-03-12T14:46:07Z</time>
      </trkpt>
      <trkpt lat="42.664110" lon="-2.732570">
        <ele>1008.164</ele>
        <time>2011-03-12T14:46:15Z</time>
      </trkpt>
      <trkpt lat="42.664150" lon="-2.732460">
        <ele>1006.175</ele>
        <time>2011-03-12T14:46:23Z</time>
      </trkpt>
      <trkpt lat="42.664200" lon="-2.732350">
        <ele>1004.254</ele>
        <time>2011-03-12T14:46:31Z</time>
      </trkpt>
      <trkpt lat="42.664250" lon="-2.732240">
        <ele>1002.339</ele>
        <time>2011-03-12T14:46:39Z</time>
      </trkpt>
      <trkpt lat="42.664290" lon="-2.732130">
        <ele>999.981</ele>
        <time>2011-03-12T14:46:47Z</time>
      </trkpt>
      <trkpt lat="42.664320" lon="-2.732010">
        <ele>998.591</ele>
        <time>2011-03-12T14:46:55Z</time>
      </trkpt>
      <trkpt lat="42.664350" lon="-2.731900">
        <ele>995.653</ele>
        <time>2011-03-12T14:47:04Z</time>
      </trkpt>
      <trkpt lat="42.664380" lon="-2.731770">
        <ele>994.168</ele>
        <time>2011-03-12T14:47:12Z</time>
      </trkpt>
      <trkpt lat="42.664420" lon="-2.731660">
        <ele>993.242</ele>
        <time>2011-03-12T14:47:20Z</time>
      </trkpt>
      <trkpt lat="42.664450" lon="-2.731550">
        <ele>990.326</ele>
        <time>2011-03-12T14:47:27Z</time>
      </trkpt>
      <trkpt lat="42.664470" lon="-2.731410">
        <ele>986.507</ele>
        <time>2011-03-12T14:47:35Z</time>
      </trkpt>
      <trkpt lat="42.664480" lon="-2.731290">
        <ele>985.518</ele>
        <time>2011-03-12T14:47:42Z</time>
      </trkpt>
      <trkpt lat="42.664490" lon="-2.731150">
        <ele>984.049</ele>
        <time>2011-03-12T14:47:50Z</time>
      </trkpt>
      <trkpt lat="42.664510" lon="-2.731030">
        <ele>980.218</ele>
        <time>2011-03-12T14:47:57Z</time>
      </trkpt>
      <trkpt lat="42.664520" lon="-2.730920">
        <ele>977.883</ele>
        <time>2011-03-12T14:48:05Z</time>
      </trkpt>
      <trkpt lat="42.664540" lon="-2.730800">
        <ele>975.955</ele>
        <time>2011-03-12T14:48:14Z</time>
      </trkpt>
      <trkpt lat="42.664550" lon="-2.730710">
        <ele>973.515</ele>
        <time>2011-03-12T14:48:32Z</time>
      </trkpt>
      <trkpt lat="42.664570" lon="-2.730600">
        <ele>973.067</ele>
        <time>2011-03-12T14:48:57Z</time>
      </trkpt>
      <trkpt lat="42.664600" lon="-2.730490">
        <ele>971.169</ele>
        <time>2011-03-12T14:49:07Z</time>
      </trkpt>
      <trkpt lat="42.664620" lon="-2.730370">
        <ele>968.704</ele>
        <time>2011-03-12T14:49:17Z</time>
      </trkpt>
      <trkpt lat="42.664620" lon="-2.730250">
        <ele>966.724</ele>
        <time>2011-03-12T14:49:27Z</time>
      </trkpt>
      <trkpt lat="42.664680" lon="-2.730140">
        <ele>964.307</ele>
        <time>2011-03-12T14:49:38Z</time>
      </trkpt>
      <trkpt lat="42.664720" lon="-2.730050">
        <ele>961.588</ele>
        <time>2011-03-12T14:49:49Z</time>
      </trkpt>
      <trkpt lat="42.664800" lon="-2.729980">
        <ele>958.179</ele>
        <time>2011-03-12T14:49:59Z</time>
      </trkpt>
      <trkpt lat="42.664860" lon="-2.729890">
        <ele>956.238</ele>
        <time>2011-03-12T14:50:08Z</time>
      </trkpt>
      <trkpt lat="42.664940" lon="-2.729830">
        <ele>952.893</ele>
        <time>2011-03-12T14:50:18Z</time>
      </trkpt>
      <trkpt lat="42.665010" lon="-2.729740">
        <ele>951.495</ele>
        <time>2011-03-12T14:50:28Z</time>
      </trkpt>
      <trkpt lat="42.665080" lon="-2.729650">
        <ele>947.585</ele>
        <time>2011-03-12T14:50:38Z</time>
      </trkpt>
      <trkpt lat="42.665110" lon="-2.729540">
        <ele>945.157</ele>
        <time>2011-03-12T14:50:48Z</time>
      </trkpt>
      <trkpt lat="42.665190" lon="-2.729480">
        <ele>942.253</ele>
        <time>2011-03-12T14:50:58Z</time>
      </trkpt>
      <trkpt lat="42.665260" lon="-2.729410">
        <ele>939.304</ele>
        <time>2011-03-12T14:51:09Z</time>
      </trkpt>
      <trkpt lat="42.665330" lon="-2.729330">
        <ele>934.514</ele>
        <time>2011-03-12T14:51:20Z</time>
      </trkpt>
      <trkpt lat="42.665400" lon="-2.729250">
        <ele>931.207</ele>
        <time>2011-03-12T14:51:32Z</time>
      </trkpt>
      <trkpt lat="42.665480" lon="-2.729200">
        <ele>927.377</ele>
        <time>2011-03-12T14:51:43Z</time>
      </trkpt>
      <trkpt lat="42.665520" lon="-2.729090">
        <ele>924.918</ele>
        <time>2011-03-12T14:51:55Z</time>
      </trkpt>
      <trkpt lat="42.665590" lon="-2.729030">
        <ele>920.667</ele>
        <time>2011-03-12T14:52:07Z</time>
      </trkpt>
      <trkpt lat="42.665670" lon="-2.728980">
        <ele>918.762</ele>
        <time>2011-03-12T14:52:20Z</time>
      </trkpt>
      <trkpt lat="42.665770" lon="-2.728950">
        <ele>914.324</ele>
        <time>2011-03-12T14:52:31Z</time>
      </trkpt>
      <trkpt lat="42.665860" lon="-2.728930">
        <ele>911.084</ele>
        <time>2011-03-12T14:52:41Z</time>
      </trkpt>
      <trkpt lat="42.665950" lon="-2.728890">
        <ele>908.146</ele>
        <time>2011-03-12T14:52:51Z</time>
      </trkpt>
      <trkpt lat="42.666040" lon="-2.728890">
        <ele>906.259</ele>
        <time>2011-03-12T14:53:04Z</time>
      </trkpt>
      <trkpt lat="42.666120" lon="-2.728830">
        <ele>901.803</ele>
        <time>2011-03-12T14:53:21Z</time>
      </trkpt>
      <trkpt lat="42.666170" lon="-2.728830">
        <ele>899.023</ele>
        <time>2011-03-12T14:54:06Z</time>
      </trkpt>
      <trkpt lat="42.666210" lon="-2.728800">
        <ele>896.607</ele>
        <time>2011-03-12T14:56:24Z</time>
      </trkpt>
      <trkpt lat="42.666340" lon="-2.728600">
        <ele>890.857</ele>
        <time>2011-03-12T14:56:49Z</time>
      </trkpt>
      <trkpt lat="42.666360" lon="-2.728430">
        <ele>886.058</ele>
        <time>2011-03-12T14:57:05Z</time>
      </trkpt>
      <trkpt lat="42.666380" lon="-2.728280">
        <ele>882.667</ele>
        <time>2011-03-12T14:57:15Z</time>
      </trkpt>
      <trkpt lat="42.666370" lon="-2.728110">
        <ele>880.772</ele>
        <time>2011-03-12T14:57:27Z</time>
      </trkpt>
      <trkpt lat="42.666310" lon="-2.727960">
        <ele>876.494</ele>
        <time>2011-03-12T14:57:37Z</time>
      </trkpt>
      <trkpt lat="42.666270" lon="-2.727860">
        <ele>875.444</ele>
        <time>2011-03-12T14:57:51Z</time>
      </trkpt>
      <trkpt lat="42.666290" lon="-2.727710">
        <ele>874.546</ele>
        <time>2011-03-12T14:58:01Z</time>
      </trkpt>
      <trkpt lat="42.666270" lon="-2.727550">
        <ele>873.096</ele>
        <time>2011-03-12T14:58:09Z</time>
      </trkpt>
      <trkpt lat="42.666400" lon="-2.727300">
        <ele>874.031</ele>
        <time>2011-03-12T14:58:27Z</time>
      </trkpt>
      <trkpt lat="42.666420" lon="-2.727160">
        <ele>873.024</ele>
        <time>2011-03-12T14:58:35Z</time>
      </trkpt>
      <trkpt lat="42.666440" lon="-2.727020">
        <ele>872.507</ele>
        <time>2011-03-12T14:58:42Z</time>
      </trkpt>
      <trkpt lat="42.666450" lon="-2.726890">
        <ele>871.631</ele>
        <time>2011-03-12T14:58:49Z</time>
      </trkpt>
      <trkpt lat="42.666440" lon="-2.726750">
        <ele>871.632</ele>
        <time>2011-03-12T14:58:57Z</time>
      </trkpt>
      <trkpt lat="42.666430" lon="-2.726610">
        <ele>871.151</ele>
        <time>2011-03-12T14:59:05Z</time>
      </trkpt>
      <trkpt lat="42.666420" lon="-2.726470">
        <ele>871.166</ele>
        <time>2011-03-12T14:59:13Z</time>
      </trkpt>
      <trkpt lat="42.666400" lon="-2.726350">
        <ele>869.718</ele>
        <time>2011-03-12T14:59:21Z</time>
      </trkpt>
      <trkpt lat="42.666410" lon="-2.726240">
        <ele>869.218</ele>
        <time>2011-03-12T15:00:14Z</time>
      </trkpt>
      <trkpt lat="42.666400" lon="-2.726120">
        <ele>867.280</ele>
        <time>2011-03-12T15:01:12Z</time>
      </trkpt>
      <trkpt lat="42.666380" lon="-2.725980">
        <ele>867.279</ele>
        <time>2011-03-12T15:01:19Z</time>
      </trkpt>
      <trkpt lat="42.666390" lon="-2.725860">
        <ele>866.305</ele>
        <time>2011-03-12T15:01:27Z</time>
      </trkpt>
      <trkpt lat="42.666430" lon="-2.725750">
        <ele>865.825</ele>
        <time>2011-03-12T15:01:39Z</time>
      </trkpt>
      <trkpt lat="42.666470" lon="-2.725620">
        <ele>865.307</ele>
        <time>2011-03-12T15:01:46Z</time>
      </trkpt>
      <trkpt lat="42.666530" lon="-2.725520">
        <ele>864.469</ele>
        <time>2011-03-12T15:01:53Z</time>
      </trkpt>
      <trkpt lat="42.666580" lon="-2.725420">
        <ele>864.440</ele>
        <time>2011-03-12T15:01:59Z</time>
      </trkpt>
      <trkpt lat="42.666650" lon="-2.725350">
        <ele>864.419</ele>
        <time>2011-03-12T15:02:07Z</time>
      </trkpt>
      <trkpt lat="42.666750" lon="-2.725280">
        <ele>863.944</ele>
        <time>2011-03-12T15:02:15Z</time>
      </trkpt>
      <trkpt lat="42.666850" lon="-2.725240">
        <ele>863.916</ele>
        <time>2011-03-12T15:02:22Z</time>
      </trkpt>
      <trkpt lat="42.666940" lon="-2.725200">
        <ele>863.936</ele>
        <time>2011-03-12T15:02:29Z</time>
      </trkpt>
      <trkpt lat="42.667030" lon="-2.725180">
        <ele>864.838</ele>
        <time>2011-03-12T15:02:36Z</time>
      </trkpt>
      <trkpt lat="42.667130" lon="-2.725140">
        <ele>864.495</ele>
        <time>2011-03-12T15:02:43Z</time>
      </trkpt>
      <trkpt lat="42.667210" lon="-2.725080">
        <ele>862.449</ele>
        <time>2011-03-12T15:02:50Z</time>
      </trkpt>
      <trkpt lat="42.667310" lon="-2.725030">
        <ele>862.023</ele>
        <time>2011-03-12T15:02:57Z</time>
      </trkpt>
      <trkpt lat="42.667400" lon="-2.724980">
        <ele>862.007</ele>
        <time>2011-03-12T15:03:04Z</time>
      </trkpt>
      <trkpt lat="42.667490" lon="-2.724920">
        <ele>861.021</ele>
        <time>2011-03-12T15:03:11Z</time>
      </trkpt>
      <trkpt lat="42.667580" lon="-2.724860">
        <ele>860.552</ele>
        <time>2011-03-12T15:03:18Z</time>
      </trkpt>
      <trkpt lat="42.667670" lon="-2.724810">
        <ele>860.011</ele>
        <time>2011-03-12T15:03:25Z</time>
      </trkpt>
      <trkpt lat="42.667770" lon="-2.724780">
        <ele>859.646</ele>
        <time>2011-03-12T15:03:32Z</time>
      </trkpt>
      <trkpt lat="42.667870" lon="-2.724730">
        <ele>859.118</ele>
        <time>2011-03-12T15:03:39Z</time>
      </trkpt>
      <trkpt lat="42.667970" lon="-2.724710">
        <ele>858.198</ele>
        <time>2011-03-12T15:03:46Z</time>
      </trkpt>
      <trkpt lat="42.668050" lon="-2.724690">
        <ele>857.610</ele>
        <time>2011-03-12T15:03:53Z</time>
      </trkpt>
      <trkpt lat="42.668150" lon="-2.724670">
        <ele>857.675</ele>
        <time>2011-03-12T15:04:01Z</time>
      </trkpt>
      <trkpt lat="42.668240" lon="-2.724640">
        <ele>855.728</ele>
        <time>2011-03-12T15:04:09Z</time>
      </trkpt>
      <trkpt lat="42.668340" lon="-2.724650">
        <ele>854.320</ele>
        <time>2011-03-12T15:04:17Z</time>
      </trkpt>
      <trkpt lat="42.668430" lon="-2.724630">
        <ele>852.807</ele>
        <time>2011-03-12T15:04:24Z</time>
      </trkpt>
      <trkpt lat="42.668520" lon="-2.724590">
        <ele>850.499</ele>
        <time>2011-03-12T15:04:31Z</time>
      </trkpt>
      <trkpt lat="42.668610" lon="-2.724570">
        <ele>848.080</ele>
        <time>2011-03-12T15:04:37Z</time>
      </trkpt>
      <trkpt lat="42.668710" lon="-2.724550">
        <ele>846.659</ele>
        <time>2011-03-12T15:04:44Z</time>
      </trkpt>
      <trkpt lat="42.668810" lon="-2.724570">
        <ele>845.174</ele>
        <time>2011-03-12T15:04:51Z</time>
      </trkpt>
      <trkpt lat="42.668900" lon="-2.724550">
        <ele>842.766</ele>
        <time>2011-03-12T15:04:58Z</time>
      </trkpt>
      <trkpt lat="42.668990" lon="-2.724520">
        <ele>841.846</ele>
        <time>2011-03-12T15:05:05Z</time>
      </trkpt>
      <trkpt lat="42.669090" lon="-2.724510">
        <ele>837.928</ele>
        <time>2011-03-12T15:05:12Z</time>
      </trkpt>
      <trkpt lat="42.669180" lon="-2.724540">
        <ele>836.577</ele>
        <time>2011-03-12T15:05:19Z</time>
      </trkpt>
      <trkpt lat="42.669280" lon="-2.724560">
        <ele>836.061</ele>
        <time>2011-03-12T15:05:26Z</time>
      </trkpt>
      <trkpt lat="42.669380" lon="-2.724560">
        <ele>834.127</ele>
        <time>2011-03-12T15:05:33Z</time>
      </trkpt>
      <trkpt lat="42.669470" lon="-2.724570">
        <ele>831.707</ele>
        <time>2011-03-12T15:05:40Z</time>
      </trkpt>
      <trkpt lat="42.669560" lon="-2.724600">
        <ele>830.279</ele>
        <time>2011-03-12T15:05:47Z</time>
      </trkpt>
      <trkpt lat="42.669650" lon="-2.724610">
        <ele>828.390</ele>
        <time>2011-03-12T15:05:54Z</time>
      </trkpt>
      <trkpt lat="42.669830" lon="-2.724570">
        <ele>824.959</ele>
        <time>2011-03-12T15:06:08Z</time>
      </trkpt>
      <trkpt lat="42.669930" lon="-2.724550">
        <ele>823.584</ele>
        <time>2011-03-12T15:06:15Z</time>
      </trkpt>
      <trkpt lat="42.670020" lon="-2.724520">
        <ele>822.186</ele>
        <time>2011-03-12T15:06:22Z</time>
      </trkpt>
      <trkpt lat="42.670120" lon="-2.724490">
        <ele>821.646</ele>
        <time>2011-03-12T15:06:29Z</time>
      </trkpt>
      <trkpt lat="42.670230" lon="-2.724500">
        <ele>821.168</ele>
        <time>2011-03-12T15:06:36Z</time>
      </trkpt>
      <trkpt lat="42.670320" lon="-2.724510">
        <ele>818.747</ele>
        <time>2011-03-12T15:06:43Z</time>
      </trkpt>
      <trkpt lat="42.670420" lon="-2.724500">
        <ele>816.829</ele>
        <time>2011-03-12T15:06:50Z</time>
      </trkpt>
      <trkpt lat="42.670510" lon="-2.724490">
        <ele>815.321</ele>
        <time>2011-03-12T15:06:57Z</time>
      </trkpt>
      <trkpt lat="42.670620" lon="-2.724470">
        <ele>813.407</ele>
        <time>2011-03-12T15:07:05Z</time>
      </trkpt>
      <trkpt lat="42.670710" lon="-2.724480">
        <ele>812.956</ele>
        <time>2011-03-12T15:07:12Z</time>
      </trkpt>
      <trkpt lat="42.670800" lon="-2.724520">
        <ele>812.437</ele>
        <time>2011-03-12T15:07:19Z</time>
      </trkpt>
      <trkpt lat="42.670890" lon="-2.724570">
        <ele>811.596</ele>
        <time>2011-03-12T15:07:26Z</time>
      </trkpt>
      <trkpt lat="42.670990" lon="-2.724590">
        <ele>809.691</ele>
        <time>2011-03-12T15:07:32Z</time>
      </trkpt>
      <trkpt lat="42.671090" lon="-2.724630">
        <ele>808.663</ele>
        <time>2011-03-12T15:07:39Z</time>
      </trkpt>
      <trkpt lat="42.671160" lon="-2.724690">
        <ele>808.623</ele>
        <time>2011-03-12T15:07:45Z</time>
      </trkpt>
      <trkpt lat="42.671230" lon="-2.724770">
        <ele>808.615</ele>
        <time>2011-03-12T15:07:51Z</time>
      </trkpt>
      <trkpt lat="42.671320" lon="-2.724850">
        <ele>809.122</ele>
        <time>2011-03-12T15:07:58Z</time>
      </trkpt>
      <trkpt lat="42.671390" lon="-2.724910">
        <ele>809.162</ele>
        <time>2011-03-12T15:08:04Z</time>
      </trkpt>
      <trkpt lat="42.671470" lon="-2.724990">
        <ele>809.108</ele>
        <time>2011-03-12T15:08:11Z</time>
      </trkpt>
      <trkpt lat="42.671550" lon="-2.725060">
        <ele>808.607</ele>
        <time>2011-03-12T15:08:18Z</time>
      </trkpt>
      <trkpt lat="42.671640" lon="-2.725120">
        <ele>808.144</ele>
        <time>2011-03-12T15:08:25Z</time>
      </trkpt>
      <trkpt lat="42.671740" lon="-2.725170">
        <ele>806.725</ele>
        <time>2011-03-12T15:08:32Z</time>
      </trkpt>
      <trkpt lat="42.671840" lon="-2.725200">
        <ele>804.864</ele>
        <time>2011-03-12T15:08:39Z</time>
      </trkpt>
      <trkpt lat="42.671930" lon="-2.725260">
        <ele>803.399</ele>
        <time>2011-03-12T15:08:46Z</time>
      </trkpt>
      <trkpt lat="42.672010" lon="-2.725350">
        <ele>802.451</ele>
        <time>2011-03-12T15:08:53Z</time>
      </trkpt>
      <trkpt lat="42.672070" lon="-2.725470">
        <ele>802.491</ele>
        <time>2011-03-12T15:09:00Z</time>
      </trkpt>
      <trkpt lat="42.672130" lon="-2.725590">
        <ele>801.493</ele>
        <time>2011-03-12T15:09:07Z</time>
      </trkpt>
      <trkpt lat="42.672190" lon="-2.725670">
        <ele>799.983</ele>
        <time>2011-03-12T15:09:13Z</time>
      </trkpt>
      <trkpt lat="42.672280" lon="-2.725760">
        <ele>798.525</ele>
        <time>2011-03-12T15:09:20Z</time>
      </trkpt>
      <trkpt lat="42.672340" lon="-2.725850">
        <ele>798.017</ele>
        <time>2011-03-12T15:09:27Z</time>
      </trkpt>
      <trkpt lat="42.672390" lon="-2.725950">
        <ele>797.507</ele>
        <time>2011-03-12T15:09:33Z</time>
      </trkpt>
      <trkpt lat="42.672460" lon="-2.726050">
        <ele>797.180</ele>
        <time>2011-03-12T15:09:39Z</time>
      </trkpt>
      <trkpt lat="42.672520" lon="-2.726160">
        <ele>796.651</ele>
        <time>2011-03-12T15:09:46Z</time>
      </trkpt>
      <trkpt lat="42.672590" lon="-2.726260">
        <ele>796.620</ele>
        <time>2011-03-12T15:09:53Z</time>
      </trkpt>
      <trkpt lat="42.672670" lon="-2.726330">
        <ele>796.185</ele>
        <time>2011-03-12T15:09:59Z</time>
      </trkpt>
      <trkpt lat="42.672750" lon="-2.726370">
        <ele>795.237</ele>
        <time>2011-03-12T15:10:05Z</time>
      </trkpt>
      <trkpt lat="42.672850" lon="-2.726410">
        <ele>794.747</ele>
        <time>2011-03-12T15:10:12Z</time>
      </trkpt>
      <trkpt lat="42.672940" lon="-2.726460">
        <ele>793.229</ele>
        <time>2011-03-12T15:10:19Z</time>
      </trkpt>
      <trkpt lat="42.673040" lon="-2.726480">
        <ele>791.899</ele>
        <time>2011-03-12T15:10:27Z</time>
      </trkpt>
      <trkpt lat="42.673110" lon="-2.726440">
        <ele>791.807</ele>
        <time>2011-03-12T15:10:35Z</time>
      </trkpt>
      <trkpt lat="42.673190" lon="-2.726370">
        <ele>790.827</ele>
        <time>2011-03-12T15:10:42Z</time>
      </trkpt>
      <trkpt lat="42.673280" lon="-2.726330">
        <ele>788.907</ele>
        <time>2011-03-12T15:10:49Z</time>
      </trkpt>
      <trkpt lat="42.673370" lon="-2.726290">
        <ele>787.941</ele>
        <time>2011-03-12T15:10:57Z</time>
      </trkpt>
      <trkpt lat="42.673450" lon="-2.726220">
        <ele>787.052</ele>
        <time>2011-03-12T15:11:06Z</time>
      </trkpt>
      <trkpt lat="42.673511" lon="-2.726148">
        <ele>786.541</ele>
        <time>2011-03-12T15:11:14Z</time>
      </trkpt>
      <trkpt lat="42.673520" lon="-2.726020">
        <ele>785.016</ele>
        <time>2011-03-12T15:11:21Z</time>
      </trkpt>
      <trkpt lat="42.673520" lon="-2.725890">
        <ele>784.118</ele>
        <time>2011-03-12T15:11:28Z</time>
      </trkpt>
      <trkpt lat="42.673520" lon="-2.725770">
        <ele>780.398</ele>
        <time>2011-03-12T15:11:35Z</time>
      </trkpt>
      <trkpt lat="42.673530" lon="-2.725640">
        <ele>779.380</ele>
        <time>2011-03-12T15:11:42Z</time>
      </trkpt>
      <trkpt lat="42.673560" lon="-2.725510">
        <ele>777.858</ele>
        <time>2011-03-12T15:11:50Z</time>
      </trkpt>
      <trkpt lat="42.673590" lon="-2.725390">
        <ele>776.452</ele>
        <time>2011-03-12T15:11:59Z</time>
      </trkpt>
      <trkpt lat="42.673620" lon="-2.725260">
        <ele>775.017</ele>
        <time>2011-03-12T15:12:07Z</time>
      </trkpt>
      <trkpt lat="42.673650" lon="-2.725130">
        <ele>772.107</ele>
        <time>2011-03-12T15:12:14Z</time>
      </trkpt>
      <trkpt lat="42.673670" lon="-2.725000">
        <ele>770.167</ele>
        <time>2011-03-12T15:12:22Z</time>
      </trkpt>
      <trkpt lat="42.673690" lon="-2.724870">
        <ele>766.838</ele>
        <time>2011-03-12T15:12:29Z</time>
      </trkpt>
      <trkpt lat="42.673700" lon="-2.724730">
        <ele>765.437</ele>
        <time>2011-03-12T15:12:37Z</time>
      </trkpt>
      <trkpt lat="42.673680" lon="-2.724610">
        <ele>764.462</ele>
        <time>2011-03-12T15:12:49Z</time>
      </trkpt>
      <trkpt lat="42.673640" lon="-2.724480">
        <ele>762.914</ele>
        <time>2011-03-12T15:12:57Z</time>
      </trkpt>
      <trkpt lat="42.673610" lon="-2.724360">
        <ele>761.074</ele>
        <time>2011-03-12T15:13:04Z</time>
      </trkpt>
      <trkpt lat="42.673570" lon="-2.724250">
        <ele>758.676</ele>
        <time>2011-03-12T15:13:11Z</time>
      </trkpt>
      <trkpt lat="42.673530" lon="-2.724120">
        <ele>757.254</ele>
        <time>2011-03-12T15:13:18Z</time>
      </trkpt>
      <trkpt lat="42.673480" lon="-2.724010">
        <ele>756.756</ele>
        <time>2011-03-12T15:13:25Z</time>
      </trkpt>
      <trkpt lat="42.673440" lon="-2.723880">
        <ele>755.711</ele>
        <time>2011-03-12T15:13:33Z</time>
      </trkpt>
      <trkpt lat="42.673400" lon="-2.723760">
        <ele>753.807</ele>
        <time>2011-03-12T15:13:40Z</time>
      </trkpt>
      <trkpt lat="42.673370" lon="-2.723630">
        <ele>753.387</ele>
        <time>2011-03-12T15:13:47Z</time>
      </trkpt>
      <trkpt lat="42.673340" lon="-2.723490">
        <ele>751.928</ele>
        <time>2011-03-12T15:13:55Z</time>
      </trkpt>
      <trkpt lat="42.673330" lon="-2.723370">
        <ele>751.487</ele>
        <time>2011-03-12T15:14:02Z</time>
      </trkpt>
      <trkpt lat="42.673330" lon="-2.723240">
        <ele>750.022</ele>
        <time>2011-03-12T15:14:09Z</time>
      </trkpt>
      <trkpt lat="42.673350" lon="-2.723110">
        <ele>749.554</ele>
        <time>2011-03-12T15:14:16Z</time>
      </trkpt>
      <trkpt lat="42.673420" lon="-2.723000">
        <ele>748.074</ele>
        <time>2011-03-12T15:14:23Z</time>
      </trkpt>
      <trkpt lat="42.673460" lon="-2.722900">
        <ele>746.656</ele>
        <time>2011-03-12T15:14:29Z</time>
      </trkpt>
      <trkpt lat="42.673500" lon="-2.722780">
        <ele>745.678</ele>
        <time>2011-03-12T15:14:35Z</time>
      </trkpt>
      <trkpt lat="42.673540" lon="-2.722650">
        <ele>744.233</ele>
        <time>2011-03-12T15:14:42Z</time>
      </trkpt>
      <trkpt lat="42.673610" lon="-2.722550">
        <ele>743.726</ele>
        <time>2011-03-12T15:14:49Z</time>
      </trkpt>
      <trkpt lat="42.673660" lon="-2.722440">
        <ele>741.807</ele>
        <time>2011-03-12T15:14:55Z</time>
      </trkpt>
      <trkpt lat="42.673700" lon="-2.722310">
        <ele>739.429</ele>
        <time>2011-03-12T15:15:02Z</time>
      </trkpt>
      <trkpt lat="42.673770" lon="-2.722210">
        <ele>738.940</ele>
        <time>2011-03-12T15:15:09Z</time>
      </trkpt>
      <trkpt lat="42.673860" lon="-2.722160">
        <ele>737.549</ele>
        <time>2011-03-12T15:15:16Z</time>
      </trkpt>
      <trkpt lat="42.673950" lon="-2.722110">
        <ele>736.534</ele>
        <time>2011-03-12T15:15:22Z</time>
      </trkpt>
      <trkpt lat="42.674020" lon="-2.722060">
        <ele>736.076</ele>
        <time>2011-03-12T15:15:28Z</time>
      </trkpt>
      <trkpt lat="42.674120" lon="-2.722000">
        <ele>735.546</ele>
        <time>2011-03-12T15:15:35Z</time>
      </trkpt>
      <trkpt lat="42.674200" lon="-2.721960">
        <ele>734.128</ele>
        <time>2011-03-12T15:15:41Z</time>
      </trkpt>
      <trkpt lat="42.674270" lon="-2.721890">
        <ele>732.636</ele>
        <time>2011-03-12T15:15:47Z</time>
      </trkpt>
      <trkpt lat="42.674340" lon="-2.721800">
        <ele>732.217</ele>
        <time>2011-03-12T15:15:54Z</time>
      </trkpt>
      <trkpt lat="42.674440" lon="-2.721730">
        <ele>732.218</ele>
        <time>2011-03-12T15:16:01Z</time>
      </trkpt>
      <trkpt lat="42.674530" lon="-2.721640">
        <ele>731.207</ele>
        <time>2011-03-12T15:16:08Z</time>
      </trkpt>
      <trkpt lat="42.674570" lon="-2.721520">
        <ele>729.865</ele>
        <time>2011-03-12T15:16:15Z</time>
      </trkpt>
      <trkpt lat="42.674590" lon="-2.721380">
        <ele>728.496</ele>
        <time>2011-03-12T15:16:22Z</time>
      </trkpt>
      <trkpt lat="42.674620" lon="-2.721260">
        <ele>726.435</ele>
        <time>2011-03-12T15:16:29Z</time>
      </trkpt>
      <trkpt lat="42.674680" lon="-2.721160">
        <ele>725.590</ele>
        <time>2011-03-12T15:16:43Z</time>
      </trkpt>
      <trkpt lat="42.674750" lon="-2.721060">
        <ele>723.572</ele>
        <time>2011-03-12T15:16:49Z</time>
      </trkpt>
      <trkpt lat="42.674810" lon="-2.720950">
        <ele>722.632</ele>
        <time>2011-03-12T15:16:55Z</time>
      </trkpt>
      <trkpt lat="42.674870" lon="-2.720850">
        <ele>722.174</ele>
        <time>2011-03-12T15:17:00Z</time>
      </trkpt>
      <trkpt lat="42.674920" lon="-2.720730">
        <ele>721.666</ele>
        <time>2011-03-12T15:17:05Z</time>
      </trkpt>
      <trkpt lat="42.674960" lon="-2.720620">
        <ele>720.629</ele>
        <time>2011-03-12T15:17:10Z</time>
      </trkpt>
      <trkpt lat="42.675030" lon="-2.720510">
        <ele>719.721</ele>
        <time>2011-03-12T15:17:16Z</time>
      </trkpt>
      <trkpt lat="42.675100" lon="-2.720420">
        <ele>718.207</ele>
        <time>2011-03-12T15:17:22Z</time>
      </trkpt>
      <trkpt lat="42.675170" lon="-2.720330">
        <ele>716.848</ele>
        <time>2011-03-12T15:17:28Z</time>
      </trkpt>
      <trkpt lat="42.675240" lon="-2.720240">
        <ele>716.379</ele>
        <time>2011-03-12T15:17:34Z</time>
      </trkpt>
      <trkpt lat="42.675310" lon="-2.720140">
        <ele>715.938</ele>
        <time>2011-03-12T15:17:40Z</time>
      </trkpt>
      <trkpt lat="42.675360" lon="-2.720050">
        <ele>715.473</ele>
        <time>2011-03-12T15:17:45Z</time>
      </trkpt>
      <trkpt lat="42.675430" lon="-2.719940">
        <ele>714.945</ele>
        <time>2011-03-12T15:17:51Z</time>
      </trkpt>
      <trkpt lat="42.675480" lon="-2.719830">
        <ele>714.935</ele>
        <time>2011-03-12T15:17:57Z</time>
      </trkpt>
      <trkpt lat="42.675490" lon="-2.719700">
        <ele>714.917</ele>
        <time>2011-03-12T15:18:03Z</time>
      </trkpt>
      <trkpt lat="42.675420" lon="-2.719580">
        <ele>714.487</ele>
        <time>2011-03-12T15:18:09Z</time>
      </trkpt>
      <trkpt lat="42.675340" lon="-2.719510">
        <ele>713.442</ele>
        <time>2011-03-12T15:18:15Z</time>
      </trkpt>
      <trkpt lat="42.675260" lon="-2.719430">
        <ele>713.026</ele>
        <time>2011-03-12T15:18:21Z</time>
      </trkpt>
      <trkpt lat="42.675190" lon="-2.719330">
        <ele>712.007</ele>
        <time>2011-03-12T15:18:27Z</time>
      </trkpt>
      <trkpt lat="42.675120" lon="-2.719230">
        <ele>711.060</ele>
        <time>2011-03-12T15:18:33Z</time>
      </trkpt>
      <trkpt lat="42.675060" lon="-2.719120">
        <ele>710.551</ele>
        <time>2011-03-12T15:18:39Z</time>
      </trkpt>
      <trkpt lat="42.674990" lon="-2.719020">
        <ele>710.110</ele>
        <time>2011-03-12T15:18:45Z</time>
      </trkpt>
      <trkpt lat="42.674930" lon="-2.718920">
        <ele>708.195</ele>
        <time>2011-03-12T15:18:51Z</time>
      </trkpt>
      <trkpt lat="42.674870" lon="-2.718820">
        <ele>706.237</ele>
        <time>2011-03-12T15:18:57Z</time>
      </trkpt>
      <trkpt lat="42.674800" lon="-2.718720">
        <ele>706.297</ele>
        <time>2011-03-12T15:19:03Z</time>
      </trkpt>
      <trkpt lat="42.674740" lon="-2.718630">
        <ele>705.779</ele>
        <time>2011-03-12T15:19:09Z</time>
      </trkpt>
      <trkpt lat="42.674660" lon="-2.718540">
        <ele>706.715</ele>
        <time>2011-03-12T15:19:15Z</time>
      </trkpt>
      <trkpt lat="42.674580" lon="-2.718460">
        <ele>705.765</ele>
        <time>2011-03-12T15:19:21Z</time>
      </trkpt>
      <trkpt lat="42.674490" lon="-2.718400">
        <ele>704.811</ele>
        <time>2011-03-12T15:19:27Z</time>
      </trkpt>
      <trkpt lat="42.674400" lon="-2.718350">
        <ele>703.407</ele>
        <time>2011-03-12T15:19:33Z</time>
      </trkpt>
      <trkpt lat="42.674310" lon="-2.718310">
        <ele>702.963</ele>
        <time>2011-03-12T15:19:39Z</time>
      </trkpt>
      <trkpt lat="42.674220" lon="-2.718270">
        <ele>701.934</ele>
        <time>2011-03-12T15:19:45Z</time>
      </trkpt>
      <trkpt lat="42.674130" lon="-2.718240">
        <ele>700.033</ele>
        <time>2011-03-12T15:19:51Z</time>
      </trkpt>
      <trkpt lat="42.674040" lon="-2.718220">
        <ele>699.518</ele>
        <time>2011-03-12T15:19:57Z</time>
      </trkpt>
      <trkpt lat="42.673950" lon="-2.718190">
        <ele>698.160</ele>
        <time>2011-03-12T15:20:03Z</time>
      </trkpt>
      <trkpt lat="42.673850" lon="-2.718160">
        <ele>697.180</ele>
        <time>2011-03-12T15:20:09Z</time>
      </trkpt>
      <trkpt lat="42.673760" lon="-2.718130">
        <ele>696.672</ele>
        <time>2011-03-12T15:20:15Z</time>
      </trkpt>
      <trkpt lat="42.673670" lon="-2.718080">
        <ele>695.631</ele>
        <time>2011-03-12T15:20:21Z</time>
      </trkpt>
      <trkpt lat="42.673590" lon="-2.718010">
        <ele>693.761</ele>
        <time>2011-03-12T15:20:27Z</time>
      </trkpt>
      <trkpt lat="42.673550" lon="-2.717890">
        <ele>691.307</ele>
        <time>2011-03-12T15:20:33Z</time>
      </trkpt>
      <trkpt lat="42.673520" lon="-2.717780">
        <ele>689.907</ele>
        <time>2011-03-12T15:20:39Z</time>
      </trkpt>
      <trkpt lat="42.673520" lon="-2.717640">
        <ele>688.095</ele>
        <time>2011-03-12T15:20:45Z</time>
      </trkpt>
      <trkpt lat="42.673530" lon="-2.717510">
        <ele>688.036</ele>
        <time>2011-03-12T15:20:51Z</time>
      </trkpt>
      <trkpt lat="42.673540" lon="-2.717360">
        <ele>687.575</ele>
        <time>2011-03-12T15:20:58Z</time>
      </trkpt>
      <trkpt lat="42.673560" lon="-2.717220">
        <ele>687.060</ele>
        <time>2011-03-12T15:21:04Z</time>
      </trkpt>
      <trkpt lat="42.673580" lon="-2.717090">
        <ele>686.072</ele>
        <time>2011-03-12T15:21:10Z</time>
      </trkpt>
      <trkpt lat="42.673590" lon="-2.716960">
        <ele>683.642</ele>
        <time>2011-03-12T15:21:17Z</time>
      </trkpt>
      <trkpt lat="42.673600" lon="-2.716830">
        <ele>682.284</ele>
        <time>2011-03-12T15:21:23Z</time>
      </trkpt>
      <trkpt lat="42.673600" lon="-2.716700">
        <ele>680.733</ele>
        <time>2011-03-12T15:21:29Z</time>
      </trkpt>
      <trkpt lat="42.673560" lon="-2.716570">
        <ele>678.823</ele>
        <time>2011-03-12T15:22:36Z</time>
      </trkpt>
      <trkpt lat="42.673490" lon="-2.716500">
        <ele>677.415</ele>
        <time>2011-03-12T15:22:42Z</time>
      </trkpt>
      <trkpt lat="42.673410" lon="-2.716430">
        <ele>676.907</ele>
        <time>2011-03-12T15:22:51Z</time>
      </trkpt>
      <trkpt lat="42.673330" lon="-2.716340">
        <ele>676.475</ele>
        <time>2011-03-12T15:22:59Z</time>
      </trkpt>
      <trkpt lat="42.673260" lon="-2.716250">
        <ele>676.016</ele>
        <time>2011-03-12T15:23:06Z</time>
      </trkpt>
      <trkpt lat="42.673210" lon="-2.716130">
        <ele>676.055</ele>
        <time>2011-03-12T15:23:13Z</time>
      </trkpt>
      <trkpt lat="42.673180" lon="-2.716000">
        <ele>676.080</ele>
        <time>2011-03-12T15:23:20Z</time>
      </trkpt>
      <trkpt lat="42.673170" lon="-2.715860">
        <ele>675.592</ele>
        <time>2011-03-12T15:23:27Z</time>
      </trkpt>
      <trkpt lat="42.673150" lon="-2.715730">
        <ele>676.442</ele>
        <time>2011-03-12T15:23:34Z</time>
      </trkpt>
      <trkpt lat="42.673130" lon="-2.715590">
        <ele>676.984</ele>
        <time>2011-03-12T15:23:41Z</time>
      </trkpt>
      <trkpt lat="42.673110" lon="-2.715460">
        <ele>676.943</ele>
        <time>2011-03-12T15:23:48Z</time>
      </trkpt>
      <trkpt lat="42.673090" lon="-2.715330">
        <ele>676.964</ele>
        <time>2011-03-12T15:23:55Z</time>
      </trkpt>
      <trkpt lat="42.673070" lon="-2.715200">
        <ele>677.410</ele>
        <time>2011-03-12T15:24:02Z</time>
      </trkpt>
      <trkpt lat="42.673040" lon="-2.715070">
        <ele>678.307</ele>
        <time>2011-03-12T15:24:09Z</time>
      </trkpt>
      <trkpt lat="42.672990" lon="-2.714980">
        <ele>680.736</ele>
        <time>2011-03-12T15:24:17Z</time>
      </trkpt>
      <trkpt lat="42.672900" lon="-2.714990">
        <ele>680.767</ele>
        <time>2011-03-12T15:24:25Z</time>
      </trkpt>
      <trkpt lat="42.672858" lon="-2.714899">
        <ele>680.336</ele>
        <time>2011-03-12T15:24:26Z</time>
      </trkpt>
      <trkpt lat="42.672860" lon="-2.714950">
        <ele>680.346</ele>
        <time>2011-04-16T09:54:41Z</time>
      </trkpt>
      <trkpt lat="42.672950" lon="-2.714920">
        <ele>679.388</ele>
        <time>2011-04-16T09:55:31Z</time>
      </trkpt>
      <trkpt lat="42.673050" lon="-2.714880">
        <ele>678.316</ele>
        <time>2011-04-16T09:55:40Z</time>
      </trkpt>
      <trkpt lat="42.673140" lon="-2.714830">
        <ele>677.407</ele>
        <time>2011-04-16T09:55:48Z</time>
      </trkpt>
      <trkpt lat="42.673240" lon="-2.714780">
        <ele>676.946</ele>
        <time>2011-04-16T09:55:56Z</time>
      </trkpt>
      <trkpt lat="42.673330" lon="-2.714720">
        <ele>677.457</ele>
        <time>2011-04-16T09:56:04Z</time>
      </trkpt>
      <trkpt lat="42.673420" lon="-2.714670">
        <ele>676.426</ele>
        <time>2011-04-16T09:56:11Z</time>
      </trkpt>
      <trkpt lat="42.673520" lon="-2.714610">
        <ele>676.963</ele>
        <time>2011-04-16T09:56:19Z</time>
      </trkpt>
      <trkpt lat="42.673610" lon="-2.714560">
        <ele>676.440</ele>
        <time>2011-04-16T09:56:27Z</time>
      </trkpt>
      <trkpt lat="42.673700" lon="-2.714500">
        <ele>675.586</ele>
        <time>2011-04-16T09:56:35Z</time>
      </trkpt>
      <trkpt lat="42.673800" lon="-2.714450">
        <ele>675.053</ele>
        <time>2011-04-16T09:56:43Z</time>
      </trkpt>
      <trkpt lat="42.673880" lon="-2.714400">
        <ele>675.034</ele>
        <time>2011-04-16T09:56:51Z</time>
      </trkpt>
      <trkpt lat="42.673970" lon="-2.714350">
        <ele>674.555</ele>
        <time>2011-04-16T09:56:59Z</time>
      </trkpt>
      <trkpt lat="42.674060" lon="-2.714290">
        <ele>674.010</ele>
        <time>2011-04-16T09:57:07Z</time>
      </trkpt>
      <trkpt lat="42.674140" lon="-2.714240">
        <ele>673.507</ele>
        <time>2011-04-16T09:57:15Z</time>
      </trkpt>
      <trkpt lat="42.674230" lon="-2.714190">
        <ele>672.615</ele>
        <time>2011-04-16T09:57:24Z</time>
      </trkpt>
      <trkpt lat="42.674320" lon="-2.714130">
        <ele>672.676</ele>
        <time>2011-04-16T09:57:32Z</time>
      </trkpt>
      <trkpt lat="42.674410" lon="-2.714080">
        <ele>672.195</ele>
        <time>2011-04-16T09:57:40Z</time>
      </trkpt>
      <trkpt lat="42.674500" lon="-2.714030">
        <ele>671.692</ele>
        <time>2011-04-16T09:57:47Z</time>
      </trkpt>
      <trkpt lat="42.674560" lon="-2.713940">
        <ele>670.769</ele>
        <time>2011-04-16T09:57:54Z</time>
      </trkpt>
      <trkpt lat="42.674550" lon="-2.713800">
        <ele>670.295</ele>
        <time>2011-04-16T09:58:02Z</time>
      </trkpt>
      <trkpt lat="42.674510" lon="-2.713680">
        <ele>669.772</ele>
        <time>2011-04-16T09:58:10Z</time>
      </trkpt>
      <trkpt lat="42.674430" lon="-2.713590">
        <ele>670.269</ele>
        <time>2011-04-16T09:58:19Z</time>
      </trkpt>
      <trkpt lat="42.674360" lon="-2.713490">
        <ele>670.704</ele>
        <time>2011-04-16T09:58:27Z</time>
      </trkpt>
      <trkpt lat="42.674300" lon="-2.713400">
        <ele>671.624</ele>
        <time>2011-04-16T09:58:35Z</time>
      </trkpt>
      <trkpt lat="42.674230" lon="-2.713300">
        <ele>672.107</ele>
        <time>2011-04-16T09:58:43Z</time>
      </trkpt>
      <trkpt lat="42.674170" lon="-2.713210">
        <ele>672.198</ele>
        <time>2011-04-16T09:58:51Z</time>
      </trkpt>
      <trkpt lat="42.674110" lon="-2.713110">
        <ele>671.619</ele>
        <time>2011-04-16T09:58:58Z</time>
      </trkpt>
      <trkpt lat="42.674040" lon="-2.713010">
        <ele>672.128</ele>
        <time>2011-04-16T09:59:06Z</time>
      </trkpt>
      <trkpt lat="42.673970" lon="-2.712920">
        <ele>672.145</ele>
        <time>2011-04-16T09:59:13Z</time>
      </trkpt>
      <trkpt lat="42.673910" lon="-2.712820">
        <ele>672.652</ele>
        <time>2011-04-16T09:59:20Z</time>
      </trkpt>
      <trkpt lat="42.673840" lon="-2.712730">
        <ele>672.148</ele>
        <time>2011-04-16T09:59:27Z</time>
      </trkpt>
      <trkpt lat="42.673780" lon="-2.712630">
        <ele>672.625</ele>
        <time>2011-04-16T09:59:34Z</time>
      </trkpt>
      <trkpt lat="42.673710" lon="-2.712540">
        <ele>672.668</ele>
        <time>2011-04-16T09:59:41Z</time>
      </trkpt>
      <trkpt lat="42.673650" lon="-2.712450">
        <ele>672.642</ele>
        <time>2011-04-16T09:59:48Z</time>
      </trkpt>
      <trkpt lat="42.673580" lon="-2.712350">
        <ele>672.126</ele>
        <time>2011-04-16T09:59:56Z</time>
      </trkpt>
      <trkpt lat="42.673510" lon="-2.712250">
        <ele>672.607</ele>
        <time>2011-04-16T10:00:04Z</time>
      </trkpt>
      <trkpt lat="42.673440" lon="-2.712150">
        <ele>672.198</ele>
        <time>2011-04-16T10:00:12Z</time>
      </trkpt>
      <trkpt lat="42.673380" lon="-2.712050">
        <ele>671.639</ele>
        <time>2011-04-16T10:00:19Z</time>
      </trkpt>
      <trkpt lat="42.673320" lon="-2.711950">
        <ele>671.168</ele>
        <time>2011-04-16T10:00:26Z</time>
      </trkpt>
      <trkpt lat="42.673260" lon="-2.711860">
        <ele>671.195</ele>
        <time>2011-04-16T10:00:33Z</time>
      </trkpt>
      <trkpt lat="42.673190" lon="-2.711760">
        <ele>671.182</ele>
        <time>2011-04-16T10:00:41Z</time>
      </trkpt>
      <trkpt lat="42.673130" lon="-2.711670">
        <ele>670.798</ele>
        <time>2011-04-16T10:00:48Z</time>
      </trkpt>
      <trkpt lat="42.673060" lon="-2.711580">
        <ele>670.745</ele>
        <time>2011-04-16T10:00:55Z</time>
      </trkpt>
      <trkpt lat="42.673000" lon="-2.711490">
        <ele>670.224</ele>
        <time>2011-04-16T10:01:02Z</time>
      </trkpt>
      <trkpt lat="42.672940" lon="-2.711390">
        <ele>670.204</ele>
        <time>2011-04-16T10:01:09Z</time>
      </trkpt>
      <trkpt lat="42.672880" lon="-2.711300">
        <ele>670.214</ele>
        <time>2011-04-16T10:01:16Z</time>
      </trkpt>
      <trkpt lat="42.672820" lon="-2.711210">
        <ele>670.207</ele>
        <time>2011-04-16T10:01:23Z</time>
      </trkpt>
      <trkpt lat="42.672750" lon="-2.711110">
        <ele>669.774</ele>
        <time>2011-04-16T10:01:31Z</time>
      </trkpt>
      <trkpt lat="42.672680" lon="-2.711010">
        <ele>669.725</ele>
        <time>2011-04-16T10:01:39Z</time>
      </trkpt>
      <trkpt lat="42.672610" lon="-2.710910">
        <ele>669.774</ele>
        <time>2011-04-16T10:01:47Z</time>
      </trkpt>
      <trkpt lat="42.672550" lon="-2.710820">
        <ele>669.221</ele>
        <time>2011-04-16T10:01:54Z</time>
      </trkpt>
      <trkpt lat="42.672480" lon="-2.710720">
        <ele>669.268</ele>
        <time>2011-04-16T10:02:02Z</time>
      </trkpt>
      <trkpt lat="42.672410" lon="-2.710620">
        <ele>668.794</ele>
        <time>2011-04-16T10:02:10Z</time>
      </trkpt>
      <trkpt lat="42.672350" lon="-2.710510">
        <ele>668.261</ele>
        <time>2011-04-16T10:02:18Z</time>
      </trkpt>
      <trkpt lat="42.672280" lon="-2.710410">
        <ele>668.259</ele>
        <time>2011-04-16T10:02:26Z</time>
      </trkpt>
      <trkpt lat="42.672220" lon="-2.710320">
        <ele>668.203</ele>
        <time>2011-04-16T10:02:33Z</time>
      </trkpt>
      <trkpt lat="42.672150" lon="-2.710230">
        <ele>668.223</ele>
        <time>2011-04-16T10:02:40Z</time>
      </trkpt>
      <trkpt lat="42.672080" lon="-2.710130">
        <ele>667.807</ele>
        <time>2011-04-16T10:02:48Z</time>
      </trkpt>
      <trkpt lat="42.672020" lon="-2.710030">
        <ele>668.267</ele>
        <time>2011-04-16T10:02:55Z</time>
      </trkpt>
      <trkpt lat="42.671960" lon="-2.709940">
        <ele>667.838</ele>
        <time>2011-04-16T10:03:02Z</time>
      </trkpt>
      <trkpt lat="42.671890" lon="-2.709840">
        <ele>667.397</ele>
        <time>2011-04-16T10:03:10Z</time>
      </trkpt>
      <trkpt lat="42.671830" lon="-2.709750">
        <ele>667.884</ele>
        <time>2011-04-16T10:03:17Z</time>
      </trkpt>
      <trkpt lat="42.671760" lon="-2.709650">
        <ele>667.851</ele>
        <time>2011-04-16T10:03:24Z</time>
      </trkpt>
      <trkpt lat="42.671710" lon="-2.709550">
        <ele>667.897</ele>
        <time>2011-04-16T10:03:31Z</time>
      </trkpt>
      <trkpt lat="42.671730" lon="-2.709420">
        <ele>666.824</ele>
        <time>2011-04-16T10:03:39Z</time>
      </trkpt>
      <trkpt lat="42.671770" lon="-2.709320">
        <ele>665.815</ele>
        <time>2011-04-16T10:03:47Z</time>
      </trkpt>
      <trkpt lat="42.671840" lon="-2.709210">
        <ele>665.465</ele>
        <time>2011-04-16T10:03:55Z</time>
      </trkpt>
      <trkpt lat="42.671900" lon="-2.709120">
        <ele>664.411</ele>
        <time>2011-04-16T10:04:03Z</time>
      </trkpt>
      <trkpt lat="42.671960" lon="-2.709020">
        <ele>663.907</ele>
        <time>2011-04-16T10:04:10Z</time>
      </trkpt>
      <trkpt lat="42.672010" lon="-2.708910">
        <ele>664.413</ele>
        <time>2011-04-16T10:04:17Z</time>
      </trkpt>
      <trkpt lat="42.672070" lon="-2.708800">
        <ele>663.594</ele>
        <time>2011-04-16T10:04:24Z</time>
      </trkpt>
      <trkpt lat="42.672140" lon="-2.708700">
        <ele>663.563</ele>
        <time>2011-04-16T10:04:31Z</time>
      </trkpt>
      <trkpt lat="42.672200" lon="-2.708590">
        <ele>663.080</ele>
        <time>2011-04-16T10:04:38Z</time>
      </trkpt>
      <trkpt lat="42.672260" lon="-2.708490">
        <ele>662.557</ele>
        <time>2011-04-16T10:04:45Z</time>
      </trkpt>
      <trkpt lat="42.672330" lon="-2.708390">
        <ele>662.013</ele>
        <time>2011-04-16T10:04:52Z</time>
      </trkpt>
      <trkpt lat="42.672390" lon="-2.708280">
        <ele>661.510</ele>
        <time>2011-04-16T10:04:59Z</time>
      </trkpt>
      <trkpt lat="42.672460" lon="-2.708170">
        <ele>661.545</ele>
        <time>2011-04-16T10:05:06Z</time>
      </trkpt>
      <trkpt lat="42.672520" lon="-2.708070">
        <ele>661.147</ele>
        <time>2011-04-16T10:05:13Z</time>
      </trkpt>
      <trkpt lat="42.672580" lon="-2.707960">
        <ele>661.111</ele>
        <time>2011-04-16T10:05:20Z</time>
      </trkpt>
      <trkpt lat="42.672640" lon="-2.707860">
        <ele>660.107</ele>
        <time>2011-04-16T10:05:27Z</time>
      </trkpt>
      <trkpt lat="42.672700" lon="-2.707760">
        <ele>659.156</ele>
        <time>2011-04-16T10:05:34Z</time>
      </trkpt>
      <trkpt lat="42.672760" lon="-2.707650">
        <ele>659.117</ele>
        <time>2011-04-16T10:05:41Z</time>
      </trkpt>
      <trkpt lat="42.672820" lon="-2.707550">
        <ele>658.676</ele>
        <time>2011-04-16T10:05:48Z</time>
      </trkpt>
      <trkpt lat="42.672880" lon="-2.707450">
        <ele>658.253</ele>
        <time>2011-04-16T10:05:55Z</time>
      </trkpt>
      <trkpt lat="42.672940" lon="-2.707340">
        <ele>658.290</ele>
        <time>2011-04-16T10:06:02Z</time>
      </trkpt>
      <trkpt lat="42.673010" lon="-2.707230">
        <ele>658.256</ele>
        <time>2011-04-16T10:06:09Z</time>
      </trkpt>
      <trkpt lat="42.673070" lon="-2.707130">
        <ele>657.223</ele>
        <time>2011-04-16T10:06:16Z</time>
      </trkpt>
      <trkpt lat="42.673130" lon="-2.707030">
        <ele>657.737</ele>
        <time>2011-04-16T10:06:23Z</time>
      </trkpt>
      <trkpt lat="42.673200" lon="-2.706920">
        <ele>656.749</ele>
        <time>2011-04-16T10:06:30Z</time>
      </trkpt>
      <trkpt lat="42.673260" lon="-2.706820">
        <ele>657.213</ele>
        <time>2011-04-16T10:06:37Z</time>
      </trkpt>
      <trkpt lat="42.673320" lon="-2.706720">
        <ele>656.707</ele>
        <time>2011-04-16T10:06:44Z</time>
      </trkpt>
      <trkpt lat="42.673380" lon="-2.706610">
        <ele>656.715</ele>
        <time>2011-04-16T10:06:51Z</time>
      </trkpt>
      <trkpt lat="42.673440" lon="-2.706500">
        <ele>656.766</ele>
        <time>2011-04-16T10:06:58Z</time>
      </trkpt>
      <trkpt lat="42.673500" lon="-2.706390">
        <ele>656.725</ele>
        <time>2011-04-16T10:07:05Z</time>
      </trkpt>
      <trkpt lat="42.673550" lon="-2.706280">
        <ele>656.742</ele>
        <time>2011-04-16T10:07:12Z</time>
      </trkpt>
      <trkpt lat="42.673590" lon="-2.706150">
        <ele>656.749</ele>
        <time>2011-04-16T10:07:19Z</time>
      </trkpt>
      <trkpt lat="42.673580" lon="-2.706010">
        <ele>656.265</ele>
        <time>2011-04-16T10:07:26Z</time>
      </trkpt>
      <trkpt lat="42.673560" lon="-2.705880">
        <ele>656.272</ele>
        <time>2011-04-16T10:07:33Z</time>
      </trkpt>
      <trkpt lat="42.673550" lon="-2.705740">
        <ele>655.728</ele>
        <time>2011-04-16T10:07:40Z</time>
      </trkpt>
      <trkpt lat="42.673550" lon="-2.705600">
        <ele>656.289</ele>
        <time>2011-04-16T10:07:47Z</time>
      </trkpt>
      <trkpt lat="42.673560" lon="-2.705470">
        <ele>655.717</ele>
        <time>2011-04-16T10:07:54Z</time>
      </trkpt>
      <trkpt lat="42.673580" lon="-2.705340">
        <ele>655.707</ele>
        <time>2011-04-16T10:08:01Z</time>
      </trkpt>
      <trkpt lat="42.673600" lon="-2.705210">
        <ele>655.764</ele>
        <time>2011-04-16T10:08:08Z</time>
      </trkpt>
      <trkpt lat="42.673630" lon="-2.705080">
        <ele>655.355</ele>
        <time>2011-04-16T10:08:15Z</time>
      </trkpt>
      <trkpt lat="42.673650" lon="-2.704960">
        <ele>655.774</ele>
        <time>2011-04-16T10:08:22Z</time>
      </trkpt>
      <trkpt lat="42.673680" lon="-2.704840">
        <ele>654.821</ele>
        <time>2011-04-16T10:08:29Z</time>
      </trkpt>
      <trkpt lat="42.673710" lon="-2.704710">
        <ele>654.878</ele>
        <time>2011-04-16T10:08:36Z</time>
      </trkpt>
      <trkpt lat="42.673740" lon="-2.704600">
        <ele>654.874</ele>
        <time>2011-04-16T10:08:43Z</time>
      </trkpt>
      <trkpt lat="42.673770" lon="-2.704470">
        <ele>655.311</ele>
        <time>2011-04-16T10:08:50Z</time>
      </trkpt>
      <trkpt lat="42.673780" lon="-2.704340">
        <ele>654.868</ele>
        <time>2011-04-16T10:08:57Z</time>
      </trkpt>
      <trkpt lat="42.673800" lon="-2.704220">
        <ele>654.342</ele>
        <time>2011-04-16T10:09:04Z</time>
      </trkpt>
      <trkpt lat="42.673810" lon="-2.704090">
        <ele>654.326</ele>
        <time>2011-04-16T10:09:11Z</time>
      </trkpt>
      <trkpt lat="42.673830" lon="-2.703960">
        <ele>654.307</ele>
        <time>2011-04-16T10:09:18Z</time>
      </trkpt>
      <trkpt lat="42.673850" lon="-2.703840">
        <ele>654.378</ele>
        <time>2011-04-16T10:09:25Z</time>
      </trkpt>
      <trkpt lat="42.673870" lon="-2.703720">
        <ele>653.869</ele>
        <time>2011-04-16T10:09:32Z</time>
      </trkpt>
      <trkpt lat="42.673880" lon="-2.703580">
        <ele>653.828</ele>
        <time>2011-04-16T10:09:39Z</time>
      </trkpt>
      <trkpt lat="42.673910" lon="-2.703460">
        <ele>653.855</ele>
        <time>2011-04-16T10:09:46Z</time>
      </trkpt>
      <trkpt lat="42.673930" lon="-2.703330">
        <ele>653.332</ele>
        <time>2011-04-16T10:09:53Z</time>
      </trkpt>
      <trkpt lat="42.673960" lon="-2.703210">
        <ele>652.448</ele>
        <time>2011-04-16T10:10:00Z</time>
      </trkpt>
      <trkpt lat="42.674000" lon="-2.703090">
        <ele>651.985</ele>
        <time>2011-04-16T10:10:07Z</time>
      </trkpt>
      <trkpt lat="42.674040" lon="-2.702970">
        <ele>651.936</ele>
        <time>2011-04-16T10:10:14Z</time>
      </trkpt>
      <trkpt lat="42.674090" lon="-2.702860">
        <ele>651.917</ele>
        <time>2011-04-16T10:10:21Z</time>
      </trkpt>
      <trkpt lat="42.674130" lon="-2.702750">
        <ele>651.418</ele>
        <time>2011-04-16T10:10:28Z</time>
      </trkpt>
      <trkpt lat="42.674170" lon="-2.702630">
        <ele>651.007</ele>
        <time>2011-04-16T10:10:35Z</time>
      </trkpt>
      <trkpt lat="42.674200" lon="-2.702500">
        <ele>651.425</ele>
        <time>2011-04-16T10:10:42Z</time>
      </trkpt>
      <trkpt lat="42.674210" lon="-2.702380">
        <ele>651.466</ele>
        <time>2011-04-16T10:10:49Z</time>
      </trkpt>
      <trkpt lat="42.674220" lon="-2.702250">
        <ele>651.415</ele>
        <time>2011-04-16T10:10:56Z</time>
      </trkpt>
      <trkpt lat="42.674230" lon="-2.702120">
        <ele>651.442</ele>
        <time>2011-04-16T10:11:03Z</time>
      </trkpt>
      <trkpt lat="42.674230" lon="-2.701990">
        <ele>651.929</ele>
        <time>2011-04-16T10:11:10Z</time>
      </trkpt>
      <trkpt lat="42.674230" lon="-2.701860">
        <ele>651.915</ele>
        <time>2011-04-16T10:11:17Z</time>
      </trkpt>
      <trkpt lat="42.674230" lon="-2.701730">
        <ele>651.982</ele>
        <time>2011-04-16T10:11:24Z</time>
      </trkpt>
      <trkpt lat="42.674230" lon="-2.701600">
        <ele>652.421</ele>
        <time>2011-04-16T10:11:31Z</time>
      </trkpt>
      <trkpt lat="42.674220" lon="-2.701470">
        <ele>651.941</ele>
        <time>2011-04-16T10:11:38Z</time>
      </trkpt>
      <trkpt lat="42.674230" lon="-2.701340">
        <ele>651.405</ele>
        <time>2011-04-16T10:11:45Z</time>
      </trkpt>
      <trkpt lat="42.674230" lon="-2.701210">
        <ele>651.407</ele>
        <time>2011-04-16T10:11:52Z</time>
      </trkpt>
      <trkpt lat="42.674230" lon="-2.701080">
        <ele>651.094</ele>
        <time>2011-04-16T10:11:59Z</time>
      </trkpt>
      <trkpt lat="42.674240" lon="-2.700950">
        <ele>651.035</ele>
        <time>2011-04-16T10:12:06Z</time>
      </trkpt>
      <trkpt lat="42.674260" lon="-2.700820">
        <ele>650.074</ele>
        <time>2011-04-16T10:12:13Z</time>
      </trkpt>
      <trkpt lat="42.674280" lon="-2.700690">
        <ele>650.511</ele>
        <time>2011-04-16T10:12:20Z</time>
      </trkpt>
      <trkpt lat="42.674310" lon="-2.700570">
        <ele>650.088</ele>
        <time>2011-04-16T10:12:27Z</time>
      </trkpt>
      <trkpt lat="42.674340" lon="-2.700450">
        <ele>649.584</ele>
        <time>2011-04-16T10:12:34Z</time>
      </trkpt>
      <trkpt lat="42.674370" lon="-2.700330">
        <ele>649.051</ele>
        <time>2011-04-16T10:12:41Z</time>
      </trkpt>
      <trkpt lat="42.674410" lon="-2.700210">
        <ele>649.077</ele>
        <time>2011-04-16T10:12:48Z</time>
      </trkpt>
      <trkpt lat="42.674450" lon="-2.700090">
        <ele>648.661</ele>
        <time>2011-04-16T10:12:55Z</time>
      </trkpt>
      <trkpt lat="42.674480" lon="-2.699980">
        <ele>648.127</ele>
        <time>2011-04-16T10:13:02Z</time>
      </trkpt>
      <trkpt lat="42.674510" lon="-2.699850">
        <ele>648.107</ele>
        <time>2011-04-16T10:13:09Z</time>
      </trkpt>
      <trkpt lat="42.674550" lon="-2.699740">
        <ele>648.639</ele>
        <time>2011-04-16T10:13:16Z</time>
      </trkpt>
      <trkpt lat="42.674590" lon="-2.699620">
        <ele>647.650</ele>
        <time>2011-04-16T10:13:23Z</time>
      </trkpt>
      <trkpt lat="42.674620" lon="-2.699500">
        <ele>647.619</ele>
        <time>2011-04-16T10:13:30Z</time>
      </trkpt>
      <trkpt lat="42.674660" lon="-2.699380">
        <ele>647.626</ele>
        <time>2011-04-16T10:13:37Z</time>
      </trkpt>
      <trkpt lat="42.674700" lon="-2.699260">
        <ele>647.683</ele>
        <time>2011-04-16T10:13:44Z</time>
      </trkpt>
      <trkpt lat="42.674730" lon="-2.699140">
        <ele>647.689</ele>
        <time>2011-04-16T10:13:51Z</time>
      </trkpt>
      <trkpt lat="42.674770" lon="-2.699020">
        <ele>647.636</ele>
        <time>2011-04-16T10:13:58Z</time>
      </trkpt>
      <trkpt lat="42.674800" lon="-2.698900">
        <ele>647.638</ele>
        <time>2011-04-16T10:14:05Z</time>
      </trkpt>
      <trkpt lat="42.674810" lon="-2.698780">
        <ele>647.670</ele>
        <time>2011-04-16T10:14:12Z</time>
      </trkpt>
      <trkpt lat="42.674820" lon="-2.698660">
        <ele>647.617</ele>
        <time>2011-04-16T10:14:19Z</time>
      </trkpt>
      <trkpt lat="42.674820" lon="-2.698530">
        <ele>647.607</ele>
        <time>2011-04-16T10:14:26Z</time>
      </trkpt>
      <trkpt lat="42.674850" lon="-2.698400">
        <ele>647.165</ele>
        <time>2011-04-16T10:14:33Z</time>
      </trkpt>
      <trkpt lat="42.674900" lon="-2.698280">
        <ele>647.186</ele>
        <time>2011-04-16T10:14:40Z</time>
      </trkpt>
      <trkpt lat="42.674960" lon="-2.698170">
        <ele>647.185</ele>
        <time>2011-04-16T10:14:47Z</time>
      </trkpt>
      <trkpt lat="42.675020" lon="-2.698050">
        <ele>646.642</ele>
        <time>2011-04-16T10:14:54Z</time>
      </trkpt>
      <trkpt lat="42.675080" lon="-2.697940">
        <ele>646.689</ele>
        <time>2011-04-16T10:15:01Z</time>
      </trkpt>
      <trkpt lat="42.675150" lon="-2.697830">
        <ele>645.715</ele>
        <time>2011-04-16T10:15:08Z</time>
      </trkpt>
      <trkpt lat="42.675210" lon="-2.697710">
        <ele>645.232</ele>
        <time>2011-04-16T10:15:15Z</time>
      </trkpt>
      <trkpt lat="42.675260" lon="-2.697610">
        <ele>645.766</ele>
        <time>2011-04-16T10:15:22Z</time>
      </trkpt>
      <trkpt lat="42.675330" lon="-2.697500">
        <ele>644.729</ele>
        <time>2011-04-16T10:15:29Z</time>
      </trkpt>
      <trkpt lat="42.675390" lon="-2.697390">
        <ele>645.221</ele>
        <time>2011-04-16T10:15:36Z</time>
      </trkpt>
      <trkpt lat="42.675450" lon="-2.697290">
        <ele>644.707</ele>
        <time>2011-04-16T10:15:43Z</time>
      </trkpt>
      <trkpt lat="42.675520" lon="-2.697180">
        <ele>644.748</ele>
        <time>2011-04-16T10:15:50Z</time>
      </trkpt>
      <trkpt lat="42.675580" lon="-2.697080">
        <ele>644.789</ele>
        <time>2011-04-16T10:15:57Z</time>
      </trkpt>
      <trkpt lat="42.675640" lon="-2.696970">
        <ele>644.798</ele>
        <time>2011-04-16T10:16:04Z</time>
      </trkpt>
      <trkpt lat="42.675700" lon="-2.696860">
        <ele>644.735</ele>
        <time>2011-04-16T10:16:11Z</time>
      </trkpt>
      <trkpt lat="42.675760" lon="-2.696750">
        <ele>644.712</ele>
        <time>2011-04-16T10:16:18Z</time>
      </trkpt>
      <trkpt lat="42.675830" lon="-2.696650">
        <ele>644.758</ele>
        <time>2011-04-16T10:16:25Z</time>
      </trkpt>
      <trkpt lat="42.675890" lon="-2.696550">
        <ele>644.225</ele>
        <time>2011-04-16T10:16:32Z</time>
      </trkpt>
      <trkpt lat="42.675960" lon="-2.696430">
        <ele>643.799</ele>
        <time>2011-04-16T10:16:39Z</time>
      </trkpt>
      <trkpt lat="42.675960" lon="-2.696310">
        <ele>644.207</ele>
        <time>2011-04-16T10:16:46Z</time>
      </trkpt>
      <trkpt lat="42.675870" lon="-2.696230">
        <ele>644.227</ele>
        <time>2011-04-16T10:16:54Z</time>
      </trkpt>
      <trkpt lat="42.675780" lon="-2.696180">
        <ele>645.207</ele>
        <time>2011-04-16T10:17:01Z</time>
      </trkpt>
      <trkpt lat="42.675690" lon="-2.696120">
        <ele>646.191</ele>
        <time>2011-04-16T10:17:09Z</time>
      </trkpt>
      <trkpt lat="42.675590" lon="-2.696060">
        <ele>647.192</ele>
        <time>2011-04-16T10:17:17Z</time>
      </trkpt>
      <trkpt lat="42.675510" lon="-2.696000">
        <ele>648.191</ele>
        <time>2011-04-16T10:17:25Z</time>
      </trkpt>
      <trkpt lat="42.675420" lon="-2.695940">
        <ele>649.588</ele>
        <time>2011-04-16T10:17:33Z</time>
      </trkpt>
      <trkpt lat="42.675330" lon="-2.695880">
        <ele>651.485</ele>
        <time>2011-04-16T10:17:42Z</time>
      </trkpt>
      <trkpt lat="42.675250" lon="-2.695820">
        <ele>653.891</ele>
        <time>2011-04-16T10:17:51Z</time>
      </trkpt>
      <trkpt lat="42.675160" lon="-2.695760">
        <ele>655.378</ele>
        <time>2011-04-16T10:18:00Z</time>
      </trkpt>
      <trkpt lat="42.675080" lon="-2.695710">
        <ele>656.254</ele>
        <time>2011-04-16T10:18:09Z</time>
      </trkpt>
      <trkpt lat="42.674990" lon="-2.695650">
        <ele>656.756</ele>
        <time>2011-04-16T10:18:17Z</time>
      </trkpt>
      <trkpt lat="42.674910" lon="-2.695600">
        <ele>657.711</ele>
        <time>2011-04-16T10:18:25Z</time>
      </trkpt>
      <trkpt lat="42.674820" lon="-2.695540">
        <ele>659.607</ele>
        <time>2011-04-16T10:18:33Z</time>
      </trkpt>
      <trkpt lat="42.674730" lon="-2.695470">
        <ele>661.167</ele>
        <time>2011-04-16T10:18:41Z</time>
      </trkpt>
      <trkpt lat="42.674640" lon="-2.695410">
        <ele>661.598</ele>
        <time>2011-04-16T10:18:49Z</time>
      </trkpt>
      <trkpt lat="42.674560" lon="-2.695370">
        <ele>662.557</ele>
        <time>2011-04-16T10:18:56Z</time>
      </trkpt>
      <trkpt lat="42.674460" lon="-2.695320">
        <ele>663.574</ele>
        <time>2011-04-16T10:19:04Z</time>
      </trkpt>
      <trkpt lat="42.674370" lon="-2.695270">
        <ele>663.911</ele>
        <time>2011-04-16T10:19:12Z</time>
      </trkpt>
      <trkpt lat="42.674270" lon="-2.695230">
        <ele>664.447</ele>
        <time>2011-04-16T10:19:20Z</time>
      </trkpt>
      <trkpt lat="42.674160" lon="-2.695210">
        <ele>664.484</ele>
        <time>2011-04-16T10:19:28Z</time>
      </trkpt>
      <trkpt lat="42.674100" lon="-2.695150">
        <ele>665.442</ele>
        <time>2011-04-16T10:19:37Z</time>
      </trkpt>
      <trkpt lat="42.674190" lon="-2.695120">
        <ele>667.322</ele>
        <time>2011-04-16T10:19:46Z</time>
      </trkpt>
      <trkpt lat="42.674290" lon="-2.695080">
        <ele>667.314</ele>
        <time>2011-04-16T10:19:55Z</time>
      </trkpt>
      <trkpt lat="42.674390" lon="-2.695040">
        <ele>667.307</ele>
        <time>2011-04-16T10:20:04Z</time>
      </trkpt>
      <trkpt lat="42.674480" lon="-2.694990">
        <ele>668.766</ele>
        <time>2011-04-16T10:20:12Z</time>
      </trkpt>
      <trkpt lat="42.674560" lon="-2.694910">
        <ele>670.217</ele>
        <time>2011-04-16T10:20:21Z</time>
      </trkpt>
      <trkpt lat="42.674640" lon="-2.694820">
        <ele>672.186</ele>
        <time>2011-04-16T10:20:31Z</time>
      </trkpt>
      <trkpt lat="42.674720" lon="-2.694770">
        <ele>673.593</ele>
        <time>2011-04-16T10:20:41Z</time>
      </trkpt>
      <trkpt lat="42.674810" lon="-2.694730">
        <ele>675.530</ele>
        <time>2011-04-16T10:20:51Z</time>
      </trkpt>
      <trkpt lat="42.674900" lon="-2.694690">
        <ele>677.476</ele>
        <time>2011-04-16T10:21:01Z</time>
      </trkpt>
      <trkpt lat="42.674990" lon="-2.694650">
        <ele>678.333</ele>
        <time>2011-04-16T10:21:10Z</time>
      </trkpt>
      <trkpt lat="42.675080" lon="-2.694620">
        <ele>680.362</ele>
        <time>2011-04-16T10:21:19Z</time>
      </trkpt>
      <trkpt lat="42.675180" lon="-2.694610">
        <ele>680.783</ele>
        <time>2011-04-16T10:21:28Z</time>
      </trkpt>
      <trkpt lat="42.675260" lon="-2.694550">
        <ele>680.711</ele>
        <time>2011-04-16T10:21:36Z</time>
      </trkpt>
      <trkpt lat="42.675320" lon="-2.694440">
        <ele>681.207</ele>
        <time>2011-04-16T10:21:45Z</time>
      </trkpt>
      <trkpt lat="42.675310" lon="-2.694340">
        <ele>681.728</ele>
        <time>2011-04-16T10:21:54Z</time>
      </trkpt>
      <trkpt lat="42.675240" lon="-2.694240">
        <ele>685.619</ele>
        <time>2011-04-16T10:22:05Z</time>
      </trkpt>
      <trkpt lat="42.675170" lon="-2.694160">
        <ele>687.078</ele>
        <time>2011-04-16T10:22:15Z</time>
      </trkpt>
      <trkpt lat="42.675100" lon="-2.694060">
        <ele>690.455</ele>
        <time>2011-04-16T10:22:25Z</time>
      </trkpt>
      <trkpt lat="42.675040" lon="-2.693960">
        <ele>691.872</ele>
        <time>2011-04-16T10:22:35Z</time>
      </trkpt>
      <trkpt lat="42.674970" lon="-2.693860">
        <ele>694.788</ele>
        <time>2011-04-16T10:22:46Z</time>
      </trkpt>
      <trkpt lat="42.674910" lon="-2.693760">
        <ele>696.195</ele>
        <time>2011-04-16T10:22:57Z</time>
      </trkpt>
      <trkpt lat="42.674850" lon="-2.693670">
        <ele>698.161</ele>
        <time>2011-04-16T10:23:08Z</time>
      </trkpt>
      <trkpt lat="42.674800" lon="-2.693570">
        <ele>699.521</ele>
        <time>2011-04-16T10:23:17Z</time>
      </trkpt>
      <trkpt lat="42.674740" lon="-2.693470">
        <ele>700.513</ele>
        <time>2011-04-16T10:23:26Z</time>
      </trkpt>
      <trkpt lat="42.674690" lon="-2.693370">
        <ele>702.407</ele>
        <time>2011-04-16T10:23:36Z</time>
      </trkpt>
      <trkpt lat="42.674630" lon="-2.693270">
        <ele>704.858</ele>
        <time>2011-04-16T10:23:47Z</time>
      </trkpt>
      <trkpt lat="42.674570" lon="-2.693170">
        <ele>706.239</ele>
        <time>2011-04-16T10:23:58Z</time>
      </trkpt>
      <trkpt lat="42.674510" lon="-2.693080">
        <ele>708.138</ele>
        <time>2011-04-16T10:24:09Z</time>
      </trkpt>
      <trkpt lat="42.674450" lon="-2.692980">
        <ele>710.155</ele>
        <time>2011-04-16T10:24:20Z</time>
      </trkpt>
      <trkpt lat="42.674400" lon="-2.692880">
        <ele>712.072</ele>
        <time>2011-04-16T10:24:30Z</time>
      </trkpt>
      <trkpt lat="42.674340" lon="-2.692780">
        <ele>712.588</ele>
        <time>2011-04-16T10:24:41Z</time>
      </trkpt>
      <trkpt lat="42.674280" lon="-2.692670">
        <ele>713.915</ele>
        <time>2011-04-16T10:24:51Z</time>
      </trkpt>
      <trkpt lat="42.674220" lon="-2.692560">
        <ele>715.996</ele>
        <time>2011-04-16T10:25:01Z</time>
      </trkpt>
      <trkpt lat="42.674170" lon="-2.692450">
        <ele>716.831</ele>
        <time>2011-04-16T10:25:11Z</time>
      </trkpt>
      <trkpt lat="42.674140" lon="-2.692340">
        <ele>719.724</ele>
        <time>2011-04-16T10:25:22Z</time>
      </trkpt>
      <trkpt lat="42.674130" lon="-2.692200">
        <ele>722.607</ele>
        <time>2011-04-16T10:25:34Z</time>
      </trkpt>
      <trkpt lat="42.674120" lon="-2.692080">
        <ele>725.091</ele>
        <time>2011-04-16T10:25:45Z</time>
      </trkpt>
      <trkpt lat="42.674120" lon="-2.691950">
        <ele>726.952</ele>
        <time>2011-04-16T10:25:56Z</time>
      </trkpt>
      <trkpt lat="42.674110" lon="-2.691830">
        <ele>729.371</ele>
        <time>2011-04-16T10:26:07Z</time>
      </trkpt>
      <trkpt lat="42.674100" lon="-2.691700">
        <ele>732.218</ele>
        <time>2011-04-16T10:26:18Z</time>
      </trkpt>
      <trkpt lat="42.674100" lon="-2.691570">
        <ele>734.135</ele>
        <time>2011-04-16T10:26:29Z</time>
      </trkpt>
      <trkpt lat="42.674100" lon="-2.691440">
        <ele>737.581</ele>
        <time>2011-04-16T10:26:42Z</time>
      </trkpt>
      <trkpt lat="42.674080" lon="-2.691320">
        <ele>740.418</ele>
        <time>2011-04-16T10:26:56Z</time>
      </trkpt>
      <trkpt lat="42.674070" lon="-2.691210">
        <ele>744.763</ele>
        <time>2011-04-16T10:27:12Z</time>
      </trkpt>
      <trkpt lat="42.674060" lon="-2.691080">
        <ele>747.144</ele>
        <time>2011-04-16T10:27:27Z</time>
      </trkpt>
      <trkpt lat="42.674020" lon="-2.690970">
        <ele>750.418</ele>
        <time>2011-04-16T10:27:41Z</time>
      </trkpt>
      <trkpt lat="42.673970" lon="-2.690900">
        <ele>749.507</ele>
        <time>2011-04-16T10:28:39Z</time>
      </trkpt>
      <trkpt lat="42.673960" lon="-2.690880">
        <ele>751.998</ele>
        <time>2011-04-16T10:30:07Z</time>
      </trkpt>
      <trkpt lat="42.673910" lon="-2.690770">
        <ele>751.479</ele>
        <time>2011-04-16T10:30:18Z</time>
      </trkpt>
      <trkpt lat="42.673850" lon="-2.690660">
        <ele>752.458</ele>
        <time>2011-04-16T10:30:28Z</time>
      </trkpt>
      <trkpt lat="42.673790" lon="-2.690550">
        <ele>752.945</ele>
        <time>2011-04-16T10:30:38Z</time>
      </trkpt>
      <trkpt lat="42.673720" lon="-2.690450">
        <ele>753.852</ele>
        <time>2011-04-16T10:30:47Z</time>
      </trkpt>
      <trkpt lat="42.673670" lon="-2.690340">
        <ele>755.348</ele>
        <time>2011-04-16T10:30:57Z</time>
      </trkpt>
      <trkpt lat="42.673610" lon="-2.690240">
        <ele>756.265</ele>
        <time>2011-04-16T10:31:07Z</time>
      </trkpt>
      <trkpt lat="42.673550" lon="-2.690140">
        <ele>757.252</ele>
        <time>2011-04-16T10:31:17Z</time>
      </trkpt>
      <trkpt lat="42.673500" lon="-2.690020">
        <ele>759.653</ele>
        <time>2011-04-16T10:31:28Z</time>
      </trkpt>
      <trkpt lat="42.673450" lon="-2.689910">
        <ele>761.008</ele>
        <time>2011-04-16T10:31:38Z</time>
      </trkpt>
      <trkpt lat="42.673390" lon="-2.689820">
        <ele>762.507</ele>
        <time>2011-04-16T10:31:47Z</time>
      </trkpt>
      <trkpt lat="42.673320" lon="-2.689730">
        <ele>763.427</ele>
        <time>2011-04-16T10:31:56Z</time>
      </trkpt>
      <trkpt lat="42.673250" lon="-2.689640">
        <ele>764.418</ele>
        <time>2011-04-16T10:32:06Z</time>
      </trkpt>
      <trkpt lat="42.673180" lon="-2.689540">
        <ele>765.887</ele>
        <time>2011-04-16T10:32:16Z</time>
      </trkpt>
      <trkpt lat="42.673120" lon="-2.689430">
        <ele>767.334</ele>
        <time>2011-04-16T10:32:26Z</time>
      </trkpt>
      <trkpt lat="42.673060" lon="-2.689320">
        <ele>768.211</ele>
        <time>2011-04-16T10:32:35Z</time>
      </trkpt>
      <trkpt lat="42.673010" lon="-2.689210">
        <ele>769.757</ele>
        <time>2011-04-16T10:32:44Z</time>
      </trkpt>
      <trkpt lat="42.672990" lon="-2.689100">
        <ele>771.624</ele>
        <time>2011-04-16T10:32:53Z</time>
      </trkpt>
      <trkpt lat="42.672980" lon="-2.688970">
        <ele>772.116</ele>
        <time>2011-04-16T10:33:02Z</time>
      </trkpt>
      <trkpt lat="42.672990" lon="-2.688850">
        <ele>772.176</ele>
        <time>2011-04-16T10:33:14Z</time>
      </trkpt>
      <trkpt lat="42.673010" lon="-2.688720">
        <ele>771.613</ele>
        <time>2011-04-16T10:33:24Z</time>
      </trkpt>
      <trkpt lat="42.673020" lon="-2.688580">
        <ele>771.107</ele>
        <time>2011-04-16T10:33:33Z</time>
      </trkpt>
      <trkpt lat="42.673050" lon="-2.688460">
        <ele>770.193</ele>
        <time>2011-04-16T10:33:41Z</time>
      </trkpt>
      <trkpt lat="42.673070" lon="-2.688330">
        <ele>770.174</ele>
        <time>2011-04-16T10:33:49Z</time>
      </trkpt>
      <trkpt lat="42.673100" lon="-2.688200">
        <ele>769.263</ele>
        <time>2011-04-16T10:33:57Z</time>
      </trkpt>
      <trkpt lat="42.673130" lon="-2.688080">
        <ele>769.270</ele>
        <time>2011-04-16T10:34:05Z</time>
      </trkpt>
      <trkpt lat="42.673140" lon="-2.687950">
        <ele>768.237</ele>
        <time>2011-04-16T10:34:13Z</time>
      </trkpt>
      <trkpt lat="42.673140" lon="-2.687830">
        <ele>767.333</ele>
        <time>2011-04-16T10:34:22Z</time>
      </trkpt>
      <trkpt lat="42.673140" lon="-2.687690">
        <ele>765.810</ele>
        <time>2011-04-16T10:34:32Z</time>
      </trkpt>
      <trkpt lat="42.673140" lon="-2.687570">
        <ele>764.961</ele>
        <time>2011-04-16T10:34:42Z</time>
      </trkpt>
      <trkpt lat="42.673140" lon="-2.687430">
        <ele>763.921</ele>
        <time>2011-04-16T10:34:52Z</time>
      </trkpt>
      <trkpt lat="42.673140" lon="-2.687300">
        <ele>762.913</ele>
        <time>2011-04-16T10:35:01Z</time>
      </trkpt>
      <trkpt lat="42.673130" lon="-2.687180">
        <ele>762.507</ele>
        <time>2011-04-16T10:35:11Z</time>
      </trkpt>
      <trkpt lat="42.673130" lon="-2.687060">
        <ele>762.028</ele>
        <time>2011-04-16T10:35:31Z</time>
      </trkpt>
      <trkpt lat="42.673110" lon="-2.686930">
        <ele>762.559</ele>
        <time>2011-04-16T10:35:40Z</time>
      </trkpt>
      <trkpt lat="42.673060" lon="-2.686820">
        <ele>762.578</ele>
        <time>2011-04-16T10:35:50Z</time>
      </trkpt>
      <trkpt lat="42.673010" lon="-2.686710">
        <ele>763.995</ele>
        <time>2011-04-16T10:36:00Z</time>
      </trkpt>
      <trkpt lat="42.672960" lon="-2.686610">
        <ele>764.992</ele>
        <time>2011-04-16T10:36:10Z</time>
      </trkpt>
      <trkpt lat="42.672900" lon="-2.686510">
        <ele>765.418</ele>
        <time>2011-04-16T10:36:20Z</time>
      </trkpt>
      <trkpt lat="42.672840" lon="-2.686400">
        <ele>766.385</ele>
        <time>2011-04-16T10:36:30Z</time>
      </trkpt>
      <trkpt lat="42.672770" lon="-2.686300">
        <ele>768.743</ele>
        <time>2011-04-16T10:36:41Z</time>
      </trkpt>
      <trkpt lat="42.672710" lon="-2.686210">
        <ele>770.164</ele>
        <time>2011-04-16T10:36:50Z</time>
      </trkpt>
      <trkpt lat="42.672650" lon="-2.686110">
        <ele>771.610</ele>
        <time>2011-04-16T10:37:00Z</time>
      </trkpt>
      <trkpt lat="42.672590" lon="-2.686000">
        <ele>772.507</ele>
        <time>2011-04-16T10:37:10Z</time>
      </trkpt>
      <trkpt lat="42.672530" lon="-2.685910">
        <ele>775.426</ele>
        <time>2011-04-16T10:37:20Z</time>
      </trkpt>
      <trkpt lat="42.672470" lon="-2.685820">
        <ele>776.417</ele>
        <time>2011-04-16T10:37:31Z</time>
      </trkpt>
      <trkpt lat="42.672390" lon="-2.685740">
        <ele>777.446</ele>
        <time>2011-04-16T10:37:43Z</time>
      </trkpt>
      <trkpt lat="42.672320" lon="-2.685660">
        <ele>779.393</ele>
        <time>2011-04-16T10:37:53Z</time>
      </trkpt>
      <trkpt lat="42.672260" lon="-2.685580">
        <ele>780.730</ele>
        <time>2011-04-16T10:38:11Z</time>
      </trkpt>
      <trkpt lat="42.672190" lon="-2.685480">
        <ele>782.216</ele>
        <time>2011-04-16T10:38:19Z</time>
      </trkpt>
      <trkpt lat="42.672140" lon="-2.685390">
        <ele>783.173</ele>
        <time>2011-04-16T10:38:27Z</time>
      </trkpt>
      <trkpt lat="42.672090" lon="-2.685290">
        <ele>784.621</ele>
        <time>2011-04-16T10:38:36Z</time>
      </trkpt>
      <trkpt lat="42.672030" lon="-2.685170">
        <ele>785.541</ele>
        <time>2011-04-16T10:38:46Z</time>
      </trkpt>
      <trkpt lat="42.671980" lon="-2.685070">
        <ele>787.005</ele>
        <time>2011-04-16T10:38:56Z</time>
      </trkpt>
      <trkpt lat="42.671940" lon="-2.684970">
        <ele>787.907</ele>
        <time>2011-04-16T10:39:08Z</time>
      </trkpt>
      <trkpt lat="42.671870" lon="-2.684850">
        <ele>788.914</ele>
        <time>2011-04-16T10:39:18Z</time>
      </trkpt>
      <trkpt lat="42.671830" lon="-2.684730">
        <ele>789.985</ele>
        <time>2011-04-16T10:39:28Z</time>
      </trkpt>
      <trkpt lat="42.671780" lon="-2.684610">
        <ele>790.374</ele>
        <time>2011-04-16T10:39:36Z</time>
      </trkpt>
      <trkpt lat="42.671740" lon="-2.684480">
        <ele>791.351</ele>
        <time>2011-04-16T10:39:44Z</time>
      </trkpt>
      <trkpt lat="42.671690" lon="-2.684360">
        <ele>790.888</ele>
        <time>2011-04-16T10:39:52Z</time>
      </trkpt>
      <trkpt lat="42.671640" lon="-2.684240">
        <ele>792.314</ele>
        <time>2011-04-16T10:39:59Z</time>
      </trkpt>
      <trkpt lat="42.671600" lon="-2.684130">
        <ele>793.231</ele>
        <time>2011-04-16T10:40:05Z</time>
      </trkpt>
      <trkpt lat="42.671570" lon="-2.684000">
        <ele>793.274</ele>
        <time>2011-04-16T10:40:12Z</time>
      </trkpt>
      <trkpt lat="42.671560" lon="-2.683880">
        <ele>793.256</ele>
        <time>2011-04-16T10:40:19Z</time>
      </trkpt>
      <trkpt lat="42.671560" lon="-2.683750">
        <ele>792.821</ele>
        <time>2011-04-16T10:40:26Z</time>
      </trkpt>
      <trkpt lat="42.671580" lon="-2.683610">
        <ele>792.307</ele>
        <time>2011-04-16T10:40:34Z</time>
      </trkpt>
      <trkpt lat="42.671580" lon="-2.683480">
        <ele>792.839</ele>
        <time>2011-04-16T10:40:41Z</time>
      </trkpt>
      <trkpt lat="42.671580" lon="-2.683360">
        <ele>792.330</ele>
        <time>2011-04-16T10:40:47Z</time>
      </trkpt>
      <trkpt lat="42.671570" lon="-2.683230">
        <ele>792.379</ele>
        <time>2011-04-16T10:40:55Z</time>
      </trkpt>
      <trkpt lat="42.671560" lon="-2.683100">
        <ele>791.846</ele>
        <time>2011-04-16T10:41:03Z</time>
      </trkpt>
      <trkpt lat="42.671560" lon="-2.682970">
        <ele>791.813</ele>
        <time>2011-04-16T10:41:11Z</time>
      </trkpt>
      <trkpt lat="42.671550" lon="-2.682850">
        <ele>791.349</ele>
        <time>2011-04-16T10:41:17Z</time>
      </trkpt>
      <trkpt lat="42.671520" lon="-2.682730">
        <ele>791.846</ele>
        <time>2011-04-16T10:41:24Z</time>
      </trkpt>
      <trkpt lat="42.671500" lon="-2.682600">
        <ele>791.842</ele>
        <time>2011-04-16T10:41:31Z</time>
      </trkpt>
      <trkpt lat="42.671480" lon="-2.682470">
        <ele>792.322</ele>
        <time>2011-04-16T10:41:38Z</time>
      </trkpt>
      <trkpt lat="42.671460" lon="-2.682340">
        <ele>792.314</ele>
        <time>2011-04-16T10:41:45Z</time>
      </trkpt>
      <trkpt lat="42.671440" lon="-2.682200">
        <ele>792.807</ele>
        <time>2011-04-16T10:41:52Z</time>
      </trkpt>
      <trkpt lat="42.671420" lon="-2.682070">
        <ele>792.816</ele>
        <time>2011-04-16T10:42:00Z</time>
      </trkpt>
      <trkpt lat="42.671390" lon="-2.681920">
        <ele>793.287</ele>
        <time>2011-04-16T10:42:08Z</time>
      </trkpt>
      <trkpt lat="42.671360" lon="-2.681800">
        <ele>794.756</ele>
        <time>2011-04-16T10:42:15Z</time>
      </trkpt>
      <trkpt lat="42.671330" lon="-2.681680">
        <ele>795.293</ele>
        <time>2011-04-16T10:42:23Z</time>
      </trkpt>
      <trkpt lat="42.671310" lon="-2.681550">
        <ele>796.110</ele>
        <time>2011-04-16T10:42:32Z</time>
      </trkpt>
      <trkpt lat="42.671280" lon="-2.681410">
        <ele>796.116</ele>
        <time>2011-04-16T10:42:41Z</time>
      </trkpt>
      <trkpt lat="42.671250" lon="-2.681290">
        <ele>797.193</ele>
        <time>2011-04-16T10:42:49Z</time>
      </trkpt>
      <trkpt lat="42.671230" lon="-2.681170">
        <ele>797.587</ele>
        <time>2011-04-16T10:42:55Z</time>
      </trkpt>
      <trkpt lat="42.671200" lon="-2.681040">
        <ele>797.542</ele>
        <time>2011-04-16T10:43:02Z</time>
      </trkpt>
      <trkpt lat="42.671180" lon="-2.680900">
        <ele>797.126</ele>
        <time>2011-04-16T10:43:09Z</time>
      </trkpt>
      <trkpt lat="42.671160" lon="-2.680780">
        <ele>798.007</ele>
        <time>2011-04-16T10:43:16Z</time>
      </trkpt>
      <trkpt lat="42.671140" lon="-2.680660">
        <ele>797.540</ele>
        <time>2011-04-16T10:43:23Z</time>
      </trkpt>
      <trkpt lat="42.671130" lon="-2.680530">
        <ele>797.561</ele>
        <time>2011-04-16T10:43:31Z</time>
      </trkpt>
      <trkpt lat="42.671140" lon="-2.680400">
        <ele>797.550</ele>
        <time>2011-04-16T10:43:38Z</time>
      </trkpt>
      <trkpt lat="42.671140" lon="-2.680280">
        <ele>797.167</ele>
        <time>2011-04-16T10:43:45Z</time>
      </trkpt>
      <trkpt lat="42.671170" lon="-2.680140">
        <ele>796.134</ele>
        <time>2011-04-16T10:43:53Z</time>
      </trkpt>
      <trkpt lat="42.671190" lon="-2.680020">
        <ele>794.780</ele>
        <time>2011-04-16T10:44:00Z</time>
      </trkpt>
      <trkpt lat="42.671210" lon="-2.679900">
        <ele>794.717</ele>
        <time>2011-04-16T10:44:07Z</time>
      </trkpt>
      <trkpt lat="42.671240" lon="-2.679790">
        <ele>793.761</ele>
        <time>2011-04-16T10:44:14Z</time>
      </trkpt>
      <trkpt lat="42.671280" lon="-2.679680">
        <ele>792.321</ele>
        <time>2011-04-16T10:44:21Z</time>
      </trkpt>
      <trkpt lat="42.671320" lon="-2.679550">
        <ele>791.313</ele>
        <time>2011-04-16T10:44:29Z</time>
      </trkpt>
      <trkpt lat="42.671370" lon="-2.679440">
        <ele>790.307</ele>
        <time>2011-04-16T10:44:36Z</time>
      </trkpt>
      <trkpt lat="42.671420" lon="-2.679330">
        <ele>789.448</ele>
        <time>2011-04-16T10:44:44Z</time>
      </trkpt>
      <trkpt lat="42.671460" lon="-2.679210">
        <ele>788.439</ele>
        <time>2011-04-16T10:44:52Z</time>
      </trkpt>
      <trkpt lat="42.671500" lon="-2.679090">
        <ele>786.598</ele>
        <time>2011-04-16T10:45:00Z</time>
      </trkpt>
      <trkpt lat="42.671500" lon="-2.678980">
        <ele>785.545</ele>
        <time>2011-04-16T10:45:08Z</time>
      </trkpt>
      <trkpt lat="42.671400" lon="-2.678950">
        <ele>783.672</ele>
        <time>2011-04-16T10:45:18Z</time>
      </trkpt>
      <trkpt lat="42.671360" lon="-2.678840">
        <ele>779.328</ele>
        <time>2011-04-16T10:45:28Z</time>
      </trkpt>
      <trkpt lat="42.671390" lon="-2.678710">
        <ele>779.845</ele>
        <time>2011-04-16T10:45:36Z</time>
      </trkpt>
      <trkpt lat="42.671410" lon="-2.678590">
        <ele>778.881</ele>
        <time>2011-04-16T10:45:44Z</time>
      </trkpt>
      <trkpt lat="42.671420" lon="-2.678460">
        <ele>778.361</ele>
        <time>2011-04-16T10:45:52Z</time>
      </trkpt>
      <trkpt lat="42.671450" lon="-2.678330">
        <ele>777.417</ele>
        <time>2011-04-16T10:46:00Z</time>
      </trkpt>
      <trkpt lat="42.671470" lon="-2.678200">
        <ele>775.907</ele>
        <time>2011-04-16T10:46:08Z</time>
      </trkpt>
      <trkpt lat="42.671400" lon="-2.678110">
        <ele>774.090</ele>
        <time>2011-04-16T10:46:17Z</time>
      </trkpt>
      <trkpt lat="42.671320" lon="-2.678050">
        <ele>772.531</ele>
        <time>2011-04-16T10:46:26Z</time>
      </trkpt>
      <trkpt lat="42.671230" lon="-2.677990">
        <ele>769.710</ele>
        <time>2011-04-16T10:46:35Z</time>
      </trkpt>
      <trkpt lat="42.671150" lon="-2.677930">
        <ele>768.737</ele>
        <time>2011-04-16T10:46:43Z</time>
      </trkpt>
      <trkpt lat="42.671070" lon="-2.677880">
        <ele>768.244</ele>
        <time>2011-04-16T10:46:51Z</time>
      </trkpt>
      <trkpt lat="42.670990" lon="-2.677830">
        <ele>767.310</ele>
        <time>2011-04-16T10:47:00Z</time>
      </trkpt>
      <trkpt lat="42.670900" lon="-2.677770">
        <ele>766.337</ele>
        <time>2011-04-16T10:47:09Z</time>
      </trkpt>
      <trkpt lat="42.670820" lon="-2.677730">
        <ele>764.962</ele>
        <time>2011-04-16T10:47:17Z</time>
      </trkpt>
      <trkpt lat="42.670730" lon="-2.677670">
        <ele>762.983</ele>
        <time>2011-04-16T10:47:25Z</time>
      </trkpt>
      <trkpt lat="42.670650" lon="-2.677610">
        <ele>762.011</ele>
        <time>2011-04-16T10:47:32Z</time>
      </trkpt>
      <trkpt lat="42.670560" lon="-2.677620">
        <ele>762.507</ele>
        <time>2011-04-16T10:47:40Z</time>
      </trkpt>
      <trkpt lat="42.670500" lon="-2.677710">
        <ele>762.948</ele>
        <time>2011-04-16T10:47:48Z</time>
      </trkpt>
      <trkpt lat="42.670460" lon="-2.677830">
        <ele>764.479</ele>
        <time>2011-04-16T10:47:57Z</time>
      </trkpt>
      <trkpt lat="42.670420" lon="-2.677940">
        <ele>765.818</ele>
        <time>2011-04-16T10:48:05Z</time>
      </trkpt>
      <trkpt lat="42.670380" lon="-2.678070">
        <ele>765.855</ele>
        <time>2011-04-16T10:48:14Z</time>
      </trkpt>
      <trkpt lat="42.670340" lon="-2.678190">
        <ele>766.342</ele>
        <time>2011-04-16T10:48:23Z</time>
      </trkpt>
      <trkpt lat="42.670270" lon="-2.678210">
        <ele>766.358</ele>
        <time>2011-04-16T10:48:35Z</time>
      </trkpt>
      <trkpt lat="42.670170" lon="-2.678170">
        <ele>765.865</ele>
        <time>2011-04-16T10:48:45Z</time>
      </trkpt>
      <trkpt lat="42.670080" lon="-2.678160">
        <ele>763.977</ele>
        <time>2011-04-16T10:48:54Z</time>
      </trkpt>
      <trkpt lat="42.669980" lon="-2.678140">
        <ele>763.961</ele>
        <time>2011-04-16T10:49:03Z</time>
      </trkpt>
      <trkpt lat="42.669890" lon="-2.678110">
        <ele>764.427</ele>
        <time>2011-04-16T10:49:13Z</time>
      </trkpt>
      <trkpt lat="42.669790" lon="-2.678070">
        <ele>765.807</ele>
        <time>2011-04-16T10:49:23Z</time>
      </trkpt>
      <trkpt lat="42.669690" lon="-2.678060">
        <ele>766.889</ele>
        <time>2011-04-16T10:49:33Z</time>
      </trkpt>
      <trkpt lat="42.669590" lon="-2.678070">
        <ele>768.750</ele>
        <time>2011-04-16T10:49:43Z</time>
      </trkpt>
      <trkpt lat="42.669490" lon="-2.678070">
        <ele>770.629</ele>
        <time>2011-04-16T10:49:53Z</time>
      </trkpt>
      <trkpt lat="42.669400" lon="-2.678080">
        <ele>771.126</ele>
        <time>2011-04-16T10:50:03Z</time>
      </trkpt>
      <trkpt lat="42.669340" lon="-2.678010">
        <ele>772.173</ele>
        <time>2011-04-16T10:50:16Z</time>
      </trkpt>
      <trkpt lat="42.669300" lon="-2.677900">
        <ele>772.179</ele>
        <time>2011-04-16T10:50:28Z</time>
      </trkpt>
      <trkpt lat="42.669300" lon="-2.677770">
        <ele>772.536</ele>
        <time>2011-04-16T10:50:38Z</time>
      </trkpt>
      <trkpt lat="42.669290" lon="-2.677670">
        <ele>772.551</ele>
        <time>2011-04-16T10:50:54Z</time>
      </trkpt>
      <trkpt lat="42.669290" lon="-2.677540">
        <ele>773.001</ele>
        <time>2011-04-16T10:51:04Z</time>
      </trkpt>
      <trkpt lat="42.669330" lon="-2.677430">
        <ele>773.011</ele>
        <time>2011-04-16T10:51:13Z</time>
      </trkpt>
      <trkpt lat="42.669330" lon="-2.677300">
        <ele>772.507</ele>
        <time>2011-04-16T10:51:21Z</time>
      </trkpt>
      <trkpt lat="42.669310" lon="-2.677190">
        <ele>772.587</ele>
        <time>2011-04-16T10:51:29Z</time>
      </trkpt>
      <trkpt lat="42.669300" lon="-2.677070">
        <ele>772.588</ele>
        <time>2011-04-16T10:51:38Z</time>
      </trkpt>
      <trkpt lat="42.669350" lon="-2.676970">
        <ele>772.167</ele>
        <time>2011-04-16T10:51:47Z</time>
      </trkpt>
      <trkpt lat="42.669380" lon="-2.676840">
        <ele>772.154</ele>
        <time>2011-04-16T10:51:56Z</time>
      </trkpt>
      <trkpt lat="42.669430" lon="-2.676730">
        <ele>771.131</ele>
        <time>2011-04-16T10:52:05Z</time>
      </trkpt>
      <trkpt lat="42.669450" lon="-2.676620">
        <ele>770.197</ele>
        <time>2011-04-16T10:52:14Z</time>
      </trkpt>
      <trkpt lat="42.669460" lon="-2.676480">
        <ele>769.284</ele>
        <time>2011-04-16T10:52:24Z</time>
      </trkpt>
      <trkpt lat="42.669390" lon="-2.676550">
        <ele>770.647</ele>
        <time>2011-04-16T10:52:34Z</time>
      </trkpt>
      <trkpt lat="42.669310" lon="-2.676620">
        <ele>771.629</ele>
        <time>2011-04-16T10:52:44Z</time>
      </trkpt>
      <trkpt lat="42.669250" lon="-2.676520">
        <ele>768.221</ele>
        <time>2011-04-16T10:52:57Z</time>
      </trkpt>
      <trkpt lat="42.669180" lon="-2.676430">
        <ele>764.907</ele>
        <time>2011-04-16T10:53:07Z</time>
      </trkpt>
      <trkpt lat="42.669170" lon="-2.676300">
        <ele>764.446</ele>
        <time>2011-04-16T10:53:18Z</time>
      </trkpt>
      <trkpt lat="42.669180" lon="-2.676180">
        <ele>763.977</ele>
        <time>2011-04-16T10:53:28Z</time>
      </trkpt>
      <trkpt lat="42.669180" lon="-2.676050">
        <ele>763.436</ele>
        <time>2011-04-16T10:53:37Z</time>
      </trkpt>
      <trkpt lat="42.669190" lon="-2.675920">
        <ele>762.923</ele>
        <time>2011-04-16T10:53:46Z</time>
      </trkpt>
      <trkpt lat="42.669200" lon="-2.675790">
        <ele>762.550</ele>
        <time>2011-04-16T10:53:59Z</time>
      </trkpt>
      <trkpt lat="42.669210" lon="-2.675660">
        <ele>762.096</ele>
        <time>2011-04-16T10:54:11Z</time>
      </trkpt>
      <trkpt lat="42.669230" lon="-2.675540">
        <ele>762.563</ele>
        <time>2011-04-16T10:54:20Z</time>
      </trkpt>
      <trkpt lat="42.669270" lon="-2.675430">
        <ele>762.596</ele>
        <time>2011-04-16T10:54:29Z</time>
      </trkpt>
      <trkpt lat="42.669280" lon="-2.675310">
        <ele>762.031</ele>
        <time>2011-04-16T10:54:38Z</time>
      </trkpt>
      <trkpt lat="42.669270" lon="-2.675170">
        <ele>762.024</ele>
        <time>2011-04-16T10:54:47Z</time>
      </trkpt>
      <trkpt lat="42.669270" lon="-2.675040">
        <ele>762.507</ele>
        <time>2011-04-16T10:54:56Z</time>
      </trkpt>
      <trkpt lat="42.669270" lon="-2.674920">
        <ele>762.991</ele>
        <time>2011-04-16T10:55:05Z</time>
      </trkpt>
      <trkpt lat="42.669220" lon="-2.674820">
        <ele>762.042</ele>
        <time>2011-04-16T10:55:14Z</time>
      </trkpt>
      <trkpt lat="42.669150" lon="-2.674720">
        <ele>761.531</ele>
        <time>2011-04-16T10:55:23Z</time>
      </trkpt>
      <trkpt lat="42.669080" lon="-2.674630">
        <ele>761.058</ele>
        <time>2011-04-16T10:55:32Z</time>
      </trkpt>
      <trkpt lat="42.669020" lon="-2.674520">
        <ele>761.525</ele>
        <time>2011-04-16T10:55:41Z</time>
      </trkpt>
      <trkpt lat="42.668980" lon="-2.674400">
        <ele>761.561</ele>
        <time>2011-04-16T10:55:50Z</time>
      </trkpt>
      <trkpt lat="42.668960" lon="-2.674270">
        <ele>761.528</ele>
        <time>2011-04-16T10:55:59Z</time>
      </trkpt>
      <trkpt lat="42.668980" lon="-2.674140">
        <ele>762.537</ele>
        <time>2011-04-16T10:56:09Z</time>
      </trkpt>
      <trkpt lat="42.668960" lon="-2.674020">
        <ele>762.549</ele>
        <time>2011-04-16T10:56:18Z</time>
      </trkpt>
      <trkpt lat="42.668960" lon="-2.673890">
        <ele>763.913</ele>
        <time>2011-04-16T10:56:27Z</time>
      </trkpt>
      <trkpt lat="42.668960" lon="-2.673770">
        <ele>764.407</ele>
        <time>2011-04-16T10:56:36Z</time>
      </trkpt>
      <trkpt lat="42.668950" lon="-2.673650">
        <ele>764.465</ele>
        <time>2011-04-16T10:56:50Z</time>
      </trkpt>
      <trkpt lat="42.668940" lon="-2.673530">
        <ele>762.996</ele>
        <time>2011-04-16T10:57:00Z</time>
      </trkpt>
      <trkpt lat="42.668950" lon="-2.673410">
        <ele>762.915</ele>
        <time>2011-04-16T10:57:09Z</time>
      </trkpt>
      <trkpt lat="42.668960" lon="-2.673280">
        <ele>762.542</ele>
        <time>2011-04-16T10:57:18Z</time>
      </trkpt>
      <trkpt lat="42.668970" lon="-2.673160">
        <ele>762.929</ele>
        <time>2011-04-16T10:57:27Z</time>
      </trkpt>
      <trkpt lat="42.668950" lon="-2.673030">
        <ele>761.545</ele>
        <time>2011-04-16T10:57:37Z</time>
      </trkpt>
      <trkpt lat="42.668960" lon="-2.672900">
        <ele>761.542</ele>
        <time>2011-04-16T10:57:46Z</time>
      </trkpt>
      <trkpt lat="42.669000" lon="-2.672790">
        <ele>761.064</ele>
        <time>2011-04-16T10:57:56Z</time>
      </trkpt>
      <trkpt lat="42.669060" lon="-2.672700">
        <ele>762.506</ele>
        <time>2011-04-16T10:58:06Z</time>
      </trkpt>
      <trkpt lat="42.669120" lon="-2.672610">
        <ele>763.416</ele>
        <time>2011-04-16T10:58:16Z</time>
      </trkpt>
      <trkpt lat="42.669170" lon="-2.672500">
        <ele>762.907</ele>
        <time>2011-04-16T10:58:26Z</time>
      </trkpt>
      <trkpt lat="42.669200" lon="-2.672390">
        <ele>762.588</ele>
        <time>2011-04-16T10:58:35Z</time>
      </trkpt>
      <trkpt lat="42.669220" lon="-2.672270">
        <ele>761.519</ele>
        <time>2011-04-16T10:58:45Z</time>
      </trkpt>
      <trkpt lat="42.669270" lon="-2.672160">
        <ele>761.058</ele>
        <time>2011-04-16T10:58:54Z</time>
      </trkpt>
      <trkpt lat="42.669330" lon="-2.672060">
        <ele>761.065</ele>
        <time>2011-04-16T10:59:03Z</time>
      </trkpt>
      <trkpt lat="42.669390" lon="-2.671970">
        <ele>761.092</ele>
        <time>2011-04-16T10:59:12Z</time>
      </trkpt>
      <trkpt lat="42.669430" lon="-2.671850">
        <ele>760.518</ele>
        <time>2011-04-16T10:59:21Z</time>
      </trkpt>
      <trkpt lat="42.669450" lon="-2.671730">
        <ele>760.055</ele>
        <time>2011-04-16T10:59:29Z</time>
      </trkpt>
      <trkpt lat="42.669490" lon="-2.671610">
        <ele>758.126</ele>
        <time>2011-04-16T10:59:37Z</time>
      </trkpt>
      <trkpt lat="42.669520" lon="-2.671490">
        <ele>757.647</ele>
        <time>2011-04-16T10:59:45Z</time>
      </trkpt>
      <trkpt lat="42.669560" lon="-2.671370">
        <ele>757.211</ele>
        <time>2011-04-16T10:59:53Z</time>
      </trkpt>
      <trkpt lat="42.669610" lon="-2.671260">
        <ele>756.707</ele>
        <time>2011-04-16T11:00:05Z</time>
      </trkpt>
      <trkpt lat="42.669640" lon="-2.671130">
        <ele>756.784</ele>
        <time>2011-04-16T11:00:13Z</time>
      </trkpt>
      <trkpt lat="42.669670" lon="-2.671020">
        <ele>755.785</ele>
        <time>2011-04-16T11:00:21Z</time>
      </trkpt>
      <trkpt lat="42.669700" lon="-2.670890">
        <ele>755.784</ele>
        <time>2011-04-16T11:00:29Z</time>
      </trkpt>
      <trkpt lat="42.669700" lon="-2.670770">
        <ele>753.861</ele>
        <time>2011-04-16T11:00:37Z</time>
      </trkpt>
      <trkpt lat="42.669690" lon="-2.670640">
        <ele>753.398</ele>
        <time>2011-04-16T11:00:45Z</time>
      </trkpt>
      <trkpt lat="42.669690" lon="-2.670510">
        <ele>752.434</ele>
        <time>2011-04-16T11:00:53Z</time>
      </trkpt>
      <trkpt lat="42.669710" lon="-2.670390">
        <ele>753.371</ele>
        <time>2011-04-16T11:01:01Z</time>
      </trkpt>
      <trkpt lat="42.669730" lon="-2.670270">
        <ele>754.312</ele>
        <time>2011-04-16T11:01:09Z</time>
      </trkpt>
      <trkpt lat="42.669730" lon="-2.670140">
        <ele>754.332</ele>
        <time>2011-04-16T11:01:17Z</time>
      </trkpt>
      <trkpt lat="42.669720" lon="-2.670020">
        <ele>755.305</ele>
        <time>2011-04-16T11:01:25Z</time>
      </trkpt>
      <trkpt lat="42.669690" lon="-2.669910">
        <ele>755.307</ele>
        <time>2011-04-16T11:01:37Z</time>
      </trkpt>
      <trkpt lat="42.669660" lon="-2.669890">
        <ele>755.353</ele>
        <time>2011-04-16T11:02:53Z</time>
      </trkpt>
      <trkpt lat="42.669660" lon="-2.669880">
        <ele>757.624</ele>
        <time>2011-04-16T11:07:54Z</time>
      </trkpt>
      <trkpt lat="42.669620" lon="-2.669760">
        <ele>757.293</ele>
        <time>2011-04-16T11:08:05Z</time>
      </trkpt>
      <trkpt lat="42.669560" lon="-2.669650">
        <ele>757.270</ele>
        <time>2011-04-16T11:08:14Z</time>
      </trkpt>
      <trkpt lat="42.669520" lon="-2.669550">
        <ele>757.287</ele>
        <time>2011-04-16T11:08:25Z</time>
      </trkpt>
      <trkpt lat="42.669500" lon="-2.669420">
        <ele>755.763</ele>
        <time>2011-04-16T11:08:34Z</time>
      </trkpt>
      <trkpt lat="42.669480" lon="-2.669300">
        <ele>755.730</ele>
        <time>2011-04-16T11:08:41Z</time>
      </trkpt>
      <trkpt lat="42.669430" lon="-2.669180">
        <ele>755.721</ele>
        <time>2011-04-16T11:08:48Z</time>
      </trkpt>
      <trkpt lat="42.669370" lon="-2.669080">
        <ele>755.341</ele>
        <time>2011-04-16T11:08:55Z</time>
      </trkpt>
      <trkpt lat="42.669310" lon="-2.668980">
        <ele>755.705</ele>
        <time>2011-04-16T11:09:02Z</time>
      </trkpt>
      <trkpt lat="42.669250" lon="-2.668880">
        <ele>755.707</ele>
        <time>2011-04-16T11:09:09Z</time>
      </trkpt>
      <trkpt lat="42.669190" lon="-2.668780">
        <ele>755.374</ele>
        <time>2011-04-16T11:09:16Z</time>
      </trkpt>
      <trkpt lat="42.669130" lon="-2.668690">
        <ele>755.785</ele>
        <time>2011-04-16T11:09:23Z</time>
      </trkpt>
      <trkpt lat="42.669060" lon="-2.668590">
        <ele>756.244</ele>
        <time>2011-04-16T11:09:30Z</time>
      </trkpt>
      <trkpt lat="42.669000" lon="-2.668490">
        <ele>756.241</ele>
        <time>2011-04-16T11:09:36Z</time>
      </trkpt>
      <trkpt lat="42.668930" lon="-2.668400">
        <ele>756.288</ele>
        <time>2011-04-16T11:09:42Z</time>
      </trkpt>
      <trkpt lat="42.668860" lon="-2.668310">
        <ele>756.764</ele>
        <time>2011-04-16T11:09:49Z</time>
      </trkpt>
      <trkpt lat="42.668780" lon="-2.668230">
        <ele>756.771</ele>
        <time>2011-04-16T11:09:56Z</time>
      </trkpt>
      <trkpt lat="42.668700" lon="-2.668140">
        <ele>757.281</ele>
        <time>2011-04-16T11:10:03Z</time>
      </trkpt>
      <trkpt lat="42.668620" lon="-2.668050">
        <ele>757.661</ele>
        <time>2011-04-16T11:10:10Z</time>
      </trkpt>
      <trkpt lat="42.668550" lon="-2.667960">
        <ele>757.617</ele>
        <time>2011-04-16T11:10:17Z</time>
      </trkpt>
      <trkpt lat="42.668470" lon="-2.667860">
        <ele>757.207</ele>
        <time>2011-04-16T11:10:24Z</time>
      </trkpt>
      <trkpt lat="42.668400" lon="-2.667770">
        <ele>757.610</ele>
        <time>2011-04-16T11:10:30Z</time>
      </trkpt>
      <trkpt lat="42.668330" lon="-2.667700">
        <ele>757.631</ele>
        <time>2011-04-16T11:10:36Z</time>
      </trkpt>
      <trkpt lat="42.668260" lon="-2.667620">
        <ele>757.610</ele>
        <time>2011-04-16T11:10:42Z</time>
      </trkpt>
      <trkpt lat="42.668190" lon="-2.667550">
        <ele>757.647</ele>
        <time>2011-04-16T11:10:48Z</time>
      </trkpt>
      <trkpt lat="42.668120" lon="-2.667470">
        <ele>757.634</ele>
        <time>2011-04-16T11:10:54Z</time>
      </trkpt>
      <trkpt lat="42.668040" lon="-2.667370">
        <ele>757.690</ele>
        <time>2011-04-16T11:11:01Z</time>
      </trkpt>
      <trkpt lat="42.667960" lon="-2.667290">
        <ele>755.747</ele>
        <time>2011-04-16T11:11:08Z</time>
      </trkpt>
      <trkpt lat="42.667890" lon="-2.667200">
        <ele>755.392</ele>
        <time>2011-04-16T11:11:15Z</time>
      </trkpt>
      <trkpt lat="42.667830" lon="-2.667090">
        <ele>754.873</ele>
        <time>2011-04-16T11:11:22Z</time>
      </trkpt>
      <trkpt lat="42.667780" lon="-2.666980">
        <ele>756.720</ele>
        <time>2011-04-16T11:11:29Z</time>
      </trkpt>
      <trkpt lat="42.667750" lon="-2.666870">
        <ele>757.607</ele>
        <time>2011-04-16T11:11:36Z</time>
      </trkpt>
      <trkpt lat="42.667700" lon="-2.666760">
        <ele>758.131</ele>
        <time>2011-04-16T11:11:44Z</time>
      </trkpt>
      <trkpt lat="42.667650" lon="-2.666650">
        <ele>760.092</ele>
        <time>2011-04-16T11:11:51Z</time>
      </trkpt>
      <trkpt lat="42.667590" lon="-2.666550">
        <ele>759.621</ele>
        <time>2011-04-16T11:11:58Z</time>
      </trkpt>
      <trkpt lat="42.667520" lon="-2.666460">
        <ele>760.548</ele>
        <time>2011-04-16T11:12:06Z</time>
      </trkpt>
      <trkpt lat="42.667440" lon="-2.666370">
        <ele>760.035</ele>
        <time>2011-04-16T11:12:13Z</time>
      </trkpt>
      <trkpt lat="42.667390" lon="-2.666280">
        <ele>760.081</ele>
        <time>2011-04-16T11:12:25Z</time>
      </trkpt>
      <trkpt lat="42.667330" lon="-2.666160">
        <ele>759.148</ele>
        <time>2011-04-16T11:12:33Z</time>
      </trkpt>
      <trkpt lat="42.667300" lon="-2.666040">
        <ele>759.662</ele>
        <time>2011-04-16T11:12:41Z</time>
      </trkpt>
      <trkpt lat="42.667270" lon="-2.665910">
        <ele>760.083</ele>
        <time>2011-04-16T11:12:49Z</time>
      </trkpt>
      <trkpt lat="42.667230" lon="-2.665790">
        <ele>761.011</ele>
        <time>2011-04-16T11:12:57Z</time>
      </trkpt>
      <trkpt lat="42.667180" lon="-2.665670">
        <ele>760.507</ele>
        <time>2011-04-16T11:13:05Z</time>
      </trkpt>
      <trkpt lat="42.667120" lon="-2.665570">
        <ele>761.028</ele>
        <time>2011-04-16T11:13:12Z</time>
      </trkpt>
      <trkpt lat="42.667070" lon="-2.665470">
        <ele>760.569</ele>
        <time>2011-04-16T11:13:19Z</time>
      </trkpt>
      <trkpt lat="42.667010" lon="-2.665370">
        <ele>760.098</ele>
        <time>2011-04-16T11:13:26Z</time>
      </trkpt>
      <trkpt lat="42.666950" lon="-2.665270">
        <ele>759.685</ele>
        <time>2011-04-16T11:13:33Z</time>
      </trkpt>
      <trkpt lat="42.666890" lon="-2.665160">
        <ele>759.682</ele>
        <time>2011-04-16T11:13:40Z</time>
      </trkpt>
      <trkpt lat="42.666840" lon="-2.665070">
        <ele>758.638</ele>
        <time>2011-04-16T11:13:47Z</time>
      </trkpt>
      <trkpt lat="42.666770" lon="-2.664980">
        <ele>758.665</ele>
        <time>2011-04-16T11:13:55Z</time>
      </trkpt>
      <trkpt lat="42.666730" lon="-2.664870">
        <ele>758.199</ele>
        <time>2011-04-16T11:14:07Z</time>
      </trkpt>
      <trkpt lat="42.666700" lon="-2.664800">
        <ele>757.607</ele>
        <time>2011-04-16T11:14:16Z</time>
      </trkpt>
      <trkpt lat="42.666720" lon="-2.664720">
        <ele>756.227</ele>
        <time>2011-04-16T11:14:31Z</time>
      </trkpt>
      <trkpt lat="42.666700" lon="-2.664600">
        <ele>755.307</ele>
        <time>2011-04-16T11:14:38Z</time>
      </trkpt>
      <trkpt lat="42.666650" lon="-2.664480">
        <ele>754.311</ele>
        <time>2011-04-16T11:14:46Z</time>
      </trkpt>
      <trkpt lat="42.666590" lon="-2.664370">
        <ele>753.842</ele>
        <time>2011-04-16T11:14:54Z</time>
      </trkpt>
      <trkpt lat="42.666520" lon="-2.664270">
        <ele>754.381</ele>
        <time>2011-04-16T11:15:03Z</time>
      </trkpt>
      <trkpt lat="42.666480" lon="-2.664160">
        <ele>751.958</ele>
        <time>2011-04-16T11:15:29Z</time>
      </trkpt>
      <trkpt lat="42.666400" lon="-2.664120">
        <ele>750.475</ele>
        <time>2011-04-16T11:15:40Z</time>
      </trkpt>
      <trkpt lat="42.666340" lon="-2.664030">
        <ele>748.091</ele>
        <time>2011-04-16T11:15:51Z</time>
      </trkpt>
      <trkpt lat="42.666290" lon="-2.663930">
        <ele>745.128</ele>
        <time>2011-04-16T11:16:01Z</time>
      </trkpt>
      <trkpt lat="42.666280" lon="-2.663810">
        <ele>743.713</ele>
        <time>2011-04-16T11:16:11Z</time>
      </trkpt>
      <trkpt lat="42.666220" lon="-2.663780">
        <ele>741.343</ele>
        <time>2011-04-16T11:16:20Z</time>
      </trkpt>
      <trkpt lat="42.666140" lon="-2.663830">
        <ele>739.407</ele>
        <time>2011-04-16T11:16:28Z</time>
      </trkpt>
      <trkpt lat="42.666120" lon="-2.663750">
        <ele>738.407</ele>
        <time>2011-04-16T11:16:38Z</time>
      </trkpt>
      <trkpt lat="42.666180" lon="-2.663650">
        <ele>736.073</ele>
        <time>2011-04-16T11:16:48Z</time>
      </trkpt>
      <trkpt lat="42.666220" lon="-2.663520">
        <ele>734.624</ele>
        <time>2011-04-16T11:16:56Z</time>
      </trkpt>
      <trkpt lat="42.666270" lon="-2.663400">
        <ele>734.153</ele>
        <time>2011-04-16T11:17:04Z</time>
      </trkpt>
      <trkpt lat="42.666300" lon="-2.663280">
        <ele>732.230</ele>
        <time>2011-04-16T11:17:12Z</time>
      </trkpt>
      <trkpt lat="42.666340" lon="-2.663170">
        <ele>730.767</ele>
        <time>2011-04-16T11:17:20Z</time>
      </trkpt>
      <trkpt lat="42.666370" lon="-2.663040">
        <ele>728.813</ele>
        <time>2011-04-16T11:17:28Z</time>
      </trkpt>
      <trkpt lat="42.666380" lon="-2.662920">
        <ele>726.920</ele>
        <time>2011-04-16T11:17:37Z</time>
      </trkpt>
      <trkpt lat="42.666340" lon="-2.662820">
        <ele>725.046</ele>
        <time>2011-04-16T11:17:46Z</time>
      </trkpt>
      <trkpt lat="42.666310" lon="-2.662700">
        <ele>723.088</ele>
        <time>2011-04-16T11:17:55Z</time>
      </trkpt>
      <trkpt lat="42.666280" lon="-2.662580">
        <ele>719.716</ele>
        <time>2011-04-16T11:18:04Z</time>
      </trkpt>
      <trkpt lat="42.666300" lon="-2.662450">
        <ele>718.207</ele>
        <time>2011-04-16T11:18:13Z</time>
      </trkpt>
      <trkpt lat="42.666340" lon="-2.662340">
        <ele>717.836</ele>
        <time>2011-04-16T11:18:21Z</time>
      </trkpt>
      <trkpt lat="42.666380" lon="-2.662220">
        <ele>716.317</ele>
        <time>2011-04-16T11:18:30Z</time>
      </trkpt>
      <trkpt lat="42.666450" lon="-2.662130">
        <ele>716.316</ele>
        <time>2011-04-16T11:18:38Z</time>
      </trkpt>
      <trkpt lat="42.666500" lon="-2.662010">
        <ele>715.923</ele>
        <time>2011-04-16T11:18:46Z</time>
      </trkpt>
      <trkpt lat="42.666500" lon="-2.661890">
        <ele>714.930</ele>
        <time>2011-04-16T11:18:55Z</time>
      </trkpt>
      <trkpt lat="42.666520" lon="-2.661780">
        <ele>712.056</ele>
        <time>2011-04-16T11:19:05Z</time>
      </trkpt>
      <trkpt lat="42.666500" lon="-2.661670">
        <ele>709.183</ele>
        <time>2011-04-16T11:19:18Z</time>
      </trkpt>
      <trkpt lat="42.666410" lon="-2.661630">
        <ele>706.777</ele>
        <time>2011-04-16T11:19:47Z</time>
      </trkpt>
      <trkpt lat="42.666360" lon="-2.661530">
        <ele>706.761</ele>
        <time>2011-04-16T11:20:06Z</time>
      </trkpt>
      <trkpt lat="42.666300" lon="-2.661420">
        <ele>705.327</ele>
        <time>2011-04-16T11:20:16Z</time>
      </trkpt>
      <trkpt lat="42.666280" lon="-2.661290">
        <ele>705.707</ele>
        <time>2011-04-16T11:20:27Z</time>
      </trkpt>
      <trkpt lat="42.666300" lon="-2.661180">
        <ele>705.369</ele>
        <time>2011-04-16T11:20:36Z</time>
      </trkpt>
      <trkpt lat="42.666370" lon="-2.661090">
        <ele>704.830</ele>
        <time>2011-04-16T11:20:46Z</time>
      </trkpt>
      <trkpt lat="42.666450" lon="-2.661010">
        <ele>701.949</ele>
        <time>2011-04-16T11:20:55Z</time>
      </trkpt>
      <trkpt lat="42.666540" lon="-2.660920">
        <ele>700.596</ele>
        <time>2011-04-16T11:21:03Z</time>
      </trkpt>
      <trkpt lat="42.666620" lon="-2.660850">
        <ele>699.093</ele>
        <time>2011-04-16T11:21:10Z</time>
      </trkpt>
      <trkpt lat="42.666690" lon="-2.660780">
        <ele>697.649</ele>
        <time>2011-04-16T11:21:17Z</time>
      </trkpt>
      <trkpt lat="42.666770" lon="-2.660720">
        <ele>696.626</ele>
        <time>2011-04-16T11:21:24Z</time>
      </trkpt>
      <trkpt lat="42.666850" lon="-2.660640">
        <ele>694.297</ele>
        <time>2011-04-16T11:21:31Z</time>
      </trkpt>
      <trkpt lat="42.666930" lon="-2.660570">
        <ele>694.223</ele>
        <time>2011-04-16T11:21:38Z</time>
      </trkpt>
      <trkpt lat="42.667020" lon="-2.660500">
        <ele>693.725</ele>
        <time>2011-04-16T11:21:45Z</time>
      </trkpt>
      <trkpt lat="42.667100" lon="-2.660450">
        <ele>693.207</ele>
        <time>2011-04-16T11:21:52Z</time>
      </trkpt>
      <trkpt lat="42.667180" lon="-2.660370">
        <ele>692.881</ele>
        <time>2011-04-16T11:21:59Z</time>
      </trkpt>
      <trkpt lat="42.667260" lon="-2.660290">
        <ele>692.392</ele>
        <time>2011-04-16T11:22:07Z</time>
      </trkpt>
      <trkpt lat="42.667350" lon="-2.660220">
        <ele>692.381</ele>
        <time>2011-04-16T11:22:14Z</time>
      </trkpt>
      <trkpt lat="42.667420" lon="-2.660140">
        <ele>692.898</ele>
        <time>2011-04-16T11:22:21Z</time>
      </trkpt>
      <trkpt lat="42.667500" lon="-2.660070">
        <ele>692.845</ele>
        <time>2011-04-16T11:22:28Z</time>
      </trkpt>
      <trkpt lat="42.667580" lon="-2.660000">
        <ele>692.811</ele>
        <time>2011-04-16T11:22:35Z</time>
      </trkpt>
      <trkpt lat="42.667660" lon="-2.659930">
        <ele>691.388</ele>
        <time>2011-04-16T11:22:43Z</time>
      </trkpt>
      <trkpt lat="42.667740" lon="-2.659860">
        <ele>690.932</ele>
        <time>2011-04-16T11:22:50Z</time>
      </trkpt>
      <trkpt lat="42.667820" lon="-2.659800">
        <ele>689.992</ele>
        <time>2011-04-16T11:22:57Z</time>
      </trkpt>
      <trkpt lat="42.667890" lon="-2.659710">
        <ele>689.411</ele>
        <time>2011-04-16T11:23:04Z</time>
      </trkpt>
      <trkpt lat="42.667980" lon="-2.659640">
        <ele>688.007</ele>
        <time>2011-04-16T11:23:11Z</time>
      </trkpt>
      <trkpt lat="42.668060" lon="-2.659550">
        <ele>685.685</ele>
        <time>2011-04-16T11:23:18Z</time>
      </trkpt>
      <trkpt lat="42.668140" lon="-2.659470">
        <ele>684.136</ele>
        <time>2011-04-16T11:23:25Z</time>
      </trkpt>
      <trkpt lat="42.668230" lon="-2.659400">
        <ele>682.745</ele>
        <time>2011-04-16T11:23:32Z</time>
      </trkpt>
      <trkpt lat="42.668300" lon="-2.659330">
        <ele>681.782</ele>
        <time>2011-04-16T11:23:38Z</time>
      </trkpt>
      <trkpt lat="42.668390" lon="-2.659250">
        <ele>681.299</ele>
        <time>2011-04-16T11:23:44Z</time>
      </trkpt>
      <trkpt lat="42.668460" lon="-2.659180">
        <ele>682.215</ele>
        <time>2011-04-16T11:23:50Z</time>
      </trkpt>
      <trkpt lat="42.668540" lon="-2.659110">
        <ele>681.732</ele>
        <time>2011-04-16T11:23:57Z</time>
      </trkpt>
      <trkpt lat="42.668620" lon="-2.659030">
        <ele>679.348</ele>
        <time>2011-04-16T11:24:04Z</time>
      </trkpt>
      <trkpt lat="42.668690" lon="-2.658940">
        <ele>679.861</ele>
        <time>2011-04-16T11:24:11Z</time>
      </trkpt>
      <trkpt lat="42.668760" lon="-2.658830">
        <ele>679.817</ele>
        <time>2011-04-16T11:24:18Z</time>
      </trkpt>
      <trkpt lat="42.668830" lon="-2.658720">
        <ele>680.707</ele>
        <time>2011-04-16T11:24:25Z</time>
      </trkpt>
      <trkpt lat="42.668890" lon="-2.658620">
        <ele>679.816</ele>
        <time>2011-04-16T11:24:32Z</time>
      </trkpt>
      <trkpt lat="42.668950" lon="-2.658510">
        <ele>679.347</ele>
        <time>2011-04-16T11:24:39Z</time>
      </trkpt>
      <trkpt lat="42.669010" lon="-2.658410">
        <ele>679.326</ele>
        <time>2011-04-16T11:24:46Z</time>
      </trkpt>
      <trkpt lat="42.669070" lon="-2.658310">
        <ele>679.393</ele>
        <time>2011-04-16T11:24:53Z</time>
      </trkpt>
      <trkpt lat="42.669140" lon="-2.658210">
        <ele>679.390</ele>
        <time>2011-04-16T11:25:00Z</time>
      </trkpt>
      <trkpt lat="42.669200" lon="-2.658110">
        <ele>678.376</ele>
        <time>2011-04-16T11:25:07Z</time>
      </trkpt>
      <trkpt lat="42.669270" lon="-2.658020">
        <ele>677.423</ele>
        <time>2011-04-16T11:25:14Z</time>
      </trkpt>
      <trkpt lat="42.669340" lon="-2.657930">
        <ele>676.494</ele>
        <time>2011-04-16T11:25:21Z</time>
      </trkpt>
      <trkpt lat="42.669390" lon="-2.657830">
        <ele>675.057</ele>
        <time>2011-04-16T11:25:28Z</time>
      </trkpt>
      <trkpt lat="42.669350" lon="-2.657720">
        <ele>676.022</ele>
        <time>2011-04-16T11:25:35Z</time>
      </trkpt>
      <trkpt lat="42.669270" lon="-2.657660">
        <ele>676.007</ele>
        <time>2011-04-16T11:25:42Z</time>
      </trkpt>
      <trkpt lat="42.669190" lon="-2.657590">
        <ele>676.461</ele>
        <time>2011-04-16T11:25:49Z</time>
      </trkpt>
      <trkpt lat="42.669110" lon="-2.657530">
        <ele>677.482</ele>
        <time>2011-04-16T11:25:56Z</time>
      </trkpt>
      <trkpt lat="42.669020" lon="-2.657460">
        <ele>677.411</ele>
        <time>2011-04-16T11:26:03Z</time>
      </trkpt>
      <trkpt lat="42.668940" lon="-2.657400">
        <ele>677.938</ele>
        <time>2011-04-16T11:26:10Z</time>
      </trkpt>
      <trkpt lat="42.668860" lon="-2.657340">
        <ele>678.855</ele>
        <time>2011-04-16T11:26:17Z</time>
      </trkpt>
      <trkpt lat="42.668780" lon="-2.657270">
        <ele>679.841</ele>
        <time>2011-04-16T11:26:24Z</time>
      </trkpt>
      <trkpt lat="42.668700" lon="-2.657220">
        <ele>681.278</ele>
        <time>2011-04-16T11:26:31Z</time>
      </trkpt>
      <trkpt lat="42.668600" lon="-2.657160">
        <ele>682.223</ele>
        <time>2011-04-16T11:26:39Z</time>
      </trkpt>
      <trkpt lat="42.668510" lon="-2.657110">
        <ele>682.783</ele>
        <time>2011-04-16T11:26:47Z</time>
      </trkpt>
      <trkpt lat="42.668430" lon="-2.657070">
        <ele>683.111</ele>
        <time>2011-04-16T11:26:54Z</time>
      </trkpt>
      <trkpt lat="42.668340" lon="-2.657040">
        <ele>682.707</ele>
        <time>2011-04-16T11:27:01Z</time>
      </trkpt>
      <trkpt lat="42.668240" lon="-2.656990">
        <ele>682.774</ele>
        <time>2011-04-16T11:27:09Z</time>
      </trkpt>
      <trkpt lat="42.668160" lon="-2.656920">
        <ele>682.245</ele>
        <time>2011-04-16T11:27:17Z</time>
      </trkpt>
      <trkpt lat="42.668070" lon="-2.656860">
        <ele>682.254</ele>
        <time>2011-04-16T11:27:26Z</time>
      </trkpt>
      <trkpt lat="42.668000" lon="-2.656820">
        <ele>681.241</ele>
        <time>2011-04-16T11:28:42Z</time>
      </trkpt>
      <trkpt lat="42.667930" lon="-2.656740">
        <ele>680.748</ele>
        <time>2011-04-16T11:28:51Z</time>
      </trkpt>
      <trkpt lat="42.667850" lon="-2.656690">
        <ele>681.264</ele>
        <time>2011-04-16T11:29:01Z</time>
      </trkpt>
      <trkpt lat="42.667790" lon="-2.656620">
        <ele>681.281</ele>
        <time>2011-04-16T11:29:16Z</time>
      </trkpt>
      <trkpt lat="42.667780" lon="-2.656620">
        <ele>681.271</ele>
        <time>2011-04-16T11:30:00Z</time>
      </trkpt>
      <trkpt lat="42.667860" lon="-2.656630">
        <ele>681.741</ele>
        <time>2011-04-16T11:30:09Z</time>
      </trkpt>
      <trkpt lat="42.667800" lon="-2.656640">
        <ele>681.715</ele>
        <time>2011-04-16T11:30:35Z</time>
      </trkpt>
      <trkpt lat="42.667770" lon="-2.656570">
        <ele>681.707</ele>
        <time>2011-04-16T11:30:47Z</time>
      </trkpt>
      <trkpt lat="42.667740" lon="-2.656430">
        <ele>681.769</ele>
        <time>2011-04-16T11:30:55Z</time>
      </trkpt>
      <trkpt lat="42.667710" lon="-2.656360">
        <ele>682.260</ele>
        <time>2011-04-16T11:31:04Z</time>
      </trkpt>
      <trkpt lat="42.667690" lon="-2.656220">
        <ele>682.299</ele>
        <time>2011-04-16T11:31:16Z</time>
      </trkpt>
      <trkpt lat="42.667670" lon="-2.656090">
        <ele>682.726</ele>
        <time>2011-04-16T11:31:24Z</time>
      </trkpt>
      <trkpt lat="42.667690" lon="-2.656070">
        <ele>682.283</ele>
        <time>2011-04-16T11:33:04Z</time>
      </trkpt>
      <trkpt lat="42.667580" lon="-2.656120">
        <ele>682.719</ele>
        <time>2011-04-16T11:33:12Z</time>
      </trkpt>
      <trkpt lat="42.667480" lon="-2.656090">
        <ele>682.266</ele>
        <time>2011-04-16T11:33:19Z</time>
      </trkpt>
      <trkpt lat="42.667370" lon="-2.656060">
        <ele>683.157</ele>
        <time>2011-04-16T11:33:26Z</time>
      </trkpt>
      <trkpt lat="42.667270" lon="-2.656040">
        <ele>683.600</ele>
        <time>2011-04-16T11:33:33Z</time>
      </trkpt>
      <trkpt lat="42.667180" lon="-2.656020">
        <ele>683.620</ele>
        <time>2011-04-16T11:33:40Z</time>
      </trkpt>
      <trkpt lat="42.667090" lon="-2.655960">
        <ele>684.607</ele>
        <time>2011-04-16T11:33:50Z</time>
      </trkpt>
      <trkpt lat="42.667000" lon="-2.655890">
        <ele>687.577</ele>
        <time>2011-04-16T11:34:01Z</time>
      </trkpt>
      <trkpt lat="42.666910" lon="-2.655870">
        <ele>689.498</ele>
        <time>2011-04-16T11:34:10Z</time>
      </trkpt>
      <trkpt lat="42.666810" lon="-2.655820">
        <ele>690.497</ele>
        <time>2011-04-16T11:34:18Z</time>
      </trkpt>
      <trkpt lat="42.666730" lon="-2.655750">
        <ele>693.764</ele>
        <time>2011-04-16T11:34:27Z</time>
      </trkpt>
      <trkpt lat="42.666650" lon="-2.655680">
        <ele>695.261</ele>
        <time>2011-04-16T11:34:37Z</time>
      </trkpt>
      <trkpt lat="42.666570" lon="-2.655610">
        <ele>696.157</ele>
        <time>2011-04-16T11:34:47Z</time>
      </trkpt>
      <trkpt lat="42.666490" lon="-2.655550">
        <ele>699.064</ele>
        <time>2011-04-16T11:34:57Z</time>
      </trkpt>
      <trkpt lat="42.666410" lon="-2.655500">
        <ele>701.469</ele>
        <time>2011-04-16T11:35:06Z</time>
      </trkpt>
      <trkpt lat="42.666330" lon="-2.655430">
        <ele>702.904</ele>
        <time>2011-04-16T11:35:14Z</time>
      </trkpt>
      <trkpt lat="42.666240" lon="-2.655360">
        <ele>705.724</ele>
        <time>2011-04-16T11:35:23Z</time>
      </trkpt>
      <trkpt lat="42.666160" lon="-2.655290">
        <ele>707.207</ele>
        <time>2011-04-16T11:35:32Z</time>
      </trkpt>
      <trkpt lat="42.666080" lon="-2.655240">
        <ele>707.748</ele>
        <time>2011-04-16T11:35:40Z</time>
      </trkpt>
      <trkpt lat="42.665990" lon="-2.655170">
        <ele>709.189</ele>
        <time>2011-04-16T11:35:49Z</time>
      </trkpt>
      <trkpt lat="42.665910" lon="-2.655110">
        <ele>710.548</ele>
        <time>2011-04-16T11:35:57Z</time>
      </trkpt>
      <trkpt lat="42.665830" lon="-2.655040">
        <ele>712.065</ele>
        <time>2011-04-16T11:36:05Z</time>
      </trkpt>
      <trkpt lat="42.665750" lon="-2.654970">
        <ele>712.532</ele>
        <time>2011-04-16T11:36:13Z</time>
      </trkpt>
      <trkpt lat="42.665670" lon="-2.654900">
        <ele>714.418</ele>
        <time>2011-04-16T11:36:21Z</time>
      </trkpt>
      <trkpt lat="42.665590" lon="-2.654820">
        <ele>715.965</ele>
        <time>2011-04-16T11:36:30Z</time>
      </trkpt>
      <trkpt lat="42.665520" lon="-2.654760">
        <ele>716.831</ele>
        <time>2011-04-16T11:36:40Z</time>
      </trkpt>
      <trkpt lat="42.665460" lon="-2.654670">
        <ele>719.261</ele>
        <time>2011-04-16T11:36:53Z</time>
      </trkpt>
      <trkpt lat="42.665380" lon="-2.654600">
        <ele>721.607</ele>
        <time>2011-04-16T11:37:19Z</time>
      </trkpt>
      <trkpt lat="42.665290" lon="-2.654560">
        <ele>723.507</ele>
        <time>2011-04-16T11:37:31Z</time>
      </trkpt>
      <trkpt lat="42.665210" lon="-2.654500">
        <ele>725.595</ele>
        <time>2011-04-16T11:37:56Z</time>
      </trkpt>
      <trkpt lat="42.665140" lon="-2.654420">
        <ele>728.436</ele>
        <time>2011-04-16T11:38:12Z</time>
      </trkpt>
      <trkpt lat="42.665060" lon="-2.654370">
        <ele>731.225</ele>
        <time>2011-04-16T11:38:46Z</time>
      </trkpt>
      <trkpt lat="42.665030" lon="-2.654260">
        <ele>733.692</ele>
        <time>2011-04-16T11:38:58Z</time>
      </trkpt>
      <trkpt lat="42.664980" lon="-2.654250">
        <ele>734.629</ele>
        <time>2011-04-16T11:40:17Z</time>
      </trkpt>
      <trkpt lat="42.665010" lon="-2.654240">
        <ele>735.125</ele>
        <time>2011-04-16T11:43:10Z</time>
      </trkpt>
      <trkpt lat="42.665010" lon="-2.654210">
        <ele>735.112</ele>
        <time>2011-04-16T11:43:36Z</time>
      </trkpt>
      <trkpt lat="42.664980" lon="-2.654200">
        <ele>735.173</ele>
        <time>2011-04-16T11:43:51Z</time>
      </trkpt>
      <trkpt lat="42.665260" lon="-2.654330">
        <ele>790.385</ele>
        <time>2011-04-16T12:10:32Z</time>
      </trkpt>
      <trkpt lat="42.664980" lon="-2.654240">
        <ele>735.113</ele>
        <time>2011-04-16T12:10:43Z</time>
      </trkpt>
      <trkpt lat="42.665030" lon="-2.654150">
        <ele>742.807</ele>
        <time>2011-04-16T12:11:40Z</time>
      </trkpt>
      <trkpt lat="42.665000" lon="-2.654040">
        <ele>745.669</ele>
        <time>2011-04-16T12:12:10Z</time>
      </trkpt>
      <trkpt lat="42.664960" lon="-2.653930">
        <ele>748.540</ele>
        <time>2011-04-16T12:12:26Z</time>
      </trkpt>
      <trkpt lat="42.664990" lon="-2.653940">
        <ele>752.999</ele>
        <time>2011-04-16T12:12:43Z</time>
      </trkpt>
      <trkpt lat="42.665080" lon="-2.653990">
        <ele>754.836</ele>
        <time>2011-04-16T12:12:54Z</time>
      </trkpt>
      <trkpt lat="42.665150" lon="-2.654060">
        <ele>757.233</ele>
        <time>2011-04-16T12:13:05Z</time>
      </trkpt>
      <trkpt lat="42.665150" lon="-2.654120">
        <ele>755.719</ele>
        <time>2011-04-16T12:14:32Z</time>
      </trkpt>
      <trkpt lat="42.665180" lon="-2.654010">
        <ele>758.136</ele>
        <time>2011-04-16T12:15:01Z</time>
      </trkpt>
      <trkpt lat="42.665220" lon="-2.653910">
        <ele>761.513</ele>
        <time>2011-04-16T12:15:15Z</time>
      </trkpt>
      <trkpt lat="42.665230" lon="-2.653820">
        <ele>766.343</ele>
        <time>2011-04-16T12:15:31Z</time>
      </trkpt>
      <trkpt lat="42.665220" lon="-2.653700">
        <ele>768.207</ele>
        <time>2011-04-16T12:15:52Z</time>
      </trkpt>
      <trkpt lat="42.665180" lon="-2.653580">
        <ele>772.107</ele>
        <time>2011-04-16T12:16:03Z</time>
      </trkpt>
      <trkpt lat="42.665130" lon="-2.653470">
        <ele>772.573</ele>
        <time>2011-04-16T12:16:15Z</time>
      </trkpt>
      <trkpt lat="42.665080" lon="-2.653370">
        <ele>774.554</ele>
        <time>2011-04-16T12:16:27Z</time>
      </trkpt>
      <trkpt lat="42.665030" lon="-2.653260">
        <ele>775.483</ele>
        <time>2011-04-16T12:16:38Z</time>
      </trkpt>
      <trkpt lat="42.664980" lon="-2.653120">
        <ele>777.490</ele>
        <time>2011-04-16T12:16:51Z</time>
      </trkpt>
      <trkpt lat="42.664930" lon="-2.653010">
        <ele>779.347</ele>
        <time>2011-04-16T12:17:04Z</time>
      </trkpt>
      <trkpt lat="42.664890" lon="-2.652900">
        <ele>781.213</ele>
        <time>2011-04-16T12:17:16Z</time>
      </trkpt>
      <trkpt lat="42.664840" lon="-2.652780">
        <ele>783.120</ele>
        <time>2011-04-16T12:17:27Z</time>
      </trkpt>
      <trkpt lat="42.664800" lon="-2.652660">
        <ele>784.631</ele>
        <time>2011-04-16T12:17:38Z</time>
      </trkpt>
      <trkpt lat="42.664760" lon="-2.652540">
        <ele>786.561</ele>
        <time>2011-04-16T12:17:47Z</time>
      </trkpt>
      <trkpt lat="42.664750" lon="-2.652410">
        <ele>788.407</ele>
        <time>2011-04-16T12:17:56Z</time>
      </trkpt>
      <trkpt lat="42.664750" lon="-2.652270">
        <ele>788.907</ele>
        <time>2011-04-16T12:18:05Z</time>
      </trkpt>
      <trkpt lat="42.664800" lon="-2.652180">
        <ele>791.865</ele>
        <time>2011-04-16T12:18:14Z</time>
      </trkpt>
      <trkpt lat="42.664880" lon="-2.652230">
        <ele>792.346</ele>
        <time>2011-04-16T12:18:24Z</time>
      </trkpt>
      <trkpt lat="42.664830" lon="-2.652160">
        <ele>791.825</ele>
        <time>2011-04-16T12:18:52Z</time>
      </trkpt>
      <trkpt lat="42.664790" lon="-2.652050">
        <ele>791.332</ele>
        <time>2011-04-16T12:19:00Z</time>
      </trkpt>
      <trkpt lat="42.664840" lon="-2.651950">
        <ele>791.389</ele>
        <time>2011-04-16T12:19:08Z</time>
      </trkpt>
      <trkpt lat="42.664920" lon="-2.651880">
        <ele>790.885</ele>
        <time>2011-04-16T12:19:16Z</time>
      </trkpt>
      <trkpt lat="42.665000" lon="-2.651810">
        <ele>787.952</ele>
        <time>2011-04-16T12:19:24Z</time>
      </trkpt>
      <trkpt lat="42.665070" lon="-2.651720">
        <ele>787.965</ele>
        <time>2011-04-16T12:19:33Z</time>
      </trkpt>
      <trkpt lat="42.665140" lon="-2.651640">
        <ele>785.568</ele>
        <time>2011-04-16T12:19:42Z</time>
      </trkpt>
      <trkpt lat="42.665180" lon="-2.651530">
        <ele>784.114</ele>
        <time>2011-04-16T12:19:50Z</time>
      </trkpt>
      <trkpt lat="42.665200" lon="-2.651400">
        <ele>784.107</ele>
        <time>2011-04-16T12:19:57Z</time>
      </trkpt>
      <trkpt lat="42.665200" lon="-2.651270">
        <ele>784.198</ele>
        <time>2011-04-16T12:20:05Z</time>
      </trkpt>
      <trkpt lat="42.665210" lon="-2.651140">
        <ele>784.679</ele>
        <time>2011-04-16T12:20:13Z</time>
      </trkpt>
      <trkpt lat="42.665230" lon="-2.651020">
        <ele>785.018</ele>
        <time>2011-04-16T12:20:21Z</time>
      </trkpt>
      <trkpt lat="42.665280" lon="-2.650900">
        <ele>784.645</ele>
        <time>2011-04-16T12:20:29Z</time>
      </trkpt>
      <trkpt lat="42.665320" lon="-2.650800">
        <ele>784.152</ele>
        <time>2011-04-16T12:20:37Z</time>
      </trkpt>
      <trkpt lat="42.665390" lon="-2.650690">
        <ele>783.638</ele>
        <time>2011-04-16T12:20:45Z</time>
      </trkpt>
      <trkpt lat="42.665370" lon="-2.650570">
        <ele>783.655</ele>
        <time>2011-04-16T12:20:53Z</time>
      </trkpt>
      <trkpt lat="42.665280" lon="-2.650560">
        <ele>783.621</ele>
        <time>2011-04-16T12:21:01Z</time>
      </trkpt>
      <trkpt lat="42.665190" lon="-2.650630">
        <ele>782.741</ele>
        <time>2011-04-16T12:21:09Z</time>
      </trkpt>
      <trkpt lat="42.665100" lon="-2.650680">
        <ele>782.705</ele>
        <time>2011-04-16T12:21:16Z</time>
      </trkpt>
      <trkpt lat="42.665000" lon="-2.650700">
        <ele>781.707</ele>
        <time>2011-04-16T12:21:23Z</time>
      </trkpt>
      <trkpt lat="42.664910" lon="-2.650720">
        <ele>780.794</ele>
        <time>2011-04-16T12:21:30Z</time>
      </trkpt>
      <trkpt lat="42.664820" lon="-2.650730">
        <ele>779.835</ele>
        <time>2011-04-16T12:21:37Z</time>
      </trkpt>
      <trkpt lat="42.664730" lon="-2.650730">
        <ele>778.834</ele>
        <time>2011-04-16T12:21:44Z</time>
      </trkpt>
      <trkpt lat="42.664630" lon="-2.650740">
        <ele>777.861</ele>
        <time>2011-04-16T12:21:52Z</time>
      </trkpt>
      <trkpt lat="42.664530" lon="-2.650760">
        <ele>778.358</ele>
        <time>2011-04-16T12:22:00Z</time>
      </trkpt>
      <trkpt lat="42.664430" lon="-2.650770">
        <ele>777.434</ele>
        <time>2011-04-16T12:22:08Z</time>
      </trkpt>
      <trkpt lat="42.664330" lon="-2.650770">
        <ele>775.941</ele>
        <time>2011-04-16T12:22:17Z</time>
      </trkpt>
      <trkpt lat="42.664240" lon="-2.650800">
        <ele>775.917</ele>
        <time>2011-04-16T12:22:24Z</time>
      </trkpt>
      <trkpt lat="42.664150" lon="-2.650860">
        <ele>774.087</ele>
        <time>2011-04-16T12:22:32Z</time>
      </trkpt>
      <trkpt lat="42.664080" lon="-2.650880">
        <ele>773.015</ele>
        <time>2011-04-16T12:22:42Z</time>
      </trkpt>
      <trkpt lat="42.664140" lon="-2.650770">
        <ele>773.007</ele>
        <time>2011-04-16T12:22:51Z</time>
      </trkpt>
      <trkpt lat="42.664210" lon="-2.650680">
        <ele>770.683</ele>
        <time>2011-04-16T12:23:00Z</time>
      </trkpt>
      <trkpt lat="42.664280" lon="-2.650600">
        <ele>769.254</ele>
        <time>2011-04-16T12:23:08Z</time>
      </trkpt>
      <trkpt lat="42.664360" lon="-2.650530">
        <ele>767.373</ele>
        <time>2011-04-16T12:23:16Z</time>
      </trkpt>
      <trkpt lat="42.664450" lon="-2.650440">
        <ele>763.990</ele>
        <time>2011-04-16T12:23:25Z</time>
      </trkpt>
      <trkpt lat="42.664540" lon="-2.650380">
        <ele>762.947</ele>
        <time>2011-04-16T12:23:33Z</time>
      </trkpt>
      <trkpt lat="42.664630" lon="-2.650310">
        <ele>762.593</ele>
        <time>2011-04-16T12:23:41Z</time>
      </trkpt>
      <trkpt lat="42.664740" lon="-2.650260">
        <ele>762.520</ele>
        <time>2011-04-16T12:23:49Z</time>
      </trkpt>
      <trkpt lat="42.664820" lon="-2.650200">
        <ele>762.579</ele>
        <time>2011-04-16T12:23:57Z</time>
      </trkpt>
      <trkpt lat="42.664920" lon="-2.650140">
        <ele>761.005</ele>
        <time>2011-04-16T12:24:05Z</time>
      </trkpt>
      <trkpt lat="42.665010" lon="-2.650080">
        <ele>759.625</ele>
        <time>2011-04-16T12:24:13Z</time>
      </trkpt>
      <trkpt lat="42.665090" lon="-2.650000">
        <ele>758.607</ele>
        <time>2011-04-16T12:24:21Z</time>
      </trkpt>
      <trkpt lat="42.665160" lon="-2.649910">
        <ele>758.199</ele>
        <time>2011-04-16T12:24:29Z</time>
      </trkpt>
      <trkpt lat="42.665220" lon="-2.649790">
        <ele>756.760</ele>
        <time>2011-04-16T12:24:37Z</time>
      </trkpt>
      <trkpt lat="42.665270" lon="-2.649680">
        <ele>755.779</ele>
        <time>2011-04-16T12:24:45Z</time>
      </trkpt>
      <trkpt lat="42.665350" lon="-2.649600">
        <ele>755.316</ele>
        <time>2011-04-16T12:24:53Z</time>
      </trkpt>
      <trkpt lat="42.665430" lon="-2.649530">
        <ele>754.873</ele>
        <time>2011-04-16T12:25:01Z</time>
      </trkpt>
      <trkpt lat="42.665520" lon="-2.649460">
        <ele>752.979</ele>
        <time>2011-04-16T12:25:09Z</time>
      </trkpt>
      <trkpt lat="42.665600" lon="-2.649380">
        <ele>750.916</ele>
        <time>2011-04-16T12:25:17Z</time>
      </trkpt>
      <trkpt lat="42.665670" lon="-2.649290">
        <ele>749.058</ele>
        <time>2011-04-16T12:25:26Z</time>
      </trkpt>
      <trkpt lat="42.665720" lon="-2.649180">
        <ele>746.152</ele>
        <time>2011-04-16T12:25:35Z</time>
      </trkpt>
      <trkpt lat="42.665770" lon="-2.649080">
        <ele>744.717</ele>
        <time>2011-04-16T12:25:43Z</time>
      </trkpt>
      <trkpt lat="42.665850" lon="-2.649010">
        <ele>742.307</ele>
        <time>2011-04-16T12:25:51Z</time>
      </trkpt>
      <trkpt lat="42.665920" lon="-2.648930">
        <ele>740.827</ele>
        <time>2011-04-16T12:25:59Z</time>
      </trkpt>
      <trkpt lat="42.666000" lon="-2.648830">
        <ele>739.958</ele>
        <time>2011-04-16T12:26:07Z</time>
      </trkpt>
      <trkpt lat="42.666080" lon="-2.648770">
        <ele>738.947</ele>
        <time>2011-04-16T12:26:15Z</time>
      </trkpt>
      <trkpt lat="42.666160" lon="-2.648690">
        <ele>738.964</ele>
        <time>2011-04-16T12:26:22Z</time>
      </trkpt>
      <trkpt lat="42.666220" lon="-2.648610">
        <ele>738.431</ele>
        <time>2011-04-16T12:26:29Z</time>
      </trkpt>
      <trkpt lat="42.666270" lon="-2.648490">
        <ele>738.027</ele>
        <time>2011-04-16T12:26:37Z</time>
      </trkpt>
      <trkpt lat="42.666330" lon="-2.648390">
        <ele>737.514</ele>
        <time>2011-04-16T12:26:44Z</time>
      </trkpt>
      <trkpt lat="42.666400" lon="-2.648320">
        <ele>737.038</ele>
        <time>2011-04-16T12:26:51Z</time>
      </trkpt>
      <trkpt lat="42.666460" lon="-2.648220">
        <ele>736.070</ele>
        <time>2011-04-16T12:26:58Z</time>
      </trkpt>
      <trkpt lat="42.666510" lon="-2.648120">
        <ele>735.117</ele>
        <time>2011-04-16T12:27:05Z</time>
      </trkpt>
      <trkpt lat="42.666560" lon="-2.648020">
        <ele>733.607</ele>
        <time>2011-04-16T12:27:12Z</time>
      </trkpt>
      <trkpt lat="42.666630" lon="-2.647920">
        <ele>733.125</ele>
        <time>2011-04-16T12:27:19Z</time>
      </trkpt>
      <trkpt lat="42.666690" lon="-2.647820">
        <ele>732.676</ele>
        <time>2011-04-16T12:27:26Z</time>
      </trkpt>
      <trkpt lat="42.666760" lon="-2.647730">
        <ele>732.235</ele>
        <time>2011-04-16T12:27:34Z</time>
      </trkpt>
      <trkpt lat="42.666830" lon="-2.647640">
        <ele>732.282</ele>
        <time>2011-04-16T12:27:41Z</time>
      </trkpt>
      <trkpt lat="42.666910" lon="-2.647550">
        <ele>731.269</ele>
        <time>2011-04-16T12:27:49Z</time>
      </trkpt>
      <trkpt lat="42.666890" lon="-2.647490">
        <ele>730.765</ele>
        <time>2011-04-16T12:28:13Z</time>
      </trkpt>
      <trkpt lat="42.666810" lon="-2.647410">
        <ele>727.932</ele>
        <time>2011-04-16T12:28:29Z</time>
      </trkpt>
      <trkpt lat="42.666710" lon="-2.647430">
        <ele>727.912</ele>
        <time>2011-04-16T12:28:42Z</time>
      </trkpt>
      <trkpt lat="42.666630" lon="-2.647430">
        <ele>725.932</ele>
        <time>2011-04-16T12:28:55Z</time>
      </trkpt>
      <trkpt lat="42.666670" lon="-2.647310">
        <ele>723.505</ele>
        <time>2011-04-16T12:29:04Z</time>
      </trkpt>
      <trkpt lat="42.666710" lon="-2.647170">
        <ele>718.207</ele>
        <time>2011-04-16T12:29:16Z</time>
      </trkpt>
      <trkpt lat="42.666750" lon="-2.647060">
        <ele>715.423</ele>
        <time>2011-04-16T12:29:25Z</time>
      </trkpt>
      <trkpt lat="42.666770" lon="-2.646940">
        <ele>713.474</ele>
        <time>2011-04-16T12:29:34Z</time>
      </trkpt>
      <trkpt lat="42.666840" lon="-2.646880">
        <ele>713.033</ele>
        <time>2011-04-16T12:29:49Z</time>
      </trkpt>
      <trkpt lat="42.666910" lon="-2.646780">
        <ele>708.150</ele>
        <time>2011-04-16T12:30:01Z</time>
      </trkpt>
      <trkpt lat="42.666990" lon="-2.646750">
        <ele>709.627</ele>
        <time>2011-04-16T12:30:11Z</time>
      </trkpt>
      <trkpt lat="42.667070" lon="-2.646680">
        <ele>711.043</ele>
        <time>2011-04-16T12:30:21Z</time>
      </trkpt>
      <trkpt lat="42.666990" lon="-2.646670">
        <ele>710.580</ele>
        <time>2011-04-16T12:30:36Z</time>
      </trkpt>
      <trkpt lat="42.666950" lon="-2.646560">
        <ele>709.151</ele>
        <time>2011-04-16T12:31:07Z</time>
      </trkpt>
      <trkpt lat="42.666920" lon="-2.646600">
        <ele>709.101</ele>
        <time>2011-04-16T12:32:24Z</time>
      </trkpt>
      <trkpt lat="42.666910" lon="-2.646500">
        <ele>707.211</ele>
        <time>2011-04-16T12:34:02Z</time>
      </trkpt>
      <trkpt lat="42.666920" lon="-2.646380">
        <ele>706.707</ele>
        <time>2011-04-16T12:34:10Z</time>
      </trkpt>
      <trkpt lat="42.666890" lon="-2.646330">
        <ele>706.777</ele>
        <time>2011-04-16T12:34:20Z</time>
      </trkpt>
      <trkpt lat="42.666990" lon="-2.646220">
        <ele>705.778</ele>
        <time>2011-04-16T12:35:03Z</time>
      </trkpt>
      <trkpt lat="42.667040" lon="-2.646110">
        <ele>705.717</ele>
        <time>2011-04-16T12:35:13Z</time>
      </trkpt>
      <trkpt lat="42.667110" lon="-2.646010">
        <ele>704.854</ele>
        <time>2011-04-16T12:35:24Z</time>
      </trkpt>
      <trkpt lat="42.667180" lon="-2.645930">
        <ele>705.771</ele>
        <time>2011-04-16T12:35:32Z</time>
      </trkpt>
      <trkpt lat="42.667250" lon="-2.645850">
        <ele>705.357</ele>
        <time>2011-04-16T12:35:40Z</time>
      </trkpt>
      <trkpt lat="42.667320" lon="-2.645740">
        <ele>704.864</ele>
        <time>2011-04-16T12:35:49Z</time>
      </trkpt>
      <trkpt lat="42.667340" lon="-2.645620">
        <ele>705.354</ele>
        <time>2011-04-16T12:35:56Z</time>
      </trkpt>
      <trkpt lat="42.667380" lon="-2.645490">
        <ele>704.356</ele>
        <time>2011-04-16T12:36:04Z</time>
      </trkpt>
      <trkpt lat="42.667410" lon="-2.645370">
        <ele>702.911</ele>
        <time>2011-04-16T12:36:11Z</time>
      </trkpt>
      <trkpt lat="42.667440" lon="-2.645260">
        <ele>702.907</ele>
        <time>2011-04-16T12:36:18Z</time>
      </trkpt>
      <trkpt lat="42.667480" lon="-2.645140">
        <ele>703.437</ele>
        <time>2011-04-16T12:36:25Z</time>
      </trkpt>
      <trkpt lat="42.667540" lon="-2.645030">
        <ele>702.468</ele>
        <time>2011-04-16T12:36:32Z</time>
      </trkpt>
      <trkpt lat="42.667610" lon="-2.644940">
        <ele>701.497</ele>
        <time>2011-04-16T12:36:39Z</time>
      </trkpt>
      <trkpt lat="42.667680" lon="-2.644850">
        <ele>701.414</ele>
        <time>2011-04-16T12:36:46Z</time>
      </trkpt>
      <trkpt lat="42.667740" lon="-2.644750">
        <ele>700.591</ele>
        <time>2011-04-16T12:36:53Z</time>
      </trkpt>
      <trkpt lat="42.667810" lon="-2.644660">
        <ele>699.557</ele>
        <time>2011-04-16T12:37:00Z</time>
      </trkpt>
      <trkpt lat="42.667880" lon="-2.644590">
        <ele>699.544</ele>
        <time>2011-04-16T12:37:10Z</time>
      </trkpt>
      <trkpt lat="42.667910" lon="-2.644460">
        <ele>697.644</ele>
        <time>2011-04-16T12:37:17Z</time>
      </trkpt>
      <trkpt lat="42.667950" lon="-2.644330">
        <ele>696.605</ele>
        <time>2011-04-16T12:37:24Z</time>
      </trkpt>
      <trkpt lat="42.668000" lon="-2.644230">
        <ele>695.615</ele>
        <time>2011-04-16T12:37:30Z</time>
      </trkpt>
      <trkpt lat="42.668060" lon="-2.644130">
        <ele>695.207</ele>
        <time>2011-04-16T12:37:37Z</time>
      </trkpt>
      <trkpt lat="42.668120" lon="-2.644030">
        <ele>693.776</ele>
        <time>2011-04-16T12:37:43Z</time>
      </trkpt>
      <trkpt lat="42.668190" lon="-2.643940">
        <ele>692.817</ele>
        <time>2011-04-16T12:37:50Z</time>
      </trkpt>
      <trkpt lat="42.668280" lon="-2.643900">
        <ele>693.276</ele>
        <time>2011-04-16T12:37:57Z</time>
      </trkpt>
      <trkpt lat="42.668370" lon="-2.643910">
        <ele>693.213</ele>
        <time>2011-04-16T12:38:05Z</time>
      </trkpt>
      <trkpt lat="42.668380" lon="-2.643780">
        <ele>692.850</ele>
        <time>2011-04-16T12:38:25Z</time>
      </trkpt>
      <trkpt lat="42.668390" lon="-2.643640">
        <ele>691.886</ele>
        <time>2011-04-16T12:38:33Z</time>
      </trkpt>
      <trkpt lat="42.668430" lon="-2.643510">
        <ele>691.843</ele>
        <time>2011-04-16T12:38:40Z</time>
      </trkpt>
      <trkpt lat="42.668490" lon="-2.643410">
        <ele>690.949</ele>
        <time>2011-04-16T12:38:47Z</time>
      </trkpt>
      <trkpt lat="42.668560" lon="-2.643310">
        <ele>690.402</ele>
        <time>2011-04-16T12:38:54Z</time>
      </trkpt>
      <trkpt lat="42.668630" lon="-2.643220">
        <ele>689.922</ele>
        <time>2011-04-16T12:39:01Z</time>
      </trkpt>
      <trkpt lat="42.668690" lon="-2.643110">
        <ele>689.407</ele>
        <time>2011-04-16T12:39:08Z</time>
      </trkpt>
      <trkpt lat="42.668770" lon="-2.643010">
        <ele>690.476</ele>
        <time>2011-04-16T12:39:15Z</time>
      </trkpt>
      <trkpt lat="42.668850" lon="-2.642940">
        <ele>689.937</ele>
        <time>2011-04-16T12:39:22Z</time>
      </trkpt>
      <trkpt lat="42.668930" lon="-2.642850">
        <ele>688.576</ele>
        <time>2011-04-16T12:39:29Z</time>
      </trkpt>
      <trkpt lat="42.669010" lon="-2.642770">
        <ele>688.053</ele>
        <time>2011-04-16T12:39:36Z</time>
      </trkpt>
      <trkpt lat="42.669080" lon="-2.642700">
        <ele>686.530</ele>
        <time>2011-04-16T12:39:42Z</time>
      </trkpt>
      <trkpt lat="42.669160" lon="-2.642650">
        <ele>685.166</ele>
        <time>2011-04-16T12:39:48Z</time>
      </trkpt>
      <trkpt lat="42.669260" lon="-2.642610">
        <ele>684.153</ele>
        <time>2011-04-16T12:39:55Z</time>
      </trkpt>
      <trkpt lat="42.669360" lon="-2.642600">
        <ele>683.182</ele>
        <time>2011-04-16T12:40:02Z</time>
      </trkpt>
      <trkpt lat="42.669450" lon="-2.642580">
        <ele>681.743</ele>
        <time>2011-04-16T12:40:09Z</time>
      </trkpt>
      <trkpt lat="42.669540" lon="-2.642600">
        <ele>680.717</ele>
        <time>2011-04-16T12:40:18Z</time>
      </trkpt>
      <trkpt lat="42.669630" lon="-2.642650">
        <ele>679.307</ele>
        <time>2011-04-16T12:40:30Z</time>
      </trkpt>
      <trkpt lat="42.669670" lon="-2.642590">
        <ele>679.360</ele>
        <time>2011-04-16T12:40:50Z</time>
      </trkpt>
      <trkpt lat="42.669760" lon="-2.642570">
        <ele>678.821</ele>
        <time>2011-04-16T12:41:01Z</time>
      </trkpt>
      <trkpt lat="42.669790" lon="-2.642470">
        <ele>678.890</ele>
        <time>2011-04-16T12:41:16Z</time>
      </trkpt>
      <trkpt lat="42.669830" lon="-2.642350">
        <ele>678.857</ele>
        <time>2011-04-16T12:41:46Z</time>
      </trkpt>
      <trkpt lat="42.669880" lon="-2.642240">
        <ele>679.854</ele>
        <time>2011-04-16T12:41:54Z</time>
      </trkpt>
      <trkpt lat="42.669920" lon="-2.642120">
        <ele>680.320</ele>
        <time>2011-04-16T12:42:02Z</time>
      </trkpt>
      <trkpt lat="42.669960" lon="-2.642000">
        <ele>679.867</ele>
        <time>2011-04-16T12:42:10Z</time>
      </trkpt>
      <trkpt lat="42.670000" lon="-2.641880">
        <ele>681.288</ele>
        <time>2011-04-16T12:42:17Z</time>
      </trkpt>
      <trkpt lat="42.670030" lon="-2.641770">
        <ele>681.224</ele>
        <time>2011-04-16T12:42:24Z</time>
      </trkpt>
      <trkpt lat="42.670060" lon="-2.641650">
        <ele>681.226</ele>
        <time>2011-04-16T12:42:31Z</time>
      </trkpt>
      <trkpt lat="42.670090" lon="-2.641530">
        <ele>681.207</ele>
        <time>2011-04-16T12:42:38Z</time>
      </trkpt>
      <trkpt lat="42.670120" lon="-2.641420">
        <ele>681.740</ele>
        <time>2011-04-16T12:42:45Z</time>
      </trkpt>
      <trkpt lat="42.670150" lon="-2.641300">
        <ele>681.231</ele>
        <time>2011-04-16T12:42:52Z</time>
      </trkpt>
      <trkpt lat="42.670180" lon="-2.641170">
        <ele>680.710</ele>
        <time>2011-04-16T12:42:59Z</time>
      </trkpt>
      <trkpt lat="42.670200" lon="-2.641040">
        <ele>681.267</ele>
        <time>2011-04-16T12:43:06Z</time>
      </trkpt>
      <trkpt lat="42.670220" lon="-2.640920">
        <ele>681.214</ele>
        <time>2011-04-16T12:43:13Z</time>
      </trkpt>
      <trkpt lat="42.670200" lon="-2.640800">
        <ele>681.730</ele>
        <time>2011-04-16T12:43:20Z</time>
      </trkpt>
      <trkpt lat="42.670140" lon="-2.640700">
        <ele>682.797</ele>
        <time>2011-04-16T12:43:28Z</time>
      </trkpt>
      <trkpt lat="42.670050" lon="-2.640680">
        <ele>683.146</ele>
        <time>2011-04-16T12:43:36Z</time>
      </trkpt>
      <trkpt lat="42.670010" lon="-2.640560">
        <ele>683.188</ele>
        <time>2011-04-16T12:43:44Z</time>
      </trkpt>
      <trkpt lat="42.669960" lon="-2.640450">
        <ele>682.716</ele>
        <time>2011-04-16T12:43:52Z</time>
      </trkpt>
      <trkpt lat="42.669870" lon="-2.640380">
        <ele>683.107</ele>
        <time>2011-04-16T12:44:00Z</time>
      </trkpt>
      <trkpt lat="42.669780" lon="-2.640310">
        <ele>682.796</ele>
        <time>2011-04-16T12:44:08Z</time>
      </trkpt>
      <trkpt lat="42.669700" lon="-2.640250">
        <ele>683.117</ele>
        <time>2011-04-16T12:44:16Z</time>
      </trkpt>
      <trkpt lat="42.669620" lon="-2.640160">
        <ele>683.156</ele>
        <time>2011-04-16T12:44:24Z</time>
      </trkpt>
      <trkpt lat="42.669550" lon="-2.640090">
        <ele>683.183</ele>
        <time>2011-04-16T12:44:31Z</time>
      </trkpt>
      <trkpt lat="42.669460" lon="-2.640040">
        <ele>683.120</ele>
        <time>2011-04-16T12:44:38Z</time>
      </trkpt>
      <trkpt lat="42.669370" lon="-2.640000">
        <ele>683.136</ele>
        <time>2011-04-16T12:44:46Z</time>
      </trkpt>
      <trkpt lat="42.669280" lon="-2.639990">
        <ele>683.143</ele>
        <time>2011-04-16T12:44:53Z</time>
      </trkpt>
      <trkpt lat="42.669200" lon="-2.639940">
        <ele>684.187</ele>
        <time>2011-04-16T12:45:01Z</time>
      </trkpt>
      <trkpt lat="42.669150" lon="-2.639830">
        <ele>684.642</ele>
        <time>2011-04-16T12:45:09Z</time>
      </trkpt>
      <trkpt lat="42.669130" lon="-2.639700">
        <ele>684.626</ele>
        <time>2011-04-16T12:45:17Z</time>
      </trkpt>
      <trkpt lat="42.669110" lon="-2.639570">
        <ele>685.607</ele>
        <time>2011-04-16T12:45:25Z</time>
      </trkpt>
      <trkpt lat="42.669080" lon="-2.639440">
        <ele>685.650</ele>
        <time>2011-04-16T12:45:33Z</time>
      </trkpt>
      <trkpt lat="42.669060" lon="-2.639300">
        <ele>686.561</ele>
        <time>2011-04-16T12:45:41Z</time>
      </trkpt>
      <trkpt lat="42.669040" lon="-2.639180">
        <ele>688.060</ele>
        <time>2011-04-16T12:45:49Z</time>
      </trkpt>
      <trkpt lat="42.669030" lon="-2.639060">
        <ele>689.467</ele>
        <time>2011-04-16T12:45:57Z</time>
      </trkpt>
      <trkpt lat="42.669030" lon="-2.638930">
        <ele>690.464</ele>
        <time>2011-04-16T12:46:06Z</time>
      </trkpt>
      <trkpt lat="42.669030" lon="-2.638790">
        <ele>691.310</ele>
        <time>2011-04-16T12:46:15Z</time>
      </trkpt>
      <trkpt lat="42.669020" lon="-2.638650">
        <ele>692.877</ele>
        <time>2011-04-16T12:46:24Z</time>
      </trkpt>
      <trkpt lat="42.668990" lon="-2.638520">
        <ele>694.255</ele>
        <time>2011-04-16T12:46:33Z</time>
      </trkpt>
      <trkpt lat="42.668970" lon="-2.638400">
        <ele>695.207</ele>
        <time>2011-04-16T12:46:41Z</time>
      </trkpt>
      <trkpt lat="42.668950" lon="-2.638280">
        <ele>697.617</ele>
        <time>2011-04-16T12:46:49Z</time>
      </trkpt>
      <trkpt lat="42.668940" lon="-2.638140">
        <ele>698.507</ele>
        <time>2011-04-16T12:46:57Z</time>
      </trkpt>
      <trkpt lat="42.668930" lon="-2.638010">
        <ele>700.077</ele>
        <time>2011-04-16T12:47:05Z</time>
      </trkpt>
      <trkpt lat="42.668930" lon="-2.637880">
        <ele>700.958</ele>
        <time>2011-04-16T12:47:13Z</time>
      </trkpt>
      <trkpt lat="42.668940" lon="-2.637750">
        <ele>702.477</ele>
        <time>2011-04-16T12:47:21Z</time>
      </trkpt>
      <trkpt lat="42.668950" lon="-2.637630">
        <ele>703.444</ele>
        <time>2011-04-16T12:47:28Z</time>
      </trkpt>
      <trkpt lat="42.668950" lon="-2.637490">
        <ele>704.851</ele>
        <time>2011-04-16T12:47:36Z</time>
      </trkpt>
      <trkpt lat="42.668950" lon="-2.637350">
        <ele>705.327</ele>
        <time>2011-04-16T12:47:44Z</time>
      </trkpt>
      <trkpt lat="42.668930" lon="-2.637210">
        <ele>705.774</ele>
        <time>2011-04-16T12:47:52Z</time>
      </trkpt>
      <trkpt lat="42.668920" lon="-2.637090">
        <ele>706.755</ele>
        <time>2011-04-16T12:47:59Z</time>
      </trkpt>
      <trkpt lat="42.668920" lon="-2.636970">
        <ele>707.707</ele>
        <time>2011-04-16T12:48:06Z</time>
      </trkpt>
      <trkpt lat="42.668920" lon="-2.636840">
        <ele>708.117</ele>
        <time>2011-04-16T12:48:13Z</time>
      </trkpt>
      <trkpt lat="42.668930" lon="-2.636710">
        <ele>708.607</ele>
        <time>2011-04-16T12:48:20Z</time>
      </trkpt>
      <trkpt lat="42.668940" lon="-2.636580">
        <ele>710.187</ele>
        <time>2011-04-16T12:48:27Z</time>
      </trkpt>
      <trkpt lat="42.668950" lon="-2.636460">
        <ele>710.518</ele>
        <time>2011-04-16T12:48:34Z</time>
      </trkpt>
      <trkpt lat="42.668950" lon="-2.636330">
        <ele>711.557</ele>
        <time>2011-04-16T12:48:42Z</time>
      </trkpt>
      <trkpt lat="42.668960" lon="-2.636200">
        <ele>712.054</ele>
        <time>2011-04-16T12:48:49Z</time>
      </trkpt>
      <trkpt lat="42.668970" lon="-2.636080">
        <ele>713.061</ele>
        <time>2011-04-16T12:48:56Z</time>
      </trkpt>
      <trkpt lat="42.668990" lon="-2.635940">
        <ele>714.967</ele>
        <time>2011-04-16T12:49:04Z</time>
      </trkpt>
      <trkpt lat="42.668990" lon="-2.635820">
        <ele>715.464</ele>
        <time>2011-04-16T12:49:11Z</time>
      </trkpt>
      <trkpt lat="42.668970" lon="-2.635700">
        <ele>715.937</ele>
        <time>2011-04-16T12:49:18Z</time>
      </trkpt>
      <trkpt lat="42.668960" lon="-2.635560">
        <ele>716.349</ele>
        <time>2011-04-16T12:49:26Z</time>
      </trkpt>
      <trkpt lat="42.668950" lon="-2.635430">
        <ele>717.313</ele>
        <time>2011-04-16T12:49:33Z</time>
      </trkpt>
      <trkpt lat="42.668920" lon="-2.635310">
        <ele>718.207</ele>
        <time>2011-04-16T12:49:40Z</time>
      </trkpt>
      <trkpt lat="42.668880" lon="-2.635190">
        <ele>719.735</ele>
        <time>2011-04-16T12:49:47Z</time>
      </trkpt>
      <trkpt lat="42.668860" lon="-2.635060">
        <ele>719.796</ele>
        <time>2011-04-16T12:49:54Z</time>
      </trkpt>
      <trkpt lat="42.668850" lon="-2.634940">
        <ele>721.655</ele>
        <time>2011-04-16T12:50:01Z</time>
      </trkpt>
      <trkpt lat="42.668840" lon="-2.634810">
        <ele>722.692</ele>
        <time>2011-04-16T12:50:08Z</time>
      </trkpt>
      <trkpt lat="42.668830" lon="-2.634690">
        <ele>722.689</ele>
        <time>2011-04-16T12:50:15Z</time>
      </trkpt>
      <trkpt lat="42.668820" lon="-2.634560">
        <ele>724.045</ele>
        <time>2011-04-16T12:50:22Z</time>
      </trkpt>
      <trkpt lat="42.668810" lon="-2.634440">
        <ele>724.592</ele>
        <time>2011-04-16T12:50:29Z</time>
      </trkpt>
      <trkpt lat="42.668790" lon="-2.634320">
        <ele>725.583</ele>
        <time>2011-04-16T12:50:36Z</time>
      </trkpt>
      <trkpt lat="42.668750" lon="-2.634200">
        <ele>727.425</ele>
        <time>2011-04-16T12:50:43Z</time>
      </trkpt>
      <trkpt lat="42.668720" lon="-2.634090">
        <ele>728.417</ele>
        <time>2011-04-16T12:50:50Z</time>
      </trkpt>
      <trkpt lat="42.668690" lon="-2.633960">
        <ele>728.807</ele>
        <time>2011-04-16T12:50:57Z</time>
      </trkpt>
      <trkpt lat="42.668670" lon="-2.633830">
        <ele>729.390</ele>
        <time>2011-04-16T12:51:04Z</time>
      </trkpt>
      <trkpt lat="42.668670" lon="-2.633700">
        <ele>730.311</ele>
        <time>2011-04-16T12:51:11Z</time>
      </trkpt>
      <trkpt lat="42.668680" lon="-2.633570">
        <ele>729.330</ele>
        <time>2011-04-16T12:51:18Z</time>
      </trkpt>
      <trkpt lat="42.668710" lon="-2.633440">
        <ele>730.347</ele>
        <time>2011-04-16T12:51:25Z</time>
      </trkpt>
      <trkpt lat="42.668760" lon="-2.633310">
        <ele>729.324</ele>
        <time>2011-04-16T12:51:32Z</time>
      </trkpt>
      <trkpt lat="42.668820" lon="-2.633200">
        <ele>729.810</ele>
        <time>2011-04-16T12:51:39Z</time>
      </trkpt>
      <trkpt lat="42.668900" lon="-2.633120">
        <ele>728.487</ele>
        <time>2011-04-16T12:51:46Z</time>
      </trkpt>
      <trkpt lat="42.668970" lon="-2.633040">
        <ele>728.456</ele>
        <time>2011-04-16T12:51:53Z</time>
      </trkpt>
      <trkpt lat="42.669050" lon="-2.632950">
        <ele>728.459</ele>
        <time>2011-04-16T12:52:00Z</time>
      </trkpt>
      <trkpt lat="42.669110" lon="-2.632860">
        <ele>728.414</ele>
        <time>2011-04-16T12:52:07Z</time>
      </trkpt>
      <trkpt lat="42.669160" lon="-2.632740">
        <ele>727.907</ele>
        <time>2011-04-16T12:52:15Z</time>
      </trkpt>
      <trkpt lat="42.669190" lon="-2.632620">
        <ele>726.417</ele>
        <time>2011-04-16T12:52:22Z</time>
      </trkpt>
      <trkpt lat="42.669230" lon="-2.632510">
        <ele>725.598</ele>
        <time>2011-04-16T12:52:29Z</time>
      </trkpt>
      <trkpt lat="42.669240" lon="-2.632510">
        <ele>725.977</ele>
        <time>2011-04-16T12:53:03Z</time>
      </trkpt>
      <trkpt lat="42.669280" lon="-2.632400">
        <ele>724.534</ele>
        <time>2011-04-16T12:53:39Z</time>
      </trkpt>
      <trkpt lat="42.669300" lon="-2.632280">
        <ele>724.041</ele>
        <time>2011-04-16T12:53:57Z</time>
      </trkpt>
      <trkpt lat="42.669330" lon="-2.632160">
        <ele>723.567</ele>
        <time>2011-04-16T12:54:04Z</time>
      </trkpt>
      <trkpt lat="42.669360" lon="-2.632040">
        <ele>724.034</ele>
        <time>2011-04-16T12:54:10Z</time>
      </trkpt>
      <trkpt lat="42.669390" lon="-2.631920">
        <ele>723.024</ele>
        <time>2011-04-16T12:54:16Z</time>
      </trkpt>
      <trkpt lat="42.669430" lon="-2.631800">
        <ele>722.104</ele>
        <time>2011-04-16T12:54:22Z</time>
      </trkpt>
      <trkpt lat="42.669460" lon="-2.631680">
        <ele>721.114</ele>
        <time>2011-04-16T12:54:28Z</time>
      </trkpt>
      <trkpt lat="42.669480" lon="-2.631560">
        <ele>720.607</ele>
        <time>2011-04-16T12:54:34Z</time>
      </trkpt>
      <trkpt lat="42.669520" lon="-2.631440">
        <ele>719.714</ele>
        <time>2011-04-16T12:54:40Z</time>
      </trkpt>
      <trkpt lat="42.669570" lon="-2.631330">
        <ele>717.835</ele>
        <time>2011-04-16T12:54:46Z</time>
      </trkpt>
      <trkpt lat="42.669600" lon="-2.631210">
        <ele>717.374</ele>
        <time>2011-04-16T12:54:52Z</time>
      </trkpt>
      <trkpt lat="42.669630" lon="-2.631090">
        <ele>715.971</ele>
        <time>2011-04-16T12:54:58Z</time>
      </trkpt>
      <trkpt lat="42.669660" lon="-2.630970">
        <ele>714.438</ele>
        <time>2011-04-16T12:55:04Z</time>
      </trkpt>
      <trkpt lat="42.669700" lon="-2.630850">
        <ele>713.064</ele>
        <time>2011-04-16T12:55:10Z</time>
      </trkpt>
      <trkpt lat="42.669750" lon="-2.630740">
        <ele>712.061</ele>
        <time>2011-04-16T12:55:16Z</time>
      </trkpt>
      <trkpt lat="42.669800" lon="-2.630630">
        <ele>711.015</ele>
        <time>2011-04-16T12:55:22Z</time>
      </trkpt>
      <trkpt lat="42.669840" lon="-2.630520">
        <ele>709.165</ele>
        <time>2011-04-16T12:55:28Z</time>
      </trkpt>
      <trkpt lat="42.669890" lon="-2.630420">
        <ele>706.711</ele>
        <time>2011-04-16T12:55:37Z</time>
      </trkpt>
      <trkpt lat="42.669920" lon="-2.630290">
        <ele>706.207</ele>
        <time>2011-04-16T12:55:47Z</time>
      </trkpt>
      <trkpt lat="42.669950" lon="-2.630180">
        <ele>705.363</ele>
        <time>2011-04-16T12:55:54Z</time>
      </trkpt>
      <trkpt lat="42.669980" lon="-2.630050">
        <ele>704.324</ele>
        <time>2011-04-16T12:56:01Z</time>
      </trkpt>
      <trkpt lat="42.670000" lon="-2.629920">
        <ele>703.453</ele>
        <time>2011-04-16T12:56:08Z</time>
      </trkpt>
      <trkpt lat="42.670010" lon="-2.629780">
        <ele>701.420</ele>
        <time>2011-04-16T12:56:15Z</time>
      </trkpt>
      <trkpt lat="42.670020" lon="-2.629640">
        <ele>700.057</ele>
        <time>2011-04-16T12:56:22Z</time>
      </trkpt>
      <trkpt lat="42.670020" lon="-2.629520">
        <ele>699.063</ele>
        <time>2011-04-16T12:56:28Z</time>
      </trkpt>
      <trkpt lat="42.670030" lon="-2.629380">
        <ele>698.580</ele>
        <time>2011-04-16T12:56:35Z</time>
      </trkpt>
      <trkpt lat="42.670020" lon="-2.629240">
        <ele>696.661</ele>
        <time>2011-04-16T12:56:42Z</time>
      </trkpt>
      <trkpt lat="42.670020" lon="-2.629110">
        <ele>696.121</ele>
        <time>2011-04-16T12:56:49Z</time>
      </trkpt>
      <trkpt lat="42.670010" lon="-2.628970">
        <ele>695.213</ele>
        <time>2011-04-16T12:56:56Z</time>
      </trkpt>
      <trkpt lat="42.670010" lon="-2.628840">
        <ele>694.707</ele>
        <time>2011-04-16T12:57:03Z</time>
      </trkpt>
      <trkpt lat="42.670010" lon="-2.628700">
        <ele>693.258</ele>
        <time>2011-04-16T12:57:10Z</time>
      </trkpt>
      <trkpt lat="42.670030" lon="-2.628570">
        <ele>692.339</ele>
        <time>2011-04-16T12:57:17Z</time>
      </trkpt>
      <trkpt lat="42.670090" lon="-2.628460">
        <ele>691.338</ele>
        <time>2011-04-16T12:57:24Z</time>
      </trkpt>
      <trkpt lat="42.670170" lon="-2.628370">
        <ele>690.925</ele>
        <time>2011-04-16T12:57:31Z</time>
      </trkpt>
      <trkpt lat="42.670240" lon="-2.628280">
        <ele>689.492</ele>
        <time>2011-04-16T12:57:38Z</time>
      </trkpt>
      <trkpt lat="42.670320" lon="-2.628180">
        <ele>688.048</ele>
        <time>2011-04-16T12:57:45Z</time>
      </trkpt>
      <trkpt lat="42.670390" lon="-2.628080">
        <ele>687.555</ele>
        <time>2011-04-16T12:57:52Z</time>
      </trkpt>
      <trkpt lat="42.670460" lon="-2.627980">
        <ele>686.027</ele>
        <time>2011-04-16T12:57:59Z</time>
      </trkpt>
      <trkpt lat="42.670530" lon="-2.627890">
        <ele>685.168</ele>
        <time>2011-04-16T12:58:06Z</time>
      </trkpt>
      <trkpt lat="42.670610" lon="-2.627830">
        <ele>683.614</ele>
        <time>2011-04-16T12:58:12Z</time>
      </trkpt>
      <trkpt lat="42.670700" lon="-2.627790">
        <ele>682.707</ele>
        <time>2011-04-16T12:58:18Z</time>
      </trkpt>
      <trkpt lat="42.670790" lon="-2.627780">
        <ele>682.224</ele>
        <time>2011-04-16T12:58:24Z</time>
      </trkpt>
      <trkpt lat="42.670890" lon="-2.627810">
        <ele>681.275</ele>
        <time>2011-04-16T12:58:31Z</time>
      </trkpt>
      <trkpt lat="42.670990" lon="-2.627850">
        <ele>679.894</ele>
        <time>2011-04-16T12:58:38Z</time>
      </trkpt>
      <trkpt lat="42.671090" lon="-2.627890">
        <ele>680.311</ele>
        <time>2011-04-16T12:58:45Z</time>
      </trkpt>
      <trkpt lat="42.671190" lon="-2.627930">
        <ele>678.388</ele>
        <time>2011-04-16T12:58:52Z</time>
      </trkpt>
      <trkpt lat="42.671280" lon="-2.627910">
        <ele>677.964</ele>
        <time>2011-04-16T12:58:59Z</time>
      </trkpt>
      <trkpt lat="42.671340" lon="-2.627810">
        <ele>676.021</ele>
        <time>2011-04-16T12:59:06Z</time>
      </trkpt>
      <trkpt lat="42.671380" lon="-2.627690">
        <ele>675.099</ele>
        <time>2011-04-16T12:59:13Z</time>
      </trkpt>
      <trkpt lat="42.671430" lon="-2.627590">
        <ele>674.507</ele>
        <time>2011-04-16T12:59:20Z</time>
      </trkpt>
      <trkpt lat="42.671500" lon="-2.627500">
        <ele>673.127</ele>
        <time>2011-04-16T12:59:27Z</time>
      </trkpt>
      <trkpt lat="42.671590" lon="-2.627470">
        <ele>672.107</ele>
        <time>2011-04-16T12:59:35Z</time>
      </trkpt>
      <trkpt lat="42.671690" lon="-2.627490">
        <ele>670.221</ele>
        <time>2011-04-16T12:59:44Z</time>
      </trkpt>
      <trkpt lat="42.671780" lon="-2.627560">
        <ele>668.722</ele>
        <time>2011-04-16T12:59:52Z</time>
      </trkpt>
      <trkpt lat="42.671860" lon="-2.627600">
        <ele>668.211</ele>
        <time>2011-04-16T12:59:59Z</time>
      </trkpt>
      <trkpt lat="42.671960" lon="-2.627610">
        <ele>668.268</ele>
        <time>2011-04-16T13:00:07Z</time>
      </trkpt>
      <trkpt lat="42.672060" lon="-2.627630">
        <ele>667.845</ele>
        <time>2011-04-16T13:00:15Z</time>
      </trkpt>
      <trkpt lat="42.672150" lon="-2.627640">
        <ele>667.331</ele>
        <time>2011-04-16T13:00:22Z</time>
      </trkpt>
      <trkpt lat="42.672250" lon="-2.627620">
        <ele>666.878</ele>
        <time>2011-04-16T13:00:29Z</time>
      </trkpt>
      <trkpt lat="42.672340" lon="-2.627580">
        <ele>666.872</ele>
        <time>2011-04-16T13:00:37Z</time>
      </trkpt>
      <trkpt lat="42.672430" lon="-2.627530">
        <ele>666.813</ele>
        <time>2011-04-16T13:00:46Z</time>
      </trkpt>
      <trkpt lat="42.672490" lon="-2.627430">
        <ele>666.314</ele>
        <time>2011-04-16T13:00:55Z</time>
      </trkpt>
      <trkpt lat="42.672550" lon="-2.627330">
        <ele>665.807</ele>
        <time>2011-04-16T13:01:03Z</time>
      </trkpt>
      <trkpt lat="42.672560" lon="-2.627220">
        <ele>665.899</ele>
        <time>2011-04-16T13:01:12Z</time>
      </trkpt>
      <trkpt lat="42.672630" lon="-2.627130">
        <ele>664.940</ele>
        <time>2011-04-16T13:01:21Z</time>
      </trkpt>
      <trkpt lat="42.672700" lon="-2.627040">
        <ele>663.579</ele>
        <time>2011-04-16T13:01:29Z</time>
      </trkpt>
      <trkpt lat="42.672770" lon="-2.626960">
        <ele>663.976</ele>
        <time>2011-04-16T13:01:36Z</time>
      </trkpt>
      <trkpt lat="42.672840" lon="-2.626880">
        <ele>661.133</ele>
        <time>2011-04-16T13:01:43Z</time>
      </trkpt>
      <trkpt lat="42.672910" lon="-2.626790">
        <ele>661.529</ele>
        <time>2011-04-16T13:01:51Z</time>
      </trkpt>
      <trkpt lat="42.672980" lon="-2.626700">
        <ele>661.536</ele>
        <time>2011-04-16T13:01:59Z</time>
      </trkpt>
      <trkpt lat="42.673020" lon="-2.626590">
        <ele>660.138</ele>
        <time>2011-04-16T13:02:07Z</time>
      </trkpt>
      <trkpt lat="42.673110" lon="-2.626560">
        <ele>659.170</ele>
        <time>2011-04-16T13:02:14Z</time>
      </trkpt>
      <trkpt lat="42.673210" lon="-2.626530">
        <ele>657.717</ele>
        <time>2011-04-16T13:02:22Z</time>
      </trkpt>
      <trkpt lat="42.673300" lon="-2.626490">
        <ele>657.707</ele>
        <time>2011-04-16T13:02:30Z</time>
      </trkpt>
      <trkpt lat="42.673380" lon="-2.626430">
        <ele>656.235</ele>
        <time>2011-04-16T13:02:38Z</time>
      </trkpt>
      <trkpt lat="42.673470" lon="-2.626390">
        <ele>654.826</ele>
        <time>2011-04-16T13:02:45Z</time>
      </trkpt>
      <trkpt lat="42.673560" lon="-2.626360">
        <ele>653.345</ele>
        <time>2011-04-16T13:02:52Z</time>
      </trkpt>
      <trkpt lat="42.673650" lon="-2.626350">
        <ele>652.422</ele>
        <time>2011-04-16T13:03:00Z</time>
      </trkpt>
      <trkpt lat="42.673740" lon="-2.626340">
        <ele>651.959</ele>
        <time>2011-04-16T13:03:09Z</time>
      </trkpt>
      <trkpt lat="42.673840" lon="-2.626300">
        <ele>651.095</ele>
        <time>2011-04-16T13:03:18Z</time>
      </trkpt>
      <trkpt lat="42.673930" lon="-2.626270">
        <ele>650.542</ele>
        <time>2011-04-16T13:03:25Z</time>
      </trkpt>
      <trkpt lat="42.674020" lon="-2.626250">
        <ele>651.065</ele>
        <time>2011-04-16T13:03:32Z</time>
      </trkpt>
      <trkpt lat="42.674110" lon="-2.626210">
        <ele>650.068</ele>
        <time>2011-04-16T13:03:39Z</time>
      </trkpt>
      <trkpt lat="42.674200" lon="-2.626200">
        <ele>650.514</ele>
        <time>2011-04-16T13:03:46Z</time>
      </trkpt>
      <trkpt lat="42.674300" lon="-2.626230">
        <ele>650.007</ele>
        <time>2011-04-16T13:03:54Z</time>
      </trkpt>
      <trkpt lat="42.674390" lon="-2.626300">
        <ele>650.058</ele>
        <time>2011-04-16T13:04:01Z</time>
      </trkpt>
      <trkpt lat="42.674460" lon="-2.626370">
        <ele>649.529</ele>
        <time>2011-04-16T13:04:08Z</time>
      </trkpt>
      <trkpt lat="42.674560" lon="-2.626430">
        <ele>649.548</ele>
        <time>2011-04-16T13:04:16Z</time>
      </trkpt>
      <trkpt lat="42.674650" lon="-2.626480">
        <ele>649.575</ele>
        <time>2011-04-16T13:04:23Z</time>
      </trkpt>
      <trkpt lat="42.674740" lon="-2.626530">
        <ele>649.072</ele>
        <time>2011-04-16T13:04:30Z</time>
      </trkpt>
      <trkpt lat="42.674830" lon="-2.626580">
        <ele>648.628</ele>
        <time>2011-04-16T13:04:37Z</time>
      </trkpt>
      <trkpt lat="42.674910" lon="-2.626620">
        <ele>648.665</ele>
        <time>2011-04-16T13:04:44Z</time>
      </trkpt>
      <trkpt lat="42.675020" lon="-2.626620">
        <ele>647.697</ele>
        <time>2011-04-16T13:04:52Z</time>
      </trkpt>
      <trkpt lat="42.675120" lon="-2.626640">
        <ele>647.623</ele>
        <time>2011-04-16T13:05:00Z</time>
      </trkpt>
      <trkpt lat="42.675210" lon="-2.626710">
        <ele>648.625</ele>
        <time>2011-04-16T13:05:08Z</time>
      </trkpt>
      <trkpt lat="42.675250" lon="-2.626830">
        <ele>650.007</ele>
        <time>2011-04-16T13:05:18Z</time>
      </trkpt>
      <trkpt lat="42.675290" lon="-2.626950">
        <ele>651.461</ele>
        <time>2011-04-16T13:05:28Z</time>
      </trkpt>
      <trkpt lat="42.675360" lon="-2.627040">
        <ele>652.472</ele>
        <time>2011-04-16T13:05:37Z</time>
      </trkpt>
      <trkpt lat="42.675460" lon="-2.627090">
        <ele>651.931</ele>
        <time>2011-04-16T13:05:46Z</time>
      </trkpt>
      <trkpt lat="42.675550" lon="-2.627130">
        <ele>652.948</ele>
        <time>2011-04-16T13:05:53Z</time>
      </trkpt>
      <trkpt lat="42.675640" lon="-2.627190">
        <ele>652.955</ele>
        <time>2011-04-16T13:06:01Z</time>
      </trkpt>
      <trkpt lat="42.675680" lon="-2.627290">
        <ele>655.351</ele>
        <time>2011-04-16T13:06:24Z</time>
      </trkpt>
      <trkpt lat="42.675620" lon="-2.627320">
        <ele>659.178</ele>
        <time>2011-04-16T13:06:39Z</time>
      </trkpt>
      <trkpt lat="42.675530" lon="-2.627330">
        <ele>661.188</ele>
        <time>2011-04-16T13:06:55Z</time>
      </trkpt>
      <trkpt lat="42.675440" lon="-2.627370">
        <ele>663.024</ele>
        <time>2011-04-16T13:07:10Z</time>
      </trkpt>
      <trkpt lat="42.675340" lon="-2.627410">
        <ele>664.926</ele>
        <time>2011-04-16T13:07:37Z</time>
      </trkpt>
      <trkpt lat="42.675270" lon="-2.627450">
        <ele>665.807</ele>
        <time>2011-04-16T13:07:49Z</time>
      </trkpt>
      <trkpt lat="42.675380" lon="-2.627400">
        <ele>664.990</ele>
        <time>2011-04-16T13:09:22Z</time>
      </trkpt>
      <trkpt lat="42.675340" lon="-2.627440">
        <ele>663.081</ele>
        <time>2011-04-16T13:10:07Z</time>
      </trkpt>
      <trkpt lat="42.675270" lon="-2.627330">
        <ele>663.070</ele>
        <time>2011-04-16T13:10:17Z</time>
      </trkpt>
      <trkpt lat="42.675200" lon="-2.627310">
        <ele>662.577</ele>
        <time>2011-04-16T13:10:53Z</time>
      </trkpt>
      <trkpt lat="42.675210" lon="-2.627300">
        <ele>663.984</ele>
        <time>2011-04-16T13:13:54Z</time>
      </trkpt>
      <trkpt lat="42.675210" lon="-2.627350">
        <ele>661.520</ele>
        <time>2011-04-16T13:16:48Z</time>
      </trkpt>
      <trkpt lat="42.675200" lon="-2.627280">
        <ele>663.947</ele>
        <time>2011-04-16T13:19:09Z</time>
      </trkpt>
      <trkpt lat="42.675280" lon="-2.627320">
        <ele>663.968</ele>
        <time>2011-04-16T13:19:42Z</time>
      </trkpt>
      <trkpt lat="42.675460" lon="-2.627260">
        <ele>661.542</ele>
        <time>2011-04-16T13:19:59Z</time>
      </trkpt>
      <trkpt lat="42.675550" lon="-2.627230">
        <ele>660.126</ele>
        <time>2011-04-16T13:20:07Z</time>
      </trkpt>
      <trkpt lat="42.675650" lon="-2.627230">
        <ele>658.607</ele>
        <time>2011-04-16T13:20:16Z</time>
      </trkpt>
      <trkpt lat="42.675650" lon="-2.627150">
        <ele>653.848</ele>
        <time>2011-04-16T13:20:30Z</time>
      </trkpt>
      <trkpt lat="42.675570" lon="-2.627100">
        <ele>652.979</ele>
        <time>2011-04-16T13:20:38Z</time>
      </trkpt>
      <trkpt lat="42.675480" lon="-2.627030">
        <ele>652.988</ele>
        <time>2011-04-16T13:20:46Z</time>
      </trkpt>
      <trkpt lat="42.675390" lon="-2.627010">
        <ele>652.435</ele>
        <time>2011-04-16T13:20:53Z</time>
      </trkpt>
      <trkpt lat="42.675310" lon="-2.626950">
        <ele>652.462</ele>
        <time>2011-04-16T13:21:00Z</time>
      </trkpt>
      <trkpt lat="42.675260" lon="-2.626860">
        <ele>651.448</ele>
        <time>2011-04-16T13:21:07Z</time>
      </trkpt>
      <trkpt lat="42.675230" lon="-2.626740">
        <ele>650.515</ele>
        <time>2011-04-16T13:21:14Z</time>
      </trkpt>
      <trkpt lat="42.675160" lon="-2.626660">
        <ele>649.525</ele>
        <time>2011-04-16T13:21:21Z</time>
      </trkpt>
      <trkpt lat="42.675070" lon="-2.626620">
        <ele>650.026</ele>
        <time>2011-04-16T13:21:28Z</time>
      </trkpt>
      <trkpt lat="42.674970" lon="-2.626590">
        <ele>650.008</ele>
        <time>2011-04-16T13:21:36Z</time>
      </trkpt>
      <trkpt lat="42.674870" lon="-2.626580">
        <ele>650.007</ele>
        <time>2011-04-16T13:21:43Z</time>
      </trkpt>
      <trkpt lat="42.674770" lon="-2.626530">
        <ele>651.064</ele>
        <time>2011-04-16T13:21:51Z</time>
      </trkpt>
      <trkpt lat="42.674680" lon="-2.626490">
        <ele>650.055</ele>
        <time>2011-04-16T13:21:58Z</time>
      </trkpt>
      <trkpt lat="42.674590" lon="-2.626440">
        <ele>651.094</ele>
        <time>2011-04-16T13:22:05Z</time>
      </trkpt>
      <trkpt lat="42.674500" lon="-2.626400">
        <ele>651.421</ele>
        <time>2011-04-16T13:22:12Z</time>
      </trkpt>
      <trkpt lat="42.674410" lon="-2.626320">
        <ele>651.478</ele>
        <time>2011-04-16T13:22:20Z</time>
      </trkpt>
      <trkpt lat="42.674340" lon="-2.626260">
        <ele>651.984</ele>
        <time>2011-04-16T13:22:27Z</time>
      </trkpt>
      <trkpt lat="42.674250" lon="-2.626210">
        <ele>652.481</ele>
        <time>2011-04-16T13:22:34Z</time>
      </trkpt>
      <trkpt lat="42.674150" lon="-2.626200">
        <ele>651.998</ele>
        <time>2011-04-16T13:22:41Z</time>
      </trkpt>
      <trkpt lat="42.674060" lon="-2.626230">
        <ele>652.415</ele>
        <time>2011-04-16T13:22:48Z</time>
      </trkpt>
      <trkpt lat="42.673980" lon="-2.626260">
        <ele>652.926</ele>
        <time>2011-04-16T13:22:55Z</time>
      </trkpt>
      <trkpt lat="42.673880" lon="-2.626290">
        <ele>653.307</ele>
        <time>2011-04-16T13:23:02Z</time>
      </trkpt>
      <trkpt lat="42.673790" lon="-2.626330">
        <ele>653.851</ele>
        <time>2011-04-16T13:23:09Z</time>
      </trkpt>
      <trkpt lat="42.673710" lon="-2.626360">
        <ele>654.852</ele>
        <time>2011-04-16T13:23:16Z</time>
      </trkpt>
      <trkpt lat="42.673610" lon="-2.626360">
        <ele>655.321</ele>
        <time>2011-04-16T13:23:23Z</time>
      </trkpt>
      <trkpt lat="42.673520" lon="-2.626380">
        <ele>655.778</ele>
        <time>2011-04-16T13:23:30Z</time>
      </trkpt>
      <trkpt lat="42.673430" lon="-2.626410">
        <ele>656.285</ele>
        <time>2011-04-16T13:23:37Z</time>
      </trkpt>
      <trkpt lat="42.673350" lon="-2.626450">
        <ele>658.651</ele>
        <time>2011-04-16T13:23:44Z</time>
      </trkpt>
      <trkpt lat="42.673260" lon="-2.626510">
        <ele>660.118</ele>
        <time>2011-04-16T13:23:52Z</time>
      </trkpt>
      <trkpt lat="42.673160" lon="-2.626550">
        <ele>661.184</ele>
        <time>2011-04-16T13:24:00Z</time>
      </trkpt>
      <trkpt lat="42.673060" lon="-2.626570">
        <ele>661.507</ele>
        <time>2011-04-16T13:24:08Z</time>
      </trkpt>
      <trkpt lat="42.672970" lon="-2.626590">
        <ele>662.017</ele>
        <time>2011-04-16T13:24:15Z</time>
      </trkpt>
      <trkpt lat="42.672880" lon="-2.626620">
        <ele>662.507</ele>
        <time>2011-04-16T13:24:23Z</time>
      </trkpt>
      <trkpt lat="42.672790" lon="-2.626650">
        <ele>663.520</ele>
        <time>2011-04-16T13:24:30Z</time>
      </trkpt>
      <trkpt lat="42.672690" lon="-2.626670">
        <ele>664.481</ele>
        <time>2011-04-16T13:24:38Z</time>
      </trkpt>
      <trkpt lat="42.672590" lon="-2.626690">
        <ele>664.430</ele>
        <time>2011-04-16T13:24:46Z</time>
      </trkpt>
      <trkpt lat="42.672490" lon="-2.626710">
        <ele>664.917</ele>
        <time>2011-04-16T13:24:54Z</time>
      </trkpt>
      <trkpt lat="42.672390" lon="-2.626720">
        <ele>666.364</ele>
        <time>2011-04-16T13:25:01Z</time>
      </trkpt>
      <trkpt lat="42.672300" lon="-2.626700">
        <ele>666.830</ele>
        <time>2011-04-16T13:25:08Z</time>
      </trkpt>
      <trkpt lat="42.672210" lon="-2.626670">
        <ele>667.347</ele>
        <time>2011-04-16T13:25:15Z</time>
      </trkpt>
      <trkpt lat="42.672130" lon="-2.626620">
        <ele>667.324</ele>
        <time>2011-04-16T13:25:22Z</time>
      </trkpt>
      <trkpt lat="42.672050" lon="-2.626550">
        <ele>668.204</ele>
        <time>2011-04-16T13:25:29Z</time>
      </trkpt>
      <trkpt lat="42.671970" lon="-2.626480">
        <ele>669.214</ele>
        <time>2011-04-16T13:25:36Z</time>
      </trkpt>
      <trkpt lat="42.671890" lon="-2.626400">
        <ele>669.707</ele>
        <time>2011-04-16T13:25:44Z</time>
      </trkpt>
      <trkpt lat="42.671810" lon="-2.626310">
        <ele>670.234</ele>
        <time>2011-04-16T13:25:52Z</time>
      </trkpt>
      <trkpt lat="42.671720" lon="-2.626230">
        <ele>670.765</ele>
        <time>2011-04-16T13:26:00Z</time>
      </trkpt>
      <trkpt lat="42.671640" lon="-2.626140">
        <ele>671.174</ele>
        <time>2011-04-16T13:26:08Z</time>
      </trkpt>
      <trkpt lat="42.671570" lon="-2.626060">
        <ele>671.671</ele>
        <time>2011-04-16T13:26:15Z</time>
      </trkpt>
      <trkpt lat="42.671500" lon="-2.625980">
        <ele>672.178</ele>
        <time>2011-04-16T13:26:22Z</time>
      </trkpt>
      <trkpt lat="42.671420" lon="-2.625900">
        <ele>672.154</ele>
        <time>2011-04-16T13:26:29Z</time>
      </trkpt>
      <trkpt lat="42.671350" lon="-2.625830">
        <ele>671.661</ele>
        <time>2011-04-16T13:26:36Z</time>
      </trkpt>
      <trkpt lat="42.671280" lon="-2.625780">
        <ele>671.627</ele>
        <time>2011-04-16T13:26:47Z</time>
      </trkpt>
      <trkpt lat="42.671200" lon="-2.625720">
        <ele>671.668</ele>
        <time>2011-04-16T13:26:58Z</time>
      </trkpt>
      <trkpt lat="42.671120" lon="-2.625660">
        <ele>671.614</ele>
        <time>2011-04-16T13:27:05Z</time>
      </trkpt>
      <trkpt lat="42.671030" lon="-2.625610">
        <ele>672.607</ele>
        <time>2011-04-16T13:27:12Z</time>
      </trkpt>
      <trkpt lat="42.670940" lon="-2.625580">
        <ele>673.114</ele>
        <time>2011-04-16T13:27:19Z</time>
      </trkpt>
      <trkpt lat="42.670840" lon="-2.625550">
        <ele>673.515</ele>
        <time>2011-04-16T13:27:26Z</time>
      </trkpt>
      <trkpt lat="42.670740" lon="-2.625520">
        <ele>674.014</ele>
        <time>2011-04-16T13:27:33Z</time>
      </trkpt>
      <trkpt lat="42.670650" lon="-2.625500">
        <ele>674.011</ele>
        <time>2011-04-16T13:27:40Z</time>
      </trkpt>
      <trkpt lat="42.670550" lon="-2.625510">
        <ele>674.548</ele>
        <time>2011-04-16T13:27:47Z</time>
      </trkpt>
      <trkpt lat="42.670450" lon="-2.625500">
        <ele>674.054</ele>
        <time>2011-04-16T13:27:54Z</time>
      </trkpt>
      <trkpt lat="42.670350" lon="-2.625480">
        <ele>673.171</ele>
        <time>2011-04-16T13:28:01Z</time>
      </trkpt>
      <trkpt lat="42.670240" lon="-2.625480">
        <ele>673.554</ele>
        <time>2011-04-16T13:28:08Z</time>
      </trkpt>
      <trkpt lat="42.670140" lon="-2.625480">
        <ele>673.156</ele>
        <time>2011-04-16T13:28:15Z</time>
      </trkpt>
      <trkpt lat="42.670040" lon="-2.625460">
        <ele>672.611</ele>
        <time>2011-04-16T13:28:22Z</time>
      </trkpt>
      <trkpt lat="42.669940" lon="-2.625460">
        <ele>673.107</ele>
        <time>2011-04-16T13:28:29Z</time>
      </trkpt>
      <trkpt lat="42.669840" lon="-2.625440">
        <ele>671.677</ele>
        <time>2011-04-16T13:28:36Z</time>
      </trkpt>
      <trkpt lat="42.669740" lon="-2.625430">
        <ele>672.688</ele>
        <time>2011-04-16T13:28:43Z</time>
      </trkpt>
      <trkpt lat="42.669640" lon="-2.625420">
        <ele>673.167</ele>
        <time>2011-04-16T13:28:50Z</time>
      </trkpt>
      <trkpt lat="42.669540" lon="-2.625410">
        <ele>673.134</ele>
        <time>2011-04-16T13:28:57Z</time>
      </trkpt>
      <trkpt lat="42.669440" lon="-2.625400">
        <ele>673.531</ele>
        <time>2011-04-16T13:29:04Z</time>
      </trkpt>
      <trkpt lat="42.669340" lon="-2.625380">
        <ele>673.177</ele>
        <time>2011-04-16T13:29:11Z</time>
      </trkpt>
      <trkpt lat="42.669240" lon="-2.625380">
        <ele>671.184</ele>
        <time>2011-04-16T13:29:18Z</time>
      </trkpt>
      <trkpt lat="42.669150" lon="-2.625360">
        <ele>671.676</ele>
        <time>2011-04-16T13:29:25Z</time>
      </trkpt>
      <trkpt lat="42.669050" lon="-2.625340">
        <ele>669.790</ele>
        <time>2011-04-16T13:29:32Z</time>
      </trkpt>
      <trkpt lat="42.668950" lon="-2.625290">
        <ele>669.219</ele>
        <time>2011-04-16T13:29:39Z</time>
      </trkpt>
      <trkpt lat="42.668850" lon="-2.625250">
        <ele>667.807</ele>
        <time>2011-04-16T13:29:46Z</time>
      </trkpt>
      <trkpt lat="42.668770" lon="-2.625190">
        <ele>666.839</ele>
        <time>2011-04-16T13:29:52Z</time>
      </trkpt>
      <trkpt lat="42.668680" lon="-2.625120">
        <ele>666.870</ele>
        <time>2011-04-16T13:29:59Z</time>
      </trkpt>
      <trkpt lat="42.668580" lon="-2.625130">
        <ele>666.819</ele>
        <time>2011-04-16T13:30:06Z</time>
      </trkpt>
      <trkpt lat="42.668490" lon="-2.625150">
        <ele>667.896</ele>
        <time>2011-04-16T13:30:13Z</time>
      </trkpt>
      <trkpt lat="42.668390" lon="-2.625150">
        <ele>668.273</ele>
        <time>2011-04-16T13:30:20Z</time>
      </trkpt>
      <trkpt lat="42.668290" lon="-2.625130">
        <ele>669.739</ele>
        <time>2011-04-16T13:30:27Z</time>
      </trkpt>
      <trkpt lat="42.668200" lon="-2.625100">
        <ele>668.796</ele>
        <time>2011-04-16T13:30:34Z</time>
      </trkpt>
      <trkpt lat="42.668120" lon="-2.625040">
        <ele>669.758</ele>
        <time>2011-04-16T13:30:42Z</time>
      </trkpt>
      <trkpt lat="42.668030" lon="-2.625000">
        <ele>670.252</ele>
        <time>2011-04-16T13:30:49Z</time>
      </trkpt>
      <trkpt lat="42.667940" lon="-2.624960">
        <ele>669.717</ele>
        <time>2011-04-16T13:30:56Z</time>
      </trkpt>
      <trkpt lat="42.667850" lon="-2.624910">
        <ele>670.707</ele>
        <time>2011-04-16T13:31:03Z</time>
      </trkpt>
      <trkpt lat="42.667750" lon="-2.624870">
        <ele>671.647</ele>
        <time>2011-04-16T13:31:10Z</time>
      </trkpt>
      <trkpt lat="42.667660" lon="-2.624820">
        <ele>673.158</ele>
        <time>2011-04-16T13:31:17Z</time>
      </trkpt>
      <trkpt lat="42.667570" lon="-2.624760">
        <ele>673.127</ele>
        <time>2011-04-16T13:31:24Z</time>
      </trkpt>
      <trkpt lat="42.667480" lon="-2.624720">
        <ele>673.534</ele>
        <time>2011-04-16T13:31:31Z</time>
      </trkpt>
      <trkpt lat="42.667390" lon="-2.624670">
        <ele>674.071</ele>
        <time>2011-04-16T13:31:38Z</time>
      </trkpt>
      <trkpt lat="42.667310" lon="-2.624610">
        <ele>675.017</ele>
        <time>2011-04-16T13:31:46Z</time>
      </trkpt>
      <trkpt lat="42.667230" lon="-2.624540">
        <ele>675.014</ele>
        <time>2011-04-16T13:31:53Z</time>
      </trkpt>
      <trkpt lat="42.667160" lon="-2.624480">
        <ele>676.077</ele>
        <time>2011-04-16T13:32:00Z</time>
      </trkpt>
      <trkpt lat="42.667080" lon="-2.624410">
        <ele>676.061</ele>
        <time>2011-04-16T13:32:07Z</time>
      </trkpt>
      <trkpt lat="42.667000" lon="-2.624340">
        <ele>675.527</ele>
        <time>2011-04-16T13:32:14Z</time>
      </trkpt>
      <trkpt lat="42.666920" lon="-2.624270">
        <ele>676.007</ele>
        <time>2011-04-16T13:32:21Z</time>
      </trkpt>
      <trkpt lat="42.666840" lon="-2.624200">
        <ele>675.559</ele>
        <time>2011-04-16T13:32:28Z</time>
      </trkpt>
      <trkpt lat="42.666750" lon="-2.624130">
        <ele>676.080</ele>
        <time>2011-04-16T13:32:35Z</time>
      </trkpt>
      <trkpt lat="42.666670" lon="-2.624050">
        <ele>676.499</ele>
        <time>2011-04-16T13:32:42Z</time>
      </trkpt>
      <trkpt lat="42.666590" lon="-2.623980">
        <ele>676.486</ele>
        <time>2011-04-16T13:32:49Z</time>
      </trkpt>
      <trkpt lat="42.666510" lon="-2.623910">
        <ele>676.413</ele>
        <time>2011-04-16T13:32:56Z</time>
      </trkpt>
      <trkpt lat="42.666430" lon="-2.623840">
        <ele>676.479</ele>
        <time>2011-04-16T13:33:03Z</time>
      </trkpt>
      <trkpt lat="42.666340" lon="-2.623770">
        <ele>676.446</ele>
        <time>2011-04-16T13:33:10Z</time>
      </trkpt>
      <trkpt lat="42.666260" lon="-2.623700">
        <ele>676.939</ele>
        <time>2011-04-16T13:33:17Z</time>
      </trkpt>
      <trkpt lat="42.666170" lon="-2.623630">
        <ele>676.901</ele>
        <time>2011-04-16T13:33:24Z</time>
      </trkpt>
      <trkpt lat="42.666090" lon="-2.623550">
        <ele>676.921</ele>
        <time>2011-04-16T13:33:31Z</time>
      </trkpt>
      <trkpt lat="42.666000" lon="-2.623480">
        <ele>676.907</ele>
        <time>2011-04-16T13:33:38Z</time>
      </trkpt>
      <trkpt lat="42.665920" lon="-2.623410">
        <ele>677.985</ele>
        <time>2011-04-16T13:33:45Z</time>
      </trkpt>
      <trkpt lat="42.665840" lon="-2.623330">
        <ele>678.326</ele>
        <time>2011-04-16T13:33:52Z</time>
      </trkpt>
      <trkpt lat="42.665760" lon="-2.623260">
        <ele>677.955</ele>
        <time>2011-04-16T13:33:59Z</time>
      </trkpt>
      <trkpt lat="42.665670" lon="-2.623190">
        <ele>676.982</ele>
        <time>2011-04-16T13:34:06Z</time>
      </trkpt>
      <trkpt lat="42.665600" lon="-2.623110">
        <ele>677.969</ele>
        <time>2011-04-16T13:34:13Z</time>
      </trkpt>
      <trkpt lat="42.665510" lon="-2.623040">
        <ele>678.385</ele>
        <time>2011-04-16T13:34:20Z</time>
      </trkpt>
      <trkpt lat="42.665430" lon="-2.622980">
        <ele>678.812</ele>
        <time>2011-04-16T13:34:27Z</time>
      </trkpt>
      <trkpt lat="42.665340" lon="-2.622910">
        <ele>678.392</ele>
        <time>2011-04-16T13:34:34Z</time>
      </trkpt>
      <trkpt lat="42.665250" lon="-2.622850">
        <ele>679.373</ele>
        <time>2011-04-16T13:34:41Z</time>
      </trkpt>
      <trkpt lat="42.665170" lon="-2.622790">
        <ele>679.820</ele>
        <time>2011-04-16T13:34:48Z</time>
      </trkpt>
      <trkpt lat="42.665090" lon="-2.622730">
        <ele>680.707</ele>
        <time>2011-04-16T13:34:55Z</time>
      </trkpt>
      <trkpt lat="42.665000" lon="-2.622690">
        <ele>681.761</ele>
        <time>2011-04-16T13:35:02Z</time>
      </trkpt>
      <trkpt lat="42.664910" lon="-2.622650">
        <ele>681.762</ele>
        <time>2011-04-16T13:35:09Z</time>
      </trkpt>
      <trkpt lat="42.664820" lon="-2.622610">
        <ele>683.171</ele>
        <time>2011-04-16T13:35:16Z</time>
      </trkpt>
      <trkpt lat="42.664730" lon="-2.622570">
        <ele>684.198</ele>
        <time>2011-04-16T13:35:23Z</time>
      </trkpt>
      <trkpt lat="42.664640" lon="-2.622540">
        <ele>684.165</ele>
        <time>2011-04-16T13:35:30Z</time>
      </trkpt>
      <trkpt lat="42.664550" lon="-2.622500">
        <ele>684.651</ele>
        <time>2011-04-16T13:35:37Z</time>
      </trkpt>
      <trkpt lat="42.664460" lon="-2.622470">
        <ele>685.648</ele>
        <time>2011-04-16T13:35:44Z</time>
      </trkpt>
      <trkpt lat="42.664380" lon="-2.622420">
        <ele>686.071</ele>
        <time>2011-04-16T13:35:53Z</time>
      </trkpt>
      <trkpt lat="42.664290" lon="-2.622390">
        <ele>687.041</ele>
        <time>2011-04-16T13:36:03Z</time>
      </trkpt>
      <trkpt lat="42.664200" lon="-2.622360">
        <ele>687.515</ele>
        <time>2011-04-16T13:36:12Z</time>
      </trkpt>
      <trkpt lat="42.664110" lon="-2.622340">
        <ele>688.907</ele>
        <time>2011-04-16T13:36:21Z</time>
      </trkpt>
      <trkpt lat="42.664020" lon="-2.622310">
        <ele>690.959</ele>
        <time>2011-04-16T13:36:33Z</time>
      </trkpt>
      <trkpt lat="42.663940" lon="-2.622250">
        <ele>691.880</ele>
        <time>2011-04-16T13:36:43Z</time>
      </trkpt>
      <trkpt lat="42.663850" lon="-2.622190">
        <ele>691.839</ele>
        <time>2011-04-16T13:36:50Z</time>
      </trkpt>
      <trkpt lat="42.663790" lon="-2.622090">
        <ele>692.336</ele>
        <time>2011-04-16T13:36:58Z</time>
      </trkpt>
      <trkpt lat="42.663750" lon="-2.621960">
        <ele>692.863</ele>
        <time>2011-04-16T13:37:06Z</time>
      </trkpt>
      <trkpt lat="42.663740" lon="-2.621840">
        <ele>692.369</ele>
        <time>2011-04-16T13:37:13Z</time>
      </trkpt>
      <trkpt lat="42.663730" lon="-2.621710">
        <ele>691.886</ele>
        <time>2011-04-16T13:37:20Z</time>
      </trkpt>
      <trkpt lat="42.663730" lon="-2.621580">
        <ele>692.354</ele>
        <time>2011-04-16T13:37:27Z</time>
      </trkpt>
      <trkpt lat="42.663720" lon="-2.621450">
        <ele>691.856</ele>
        <time>2011-04-16T13:37:34Z</time>
      </trkpt>
      <trkpt lat="42.663720" lon="-2.621310">
        <ele>691.311</ele>
        <time>2011-04-16T13:37:41Z</time>
      </trkpt>
      <trkpt lat="42.663720" lon="-2.621180">
        <ele>691.307</ele>
        <time>2011-04-16T13:37:48Z</time>
      </trkpt>
      <trkpt lat="42.663730" lon="-2.621060">
        <ele>691.337</ele>
        <time>2011-04-16T13:37:56Z</time>
      </trkpt>
      <trkpt lat="42.663780" lon="-2.620950">
        <ele>690.988</ele>
        <time>2011-04-16T13:38:04Z</time>
      </trkpt>
      <trkpt lat="42.663860" lon="-2.620850">
        <ele>690.997</ele>
        <time>2011-04-16T13:38:12Z</time>
      </trkpt>
      <trkpt lat="42.663930" lon="-2.620780">
        <ele>690.484</ele>
        <time>2011-04-16T13:38:19Z</time>
      </trkpt>
      <trkpt lat="42.664010" lon="-2.620700">
        <ele>690.451</ele>
        <time>2011-04-16T13:38:27Z</time>
      </trkpt>
      <trkpt lat="42.664090" lon="-2.620640">
        <ele>690.977</ele>
        <time>2011-04-16T13:38:35Z</time>
      </trkpt>
      <trkpt lat="42.664160" lon="-2.620580">
        <ele>688.984</ele>
        <time>2011-04-16T13:38:46Z</time>
      </trkpt>
      <trkpt lat="42.664160" lon="-2.620480">
        <ele>689.914</ele>
        <time>2011-04-16T13:39:09Z</time>
      </trkpt>
      <trkpt lat="42.664080" lon="-2.620510">
        <ele>689.954</ele>
        <time>2011-04-16T13:39:28Z</time>
      </trkpt>
      <trkpt lat="42.664030" lon="-2.620560">
        <ele>690.409</ele>
        <time>2011-04-16T13:44:19Z</time>
      </trkpt>
      <trkpt lat="42.664020" lon="-2.620650">
        <ele>689.907</ele>
        <time>2011-04-16T13:44:50Z</time>
      </trkpt>
      <trkpt lat="42.663980" lon="-2.620680">
        <ele>689.933</ele>
        <time>2011-04-16T13:45:04Z</time>
      </trkpt>
      <trkpt lat="42.664040" lon="-2.620600">
        <ele>689.994</ele>
        <time>2011-04-16T13:45:14Z</time>
      </trkpt>
      <trkpt lat="42.664060" lon="-2.620460">
        <ele>689.963</ele>
        <time>2011-04-16T13:45:23Z</time>
      </trkpt>
      <trkpt lat="42.664080" lon="-2.620340">
        <ele>688.950</ele>
        <time>2011-04-16T13:45:31Z</time>
      </trkpt>
      <trkpt lat="42.664160" lon="-2.620280">
        <ele>688.557</ele>
        <time>2011-04-16T13:45:41Z</time>
      </trkpt>
      <trkpt lat="42.664270" lon="-2.620270">
        <ele>687.583</ele>
        <time>2011-04-16T13:45:54Z</time>
      </trkpt>
      <trkpt lat="42.664240" lon="-2.620270">
        <ele>687.580</ele>
        <time>2011-04-16T13:46:09Z</time>
      </trkpt>
      <trkpt lat="42.664140" lon="-2.620300">
        <ele>688.983</ele>
        <time>2011-04-16T13:46:20Z</time>
      </trkpt>
      <trkpt lat="42.664090" lon="-2.620410">
        <ele>689.425</ele>
        <time>2011-04-16T13:46:30Z</time>
      </trkpt>
      <trkpt lat="42.664070" lon="-2.620550">
        <ele>690.917</ele>
        <time>2011-04-16T13:46:40Z</time>
      </trkpt>
      <trkpt lat="42.664050" lon="-2.620660">
        <ele>690.907</ele>
        <time>2011-04-16T13:46:51Z</time>
      </trkpt>
      <trkpt lat="42.663960" lon="-2.620660">
        <ele>689.940</ele>
        <time>2011-04-16T13:47:26Z</time>
      </trkpt>
      <trkpt lat="42.663860" lon="-2.620660">
        <ele>689.931</ele>
        <time>2011-04-16T13:47:34Z</time>
      </trkpt>
      <trkpt lat="42.663770" lon="-2.620660">
        <ele>689.920</ele>
        <time>2011-04-16T13:47:41Z</time>
      </trkpt>
      <trkpt lat="42.663680" lon="-2.620660">
        <ele>689.987</ele>
        <time>2011-04-16T13:47:48Z</time>
      </trkpt>
      <trkpt lat="42.663590" lon="-2.620670">
        <ele>690.924</ele>
        <time>2011-04-16T13:47:55Z</time>
      </trkpt>
      <trkpt lat="42.663490" lon="-2.620680">
        <ele>690.920</ele>
        <time>2011-04-16T13:48:03Z</time>
      </trkpt>
      <trkpt lat="42.663420" lon="-2.620700">
        <ele>691.357</ele>
        <time>2011-04-16T13:48:33Z</time>
      </trkpt>
      <trkpt lat="42.663330" lon="-2.620700">
        <ele>690.981</ele>
        <time>2011-04-16T13:48:51Z</time>
      </trkpt>
      <trkpt lat="42.663230" lon="-2.620690">
        <ele>690.961</ele>
        <time>2011-04-16T13:48:59Z</time>
      </trkpt>
      <trkpt lat="42.663130" lon="-2.620690">
        <ele>692.817</ele>
        <time>2011-04-16T13:49:07Z</time>
      </trkpt>
      <trkpt lat="42.663020" lon="-2.620690">
        <ele>692.307</ele>
        <time>2011-04-16T13:49:23Z</time>
      </trkpt>
      <trkpt lat="42.662920" lon="-2.620690">
        <ele>692.870</ele>
        <time>2011-04-16T13:49:32Z</time>
      </trkpt>
      <trkpt lat="42.662830" lon="-2.620690">
        <ele>692.831</ele>
        <time>2011-04-16T13:49:40Z</time>
      </trkpt>
      <trkpt lat="42.662730" lon="-2.620700">
        <ele>693.240</ele>
        <time>2011-04-16T13:49:52Z</time>
      </trkpt>
      <trkpt lat="42.662640" lon="-2.620700">
        <ele>693.227</ele>
        <time>2011-04-16T13:50:00Z</time>
      </trkpt>
      <trkpt lat="42.662540" lon="-2.620690">
        <ele>692.884</ele>
        <time>2011-04-16T13:50:08Z</time>
      </trkpt>
      <trkpt lat="42.662450" lon="-2.620670">
        <ele>692.350</ele>
        <time>2011-04-16T13:50:15Z</time>
      </trkpt>
      <trkpt lat="42.662360" lon="-2.620700">
        <ele>691.837</ele>
        <time>2011-04-16T13:50:22Z</time>
      </trkpt>
      <trkpt lat="42.662270" lon="-2.620740">
        <ele>691.877</ele>
        <time>2011-04-16T13:50:29Z</time>
      </trkpt>
      <trkpt lat="42.662180" lon="-2.620790">
        <ele>692.361</ele>
        <time>2011-04-16T13:50:36Z</time>
      </trkpt>
      <trkpt lat="42.662090" lon="-2.620840">
        <ele>692.827</ele>
        <time>2011-04-16T13:50:43Z</time>
      </trkpt>
      <trkpt lat="42.662000" lon="-2.620870">
        <ele>692.807</ele>
        <time>2011-04-16T13:50:50Z</time>
      </trkpt>
      <trkpt lat="42.661900" lon="-2.620870">
        <ele>693.799</ele>
        <time>2011-04-16T13:50:58Z</time>
      </trkpt>
      <trkpt lat="42.661810" lon="-2.620820">
        <ele>693.740</ele>
        <time>2011-04-16T13:51:06Z</time>
      </trkpt>
      <trkpt lat="42.661740" lon="-2.620750">
        <ele>693.789</ele>
        <time>2011-04-16T13:51:15Z</time>
      </trkpt>
      <trkpt lat="42.661660" lon="-2.620670">
        <ele>694.236</ele>
        <time>2011-04-16T13:51:23Z</time>
      </trkpt>
      <trkpt lat="42.661560" lon="-2.620620">
        <ele>695.643</ele>
        <time>2011-04-16T13:51:31Z</time>
      </trkpt>
      <trkpt lat="42.661480" lon="-2.620560">
        <ele>696.689</ele>
        <time>2011-04-16T13:51:39Z</time>
      </trkpt>
      <trkpt lat="42.661390" lon="-2.620510">
        <ele>697.696</ele>
        <time>2011-04-16T13:51:47Z</time>
      </trkpt>
      <trkpt lat="42.661310" lon="-2.620450">
        <ele>698.181</ele>
        <time>2011-04-16T13:51:55Z</time>
      </trkpt>
      <trkpt lat="42.661240" lon="-2.620390">
        <ele>699.061</ele>
        <time>2011-04-16T13:52:05Z</time>
      </trkpt>
      <trkpt lat="42.661160" lon="-2.620320">
        <ele>700.917</ele>
        <time>2011-04-16T13:52:14Z</time>
      </trkpt>
      <trkpt lat="42.661070" lon="-2.620270">
        <ele>701.907</ele>
        <time>2011-04-16T13:52:23Z</time>
      </trkpt>
      <trkpt lat="42.660990" lon="-2.620230">
        <ele>703.880</ele>
        <time>2011-04-16T13:52:32Z</time>
      </trkpt>
      <trkpt lat="42.660890" lon="-2.620220">
        <ele>707.281</ele>
        <time>2011-04-16T13:52:42Z</time>
      </trkpt>
      <trkpt lat="42.660800" lon="-2.620240">
        <ele>709.170</ele>
        <time>2011-04-16T13:52:52Z</time>
      </trkpt>
      <trkpt lat="42.660720" lon="-2.620320">
        <ele>710.187</ele>
        <time>2011-04-16T13:53:02Z</time>
      </trkpt>
      <trkpt lat="42.660650" lon="-2.620420">
        <ele>710.554</ele>
        <time>2011-04-16T13:53:11Z</time>
      </trkpt>
      <trkpt lat="42.660700" lon="-2.620510">
        <ele>711.580</ele>
        <time>2011-04-16T13:53:19Z</time>
      </trkpt>
      <trkpt lat="42.660790" lon="-2.620560">
        <ele>711.577</ele>
        <time>2011-04-16T13:53:29Z</time>
      </trkpt>
      <trkpt lat="42.660710" lon="-2.620470">
        <ele>711.094</ele>
        <time>2011-04-16T13:53:38Z</time>
      </trkpt>
      <trkpt lat="42.660610" lon="-2.620440">
        <ele>711.057</ele>
        <time>2011-04-16T13:53:45Z</time>
      </trkpt>
      <trkpt lat="42.660510" lon="-2.620470">
        <ele>711.522</ele>
        <time>2011-04-16T13:53:54Z</time>
      </trkpt>
      <trkpt lat="42.660400" lon="-2.620480">
        <ele>713.407</ele>
        <time>2011-04-16T13:54:02Z</time>
      </trkpt>
      <trkpt lat="42.660300" lon="-2.620440">
        <ele>713.941</ele>
        <time>2011-04-16T13:54:10Z</time>
      </trkpt>
      <trkpt lat="42.660210" lon="-2.620380">
        <ele>714.452</ele>
        <time>2011-04-16T13:54:19Z</time>
      </trkpt>
      <trkpt lat="42.660120" lon="-2.620400">
        <ele>714.931</ele>
        <time>2011-04-16T13:54:27Z</time>
      </trkpt>
      <trkpt lat="42.660020" lon="-2.620370">
        <ele>714.988</ele>
        <time>2011-04-16T13:54:36Z</time>
      </trkpt>
      <trkpt lat="42.659930" lon="-2.620320">
        <ele>714.435</ele>
        <time>2011-04-16T13:54:46Z</time>
      </trkpt>
      <trkpt lat="42.659840" lon="-2.620280">
        <ele>714.911</ele>
        <time>2011-04-16T13:54:56Z</time>
      </trkpt>
      <trkpt lat="42.659740" lon="-2.620220">
        <ele>714.948</ele>
        <time>2011-04-16T13:55:04Z</time>
      </trkpt>
      <trkpt lat="42.659660" lon="-2.620180">
        <ele>715.463</ele>
        <time>2011-04-16T13:55:11Z</time>
      </trkpt>
      <trkpt lat="42.659570" lon="-2.620150">
        <ele>715.944</ele>
        <time>2011-04-16T13:55:18Z</time>
      </trkpt>
      <trkpt lat="42.659470" lon="-2.620120">
        <ele>715.418</ele>
        <time>2011-04-16T13:55:26Z</time>
      </trkpt>
      <trkpt lat="42.659370" lon="-2.620120">
        <ele>715.907</ele>
        <time>2011-04-16T13:55:34Z</time>
      </trkpt>
      <trkpt lat="42.659270" lon="-2.620110">
        <ele>715.488</ele>
        <time>2011-04-16T13:55:42Z</time>
      </trkpt>
      <trkpt lat="42.659170" lon="-2.620100">
        <ele>715.469</ele>
        <time>2011-04-16T13:55:50Z</time>
      </trkpt>
      <trkpt lat="42.659060" lon="-2.620100">
        <ele>714.938</ele>
        <time>2011-04-16T13:55:58Z</time>
      </trkpt>
      <trkpt lat="42.658970" lon="-2.620090">
        <ele>715.965</ele>
        <time>2011-04-16T13:56:06Z</time>
      </trkpt>
      <trkpt lat="42.658870" lon="-2.620080">
        <ele>716.822</ele>
        <time>2011-04-16T13:56:14Z</time>
      </trkpt>
      <trkpt lat="42.658780" lon="-2.620080">
        <ele>716.868</ele>
        <time>2011-04-16T13:56:22Z</time>
      </trkpt>
      <trkpt lat="42.658690" lon="-2.620080">
        <ele>718.265</ele>
        <time>2011-04-16T13:56:32Z</time>
      </trkpt>
      <trkpt lat="42.658590" lon="-2.620070">
        <ele>718.247</ele>
        <time>2011-04-16T13:56:41Z</time>
      </trkpt>
      <trkpt lat="42.658500" lon="-2.620050">
        <ele>719.729</ele>
        <time>2011-04-16T13:56:48Z</time>
      </trkpt>
      <trkpt lat="42.658400" lon="-2.620030">
        <ele>720.221</ele>
        <time>2011-04-16T13:56:56Z</time>
      </trkpt>
      <trkpt lat="42.658320" lon="-2.620070">
        <ele>720.607</ele>
        <time>2011-04-16T13:57:04Z</time>
      </trkpt>
      <trkpt lat="42.658230" lon="-2.620130">
        <ele>722.176</ele>
        <time>2011-04-16T13:57:12Z</time>
      </trkpt>
      <trkpt lat="42.658130" lon="-2.620150">
        <ele>722.637</ele>
        <time>2011-04-16T13:57:20Z</time>
      </trkpt>
      <trkpt lat="42.658040" lon="-2.620150">
        <ele>723.536</ele>
        <time>2011-04-16T13:57:28Z</time>
      </trkpt>
      <trkpt lat="42.657950" lon="-2.620140">
        <ele>724.083</ele>
        <time>2011-04-16T13:57:36Z</time>
      </trkpt>
      <trkpt lat="42.657850" lon="-2.620130">
        <ele>725.950</ele>
        <time>2011-04-16T13:57:45Z</time>
      </trkpt>
      <trkpt lat="42.657760" lon="-2.620140">
        <ele>726.926</ele>
        <time>2011-04-16T13:57:53Z</time>
      </trkpt>
      <trkpt lat="42.657660" lon="-2.620180">
        <ele>726.983</ele>
        <time>2011-04-16T13:58:01Z</time>
      </trkpt>
      <trkpt lat="42.657570" lon="-2.620240">
        <ele>727.434</ele>
        <time>2011-04-16T13:58:09Z</time>
      </trkpt>
      <trkpt lat="42.657490" lon="-2.620300">
        <ele>727.955</ele>
        <time>2011-04-16T13:58:17Z</time>
      </trkpt>
      <trkpt lat="42.657410" lon="-2.620370">
        <ele>728.410</ele>
        <time>2011-04-16T13:58:25Z</time>
      </trkpt>
      <trkpt lat="42.657320" lon="-2.620440">
        <ele>728.807</ele>
        <time>2011-04-16T13:58:33Z</time>
      </trkpt>
      <trkpt lat="42.657230" lon="-2.620510">
        <ele>730.395</ele>
        <time>2011-04-16T13:58:42Z</time>
      </trkpt>
      <trkpt lat="42.657130" lon="-2.620520">
        <ele>730.716</ele>
        <time>2011-04-16T13:58:51Z</time>
      </trkpt>
      <trkpt lat="42.657060" lon="-2.620420">
        <ele>731.735</ele>
        <time>2011-04-16T13:59:00Z</time>
      </trkpt>
      <trkpt lat="42.657060" lon="-2.620290">
        <ele>733.132</ele>
        <time>2011-04-16T13:59:09Z</time>
      </trkpt>
      <trkpt lat="42.657080" lon="-2.620170">
        <ele>735.199</ele>
        <time>2011-04-16T13:59:18Z</time>
      </trkpt>
      <trkpt lat="42.657100" lon="-2.620040">
        <ele>736.535</ele>
        <time>2011-04-16T13:59:27Z</time>
      </trkpt>
      <trkpt lat="42.657110" lon="-2.619920">
        <ele>738.432</ele>
        <time>2011-04-16T13:59:36Z</time>
      </trkpt>
      <trkpt lat="42.657150" lon="-2.619790">
        <ele>738.935</ele>
        <time>2011-04-16T13:59:45Z</time>
      </trkpt>
      <trkpt lat="42.657220" lon="-2.619700">
        <ele>739.486</ele>
        <time>2011-04-16T13:59:54Z</time>
      </trkpt>
      <trkpt lat="42.657300" lon="-2.619620">
        <ele>739.914</ele>
        <time>2011-04-16T14:00:03Z</time>
      </trkpt>
      <trkpt lat="42.657380" lon="-2.619540">
        <ele>740.407</ele>
        <time>2011-04-16T14:00:12Z</time>
      </trkpt>
      <trkpt lat="42.657450" lon="-2.619470">
        <ele>741.835</ele>
        <time>2011-04-16T14:00:20Z</time>
      </trkpt>
      <trkpt lat="42.657530" lon="-2.619390">
        <ele>742.316</ele>
        <time>2011-04-16T14:00:28Z</time>
      </trkpt>
      <trkpt lat="42.657620" lon="-2.619320">
        <ele>742.845</ele>
        <time>2011-04-16T14:00:38Z</time>
      </trkpt>
      <trkpt lat="42.657700" lon="-2.619260">
        <ele>743.792</ele>
        <time>2011-04-16T14:00:46Z</time>
      </trkpt>
      <trkpt lat="42.657780" lon="-2.619200">
        <ele>745.619</ele>
        <time>2011-04-16T14:00:55Z</time>
      </trkpt>
      <trkpt lat="42.657880" lon="-2.619160">
        <ele>746.695</ele>
        <time>2011-04-16T14:01:04Z</time>
      </trkpt>
      <trkpt lat="42.657980" lon="-2.619120">
        <ele>747.692</ele>
        <time>2011-04-16T14:01:12Z</time>
      </trkpt>
      <trkpt lat="42.658080" lon="-2.619080">
        <ele>748.542</ele>
        <time>2011-04-16T14:01:22Z</time>
      </trkpt>
      <trkpt lat="42.658180" lon="-2.619050">
        <ele>749.022</ele>
        <time>2011-04-16T14:01:31Z</time>
      </trkpt>
      <trkpt lat="42.658280" lon="-2.619030">
        <ele>749.014</ele>
        <time>2011-04-16T14:01:39Z</time>
      </trkpt>
      <trkpt lat="42.658380" lon="-2.619020">
        <ele>749.507</ele>
        <time>2011-04-16T14:01:47Z</time>
      </trkpt>
      <trkpt lat="42.658470" lon="-2.619000">
        <ele>750.456</ele>
        <time>2011-04-16T14:01:54Z</time>
      </trkpt>
      <trkpt lat="42.658580" lon="-2.618980">
        <ele>749.517</ele>
        <time>2011-04-16T14:02:02Z</time>
      </trkpt>
      <trkpt lat="42.658680" lon="-2.618970">
        <ele>750.036</ele>
        <time>2011-04-16T14:02:10Z</time>
      </trkpt>
      <trkpt lat="42.658780" lon="-2.618960">
        <ele>750.493</ele>
        <time>2011-04-16T14:02:18Z</time>
      </trkpt>
      <trkpt lat="42.658890" lon="-2.618930">
        <ele>750.040</ele>
        <time>2011-04-16T14:02:26Z</time>
      </trkpt>
      <trkpt lat="42.658980" lon="-2.618900">
        <ele>750.016</ele>
        <time>2011-04-16T14:02:33Z</time>
      </trkpt>
      <trkpt lat="42.659080" lon="-2.618870">
        <ele>750.463</ele>
        <time>2011-04-16T14:02:40Z</time>
      </trkpt>
      <trkpt lat="42.659170" lon="-2.618840">
        <ele>750.082</ele>
        <time>2011-04-16T14:02:47Z</time>
      </trkpt>
      <trkpt lat="42.659260" lon="-2.618820">
        <ele>750.043</ele>
        <time>2011-04-16T14:02:54Z</time>
      </trkpt>
      <trkpt lat="42.659350" lon="-2.618800">
        <ele>749.017</ele>
        <time>2011-04-16T14:03:01Z</time>
      </trkpt>
      <trkpt lat="42.659440" lon="-2.618780">
        <ele>749.507</ele>
        <time>2011-04-16T14:03:08Z</time>
      </trkpt>
      <trkpt lat="42.659530" lon="-2.618760">
        <ele>750.080</ele>
        <time>2011-04-16T14:03:15Z</time>
      </trkpt>
      <trkpt lat="42.659630" lon="-2.618730">
        <ele>750.071</ele>
        <time>2011-04-16T14:03:23Z</time>
      </trkpt>
      <trkpt lat="42.659720" lon="-2.618690">
        <ele>750.020</ele>
        <time>2011-04-16T14:03:31Z</time>
      </trkpt>
      <trkpt lat="42.659800" lon="-2.618650">
        <ele>751.947</ele>
        <time>2011-04-16T14:03:39Z</time>
      </trkpt>
      <trkpt lat="42.659890" lon="-2.618590">
        <ele>752.974</ele>
        <time>2011-04-16T14:03:48Z</time>
      </trkpt>
      <trkpt lat="42.659970" lon="-2.618540">
        <ele>754.340</ele>
        <time>2011-04-16T14:03:57Z</time>
      </trkpt>
      <trkpt lat="42.660050" lon="-2.618460">
        <ele>754.337</ele>
        <time>2011-04-16T14:04:05Z</time>
      </trkpt>
      <trkpt lat="42.660120" lon="-2.618370">
        <ele>755.384</ele>
        <time>2011-04-16T14:04:13Z</time>
      </trkpt>
      <trkpt lat="42.660190" lon="-2.618270">
        <ele>757.207</ele>
        <time>2011-04-16T14:04:20Z</time>
      </trkpt>
      <trkpt lat="42.660230" lon="-2.618240">
        <ele>755.317</ele>
        <time>2011-04-16T14:04:30Z</time>
      </trkpt>
      <trkpt lat="42.660260" lon="-2.618110">
        <ele>754.807</ele>
        <time>2011-04-16T14:04:37Z</time>
      </trkpt>
      <trkpt lat="42.660240" lon="-2.617990">
        <ele>756.240</ele>
        <time>2011-04-16T14:04:45Z</time>
      </trkpt>
      <trkpt lat="42.660170" lon="-2.617900">
        <ele>759.111</ele>
        <time>2011-04-16T14:04:55Z</time>
      </trkpt>
      <trkpt lat="42.660080" lon="-2.617840">
        <ele>759.180</ele>
        <time>2011-04-16T14:05:05Z</time>
      </trkpt>
      <trkpt lat="42.659990" lon="-2.617790">
        <ele>761.567</ele>
        <time>2011-04-16T14:05:15Z</time>
      </trkpt>
      <trkpt lat="42.659900" lon="-2.617750">
        <ele>763.954</ele>
        <time>2011-04-16T14:05:26Z</time>
      </trkpt>
      <trkpt lat="42.659800" lon="-2.617700">
        <ele>765.860</ele>
        <time>2011-04-16T14:05:37Z</time>
      </trkpt>
      <trkpt lat="42.659710" lon="-2.617640">
        <ele>766.847</ele>
        <time>2011-04-16T14:05:48Z</time>
      </trkpt>
      <trkpt lat="42.659620" lon="-2.617590">
        <ele>770.141</ele>
        <time>2011-04-16T14:05:58Z</time>
      </trkpt>
      <trkpt lat="42.659530" lon="-2.617550">
        <ele>771.681</ele>
        <time>2011-04-16T14:06:09Z</time>
      </trkpt>
      <trkpt lat="42.659440" lon="-2.617520">
        <ele>773.509</ele>
        <time>2011-04-16T14:06:20Z</time>
      </trkpt>
      <trkpt lat="42.659350" lon="-2.617490">
        <ele>775.907</ele>
        <time>2011-04-16T14:06:31Z</time>
      </trkpt>
      <trkpt lat="42.659250" lon="-2.617460">
        <ele>777.836</ele>
        <time>2011-04-16T14:06:42Z</time>
      </trkpt>
      <trkpt lat="42.659160" lon="-2.617450">
        <ele>779.857</ele>
        <time>2011-04-16T14:06:53Z</time>
      </trkpt>
      <trkpt lat="42.659070" lon="-2.617450">
        <ele>781.246</ele>
        <time>2011-04-16T14:07:03Z</time>
      </trkpt>
      <trkpt lat="42.658970" lon="-2.617440">
        <ele>782.723</ele>
        <time>2011-04-16T14:07:13Z</time>
      </trkpt>
      <trkpt lat="42.658880" lon="-2.617410">
        <ele>784.610</ele>
        <time>2011-04-16T14:07:23Z</time>
      </trkpt>
      <trkpt lat="42.658790" lon="-2.617400">
        <ele>786.596</ele>
        <time>2011-04-16T14:07:33Z</time>
      </trkpt>
      <trkpt lat="42.658700" lon="-2.617370">
        <ele>787.993</ele>
        <time>2011-04-16T14:07:44Z</time>
      </trkpt>
      <trkpt lat="42.658610" lon="-2.617340">
        <ele>789.448</ele>
        <time>2011-04-16T14:07:54Z</time>
      </trkpt>
      <trkpt lat="42.658520" lon="-2.617300">
        <ele>791.861</ele>
        <time>2011-04-16T14:08:04Z</time>
      </trkpt>
      <trkpt lat="42.658430" lon="-2.617240">
        <ele>793.217</ele>
        <time>2011-04-16T14:08:15Z</time>
      </trkpt>
      <trkpt lat="42.658350" lon="-2.617190">
        <ele>795.207</ele>
        <time>2011-04-16T14:08:24Z</time>
      </trkpt>
      <trkpt lat="42.658260" lon="-2.617140">
        <ele>796.696</ele>
        <time>2011-04-16T14:08:34Z</time>
      </trkpt>
      <trkpt lat="42.658170" lon="-2.617100">
        <ele>798.067</ele>
        <time>2011-04-16T14:08:44Z</time>
      </trkpt>
      <trkpt lat="42.658080" lon="-2.617060">
        <ele>799.086</ele>
        <time>2011-04-16T14:08:54Z</time>
      </trkpt>
      <trkpt lat="42.657990" lon="-2.617040">
        <ele>800.973</ele>
        <time>2011-04-16T14:09:04Z</time>
      </trkpt>
      <trkpt lat="42.657900" lon="-2.617050">
        <ele>802.450</ele>
        <time>2011-04-16T14:09:14Z</time>
      </trkpt>
      <trkpt lat="42.657800" lon="-2.617070">
        <ele>803.326</ele>
        <time>2011-04-16T14:09:24Z</time>
      </trkpt>
      <trkpt lat="42.657700" lon="-2.617100">
        <ele>803.873</ele>
        <time>2011-04-16T14:09:33Z</time>
      </trkpt>
      <trkpt lat="42.657620" lon="-2.617130">
        <ele>803.861</ele>
        <time>2011-04-16T14:09:41Z</time>
      </trkpt>
      <trkpt lat="42.657530" lon="-2.617160">
        <ele>804.321</ele>
        <time>2011-04-16T14:09:49Z</time>
      </trkpt>
      <trkpt lat="42.657430" lon="-2.617190">
        <ele>804.313</ele>
        <time>2011-04-16T14:09:57Z</time>
      </trkpt>
      <trkpt lat="42.657340" lon="-2.617220">
        <ele>804.307</ele>
        <time>2011-04-16T14:10:05Z</time>
      </trkpt>
      <trkpt lat="42.657240" lon="-2.617260">
        <ele>805.368</ele>
        <time>2011-04-16T14:10:13Z</time>
      </trkpt>
      <trkpt lat="42.657140" lon="-2.617300">
        <ele>805.779</ele>
        <time>2011-04-16T14:10:21Z</time>
      </trkpt>
      <trkpt lat="42.657040" lon="-2.617360">
        <ele>806.278</ele>
        <time>2011-04-16T14:10:30Z</time>
      </trkpt>
      <trkpt lat="42.656950" lon="-2.617400">
        <ele>806.745</ele>
        <time>2011-04-16T14:10:38Z</time>
      </trkpt>
      <trkpt lat="42.656840" lon="-2.617450">
        <ele>806.742</ele>
        <time>2011-04-16T14:10:48Z</time>
      </trkpt>
      <trkpt lat="42.656730" lon="-2.617480">
        <ele>807.218</ele>
        <time>2011-04-16T14:10:57Z</time>
      </trkpt>
      <trkpt lat="42.656610" lon="-2.617500">
        <ele>807.245</ele>
        <time>2011-04-16T14:11:07Z</time>
      </trkpt>
      <trkpt lat="42.656500" lon="-2.617530">
        <ele>808.158</ele>
        <time>2011-04-16T14:11:16Z</time>
      </trkpt>
      <trkpt lat="42.656400" lon="-2.617580">
        <ele>808.652</ele>
        <time>2011-04-16T14:11:24Z</time>
      </trkpt>
      <trkpt lat="42.656290" lon="-2.617640">
        <ele>809.617</ele>
        <time>2011-04-16T14:11:33Z</time>
      </trkpt>
      <trkpt lat="42.656200" lon="-2.617710">
        <ele>810.007</ele>
        <time>2011-04-16T14:11:41Z</time>
      </trkpt>
      <trkpt lat="42.656110" lon="-2.617760">
        <ele>811.037</ele>
        <time>2011-04-16T14:11:49Z</time>
      </trkpt>
      <trkpt lat="42.656000" lon="-2.617780">
        <ele>811.558</ele>
        <time>2011-04-16T14:11:57Z</time>
      </trkpt>
      <trkpt lat="42.655900" lon="-2.617780">
        <ele>812.037</ele>
        <time>2011-04-16T14:12:06Z</time>
      </trkpt>
      <trkpt lat="42.655810" lon="-2.617750">
        <ele>813.944</ele>
        <time>2011-04-16T14:12:15Z</time>
      </trkpt>
      <trkpt lat="42.655720" lon="-2.617700">
        <ele>814.921</ele>
        <time>2011-04-16T14:12:24Z</time>
      </trkpt>
      <trkpt lat="42.655630" lon="-2.617650">
        <ele>816.317</ele>
        <time>2011-04-16T14:12:33Z</time>
      </trkpt>
      <trkpt lat="42.655550" lon="-2.617590">
        <ele>817.724</ele>
        <time>2011-04-16T14:12:42Z</time>
      </trkpt>
      <trkpt lat="42.655480" lon="-2.617530">
        <ele>819.254</ele>
        <time>2011-04-16T14:12:51Z</time>
      </trkpt>
      <trkpt lat="42.655400" lon="-2.617470">
        <ele>820.656</ele>
        <time>2011-04-16T14:13:01Z</time>
      </trkpt>
      <trkpt lat="42.655340" lon="-2.617410">
        <ele>821.611</ele>
        <time>2011-04-16T14:13:46Z</time>
      </trkpt>
      <trkpt lat="42.655260" lon="-2.617340">
        <ele>822.507</ele>
        <time>2011-04-16T14:13:56Z</time>
      </trkpt>
      <trkpt lat="42.655180" lon="-2.617260">
        <ele>824.097</ele>
        <time>2011-04-16T14:14:06Z</time>
      </trkpt>
      <trkpt lat="42.655100" lon="-2.617160">
        <ele>824.568</ele>
        <time>2011-04-16T14:14:16Z</time>
      </trkpt>
      <trkpt lat="42.655040" lon="-2.617080">
        <ele>824.977</ele>
        <time>2011-04-16T14:14:24Z</time>
      </trkpt>
      <trkpt lat="42.654960" lon="-2.617010">
        <ele>826.464</ele>
        <time>2011-04-16T14:14:33Z</time>
      </trkpt>
      <trkpt lat="42.654890" lon="-2.616930">
        <ele>828.821</ele>
        <time>2011-04-16T14:14:43Z</time>
      </trkpt>
      <trkpt lat="42.654840" lon="-2.616840">
        <ele>830.267</ele>
        <time>2011-04-16T14:14:53Z</time>
      </trkpt>
      <trkpt lat="42.654780" lon="-2.616740">
        <ele>831.264</ele>
        <time>2011-04-16T14:15:02Z</time>
      </trkpt>
      <trkpt lat="42.654720" lon="-2.616630">
        <ele>834.121</ele>
        <time>2011-04-16T14:15:11Z</time>
      </trkpt>
      <trkpt lat="42.654660" lon="-2.616520">
        <ele>835.041</ele>
        <time>2011-04-16T14:15:20Z</time>
      </trkpt>
      <trkpt lat="42.654610" lon="-2.616420">
        <ele>835.505</ele>
        <time>2011-04-16T14:15:28Z</time>
      </trkpt>
      <trkpt lat="42.654540" lon="-2.616330">
        <ele>836.007</ele>
        <time>2011-04-16T14:15:36Z</time>
      </trkpt>
      <trkpt lat="42.654460" lon="-2.616260">
        <ele>835.594</ele>
        <time>2011-04-16T14:15:44Z</time>
      </trkpt>
      <trkpt lat="42.654380" lon="-2.616190">
        <ele>836.065</ele>
        <time>2011-04-16T14:15:52Z</time>
      </trkpt>
      <trkpt lat="42.654320" lon="-2.616100">
        <ele>837.424</ele>
        <time>2011-04-16T14:16:00Z</time>
      </trkpt>
      <trkpt lat="42.654280" lon="-2.615980">
        <ele>838.931</ele>
        <time>2011-04-16T14:16:08Z</time>
      </trkpt>
      <trkpt lat="42.654260" lon="-2.615850">
        <ele>839.428</ele>
        <time>2011-04-16T14:16:16Z</time>
      </trkpt>
      <trkpt lat="42.654220" lon="-2.615720">
        <ele>842.354</ele>
        <time>2011-04-16T14:16:25Z</time>
      </trkpt>
      <trkpt lat="42.654070" lon="-2.615430">
        <ele>844.781</ele>
        <time>2011-04-16T14:16:50Z</time>
      </trkpt>
      <trkpt lat="42.653980" lon="-2.615350">
        <ele>845.187</ele>
        <time>2011-04-16T14:16:58Z</time>
      </trkpt>
      <trkpt lat="42.653890" lon="-2.615260">
        <ele>846.142</ele>
        <time>2011-04-16T14:17:07Z</time>
      </trkpt>
      <trkpt lat="42.653800" lon="-2.615180">
        <ele>847.126</ele>
        <time>2011-04-16T14:17:16Z</time>
      </trkpt>
      <trkpt lat="42.653720" lon="-2.615100">
        <ele>848.507</ele>
        <time>2011-04-16T14:17:24Z</time>
      </trkpt>
      <trkpt lat="42.653650" lon="-2.615020">
        <ele>849.410</ele>
        <time>2011-04-16T14:17:33Z</time>
      </trkpt>
      <trkpt lat="42.653580" lon="-2.614930">
        <ele>849.981</ele>
        <time>2011-04-16T14:17:41Z</time>
      </trkpt>
      <trkpt lat="42.653520" lon="-2.614840">
        <ele>850.960</ele>
        <time>2011-04-16T14:17:49Z</time>
      </trkpt>
      <trkpt lat="42.653450" lon="-2.614760">
        <ele>851.467</ele>
        <time>2011-04-16T14:17:56Z</time>
      </trkpt>
      <trkpt lat="42.653370" lon="-2.614670">
        <ele>852.314</ele>
        <time>2011-04-16T14:18:04Z</time>
      </trkpt>
      <trkpt lat="42.653330" lon="-2.614560">
        <ele>854.320</ele>
        <time>2011-04-16T14:18:13Z</time>
      </trkpt>
      <trkpt lat="42.653250" lon="-2.614490">
        <ele>855.747</ele>
        <time>2011-04-16T14:18:26Z</time>
      </trkpt>
      <trkpt lat="42.653420" lon="-2.614080">
        <ele>860.556</ele>
        <time>2011-04-16T14:18:59Z</time>
      </trkpt>
      <trkpt lat="42.653450" lon="-2.613930">
        <ele>862.459</ele>
        <time>2011-04-16T14:19:09Z</time>
      </trkpt>
      <trkpt lat="42.653480" lon="-2.613790">
        <ele>864.814</ele>
        <time>2011-04-16T14:19:20Z</time>
      </trkpt>
      <trkpt lat="42.653430" lon="-2.613700">
        <ele>866.307</ele>
        <time>2011-04-16T14:20:41Z</time>
      </trkpt>
      <trkpt lat="42.653340" lon="-2.613710">
        <ele>867.777</ele>
        <time>2011-04-16T14:21:11Z</time>
      </trkpt>
      <trkpt lat="42.653270" lon="-2.613780">
        <ele>868.298</ele>
        <time>2011-04-16T14:21:20Z</time>
      </trkpt>
      <trkpt lat="42.653210" lon="-2.613860">
        <ele>868.777</ele>
        <time>2011-04-16T14:21:28Z</time>
      </trkpt>
      <trkpt lat="42.653140" lon="-2.613950">
        <ele>870.674</ele>
        <time>2011-04-16T14:21:38Z</time>
      </trkpt>
      <trkpt lat="42.653050" lon="-2.614020">
        <ele>871.181</ele>
        <time>2011-04-16T14:21:47Z</time>
      </trkpt>
      <trkpt lat="42.652970" lon="-2.614080">
        <ele>873.037</ele>
        <time>2011-04-16T14:21:55Z</time>
      </trkpt>
      <trkpt lat="42.652880" lon="-2.614130">
        <ele>873.514</ele>
        <time>2011-04-16T14:22:03Z</time>
      </trkpt>
      <trkpt lat="42.652800" lon="-2.614180">
        <ele>874.956</ele>
        <time>2011-04-16T14:22:10Z</time>
      </trkpt>
      <trkpt lat="42.652730" lon="-2.614260">
        <ele>875.959</ele>
        <time>2011-04-16T14:22:18Z</time>
      </trkpt>
      <trkpt lat="42.652670" lon="-2.614350">
        <ele>877.814</ele>
        <time>2011-04-16T14:22:27Z</time>
      </trkpt>
      <trkpt lat="42.652590" lon="-2.614400">
        <ele>877.807</ele>
        <time>2011-04-16T14:22:36Z</time>
      </trkpt>
      <trkpt lat="42.652510" lon="-2.614470">
        <ele>878.817</ele>
        <time>2011-04-16T14:22:45Z</time>
      </trkpt>
      <trkpt lat="42.652420" lon="-2.614590">
        <ele>880.788</ele>
        <time>2011-04-16T14:22:55Z</time>
      </trkpt>
      <trkpt lat="42.652350" lon="-2.614680">
        <ele>882.227</ele>
        <time>2011-04-16T14:23:04Z</time>
      </trkpt>
      <trkpt lat="42.652300" lon="-2.614800">
        <ele>883.684</ele>
        <time>2011-04-16T14:23:13Z</time>
      </trkpt>
      <trkpt lat="42.652260" lon="-2.614940">
        <ele>885.561</ele>
        <time>2011-04-16T14:23:22Z</time>
      </trkpt>
      <trkpt lat="42.652240" lon="-2.614700">
        <ele>890.337</ele>
        <time>2011-04-16T14:24:09Z</time>
      </trkpt>
      <trkpt lat="42.652310" lon="-2.614550">
        <ele>891.364</ele>
        <time>2011-04-16T14:24:20Z</time>
      </trkpt>
      <trkpt lat="42.652360" lon="-2.614400">
        <ele>891.899</ele>
        <time>2011-04-16T14:24:29Z</time>
      </trkpt>
      <trkpt lat="42.652400" lon="-2.614230">
        <ele>893.207</ele>
        <time>2011-04-16T14:24:38Z</time>
      </trkpt>
      <trkpt lat="42.652440" lon="-2.614080">
        <ele>893.227</ele>
        <time>2011-04-16T14:24:47Z</time>
      </trkpt>
      <trkpt lat="42.652480" lon="-2.613960">
        <ele>894.607</ele>
        <time>2011-04-16T14:24:56Z</time>
      </trkpt>
      <trkpt lat="42.652550" lon="-2.613840">
        <ele>895.161</ele>
        <time>2011-04-16T14:25:06Z</time>
      </trkpt>
      <trkpt lat="42.652590" lon="-2.613710">
        <ele>896.132</ele>
        <time>2011-04-16T14:25:15Z</time>
      </trkpt>
      <trkpt lat="42.652640" lon="-2.613590">
        <ele>897.171</ele>
        <time>2011-04-16T14:25:23Z</time>
      </trkpt>
      <trkpt lat="42.652680" lon="-2.613470">
        <ele>898.088</ele>
        <time>2011-04-16T14:25:31Z</time>
      </trkpt>
      <trkpt lat="42.652710" lon="-2.613340">
        <ele>899.095</ele>
        <time>2011-04-16T14:25:40Z</time>
      </trkpt>
      <trkpt lat="42.652750" lon="-2.613220">
        <ele>899.031</ele>
        <time>2011-04-16T14:25:49Z</time>
      </trkpt>
      <trkpt lat="42.652800" lon="-2.613090">
        <ele>899.948</ele>
        <time>2011-04-16T14:25:58Z</time>
      </trkpt>
      <trkpt lat="42.652840" lon="-2.612960">
        <ele>901.857</ele>
        <time>2011-04-16T14:26:06Z</time>
      </trkpt>
      <trkpt lat="42.652880" lon="-2.612840">
        <ele>903.300</ele>
        <time>2011-04-16T14:26:14Z</time>
      </trkpt>
      <trkpt lat="42.652930" lon="-2.612730">
        <ele>904.720</ele>
        <time>2011-04-16T14:26:22Z</time>
      </trkpt>
      <trkpt lat="42.652960" lon="-2.612600">
        <ele>907.607</ele>
        <time>2011-04-16T14:26:31Z</time>
      </trkpt>
      <trkpt lat="42.653010" lon="-2.612490">
        <ele>909.197</ele>
        <time>2011-04-16T14:26:39Z</time>
      </trkpt>
      <trkpt lat="42.653080" lon="-2.612390">
        <ele>910.088</ele>
        <time>2011-04-16T14:26:48Z</time>
      </trkpt>
      <trkpt lat="42.653140" lon="-2.612300">
        <ele>911.047</ele>
        <time>2011-04-16T14:26:58Z</time>
      </trkpt>
      <trkpt lat="42.653220" lon="-2.612200">
        <ele>912.074</ele>
        <time>2011-04-16T14:27:08Z</time>
      </trkpt>
      <trkpt lat="42.653290" lon="-2.612090">
        <ele>912.441</ele>
        <time>2011-04-16T14:27:17Z</time>
      </trkpt>
      <trkpt lat="42.653350" lon="-2.612000">
        <ele>914.867</ele>
        <time>2011-04-16T14:27:26Z</time>
      </trkpt>
      <trkpt lat="42.653430" lon="-2.611890">
        <ele>918.274</ele>
        <time>2011-04-16T14:27:38Z</time>
      </trkpt>
      <trkpt lat="42.653490" lon="-2.611780">
        <ele>920.134</ele>
        <time>2011-04-16T14:27:49Z</time>
      </trkpt>
      <trkpt lat="42.653470" lon="-2.611640">
        <ele>922.155</ele>
        <time>2011-04-16T14:28:01Z</time>
      </trkpt>
      <trkpt lat="42.653310" lon="-2.611490">
        <ele>924.910</ele>
        <time>2011-04-16T14:28:19Z</time>
      </trkpt>
      <trkpt lat="42.653230" lon="-2.611420">
        <ele>926.407</ele>
        <time>2011-04-16T14:28:28Z</time>
      </trkpt>
      <trkpt lat="42.653160" lon="-2.611350">
        <ele>927.395</ele>
        <time>2011-04-16T14:28:37Z</time>
      </trkpt>
      <trkpt lat="42.653080" lon="-2.611270">
        <ele>928.316</ele>
        <time>2011-04-16T14:28:46Z</time>
      </trkpt>
      <trkpt lat="42.653000" lon="-2.611220">
        <ele>929.725</ele>
        <time>2011-04-16T14:28:56Z</time>
      </trkpt>
      <trkpt lat="42.652920" lon="-2.611150">
        <ele>931.292</ele>
        <time>2011-04-16T14:29:05Z</time>
      </trkpt>
      <trkpt lat="42.652840" lon="-2.611100">
        <ele>932.139</ele>
        <time>2011-04-16T14:29:17Z</time>
      </trkpt>
      <trkpt lat="42.652760" lon="-2.611030">
        <ele>931.755</ele>
        <time>2011-04-16T14:29:30Z</time>
      </trkpt>
      <trkpt lat="42.652700" lon="-2.610950">
        <ele>932.152</ele>
        <time>2011-04-16T14:29:42Z</time>
      </trkpt>
      <trkpt lat="42.652620" lon="-2.610870">
        <ele>931.761</ele>
        <time>2011-04-16T14:29:52Z</time>
      </trkpt>
      <trkpt lat="42.652540" lon="-2.610800">
        <ele>931.221</ele>
        <time>2011-04-16T14:30:02Z</time>
      </trkpt>
      <trkpt lat="42.652460" lon="-2.610730">
        <ele>930.213</ele>
        <time>2011-04-16T14:30:10Z</time>
      </trkpt>
      <trkpt lat="42.652380" lon="-2.610660">
        <ele>929.207</ele>
        <time>2011-04-16T14:30:18Z</time>
      </trkpt>
      <trkpt lat="42.652300" lon="-2.610590">
        <ele>928.328</ele>
        <time>2011-04-16T14:30:27Z</time>
      </trkpt>
      <trkpt lat="42.652210" lon="-2.610540">
        <ele>928.379</ele>
        <time>2011-04-16T14:30:35Z</time>
      </trkpt>
      <trkpt lat="42.652110" lon="-2.610490">
        <ele>928.358</ele>
        <time>2011-04-16T14:30:43Z</time>
      </trkpt>
      <trkpt lat="42.652030" lon="-2.610430">
        <ele>927.395</ele>
        <time>2011-04-16T14:30:51Z</time>
      </trkpt>
      <trkpt lat="42.651960" lon="-2.610350">
        <ele>926.422</ele>
        <time>2011-04-16T14:30:58Z</time>
      </trkpt>
      <trkpt lat="42.651880" lon="-2.610270">
        <ele>925.438</ele>
        <time>2011-04-16T14:31:06Z</time>
      </trkpt>
      <trkpt lat="42.651790" lon="-2.610220">
        <ele>923.575</ele>
        <time>2011-04-16T14:31:14Z</time>
      </trkpt>
      <trkpt lat="42.651690" lon="-2.610150">
        <ele>921.629</ele>
        <time>2011-04-16T14:31:22Z</time>
      </trkpt>
      <trkpt lat="42.651580" lon="-2.610140">
        <ele>919.200</ele>
        <time>2011-04-16T14:31:32Z</time>
      </trkpt>
      <trkpt lat="42.651260" lon="-2.609830">
        <ele>916.320</ele>
        <time>2011-04-16T14:32:08Z</time>
      </trkpt>
      <trkpt lat="42.651210" lon="-2.609690">
        <ele>917.707</ele>
        <time>2011-04-16T14:32:17Z</time>
      </trkpt>
      <trkpt lat="42.651170" lon="-2.609420">
        <ele>917.734</ele>
        <time>2011-04-16T14:32:36Z</time>
      </trkpt>
      <trkpt lat="42.651140" lon="-2.609260">
        <ele>919.285</ele>
        <time>2011-04-16T14:32:45Z</time>
      </trkpt>
      <trkpt lat="42.651060" lon="-2.609150">
        <ele>921.654</ele>
        <time>2011-04-16T14:32:54Z</time>
      </trkpt>
      <trkpt lat="42.651000" lon="-2.609050">
        <ele>922.571</ele>
        <time>2011-04-16T14:33:02Z</time>
      </trkpt>
      <trkpt lat="42.650750" lon="-2.608730">
        <ele>919.688</ele>
        <time>2011-04-16T14:33:37Z</time>
      </trkpt>
      <trkpt lat="42.650690" lon="-2.608600">
        <ele>920.614</ele>
        <time>2011-04-16T14:33:49Z</time>
      </trkpt>
      <trkpt lat="42.650680" lon="-2.608280">
        <ele>921.611</ele>
        <time>2011-04-16T14:34:09Z</time>
      </trkpt>
      <trkpt lat="42.650660" lon="-2.608120">
        <ele>923.599</ele>
        <time>2011-04-16T14:34:18Z</time>
      </trkpt>
      <trkpt lat="42.650620" lon="-2.607970">
        <ele>924.507</ele>
        <time>2011-04-16T14:34:26Z</time>
      </trkpt>
      <trkpt lat="42.650570" lon="-2.607830">
        <ele>924.927</ele>
        <time>2011-04-16T14:34:33Z</time>
      </trkpt>
      <trkpt lat="42.650520" lon="-2.607700">
        <ele>925.907</ele>
        <time>2011-04-16T14:34:42Z</time>
      </trkpt>
      <trkpt lat="42.650410" lon="-2.607310">
        <ele>926.841</ele>
        <time>2011-04-16T14:35:07Z</time>
      </trkpt>
      <trkpt lat="42.650360" lon="-2.607040">
        <ele>927.882</ele>
        <time>2011-04-16T14:35:23Z</time>
      </trkpt>
      <trkpt lat="42.650350" lon="-2.606890">
        <ele>929.291</ele>
        <time>2011-04-16T14:35:33Z</time>
      </trkpt>
      <trkpt lat="42.650360" lon="-2.606710">
        <ele>930.218</ele>
        <time>2011-04-16T14:35:44Z</time>
      </trkpt>
      <trkpt lat="42.650390" lon="-2.606560">
        <ele>931.235</ele>
        <time>2011-04-16T14:35:55Z</time>
      </trkpt>
      <trkpt lat="42.650410" lon="-2.606230">
        <ele>933.141</ele>
        <time>2011-04-16T14:36:11Z</time>
      </trkpt>
      <trkpt lat="42.650430" lon="-2.606090">
        <ele>934.138</ele>
        <time>2011-04-16T14:36:18Z</time>
      </trkpt>
      <trkpt lat="42.650470" lon="-2.605450">
        <ele>937.085</ele>
        <time>2011-04-16T14:36:52Z</time>
      </trkpt>
      <trkpt lat="42.650490" lon="-2.605310">
        <ele>937.489</ele>
        <time>2011-04-16T14:37:00Z</time>
      </trkpt>
      <trkpt lat="42.650480" lon="-2.604980">
        <ele>940.317</ele>
        <time>2011-04-16T14:37:22Z</time>
      </trkpt>
      <trkpt lat="42.650470" lon="-2.604800">
        <ele>940.307</ele>
        <time>2011-04-16T14:37:32Z</time>
      </trkpt>
      <trkpt lat="42.650440" lon="-2.604640">
        <ele>941.320</ele>
        <time>2011-04-16T14:37:41Z</time>
      </trkpt>
      <trkpt lat="42.650380" lon="-2.604550">
        <ele>942.731</ele>
        <time>2011-04-16T14:37:57Z</time>
      </trkpt>
      <trkpt lat="42.650290" lon="-2.604460">
        <ele>944.620</ele>
        <time>2011-04-16T14:38:07Z</time>
      </trkpt>
      <trkpt lat="42.650200" lon="-2.604400">
        <ele>947.037</ele>
        <time>2011-04-16T14:38:17Z</time>
      </trkpt>
      <trkpt lat="42.650130" lon="-2.604290">
        <ele>947.024</ele>
        <time>2011-04-16T14:38:24Z</time>
      </trkpt>
      <trkpt lat="42.650050" lon="-2.604210">
        <ele>948.560</ele>
        <time>2011-04-16T14:38:31Z</time>
      </trkpt>
      <trkpt lat="42.649950" lon="-2.604160">
        <ele>949.967</ele>
        <time>2011-04-16T14:38:40Z</time>
      </trkpt>
      <trkpt lat="42.649870" lon="-2.604080">
        <ele>950.496</ele>
        <time>2011-04-16T14:38:49Z</time>
      </trkpt>
      <trkpt lat="42.649810" lon="-2.603980">
        <ele>950.931</ele>
        <time>2011-04-16T14:38:59Z</time>
      </trkpt>
      <trkpt lat="42.649740" lon="-2.603880">
        <ele>951.424</ele>
        <time>2011-04-16T14:39:09Z</time>
      </trkpt>
      <trkpt lat="42.649660" lon="-2.603790">
        <ele>951.407</ele>
        <time>2011-04-16T14:39:20Z</time>
      </trkpt>
      <trkpt lat="42.649570" lon="-2.603720">
        <ele>952.341</ele>
        <time>2011-04-16T14:39:28Z</time>
      </trkpt>
      <trkpt lat="42.649430" lon="-2.603770">
        <ele>955.762</ele>
        <time>2011-04-16T14:45:31Z</time>
      </trkpt>
      <trkpt lat="42.649530" lon="-2.603750">
        <ele>954.751</ele>
        <time>2011-04-16T14:45:55Z</time>
      </trkpt>
      <trkpt lat="42.649600" lon="-2.603660">
        <ele>956.238</ele>
        <time>2011-04-16T14:50:48Z</time>
      </trkpt>
      <trkpt lat="42.649570" lon="-2.603530">
        <ele>956.215</ele>
        <time>2011-04-16T14:50:58Z</time>
      </trkpt>
      <trkpt lat="42.649620" lon="-2.603420">
        <ele>956.221</ele>
        <time>2011-04-16T14:51:07Z</time>
      </trkpt>
      <trkpt lat="42.649670" lon="-2.603300">
        <ele>956.218</ele>
        <time>2011-04-16T14:51:16Z</time>
      </trkpt>
      <trkpt lat="42.649740" lon="-2.603200">
        <ele>956.645</ele>
        <time>2011-04-16T14:51:25Z</time>
      </trkpt>
      <trkpt lat="42.649780" lon="-2.603090">
        <ele>956.647</ele>
        <time>2011-04-16T14:51:33Z</time>
      </trkpt>
      <trkpt lat="42.649800" lon="-2.602970">
        <ele>956.611</ele>
        <time>2011-04-16T14:51:41Z</time>
      </trkpt>
      <trkpt lat="42.649860" lon="-2.602870">
        <ele>956.207</ele>
        <time>2011-04-16T14:51:49Z</time>
      </trkpt>
      <trkpt lat="42.649930" lon="-2.602780">
        <ele>955.266</ele>
        <time>2011-04-16T14:51:57Z</time>
      </trkpt>
      <trkpt lat="42.649990" lon="-2.602690">
        <ele>954.277</ele>
        <time>2011-04-16T14:52:06Z</time>
      </trkpt>
      <trkpt lat="42.650050" lon="-2.602610">
        <ele>953.396</ele>
        <time>2011-04-16T14:52:16Z</time>
      </trkpt>
      <trkpt lat="42.650120" lon="-2.602520">
        <ele>952.353</ele>
        <time>2011-04-16T14:52:26Z</time>
      </trkpt>
      <trkpt lat="42.650180" lon="-2.602440">
        <ele>951.410</ele>
        <time>2011-04-16T14:52:35Z</time>
      </trkpt>
      <trkpt lat="42.650250" lon="-2.602340">
        <ele>949.016</ele>
        <time>2011-04-16T14:52:44Z</time>
      </trkpt>
      <trkpt lat="42.650320" lon="-2.602240">
        <ele>947.573</ele>
        <time>2011-04-16T14:52:52Z</time>
      </trkpt>
      <trkpt lat="42.650380" lon="-2.602150">
        <ele>946.111</ele>
        <time>2011-04-16T14:53:00Z</time>
      </trkpt>
      <trkpt lat="42.650460" lon="-2.602080">
        <ele>944.121</ele>
        <time>2011-04-16T14:53:08Z</time>
      </trkpt>
      <trkpt lat="42.650530" lon="-2.602000">
        <ele>943.203</ele>
        <time>2011-04-16T14:53:16Z</time>
      </trkpt>
      <trkpt lat="42.650600" lon="-2.601910">
        <ele>940.807</ele>
        <time>2011-04-16T14:53:24Z</time>
      </trkpt>
      <trkpt lat="42.650680" lon="-2.601830">
        <ele>939.373</ele>
        <time>2011-04-16T14:53:32Z</time>
      </trkpt>
      <trkpt lat="42.650760" lon="-2.601760">
        <ele>938.414</ele>
        <time>2011-04-16T14:53:40Z</time>
      </trkpt>
      <trkpt lat="42.650830" lon="-2.601670">
        <ele>936.553</ele>
        <time>2011-04-16T14:53:48Z</time>
      </trkpt>
      <trkpt lat="42.650880" lon="-2.601560">
        <ele>935.030</ele>
        <time>2011-04-16T14:53:57Z</time>
      </trkpt>
      <trkpt lat="42.650930" lon="-2.601450">
        <ele>933.627</ele>
        <time>2011-04-16T14:54:07Z</time>
      </trkpt>
      <trkpt lat="42.650990" lon="-2.601350">
        <ele>932.693</ele>
        <time>2011-04-16T14:54:16Z</time>
      </trkpt>
      <trkpt lat="42.651060" lon="-2.601260">
        <ele>930.220</ele>
        <time>2011-04-16T14:54:25Z</time>
      </trkpt>
      <trkpt lat="42.651140" lon="-2.601160">
        <ele>928.887</ele>
        <time>2011-04-16T14:54:34Z</time>
      </trkpt>
      <trkpt lat="42.651210" lon="-2.601080">
        <ele>926.842</ele>
        <time>2011-04-16T14:54:42Z</time>
      </trkpt>
      <trkpt lat="42.651280" lon="-2.601000">
        <ele>924.926</ele>
        <time>2011-04-16T14:54:50Z</time>
      </trkpt>
      <trkpt lat="42.651350" lon="-2.600910">
        <ele>922.107</ele>
        <time>2011-04-16T14:54:59Z</time>
      </trkpt>
      <trkpt lat="42.651420" lon="-2.600820">
        <ele>920.140</ele>
        <time>2011-04-16T14:55:07Z</time>
      </trkpt>
      <trkpt lat="42.651470" lon="-2.600720">
        <ele>919.621</ele>
        <time>2011-04-16T14:55:15Z</time>
      </trkpt>
      <trkpt lat="42.651510" lon="-2.600590">
        <ele>917.720</ele>
        <time>2011-04-16T14:55:23Z</time>
      </trkpt>
      <trkpt lat="42.651570" lon="-2.600500">
        <ele>918.217</ele>
        <time>2011-04-16T14:55:30Z</time>
      </trkpt>
      <trkpt lat="42.651660" lon="-2.600440">
        <ele>918.224</ele>
        <time>2011-04-16T14:55:38Z</time>
      </trkpt>
      <trkpt lat="42.651740" lon="-2.600380">
        <ele>918.230</ele>
        <time>2011-04-16T14:55:46Z</time>
      </trkpt>
      <trkpt lat="42.651830" lon="-2.600310">
        <ele>916.777</ele>
        <time>2011-04-16T14:55:55Z</time>
      </trkpt>
      <trkpt lat="42.651910" lon="-2.600220">
        <ele>916.715</ele>
        <time>2011-04-16T14:56:04Z</time>
      </trkpt>
      <trkpt lat="42.651980" lon="-2.600150">
        <ele>916.365</ele>
        <time>2011-04-16T14:56:12Z</time>
      </trkpt>
      <trkpt lat="42.652060" lon="-2.600060">
        <ele>914.811</ele>
        <time>2011-04-16T14:56:20Z</time>
      </trkpt>
      <trkpt lat="42.652130" lon="-2.599980">
        <ele>913.407</ele>
        <time>2011-04-16T14:56:27Z</time>
      </trkpt>
      <trkpt lat="42.652210" lon="-2.599890">
        <ele>913.453</ele>
        <time>2011-04-16T14:56:34Z</time>
      </trkpt>
      <trkpt lat="42.652280" lon="-2.599820">
        <ele>912.434</ele>
        <time>2011-04-16T14:56:41Z</time>
      </trkpt>
      <trkpt lat="42.652370" lon="-2.599740">
        <ele>912.013</ele>
        <time>2011-04-16T14:56:49Z</time>
      </trkpt>
      <trkpt lat="42.652450" lon="-2.599690">
        <ele>912.920</ele>
        <time>2011-04-16T14:56:57Z</time>
      </trkpt>
      <trkpt lat="42.652520" lon="-2.599620">
        <ele>914.327</ele>
        <time>2011-04-16T14:57:04Z</time>
      </trkpt>
      <trkpt lat="42.652550" lon="-2.599600">
        <ele>914.353</ele>
        <time>2011-04-16T14:57:21Z</time>
      </trkpt>
      <trkpt lat="42.652560" lon="-2.599470">
        <ele>915.310</ele>
        <time>2011-04-16T14:57:49Z</time>
      </trkpt>
      <trkpt lat="42.652560" lon="-2.599340">
        <ele>915.853</ele>
        <time>2011-04-16T14:57:58Z</time>
      </trkpt>
      <trkpt lat="42.652520" lon="-2.599210">
        <ele>915.804</ele>
        <time>2011-04-16T14:58:07Z</time>
      </trkpt>
      <trkpt lat="42.652470" lon="-2.599080">
        <ele>915.314</ele>
        <time>2011-04-16T14:58:20Z</time>
      </trkpt>
      <trkpt lat="42.652400" lon="-2.598990">
        <ele>915.307</ele>
        <time>2011-04-16T14:58:28Z</time>
      </trkpt>
      <trkpt lat="42.652350" lon="-2.598880">
        <ele>914.867</ele>
        <time>2011-04-16T14:58:36Z</time>
      </trkpt>
      <trkpt lat="42.652330" lon="-2.598750">
        <ele>915.388</ele>
        <time>2011-04-16T14:58:44Z</time>
      </trkpt>
      <trkpt lat="42.652300" lon="-2.598620">
        <ele>914.847</ele>
        <time>2011-04-16T14:58:52Z</time>
      </trkpt>
      <trkpt lat="42.652270" lon="-2.598490">
        <ele>914.894</ele>
        <time>2011-04-16T14:58:59Z</time>
      </trkpt>
      <trkpt lat="42.652220" lon="-2.598380">
        <ele>914.871</ele>
        <time>2011-04-16T14:59:06Z</time>
      </trkpt>
      <trkpt lat="42.652150" lon="-2.598300">
        <ele>914.387</ele>
        <time>2011-04-16T14:59:13Z</time>
      </trkpt>
      <trkpt lat="42.652070" lon="-2.598240">
        <ele>913.914</ele>
        <time>2011-04-16T14:59:20Z</time>
      </trkpt>
      <trkpt lat="42.652030" lon="-2.598120">
        <ele>913.421</ele>
        <time>2011-04-16T14:59:27Z</time>
      </trkpt>
      <trkpt lat="42.652020" lon="-2.597990">
        <ele>912.441</ele>
        <time>2011-04-16T14:59:34Z</time>
      </trkpt>
      <trkpt lat="42.652000" lon="-2.597860">
        <ele>913.405</ele>
        <time>2011-04-16T14:59:42Z</time>
      </trkpt>
      <trkpt lat="42.651990" lon="-2.597730">
        <ele>913.407</ele>
        <time>2011-04-16T14:59:50Z</time>
      </trkpt>
      <trkpt lat="42.651970" lon="-2.597590">
        <ele>913.914</ele>
        <time>2011-04-16T14:59:58Z</time>
      </trkpt>
      <trkpt lat="42.651950" lon="-2.597460">
        <ele>913.465</ele>
        <time>2011-04-16T15:00:05Z</time>
      </trkpt>
      <trkpt lat="42.651930" lon="-2.597340">
        <ele>913.454</ele>
        <time>2011-04-16T15:00:12Z</time>
      </trkpt>
      <trkpt lat="42.651900" lon="-2.597220">
        <ele>912.921</ele>
        <time>2011-04-16T15:00:19Z</time>
      </trkpt>
      <trkpt lat="42.651870" lon="-2.597110">
        <ele>912.958</ele>
        <time>2011-04-16T15:00:26Z</time>
      </trkpt>
      <trkpt lat="42.651850" lon="-2.596980">
        <ele>912.424</ele>
        <time>2011-04-16T15:00:33Z</time>
      </trkpt>
      <trkpt lat="42.651820" lon="-2.596850">
        <ele>912.091</ele>
        <time>2011-04-16T15:00:40Z</time>
      </trkpt>
      <trkpt lat="42.651800" lon="-2.596710">
        <ele>911.578</ele>
        <time>2011-04-16T15:00:48Z</time>
      </trkpt>
      <trkpt lat="42.651770" lon="-2.596590">
        <ele>911.533</ele>
        <time>2011-04-16T15:00:55Z</time>
      </trkpt>
      <trkpt lat="42.651740" lon="-2.596460">
        <ele>911.026</ele>
        <time>2011-04-16T15:01:02Z</time>
      </trkpt>
      <trkpt lat="42.651710" lon="-2.596330">
        <ele>911.007</ele>
        <time>2011-04-16T15:01:09Z</time>
      </trkpt>
      <trkpt lat="42.651670" lon="-2.596200">
        <ele>911.049</ele>
        <time>2011-04-16T15:01:16Z</time>
      </trkpt>
      <trkpt lat="42.651640" lon="-2.596070">
        <ele>911.020</ele>
        <time>2011-04-16T15:01:23Z</time>
      </trkpt>
      <trkpt lat="42.651620" lon="-2.595970">
        <ele>910.549</ele>
        <time>2011-04-16T15:01:31Z</time>
      </trkpt>
      <trkpt lat="42.651600" lon="-2.595840">
        <ele>911.086</ele>
        <time>2011-04-16T15:01:38Z</time>
      </trkpt>
      <trkpt lat="42.651570" lon="-2.595700">
        <ele>911.093</ele>
        <time>2011-04-16T15:01:46Z</time>
      </trkpt>
      <trkpt lat="42.651560" lon="-2.595560">
        <ele>910.569</ele>
        <time>2011-04-16T15:01:54Z</time>
      </trkpt>
      <trkpt lat="42.651540" lon="-2.595430">
        <ele>911.596</ele>
        <time>2011-04-16T15:02:01Z</time>
      </trkpt>
      <trkpt lat="42.651530" lon="-2.595300">
        <ele>911.584</ele>
        <time>2011-04-16T15:02:08Z</time>
      </trkpt>
      <trkpt lat="42.651560" lon="-2.595170">
        <ele>910.507</ele>
        <time>2011-04-16T15:02:16Z</time>
      </trkpt>
      <trkpt lat="42.651620" lon="-2.595070">
        <ele>909.617</ele>
        <time>2011-04-16T15:02:24Z</time>
      </trkpt>
      <trkpt lat="42.651690" lon="-2.594990">
        <ele>909.107</ele>
        <time>2011-04-16T15:02:31Z</time>
      </trkpt>
      <trkpt lat="42.651750" lon="-2.594890">
        <ele>909.160</ele>
        <time>2011-04-16T15:02:38Z</time>
      </trkpt>
      <trkpt lat="42.651780" lon="-2.594770">
        <ele>908.691</ele>
        <time>2011-04-16T15:02:45Z</time>
      </trkpt>
      <trkpt lat="42.651800" lon="-2.594650">
        <ele>908.110</ele>
        <time>2011-04-16T15:02:52Z</time>
      </trkpt>
      <trkpt lat="42.651810" lon="-2.594520">
        <ele>908.137</ele>
        <time>2011-04-16T15:02:59Z</time>
      </trkpt>
      <trkpt lat="42.651830" lon="-2.594400">
        <ele>907.634</ele>
        <time>2011-04-16T15:03:06Z</time>
      </trkpt>
      <trkpt lat="42.651850" lon="-2.594270">
        <ele>907.160</ele>
        <time>2011-04-16T15:03:13Z</time>
      </trkpt>
      <trkpt lat="42.651860" lon="-2.594150">
        <ele>906.767</ele>
        <time>2011-04-16T15:03:20Z</time>
      </trkpt>
      <trkpt lat="42.651870" lon="-2.594020">
        <ele>906.719</ele>
        <time>2011-04-16T15:03:28Z</time>
      </trkpt>
      <trkpt lat="42.651860" lon="-2.593870">
        <ele>905.709</ele>
        <time>2011-04-16T15:03:36Z</time>
      </trkpt>
      <trkpt lat="42.651880" lon="-2.593740">
        <ele>905.719</ele>
        <time>2011-04-16T15:03:44Z</time>
      </trkpt>
      <trkpt lat="42.651930" lon="-2.593620">
        <ele>905.707</ele>
        <time>2011-04-16T15:03:52Z</time>
      </trkpt>
      <trkpt lat="42.651980" lon="-2.593510">
        <ele>905.253</ele>
        <time>2011-04-16T15:03:59Z</time>
      </trkpt>
      <trkpt lat="42.652000" lon="-2.593390">
        <ele>904.794</ele>
        <time>2011-04-16T15:04:07Z</time>
      </trkpt>
      <trkpt lat="42.652020" lon="-2.593270">
        <ele>905.233</ele>
        <time>2011-04-16T15:04:14Z</time>
      </trkpt>
      <trkpt lat="42.652040" lon="-2.593130">
        <ele>904.710</ele>
        <time>2011-04-16T15:04:21Z</time>
      </trkpt>
      <trkpt lat="42.652070" lon="-2.593000">
        <ele>904.727</ele>
        <time>2011-04-16T15:04:29Z</time>
      </trkpt>
      <trkpt lat="42.652140" lon="-2.592760">
        <ele>906.243</ele>
        <time>2011-04-16T15:04:48Z</time>
      </trkpt>
      <trkpt lat="42.652110" lon="-2.592630">
        <ele>906.210</ele>
        <time>2011-04-16T15:04:56Z</time>
      </trkpt>
      <trkpt lat="42.652070" lon="-2.592510">
        <ele>906.734</ele>
        <time>2011-04-16T15:05:03Z</time>
      </trkpt>
      <trkpt lat="42.652010" lon="-2.592400">
        <ele>906.255</ele>
        <time>2011-04-16T15:05:11Z</time>
      </trkpt>
      <trkpt lat="42.651960" lon="-2.592290">
        <ele>905.210</ele>
        <time>2011-04-16T15:05:18Z</time>
      </trkpt>
      <trkpt lat="42.651920" lon="-2.592170">
        <ele>905.207</ele>
        <time>2011-04-16T15:05:25Z</time>
      </trkpt>
      <trkpt lat="42.651890" lon="-2.592060">
        <ele>904.765</ele>
        <time>2011-04-16T15:05:32Z</time>
      </trkpt>
      <trkpt lat="42.651840" lon="-2.591930">
        <ele>904.796</ele>
        <time>2011-04-16T15:05:40Z</time>
      </trkpt>
      <trkpt lat="42.651800" lon="-2.591820">
        <ele>904.765</ele>
        <time>2011-04-16T15:05:47Z</time>
      </trkpt>
      <trkpt lat="42.651740" lon="-2.591700">
        <ele>904.382</ele>
        <time>2011-04-16T15:05:55Z</time>
      </trkpt>
      <trkpt lat="42.651680" lon="-2.591610">
        <ele>902.819</ele>
        <time>2011-04-16T15:06:02Z</time>
      </trkpt>
      <trkpt lat="42.651600" lon="-2.591540">
        <ele>902.845</ele>
        <time>2011-04-16T15:06:10Z</time>
      </trkpt>
      <trkpt lat="42.651520" lon="-2.591450">
        <ele>902.382</ele>
        <time>2011-04-16T15:06:18Z</time>
      </trkpt>
      <trkpt lat="42.651490" lon="-2.591320">
        <ele>902.387</ele>
        <time>2011-04-16T15:06:26Z</time>
      </trkpt>
      <trkpt lat="42.651500" lon="-2.591190">
        <ele>900.942</ele>
        <time>2011-04-16T15:06:34Z</time>
      </trkpt>
      <trkpt lat="42.651530" lon="-2.591060">
        <ele>900.426</ele>
        <time>2011-04-16T15:06:42Z</time>
      </trkpt>
      <trkpt lat="42.651560" lon="-2.590930">
        <ele>899.907</ele>
        <time>2011-04-16T15:06:51Z</time>
      </trkpt>
      <trkpt lat="42.651580" lon="-2.590810">
        <ele>899.940</ele>
        <time>2011-04-16T15:07:12Z</time>
      </trkpt>
      <trkpt lat="42.651580" lon="-2.590680">
        <ele>899.081</ele>
        <time>2011-04-16T15:07:20Z</time>
      </trkpt>
      <trkpt lat="42.651570" lon="-2.590550">
        <ele>897.170</ele>
        <time>2011-04-16T15:07:27Z</time>
      </trkpt>
      <trkpt lat="42.651550" lon="-2.590420">
        <ele>896.137</ele>
        <time>2011-04-16T15:07:34Z</time>
      </trkpt>
      <trkpt lat="42.651530" lon="-2.590300">
        <ele>895.654</ele>
        <time>2011-04-16T15:07:41Z</time>
      </trkpt>
      <trkpt lat="42.651520" lon="-2.590160">
        <ele>895.160</ele>
        <time>2011-04-16T15:07:48Z</time>
      </trkpt>
      <trkpt lat="42.651510" lon="-2.590030">
        <ele>893.297</ele>
        <time>2011-04-16T15:07:55Z</time>
      </trkpt>
      <trkpt lat="42.651500" lon="-2.589900">
        <ele>893.292</ele>
        <time>2011-04-16T15:08:01Z</time>
      </trkpt>
      <trkpt lat="42.651490" lon="-2.589780">
        <ele>891.873</ele>
        <time>2011-04-16T15:08:07Z</time>
      </trkpt>
      <trkpt lat="42.651480" lon="-2.589650">
        <ele>891.820</ele>
        <time>2011-04-16T15:08:14Z</time>
      </trkpt>
      <trkpt lat="42.651480" lon="-2.589520">
        <ele>889.807</ele>
        <time>2011-04-16T15:08:21Z</time>
      </trkpt>
      <trkpt lat="42.651470" lon="-2.589390">
        <ele>889.361</ele>
        <time>2011-04-16T15:08:28Z</time>
      </trkpt>
      <trkpt lat="42.651470" lon="-2.589260">
        <ele>888.932</ele>
        <time>2011-04-16T15:08:35Z</time>
      </trkpt>
      <trkpt lat="42.651470" lon="-2.589130">
        <ele>888.491</ele>
        <time>2011-04-16T15:08:42Z</time>
      </trkpt>
      <trkpt lat="42.651480" lon="-2.589010">
        <ele>887.468</ele>
        <time>2011-04-16T15:08:49Z</time>
      </trkpt>
      <trkpt lat="42.651480" lon="-2.588880">
        <ele>886.555</ele>
        <time>2011-04-16T15:08:56Z</time>
      </trkpt>
      <trkpt lat="42.651480" lon="-2.588750">
        <ele>886.511</ele>
        <time>2011-04-16T15:09:03Z</time>
      </trkpt>
      <trkpt lat="42.651500" lon="-2.588610">
        <ele>885.588</ele>
        <time>2011-04-16T15:09:10Z</time>
      </trkpt>
      <trkpt lat="42.651510" lon="-2.588490">
        <ele>885.587</ele>
        <time>2011-04-16T15:09:17Z</time>
      </trkpt>
      <trkpt lat="42.651520" lon="-2.588350">
        <ele>883.642</ele>
        <time>2011-04-16T15:09:25Z</time>
      </trkpt>
      <trkpt lat="42.651540" lon="-2.588220">
        <ele>884.126</ele>
        <time>2011-04-16T15:09:33Z</time>
      </trkpt>
      <trkpt lat="42.651550" lon="-2.588090">
        <ele>882.607</ele>
        <time>2011-04-16T15:09:41Z</time>
      </trkpt>
      <trkpt lat="42.651560" lon="-2.587950">
        <ele>882.240</ele>
        <time>2011-04-16T15:09:49Z</time>
      </trkpt>
      <trkpt lat="42.651570" lon="-2.587820">
        <ele>882.271</ele>
        <time>2011-04-16T15:09:57Z</time>
      </trkpt>
      <trkpt lat="42.651600" lon="-2.587690">
        <ele>881.790</ele>
        <time>2011-04-16T15:10:05Z</time>
      </trkpt>
      <trkpt lat="42.651630" lon="-2.587560">
        <ele>881.787</ele>
        <time>2011-04-16T15:10:13Z</time>
      </trkpt>
      <trkpt lat="42.651630" lon="-2.587420">
        <ele>881.774</ele>
        <time>2011-04-16T15:10:21Z</time>
      </trkpt>
      <trkpt lat="42.651650" lon="-2.587290">
        <ele>882.250</ele>
        <time>2011-04-16T15:10:29Z</time>
      </trkpt>
      <trkpt lat="42.651660" lon="-2.587160">
        <ele>880.767</ele>
        <time>2011-04-16T15:10:37Z</time>
      </trkpt>
      <trkpt lat="42.651680" lon="-2.587030">
        <ele>881.292</ele>
        <time>2011-04-16T15:10:45Z</time>
      </trkpt>
      <trkpt lat="42.651690" lon="-2.586900">
        <ele>882.273</ele>
        <time>2011-04-16T15:10:53Z</time>
      </trkpt>
      <trkpt lat="42.651700" lon="-2.586770">
        <ele>883.120</ele>
        <time>2011-04-16T15:11:00Z</time>
      </trkpt>
      <trkpt lat="42.651700" lon="-2.586640">
        <ele>884.107</ele>
        <time>2011-04-16T15:11:08Z</time>
      </trkpt>
      <trkpt lat="42.651710" lon="-2.586500">
        <ele>884.111</ele>
        <time>2011-04-16T15:11:16Z</time>
      </trkpt>
      <trkpt lat="42.651740" lon="-2.586370">
        <ele>885.092</ele>
        <time>2011-04-16T15:11:24Z</time>
      </trkpt>
      <trkpt lat="42.651770" lon="-2.586240">
        <ele>883.671</ele>
        <time>2011-04-16T15:11:32Z</time>
      </trkpt>
      <trkpt lat="42.651790" lon="-2.586120">
        <ele>885.038</ele>
        <time>2011-04-16T15:11:40Z</time>
      </trkpt>
      <trkpt lat="42.651820" lon="-2.585980">
        <ele>885.525</ele>
        <time>2011-04-16T15:11:48Z</time>
      </trkpt>
      <trkpt lat="42.651830" lon="-2.585850">
        <ele>884.661</ele>
        <time>2011-04-16T15:11:56Z</time>
      </trkpt>
      <trkpt lat="42.651820" lon="-2.585720">
        <ele>884.128</ele>
        <time>2011-04-16T15:12:04Z</time>
      </trkpt>
      <trkpt lat="42.651820" lon="-2.585580">
        <ele>882.694</ele>
        <time>2011-04-16T15:12:13Z</time>
      </trkpt>
      <trkpt lat="42.651840" lon="-2.585450">
        <ele>881.257</ele>
        <time>2011-04-16T15:12:21Z</time>
      </trkpt>
      <trkpt lat="42.651850" lon="-2.585320">
        <ele>880.722</ele>
        <time>2011-04-16T15:12:29Z</time>
      </trkpt>
      <trkpt lat="42.651860" lon="-2.585190">
        <ele>879.307</ele>
        <time>2011-04-16T15:12:36Z</time>
      </trkpt>
      <trkpt lat="42.651860" lon="-2.585070">
        <ele>878.851</ele>
        <time>2011-04-16T15:12:43Z</time>
      </trkpt>
      <trkpt lat="42.651860" lon="-2.584940">
        <ele>877.882</ele>
        <time>2011-04-16T15:12:51Z</time>
      </trkpt>
      <trkpt lat="42.651860" lon="-2.584800">
        <ele>877.881</ele>
        <time>2011-04-16T15:12:59Z</time>
      </trkpt>
      <trkpt lat="42.651850" lon="-2.584670">
        <ele>877.348</ele>
        <time>2011-04-16T15:13:07Z</time>
      </trkpt>
      <trkpt lat="42.651850" lon="-2.584530">
        <ele>877.395</ele>
        <time>2011-04-16T15:13:15Z</time>
      </trkpt>
      <trkpt lat="42.651840" lon="-2.584410">
        <ele>877.831</ele>
        <time>2011-04-16T15:13:22Z</time>
      </trkpt>
      <trkpt lat="42.651840" lon="-2.584270">
        <ele>877.388</ele>
        <time>2011-04-16T15:13:30Z</time>
      </trkpt>
      <trkpt lat="42.651830" lon="-2.584130">
        <ele>876.897</ele>
        <time>2011-04-16T15:13:38Z</time>
      </trkpt>
      <trkpt lat="42.651820" lon="-2.584010">
        <ele>877.323</ele>
        <time>2011-04-16T15:13:45Z</time>
      </trkpt>
      <trkpt lat="42.651790" lon="-2.583890">
        <ele>877.325</ele>
        <time>2011-04-16T15:13:52Z</time>
      </trkpt>
      <trkpt lat="42.651760" lon="-2.583750">
        <ele>877.807</ele>
        <time>2011-04-16T15:14:00Z</time>
      </trkpt>
      <trkpt lat="42.651720" lon="-2.583620">
        <ele>877.381</ele>
        <time>2011-04-16T15:14:08Z</time>
      </trkpt>
      <trkpt lat="42.651690" lon="-2.583490">
        <ele>877.332</ele>
        <time>2011-04-16T15:14:16Z</time>
      </trkpt>
      <trkpt lat="42.651660" lon="-2.583370">
        <ele>878.311</ele>
        <time>2011-04-16T15:14:23Z</time>
      </trkpt>
      <trkpt lat="42.651630" lon="-2.583250">
        <ele>879.378</ele>
        <time>2011-04-16T15:14:31Z</time>
      </trkpt>
      <trkpt lat="42.651590" lon="-2.583140">
        <ele>879.345</ele>
        <time>2011-04-16T15:14:38Z</time>
      </trkpt>
      <trkpt lat="42.651560" lon="-2.583030">
        <ele>880.281</ele>
        <time>2011-04-16T15:14:45Z</time>
      </trkpt>
      <trkpt lat="42.651520" lon="-2.582900">
        <ele>879.348</ele>
        <time>2011-04-16T15:14:53Z</time>
      </trkpt>
      <trkpt lat="42.651480" lon="-2.582780">
        <ele>878.867</ele>
        <time>2011-04-16T15:15:01Z</time>
      </trkpt>
      <trkpt lat="42.651440" lon="-2.582650">
        <ele>878.881</ele>
        <time>2011-04-16T15:15:09Z</time>
      </trkpt>
      <trkpt lat="42.651380" lon="-2.582540">
        <ele>879.319</ele>
        <time>2011-04-16T15:15:17Z</time>
      </trkpt>
      <trkpt lat="42.651340" lon="-2.582420">
        <ele>878.307</ele>
        <time>2011-04-16T15:15:25Z</time>
      </trkpt>
      <trkpt lat="42.651280" lon="-2.582330">
        <ele>878.398</ele>
        <time>2011-04-16T15:15:32Z</time>
      </trkpt>
      <trkpt lat="42.651220" lon="-2.582230">
        <ele>877.889</ele>
        <time>2011-04-16T15:15:39Z</time>
      </trkpt>
      <trkpt lat="42.651160" lon="-2.582130">
        <ele>876.848</ele>
        <time>2011-04-16T15:15:46Z</time>
      </trkpt>
      <trkpt lat="42.651110" lon="-2.582010">
        <ele>875.975</ele>
        <time>2011-04-16T15:15:54Z</time>
      </trkpt>
      <trkpt lat="42.651060" lon="-2.581880">
        <ele>875.922</ele>
        <time>2011-04-16T15:16:02Z</time>
      </trkpt>
      <trkpt lat="42.651020" lon="-2.581770">
        <ele>875.478</ele>
        <time>2011-04-16T15:16:09Z</time>
      </trkpt>
      <trkpt lat="42.650980" lon="-2.581640">
        <ele>874.585</ele>
        <time>2011-04-16T15:16:17Z</time>
      </trkpt>
      <trkpt lat="42.650940" lon="-2.581520">
        <ele>874.588</ele>
        <time>2011-04-16T15:16:24Z</time>
      </trkpt>
      <trkpt lat="42.650910" lon="-2.581390">
        <ele>873.524</ele>
        <time>2011-04-16T15:16:32Z</time>
      </trkpt>
      <trkpt lat="42.650870" lon="-2.581260">
        <ele>873.026</ele>
        <time>2011-04-16T15:16:40Z</time>
      </trkpt>
      <trkpt lat="42.650830" lon="-2.581140">
        <ele>872.507</ele>
        <time>2011-04-16T15:16:48Z</time>
      </trkpt>
      <trkpt lat="42.650790" lon="-2.581020">
        <ele>871.650</ele>
        <time>2011-04-16T15:16:56Z</time>
      </trkpt>
      <trkpt lat="42.650740" lon="-2.580900">
        <ele>871.671</ele>
        <time>2011-04-16T15:17:04Z</time>
      </trkpt>
      <trkpt lat="42.650680" lon="-2.580780">
        <ele>869.760</ele>
        <time>2011-04-16T15:17:12Z</time>
      </trkpt>
      <trkpt lat="42.650630" lon="-2.580670">
        <ele>868.767</ele>
        <time>2011-04-16T15:17:20Z</time>
      </trkpt>
      <trkpt lat="42.650580" lon="-2.580550">
        <ele>868.254</ele>
        <time>2011-04-16T15:17:28Z</time>
      </trkpt>
      <trkpt lat="42.650540" lon="-2.580430">
        <ele>867.710</ele>
        <time>2011-04-16T15:17:36Z</time>
      </trkpt>
      <trkpt lat="42.650490" lon="-2.580300">
        <ele>867.717</ele>
        <time>2011-04-16T15:17:44Z</time>
      </trkpt>
      <trkpt lat="42.650450" lon="-2.580170">
        <ele>868.241</ele>
        <time>2011-04-16T15:17:52Z</time>
      </trkpt>
      <trkpt lat="42.650420" lon="-2.580040">
        <ele>867.781</ele>
        <time>2011-04-16T15:18:00Z</time>
      </trkpt>
      <trkpt lat="42.650370" lon="-2.579920">
        <ele>866.809</ele>
        <time>2011-04-16T15:18:08Z</time>
      </trkpt>
      <trkpt lat="42.650310" lon="-2.579820">
        <ele>867.207</ele>
        <time>2011-04-16T15:18:16Z</time>
      </trkpt>
      <trkpt lat="42.650260" lon="-2.579710">
        <ele>867.276</ele>
        <time>2011-04-16T15:18:24Z</time>
      </trkpt>
      <trkpt lat="42.650220" lon="-2.579590">
        <ele>868.767</ele>
        <time>2011-04-16T15:18:32Z</time>
      </trkpt>
      <trkpt lat="42.650180" lon="-2.579470">
        <ele>868.756</ele>
        <time>2011-04-16T15:18:40Z</time>
      </trkpt>
      <trkpt lat="42.650140" lon="-2.579340">
        <ele>868.263</ele>
        <time>2011-04-16T15:18:48Z</time>
      </trkpt>
      <trkpt lat="42.650090" lon="-2.579220">
        <ele>867.730</ele>
        <time>2011-04-16T15:18:56Z</time>
      </trkpt>
      <trkpt lat="42.650050" lon="-2.579100">
        <ele>867.726</ele>
        <time>2011-04-16T15:19:04Z</time>
      </trkpt>
      <trkpt lat="42.650000" lon="-2.578980">
        <ele>868.243</ele>
        <time>2011-04-16T15:19:12Z</time>
      </trkpt>
      <trkpt lat="42.649960" lon="-2.578870">
        <ele>868.751</ele>
        <time>2011-04-16T15:19:19Z</time>
      </trkpt>
      <trkpt lat="42.649930" lon="-2.578760">
        <ele>869.201</ele>
        <time>2011-04-16T15:19:26Z</time>
      </trkpt>
      <trkpt lat="42.649890" lon="-2.578640">
        <ele>869.211</ele>
        <time>2011-04-16T15:19:34Z</time>
      </trkpt>
      <trkpt lat="42.649850" lon="-2.578510">
        <ele>870.107</ele>
        <time>2011-04-16T15:19:42Z</time>
      </trkpt>
      <trkpt lat="42.649790" lon="-2.578400">
        <ele>870.637</ele>
        <time>2011-04-16T15:19:50Z</time>
      </trkpt>
      <trkpt lat="42.649740" lon="-2.578280">
        <ele>870.688</ele>
        <time>2011-04-16T15:19:58Z</time>
      </trkpt>
      <trkpt lat="42.649680" lon="-2.578170">
        <ele>870.157</ele>
        <time>2011-04-16T15:20:06Z</time>
      </trkpt>
      <trkpt lat="42.649630" lon="-2.578040">
        <ele>870.144</ele>
        <time>2011-04-16T15:20:14Z</time>
      </trkpt>
      <trkpt lat="42.649590" lon="-2.577920">
        <ele>869.751</ele>
        <time>2011-04-16T15:20:22Z</time>
      </trkpt>
      <trkpt lat="42.649550" lon="-2.577790">
        <ele>869.727</ele>
        <time>2011-04-16T15:20:30Z</time>
      </trkpt>
      <trkpt lat="42.649510" lon="-2.577670">
        <ele>868.754</ele>
        <time>2011-04-16T15:20:38Z</time>
      </trkpt>
      <trkpt lat="42.649470" lon="-2.577540">
        <ele>867.735</ele>
        <time>2011-04-16T15:20:46Z</time>
      </trkpt>
      <trkpt lat="42.649430" lon="-2.577420">
        <ele>866.886</ele>
        <time>2011-04-16T15:20:54Z</time>
      </trkpt>
      <trkpt lat="42.649390" lon="-2.577300">
        <ele>865.814</ele>
        <time>2011-04-16T15:21:01Z</time>
      </trkpt>
      <trkpt lat="42.649350" lon="-2.577190">
        <ele>864.807</ele>
        <time>2011-04-16T15:21:08Z</time>
      </trkpt>
      <trkpt lat="42.649320" lon="-2.577070">
        <ele>864.445</ele>
        <time>2011-04-16T15:21:15Z</time>
      </trkpt>
      <trkpt lat="42.649280" lon="-2.576940">
        <ele>864.456</ele>
        <time>2011-04-16T15:21:22Z</time>
      </trkpt>
      <trkpt lat="42.649250" lon="-2.576820">
        <ele>862.965</ele>
        <time>2011-04-16T15:21:29Z</time>
      </trkpt>
      <trkpt lat="42.649210" lon="-2.576700">
        <ele>863.412</ele>
        <time>2011-04-16T15:21:36Z</time>
      </trkpt>
      <trkpt lat="42.649170" lon="-2.576590">
        <ele>862.429</ele>
        <time>2011-04-16T15:21:43Z</time>
      </trkpt>
      <trkpt lat="42.649130" lon="-2.576460">
        <ele>861.535</ele>
        <time>2011-04-16T15:21:50Z</time>
      </trkpt>
      <trkpt lat="42.649100" lon="-2.576340">
        <ele>862.032</ele>
        <time>2011-04-16T15:21:57Z</time>
      </trkpt>
      <trkpt lat="42.649060" lon="-2.576220">
        <ele>861.514</ele>
        <time>2011-04-16T15:22:04Z</time>
      </trkpt>
      <trkpt lat="42.649020" lon="-2.576110">
        <ele>862.054</ele>
        <time>2011-04-16T15:22:11Z</time>
      </trkpt>
      <trkpt lat="42.648980" lon="-2.575980">
        <ele>862.409</ele>
        <time>2011-04-16T15:22:19Z</time>
      </trkpt>
      <trkpt lat="42.648950" lon="-2.575870">
        <ele>862.907</ele>
        <time>2011-04-16T15:22:27Z</time>
      </trkpt>
      <trkpt lat="42.648910" lon="-2.575750">
        <ele>863.963</ele>
        <time>2011-04-16T15:22:35Z</time>
      </trkpt>
      <trkpt lat="42.648880" lon="-2.575620">
        <ele>864.444</ele>
        <time>2011-04-16T15:22:43Z</time>
      </trkpt>
      <trkpt lat="42.648840" lon="-2.575490">
        <ele>864.823</ele>
        <time>2011-04-16T15:22:51Z</time>
      </trkpt>
      <trkpt lat="42.648800" lon="-2.575360">
        <ele>864.480</ele>
        <time>2011-04-16T15:22:59Z</time>
      </trkpt>
      <trkpt lat="42.648770" lon="-2.575240">
        <ele>862.947</ele>
        <time>2011-04-16T15:23:07Z</time>
      </trkpt>
      <trkpt lat="42.648740" lon="-2.575120">
        <ele>862.933</ele>
        <time>2011-04-16T15:23:14Z</time>
      </trkpt>
      <trkpt lat="42.648700" lon="-2.575010">
        <ele>862.050</ele>
        <time>2011-04-16T15:23:21Z</time>
      </trkpt>
      <trkpt lat="42.648670" lon="-2.574880">
        <ele>861.549</ele>
        <time>2011-04-16T15:23:29Z</time>
      </trkpt>
      <trkpt lat="42.648640" lon="-2.574760">
        <ele>860.502</ele>
        <time>2011-04-16T15:23:36Z</time>
      </trkpt>
      <trkpt lat="42.648600" lon="-2.574650">
        <ele>859.622</ele>
        <time>2011-04-16T15:23:43Z</time>
      </trkpt>
      <trkpt lat="42.648570" lon="-2.574530">
        <ele>859.607</ele>
        <time>2011-04-16T15:23:50Z</time>
      </trkpt>
      <trkpt lat="42.648540" lon="-2.574410">
        <ele>858.646</ele>
        <time>2011-04-16T15:23:58Z</time>
      </trkpt>
      <trkpt lat="42.648500" lon="-2.574280">
        <ele>858.697</ele>
        <time>2011-04-16T15:24:06Z</time>
      </trkpt>
      <trkpt lat="42.648460" lon="-2.574160">
        <ele>858.666</ele>
        <time>2011-04-16T15:24:13Z</time>
      </trkpt>
      <trkpt lat="42.648420" lon="-2.574040">
        <ele>859.143</ele>
        <time>2011-04-16T15:24:20Z</time>
      </trkpt>
      <trkpt lat="42.648390" lon="-2.573930">
        <ele>859.130</ele>
        <time>2011-04-16T15:24:27Z</time>
      </trkpt>
      <trkpt lat="42.648350" lon="-2.573810">
        <ele>858.676</ele>
        <time>2011-04-16T15:24:34Z</time>
      </trkpt>
      <trkpt lat="42.648310" lon="-2.573700">
        <ele>858.193</ele>
        <time>2011-04-16T15:24:41Z</time>
      </trkpt>
      <trkpt lat="42.648270" lon="-2.573590">
        <ele>858.142</ele>
        <time>2011-04-16T15:24:48Z</time>
      </trkpt>
      <trkpt lat="42.648240" lon="-2.573450">
        <ele>858.122</ele>
        <time>2011-04-16T15:24:56Z</time>
      </trkpt>
      <trkpt lat="42.648210" lon="-2.573330">
        <ele>858.114</ele>
        <time>2011-04-16T15:25:03Z</time>
      </trkpt>
      <trkpt lat="42.648160" lon="-2.573210">
        <ele>858.107</ele>
        <time>2011-04-16T15:25:10Z</time>
      </trkpt>
      <trkpt lat="42.648110" lon="-2.573100">
        <ele>858.156</ele>
        <time>2011-04-16T15:25:18Z</time>
      </trkpt>
      <trkpt lat="42.648050" lon="-2.573000">
        <ele>858.147</ele>
        <time>2011-04-16T15:25:25Z</time>
      </trkpt>
      <trkpt lat="42.648020" lon="-2.572870">
        <ele>858.196</ele>
        <time>2011-04-16T15:25:32Z</time>
      </trkpt>
      <trkpt lat="42.647990" lon="-2.572730">
        <ele>857.683</ele>
        <time>2011-04-16T15:25:40Z</time>
      </trkpt>
      <trkpt lat="42.647940" lon="-2.572630">
        <ele>857.680</ele>
        <time>2011-04-16T15:25:48Z</time>
      </trkpt>
      <trkpt lat="42.647910" lon="-2.572510">
        <ele>856.776</ele>
        <time>2011-04-16T15:25:55Z</time>
      </trkpt>
      <trkpt lat="42.647870" lon="-2.572410">
        <ele>856.753</ele>
        <time>2011-04-16T15:26:02Z</time>
      </trkpt>
      <trkpt lat="42.647830" lon="-2.572290">
        <ele>856.214</ele>
        <time>2011-04-16T15:26:09Z</time>
      </trkpt>
      <trkpt lat="42.647800" lon="-2.572170">
        <ele>855.754</ele>
        <time>2011-04-16T15:26:17Z</time>
      </trkpt>
      <trkpt lat="42.647750" lon="-2.572050">
        <ele>855.209</ele>
        <time>2011-04-16T15:26:25Z</time>
      </trkpt>
      <trkpt lat="42.647740" lon="-2.571910">
        <ele>853.807</ele>
        <time>2011-04-16T15:26:33Z</time>
      </trkpt>
      <trkpt lat="42.647700" lon="-2.571780">
        <ele>853.883</ele>
        <time>2011-04-16T15:26:40Z</time>
      </trkpt>
      <trkpt lat="42.647670" lon="-2.571670">
        <ele>853.374</ele>
        <time>2011-04-16T15:26:47Z</time>
      </trkpt>
      <trkpt lat="42.647650" lon="-2.571570">
        <ele>852.863</ele>
        <time>2011-04-16T15:26:53Z</time>
      </trkpt>
      <trkpt lat="42.647370" lon="-2.571070">
        <ele>864.833</ele>
        <time>2011-05-14T09:59:45Z</time>
      </trkpt>
      <trkpt lat="42.647320" lon="-2.571000">
        <ele>865.823</ele>
        <time>2011-05-14T09:59:57Z</time>
      </trkpt>
      <trkpt lat="42.647260" lon="-2.570910">
        <ele>864.815</ele>
        <time>2011-05-14T10:00:08Z</time>
      </trkpt>
      <trkpt lat="42.647180" lon="-2.570860">
        <ele>865.307</ele>
        <time>2011-05-14T10:00:17Z</time>
      </trkpt>
      <trkpt lat="42.647100" lon="-2.570770">
        <ele>865.325</ele>
        <time>2011-05-14T10:00:27Z</time>
      </trkpt>
      <trkpt lat="42.647030" lon="-2.570690">
        <ele>865.366</ele>
        <time>2011-05-14T10:00:36Z</time>
      </trkpt>
      <trkpt lat="42.646950" lon="-2.570620">
        <ele>865.326</ele>
        <time>2011-05-14T10:00:45Z</time>
      </trkpt>
      <trkpt lat="42.646880" lon="-2.570530">
        <ele>865.824</ele>
        <time>2011-05-14T10:00:54Z</time>
      </trkpt>
      <trkpt lat="42.646820" lon="-2.570450">
        <ele>866.342</ele>
        <time>2011-05-14T10:01:03Z</time>
      </trkpt>
      <trkpt lat="42.646750" lon="-2.570360">
        <ele>865.877</ele>
        <time>2011-05-14T10:01:11Z</time>
      </trkpt>
      <trkpt lat="42.646680" lon="-2.570280">
        <ele>866.348</ele>
        <time>2011-05-14T10:01:21Z</time>
      </trkpt>
      <trkpt lat="42.646610" lon="-2.570190">
        <ele>866.833</ele>
        <time>2011-05-14T10:01:30Z</time>
      </trkpt>
      <trkpt lat="42.646540" lon="-2.570100">
        <ele>867.723</ele>
        <time>2011-05-14T10:01:39Z</time>
      </trkpt>
      <trkpt lat="42.646470" lon="-2.570030">
        <ele>867.715</ele>
        <time>2011-05-14T10:01:48Z</time>
      </trkpt>
      <trkpt lat="42.646390" lon="-2.569940">
        <ele>869.207</ele>
        <time>2011-05-14T10:01:58Z</time>
      </trkpt>
      <trkpt lat="42.646310" lon="-2.569860">
        <ele>870.115</ele>
        <time>2011-05-14T10:02:09Z</time>
      </trkpt>
      <trkpt lat="42.646240" lon="-2.569780">
        <ele>871.116</ele>
        <time>2011-05-14T10:02:19Z</time>
      </trkpt>
      <trkpt lat="42.646170" lon="-2.569700">
        <ele>873.046</ele>
        <time>2011-05-14T10:02:30Z</time>
      </trkpt>
      <trkpt lat="42.646100" lon="-2.569630">
        <ele>874.094</ele>
        <time>2011-05-14T10:02:40Z</time>
      </trkpt>
      <trkpt lat="42.646030" lon="-2.569530">
        <ele>875.422</ele>
        <time>2011-05-14T10:02:51Z</time>
      </trkpt>
      <trkpt lat="42.645970" lon="-2.569450">
        <ele>877.377</ele>
        <time>2011-05-14T10:03:01Z</time>
      </trkpt>
      <trkpt lat="42.645890" lon="-2.569350">
        <ele>877.888</ele>
        <time>2011-05-14T10:03:11Z</time>
      </trkpt>
      <trkpt lat="42.645820" lon="-2.569260">
        <ele>878.818</ele>
        <time>2011-05-14T10:03:20Z</time>
      </trkpt>
      <trkpt lat="42.645760" lon="-2.569170">
        <ele>880.798</ele>
        <time>2011-05-14T10:03:29Z</time>
      </trkpt>
      <trkpt lat="42.645690" lon="-2.569080">
        <ele>879.317</ele>
        <time>2011-05-14T10:03:38Z</time>
      </trkpt>
      <trkpt lat="42.645620" lon="-2.568980">
        <ele>881.207</ele>
        <time>2011-05-14T10:03:47Z</time>
      </trkpt>
      <trkpt lat="42.645570" lon="-2.568860">
        <ele>880.763</ele>
        <time>2011-05-14T10:03:56Z</time>
      </trkpt>
      <trkpt lat="42.645530" lon="-2.568730">
        <ele>879.714</ele>
        <time>2011-05-14T10:04:05Z</time>
      </trkpt>
      <trkpt lat="42.645500" lon="-2.568600">
        <ele>880.234</ele>
        <time>2011-05-14T10:04:14Z</time>
      </trkpt>
      <trkpt lat="42.645470" lon="-2.568480">
        <ele>879.372</ele>
        <time>2011-05-14T10:04:23Z</time>
      </trkpt>
      <trkpt lat="42.645440" lon="-2.568370">
        <ele>877.340</ele>
        <time>2011-05-14T10:04:32Z</time>
      </trkpt>
      <trkpt lat="42.645430" lon="-2.568240">
        <ele>876.475</ele>
        <time>2011-05-14T10:04:41Z</time>
      </trkpt>
      <trkpt lat="42.645420" lon="-2.568100">
        <ele>875.436</ele>
        <time>2011-05-14T10:04:51Z</time>
      </trkpt>
      <trkpt lat="42.645400" lon="-2.567980">
        <ele>872.523</ele>
        <time>2011-05-14T10:05:01Z</time>
      </trkpt>
      <trkpt lat="42.645390" lon="-2.567860">
        <ele>870.683</ele>
        <time>2011-05-14T10:05:10Z</time>
      </trkpt>
      <trkpt lat="42.645370" lon="-2.567730">
        <ele>869.211</ele>
        <time>2011-05-14T10:05:20Z</time>
      </trkpt>
      <trkpt lat="42.645350" lon="-2.567600">
        <ele>868.207</ele>
        <time>2011-05-14T10:05:29Z</time>
      </trkpt>
      <trkpt lat="42.645320" lon="-2.567480">
        <ele>866.384</ele>
        <time>2011-05-14T10:05:38Z</time>
      </trkpt>
      <trkpt lat="42.645290" lon="-2.567350">
        <ele>865.335</ele>
        <time>2011-05-14T10:05:48Z</time>
      </trkpt>
      <trkpt lat="42.645240" lon="-2.567240">
        <ele>864.415</ele>
        <time>2011-05-14T10:05:56Z</time>
      </trkpt>
      <trkpt lat="42.645190" lon="-2.567140">
        <ele>863.463</ele>
        <time>2011-05-14T10:06:04Z</time>
      </trkpt>
      <trkpt lat="42.645130" lon="-2.567030">
        <ele>863.421</ele>
        <time>2011-05-14T10:06:12Z</time>
      </trkpt>
      <trkpt lat="42.645080" lon="-2.566930">
        <ele>863.466</ele>
        <time>2011-05-14T10:06:20Z</time>
      </trkpt>
      <trkpt lat="42.645030" lon="-2.566820">
        <ele>863.917</ele>
        <time>2011-05-14T10:06:29Z</time>
      </trkpt>
      <trkpt lat="42.644980" lon="-2.566700">
        <ele>863.499</ele>
        <time>2011-05-14T10:06:38Z</time>
      </trkpt>
      <trkpt lat="42.644930" lon="-2.566590">
        <ele>863.907</ele>
        <time>2011-05-14T10:06:46Z</time>
      </trkpt>
      <trkpt lat="42.644890" lon="-2.566480">
        <ele>864.827</ele>
        <time>2011-05-14T10:06:54Z</time>
      </trkpt>
      <trkpt lat="42.644850" lon="-2.566360">
        <ele>864.807</ele>
        <time>2011-05-14T10:07:02Z</time>
      </trkpt>
      <trkpt lat="42.644820" lon="-2.566250">
        <ele>865.331</ele>
        <time>2011-05-14T10:07:10Z</time>
      </trkpt>
      <trkpt lat="42.644780" lon="-2.566130">
        <ele>865.882</ele>
        <time>2011-05-14T10:07:18Z</time>
      </trkpt>
      <trkpt lat="42.644750" lon="-2.566010">
        <ele>866.812</ele>
        <time>2011-05-14T10:07:27Z</time>
      </trkpt>
      <trkpt lat="42.644710" lon="-2.565890">
        <ele>867.290</ele>
        <time>2011-05-14T10:07:35Z</time>
      </trkpt>
      <trkpt lat="42.644670" lon="-2.565770">
        <ele>867.298</ele>
        <time>2011-05-14T10:07:43Z</time>
      </trkpt>
      <trkpt lat="42.644620" lon="-2.565650">
        <ele>867.223</ele>
        <time>2011-05-14T10:07:51Z</time>
      </trkpt>
      <trkpt lat="42.644590" lon="-2.565540">
        <ele>867.224</ele>
        <time>2011-05-14T10:07:59Z</time>
      </trkpt>
      <trkpt lat="42.644560" lon="-2.565410">
        <ele>868.212</ele>
        <time>2011-05-14T10:08:08Z</time>
      </trkpt>
      <trkpt lat="42.644520" lon="-2.565300">
        <ele>867.732</ele>
        <time>2011-05-14T10:08:16Z</time>
      </trkpt>
      <trkpt lat="42.644490" lon="-2.565180">
        <ele>867.205</ele>
        <time>2011-05-14T10:08:25Z</time>
      </trkpt>
      <trkpt lat="42.644460" lon="-2.565060">
        <ele>865.807</ele>
        <time>2011-05-14T10:08:33Z</time>
      </trkpt>
      <trkpt lat="42.644410" lon="-2.564950">
        <ele>866.893</ele>
        <time>2011-05-14T10:08:42Z</time>
      </trkpt>
      <trkpt lat="42.644330" lon="-2.564870">
        <ele>865.324</ele>
        <time>2011-05-14T10:08:51Z</time>
      </trkpt>
      <trkpt lat="42.644290" lon="-2.564750">
        <ele>865.384</ele>
        <time>2011-05-14T10:09:01Z</time>
      </trkpt>
      <trkpt lat="42.644240" lon="-2.564640">
        <ele>864.472</ele>
        <time>2011-05-14T10:09:10Z</time>
      </trkpt>
      <trkpt lat="42.644190" lon="-2.564530">
        <ele>863.950</ele>
        <time>2011-05-14T10:09:20Z</time>
      </trkpt>
      <trkpt lat="42.644140" lon="-2.564420">
        <ele>862.965</ele>
        <time>2011-05-14T10:09:30Z</time>
      </trkpt>
      <trkpt lat="42.644110" lon="-2.564300">
        <ele>862.496</ele>
        <time>2011-05-14T10:09:38Z</time>
      </trkpt>
      <trkpt lat="42.644040" lon="-2.564190">
        <ele>862.027</ele>
        <time>2011-05-14T10:09:45Z</time>
      </trkpt>
      <trkpt lat="42.643980" lon="-2.564100">
        <ele>862.068</ele>
        <time>2011-05-14T10:09:53Z</time>
      </trkpt>
      <trkpt lat="42.643940" lon="-2.564000">
        <ele>862.914</ele>
        <time>2011-05-14T10:10:01Z</time>
      </trkpt>
      <trkpt lat="42.643870" lon="-2.563860">
        <ele>862.907</ele>
        <time>2011-05-14T10:10:10Z</time>
      </trkpt>
      <trkpt lat="42.643800" lon="-2.563770">
        <ele>863.424</ele>
        <time>2011-05-14T10:10:19Z</time>
      </trkpt>
      <trkpt lat="42.643740" lon="-2.563670">
        <ele>863.925</ele>
        <time>2011-05-14T10:10:28Z</time>
      </trkpt>
      <trkpt lat="42.643670" lon="-2.563560">
        <ele>863.915</ele>
        <time>2011-05-14T10:10:36Z</time>
      </trkpt>
      <trkpt lat="42.643640" lon="-2.563440">
        <ele>863.413</ele>
        <time>2011-05-14T10:10:45Z</time>
      </trkpt>
      <trkpt lat="42.643580" lon="-2.563320">
        <ele>861.551</ele>
        <time>2011-05-14T10:10:54Z</time>
      </trkpt>
      <trkpt lat="42.643510" lon="-2.563200">
        <ele>860.556</ele>
        <time>2011-05-14T10:11:04Z</time>
      </trkpt>
      <trkpt lat="42.643440" lon="-2.563080">
        <ele>859.657</ele>
        <time>2011-05-14T10:11:15Z</time>
      </trkpt>
      <trkpt lat="42.643240" lon="-2.562940">
        <ele>858.651</ele>
        <time>2011-05-14T10:11:31Z</time>
      </trkpt>
      <trkpt lat="42.643150" lon="-2.562860">
        <ele>859.101</ele>
        <time>2011-05-14T10:11:38Z</time>
      </trkpt>
      <trkpt lat="42.643040" lon="-2.562800">
        <ele>858.611</ele>
        <time>2011-05-14T10:11:47Z</time>
      </trkpt>
      <trkpt lat="42.642940" lon="-2.562730">
        <ele>859.107</ele>
        <time>2011-05-14T10:11:55Z</time>
      </trkpt>
      <trkpt lat="42.642840" lon="-2.562690">
        <ele>858.197</ele>
        <time>2011-05-14T10:12:03Z</time>
      </trkpt>
      <trkpt lat="42.642740" lon="-2.562640">
        <ele>857.228</ele>
        <time>2011-05-14T10:12:11Z</time>
      </trkpt>
      <trkpt lat="42.642680" lon="-2.562540">
        <ele>856.248</ele>
        <time>2011-05-14T10:12:20Z</time>
      </trkpt>
      <trkpt lat="42.642630" lon="-2.562430">
        <ele>854.826</ele>
        <time>2011-05-14T10:12:29Z</time>
      </trkpt>
      <trkpt lat="42.642580" lon="-2.562320">
        <ele>852.844</ele>
        <time>2011-05-14T10:12:39Z</time>
      </trkpt>
      <trkpt lat="42.642560" lon="-2.562210">
        <ele>851.959</ele>
        <time>2011-05-14T10:12:51Z</time>
      </trkpt>
      <trkpt lat="42.642500" lon="-2.562100">
        <ele>849.950</ele>
        <time>2011-05-14T10:13:02Z</time>
      </trkpt>
      <trkpt lat="42.642450" lon="-2.561990">
        <ele>849.439</ele>
        <time>2011-05-14T10:13:12Z</time>
      </trkpt>
      <trkpt lat="42.642410" lon="-2.561890">
        <ele>846.601</ele>
        <time>2011-05-14T10:13:22Z</time>
      </trkpt>
      <trkpt lat="42.642380" lon="-2.561760">
        <ele>843.721</ele>
        <time>2011-05-14T10:13:39Z</time>
      </trkpt>
      <trkpt lat="42.642350" lon="-2.561650">
        <ele>838.907</ele>
        <time>2011-05-14T10:13:57Z</time>
      </trkpt>
      <trkpt lat="42.642320" lon="-2.561530">
        <ele>834.675</ele>
        <time>2011-05-14T10:14:08Z</time>
      </trkpt>
      <trkpt lat="42.642320" lon="-2.561390">
        <ele>832.246</ele>
        <time>2011-05-14T10:14:32Z</time>
      </trkpt>
      <trkpt lat="42.642330" lon="-2.561260">
        <ele>832.786</ele>
        <time>2011-05-14T10:14:43Z</time>
      </trkpt>
      <trkpt lat="42.642320" lon="-2.561130">
        <ele>832.754</ele>
        <time>2011-05-14T10:14:51Z</time>
      </trkpt>
      <trkpt lat="42.642260" lon="-2.560990">
        <ele>832.732</ele>
        <time>2011-05-14T10:15:01Z</time>
      </trkpt>
      <trkpt lat="42.642000" lon="-2.560540">
        <ele>830.267</ele>
        <time>2011-05-14T10:15:52Z</time>
      </trkpt>
      <trkpt lat="42.641970" lon="-2.560400">
        <ele>827.338</ele>
        <time>2011-05-14T10:16:12Z</time>
      </trkpt>
      <trkpt lat="42.641920" lon="-2.560250">
        <ele>821.685</ele>
        <time>2011-05-14T10:16:37Z</time>
      </trkpt>
      <trkpt lat="42.641910" lon="-2.560100">
        <ele>817.389</ele>
        <time>2011-05-14T10:16:53Z</time>
      </trkpt>
      <trkpt lat="42.641900" lon="-2.559830">
        <ele>809.117</ele>
        <time>2011-05-14T10:17:23Z</time>
      </trkpt>
      <trkpt lat="42.641910" lon="-2.559570">
        <ele>804.307</ele>
        <time>2011-05-14T10:17:46Z</time>
      </trkpt>
      <trkpt lat="42.641930" lon="-2.559440">
        <ele>802.430</ele>
        <time>2011-05-14T10:17:57Z</time>
      </trkpt>
      <trkpt lat="42.641930" lon="-2.559310">
        <ele>800.941</ele>
        <time>2011-05-14T10:18:07Z</time>
      </trkpt>
      <trkpt lat="42.641940" lon="-2.559190">
        <ele>799.061</ele>
        <time>2011-05-14T10:18:17Z</time>
      </trkpt>
      <trkpt lat="42.641910" lon="-2.559050">
        <ele>798.049</ele>
        <time>2011-05-14T10:18:26Z</time>
      </trkpt>
      <trkpt lat="42.641840" lon="-2.558970">
        <ele>797.137</ele>
        <time>2011-05-14T10:18:35Z</time>
      </trkpt>
      <trkpt lat="42.641760" lon="-2.558880">
        <ele>797.192</ele>
        <time>2011-05-14T10:20:22Z</time>
      </trkpt>
      <trkpt lat="42.641580" lon="-2.558790">
        <ele>793.253</ele>
        <time>2011-05-14T10:20:42Z</time>
      </trkpt>
      <trkpt lat="42.641480" lon="-2.558760">
        <ele>791.341</ele>
        <time>2011-05-14T10:20:52Z</time>
      </trkpt>
      <trkpt lat="42.641410" lon="-2.558660">
        <ele>790.881</ele>
        <time>2011-05-14T10:21:01Z</time>
      </trkpt>
      <trkpt lat="42.641390" lon="-2.558540">
        <ele>789.409</ele>
        <time>2011-05-14T10:21:10Z</time>
      </trkpt>
      <trkpt lat="42.641370" lon="-2.558410">
        <ele>789.407</ele>
        <time>2011-05-14T10:21:20Z</time>
      </trkpt>
      <trkpt lat="42.641370" lon="-2.558290">
        <ele>789.926</ele>
        <time>2011-05-14T10:21:32Z</time>
      </trkpt>
      <trkpt lat="42.641370" lon="-2.558150">
        <ele>789.957</ele>
        <time>2011-05-14T10:21:42Z</time>
      </trkpt>
      <trkpt lat="42.641380" lon="-2.558040">
        <ele>790.857</ele>
        <time>2011-05-14T10:21:53Z</time>
      </trkpt>
      <trkpt lat="42.641410" lon="-2.557920">
        <ele>791.885</ele>
        <time>2011-05-14T10:22:04Z</time>
      </trkpt>
      <trkpt lat="42.641400" lon="-2.557790">
        <ele>792.393</ele>
        <time>2011-05-14T10:22:13Z</time>
      </trkpt>
      <trkpt lat="42.641400" lon="-2.557660">
        <ele>792.378</ele>
        <time>2011-05-14T10:22:23Z</time>
      </trkpt>
      <trkpt lat="42.641380" lon="-2.557530">
        <ele>792.369</ele>
        <time>2011-05-14T10:22:32Z</time>
      </trkpt>
      <trkpt lat="42.641400" lon="-2.557410">
        <ele>792.382</ele>
        <time>2011-05-14T10:22:41Z</time>
      </trkpt>
      <trkpt lat="42.641440" lon="-2.557290">
        <ele>792.843</ele>
        <time>2011-05-14T10:22:50Z</time>
      </trkpt>
      <trkpt lat="42.641490" lon="-2.557180">
        <ele>793.217</ele>
        <time>2011-05-14T10:22:59Z</time>
      </trkpt>
      <trkpt lat="42.641530" lon="-2.557060">
        <ele>793.207</ele>
        <time>2011-05-14T10:23:08Z</time>
      </trkpt>
      <trkpt lat="42.641560" lon="-2.556940">
        <ele>792.840</ele>
        <time>2011-05-14T10:23:16Z</time>
      </trkpt>
      <trkpt lat="42.641600" lon="-2.556820">
        <ele>792.821</ele>
        <time>2011-05-14T10:23:26Z</time>
      </trkpt>
      <trkpt lat="42.641620" lon="-2.556690">
        <ele>791.311</ele>
        <time>2011-05-14T10:23:35Z</time>
      </trkpt>
      <trkpt lat="42.641640" lon="-2.556570">
        <ele>790.349</ele>
        <time>2011-05-14T10:23:46Z</time>
      </trkpt>
      <trkpt lat="42.641670" lon="-2.556440">
        <ele>789.437</ele>
        <time>2011-05-14T10:23:54Z</time>
      </trkpt>
      <trkpt lat="42.641700" lon="-2.556330">
        <ele>789.482</ele>
        <time>2011-05-14T10:24:02Z</time>
      </trkpt>
      <trkpt lat="42.641740" lon="-2.556210">
        <ele>787.553</ele>
        <time>2011-05-14T10:24:10Z</time>
      </trkpt>
      <trkpt lat="42.641740" lon="-2.556090">
        <ele>786.522</ele>
        <time>2011-05-14T10:24:19Z</time>
      </trkpt>
      <trkpt lat="42.641750" lon="-2.555960">
        <ele>784.662</ele>
        <time>2011-05-14T10:24:28Z</time>
      </trkpt>
      <trkpt lat="42.641770" lon="-2.555840">
        <ele>783.608</ele>
        <time>2011-05-14T10:24:37Z</time>
      </trkpt>
      <trkpt lat="42.641820" lon="-2.555720">
        <ele>782.207</ele>
        <time>2011-05-14T10:24:46Z</time>
      </trkpt>
      <trkpt lat="42.641830" lon="-2.555610">
        <ele>780.774</ele>
        <time>2011-05-14T10:24:55Z</time>
      </trkpt>
      <trkpt lat="42.641840" lon="-2.555490">
        <ele>778.895</ele>
        <time>2011-05-14T10:25:05Z</time>
      </trkpt>
      <trkpt lat="42.641840" lon="-2.555360">
        <ele>776.965</ele>
        <time>2011-05-14T10:25:15Z</time>
      </trkpt>
      <trkpt lat="42.641860" lon="-2.555250">
        <ele>774.043</ele>
        <time>2011-05-14T10:25:25Z</time>
      </trkpt>
      <trkpt lat="42.641870" lon="-2.555130">
        <ele>771.151</ele>
        <time>2011-05-14T10:25:36Z</time>
      </trkpt>
      <trkpt lat="42.641860" lon="-2.555000">
        <ele>769.266</ele>
        <time>2011-05-14T10:25:51Z</time>
      </trkpt>
      <trkpt lat="42.641880" lon="-2.554880">
        <ele>764.967</ele>
        <time>2011-05-14T10:26:09Z</time>
      </trkpt>
      <trkpt lat="42.641930" lon="-2.554780">
        <ele>762.041</ele>
        <time>2011-05-14T10:26:23Z</time>
      </trkpt>
      <trkpt lat="42.642000" lon="-2.554700">
        <ele>757.681</ele>
        <time>2011-05-14T10:26:35Z</time>
      </trkpt>
      <trkpt lat="42.642100" lon="-2.554500">
        <ele>750.909</ele>
        <time>2011-05-14T10:27:06Z</time>
      </trkpt>
      <trkpt lat="42.642020" lon="-2.554160">
        <ele>745.107</ele>
        <time>2011-05-14T10:28:22Z</time>
      </trkpt>
      <trkpt lat="42.641920" lon="-2.554170">
        <ele>743.256</ele>
        <time>2011-05-14T10:29:57Z</time>
      </trkpt>
      <trkpt lat="42.641720" lon="-2.554060">
        <ele>744.257</ele>
        <time>2011-05-14T10:33:17Z</time>
      </trkpt>
      <trkpt lat="42.641610" lon="-2.554020">
        <ele>743.767</ele>
        <time>2011-05-14T10:33:32Z</time>
      </trkpt>
      <trkpt lat="42.641430" lon="-2.553830">
        <ele>744.245</ele>
        <time>2011-05-14T10:33:52Z</time>
      </trkpt>
      <trkpt lat="42.641480" lon="-2.553700">
        <ele>743.263</ele>
        <time>2011-05-14T10:34:12Z</time>
      </trkpt>
      <trkpt lat="42.641490" lon="-2.553300">
        <ele>742.338</ele>
        <time>2011-05-14T10:34:45Z</time>
      </trkpt>
      <trkpt lat="42.641500" lon="-2.553160">
        <ele>741.869</ele>
        <time>2011-05-14T10:34:54Z</time>
      </trkpt>
      <trkpt lat="42.641540" lon="-2.553010">
        <ele>742.342</ele>
        <time>2011-05-14T10:35:05Z</time>
      </trkpt>
      <trkpt lat="42.641580" lon="-2.552850">
        <ele>742.822</ele>
        <time>2011-05-14T10:35:16Z</time>
      </trkpt>
      <trkpt lat="42.641600" lon="-2.552710">
        <ele>742.814</ele>
        <time>2011-05-14T10:35:27Z</time>
      </trkpt>
      <trkpt lat="42.641670" lon="-2.552380">
        <ele>745.107</ele>
        <time>2011-05-14T10:35:50Z</time>
      </trkpt>
      <trkpt lat="42.641730" lon="-2.552240">
        <ele>745.666</ele>
        <time>2011-05-14T10:36:01Z</time>
      </trkpt>
      <trkpt lat="42.641790" lon="-2.552100">
        <ele>746.637</ele>
        <time>2011-05-14T10:36:13Z</time>
      </trkpt>
      <trkpt lat="42.641860" lon="-2.551970">
        <ele>748.017</ele>
        <time>2011-05-14T10:36:21Z</time>
      </trkpt>
      <trkpt lat="42.641910" lon="-2.551840">
        <ele>749.595</ele>
        <time>2011-05-14T10:36:34Z</time>
      </trkpt>
      <trkpt lat="42.641970" lon="-2.551660">
        <ele>750.493</ele>
        <time>2011-05-14T10:36:45Z</time>
      </trkpt>
      <trkpt lat="42.642000" lon="-2.551520">
        <ele>751.428</ele>
        <time>2011-05-14T10:36:56Z</time>
      </trkpt>
      <trkpt lat="42.642020" lon="-2.551360">
        <ele>751.989</ele>
        <time>2011-05-14T10:37:07Z</time>
      </trkpt>
      <trkpt lat="42.642090" lon="-2.551230">
        <ele>752.947</ele>
        <time>2011-05-14T10:37:18Z</time>
      </trkpt>
      <trkpt lat="42.642160" lon="-2.551110">
        <ele>753.829</ele>
        <time>2011-05-14T10:37:29Z</time>
      </trkpt>
      <trkpt lat="42.642220" lon="-2.550990">
        <ele>754.321</ele>
        <time>2011-05-14T10:37:38Z</time>
      </trkpt>
      <trkpt lat="42.642280" lon="-2.550870">
        <ele>755.307</ele>
        <time>2011-05-14T10:37:47Z</time>
      </trkpt>
      <trkpt lat="42.642360" lon="-2.550780">
        <ele>756.746</ele>
        <time>2011-05-14T10:37:57Z</time>
      </trkpt>
      <trkpt lat="42.642430" lon="-2.550670">
        <ele>757.627</ele>
        <time>2011-05-14T10:38:06Z</time>
      </trkpt>
      <trkpt lat="42.642500" lon="-2.550600">
        <ele>758.647</ele>
        <time>2011-05-14T10:38:15Z</time>
      </trkpt>
      <trkpt lat="42.642600" lon="-2.550550">
        <ele>759.635</ele>
        <time>2011-05-14T10:38:27Z</time>
      </trkpt>
      <trkpt lat="42.642810" lon="-2.550500">
        <ele>761.083</ele>
        <time>2011-05-14T10:38:45Z</time>
      </trkpt>
      <trkpt lat="42.642910" lon="-2.550490">
        <ele>762.028</ele>
        <time>2011-05-14T10:38:56Z</time>
      </trkpt>
      <trkpt lat="42.643000" lon="-2.550440">
        <ele>762.599</ele>
        <time>2011-05-14T10:39:05Z</time>
      </trkpt>
      <trkpt lat="42.643110" lon="-2.550370">
        <ele>763.479</ele>
        <time>2011-05-14T10:39:16Z</time>
      </trkpt>
      <trkpt lat="42.643190" lon="-2.550300">
        <ele>763.905</ele>
        <time>2011-05-14T10:39:25Z</time>
      </trkpt>
      <trkpt lat="42.643270" lon="-2.550220">
        <ele>764.925</ele>
        <time>2011-05-14T10:39:36Z</time>
      </trkpt>
      <trkpt lat="42.643340" lon="-2.550130">
        <ele>766.307</ele>
        <time>2011-05-14T10:39:46Z</time>
      </trkpt>
      <trkpt lat="42.643420" lon="-2.550030">
        <ele>767.339</ele>
        <time>2011-05-14T10:39:56Z</time>
      </trkpt>
      <trkpt lat="42.643480" lon="-2.549940">
        <ele>767.880</ele>
        <time>2011-05-14T10:40:05Z</time>
      </trkpt>
      <trkpt lat="42.643660" lon="-2.549640">
        <ele>769.790</ele>
        <time>2011-05-14T10:40:33Z</time>
      </trkpt>
      <trkpt lat="42.643730" lon="-2.549560">
        <ele>770.148</ele>
        <time>2011-05-14T10:40:45Z</time>
      </trkpt>
      <trkpt lat="42.643810" lon="-2.549460">
        <ele>770.696</ele>
        <time>2011-05-14T10:40:56Z</time>
      </trkpt>
      <trkpt lat="42.643900" lon="-2.549360">
        <ele>771.681</ele>
        <time>2011-05-14T10:41:06Z</time>
      </trkpt>
      <trkpt lat="42.643970" lon="-2.549250">
        <ele>772.112</ele>
        <time>2011-05-14T10:41:15Z</time>
      </trkpt>
      <trkpt lat="42.644050" lon="-2.549160">
        <ele>772.552</ele>
        <time>2011-05-14T10:41:24Z</time>
      </trkpt>
      <trkpt lat="42.644150" lon="-2.548780">
        <ele>775.053</ele>
        <time>2011-05-14T10:42:03Z</time>
      </trkpt>
      <trkpt lat="42.644160" lon="-2.548540">
        <ele>775.408</ele>
        <time>2011-05-14T10:42:18Z</time>
      </trkpt>
      <trkpt lat="42.644200" lon="-2.548410">
        <ele>775.907</ele>
        <time>2011-05-14T10:42:31Z</time>
      </trkpt>
      <trkpt lat="42.644560" lon="-2.547500">
        <ele>784.617</ele>
        <time>2011-05-14T10:43:56Z</time>
      </trkpt>
      <trkpt lat="42.644640" lon="-2.547260">
        <ele>786.048</ele>
        <time>2011-05-14T10:44:11Z</time>
      </trkpt>
      <trkpt lat="42.644710" lon="-2.547090">
        <ele>787.988</ele>
        <time>2011-05-14T10:44:20Z</time>
      </trkpt>
      <trkpt lat="42.644770" lon="-2.546940">
        <ele>788.996</ele>
        <time>2011-05-14T10:44:31Z</time>
      </trkpt>
      <trkpt lat="42.644800" lon="-2.546820">
        <ele>789.414</ele>
        <time>2011-05-14T10:44:41Z</time>
      </trkpt>
      <trkpt lat="42.644910" lon="-2.546640">
        <ele>794.219</ele>
        <time>2011-05-14T10:45:14Z</time>
      </trkpt>
      <trkpt lat="42.645210" lon="-2.546170">
        <ele>800.420</ele>
        <time>2011-05-14T10:45:55Z</time>
      </trkpt>
      <trkpt lat="42.645280" lon="-2.546030">
        <ele>802.815</ele>
        <time>2011-05-14T10:46:11Z</time>
      </trkpt>
      <trkpt lat="42.645330" lon="-2.545670">
        <ele>804.365</ele>
        <time>2011-05-14T10:46:37Z</time>
      </trkpt>
      <trkpt lat="42.645350" lon="-2.545520">
        <ele>804.311</ele>
        <time>2011-05-14T10:46:47Z</time>
      </trkpt>
      <trkpt lat="42.645360" lon="-2.545370">
        <ele>803.807</ele>
        <time>2011-05-14T10:46:57Z</time>
      </trkpt>
      <trkpt lat="42.645390" lon="-2.545230">
        <ele>802.843</ele>
        <time>2011-05-14T10:47:06Z</time>
      </trkpt>
      <trkpt lat="42.645400" lon="-2.545130">
        <ele>801.414</ele>
        <time>2011-05-14T10:47:14Z</time>
      </trkpt>
      <trkpt lat="42.645470" lon="-2.545040">
        <ele>800.964</ele>
        <time>2011-05-14T10:47:23Z</time>
      </trkpt>
      <trkpt lat="42.645560" lon="-2.544950">
        <ele>800.422</ele>
        <time>2011-05-14T10:47:32Z</time>
      </trkpt>
      <trkpt lat="42.645640" lon="-2.544870">
        <ele>798.040</ele>
        <time>2011-05-14T10:47:41Z</time>
      </trkpt>
      <trkpt lat="42.645820" lon="-2.544790">
        <ele>797.525</ele>
        <time>2011-05-14T10:48:01Z</time>
      </trkpt>
      <trkpt lat="42.645910" lon="-2.544700">
        <ele>797.126</ele>
        <time>2011-05-14T10:48:10Z</time>
      </trkpt>
      <trkpt lat="42.645970" lon="-2.544570">
        <ele>797.173</ele>
        <time>2011-05-14T10:48:20Z</time>
      </trkpt>
      <trkpt lat="42.646020" lon="-2.544450">
        <ele>797.185</ele>
        <time>2011-05-14T10:48:28Z</time>
      </trkpt>
      <trkpt lat="42.646100" lon="-2.544360">
        <ele>798.013</ele>
        <time>2011-05-14T10:48:38Z</time>
      </trkpt>
      <trkpt lat="42.646150" lon="-2.544230">
        <ele>799.007</ele>
        <time>2011-05-14T10:48:47Z</time>
      </trkpt>
      <trkpt lat="42.646210" lon="-2.543850">
        <ele>801.959</ele>
        <time>2011-05-14T10:49:25Z</time>
      </trkpt>
      <trkpt lat="42.646280" lon="-2.543700">
        <ele>802.890</ele>
        <time>2011-05-14T10:49:34Z</time>
      </trkpt>
      <trkpt lat="42.646350" lon="-2.543560">
        <ele>802.410</ele>
        <time>2011-05-14T10:49:42Z</time>
      </trkpt>
      <trkpt lat="42.646420" lon="-2.543440">
        <ele>801.958</ele>
        <time>2011-05-14T10:49:51Z</time>
      </trkpt>
      <trkpt lat="42.646510" lon="-2.543360">
        <ele>801.956</ele>
        <time>2011-05-14T10:50:01Z</time>
      </trkpt>
      <trkpt lat="42.646700" lon="-2.543240">
        <ele>800.961</ele>
        <time>2011-05-14T10:50:23Z</time>
      </trkpt>
      <trkpt lat="42.646740" lon="-2.543110">
        <ele>800.942</ele>
        <time>2011-05-14T10:50:32Z</time>
      </trkpt>
      <trkpt lat="42.646770" lon="-2.542960">
        <ele>800.429</ele>
        <time>2011-05-14T10:50:41Z</time>
      </trkpt>
      <trkpt lat="42.646810" lon="-2.542800">
        <ele>799.000</ele>
        <time>2011-05-14T10:50:51Z</time>
      </trkpt>
      <trkpt lat="42.646870" lon="-2.542490">
        <ele>797.520</ele>
        <time>2011-05-14T10:51:10Z</time>
      </trkpt>
      <trkpt lat="42.646930" lon="-2.542340">
        <ele>796.607</ele>
        <time>2011-05-14T10:51:21Z</time>
      </trkpt>
      <trkpt lat="42.646980" lon="-2.542190">
        <ele>796.654</ele>
        <time>2011-05-14T10:51:31Z</time>
      </trkpt>
      <trkpt lat="42.647000" lon="-2.542030">
        <ele>796.635</ele>
        <time>2011-05-14T10:51:40Z</time>
      </trkpt>
      <trkpt lat="42.647040" lon="-2.541760">
        <ele>797.115</ele>
        <time>2011-05-14T10:51:59Z</time>
      </trkpt>
      <trkpt lat="42.647060" lon="-2.541610">
        <ele>797.113</ele>
        <time>2011-05-14T10:52:08Z</time>
      </trkpt>
      <trkpt lat="42.647110" lon="-2.541480">
        <ele>797.511</ele>
        <time>2011-05-14T10:52:17Z</time>
      </trkpt>
      <trkpt lat="42.647170" lon="-2.541340">
        <ele>798.546</ele>
        <time>2011-05-14T10:52:28Z</time>
      </trkpt>
      <trkpt lat="42.647210" lon="-2.541200">
        <ele>799.597</ele>
        <time>2011-05-14T10:52:39Z</time>
      </trkpt>
      <trkpt lat="42.647300" lon="-2.540890">
        <ele>798.532</ele>
        <time>2011-05-14T10:52:56Z</time>
      </trkpt>
      <trkpt lat="42.647370" lon="-2.540620">
        <ele>798.592</ele>
        <time>2011-05-14T10:53:15Z</time>
      </trkpt>
      <trkpt lat="42.647450" lon="-2.540470">
        <ele>798.011</ele>
        <time>2011-05-14T10:53:25Z</time>
      </trkpt>
      <trkpt lat="42.647470" lon="-2.540360">
        <ele>798.007</ele>
        <time>2011-05-14T10:53:34Z</time>
      </trkpt>
      <trkpt lat="42.647480" lon="-2.540190">
        <ele>797.525</ele>
        <time>2011-05-14T10:53:48Z</time>
      </trkpt>
      <trkpt lat="42.647470" lon="-2.540040">
        <ele>797.536</ele>
        <time>2011-05-14T10:53:58Z</time>
      </trkpt>
      <trkpt lat="42.647400" lon="-2.539550">
        <ele>797.536</ele>
        <time>2011-05-14T10:54:26Z</time>
      </trkpt>
      <trkpt lat="42.647380" lon="-2.539380">
        <ele>796.654</ele>
        <time>2011-05-14T10:54:36Z</time>
      </trkpt>
      <trkpt lat="42.647330" lon="-2.539250">
        <ele>796.112</ele>
        <time>2011-05-14T10:54:45Z</time>
      </trkpt>
      <trkpt lat="42.647320" lon="-2.539090">
        <ele>795.637</ele>
        <time>2011-05-14T10:54:54Z</time>
      </trkpt>
      <trkpt lat="42.647310" lon="-2.538930">
        <ele>794.718</ele>
        <time>2011-05-14T10:55:03Z</time>
      </trkpt>
      <trkpt lat="42.647250" lon="-2.538800">
        <ele>794.791</ele>
        <time>2011-05-14T10:55:12Z</time>
      </trkpt>
      <trkpt lat="42.647180" lon="-2.538690">
        <ele>794.781</ele>
        <time>2011-05-14T10:55:20Z</time>
      </trkpt>
      <trkpt lat="42.647130" lon="-2.538550">
        <ele>795.219</ele>
        <time>2011-05-14T10:55:29Z</time>
      </trkpt>
      <trkpt lat="42.647090" lon="-2.538430">
        <ele>794.707</ele>
        <time>2011-05-14T10:55:38Z</time>
      </trkpt>
      <trkpt lat="42.647060" lon="-2.538290">
        <ele>794.731</ele>
        <time>2011-05-14T10:55:46Z</time>
      </trkpt>
      <trkpt lat="42.647060" lon="-2.538140">
        <ele>794.772</ele>
        <time>2011-05-14T10:55:54Z</time>
      </trkpt>
      <trkpt lat="42.647110" lon="-2.538020">
        <ele>794.762</ele>
        <time>2011-05-14T10:56:01Z</time>
      </trkpt>
      <trkpt lat="42.647180" lon="-2.537900">
        <ele>794.780</ele>
        <time>2011-05-14T10:56:10Z</time>
      </trkpt>
      <trkpt lat="42.647230" lon="-2.537760">
        <ele>794.718</ele>
        <time>2011-05-14T10:56:21Z</time>
      </trkpt>
      <trkpt lat="42.647270" lon="-2.537610">
        <ele>795.243</ele>
        <time>2011-05-14T10:56:30Z</time>
      </trkpt>
      <trkpt lat="42.647300" lon="-2.537480">
        <ele>795.244</ele>
        <time>2011-05-14T10:56:39Z</time>
      </trkpt>
      <trkpt lat="42.647360" lon="-2.537350">
        <ele>796.111</ele>
        <time>2011-05-14T10:56:47Z</time>
      </trkpt>
      <trkpt lat="42.647390" lon="-2.537220">
        <ele>796.121</ele>
        <time>2011-05-14T10:56:55Z</time>
      </trkpt>
      <trkpt lat="42.647400" lon="-2.537100">
        <ele>796.603</ele>
        <time>2011-05-14T10:57:03Z</time>
      </trkpt>
      <trkpt lat="42.647400" lon="-2.536930">
        <ele>797.107</ele>
        <time>2011-05-14T10:57:09Z</time>
      </trkpt>
      <trkpt lat="42.647440" lon="-2.536800">
        <ele>797.113</ele>
        <time>2011-05-14T10:57:37Z</time>
      </trkpt>
      <trkpt lat="42.647470" lon="-2.536680">
        <ele>798.024</ele>
        <time>2011-05-14T10:57:51Z</time>
      </trkpt>
      <trkpt lat="42.647510" lon="-2.536550">
        <ele>798.524</ele>
        <time>2011-05-14T10:58:01Z</time>
      </trkpt>
      <trkpt lat="42.647520" lon="-2.536410">
        <ele>799.072</ele>
        <time>2011-05-14T10:58:12Z</time>
      </trkpt>
      <trkpt lat="42.647560" lon="-2.536280">
        <ele>797.550</ele>
        <time>2011-05-14T10:58:22Z</time>
      </trkpt>
      <trkpt lat="42.647600" lon="-2.536150">
        <ele>796.695</ele>
        <time>2011-05-14T10:58:32Z</time>
      </trkpt>
      <trkpt lat="42.647610" lon="-2.536010">
        <ele>794.276</ele>
        <time>2011-05-14T10:58:45Z</time>
      </trkpt>
      <trkpt lat="42.647620" lon="-2.535880">
        <ele>792.882</ele>
        <time>2011-05-14T10:58:59Z</time>
      </trkpt>
      <trkpt lat="42.647600" lon="-2.535750">
        <ele>790.843</ele>
        <time>2011-05-14T10:59:10Z</time>
      </trkpt>
      <trkpt lat="42.647590" lon="-2.535610">
        <ele>789.917</ele>
        <time>2011-05-14T10:59:19Z</time>
      </trkpt>
      <trkpt lat="42.647570" lon="-2.535450">
        <ele>789.407</ele>
        <time>2011-05-14T10:59:29Z</time>
      </trkpt>
      <trkpt lat="42.647590" lon="-2.535150">
        <ele>786.520</ele>
        <time>2011-05-14T10:59:47Z</time>
      </trkpt>
      <trkpt lat="42.647610" lon="-2.535020">
        <ele>785.021</ele>
        <time>2011-05-14T10:59:56Z</time>
      </trkpt>
      <trkpt lat="42.647660" lon="-2.534880">
        <ele>783.671</ele>
        <time>2011-05-14T11:00:04Z</time>
      </trkpt>
      <trkpt lat="42.647710" lon="-2.534770">
        <ele>782.739</ele>
        <time>2011-05-14T11:00:12Z</time>
      </trkpt>
      <trkpt lat="42.647770" lon="-2.534630">
        <ele>781.247</ele>
        <time>2011-05-14T11:00:21Z</time>
      </trkpt>
      <trkpt lat="42.647830" lon="-2.534500">
        <ele>779.362</ele>
        <time>2011-05-14T11:00:29Z</time>
      </trkpt>
      <trkpt lat="42.647900" lon="-2.534410">
        <ele>776.923</ele>
        <time>2011-05-14T11:00:39Z</time>
      </trkpt>
      <trkpt lat="42.647960" lon="-2.534280">
        <ele>774.513</ele>
        <time>2011-05-14T11:00:48Z</time>
      </trkpt>
      <trkpt lat="42.648020" lon="-2.534160">
        <ele>773.043</ele>
        <time>2011-05-14T11:00:56Z</time>
      </trkpt>
      <trkpt lat="42.648060" lon="-2.534070">
        <ele>772.107</ele>
        <time>2011-05-14T11:01:03Z</time>
      </trkpt>
      <trkpt lat="42.648110" lon="-2.533940">
        <ele>770.607</ele>
        <time>2011-05-14T11:01:13Z</time>
      </trkpt>
      <trkpt lat="42.648150" lon="-2.533820">
        <ele>770.193</ele>
        <time>2011-05-14T11:01:21Z</time>
      </trkpt>
      <trkpt lat="42.648200" lon="-2.533700">
        <ele>768.264</ele>
        <time>2011-05-14T11:01:29Z</time>
      </trkpt>
      <trkpt lat="42.648250" lon="-2.533590">
        <ele>767.824</ele>
        <time>2011-05-14T11:01:39Z</time>
      </trkpt>
      <trkpt lat="42.648340" lon="-2.533480">
        <ele>767.382</ele>
        <time>2011-05-14T11:01:49Z</time>
      </trkpt>
      <trkpt lat="42.648410" lon="-2.533380">
        <ele>765.850</ele>
        <time>2011-05-14T11:01:58Z</time>
      </trkpt>
      <trkpt lat="42.648470" lon="-2.533280">
        <ele>763.945</ele>
        <time>2011-05-14T11:02:07Z</time>
      </trkpt>
      <trkpt lat="42.648570" lon="-2.533210">
        <ele>762.536</ele>
        <time>2011-05-14T11:02:16Z</time>
      </trkpt>
      <trkpt lat="42.648670" lon="-2.533150">
        <ele>762.062</ele>
        <time>2011-05-14T11:03:08Z</time>
      </trkpt>
      <trkpt lat="42.648690" lon="-2.533220">
        <ele>759.683</ele>
        <time>2011-05-14T11:06:24Z</time>
      </trkpt>
      <trkpt lat="42.648770" lon="-2.533160">
        <ele>758.111</ele>
        <time>2011-05-14T11:06:34Z</time>
      </trkpt>
      <trkpt lat="42.648830" lon="-2.533040">
        <ele>756.707</ele>
        <time>2011-05-14T11:06:43Z</time>
      </trkpt>
      <trkpt lat="42.648880" lon="-2.532920">
        <ele>755.768</ele>
        <time>2011-05-14T11:06:51Z</time>
      </trkpt>
      <trkpt lat="42.648860" lon="-2.532790">
        <ele>755.789</ele>
        <time>2011-05-14T11:07:00Z</time>
      </trkpt>
      <trkpt lat="42.648840" lon="-2.532670">
        <ele>755.359</ele>
        <time>2011-05-14T11:07:09Z</time>
      </trkpt>
      <trkpt lat="42.648850" lon="-2.532540">
        <ele>754.847</ele>
        <time>2011-05-14T11:07:18Z</time>
      </trkpt>
      <trkpt lat="42.648830" lon="-2.532420">
        <ele>754.895</ele>
        <time>2011-05-14T11:07:27Z</time>
      </trkpt>
      <trkpt lat="42.648830" lon="-2.532290">
        <ele>753.840</ele>
        <time>2011-05-14T11:07:35Z</time>
      </trkpt>
      <trkpt lat="42.648820" lon="-2.532170">
        <ele>751.961</ele>
        <time>2011-05-14T11:07:44Z</time>
      </trkpt>
      <trkpt lat="42.648800" lon="-2.532040">
        <ele>749.083</ele>
        <time>2011-05-14T11:07:54Z</time>
      </trkpt>
      <trkpt lat="42.648850" lon="-2.531970">
        <ele>748.525</ele>
        <time>2011-05-14T11:08:11Z</time>
      </trkpt>
      <trkpt lat="42.648930" lon="-2.531940">
        <ele>748.017</ele>
        <time>2011-05-14T11:08:28Z</time>
      </trkpt>
      <trkpt lat="42.649000" lon="-2.531960">
        <ele>748.507</ele>
        <time>2011-05-14T11:09:05Z</time>
      </trkpt>
      <trkpt lat="42.648800" lon="-2.531990">
        <ele>745.120</ele>
        <time>2011-05-14T11:17:01Z</time>
      </trkpt>
      <trkpt lat="42.648500" lon="-2.531900">
        <ele>738.421</ele>
        <time>2011-05-14T11:17:48Z</time>
      </trkpt>
      <trkpt lat="42.648400" lon="-2.531880">
        <ele>737.591</ele>
        <time>2011-05-14T11:17:56Z</time>
      </trkpt>
      <trkpt lat="42.648290" lon="-2.531860">
        <ele>737.049</ele>
        <time>2011-05-14T11:18:04Z</time>
      </trkpt>
      <trkpt lat="42.648180" lon="-2.531830">
        <ele>736.537</ele>
        <time>2011-05-14T11:18:12Z</time>
      </trkpt>
      <trkpt lat="42.648080" lon="-2.531830">
        <ele>737.052</ele>
        <time>2011-05-14T11:18:39Z</time>
      </trkpt>
      <trkpt lat="42.648110" lon="-2.531850">
        <ele>736.543</ele>
        <time>2011-05-14T11:19:01Z</time>
      </trkpt>
      <trkpt lat="42.648200" lon="-2.531870">
        <ele>736.516</ele>
        <time>2011-05-14T11:19:12Z</time>
      </trkpt>
      <trkpt lat="42.648290" lon="-2.531900">
        <ele>737.076</ele>
        <time>2011-05-14T11:19:23Z</time>
      </trkpt>
      <trkpt lat="42.648380" lon="-2.531930">
        <ele>737.013</ele>
        <time>2011-05-14T11:19:35Z</time>
      </trkpt>
      <trkpt lat="42.648460" lon="-2.531980">
        <ele>737.007</ele>
        <time>2011-05-14T11:19:50Z</time>
      </trkpt>
      <trkpt lat="42.648550" lon="-2.531980">
        <ele>738.023</ele>
        <time>2011-05-14T11:20:08Z</time>
      </trkpt>
      <trkpt lat="42.648710" lon="-2.531880">
        <ele>736.084</ele>
        <time>2011-05-14T11:20:33Z</time>
      </trkpt>
      <trkpt lat="42.648780" lon="-2.531800">
        <ele>735.154</ele>
        <time>2011-05-14T11:20:43Z</time>
      </trkpt>
      <trkpt lat="42.648840" lon="-2.531710">
        <ele>734.632</ele>
        <time>2011-05-14T11:20:59Z</time>
      </trkpt>
      <trkpt lat="42.648880" lon="-2.531610">
        <ele>733.640</ele>
        <time>2011-05-14T11:21:12Z</time>
      </trkpt>
      <trkpt lat="42.648940" lon="-2.531500">
        <ele>733.145</ele>
        <time>2011-05-14T11:21:21Z</time>
      </trkpt>
      <trkpt lat="42.648980" lon="-2.531390">
        <ele>732.276</ele>
        <time>2011-05-14T11:21:29Z</time>
      </trkpt>
      <trkpt lat="42.649020" lon="-2.531270">
        <ele>732.653</ele>
        <time>2011-05-14T11:21:37Z</time>
      </trkpt>
      <trkpt lat="42.649050" lon="-2.531160">
        <ele>732.204</ele>
        <time>2011-05-14T11:21:45Z</time>
      </trkpt>
      <trkpt lat="42.649120" lon="-2.531120">
        <ele>731.714</ele>
        <time>2011-05-14T11:21:57Z</time>
      </trkpt>
      <trkpt lat="42.649070" lon="-2.531230">
        <ele>733.607</ele>
        <time>2011-05-14T11:22:12Z</time>
      </trkpt>
      <trkpt lat="42.649080" lon="-2.531310">
        <ele>733.147</ele>
        <time>2011-05-14T11:23:21Z</time>
      </trkpt>
      <trkpt lat="42.649080" lon="-2.531310">
        <ele>734.628</ele>
        <time>2011-05-14T11:46:08Z</time>
      </trkpt>
      <trkpt lat="42.649260" lon="-2.531230">
        <ele>729.888</ele>
        <time>2011-05-14T11:46:25Z</time>
      </trkpt>
      <trkpt lat="42.649140" lon="-2.531080">
        <ele>723.016</ele>
        <time>2011-05-14T11:46:42Z</time>
      </trkpt>
      <trkpt lat="42.649130" lon="-2.531000">
        <ele>720.214</ele>
        <time>2011-05-14T11:47:06Z</time>
      </trkpt>
      <trkpt lat="42.648970" lon="-2.530850">
        <ele>718.259</ele>
        <time>2011-05-14T11:47:26Z</time>
      </trkpt>
      <trkpt lat="42.648880" lon="-2.530910">
        <ele>717.810</ele>
        <time>2011-05-14T11:47:36Z</time>
      </trkpt>
      <trkpt lat="42.648790" lon="-2.530920">
        <ele>717.833</ele>
        <time>2011-05-14T11:48:24Z</time>
      </trkpt>
      <trkpt lat="42.648890" lon="-2.530850">
        <ele>717.823</ele>
        <time>2011-05-14T11:48:34Z</time>
      </trkpt>
      <trkpt lat="42.648990" lon="-2.530930">
        <ele>717.815</ele>
        <time>2011-05-14T11:48:44Z</time>
      </trkpt>
      <trkpt lat="42.649090" lon="-2.530980">
        <ele>720.607</ele>
        <time>2011-05-14T11:48:54Z</time>
      </trkpt>
      <trkpt lat="42.649190" lon="-2.531040">
        <ele>720.245</ele>
        <time>2011-05-14T11:49:15Z</time>
      </trkpt>
      <trkpt lat="42.649210" lon="-2.531090">
        <ele>721.636</ele>
        <time>2011-05-14T11:50:40Z</time>
      </trkpt>
      <trkpt lat="42.649300" lon="-2.531140">
        <ele>721.696</ele>
        <time>2011-05-14T11:50:56Z</time>
      </trkpt>
      <trkpt lat="42.649350" lon="-2.531230">
        <ele>722.164</ele>
        <time>2011-05-14T11:51:22Z</time>
      </trkpt>
      <trkpt lat="42.649410" lon="-2.531340">
        <ele>722.622</ele>
        <time>2011-05-14T11:51:31Z</time>
      </trkpt>
      <trkpt lat="42.649630" lon="-2.531540">
        <ele>722.677</ele>
        <time>2011-05-14T11:51:49Z</time>
      </trkpt>
      <trkpt lat="42.649710" lon="-2.531550">
        <ele>723.088</ele>
        <time>2011-05-14T11:51:58Z</time>
      </trkpt>
      <trkpt lat="42.649790" lon="-2.531560">
        <ele>723.551</ele>
        <time>2011-05-14T11:52:06Z</time>
      </trkpt>
      <trkpt lat="42.649870" lon="-2.531520">
        <ele>724.001</ele>
        <time>2011-05-14T11:52:18Z</time>
      </trkpt>
      <trkpt lat="42.649950" lon="-2.531550">
        <ele>725.511</ele>
        <time>2011-05-14T11:52:28Z</time>
      </trkpt>
      <trkpt lat="42.650040" lon="-2.531570">
        <ele>725.907</ele>
        <time>2011-05-14T11:52:37Z</time>
      </trkpt>
      <trkpt lat="42.650130" lon="-2.531580">
        <ele>726.417</ele>
        <time>2011-05-14T11:52:48Z</time>
      </trkpt>
      <trkpt lat="42.650210" lon="-2.531590">
        <ele>727.478</ele>
        <time>2011-05-14T11:52:58Z</time>
      </trkpt>
      <trkpt lat="42.650310" lon="-2.531600">
        <ele>727.958</ele>
        <time>2011-05-14T11:53:17Z</time>
      </trkpt>
      <trkpt lat="42.650400" lon="-2.531630">
        <ele>728.436</ele>
        <time>2011-05-14T11:53:26Z</time>
      </trkpt>
      <trkpt lat="42.650500" lon="-2.531650">
        <ele>728.474</ele>
        <time>2011-05-14T11:53:35Z</time>
      </trkpt>
      <trkpt lat="42.650580" lon="-2.531670">
        <ele>728.889</ele>
        <time>2011-05-14T11:54:06Z</time>
      </trkpt>
      <trkpt lat="42.650680" lon="-2.531690">
        <ele>729.380</ele>
        <time>2011-05-14T11:54:15Z</time>
      </trkpt>
      <trkpt lat="42.650770" lon="-2.531710">
        <ele>730.398</ele>
        <time>2011-05-14T11:54:24Z</time>
      </trkpt>
      <trkpt lat="42.650870" lon="-2.531730">
        <ele>730.315</ele>
        <time>2011-05-14T11:54:32Z</time>
      </trkpt>
      <trkpt lat="42.650960" lon="-2.531760">
        <ele>730.726</ele>
        <time>2011-05-14T11:54:40Z</time>
      </trkpt>
      <trkpt lat="42.651050" lon="-2.531790">
        <ele>731.707</ele>
        <time>2011-05-14T11:54:48Z</time>
      </trkpt>
      <trkpt lat="42.651150" lon="-2.531830">
        <ele>731.761</ele>
        <time>2011-05-14T11:54:57Z</time>
      </trkpt>
      <trkpt lat="42.651230" lon="-2.531860">
        <ele>730.752</ele>
        <time>2011-05-14T11:55:04Z</time>
      </trkpt>
      <trkpt lat="42.651330" lon="-2.531920">
        <ele>730.792</ele>
        <time>2011-05-14T11:55:11Z</time>
      </trkpt>
      <trkpt lat="42.651400" lon="-2.531970">
        <ele>730.310</ele>
        <time>2011-05-14T11:55:18Z</time>
      </trkpt>
      <trkpt lat="42.651490" lon="-2.532010">
        <ele>729.838</ele>
        <time>2011-05-14T11:55:26Z</time>
      </trkpt>
      <trkpt lat="42.651570" lon="-2.532060">
        <ele>728.883</ele>
        <time>2011-05-14T11:55:33Z</time>
      </trkpt>
      <trkpt lat="42.651660" lon="-2.532110">
        <ele>728.844</ele>
        <time>2011-05-14T11:55:41Z</time>
      </trkpt>
      <trkpt lat="42.651740" lon="-2.532160">
        <ele>728.819</ele>
        <time>2011-05-14T11:55:48Z</time>
      </trkpt>
      <trkpt lat="42.651840" lon="-2.532220">
        <ele>728.409</ele>
        <time>2011-05-14T11:55:57Z</time>
      </trkpt>
      <trkpt lat="42.651930" lon="-2.532280">
        <ele>727.919</ele>
        <time>2011-05-14T11:56:05Z</time>
      </trkpt>
      <trkpt lat="42.652020" lon="-2.532340">
        <ele>728.407</ele>
        <time>2011-05-14T11:56:14Z</time>
      </trkpt>
      <trkpt lat="42.652110" lon="-2.532400">
        <ele>727.973</ele>
        <time>2011-05-14T11:56:22Z</time>
      </trkpt>
      <trkpt lat="42.652200" lon="-2.532470">
        <ele>727.994</ele>
        <time>2011-05-14T11:56:30Z</time>
      </trkpt>
      <trkpt lat="42.652280" lon="-2.532530">
        <ele>727.914</ele>
        <time>2011-05-14T11:56:37Z</time>
      </trkpt>
      <trkpt lat="42.652350" lon="-2.532590">
        <ele>728.452</ele>
        <time>2011-05-14T11:56:44Z</time>
      </trkpt>
      <trkpt lat="42.652430" lon="-2.532660">
        <ele>727.970</ele>
        <time>2011-05-14T11:56:51Z</time>
      </trkpt>
      <trkpt lat="42.652510" lon="-2.532730">
        <ele>728.465</ele>
        <time>2011-05-14T11:56:58Z</time>
      </trkpt>
      <trkpt lat="42.652590" lon="-2.532810">
        <ele>727.456</ele>
        <time>2011-05-14T11:57:06Z</time>
      </trkpt>
      <trkpt lat="42.652670" lon="-2.532880">
        <ele>727.964</ele>
        <time>2011-05-14T11:57:13Z</time>
      </trkpt>
      <trkpt lat="42.652740" lon="-2.532960">
        <ele>727.906</ele>
        <time>2011-05-14T11:57:20Z</time>
      </trkpt>
      <trkpt lat="42.652820" lon="-2.533040">
        <ele>727.916</ele>
        <time>2011-05-14T11:57:27Z</time>
      </trkpt>
      <trkpt lat="42.652890" lon="-2.533110">
        <ele>727.907</ele>
        <time>2011-05-14T11:57:34Z</time>
      </trkpt>
      <trkpt lat="42.652980" lon="-2.533190">
        <ele>727.988</ele>
        <time>2011-05-14T11:57:42Z</time>
      </trkpt>
      <trkpt lat="42.653060" lon="-2.533280">
        <ele>727.449</ele>
        <time>2011-05-14T11:57:50Z</time>
      </trkpt>
      <trkpt lat="42.653130" lon="-2.533360">
        <ele>727.459</ele>
        <time>2011-05-14T11:57:57Z</time>
      </trkpt>
      <trkpt lat="42.653210" lon="-2.533440">
        <ele>728.437</ele>
        <time>2011-05-14T11:58:04Z</time>
      </trkpt>
      <trkpt lat="42.653280" lon="-2.533520">
        <ele>727.965</ele>
        <time>2011-05-14T11:58:11Z</time>
      </trkpt>
      <trkpt lat="42.653350" lon="-2.533600">
        <ele>728.440</ele>
        <time>2011-05-14T11:58:18Z</time>
      </trkpt>
      <trkpt lat="42.653430" lon="-2.533680">
        <ele>728.441</ele>
        <time>2011-05-14T11:58:25Z</time>
      </trkpt>
      <trkpt lat="42.653500" lon="-2.533750">
        <ele>728.446</ele>
        <time>2011-05-14T11:58:32Z</time>
      </trkpt>
      <trkpt lat="42.653580" lon="-2.533840">
        <ele>729.388</ele>
        <time>2011-05-14T11:58:40Z</time>
      </trkpt>
      <trkpt lat="42.653650" lon="-2.533910">
        <ele>728.816</ele>
        <time>2011-05-14T11:58:47Z</time>
      </trkpt>
      <trkpt lat="42.653730" lon="-2.533990">
        <ele>728.807</ele>
        <time>2011-05-14T11:58:54Z</time>
      </trkpt>
      <trkpt lat="42.653810" lon="-2.534060">
        <ele>728.836</ele>
        <time>2011-05-14T11:59:01Z</time>
      </trkpt>
      <trkpt lat="42.653890" lon="-2.534130">
        <ele>729.357</ele>
        <time>2011-05-14T11:59:08Z</time>
      </trkpt>
      <trkpt lat="42.653970" lon="-2.534190">
        <ele>728.857</ele>
        <time>2011-05-14T11:59:15Z</time>
      </trkpt>
      <trkpt lat="42.654050" lon="-2.534240">
        <ele>728.855</ele>
        <time>2011-05-14T11:59:22Z</time>
      </trkpt>
      <trkpt lat="42.654140" lon="-2.534300">
        <ele>729.353</ele>
        <time>2011-05-14T11:59:29Z</time>
      </trkpt>
      <trkpt lat="42.654220" lon="-2.534350">
        <ele>729.828</ele>
        <time>2011-05-14T11:59:36Z</time>
      </trkpt>
      <trkpt lat="42.654310" lon="-2.534390">
        <ele>729.319</ele>
        <time>2011-05-14T11:59:43Z</time>
      </trkpt>
      <trkpt lat="42.654390" lon="-2.534440">
        <ele>729.818</ele>
        <time>2011-05-14T11:59:50Z</time>
      </trkpt>
      <trkpt lat="42.654480" lon="-2.534490">
        <ele>729.398</ele>
        <time>2011-05-14T11:59:57Z</time>
      </trkpt>
      <trkpt lat="42.654560" lon="-2.534550">
        <ele>729.317</ele>
        <time>2011-05-14T12:00:04Z</time>
      </trkpt>
      <trkpt lat="42.654640" lon="-2.534600">
        <ele>729.807</ele>
        <time>2011-05-14T12:00:11Z</time>
      </trkpt>
      <trkpt lat="42.654720" lon="-2.534660">
        <ele>730.313</ele>
        <time>2011-05-14T12:00:18Z</time>
      </trkpt>
      <trkpt lat="42.654810" lon="-2.534730">
        <ele>730.374</ele>
        <time>2011-05-14T12:00:26Z</time>
      </trkpt>
      <trkpt lat="42.654890" lon="-2.534800">
        <ele>730.784</ele>
        <time>2011-05-14T12:00:34Z</time>
      </trkpt>
      <trkpt lat="42.654980" lon="-2.534880">
        <ele>730.742</ele>
        <time>2011-05-14T12:00:42Z</time>
      </trkpt>
      <trkpt lat="42.655070" lon="-2.534940">
        <ele>730.360</ele>
        <time>2011-05-14T12:00:50Z</time>
      </trkpt>
      <trkpt lat="42.655150" lon="-2.535000">
        <ele>730.735</ele>
        <time>2011-05-14T12:00:57Z</time>
      </trkpt>
      <trkpt lat="42.655230" lon="-2.535060">
        <ele>730.796</ele>
        <time>2011-05-14T12:01:04Z</time>
      </trkpt>
      <trkpt lat="42.655310" lon="-2.535130">
        <ele>731.223</ele>
        <time>2011-05-14T12:01:11Z</time>
      </trkpt>
      <trkpt lat="42.655390" lon="-2.535210">
        <ele>732.283</ele>
        <time>2011-05-14T12:01:19Z</time>
      </trkpt>
      <trkpt lat="42.655460" lon="-2.535290">
        <ele>732.611</ele>
        <time>2011-05-14T12:01:28Z</time>
      </trkpt>
      <trkpt lat="42.655530" lon="-2.535370">
        <ele>733.107</ele>
        <time>2011-05-14T12:01:37Z</time>
      </trkpt>
      <trkpt lat="42.655600" lon="-2.535480">
        <ele>733.624</ele>
        <time>2011-05-14T12:01:45Z</time>
      </trkpt>
      <trkpt lat="42.655670" lon="-2.535580">
        <ele>734.115</ele>
        <time>2011-05-14T12:01:53Z</time>
      </trkpt>
      <trkpt lat="42.655750" lon="-2.535690">
        <ele>734.155</ele>
        <time>2011-05-14T12:02:01Z</time>
      </trkpt>
      <trkpt lat="42.655820" lon="-2.535780">
        <ele>735.563</ele>
        <time>2011-05-14T12:02:08Z</time>
      </trkpt>
      <trkpt lat="42.655880" lon="-2.535870">
        <ele>735.571</ele>
        <time>2011-05-14T12:02:15Z</time>
      </trkpt>
      <trkpt lat="42.655960" lon="-2.535960">
        <ele>735.516</ele>
        <time>2011-05-14T12:02:22Z</time>
      </trkpt>
      <trkpt lat="42.656030" lon="-2.536040">
        <ele>735.177</ele>
        <time>2011-05-14T12:02:29Z</time>
      </trkpt>
      <trkpt lat="42.656120" lon="-2.536110">
        <ele>735.545</ele>
        <time>2011-05-14T12:02:37Z</time>
      </trkpt>
      <trkpt lat="42.656200" lon="-2.536130">
        <ele>735.547</ele>
        <time>2011-05-14T12:02:44Z</time>
      </trkpt>
      <trkpt lat="42.656290" lon="-2.536110">
        <ele>735.111</ele>
        <time>2011-05-14T12:02:51Z</time>
      </trkpt>
      <trkpt lat="42.656380" lon="-2.536060">
        <ele>735.107</ele>
        <time>2011-05-14T12:02:58Z</time>
      </trkpt>
      <trkpt lat="42.656450" lon="-2.535980">
        <ele>735.586</ele>
        <time>2011-05-14T12:03:05Z</time>
      </trkpt>
      <trkpt lat="42.656510" lon="-2.535870">
        <ele>735.157</ele>
        <time>2011-05-14T12:03:12Z</time>
      </trkpt>
      <trkpt lat="42.656550" lon="-2.535760">
        <ele>735.517</ele>
        <time>2011-05-14T12:03:19Z</time>
      </trkpt>
      <trkpt lat="42.656600" lon="-2.535640">
        <ele>735.165</ele>
        <time>2011-05-14T12:03:26Z</time>
      </trkpt>
      <trkpt lat="42.656650" lon="-2.535530">
        <ele>735.513</ele>
        <time>2011-05-14T12:03:33Z</time>
      </trkpt>
      <trkpt lat="42.656710" lon="-2.535420">
        <ele>735.578</ele>
        <time>2011-05-14T12:03:41Z</time>
      </trkpt>
      <trkpt lat="42.656770" lon="-2.535310">
        <ele>735.569</ele>
        <time>2011-05-14T12:03:49Z</time>
      </trkpt>
      <trkpt lat="42.656820" lon="-2.535220">
        <ele>736.011</ele>
        <time>2011-05-14T12:03:56Z</time>
      </trkpt>
      <trkpt lat="42.656880" lon="-2.535110">
        <ele>736.521</ele>
        <time>2011-05-14T12:04:04Z</time>
      </trkpt>
      <trkpt lat="42.656940" lon="-2.535000">
        <ele>737.503</ele>
        <time>2011-05-14T12:04:12Z</time>
      </trkpt>
      <trkpt lat="42.656990" lon="-2.534910">
        <ele>738.407</ele>
        <time>2011-05-14T12:04:20Z</time>
      </trkpt>
      <trkpt lat="42.656900" lon="-2.534870">
        <ele>738.413</ele>
        <time>2011-05-14T12:04:36Z</time>
      </trkpt>
      <trkpt lat="42.656810" lon="-2.534790">
        <ele>736.064</ele>
        <time>2011-05-14T12:05:26Z</time>
      </trkpt>
      <trkpt lat="42.656880" lon="-2.534880">
        <ele>737.044</ele>
        <time>2011-05-14T12:05:55Z</time>
      </trkpt>
      <trkpt lat="42.656960" lon="-2.534940">
        <ele>738.462</ele>
        <time>2011-05-14T12:06:07Z</time>
      </trkpt>
      <trkpt lat="42.657030" lon="-2.534840">
        <ele>739.490</ele>
        <time>2011-05-14T12:06:18Z</time>
      </trkpt>
      <trkpt lat="42.657100" lon="-2.534730">
        <ele>739.455</ele>
        <time>2011-05-14T12:06:27Z</time>
      </trkpt>
      <trkpt lat="42.657160" lon="-2.534640">
        <ele>739.936</ele>
        <time>2011-05-14T12:06:35Z</time>
      </trkpt>
      <trkpt lat="42.657230" lon="-2.534540">
        <ele>740.847</ele>
        <time>2011-05-14T12:06:43Z</time>
      </trkpt>
      <trkpt lat="42.657290" lon="-2.534450">
        <ele>740.829</ele>
        <time>2011-05-14T12:06:51Z</time>
      </trkpt>
      <trkpt lat="42.657360" lon="-2.534370">
        <ele>740.821</ele>
        <time>2011-05-14T12:06:59Z</time>
      </trkpt>
      <trkpt lat="42.657440" lon="-2.534300">
        <ele>741.807</ele>
        <time>2011-05-14T12:07:07Z</time>
      </trkpt>
      <trkpt lat="42.657530" lon="-2.534260">
        <ele>743.216</ele>
        <time>2011-05-14T12:07:16Z</time>
      </trkpt>
      <trkpt lat="42.657620" lon="-2.534220">
        <ele>744.267</ele>
        <time>2011-05-14T12:07:24Z</time>
      </trkpt>
      <trkpt lat="42.657710" lon="-2.534190">
        <ele>745.137</ele>
        <time>2011-05-14T12:07:32Z</time>
      </trkpt>
      <trkpt lat="42.657800" lon="-2.534170">
        <ele>746.185</ele>
        <time>2011-05-14T12:07:40Z</time>
      </trkpt>
      <trkpt lat="42.657890" lon="-2.534150">
        <ele>746.163</ele>
        <time>2011-05-14T12:07:48Z</time>
      </trkpt>
      <trkpt lat="42.657990" lon="-2.534140">
        <ele>746.648</ele>
        <time>2011-05-14T12:07:56Z</time>
      </trkpt>
      <trkpt lat="42.658080" lon="-2.534130">
        <ele>747.129</ele>
        <time>2011-05-14T12:08:04Z</time>
      </trkpt>
      <trkpt lat="42.658180" lon="-2.534130">
        <ele>746.685</ele>
        <time>2011-05-14T12:08:12Z</time>
      </trkpt>
      <trkpt lat="42.658280" lon="-2.534130">
        <ele>746.189</ele>
        <time>2011-05-14T12:08:20Z</time>
      </trkpt>
      <trkpt lat="42.658390" lon="-2.534150">
        <ele>745.617</ele>
        <time>2011-05-14T12:08:28Z</time>
      </trkpt>
      <trkpt lat="42.658480" lon="-2.534160">
        <ele>745.607</ele>
        <time>2011-05-14T12:08:36Z</time>
      </trkpt>
      <trkpt lat="42.658590" lon="-2.534170">
        <ele>745.110</ele>
        <time>2011-05-14T12:08:44Z</time>
      </trkpt>
      <trkpt lat="42.658690" lon="-2.534190">
        <ele>745.141</ele>
        <time>2011-05-14T12:08:52Z</time>
      </trkpt>
      <trkpt lat="42.658790" lon="-2.534210">
        <ele>744.781</ele>
        <time>2011-05-14T12:09:00Z</time>
      </trkpt>
      <trkpt lat="42.658890" lon="-2.534240">
        <ele>744.729</ele>
        <time>2011-05-14T12:09:08Z</time>
      </trkpt>
      <trkpt lat="42.658980" lon="-2.534280">
        <ele>744.297</ele>
        <time>2011-05-14T12:09:16Z</time>
      </trkpt>
      <trkpt lat="42.659070" lon="-2.534320">
        <ele>744.272</ele>
        <time>2011-05-14T12:09:23Z</time>
      </trkpt>
      <trkpt lat="42.659160" lon="-2.534360">
        <ele>744.243</ele>
        <time>2011-05-14T12:09:30Z</time>
      </trkpt>
      <trkpt lat="42.659250" lon="-2.534400">
        <ele>743.792</ele>
        <time>2011-05-14T12:09:37Z</time>
      </trkpt>
      <trkpt lat="42.659340" lon="-2.534410">
        <ele>743.773</ele>
        <time>2011-05-14T12:09:44Z</time>
      </trkpt>
      <trkpt lat="42.659440" lon="-2.534410">
        <ele>743.720</ele>
        <time>2011-05-14T12:09:51Z</time>
      </trkpt>
      <trkpt lat="42.659530" lon="-2.534420">
        <ele>743.707</ele>
        <time>2011-05-14T12:09:58Z</time>
      </trkpt>
      <trkpt lat="42.659620" lon="-2.534440">
        <ele>743.711</ele>
        <time>2011-05-14T12:10:05Z</time>
      </trkpt>
      <trkpt lat="42.659720" lon="-2.534460">
        <ele>744.292</ele>
        <time>2011-05-14T12:10:12Z</time>
      </trkpt>
      <trkpt lat="42.659810" lon="-2.534470">
        <ele>744.242</ele>
        <time>2011-05-14T12:10:19Z</time>
      </trkpt>
      <trkpt lat="42.659910" lon="-2.534490">
        <ele>744.230</ele>
        <time>2011-05-14T12:10:26Z</time>
      </trkpt>
      <trkpt lat="42.660000" lon="-2.534510">
        <ele>745.648</ele>
        <time>2011-05-14T12:10:33Z</time>
      </trkpt>
      <trkpt lat="42.660090" lon="-2.534540">
        <ele>746.163</ele>
        <time>2011-05-14T12:10:40Z</time>
      </trkpt>
      <trkpt lat="42.660180" lon="-2.534560">
        <ele>746.664</ele>
        <time>2011-05-14T12:10:47Z</time>
      </trkpt>
      <trkpt lat="42.660270" lon="-2.534570">
        <ele>747.659</ele>
        <time>2011-05-14T12:10:54Z</time>
      </trkpt>
      <trkpt lat="42.660360" lon="-2.534590">
        <ele>748.503</ele>
        <time>2011-05-14T12:11:01Z</time>
      </trkpt>
      <trkpt lat="42.660450" lon="-2.534610">
        <ele>750.023</ele>
        <time>2011-05-14T12:11:08Z</time>
      </trkpt>
      <trkpt lat="42.660540" lon="-2.534630">
        <ele>750.907</ele>
        <time>2011-05-14T12:11:15Z</time>
      </trkpt>
      <trkpt lat="42.660630" lon="-2.534650">
        <ele>751.947</ele>
        <time>2011-05-14T12:11:22Z</time>
      </trkpt>
      <trkpt lat="42.660730" lon="-2.534670">
        <ele>752.428</ele>
        <time>2011-05-14T12:11:30Z</time>
      </trkpt>
      <trkpt lat="42.660820" lon="-2.534700">
        <ele>753.318</ele>
        <time>2011-05-14T12:11:38Z</time>
      </trkpt>
      <trkpt lat="42.660920" lon="-2.534720">
        <ele>753.866</ele>
        <time>2011-05-14T12:11:46Z</time>
      </trkpt>
      <trkpt lat="42.661020" lon="-2.534750">
        <ele>755.364</ele>
        <time>2011-05-14T12:11:54Z</time>
      </trkpt>
      <trkpt lat="42.661110" lon="-2.534770">
        <ele>756.299</ele>
        <time>2011-05-14T12:12:01Z</time>
      </trkpt>
      <trkpt lat="42.661200" lon="-2.534790">
        <ele>756.720</ele>
        <time>2011-05-14T12:12:08Z</time>
      </trkpt>
      <trkpt lat="42.661300" lon="-2.534810">
        <ele>757.232</ele>
        <time>2011-05-14T12:12:15Z</time>
      </trkpt>
      <trkpt lat="42.661390" lon="-2.534830">
        <ele>757.692</ele>
        <time>2011-05-14T12:12:22Z</time>
      </trkpt>
      <trkpt lat="42.661480" lon="-2.534840">
        <ele>757.611</ele>
        <time>2011-05-14T12:12:29Z</time>
      </trkpt>
      <trkpt lat="42.661570" lon="-2.534870">
        <ele>758.607</ele>
        <time>2011-05-14T12:12:36Z</time>
      </trkpt>
      <trkpt lat="42.661670" lon="-2.534900">
        <ele>758.695</ele>
        <time>2011-05-14T12:12:44Z</time>
      </trkpt>
      <trkpt lat="42.661750" lon="-2.534950">
        <ele>760.066</ele>
        <time>2011-05-14T12:12:52Z</time>
      </trkpt>
      <trkpt lat="42.661780" lon="-2.535040">
        <ele>761.076</ele>
        <time>2011-05-14T12:13:10Z</time>
      </trkpt>
      <trkpt lat="42.661820" lon="-2.535020">
        <ele>760.594</ele>
        <time>2011-05-14T12:16:57Z</time>
      </trkpt>
      <trkpt lat="42.661920" lon="-2.535000">
        <ele>760.552</ele>
        <time>2011-05-14T12:17:09Z</time>
      </trkpt>
      <trkpt lat="42.662000" lon="-2.534940">
        <ele>760.587</ele>
        <time>2011-05-14T12:18:23Z</time>
      </trkpt>
      <trkpt lat="42.662070" lon="-2.534910">
        <ele>760.528</ele>
        <time>2011-05-14T12:18:36Z</time>
      </trkpt>
      <trkpt lat="42.662160" lon="-2.534890">
        <ele>760.576</ele>
        <time>2011-05-14T12:18:48Z</time>
      </trkpt>
      <trkpt lat="42.662250" lon="-2.534870">
        <ele>761.090</ele>
        <time>2011-05-14T12:19:05Z</time>
      </trkpt>
      <trkpt lat="42.662340" lon="-2.534840">
        <ele>761.019</ele>
        <time>2011-05-14T12:19:17Z</time>
      </trkpt>
      <trkpt lat="42.662430" lon="-2.534830">
        <ele>760.507</ele>
        <time>2011-05-14T12:19:26Z</time>
      </trkpt>
      <trkpt lat="42.662530" lon="-2.534820">
        <ele>761.079</ele>
        <time>2011-05-14T12:19:35Z</time>
      </trkpt>
      <trkpt lat="42.662630" lon="-2.534820">
        <ele>760.040</ele>
        <time>2011-05-14T12:19:43Z</time>
      </trkpt>
      <trkpt lat="42.662720" lon="-2.534850">
        <ele>760.020</ele>
        <time>2011-05-14T12:19:51Z</time>
      </trkpt>
      <trkpt lat="42.662810" lon="-2.534890">
        <ele>760.038</ele>
        <time>2011-05-14T12:19:59Z</time>
      </trkpt>
      <trkpt lat="42.662900" lon="-2.534960">
        <ele>762.546</ele>
        <time>2011-05-14T12:20:08Z</time>
      </trkpt>
      <trkpt lat="42.662990" lon="-2.535020">
        <ele>762.951</ele>
        <time>2011-05-14T12:20:16Z</time>
      </trkpt>
      <trkpt lat="42.663070" lon="-2.535090">
        <ele>763.412</ele>
        <time>2011-05-14T12:20:24Z</time>
      </trkpt>
      <trkpt lat="42.663170" lon="-2.535140">
        <ele>763.468</ele>
        <time>2011-05-14T12:20:32Z</time>
      </trkpt>
      <trkpt lat="42.663260" lon="-2.535180">
        <ele>763.942</ele>
        <time>2011-05-14T12:20:40Z</time>
      </trkpt>
      <trkpt lat="42.663370" lon="-2.535180">
        <ele>764.426</ele>
        <time>2011-05-14T12:20:48Z</time>
      </trkpt>
      <trkpt lat="42.663460" lon="-2.535160">
        <ele>764.407</ele>
        <time>2011-05-14T12:20:55Z</time>
      </trkpt>
      <trkpt lat="42.663540" lon="-2.535130">
        <ele>764.458</ele>
        <time>2011-05-14T12:21:02Z</time>
      </trkpt>
      <trkpt lat="42.663630" lon="-2.535090">
        <ele>764.419</ele>
        <time>2011-05-14T12:21:09Z</time>
      </trkpt>
      <trkpt lat="42.663730" lon="-2.535050">
        <ele>764.979</ele>
        <time>2011-05-14T12:21:17Z</time>
      </trkpt>
      <trkpt lat="42.663800" lon="-2.534990">
        <ele>764.977</ele>
        <time>2011-05-14T12:21:24Z</time>
      </trkpt>
      <trkpt lat="42.663880" lon="-2.534900">
        <ele>764.925</ele>
        <time>2011-05-14T12:21:32Z</time>
      </trkpt>
      <trkpt lat="42.663940" lon="-2.534800">
        <ele>765.450</ele>
        <time>2011-05-14T12:21:39Z</time>
      </trkpt>
      <trkpt lat="42.663980" lon="-2.534680">
        <ele>765.471</ele>
        <time>2011-05-14T12:21:46Z</time>
      </trkpt>
      <trkpt lat="42.664010" lon="-2.534560">
        <ele>764.974</ele>
        <time>2011-05-14T12:21:53Z</time>
      </trkpt>
      <trkpt lat="42.664040" lon="-2.534440">
        <ele>765.456</ele>
        <time>2011-05-14T12:22:00Z</time>
      </trkpt>
      <trkpt lat="42.664070" lon="-2.534320">
        <ele>765.421</ele>
        <time>2011-05-14T12:22:07Z</time>
      </trkpt>
      <trkpt lat="42.664110" lon="-2.534210">
        <ele>765.407</ele>
        <time>2011-05-14T12:22:14Z</time>
      </trkpt>
      <trkpt lat="42.664150" lon="-2.534100">
        <ele>765.429</ele>
        <time>2011-05-14T12:22:21Z</time>
      </trkpt>
      <trkpt lat="42.664190" lon="-2.533980">
        <ele>765.470</ele>
        <time>2011-05-14T12:22:28Z</time>
      </trkpt>
      <trkpt lat="42.664220" lon="-2.533870">
        <ele>764.910</ele>
        <time>2011-05-14T12:22:35Z</time>
      </trkpt>
      <trkpt lat="42.664250" lon="-2.533750">
        <ele>765.468</ele>
        <time>2011-05-14T12:22:42Z</time>
      </trkpt>
      <trkpt lat="42.664280" lon="-2.533630">
        <ele>764.936</ele>
        <time>2011-05-14T12:22:49Z</time>
      </trkpt>
      <trkpt lat="42.664310" lon="-2.533510">
        <ele>765.881</ele>
        <time>2011-05-14T12:22:56Z</time>
      </trkpt>
      <trkpt lat="42.664330" lon="-2.533380">
        <ele>765.822</ele>
        <time>2011-05-14T12:23:03Z</time>
      </trkpt>
      <trkpt lat="42.664350" lon="-2.533260">
        <ele>765.862</ele>
        <time>2011-05-14T12:23:10Z</time>
      </trkpt>
      <trkpt lat="42.664370" lon="-2.533130">
        <ele>766.883</ele>
        <time>2011-05-14T12:23:18Z</time>
      </trkpt>
      <trkpt lat="42.664380" lon="-2.533000">
        <ele>766.311</ele>
        <time>2011-05-14T12:23:25Z</time>
      </trkpt>
      <trkpt lat="42.664390" lon="-2.532880">
        <ele>766.807</ele>
        <time>2011-05-14T12:23:32Z</time>
      </trkpt>
      <trkpt lat="42.664400" lon="-2.532760">
        <ele>767.378</ele>
        <time>2011-05-14T12:23:39Z</time>
      </trkpt>
      <trkpt lat="42.664400" lon="-2.532640">
        <ele>767.849</ele>
        <time>2011-05-14T12:23:46Z</time>
      </trkpt>
      <trkpt lat="42.664420" lon="-2.532500">
        <ele>768.229</ele>
        <time>2011-05-14T12:23:54Z</time>
      </trkpt>
      <trkpt lat="42.664450" lon="-2.532380">
        <ele>769.227</ele>
        <time>2011-05-14T12:24:02Z</time>
      </trkpt>
      <trkpt lat="42.664520" lon="-2.532300">
        <ele>770.155</ele>
        <time>2011-05-14T12:24:10Z</time>
      </trkpt>
      <trkpt lat="42.664620" lon="-2.532270">
        <ele>770.140</ele>
        <time>2011-05-14T12:24:18Z</time>
      </trkpt>
      <trkpt lat="42.664720" lon="-2.532270">
        <ele>771.161</ele>
        <time>2011-05-14T12:24:26Z</time>
      </trkpt>
      <trkpt lat="42.664820" lon="-2.532270">
        <ele>772.145</ele>
        <time>2011-05-14T12:24:34Z</time>
      </trkpt>
      <trkpt lat="42.664920" lon="-2.532260">
        <ele>772.547</ele>
        <time>2011-05-14T12:24:42Z</time>
      </trkpt>
      <trkpt lat="42.665010" lon="-2.532250">
        <ele>774.011</ele>
        <time>2011-05-14T12:24:50Z</time>
      </trkpt>
      <trkpt lat="42.665110" lon="-2.532240">
        <ele>775.407</ele>
        <time>2011-05-14T12:24:59Z</time>
      </trkpt>
      <trkpt lat="42.665210" lon="-2.532230">
        <ele>776.436</ele>
        <time>2011-05-14T12:25:07Z</time>
      </trkpt>
      <trkpt lat="42.665310" lon="-2.532210">
        <ele>777.457</ele>
        <time>2011-05-14T12:25:15Z</time>
      </trkpt>
      <trkpt lat="42.665400" lon="-2.532200">
        <ele>777.497</ele>
        <time>2011-05-14T12:25:22Z</time>
      </trkpt>
      <trkpt lat="42.665490" lon="-2.532180">
        <ele>778.895</ele>
        <time>2011-05-14T12:25:29Z</time>
      </trkpt>
      <trkpt lat="42.665570" lon="-2.532160">
        <ele>779.313</ele>
        <time>2011-05-14T12:25:36Z</time>
      </trkpt>
      <trkpt lat="42.665660" lon="-2.532150">
        <ele>779.898</ele>
        <time>2011-05-14T12:25:43Z</time>
      </trkpt>
      <trkpt lat="42.665760" lon="-2.532130">
        <ele>780.799</ele>
        <time>2011-05-14T12:25:50Z</time>
      </trkpt>
      <trkpt lat="42.665850" lon="-2.532110">
        <ele>780.762</ele>
        <time>2011-05-14T12:25:57Z</time>
      </trkpt>
      <trkpt lat="42.665940" lon="-2.532100">
        <ele>781.283</ele>
        <time>2011-05-14T12:26:04Z</time>
      </trkpt>
      <trkpt lat="42.666030" lon="-2.532090">
        <ele>781.211</ele>
        <time>2011-05-14T12:26:11Z</time>
      </trkpt>
      <trkpt lat="42.666120" lon="-2.532070">
        <ele>781.707</ele>
        <time>2011-05-14T12:26:18Z</time>
      </trkpt>
      <trkpt lat="42.666220" lon="-2.532060">
        <ele>782.718</ele>
        <time>2011-05-14T12:26:25Z</time>
      </trkpt>
      <trkpt lat="42.666310" lon="-2.532040">
        <ele>782.779</ele>
        <time>2011-05-14T12:26:32Z</time>
      </trkpt>
      <trkpt lat="42.666400" lon="-2.532030">
        <ele>782.279</ele>
        <time>2011-05-14T12:26:39Z</time>
      </trkpt>
      <trkpt lat="42.666490" lon="-2.532020">
        <ele>781.247</ele>
        <time>2011-05-14T12:26:46Z</time>
      </trkpt>
      <trkpt lat="42.666590" lon="-2.532010">
        <ele>781.265</ele>
        <time>2011-05-14T12:26:54Z</time>
      </trkpt>
      <trkpt lat="42.666690" lon="-2.532000">
        <ele>780.770</ele>
        <time>2011-05-14T12:27:02Z</time>
      </trkpt>
      <trkpt lat="42.666790" lon="-2.531990">
        <ele>780.781</ele>
        <time>2011-05-14T12:27:10Z</time>
      </trkpt>
      <trkpt lat="42.666880" lon="-2.531980">
        <ele>780.323</ele>
        <time>2011-05-14T12:27:18Z</time>
      </trkpt>
      <trkpt lat="42.666970" lon="-2.531950">
        <ele>780.383</ele>
        <time>2011-05-14T12:27:37Z</time>
      </trkpt>
      <trkpt lat="42.667060" lon="-2.531940">
        <ele>780.711</ele>
        <time>2011-05-14T12:27:48Z</time>
      </trkpt>
      <trkpt lat="42.667150" lon="-2.531920">
        <ele>780.707</ele>
        <time>2011-05-14T12:27:58Z</time>
      </trkpt>
      <trkpt lat="42.667260" lon="-2.531850">
        <ele>781.724</ele>
        <time>2011-05-14T12:28:11Z</time>
      </trkpt>
      <trkpt lat="42.667360" lon="-2.531790">
        <ele>782.215</ele>
        <time>2011-05-14T12:28:18Z</time>
      </trkpt>
      <trkpt lat="42.667450" lon="-2.531730">
        <ele>782.795</ele>
        <time>2011-05-14T12:28:26Z</time>
      </trkpt>
      <trkpt lat="42.667550" lon="-2.531670">
        <ele>783.633</ele>
        <time>2011-05-14T12:28:33Z</time>
      </trkpt>
      <trkpt lat="42.667650" lon="-2.531630">
        <ele>783.121</ele>
        <time>2011-05-14T12:28:40Z</time>
      </trkpt>
      <trkpt lat="42.667710" lon="-2.531520">
        <ele>782.776</ele>
        <time>2011-05-14T12:28:47Z</time>
      </trkpt>
      <trkpt lat="42.667790" lon="-2.531410">
        <ele>783.167</ele>
        <time>2011-05-14T12:28:54Z</time>
      </trkpt>
      <trkpt lat="42.667850" lon="-2.531310">
        <ele>782.746</ele>
        <time>2011-05-14T12:29:01Z</time>
      </trkpt>
      <trkpt lat="42.667920" lon="-2.531200">
        <ele>782.788</ele>
        <time>2011-05-14T12:29:08Z</time>
      </trkpt>
      <trkpt lat="42.667980" lon="-2.531090">
        <ele>782.716</ele>
        <time>2011-05-14T12:29:14Z</time>
      </trkpt>
      <trkpt lat="42.668020" lon="-2.530970">
        <ele>782.207</ele>
        <time>2011-05-14T12:29:21Z</time>
      </trkpt>
      <trkpt lat="42.668060" lon="-2.530850">
        <ele>781.776</ele>
        <time>2011-05-14T12:29:28Z</time>
      </trkpt>
      <trkpt lat="42.668120" lon="-2.530750">
        <ele>781.797</ele>
        <time>2011-05-14T12:29:36Z</time>
      </trkpt>
      <trkpt lat="42.668180" lon="-2.530650">
        <ele>780.737</ele>
        <time>2011-05-14T12:29:44Z</time>
      </trkpt>
      <trkpt lat="42.668250" lon="-2.530550">
        <ele>779.885</ele>
        <time>2011-05-14T12:29:52Z</time>
      </trkpt>
      <trkpt lat="42.668320" lon="-2.530450">
        <ele>778.823</ele>
        <time>2011-05-14T12:30:00Z</time>
      </trkpt>
      <trkpt lat="42.668400" lon="-2.530410">
        <ele>778.888</ele>
        <time>2011-05-14T12:30:08Z</time>
      </trkpt>
      <trkpt lat="42.668500" lon="-2.530430">
        <ele>778.819</ele>
        <time>2011-05-14T12:30:16Z</time>
      </trkpt>
      <trkpt lat="42.668590" lon="-2.530480">
        <ele>777.869</ele>
        <time>2011-05-14T12:30:24Z</time>
      </trkpt>
      <trkpt lat="42.668670" lon="-2.530550">
        <ele>777.804</ele>
        <time>2011-05-14T12:30:32Z</time>
      </trkpt>
      <trkpt lat="42.668740" lon="-2.530650">
        <ele>776.924</ele>
        <time>2011-05-14T12:30:41Z</time>
      </trkpt>
      <trkpt lat="42.668780" lon="-2.530770">
        <ele>776.907</ele>
        <time>2011-05-14T12:30:50Z</time>
      </trkpt>
      <trkpt lat="42.668830" lon="-2.530870">
        <ele>775.928</ele>
        <time>2011-05-14T12:31:00Z</time>
      </trkpt>
      <trkpt lat="42.668920" lon="-2.530960">
        <ele>774.069</ele>
        <time>2011-05-14T12:31:11Z</time>
      </trkpt>
      <trkpt lat="42.669000" lon="-2.531010">
        <ele>773.519</ele>
        <time>2011-05-14T12:31:19Z</time>
      </trkpt>
      <trkpt lat="42.669090" lon="-2.531010">
        <ele>773.597</ele>
        <time>2011-05-14T12:31:27Z</time>
      </trkpt>
      <trkpt lat="42.669180" lon="-2.530990">
        <ele>773.055</ele>
        <time>2011-05-14T12:31:35Z</time>
      </trkpt>
      <trkpt lat="42.669270" lon="-2.530950">
        <ele>772.580</ele>
        <time>2011-05-14T12:31:43Z</time>
      </trkpt>
      <trkpt lat="42.669350" lon="-2.530900">
        <ele>771.621</ele>
        <time>2011-05-14T12:31:51Z</time>
      </trkpt>
      <trkpt lat="42.669440" lon="-2.530840">
        <ele>771.644</ele>
        <time>2011-05-14T12:31:59Z</time>
      </trkpt>
      <trkpt lat="42.669530" lon="-2.530780">
        <ele>771.105</ele>
        <time>2011-05-14T12:32:07Z</time>
      </trkpt>
      <trkpt lat="42.669620" lon="-2.530730">
        <ele>771.115</ele>
        <time>2011-05-14T12:32:15Z</time>
      </trkpt>
      <trkpt lat="42.669710" lon="-2.530670">
        <ele>770.607</ele>
        <time>2011-05-14T12:32:23Z</time>
      </trkpt>
      <trkpt lat="42.669790" lon="-2.530600">
        <ele>770.616</ele>
        <time>2011-05-14T12:32:30Z</time>
      </trkpt>
      <trkpt lat="42.669860" lon="-2.530520">
        <ele>770.177</ele>
        <time>2011-05-14T12:32:38Z</time>
      </trkpt>
      <trkpt lat="42.669930" lon="-2.530420">
        <ele>769.777</ele>
        <time>2011-05-14T12:32:45Z</time>
      </trkpt>
      <trkpt lat="42.670080" lon="-2.530260">
        <ele>770.175</ele>
        <time>2011-05-14T12:33:00Z</time>
      </trkpt>
      <trkpt lat="42.670180" lon="-2.530240">
        <ele>770.143</ele>
        <time>2011-05-14T12:33:07Z</time>
      </trkpt>
      <trkpt lat="42.670280" lon="-2.530230">
        <ele>769.748</ele>
        <time>2011-05-14T12:33:14Z</time>
      </trkpt>
      <trkpt lat="42.670380" lon="-2.530180">
        <ele>770.199</ele>
        <time>2011-05-14T12:33:22Z</time>
      </trkpt>
      <trkpt lat="42.670450" lon="-2.530090">
        <ele>770.116</ele>
        <time>2011-05-14T12:33:31Z</time>
      </trkpt>
      <trkpt lat="42.670530" lon="-2.530010">
        <ele>770.676</ele>
        <time>2011-05-14T12:33:40Z</time>
      </trkpt>
      <trkpt lat="42.670610" lon="-2.529980">
        <ele>770.613</ele>
        <time>2011-05-14T12:33:48Z</time>
      </trkpt>
      <trkpt lat="42.670720" lon="-2.529990">
        <ele>771.107</ele>
        <time>2011-05-14T12:33:57Z</time>
      </trkpt>
      <trkpt lat="42.670810" lon="-2.530040">
        <ele>772.123</ele>
        <time>2011-05-14T12:34:06Z</time>
      </trkpt>
      <trkpt lat="42.670900" lon="-2.530110">
        <ele>773.524</ele>
        <time>2011-05-14T12:34:16Z</time>
      </trkpt>
      <trkpt lat="42.670960" lon="-2.530210">
        <ele>774.084</ele>
        <time>2011-05-14T12:34:25Z</time>
      </trkpt>
      <trkpt lat="42.671060" lon="-2.530190">
        <ele>774.072</ele>
        <time>2011-05-14T12:34:34Z</time>
      </trkpt>
      <trkpt lat="42.671150" lon="-2.530240">
        <ele>775.480</ele>
        <time>2011-05-14T12:34:43Z</time>
      </trkpt>
      <trkpt lat="42.671220" lon="-2.530300">
        <ele>775.995</ele>
        <time>2011-05-14T12:34:52Z</time>
      </trkpt>
      <trkpt lat="42.671310" lon="-2.530350">
        <ele>776.456</ele>
        <time>2011-05-14T12:35:01Z</time>
      </trkpt>
      <trkpt lat="42.671400" lon="-2.530390">
        <ele>776.925</ele>
        <time>2011-05-14T12:35:11Z</time>
      </trkpt>
      <trkpt lat="42.671500" lon="-2.530430">
        <ele>776.926</ele>
        <time>2011-05-14T12:35:21Z</time>
      </trkpt>
      <trkpt lat="42.671590" lon="-2.530370">
        <ele>778.808</ele>
        <time>2011-05-14T12:35:34Z</time>
      </trkpt>
      <trkpt lat="42.671680" lon="-2.530310">
        <ele>779.307</ele>
        <time>2011-05-14T12:35:42Z</time>
      </trkpt>
      <trkpt lat="42.671770" lon="-2.530210">
        <ele>779.874</ele>
        <time>2011-05-14T12:35:51Z</time>
      </trkpt>
      <trkpt lat="42.671870" lon="-2.530110">
        <ele>780.745</ele>
        <time>2011-05-14T12:37:34Z</time>
      </trkpt>
      <trkpt lat="42.671910" lon="-2.530000">
        <ele>781.735</ele>
        <time>2011-05-14T12:37:44Z</time>
      </trkpt>
      <trkpt lat="42.671910" lon="-2.529860">
        <ele>782.223</ele>
        <time>2011-05-14T12:38:00Z</time>
      </trkpt>
      <trkpt lat="42.671920" lon="-2.529620">
        <ele>784.141</ele>
        <time>2011-05-14T12:38:14Z</time>
      </trkpt>
      <trkpt lat="42.671920" lon="-2.529470">
        <ele>785.056</ele>
        <time>2011-05-14T12:38:26Z</time>
      </trkpt>
      <trkpt lat="42.671930" lon="-2.529310">
        <ele>786.587</ele>
        <time>2011-05-14T12:38:36Z</time>
      </trkpt>
      <trkpt lat="42.671930" lon="-2.529170">
        <ele>786.596</ele>
        <time>2011-05-14T12:38:46Z</time>
      </trkpt>
      <trkpt lat="42.671940" lon="-2.529020">
        <ele>785.531</ele>
        <time>2011-05-14T12:39:00Z</time>
      </trkpt>
      <trkpt lat="42.672020" lon="-2.528980">
        <ele>786.024</ele>
        <time>2011-05-14T12:39:11Z</time>
      </trkpt>
      <trkpt lat="42.672160" lon="-2.528870">
        <ele>786.007</ele>
        <time>2011-05-14T12:39:32Z</time>
      </trkpt>
      <trkpt lat="42.672210" lon="-2.528910">
        <ele>788.451</ele>
        <time>2011-05-14T12:39:49Z</time>
      </trkpt>
      <trkpt lat="42.672280" lon="-2.529000">
        <ele>790.362</ele>
        <time>2011-05-14T12:40:06Z</time>
      </trkpt>
      <trkpt lat="42.672360" lon="-2.529060">
        <ele>791.862</ele>
        <time>2011-05-14T12:40:18Z</time>
      </trkpt>
      <trkpt lat="42.672420" lon="-2.529130">
        <ele>794.750</ele>
        <time>2011-05-14T12:40:33Z</time>
      </trkpt>
      <trkpt lat="42.672510" lon="-2.529190">
        <ele>797.598</ele>
        <time>2011-05-14T12:40:46Z</time>
      </trkpt>
      <trkpt lat="42.672590" lon="-2.529240">
        <ele>799.943</ele>
        <time>2011-05-14T12:40:58Z</time>
      </trkpt>
      <trkpt lat="42.672670" lon="-2.529290">
        <ele>802.864</ele>
        <time>2011-05-14T12:41:09Z</time>
      </trkpt>
      <trkpt lat="42.672750" lon="-2.529370">
        <ele>804.822</ele>
        <time>2011-05-14T12:41:20Z</time>
      </trkpt>
      <trkpt lat="42.672810" lon="-2.529490">
        <ele>806.762</ele>
        <time>2011-05-14T12:41:30Z</time>
      </trkpt>
      <trkpt lat="42.672860" lon="-2.529590">
        <ele>807.208</ele>
        <time>2011-05-14T12:41:39Z</time>
      </trkpt>
      <trkpt lat="42.672920" lon="-2.529720">
        <ele>809.107</ele>
        <time>2011-05-14T12:41:49Z</time>
      </trkpt>
      <trkpt lat="42.672960" lon="-2.529840">
        <ele>810.574</ele>
        <time>2011-05-14T12:41:59Z</time>
      </trkpt>
      <trkpt lat="42.672990" lon="-2.529960">
        <ele>812.495</ele>
        <time>2011-05-14T12:42:08Z</time>
      </trkpt>
      <trkpt lat="42.673050" lon="-2.530080">
        <ele>812.915</ele>
        <time>2011-05-14T12:42:17Z</time>
      </trkpt>
      <trkpt lat="42.673120" lon="-2.530110">
        <ele>812.913</ele>
        <time>2011-05-14T12:42:26Z</time>
      </trkpt>
      <trkpt lat="42.673210" lon="-2.530150">
        <ele>813.471</ele>
        <time>2011-05-14T12:42:36Z</time>
      </trkpt>
      <trkpt lat="42.673290" lon="-2.530190">
        <ele>815.386</ele>
        <time>2011-05-14T12:42:47Z</time>
      </trkpt>
      <trkpt lat="42.673370" lon="-2.530280">
        <ele>815.327</ele>
        <time>2011-05-14T12:42:57Z</time>
      </trkpt>
      <trkpt lat="42.673450" lon="-2.530390">
        <ele>815.813</ele>
        <time>2011-05-14T12:43:06Z</time>
      </trkpt>
      <trkpt lat="42.673510" lon="-2.530500">
        <ele>816.843</ele>
        <time>2011-05-14T12:43:14Z</time>
      </trkpt>
      <trkpt lat="42.673550" lon="-2.530630">
        <ele>816.807</ele>
        <time>2011-05-14T12:43:22Z</time>
      </trkpt>
      <trkpt lat="42.673570" lon="-2.530760">
        <ele>815.807</ele>
        <time>2011-05-14T12:43:30Z</time>
      </trkpt>
      <trkpt lat="42.673590" lon="-2.530890">
        <ele>814.953</ele>
        <time>2011-05-14T12:43:38Z</time>
      </trkpt>
      <trkpt lat="42.673600" lon="-2.531020">
        <ele>814.434</ele>
        <time>2011-05-14T12:43:48Z</time>
      </trkpt>
      <trkpt lat="42.673590" lon="-2.531150">
        <ele>813.924</ele>
        <time>2011-05-14T12:43:56Z</time>
      </trkpt>
      <trkpt lat="42.673600" lon="-2.531300">
        <ele>813.922</ele>
        <time>2011-05-14T12:44:04Z</time>
      </trkpt>
      <trkpt lat="42.673610" lon="-2.531440">
        <ele>812.930</ele>
        <time>2011-05-14T12:44:12Z</time>
      </trkpt>
      <trkpt lat="42.673640" lon="-2.531580">
        <ele>812.415</ele>
        <time>2011-05-14T12:44:20Z</time>
      </trkpt>
      <trkpt lat="42.673560" lon="-2.531670">
        <ele>813.966</ele>
        <time>2011-05-14T12:44:28Z</time>
      </trkpt>
      <trkpt lat="42.673510" lon="-2.531720">
        <ele>814.995</ele>
        <time>2011-05-14T12:44:41Z</time>
      </trkpt>
      <trkpt lat="42.673560" lon="-2.531820">
        <ele>814.949</ele>
        <time>2011-05-14T12:45:22Z</time>
      </trkpt>
      <trkpt lat="42.673750" lon="-2.531910">
        <ele>811.523</ele>
        <time>2011-05-14T12:46:26Z</time>
      </trkpt>
      <trkpt lat="42.673830" lon="-2.531990">
        <ele>811.007</ele>
        <time>2011-05-14T12:46:33Z</time>
      </trkpt>
      <trkpt lat="42.674000" lon="-2.532110">
        <ele>808.111</ele>
        <time>2011-05-14T12:46:50Z</time>
      </trkpt>
      <trkpt lat="42.674110" lon="-2.532130">
        <ele>808.152</ele>
        <time>2011-05-14T12:46:59Z</time>
      </trkpt>
      <trkpt lat="42.674220" lon="-2.532130">
        <ele>807.762</ele>
        <time>2011-05-14T12:47:07Z</time>
      </trkpt>
      <trkpt lat="42.674310" lon="-2.532150">
        <ele>807.230</ele>
        <time>2011-05-14T12:47:15Z</time>
      </trkpt>
      <trkpt lat="42.674390" lon="-2.532210">
        <ele>806.788</ele>
        <time>2011-05-14T12:47:31Z</time>
      </trkpt>
      <trkpt lat="42.674430" lon="-2.532310">
        <ele>807.273</ele>
        <time>2011-05-14T12:47:41Z</time>
      </trkpt>
      <trkpt lat="42.674500" lon="-2.532430">
        <ele>807.764</ele>
        <time>2011-05-14T12:47:51Z</time>
      </trkpt>
      <trkpt lat="42.674570" lon="-2.532540">
        <ele>804.815</ele>
        <time>2011-05-14T12:48:00Z</time>
      </trkpt>
      <trkpt lat="42.674620" lon="-2.532650">
        <ele>804.365</ele>
        <time>2011-05-14T12:48:08Z</time>
      </trkpt>
      <trkpt lat="42.674690" lon="-2.532770">
        <ele>804.811</ele>
        <time>2011-05-14T12:48:17Z</time>
      </trkpt>
      <trkpt lat="42.674760" lon="-2.532850">
        <ele>803.807</ele>
        <time>2011-05-14T12:48:25Z</time>
      </trkpt>
      <trkpt lat="42.674840" lon="-2.532920">
        <ele>805.333</ele>
        <time>2011-05-14T12:48:33Z</time>
      </trkpt>
      <trkpt lat="42.674940" lon="-2.532970">
        <ele>804.864</ele>
        <time>2011-05-14T12:48:41Z</time>
      </trkpt>
      <trkpt lat="42.675020" lon="-2.533060">
        <ele>803.884</ele>
        <time>2011-05-14T12:48:50Z</time>
      </trkpt>
      <trkpt lat="42.675100" lon="-2.533150">
        <ele>804.342</ele>
        <time>2011-05-14T12:48:58Z</time>
      </trkpt>
      <trkpt lat="42.675160" lon="-2.533260">
        <ele>803.840</ele>
        <time>2011-05-14T12:49:06Z</time>
      </trkpt>
      <trkpt lat="42.675300" lon="-2.533470">
        <ele>803.825</ele>
        <time>2011-05-14T12:49:22Z</time>
      </trkpt>
      <trkpt lat="42.675380" lon="-2.533550">
        <ele>802.496</ele>
        <time>2011-05-14T12:49:29Z</time>
      </trkpt>
      <trkpt lat="42.675460" lon="-2.533630">
        <ele>800.958</ele>
        <time>2011-05-14T12:49:36Z</time>
      </trkpt>
      <trkpt lat="42.675550" lon="-2.533720">
        <ele>800.952</ele>
        <time>2011-05-14T12:49:43Z</time>
      </trkpt>
      <trkpt lat="42.675630" lon="-2.533800">
        <ele>799.917</ele>
        <time>2011-05-14T12:49:50Z</time>
      </trkpt>
      <trkpt lat="42.675710" lon="-2.533860">
        <ele>798.507</ele>
        <time>2011-05-14T12:49:56Z</time>
      </trkpt>
      <trkpt lat="42.675800" lon="-2.533930">
        <ele>797.517</ele>
        <time>2011-05-14T12:50:03Z</time>
      </trkpt>
      <trkpt lat="42.675880" lon="-2.533990">
        <ele>795.678</ele>
        <time>2011-05-14T12:50:10Z</time>
      </trkpt>
      <trkpt lat="42.675950" lon="-2.534090">
        <ele>793.258</ele>
        <time>2011-05-14T12:50:18Z</time>
      </trkpt>
      <trkpt lat="42.676040" lon="-2.534160">
        <ele>791.396</ele>
        <time>2011-05-14T12:50:26Z</time>
      </trkpt>
      <trkpt lat="42.676140" lon="-2.534240">
        <ele>789.494</ele>
        <time>2011-05-14T12:50:34Z</time>
      </trkpt>
      <trkpt lat="42.676200" lon="-2.534330">
        <ele>788.479</ele>
        <time>2011-05-14T12:50:42Z</time>
      </trkpt>
      <trkpt lat="42.676280" lon="-2.534410">
        <ele>787.520</ele>
        <time>2011-05-14T12:50:50Z</time>
      </trkpt>
      <trkpt lat="42.676340" lon="-2.534500">
        <ele>787.529</ele>
        <time>2011-05-14T12:50:57Z</time>
      </trkpt>
      <trkpt lat="42.676410" lon="-2.534590">
        <ele>786.500</ele>
        <time>2011-05-14T12:51:05Z</time>
      </trkpt>
      <trkpt lat="42.676480" lon="-2.534680">
        <ele>787.020</ele>
        <time>2011-05-14T12:51:13Z</time>
      </trkpt>
      <trkpt lat="42.676550" lon="-2.534750">
        <ele>788.407</ele>
        <time>2011-05-14T12:51:21Z</time>
      </trkpt>
      <trkpt lat="42.676630" lon="-2.534820">
        <ele>788.944</ele>
        <time>2011-05-14T12:51:30Z</time>
      </trkpt>
      <trkpt lat="42.676720" lon="-2.534870">
        <ele>790.875</ele>
        <time>2011-05-14T12:51:39Z</time>
      </trkpt>
      <trkpt lat="42.676800" lon="-2.534920">
        <ele>790.865</ele>
        <time>2011-05-14T12:51:48Z</time>
      </trkpt>
      <trkpt lat="42.676880" lon="-2.534970">
        <ele>791.873</ele>
        <time>2011-05-14T12:51:56Z</time>
      </trkpt>
      <trkpt lat="42.676980" lon="-2.535000">
        <ele>791.331</ele>
        <time>2011-05-14T12:52:05Z</time>
      </trkpt>
      <trkpt lat="42.677040" lon="-2.535110">
        <ele>789.416</ele>
        <time>2011-05-14T12:52:14Z</time>
      </trkpt>
      <trkpt lat="42.677080" lon="-2.535210">
        <ele>789.937</ele>
        <time>2011-05-14T12:52:22Z</time>
      </trkpt>
      <trkpt lat="42.677100" lon="-2.535340">
        <ele>789.416</ele>
        <time>2011-05-14T12:52:31Z</time>
      </trkpt>
      <trkpt lat="42.677090" lon="-2.535480">
        <ele>788.976</ele>
        <time>2011-05-14T12:52:40Z</time>
      </trkpt>
      <trkpt lat="42.677290" lon="-2.535760">
        <ele>790.813</ele>
        <time>2011-05-14T12:53:04Z</time>
      </trkpt>
      <trkpt lat="42.677350" lon="-2.535850">
        <ele>791.307</ele>
        <time>2011-05-14T12:53:13Z</time>
      </trkpt>
      <trkpt lat="42.677390" lon="-2.535960">
        <ele>790.833</ele>
        <time>2011-05-14T12:53:21Z</time>
      </trkpt>
      <trkpt lat="42.677430" lon="-2.536070">
        <ele>790.844</ele>
        <time>2011-05-14T12:53:29Z</time>
      </trkpt>
      <trkpt lat="42.677520" lon="-2.536140">
        <ele>790.384</ele>
        <time>2011-05-14T12:53:37Z</time>
      </trkpt>
      <trkpt lat="42.677640" lon="-2.536160">
        <ele>789.952</ele>
        <time>2011-05-14T12:53:45Z</time>
      </trkpt>
      <trkpt lat="42.677740" lon="-2.536180">
        <ele>790.320</ele>
        <time>2011-05-14T12:53:54Z</time>
      </trkpt>
      <trkpt lat="42.677820" lon="-2.536260">
        <ele>790.335</ele>
        <time>2011-05-14T12:54:02Z</time>
      </trkpt>
      <trkpt lat="42.677870" lon="-2.536380">
        <ele>790.386</ele>
        <time>2011-05-14T12:54:09Z</time>
      </trkpt>
      <trkpt lat="42.677910" lon="-2.536480">
        <ele>790.878</ele>
        <time>2011-05-14T12:54:16Z</time>
      </trkpt>
      <trkpt lat="42.678010" lon="-2.536510">
        <ele>790.833</ele>
        <time>2011-05-14T12:54:24Z</time>
      </trkpt>
      <trkpt lat="42.678120" lon="-2.536480">
        <ele>791.326</ele>
        <time>2011-05-14T12:54:32Z</time>
      </trkpt>
      <trkpt lat="42.678220" lon="-2.536510">
        <ele>791.807</ele>
        <time>2011-05-14T12:54:40Z</time>
      </trkpt>
      <trkpt lat="42.678300" lon="-2.536560">
        <ele>790.399</ele>
        <time>2011-05-14T12:54:47Z</time>
      </trkpt>
      <trkpt lat="42.678400" lon="-2.536630">
        <ele>788.490</ele>
        <time>2011-05-14T12:54:54Z</time>
      </trkpt>
      <trkpt lat="42.678480" lon="-2.536680">
        <ele>788.480</ele>
        <time>2011-05-14T12:55:02Z</time>
      </trkpt>
      <trkpt lat="42.678570" lon="-2.536760">
        <ele>786.568</ele>
        <time>2011-05-14T12:55:10Z</time>
      </trkpt>
      <trkpt lat="42.678670" lon="-2.536830">
        <ele>784.616</ele>
        <time>2011-05-14T12:55:18Z</time>
      </trkpt>
      <trkpt lat="42.678750" lon="-2.536870">
        <ele>783.681</ele>
        <time>2011-05-14T12:55:25Z</time>
      </trkpt>
      <trkpt lat="42.678840" lon="-2.536930">
        <ele>783.142</ele>
        <time>2011-05-14T12:55:33Z</time>
      </trkpt>
      <trkpt lat="42.678920" lon="-2.536970">
        <ele>783.139</ele>
        <time>2011-05-14T12:55:43Z</time>
      </trkpt>
      <trkpt lat="42.679000" lon="-2.537050">
        <ele>783.101</ele>
        <time>2011-05-14T12:55:52Z</time>
      </trkpt>
      <trkpt lat="42.679090" lon="-2.537120">
        <ele>786.021</ele>
        <time>2011-05-14T12:56:03Z</time>
      </trkpt>
      <trkpt lat="42.679180" lon="-2.537140">
        <ele>789.407</ele>
        <time>2011-05-14T12:56:15Z</time>
      </trkpt>
      <trkpt lat="42.679280" lon="-2.537100">
        <ele>793.275</ele>
        <time>2011-05-14T12:56:32Z</time>
      </trkpt>
      <trkpt lat="42.679310" lon="-2.537030">
        <ele>793.776</ele>
        <time>2011-05-14T13:01:01Z</time>
      </trkpt>
      <trkpt lat="42.679570" lon="-2.536920">
        <ele>794.216</ele>
        <time>2011-05-14T13:01:44Z</time>
      </trkpt>
      <trkpt lat="42.679680" lon="-2.536940">
        <ele>795.264</ele>
        <time>2011-05-14T13:01:56Z</time>
      </trkpt>
      <trkpt lat="42.679780" lon="-2.536980">
        <ele>796.182</ele>
        <time>2011-05-14T13:02:05Z</time>
      </trkpt>
      <trkpt lat="42.679870" lon="-2.537060">
        <ele>796.127</ele>
        <time>2011-05-14T13:02:13Z</time>
      </trkpt>
      <trkpt lat="42.679940" lon="-2.537160">
        <ele>796.618</ele>
        <time>2011-05-14T13:02:21Z</time>
      </trkpt>
      <trkpt lat="42.680010" lon="-2.537270">
        <ele>796.185</ele>
        <time>2011-05-14T13:02:29Z</time>
      </trkpt>
      <trkpt lat="42.680080" lon="-2.537350">
        <ele>796.689</ele>
        <time>2011-05-14T13:02:36Z</time>
      </trkpt>
      <trkpt lat="42.680150" lon="-2.537450">
        <ele>796.617</ele>
        <time>2011-05-14T13:02:45Z</time>
      </trkpt>
      <trkpt lat="42.680220" lon="-2.537540">
        <ele>796.607</ele>
        <time>2011-05-14T13:02:53Z</time>
      </trkpt>
      <trkpt lat="42.680290" lon="-2.537630">
        <ele>797.160</ele>
        <time>2011-05-14T13:03:01Z</time>
      </trkpt>
      <trkpt lat="42.680350" lon="-2.537740">
        <ele>796.111</ele>
        <time>2011-05-14T13:03:10Z</time>
      </trkpt>
      <trkpt lat="42.680420" lon="-2.537860">
        <ele>795.631</ele>
        <time>2011-05-14T13:03:47Z</time>
      </trkpt>
      <trkpt lat="42.680490" lon="-2.537940">
        <ele>795.279</ele>
        <time>2011-05-14T13:03:54Z</time>
      </trkpt>
      <trkpt lat="42.680550" lon="-2.538030">
        <ele>795.287</ele>
        <time>2011-05-14T13:04:01Z</time>
      </trkpt>
      <trkpt lat="42.680600" lon="-2.538130">
        <ele>795.262</ele>
        <time>2011-05-14T13:04:08Z</time>
      </trkpt>
      <trkpt lat="42.680660" lon="-2.538230">
        <ele>794.733</ele>
        <time>2011-05-14T13:04:15Z</time>
      </trkpt>
      <trkpt lat="42.680720" lon="-2.538320">
        <ele>795.639</ele>
        <time>2011-05-14T13:04:22Z</time>
      </trkpt>
      <trkpt lat="42.680780" lon="-2.538410">
        <ele>796.101</ele>
        <time>2011-05-14T13:04:29Z</time>
      </trkpt>
      <trkpt lat="42.680880" lon="-2.538480">
        <ele>797.121</ele>
        <time>2011-05-14T13:04:36Z</time>
      </trkpt>
      <trkpt lat="42.680970" lon="-2.538530">
        <ele>798.007</ele>
        <time>2011-05-14T13:04:43Z</time>
      </trkpt>
      <trkpt lat="42.681050" lon="-2.538570">
        <ele>799.015</ele>
        <time>2011-05-14T13:04:49Z</time>
      </trkpt>
      <trkpt lat="42.681140" lon="-2.538610">
        <ele>801.456</ele>
        <time>2011-05-14T13:04:58Z</time>
      </trkpt>
      <trkpt lat="42.681220" lon="-2.538660">
        <ele>802.866</ele>
        <time>2011-05-14T13:05:06Z</time>
      </trkpt>
      <trkpt lat="42.681280" lon="-2.538750">
        <ele>802.814</ele>
        <time>2011-05-14T13:05:14Z</time>
      </trkpt>
      <trkpt lat="42.681330" lon="-2.538850">
        <ele>802.882</ele>
        <time>2011-05-14T13:05:22Z</time>
      </trkpt>
      <trkpt lat="42.681330" lon="-2.538970">
        <ele>802.837</ele>
        <time>2011-05-14T13:05:30Z</time>
      </trkpt>
      <trkpt lat="42.681360" lon="-2.539080">
        <ele>803.378</ele>
        <time>2011-05-14T13:05:39Z</time>
      </trkpt>
      <trkpt lat="42.681360" lon="-2.539110">
        <ele>803.318</ele>
        <time>2011-05-14T13:06:06Z</time>
      </trkpt>
      <trkpt lat="42.681330" lon="-2.539230">
        <ele>804.398</ele>
        <time>2011-05-14T13:06:20Z</time>
      </trkpt>
      <trkpt lat="42.681370" lon="-2.539360">
        <ele>803.317</ele>
        <time>2011-05-14T13:06:33Z</time>
      </trkpt>
      <trkpt lat="42.681420" lon="-2.539480">
        <ele>802.807</ele>
        <time>2011-05-14T13:06:40Z</time>
      </trkpt>
      <trkpt lat="42.681480" lon="-2.539570">
        <ele>802.813</ele>
        <time>2011-05-14T13:06:52Z</time>
      </trkpt>
      <trkpt lat="42.681510" lon="-2.539680">
        <ele>802.414</ele>
        <time>2011-05-14T13:07:02Z</time>
      </trkpt>
      <trkpt lat="42.681570" lon="-2.539790">
        <ele>803.334</ele>
        <time>2011-05-14T13:07:10Z</time>
      </trkpt>
      <trkpt lat="42.681640" lon="-2.539870">
        <ele>804.322</ele>
        <time>2011-05-14T13:07:19Z</time>
      </trkpt>
      <trkpt lat="42.681690" lon="-2.539980">
        <ele>805.730</ele>
        <time>2011-05-14T13:07:28Z</time>
      </trkpt>
      <trkpt lat="42.681730" lon="-2.540110">
        <ele>806.275</ele>
        <time>2011-05-14T13:07:37Z</time>
      </trkpt>
      <trkpt lat="42.681780" lon="-2.540220">
        <ele>806.716</ele>
        <time>2011-05-14T13:07:44Z</time>
      </trkpt>
      <trkpt lat="42.681850" lon="-2.540320">
        <ele>806.757</ele>
        <time>2011-05-14T13:07:51Z</time>
      </trkpt>
      <trkpt lat="42.681940" lon="-2.540380">
        <ele>806.700</ele>
        <time>2011-05-14T13:08:06Z</time>
      </trkpt>
      <trkpt lat="42.682040" lon="-2.540440">
        <ele>809.620</ele>
        <time>2011-05-14T13:08:13Z</time>
      </trkpt>
      <trkpt lat="42.682130" lon="-2.540510">
        <ele>809.107</ele>
        <time>2011-05-14T13:08:20Z</time>
      </trkpt>
      <trkpt lat="42.682200" lon="-2.540600">
        <ele>810.057</ele>
        <time>2011-05-14T13:08:28Z</time>
      </trkpt>
      <trkpt lat="42.682290" lon="-2.540670">
        <ele>811.068</ele>
        <time>2011-05-14T13:08:36Z</time>
      </trkpt>
      <trkpt lat="42.682380" lon="-2.540720">
        <ele>811.068</ele>
        <time>2011-05-14T13:08:44Z</time>
      </trkpt>
      <trkpt lat="42.682460" lon="-2.540780">
        <ele>811.596</ele>
        <time>2011-05-14T13:08:52Z</time>
      </trkpt>
      <trkpt lat="42.682540" lon="-2.540830">
        <ele>811.574</ele>
        <time>2011-05-14T13:09:01Z</time>
      </trkpt>
      <trkpt lat="42.682620" lon="-2.540880">
        <ele>813.919</ele>
        <time>2011-05-14T13:09:10Z</time>
      </trkpt>
      <trkpt lat="42.682690" lon="-2.540920">
        <ele>815.390</ele>
        <time>2011-05-14T13:09:18Z</time>
      </trkpt>
      <trkpt lat="42.682780" lon="-2.540940">
        <ele>817.339</ele>
        <time>2011-05-14T13:09:27Z</time>
      </trkpt>
      <trkpt lat="42.682870" lon="-2.540970">
        <ele>818.201</ele>
        <time>2011-05-14T13:09:35Z</time>
      </trkpt>
      <trkpt lat="42.682950" lon="-2.540990">
        <ele>820.621</ele>
        <time>2011-05-14T13:09:46Z</time>
      </trkpt>
      <trkpt lat="42.683040" lon="-2.540950">
        <ele>822.507</ele>
        <time>2011-05-14T13:09:55Z</time>
      </trkpt>
      <trkpt lat="42.683120" lon="-2.540870">
        <ele>822.155</ele>
        <time>2011-05-14T13:10:04Z</time>
      </trkpt>
      <trkpt lat="42.683200" lon="-2.540830">
        <ele>822.176</ele>
        <time>2011-05-14T13:10:13Z</time>
      </trkpt>
      <trkpt lat="42.683290" lon="-2.540810">
        <ele>818.256</ele>
        <time>2011-05-14T13:10:24Z</time>
      </trkpt>
      <trkpt lat="42.683400" lon="-2.540780">
        <ele>816.384</ele>
        <time>2011-05-14T13:10:33Z</time>
      </trkpt>
      <trkpt lat="42.683490" lon="-2.540720">
        <ele>815.882</ele>
        <time>2011-05-14T13:10:42Z</time>
      </trkpt>
      <trkpt lat="42.683580" lon="-2.540680">
        <ele>812.977</ele>
        <time>2011-05-14T13:10:54Z</time>
      </trkpt>
      <trkpt lat="42.683680" lon="-2.540640">
        <ele>812.458</ele>
        <time>2011-05-14T13:11:03Z</time>
      </trkpt>
      <trkpt lat="42.683780" lon="-2.540590">
        <ele>812.915</ele>
        <time>2011-05-14T13:11:11Z</time>
      </trkpt>
      <trkpt lat="42.683860" lon="-2.540540">
        <ele>813.965</ele>
        <time>2011-05-14T13:11:20Z</time>
      </trkpt>
      <trkpt lat="42.683950" lon="-2.540460">
        <ele>813.911</ele>
        <time>2011-05-14T13:11:28Z</time>
      </trkpt>
      <trkpt lat="42.684040" lon="-2.540400">
        <ele>816.307</ele>
        <time>2011-05-14T13:11:37Z</time>
      </trkpt>
      <trkpt lat="42.684140" lon="-2.540360">
        <ele>819.293</ele>
        <time>2011-05-14T13:11:46Z</time>
      </trkpt>
      <trkpt lat="42.684210" lon="-2.540320">
        <ele>823.044</ele>
        <time>2011-05-14T13:11:59Z</time>
      </trkpt>
      <trkpt lat="42.684300" lon="-2.540290">
        <ele>821.154</ele>
        <time>2011-05-14T13:12:10Z</time>
      </trkpt>
      <trkpt lat="42.684400" lon="-2.540250">
        <ele>820.662</ele>
        <time>2011-05-14T13:12:20Z</time>
      </trkpt>
      <trkpt lat="42.684500" lon="-2.540230">
        <ele>822.520</ele>
        <time>2011-05-14T13:12:29Z</time>
      </trkpt>
      <trkpt lat="42.684600" lon="-2.540190">
        <ele>821.625</ele>
        <time>2011-05-14T13:12:38Z</time>
      </trkpt>
      <trkpt lat="42.684690" lon="-2.540150">
        <ele>820.286</ele>
        <time>2011-05-14T13:12:46Z</time>
      </trkpt>
      <trkpt lat="42.684790" lon="-2.540120">
        <ele>817.768</ele>
        <time>2011-05-14T13:12:57Z</time>
      </trkpt>
      <trkpt lat="42.684880" lon="-2.540090">
        <ele>815.842</ele>
        <time>2011-05-14T13:13:07Z</time>
      </trkpt>
      <trkpt lat="42.684990" lon="-2.540050">
        <ele>815.326</ele>
        <time>2011-05-14T13:13:16Z</time>
      </trkpt>
      <trkpt lat="42.685100" lon="-2.540000">
        <ele>813.907</ele>
        <time>2011-05-14T13:13:24Z</time>
      </trkpt>
      <trkpt lat="42.685210" lon="-2.539980">
        <ele>813.978</ele>
        <time>2011-05-14T13:13:32Z</time>
      </trkpt>
      <trkpt lat="42.685310" lon="-2.539970">
        <ele>813.929</ele>
        <time>2011-05-14T13:13:40Z</time>
      </trkpt>
      <trkpt lat="42.685400" lon="-2.539940">
        <ele>813.999</ele>
        <time>2011-05-14T13:13:49Z</time>
      </trkpt>
      <trkpt lat="42.685500" lon="-2.539900">
        <ele>814.447</ele>
        <time>2011-05-14T13:13:57Z</time>
      </trkpt>
      <trkpt lat="42.685590" lon="-2.539870">
        <ele>814.455</ele>
        <time>2011-05-14T13:14:05Z</time>
      </trkpt>
      <trkpt lat="42.685690" lon="-2.539840">
        <ele>815.320</ele>
        <time>2011-05-14T13:14:13Z</time>
      </trkpt>
      <trkpt lat="42.685790" lon="-2.539800">
        <ele>816.311</ele>
        <time>2011-05-14T13:14:22Z</time>
      </trkpt>
      <trkpt lat="42.685880" lon="-2.539770">
        <ele>815.893</ele>
        <time>2011-05-14T13:14:30Z</time>
      </trkpt>
      <trkpt lat="42.685970" lon="-2.539760">
        <ele>814.965</ele>
        <time>2011-05-14T13:14:39Z</time>
      </trkpt>
      <trkpt lat="42.686070" lon="-2.539750">
        <ele>814.921</ele>
        <time>2011-05-14T13:14:47Z</time>
      </trkpt>
      <trkpt lat="42.686180" lon="-2.539740">
        <ele>814.407</ele>
        <time>2011-05-14T13:14:56Z</time>
      </trkpt>
      <trkpt lat="42.686260" lon="-2.539700">
        <ele>814.421</ele>
        <time>2011-05-14T13:15:04Z</time>
      </trkpt>
      <trkpt lat="42.686370" lon="-2.539690">
        <ele>812.972</ele>
        <time>2011-05-14T13:15:19Z</time>
      </trkpt>
      <trkpt lat="42.686370" lon="-2.539580">
        <ele>810.062</ele>
        <time>2011-05-14T13:15:32Z</time>
      </trkpt>
      <trkpt lat="42.686370" lon="-2.539450">
        <ele>806.790</ele>
        <time>2011-05-14T13:15:44Z</time>
      </trkpt>
      <trkpt lat="42.686490" lon="-2.539330">
        <ele>805.368</ele>
        <time>2011-05-14T13:16:44Z</time>
      </trkpt>
      <trkpt lat="42.686550" lon="-2.539290">
        <ele>806.243</ele>
        <time>2011-05-14T13:17:02Z</time>
      </trkpt>
      <trkpt lat="42.686510" lon="-2.539420">
        <ele>810.034</ele>
        <time>2011-05-14T13:26:18Z</time>
      </trkpt>
      <trkpt lat="42.686580" lon="-2.539640">
        <ele>813.997</ele>
        <time>2011-05-14T13:26:39Z</time>
      </trkpt>
      <trkpt lat="42.686630" lon="-2.539740">
        <ele>815.323</ele>
        <time>2011-05-14T13:26:54Z</time>
      </trkpt>
      <trkpt lat="42.686670" lon="-2.539850">
        <ele>815.825</ele>
        <time>2011-05-14T13:27:05Z</time>
      </trkpt>
      <trkpt lat="42.686700" lon="-2.540090">
        <ele>818.707</ele>
        <time>2011-05-14T13:27:25Z</time>
      </trkpt>
      <trkpt lat="42.686710" lon="-2.540300">
        <ele>821.651</ele>
        <time>2011-05-14T13:27:58Z</time>
      </trkpt>
      <trkpt lat="42.686660" lon="-2.540450">
        <ele>823.052</ele>
        <time>2011-05-14T13:28:16Z</time>
      </trkpt>
      <trkpt lat="42.686750" lon="-2.540820">
        <ele>831.772</ele>
        <time>2011-05-14T13:29:07Z</time>
      </trkpt>
      <trkpt lat="42.686200" lon="-2.541500">
        <ele>839.490</ele>
        <time>2011-05-14T13:30:19Z</time>
      </trkpt>
      <trkpt lat="42.686700" lon="-2.541420">
        <ele>842.378</ele>
        <time>2011-05-14T13:30:39Z</time>
      </trkpt>
      <trkpt lat="42.686720" lon="-2.541550">
        <ele>845.153</ele>
        <time>2011-05-14T13:30:56Z</time>
      </trkpt>
      <trkpt lat="42.686530" lon="-2.542390">
        <ele>861.084</ele>
        <time>2011-05-14T13:32:58Z</time>
      </trkpt>
      <trkpt lat="42.686550" lon="-2.542810">
        <ele>875.429</ele>
        <time>2011-05-14T13:34:55Z</time>
      </trkpt>
      <trkpt lat="42.686550" lon="-2.542920">
        <ele>876.400</ele>
        <time>2011-05-14T13:35:09Z</time>
      </trkpt>
      <trkpt lat="42.686590" lon="-2.543000">
        <ele>879.720</ele>
        <time>2011-05-14T13:35:43Z</time>
      </trkpt>
      <trkpt lat="42.686780" lon="-2.542870">
        <ele>886.507</ele>
        <time>2011-05-14T13:36:29Z</time>
      </trkpt>
      <trkpt lat="42.686880" lon="-2.543260">
        <ele>892.294</ele>
        <time>2011-05-14T13:37:31Z</time>
      </trkpt>
      <trkpt lat="42.686940" lon="-2.543380">
        <ele>895.675</ele>
        <time>2011-05-14T13:37:51Z</time>
      </trkpt>
      <trkpt lat="42.687020" lon="-2.543460">
        <ele>899.975</ele>
        <time>2011-05-14T13:38:09Z</time>
      </trkpt>
      <trkpt lat="42.687060" lon="-2.543580">
        <ele>901.893</ele>
        <time>2011-05-14T13:38:27Z</time>
      </trkpt>
      <trkpt lat="42.687130" lon="-2.543620">
        <ele>904.351</ele>
        <time>2011-05-14T13:38:50Z</time>
      </trkpt>
      <trkpt lat="42.687160" lon="-2.543500">
        <ele>905.796</ele>
        <time>2011-05-14T13:39:03Z</time>
      </trkpt>
      <trkpt lat="42.687170" lon="-2.543370">
        <ele>907.687</ele>
        <time>2011-05-14T13:39:15Z</time>
      </trkpt>
      <trkpt lat="42.687190" lon="-2.543260">
        <ele>909.127</ele>
        <time>2011-05-14T13:39:28Z</time>
      </trkpt>
      <trkpt lat="42.687190" lon="-2.543210">
        <ele>907.668</ele>
        <time>2011-05-14T13:41:15Z</time>
      </trkpt>
      <trkpt lat="42.687220" lon="-2.543300">
        <ele>909.614</ele>
        <time>2011-05-14T13:45:06Z</time>
      </trkpt>
      <trkpt lat="42.687180" lon="-2.543430">
        <ele>906.707</ele>
        <time>2011-05-14T13:45:17Z</time>
      </trkpt>
      <trkpt lat="42.687150" lon="-2.543540">
        <ele>904.384</ele>
        <time>2011-05-14T13:45:26Z</time>
      </trkpt>
      <trkpt lat="42.687140" lon="-2.543670">
        <ele>903.835</ele>
        <time>2011-05-14T13:45:36Z</time>
      </trkpt>
      <trkpt lat="42.687130" lon="-2.543780">
        <ele>904.735</ele>
        <time>2011-05-14T13:45:46Z</time>
      </trkpt>
      <trkpt lat="42.687190" lon="-2.543850">
        <ele>907.113</ele>
        <time>2011-05-14T13:45:58Z</time>
      </trkpt>
      <trkpt lat="42.687260" lon="-2.543930">
        <ele>909.691</ele>
        <time>2011-05-14T13:46:10Z</time>
      </trkpt>
      <trkpt lat="42.687510" lon="-2.544090">
        <ele>916.716</ele>
        <time>2011-05-14T13:46:53Z</time>
      </trkpt>
      <trkpt lat="42.687590" lon="-2.544160">
        <ele>919.227</ele>
        <time>2011-05-14T13:47:03Z</time>
      </trkpt>
      <trkpt lat="42.687670" lon="-2.544200">
        <ele>922.588</ele>
        <time>2011-05-14T13:47:16Z</time>
      </trkpt>
      <trkpt lat="42.687750" lon="-2.544180">
        <ele>924.524</ele>
        <time>2011-05-14T13:47:29Z</time>
      </trkpt>
      <trkpt lat="42.687830" lon="-2.544110">
        <ele>926.826</ele>
        <time>2011-05-14T13:47:41Z</time>
      </trkpt>
      <trkpt lat="42.687910" lon="-2.544080">
        <ele>927.807</ele>
        <time>2011-05-14T13:47:59Z</time>
      </trkpt>
      <trkpt lat="42.688000" lon="-2.544100">
        <ele>929.710</ele>
        <time>2011-05-14T13:48:15Z</time>
      </trkpt>
      <trkpt lat="42.687980" lon="-2.544270">
        <ele>932.131</ele>
        <time>2011-05-14T13:48:28Z</time>
      </trkpt>
      <trkpt lat="42.687960" lon="-2.544380">
        <ele>931.291</ele>
        <time>2011-05-14T13:48:41Z</time>
      </trkpt>
      <trkpt lat="42.688010" lon="-2.544450">
        <ele>933.189</ele>
        <time>2011-05-14T13:49:04Z</time>
      </trkpt>
      <trkpt lat="42.688090" lon="-2.544550">
        <ele>935.027</ele>
        <time>2011-05-14T13:49:16Z</time>
      </trkpt>
      <trkpt lat="42.688170" lon="-2.544590">
        <ele>937.492</ele>
        <time>2011-05-14T13:49:28Z</time>
      </trkpt>
      <trkpt lat="42.688200" lon="-2.544580">
        <ele>937.433</ele>
        <time>2011-05-14T13:49:44Z</time>
      </trkpt>
      <trkpt lat="42.688280" lon="-2.544600">
        <ele>941.745</ele>
        <time>2011-05-14T13:50:03Z</time>
      </trkpt>
      <trkpt lat="42.688330" lon="-2.544700">
        <ele>943.747</ele>
        <time>2011-05-14T13:50:18Z</time>
      </trkpt>
      <trkpt lat="42.688420" lon="-2.544710">
        <ele>946.111</ele>
        <time>2011-05-14T13:50:34Z</time>
      </trkpt>
      <trkpt lat="42.688510" lon="-2.544690">
        <ele>945.607</ele>
        <time>2011-05-14T13:50:45Z</time>
      </trkpt>
      <trkpt lat="42.688600" lon="-2.544690">
        <ele>945.116</ele>
        <time>2011-05-14T13:50:55Z</time>
      </trkpt>
      <trkpt lat="42.688700" lon="-2.544660">
        <ele>945.657</ele>
        <time>2011-05-14T13:51:04Z</time>
      </trkpt>
      <trkpt lat="42.688800" lon="-2.544670">
        <ele>945.627</ele>
        <time>2011-05-14T13:51:12Z</time>
      </trkpt>
      <trkpt lat="42.688850" lon="-2.544740">
        <ele>946.615</ele>
        <time>2011-05-14T13:51:31Z</time>
      </trkpt>
      <trkpt lat="42.688880" lon="-2.544740">
        <ele>944.123</ele>
        <time>2011-05-14T13:55:34Z</time>
      </trkpt>
      <trkpt lat="42.688860" lon="-2.544780">
        <ele>946.148</ele>
        <time>2011-05-14T13:57:54Z</time>
      </trkpt>
      <trkpt lat="42.688820" lon="-2.544890">
        <ele>944.189</ele>
        <time>2011-05-14T13:58:36Z</time>
      </trkpt>
      <trkpt lat="42.688790" lon="-2.544990">
        <ele>942.292</ele>
        <time>2011-05-14T13:58:44Z</time>
      </trkpt>
      <trkpt lat="42.688750" lon="-2.545120">
        <ele>941.373</ele>
        <time>2011-05-14T13:58:52Z</time>
      </trkpt>
      <trkpt lat="42.688750" lon="-2.545240">
        <ele>940.820</ele>
        <time>2011-05-14T13:58:59Z</time>
      </trkpt>
      <trkpt lat="42.688710" lon="-2.545360">
        <ele>940.807</ele>
        <time>2011-05-14T13:59:06Z</time>
      </trkpt>
      <trkpt lat="42.688650" lon="-2.545460">
        <ele>940.871</ele>
        <time>2011-05-14T13:59:15Z</time>
      </trkpt>
      <trkpt lat="42.688580" lon="-2.545550">
        <ele>941.352</ele>
        <time>2011-05-14T13:59:24Z</time>
      </trkpt>
      <trkpt lat="42.688530" lon="-2.545660">
        <ele>941.372</ele>
        <time>2011-05-14T13:59:33Z</time>
      </trkpt>
      <trkpt lat="42.688470" lon="-2.545770">
        <ele>939.360</ele>
        <time>2011-05-14T13:59:41Z</time>
      </trkpt>
      <trkpt lat="42.688410" lon="-2.545890">
        <ele>939.338</ele>
        <time>2011-05-14T13:59:49Z</time>
      </trkpt>
      <trkpt lat="42.688370" lon="-2.546010">
        <ele>939.323</ele>
        <time>2011-05-14T13:59:57Z</time>
      </trkpt>
      <trkpt lat="42.688320" lon="-2.546110">
        <ele>938.914</ele>
        <time>2011-05-14T14:00:04Z</time>
      </trkpt>
      <trkpt lat="42.688250" lon="-2.546210">
        <ele>940.377</ele>
        <time>2011-05-14T14:00:12Z</time>
      </trkpt>
      <trkpt lat="42.688190" lon="-2.546300">
        <ele>940.861</ele>
        <time>2011-05-14T14:00:21Z</time>
      </trkpt>
      <trkpt lat="42.688100" lon="-2.546380">
        <ele>940.327</ele>
        <time>2011-05-14T14:00:30Z</time>
      </trkpt>
      <trkpt lat="42.688010" lon="-2.546420">
        <ele>938.907</ele>
        <time>2011-05-14T14:00:38Z</time>
      </trkpt>
      <trkpt lat="42.687920" lon="-2.546460">
        <ele>937.459</ele>
        <time>2011-05-14T14:00:46Z</time>
      </trkpt>
      <trkpt lat="42.687840" lon="-2.546550">
        <ele>937.090</ele>
        <time>2011-05-14T14:00:54Z</time>
      </trkpt>
      <trkpt lat="42.687750" lon="-2.546600">
        <ele>937.080</ele>
        <time>2011-05-14T14:01:01Z</time>
      </trkpt>
      <trkpt lat="42.687670" lon="-2.546680">
        <ele>937.428</ele>
        <time>2011-05-14T14:01:09Z</time>
      </trkpt>
      <trkpt lat="42.687580" lon="-2.546730">
        <ele>937.926</ele>
        <time>2011-05-14T14:01:17Z</time>
      </trkpt>
      <trkpt lat="42.687480" lon="-2.546750">
        <ele>938.471</ele>
        <time>2011-05-14T14:01:25Z</time>
      </trkpt>
      <trkpt lat="42.687380" lon="-2.546770">
        <ele>937.942</ele>
        <time>2011-05-14T14:01:33Z</time>
      </trkpt>
      <trkpt lat="42.687290" lon="-2.546790">
        <ele>939.397</ele>
        <time>2011-05-14T14:01:41Z</time>
      </trkpt>
      <trkpt lat="42.687200" lon="-2.546820">
        <ele>939.823</ele>
        <time>2011-05-14T14:01:49Z</time>
      </trkpt>
      <trkpt lat="42.687100" lon="-2.546860">
        <ele>940.825</ele>
        <time>2011-05-14T14:01:58Z</time>
      </trkpt>
      <trkpt lat="42.687010" lon="-2.546870">
        <ele>941.307</ele>
        <time>2011-05-14T14:02:06Z</time>
      </trkpt>
      <trkpt lat="42.686920" lon="-2.546880">
        <ele>943.291</ele>
        <time>2011-05-14T14:02:14Z</time>
      </trkpt>
      <trkpt lat="42.686820" lon="-2.546870">
        <ele>942.252</ele>
        <time>2011-05-14T14:02:22Z</time>
      </trkpt>
      <trkpt lat="42.686730" lon="-2.546850">
        <ele>942.782</ele>
        <time>2011-05-14T14:02:30Z</time>
      </trkpt>
      <trkpt lat="42.686630" lon="-2.546840">
        <ele>943.260</ele>
        <time>2011-05-14T14:02:41Z</time>
      </trkpt>
      <trkpt lat="42.686530" lon="-2.546850">
        <ele>944.698</ele>
        <time>2011-05-14T14:02:52Z</time>
      </trkpt>
      <trkpt lat="42.686430" lon="-2.546820">
        <ele>945.163</ele>
        <time>2011-05-14T14:02:59Z</time>
      </trkpt>
      <trkpt lat="42.686330" lon="-2.546830">
        <ele>946.164</ele>
        <time>2011-05-14T14:03:07Z</time>
      </trkpt>
      <trkpt lat="42.686240" lon="-2.546840">
        <ele>946.113</ele>
        <time>2011-05-14T14:03:15Z</time>
      </trkpt>
      <trkpt lat="42.686140" lon="-2.546830">
        <ele>947.043</ele>
        <time>2011-05-14T14:03:23Z</time>
      </trkpt>
      <trkpt lat="42.686050" lon="-2.546820">
        <ele>948.007</ele>
        <time>2011-05-14T14:03:31Z</time>
      </trkpt>
      <trkpt lat="42.685950" lon="-2.546810">
        <ele>949.007</ele>
        <time>2011-05-14T14:03:40Z</time>
      </trkpt>
      <trkpt lat="42.685860" lon="-2.546810">
        <ele>949.043</ele>
        <time>2011-05-14T14:03:51Z</time>
      </trkpt>
      <trkpt lat="42.685760" lon="-2.546790">
        <ele>950.474</ele>
        <time>2011-05-14T14:04:05Z</time>
      </trkpt>
      <trkpt lat="42.685680" lon="-2.546750">
        <ele>950.454</ele>
        <time>2011-05-14T14:04:15Z</time>
      </trkpt>
      <trkpt lat="42.685590" lon="-2.546700">
        <ele>950.982</ele>
        <time>2011-05-14T14:04:27Z</time>
      </trkpt>
      <trkpt lat="42.685500" lon="-2.546620">
        <ele>951.860</ele>
        <time>2011-05-14T14:04:35Z</time>
      </trkpt>
      <trkpt lat="42.685440" lon="-2.546530">
        <ele>952.825</ele>
        <time>2011-05-14T14:04:43Z</time>
      </trkpt>
      <trkpt lat="42.685360" lon="-2.546470">
        <ele>954.226</ele>
        <time>2011-05-14T14:04:52Z</time>
      </trkpt>
      <trkpt lat="42.685270" lon="-2.546410">
        <ele>956.232</ele>
        <time>2011-05-14T14:05:01Z</time>
      </trkpt>
      <trkpt lat="42.685190" lon="-2.546360">
        <ele>957.192</ele>
        <time>2011-05-14T14:05:09Z</time>
      </trkpt>
      <trkpt lat="42.685110" lon="-2.546280">
        <ele>957.111</ele>
        <time>2011-05-14T14:05:17Z</time>
      </trkpt>
      <trkpt lat="42.685040" lon="-2.546200">
        <ele>957.107</ele>
        <time>2011-05-14T14:05:24Z</time>
      </trkpt>
      <trkpt lat="42.684960" lon="-2.546130">
        <ele>958.155</ele>
        <time>2011-05-14T14:05:31Z</time>
      </trkpt>
      <trkpt lat="42.684870" lon="-2.546100">
        <ele>959.516</ele>
        <time>2011-05-14T14:05:39Z</time>
      </trkpt>
      <trkpt lat="42.684780" lon="-2.546060">
        <ele>961.036</ele>
        <time>2011-05-14T14:05:48Z</time>
      </trkpt>
      <trkpt lat="42.684690" lon="-2.546020">
        <ele>961.994</ele>
        <time>2011-05-14T14:05:56Z</time>
      </trkpt>
      <trkpt lat="42.684630" lon="-2.545930">
        <ele>964.842</ele>
        <time>2011-05-14T14:06:05Z</time>
      </trkpt>
      <trkpt lat="42.684570" lon="-2.545830">
        <ele>966.377</ele>
        <time>2011-05-14T14:06:14Z</time>
      </trkpt>
      <trkpt lat="42.684520" lon="-2.545720">
        <ele>968.278</ele>
        <time>2011-05-14T14:06:23Z</time>
      </trkpt>
      <trkpt lat="42.684430" lon="-2.545670">
        <ele>969.681</ele>
        <time>2011-05-14T14:06:32Z</time>
      </trkpt>
      <trkpt lat="42.684350" lon="-2.545620">
        <ele>971.161</ele>
        <time>2011-05-14T14:06:41Z</time>
      </trkpt>
      <trkpt lat="42.684270" lon="-2.545550">
        <ele>974.417</ele>
        <time>2011-05-14T14:06:52Z</time>
      </trkpt>
      <trkpt lat="42.684240" lon="-2.545620">
        <ele>974.007</ele>
        <time>2011-05-14T14:07:12Z</time>
      </trkpt>
      <trkpt lat="42.684260" lon="-2.545530">
        <ele>974.470</ele>
        <time>2011-05-14T14:07:25Z</time>
      </trkpt>
      <trkpt lat="42.684270" lon="-2.545540">
        <ele>973.581</ele>
        <time>2011-05-14T14:10:09Z</time>
      </trkpt>
      <trkpt lat="42.684250" lon="-2.545550">
        <ele>973.091</ele>
        <time>2011-05-14T14:10:37Z</time>
      </trkpt>
      <trkpt lat="42.684260" lon="-2.545540">
        <ele>972.069</ele>
        <time>2011-05-14T14:11:19Z</time>
      </trkpt>
      <trkpt lat="42.684330" lon="-2.545580">
        <ele>970.667</ele>
        <time>2011-05-14T14:11:59Z</time>
      </trkpt>
      <trkpt lat="42.684420" lon="-2.545640">
        <ele>969.662</ele>
        <time>2011-05-14T14:12:08Z</time>
      </trkpt>
      <trkpt lat="42.684510" lon="-2.545680">
        <ele>967.253</ele>
        <time>2011-05-14T14:12:16Z</time>
      </trkpt>
      <trkpt lat="42.684570" lon="-2.545770">
        <ele>965.819</ele>
        <time>2011-05-14T14:12:24Z</time>
      </trkpt>
      <trkpt lat="42.684630" lon="-2.545860">
        <ele>965.309</ele>
        <time>2011-05-14T14:12:33Z</time>
      </trkpt>
      <trkpt lat="42.684690" lon="-2.545960">
        <ele>964.319</ele>
        <time>2011-05-14T14:12:40Z</time>
      </trkpt>
      <trkpt lat="42.684760" lon="-2.546020">
        <ele>962.907</ele>
        <time>2011-05-14T14:12:47Z</time>
      </trkpt>
      <trkpt lat="42.684860" lon="-2.546060">
        <ele>960.573</ele>
        <time>2011-05-14T14:12:55Z</time>
      </trkpt>
      <trkpt lat="42.684960" lon="-2.546100">
        <ele>959.124</ele>
        <time>2011-05-14T14:13:03Z</time>
      </trkpt>
      <trkpt lat="42.685030" lon="-2.546170">
        <ele>958.134</ele>
        <time>2011-05-14T14:13:09Z</time>
      </trkpt>
      <trkpt lat="42.685140" lon="-2.546310">
        <ele>956.652</ele>
        <time>2011-05-14T14:13:17Z</time>
      </trkpt>
      <trkpt lat="42.685230" lon="-2.546360">
        <ele>956.220</ele>
        <time>2011-05-14T14:13:24Z</time>
      </trkpt>
      <trkpt lat="42.685310" lon="-2.546410">
        <ele>956.295</ele>
        <time>2011-05-14T14:13:32Z</time>
      </trkpt>
      <trkpt lat="42.685380" lon="-2.546460">
        <ele>954.266</ele>
        <time>2011-05-14T14:13:39Z</time>
      </trkpt>
      <trkpt lat="42.685470" lon="-2.546510">
        <ele>950.937</ele>
        <time>2011-05-14T14:13:47Z</time>
      </trkpt>
      <trkpt lat="42.685530" lon="-2.546600">
        <ele>949.549</ele>
        <time>2011-05-14T14:13:56Z</time>
      </trkpt>
      <trkpt lat="42.685600" lon="-2.546670">
        <ele>949.513</ele>
        <time>2011-05-14T14:14:06Z</time>
      </trkpt>
      <trkpt lat="42.685690" lon="-2.546710">
        <ele>949.907</ele>
        <time>2011-05-14T14:14:14Z</time>
      </trkpt>
      <trkpt lat="42.685780" lon="-2.546740">
        <ele>949.575</ele>
        <time>2011-05-14T14:14:24Z</time>
      </trkpt>
      <trkpt lat="42.685860" lon="-2.546800">
        <ele>949.026</ele>
        <time>2011-05-14T14:14:32Z</time>
      </trkpt>
      <trkpt lat="42.685890" lon="-2.546930">
        <ele>948.066</ele>
        <time>2011-05-14T14:14:40Z</time>
      </trkpt>
      <trkpt lat="42.685910" lon="-2.547050">
        <ele>946.694</ele>
        <time>2011-05-14T14:14:49Z</time>
      </trkpt>
      <trkpt lat="42.685950" lon="-2.547170">
        <ele>945.612</ele>
        <time>2011-05-14T14:14:58Z</time>
      </trkpt>
      <trkpt lat="42.685970" lon="-2.547230">
        <ele>943.717</ele>
        <time>2011-05-14T14:15:56Z</time>
      </trkpt>
      <trkpt lat="42.685980" lon="-2.547280">
        <ele>944.648</ele>
        <time>2011-05-14T14:16:56Z</time>
      </trkpt>
      <trkpt lat="42.686020" lon="-2.547410">
        <ele>944.136</ele>
        <time>2011-05-14T14:17:11Z</time>
      </trkpt>
      <trkpt lat="42.686040" lon="-2.547530">
        <ele>944.117</ele>
        <time>2011-05-14T14:17:19Z</time>
      </trkpt>
      <trkpt lat="42.686080" lon="-2.547650">
        <ele>943.218</ele>
        <time>2011-05-14T14:17:28Z</time>
      </trkpt>
      <trkpt lat="42.686090" lon="-2.547780">
        <ele>940.807</ele>
        <time>2011-05-14T14:17:36Z</time>
      </trkpt>
      <trkpt lat="42.686110" lon="-2.547910">
        <ele>940.315</ele>
        <time>2011-05-14T14:17:44Z</time>
      </trkpt>
      <trkpt lat="42.686130" lon="-2.548040">
        <ele>937.956</ele>
        <time>2011-05-14T14:17:53Z</time>
      </trkpt>
      <trkpt lat="42.686190" lon="-2.548140">
        <ele>937.036</ele>
        <time>2011-05-14T14:18:01Z</time>
      </trkpt>
      <trkpt lat="42.686250" lon="-2.548230">
        <ele>936.064</ele>
        <time>2011-05-14T14:18:10Z</time>
      </trkpt>
      <trkpt lat="42.686320" lon="-2.548310">
        <ele>935.052</ele>
        <time>2011-05-14T14:18:20Z</time>
      </trkpt>
      <trkpt lat="42.686400" lon="-2.548380">
        <ele>934.557</ele>
        <time>2011-05-14T14:18:28Z</time>
      </trkpt>
      <trkpt lat="42.686490" lon="-2.548430">
        <ele>934.528</ele>
        <time>2011-05-14T14:18:36Z</time>
      </trkpt>
      <trkpt lat="42.686570" lon="-2.548490">
        <ele>933.629</ele>
        <time>2011-05-14T14:18:45Z</time>
      </trkpt>
      <trkpt lat="42.686650" lon="-2.548540">
        <ele>933.600</ele>
        <time>2011-05-14T14:18:54Z</time>
      </trkpt>
      <trkpt lat="42.686730" lon="-2.548590">
        <ele>931.720</ele>
        <time>2011-05-14T14:19:02Z</time>
      </trkpt>
      <trkpt lat="42.686820" lon="-2.548650">
        <ele>929.707</ele>
        <time>2011-05-14T14:19:10Z</time>
      </trkpt>
      <trkpt lat="42.686900" lon="-2.548720">
        <ele>928.864</ele>
        <time>2011-05-14T14:19:18Z</time>
      </trkpt>
      <trkpt lat="42.686970" lon="-2.548800">
        <ele>927.845</ele>
        <time>2011-05-14T14:19:26Z</time>
      </trkpt>
      <trkpt lat="42.687040" lon="-2.548910">
        <ele>925.425</ele>
        <time>2011-05-14T14:19:35Z</time>
      </trkpt>
      <trkpt lat="42.687110" lon="-2.548970">
        <ele>923.523</ele>
        <time>2011-05-14T14:19:43Z</time>
      </trkpt>
      <trkpt lat="42.687200" lon="-2.548970">
        <ele>922.511</ele>
        <time>2011-05-14T14:19:52Z</time>
      </trkpt>
      <trkpt lat="42.687300" lon="-2.548990">
        <ele>921.176</ele>
        <time>2011-05-14T14:20:02Z</time>
      </trkpt>
      <trkpt lat="42.687370" lon="-2.549050">
        <ele>919.697</ele>
        <time>2011-05-14T14:20:11Z</time>
      </trkpt>
      <trkpt lat="42.687440" lon="-2.549130">
        <ele>916.724</ele>
        <time>2011-05-14T14:20:22Z</time>
      </trkpt>
      <trkpt lat="42.687510" lon="-2.549210">
        <ele>915.304</ele>
        <time>2011-05-14T14:20:30Z</time>
      </trkpt>
      <trkpt lat="42.687600" lon="-2.549260">
        <ele>913.914</ele>
        <time>2011-05-14T14:20:38Z</time>
      </trkpt>
      <trkpt lat="42.687690" lon="-2.549290">
        <ele>913.907</ele>
        <time>2011-05-14T14:20:46Z</time>
      </trkpt>
      <trkpt lat="42.687770" lon="-2.549370">
        <ele>913.984</ele>
        <time>2011-05-14T14:20:54Z</time>
      </trkpt>
      <trkpt lat="42.687840" lon="-2.549420">
        <ele>913.475</ele>
        <time>2011-05-14T14:21:04Z</time>
      </trkpt>
      <trkpt lat="42.687930" lon="-2.549460">
        <ele>912.025</ele>
        <time>2011-05-14T14:21:12Z</time>
      </trkpt>
      <trkpt lat="42.687930" lon="-2.549580">
        <ele>908.663</ele>
        <time>2011-05-14T14:21:23Z</time>
      </trkpt>
      <trkpt lat="42.687930" lon="-2.549710">
        <ele>906.741</ele>
        <time>2011-05-14T14:21:32Z</time>
      </trkpt>
      <trkpt lat="42.687950" lon="-2.549840">
        <ele>905.736</ele>
        <time>2011-05-14T14:21:40Z</time>
      </trkpt>
      <trkpt lat="42.688000" lon="-2.549950">
        <ele>904.377</ele>
        <time>2011-05-14T14:21:49Z</time>
      </trkpt>
      <trkpt lat="42.688020" lon="-2.550060">
        <ele>903.331</ele>
        <time>2011-05-14T14:21:57Z</time>
      </trkpt>
      <trkpt lat="42.688030" lon="-2.550200">
        <ele>901.461</ele>
        <time>2011-05-14T14:22:07Z</time>
      </trkpt>
      <trkpt lat="42.688050" lon="-2.550330">
        <ele>900.407</ele>
        <time>2011-05-14T14:22:15Z</time>
      </trkpt>
      <trkpt lat="42.688050" lon="-2.550450">
        <ele>899.907</ele>
        <time>2011-05-14T14:22:23Z</time>
      </trkpt>
      <trkpt lat="42.688090" lon="-2.550560">
        <ele>899.075</ele>
        <time>2011-05-14T14:22:31Z</time>
      </trkpt>
      <trkpt lat="42.688130" lon="-2.550680">
        <ele>897.136</ele>
        <time>2011-05-14T14:22:40Z</time>
      </trkpt>
      <trkpt lat="42.688170" lon="-2.550790">
        <ele>896.626</ele>
        <time>2011-05-14T14:22:49Z</time>
      </trkpt>
      <trkpt lat="42.688210" lon="-2.550900">
        <ele>895.164</ele>
        <time>2011-05-14T14:22:57Z</time>
      </trkpt>
      <trkpt lat="42.688230" lon="-2.551030">
        <ele>894.252</ele>
        <time>2011-05-14T14:23:05Z</time>
      </trkpt>
      <trkpt lat="42.688250" lon="-2.551160">
        <ele>892.727</ele>
        <time>2011-05-14T14:23:14Z</time>
      </trkpt>
      <trkpt lat="42.688270" lon="-2.551280">
        <ele>891.868</ele>
        <time>2011-05-14T14:23:22Z</time>
      </trkpt>
      <trkpt lat="42.688300" lon="-2.551380">
        <ele>890.336</ele>
        <time>2011-05-14T14:23:32Z</time>
      </trkpt>
      <trkpt lat="42.688340" lon="-2.551510">
        <ele>888.417</ele>
        <time>2011-05-14T14:23:42Z</time>
      </trkpt>
      <trkpt lat="42.688380" lon="-2.551620">
        <ele>887.418</ele>
        <time>2011-05-14T14:23:50Z</time>
      </trkpt>
      <trkpt lat="42.688410" lon="-2.551740">
        <ele>886.507</ele>
        <time>2011-05-14T14:23:58Z</time>
      </trkpt>
      <trkpt lat="42.688450" lon="-2.551860">
        <ele>885.025</ele>
        <time>2011-05-14T14:24:06Z</time>
      </trkpt>
      <trkpt lat="42.688500" lon="-2.551970">
        <ele>882.646</ele>
        <time>2011-05-14T14:24:14Z</time>
      </trkpt>
      <trkpt lat="42.688540" lon="-2.552090">
        <ele>883.116</ele>
        <time>2011-05-14T14:24:22Z</time>
      </trkpt>
      <trkpt lat="42.688580" lon="-2.552200">
        <ele>882.634</ele>
        <time>2011-05-14T14:24:30Z</time>
      </trkpt>
      <trkpt lat="42.688620" lon="-2.552310">
        <ele>881.722</ele>
        <time>2011-05-14T14:24:52Z</time>
      </trkpt>
      <trkpt lat="42.688640" lon="-2.552430">
        <ele>881.267</ele>
        <time>2011-05-14T14:25:01Z</time>
      </trkpt>
      <trkpt lat="42.688660" lon="-2.552560">
        <ele>880.298</ele>
        <time>2011-05-14T14:25:09Z</time>
      </trkpt>
      <trkpt lat="42.688670" lon="-2.552700">
        <ele>879.721</ele>
        <time>2011-05-14T14:25:18Z</time>
      </trkpt>
      <trkpt lat="42.688690" lon="-2.552820">
        <ele>878.341</ele>
        <time>2011-05-14T14:25:26Z</time>
      </trkpt>
      <trkpt lat="42.688710" lon="-2.552960">
        <ele>876.805</ele>
        <time>2011-05-14T14:25:34Z</time>
      </trkpt>
      <trkpt lat="42.688700" lon="-2.553080">
        <ele>876.407</ele>
        <time>2011-05-14T14:25:42Z</time>
      </trkpt>
      <trkpt lat="42.688680" lon="-2.552990">
        <ele>876.844</ele>
        <time>2011-05-14T14:25:59Z</time>
      </trkpt>
      <trkpt lat="42.688690" lon="-2.553120">
        <ele>875.925</ele>
        <time>2011-05-14T14:26:16Z</time>
      </trkpt>
      <trkpt lat="42.688690" lon="-2.553250">
        <ele>875.965</ele>
        <time>2011-05-14T14:26:25Z</time>
      </trkpt>
      <trkpt lat="42.688710" lon="-2.553370">
        <ele>875.483</ele>
        <time>2011-05-14T14:26:33Z</time>
      </trkpt>
      <trkpt lat="42.688740" lon="-2.553500">
        <ele>873.081</ele>
        <time>2011-05-14T14:26:42Z</time>
      </trkpt>
      <trkpt lat="42.688790" lon="-2.553580">
        <ele>872.116</ele>
        <time>2011-05-14T14:26:58Z</time>
      </trkpt>
      <trkpt lat="42.688790" lon="-2.553710">
        <ele>871.637</ele>
        <time>2011-05-14T14:27:12Z</time>
      </trkpt>
      <trkpt lat="42.688810" lon="-2.553840">
        <ele>870.124</ele>
        <time>2011-05-14T14:27:21Z</time>
      </trkpt>
      <trkpt lat="42.688830" lon="-2.553970">
        <ele>868.204</ele>
        <time>2011-05-14T14:27:29Z</time>
      </trkpt>
      <trkpt lat="42.688850" lon="-2.554090">
        <ele>868.214</ele>
        <time>2011-05-14T14:27:37Z</time>
      </trkpt>
      <trkpt lat="42.688890" lon="-2.554210">
        <ele>866.307</ele>
        <time>2011-05-14T14:27:45Z</time>
      </trkpt>
      <trkpt lat="42.688910" lon="-2.554340">
        <ele>865.384</ele>
        <time>2011-05-14T14:27:54Z</time>
      </trkpt>
      <trkpt lat="42.688930" lon="-2.554460">
        <ele>864.485</ele>
        <time>2011-05-14T14:28:03Z</time>
      </trkpt>
      <trkpt lat="42.688940" lon="-2.554590">
        <ele>863.435</ele>
        <time>2011-05-14T14:28:13Z</time>
      </trkpt>
      <trkpt lat="42.688960" lon="-2.554710">
        <ele>863.953</ele>
        <time>2011-05-14T14:28:21Z</time>
      </trkpt>
      <trkpt lat="42.688990" lon="-2.554840">
        <ele>865.321</ele>
        <time>2011-05-14T14:28:29Z</time>
      </trkpt>
      <trkpt lat="42.689010" lon="-2.554970">
        <ele>864.866</ele>
        <time>2011-05-14T14:28:38Z</time>
      </trkpt>
      <trkpt lat="42.689040" lon="-2.555110">
        <ele>864.897</ele>
        <time>2011-05-14T14:28:46Z</time>
      </trkpt>
      <trkpt lat="42.689080" lon="-2.555220">
        <ele>866.339</ele>
        <time>2011-05-14T14:28:54Z</time>
      </trkpt>
      <trkpt lat="42.689140" lon="-2.555280">
        <ele>866.301</ele>
        <time>2011-05-14T14:29:03Z</time>
      </trkpt>
      <trkpt lat="42.689200" lon="-2.555370">
        <ele>867.221</ele>
        <time>2011-05-14T14:29:13Z</time>
      </trkpt>
      <trkpt lat="42.689240" lon="-2.555500">
        <ele>867.207</ele>
        <time>2011-05-14T14:29:21Z</time>
      </trkpt>
      <trkpt lat="42.689260" lon="-2.555620">
        <ele>867.225</ele>
        <time>2011-05-14T14:29:29Z</time>
      </trkpt>
      <trkpt lat="42.689290" lon="-2.555760">
        <ele>866.896</ele>
        <time>2011-05-14T14:29:37Z</time>
      </trkpt>
      <trkpt lat="42.689300" lon="-2.555880">
        <ele>865.886</ele>
        <time>2011-05-14T14:29:45Z</time>
      </trkpt>
      <trkpt lat="42.689320" lon="-2.556000">
        <ele>865.374</ele>
        <time>2011-05-14T14:29:53Z</time>
      </trkpt>
      <trkpt lat="42.689340" lon="-2.556130">
        <ele>865.872</ele>
        <time>2011-05-14T14:30:01Z</time>
      </trkpt>
      <trkpt lat="42.689350" lon="-2.556260">
        <ele>867.277</ele>
        <time>2011-05-14T14:30:09Z</time>
      </trkpt>
      <trkpt lat="42.689350" lon="-2.556390">
        <ele>867.288</ele>
        <time>2011-05-14T14:30:20Z</time>
      </trkpt>
      <trkpt lat="42.689350" lon="-2.556520">
        <ele>867.712</ele>
        <time>2011-05-14T14:30:28Z</time>
      </trkpt>
      <trkpt lat="42.689370" lon="-2.556750">
        <ele>870.632</ele>
        <time>2011-05-14T14:30:46Z</time>
      </trkpt>
      <trkpt lat="42.689440" lon="-2.556820">
        <ele>870.605</ele>
        <time>2011-05-14T14:30:54Z</time>
      </trkpt>
      <trkpt lat="42.689520" lon="-2.556880">
        <ele>869.707</ele>
        <time>2011-05-14T14:31:04Z</time>
      </trkpt>
      <trkpt lat="42.689690" lon="-2.556990">
        <ele>868.253</ele>
        <time>2011-05-14T14:31:52Z</time>
      </trkpt>
      <trkpt lat="42.689750" lon="-2.557120">
        <ele>868.244</ele>
        <time>2011-05-14T14:32:01Z</time>
      </trkpt>
      <trkpt lat="42.689780" lon="-2.557240">
        <ele>867.744</ele>
        <time>2011-05-14T14:32:19Z</time>
      </trkpt>
      <trkpt lat="42.689850" lon="-2.557340">
        <ele>866.872</ele>
        <time>2011-05-14T14:32:29Z</time>
      </trkpt>
      <trkpt lat="42.689880" lon="-2.557440">
        <ele>867.270</ele>
        <time>2011-05-14T14:32:47Z</time>
      </trkpt>
      <trkpt lat="42.689920" lon="-2.557570">
        <ele>866.355</ele>
        <time>2011-05-14T14:33:01Z</time>
      </trkpt>
      <trkpt lat="42.689960" lon="-2.557690">
        <ele>865.346</ele>
        <time>2011-05-14T14:33:09Z</time>
      </trkpt>
      <trkpt lat="42.690000" lon="-2.557810">
        <ele>864.451</ele>
        <time>2011-05-14T14:33:17Z</time>
      </trkpt>
      <trkpt lat="42.690040" lon="-2.557940">
        <ele>863.901</ele>
        <time>2011-05-14T14:33:25Z</time>
      </trkpt>
      <trkpt lat="42.690080" lon="-2.558060">
        <ele>863.411</ele>
        <time>2011-05-14T14:33:33Z</time>
      </trkpt>
      <trkpt lat="42.690130" lon="-2.558160">
        <ele>862.007</ele>
        <time>2011-05-14T14:33:40Z</time>
      </trkpt>
      <trkpt lat="42.690180" lon="-2.558270">
        <ele>860.047</ele>
        <time>2011-05-14T14:33:48Z</time>
      </trkpt>
      <trkpt lat="42.690260" lon="-2.558370">
        <ele>858.148</ele>
        <time>2011-05-14T14:33:56Z</time>
      </trkpt>
      <trkpt lat="42.690330" lon="-2.558440">
        <ele>856.218</ele>
        <time>2011-05-14T14:34:03Z</time>
      </trkpt>
      <trkpt lat="42.690420" lon="-2.558500">
        <ele>854.396</ele>
        <time>2011-05-14T14:34:10Z</time>
      </trkpt>
      <trkpt lat="42.690580" lon="-2.558640">
        <ele>851.994</ele>
        <time>2011-05-14T14:34:24Z</time>
      </trkpt>
      <trkpt lat="42.690640" lon="-2.558740">
        <ele>849.969</ele>
        <time>2011-05-14T14:34:32Z</time>
      </trkpt>
      <trkpt lat="42.690680" lon="-2.558860">
        <ele>849.990</ele>
        <time>2011-05-14T14:34:40Z</time>
      </trkpt>
      <trkpt lat="42.690730" lon="-2.558960">
        <ele>849.997</ele>
        <time>2011-05-14T14:34:47Z</time>
      </trkpt>
      <trkpt lat="42.690780" lon="-2.559060">
        <ele>849.023</ele>
        <time>2011-05-14T14:34:54Z</time>
      </trkpt>
      <trkpt lat="42.690850" lon="-2.559150">
        <ele>847.525</ele>
        <time>2011-05-14T14:35:01Z</time>
      </trkpt>
      <trkpt lat="42.690900" lon="-2.559270">
        <ele>847.507</ele>
        <time>2011-05-14T14:35:09Z</time>
      </trkpt>
      <trkpt lat="42.690950" lon="-2.559390">
        <ele>846.631</ele>
        <time>2011-05-14T14:35:18Z</time>
      </trkpt>
      <trkpt lat="42.690980" lon="-2.559510">
        <ele>847.192</ele>
        <time>2011-05-14T14:35:26Z</time>
      </trkpt>
      <trkpt lat="42.690980" lon="-2.559640">
        <ele>846.622</ele>
        <time>2011-05-14T14:35:34Z</time>
      </trkpt>
      <trkpt lat="42.690980" lon="-2.559770">
        <ele>845.610</ele>
        <time>2011-05-14T14:35:43Z</time>
      </trkpt>
      <trkpt lat="42.690990" lon="-2.559900">
        <ele>844.738</ele>
        <time>2011-05-14T14:35:51Z</time>
      </trkpt>
      <trkpt lat="42.690990" lon="-2.560030">
        <ele>845.133</ele>
        <time>2011-05-14T14:35:59Z</time>
      </trkpt>
      <trkpt lat="42.691010" lon="-2.560160">
        <ele>845.184</ele>
        <time>2011-05-14T14:36:07Z</time>
      </trkpt>
      <trkpt lat="42.691030" lon="-2.560300">
        <ele>845.177</ele>
        <time>2011-05-14T14:36:15Z</time>
      </trkpt>
      <trkpt lat="42.691070" lon="-2.560410">
        <ele>845.161</ele>
        <time>2011-05-14T14:36:23Z</time>
      </trkpt>
      <trkpt lat="42.691080" lon="-2.560530">
        <ele>845.627</ele>
        <time>2011-05-14T14:36:30Z</time>
      </trkpt>
      <trkpt lat="42.691090" lon="-2.560670">
        <ele>845.107</ele>
        <time>2011-05-14T14:36:38Z</time>
      </trkpt>
      <trkpt lat="42.691100" lon="-2.560800">
        <ele>845.159</ele>
        <time>2011-05-14T14:36:46Z</time>
      </trkpt>
      <trkpt lat="42.691130" lon="-2.560920">
        <ele>844.220</ele>
        <time>2011-05-14T14:36:54Z</time>
      </trkpt>
      <trkpt lat="42.691160" lon="-2.561040">
        <ele>843.290</ele>
        <time>2011-05-14T14:37:02Z</time>
      </trkpt>
      <trkpt lat="42.691180" lon="-2.561170">
        <ele>842.368</ele>
        <time>2011-05-14T14:37:10Z</time>
      </trkpt>
      <trkpt lat="42.691210" lon="-2.561290">
        <ele>841.836</ele>
        <time>2011-05-14T14:37:18Z</time>
      </trkpt>
      <trkpt lat="42.691240" lon="-2.561420">
        <ele>840.861</ele>
        <time>2011-05-14T14:37:26Z</time>
      </trkpt>
      <trkpt lat="42.691270" lon="-2.561540">
        <ele>839.472</ele>
        <time>2011-05-14T14:37:34Z</time>
      </trkpt>
      <trkpt lat="42.691310" lon="-2.561660">
        <ele>838.444</ele>
        <time>2011-05-14T14:37:42Z</time>
      </trkpt>
      <trkpt lat="42.691360" lon="-2.561760">
        <ele>837.005</ele>
        <time>2011-05-14T14:37:50Z</time>
      </trkpt>
      <trkpt lat="42.691410" lon="-2.561860">
        <ele>835.515</ele>
        <time>2011-05-14T14:38:00Z</time>
      </trkpt>
      <trkpt lat="42.691460" lon="-2.561970">
        <ele>834.607</ele>
        <time>2011-05-14T14:38:08Z</time>
      </trkpt>
      <trkpt lat="42.691500" lon="-2.562090">
        <ele>833.126</ele>
        <time>2011-05-14T14:38:16Z</time>
      </trkpt>
      <trkpt lat="42.691560" lon="-2.562190">
        <ele>833.127</ele>
        <time>2011-05-14T14:38:24Z</time>
      </trkpt>
      <trkpt lat="42.691590" lon="-2.562290">
        <ele>833.187</ele>
        <time>2011-05-14T14:38:34Z</time>
      </trkpt>
      <trkpt lat="42.691600" lon="-2.562400">
        <ele>834.125</ele>
        <time>2011-05-14T14:39:09Z</time>
      </trkpt>
      <trkpt lat="42.691630" lon="-2.562530">
        <ele>836.553</ele>
        <time>2011-05-14T14:39:19Z</time>
      </trkpt>
      <trkpt lat="42.691670" lon="-2.562650">
        <ele>835.088</ele>
        <time>2011-05-14T14:39:27Z</time>
      </trkpt>
      <trkpt lat="42.691700" lon="-2.562780">
        <ele>836.029</ele>
        <time>2011-05-14T14:39:35Z</time>
      </trkpt>
      <trkpt lat="42.691740" lon="-2.562910">
        <ele>836.085</ele>
        <time>2011-05-14T14:39:43Z</time>
      </trkpt>
      <trkpt lat="42.691760" lon="-2.563040">
        <ele>837.989</ele>
        <time>2011-05-14T14:39:52Z</time>
      </trkpt>
      <trkpt lat="42.691770" lon="-2.563170">
        <ele>838.917</ele>
        <time>2011-05-14T14:40:04Z</time>
      </trkpt>
      <trkpt lat="42.691780" lon="-2.563290">
        <ele>839.807</ele>
        <time>2011-05-14T14:40:13Z</time>
      </trkpt>
      <trkpt lat="42.691750" lon="-2.563420">
        <ele>842.780</ele>
        <time>2011-05-14T14:40:24Z</time>
      </trkpt>
      <trkpt lat="42.691740" lon="-2.563530">
        <ele>844.271</ele>
        <time>2011-05-14T14:40:34Z</time>
      </trkpt>
      <trkpt lat="42.691760" lon="-2.563660">
        <ele>846.171</ele>
        <time>2011-05-14T14:40:44Z</time>
      </trkpt>
      <trkpt lat="42.691760" lon="-2.563760">
        <ele>845.199</ele>
        <time>2011-05-14T14:41:13Z</time>
      </trkpt>
      <trkpt lat="42.691740" lon="-2.563750">
        <ele>845.197</ele>
        <time>2011-05-14T14:42:14Z</time>
      </trkpt>
      <trkpt lat="42.691710" lon="-2.563750">
        <ele>845.672</ele>
        <time>2011-05-14T14:43:20Z</time>
      </trkpt>
      <trkpt lat="42.691740" lon="-2.563710">
        <ele>845.113</ele>
        <time>2011-05-14T14:45:12Z</time>
      </trkpt>
      <trkpt lat="42.691720" lon="-2.563580">
        <ele>846.129</ele>
        <time>2011-05-14T14:46:21Z</time>
      </trkpt>
      <trkpt lat="42.691720" lon="-2.563460">
        <ele>844.700</ele>
        <time>2011-05-14T14:46:34Z</time>
      </trkpt>
      <trkpt lat="42.691760" lon="-2.563440">
        <ele>842.720</ele>
        <time>2011-05-14T14:48:27Z</time>
      </trkpt>
      <trkpt lat="42.691790" lon="-2.563320">
        <ele>839.807</ele>
        <time>2011-05-14T14:48:39Z</time>
      </trkpt>
      <trkpt lat="42.691870" lon="-2.563250">
        <ele>838.954</ele>
        <time>2011-05-14T14:48:48Z</time>
      </trkpt>
      <trkpt lat="42.691950" lon="-2.563230">
        <ele>834.625</ele>
        <time>2011-05-14T14:48:56Z</time>
      </trkpt>
      <trkpt lat="42.692040" lon="-2.563270">
        <ele>834.615</ele>
        <time>2011-05-14T14:49:07Z</time>
      </trkpt>
      <trkpt lat="42.692130" lon="-2.563320">
        <ele>832.253</ele>
        <time>2011-05-14T14:49:17Z</time>
      </trkpt>
      <trkpt lat="42.692220" lon="-2.563380">
        <ele>833.141</ele>
        <time>2011-05-14T14:49:26Z</time>
      </trkpt>
      <trkpt lat="42.692310" lon="-2.563430">
        <ele>831.216</ele>
        <time>2011-05-14T14:49:34Z</time>
      </trkpt>
      <trkpt lat="42.692400" lon="-2.563470">
        <ele>830.237</ele>
        <time>2011-05-14T14:49:41Z</time>
      </trkpt>
      <trkpt lat="42.692490" lon="-2.563490">
        <ele>827.351</ele>
        <time>2011-05-14T14:49:49Z</time>
      </trkpt>
      <trkpt lat="42.692590" lon="-2.563500">
        <ele>824.501</ele>
        <time>2011-05-14T14:49:57Z</time>
      </trkpt>
      <trkpt lat="42.692690" lon="-2.563480">
        <ele>822.511</ele>
        <time>2011-05-14T14:50:05Z</time>
      </trkpt>
      <trkpt lat="42.692780" lon="-2.563470">
        <ele>821.607</ele>
        <time>2011-05-14T14:50:12Z</time>
      </trkpt>
      <trkpt lat="42.692880" lon="-2.563510">
        <ele>820.627</ele>
        <time>2011-05-14T14:50:19Z</time>
      </trkpt>
      <trkpt lat="42.692960" lon="-2.563570">
        <ele>819.718</ele>
        <time>2011-05-14T14:50:26Z</time>
      </trkpt>
      <trkpt lat="42.693050" lon="-2.563640">
        <ele>819.268</ele>
        <time>2011-05-14T14:50:33Z</time>
      </trkpt>
      <trkpt lat="42.693130" lon="-2.563710">
        <ele>818.796</ele>
        <time>2011-05-14T14:50:41Z</time>
      </trkpt>
      <trkpt lat="42.693200" lon="-2.563790">
        <ele>818.794</ele>
        <time>2011-05-14T14:50:48Z</time>
      </trkpt>
      <trkpt lat="42.693260" lon="-2.563890">
        <ele>818.289</ele>
        <time>2011-05-14T14:50:55Z</time>
      </trkpt>
      <trkpt lat="42.693320" lon="-2.564000">
        <ele>817.740</ele>
        <time>2011-05-14T14:51:03Z</time>
      </trkpt>
      <trkpt lat="42.693380" lon="-2.564100">
        <ele>816.342</ele>
        <time>2011-05-14T14:51:11Z</time>
      </trkpt>
      <trkpt lat="42.693460" lon="-2.564180">
        <ele>815.322</ele>
        <time>2011-05-14T14:51:19Z</time>
      </trkpt>
      <trkpt lat="42.693540" lon="-2.564250">
        <ele>815.814</ele>
        <time>2011-05-14T14:51:27Z</time>
      </trkpt>
      <trkpt lat="42.693630" lon="-2.564310">
        <ele>814.407</ele>
        <time>2011-05-14T14:51:34Z</time>
      </trkpt>
      <trkpt lat="42.693720" lon="-2.564380">
        <ele>813.966</ele>
        <time>2011-05-14T14:51:41Z</time>
      </trkpt>
      <trkpt lat="42.693800" lon="-2.564430">
        <ele>813.477</ele>
        <time>2011-05-14T14:51:48Z</time>
      </trkpt>
      <trkpt lat="42.693890" lon="-2.564470">
        <ele>812.087</ele>
        <time>2011-05-14T14:51:56Z</time>
      </trkpt>
      <trkpt lat="42.693980" lon="-2.564460">
        <ele>811.575</ele>
        <time>2011-05-14T14:52:05Z</time>
      </trkpt>
      <trkpt lat="42.694070" lon="-2.564450">
        <ele>808.663</ele>
        <time>2011-05-14T14:52:14Z</time>
      </trkpt>
      <trkpt lat="42.694170" lon="-2.564430">
        <ele>806.288</ele>
        <time>2011-05-14T14:52:23Z</time>
      </trkpt>
      <trkpt lat="42.694260" lon="-2.564440">
        <ele>803.889</ele>
        <time>2011-05-14T14:52:31Z</time>
      </trkpt>
      <trkpt lat="42.694350" lon="-2.564500">
        <ele>801.426</ele>
        <time>2011-05-14T14:52:39Z</time>
      </trkpt>
      <trkpt lat="42.694440" lon="-2.564580">
        <ele>799.547</ele>
        <time>2011-05-14T14:52:47Z</time>
      </trkpt>
      <trkpt lat="42.694510" lon="-2.564680">
        <ele>796.611</ele>
        <time>2011-05-14T14:52:55Z</time>
      </trkpt>
      <trkpt lat="42.694560" lon="-2.564780">
        <ele>794.207</ele>
        <time>2011-05-14T14:53:03Z</time>
      </trkpt>
      <trkpt lat="42.694620" lon="-2.564880">
        <ele>790.894</ele>
        <time>2011-05-14T14:53:11Z</time>
      </trkpt>
      <trkpt lat="42.694650" lon="-2.564990">
        <ele>788.985</ele>
        <time>2011-05-14T14:53:18Z</time>
      </trkpt>
      <trkpt lat="42.694690" lon="-2.565100">
        <ele>788.475</ele>
        <time>2011-05-14T14:53:25Z</time>
      </trkpt>
      <trkpt lat="42.694750" lon="-2.565200">
        <ele>787.533</ele>
        <time>2011-05-14T14:53:32Z</time>
      </trkpt>
      <trkpt lat="42.694810" lon="-2.565310">
        <ele>785.511</ele>
        <time>2011-05-14T14:53:40Z</time>
      </trkpt>
      <trkpt lat="42.694880" lon="-2.565390">
        <ele>784.146</ele>
        <time>2011-05-14T14:53:47Z</time>
      </trkpt>
      <trkpt lat="42.694960" lon="-2.565460">
        <ele>782.227</ele>
        <time>2011-05-14T14:53:54Z</time>
      </trkpt>
      <trkpt lat="42.695040" lon="-2.565540">
        <ele>781.219</ele>
        <time>2011-05-14T14:54:01Z</time>
      </trkpt>
      <trkpt lat="42.695110" lon="-2.565610">
        <ele>779.809</ele>
        <time>2011-05-14T14:54:08Z</time>
      </trkpt>
      <trkpt lat="42.695170" lon="-2.565720">
        <ele>778.819</ele>
        <time>2011-05-14T14:54:15Z</time>
      </trkpt>
      <trkpt lat="42.695220" lon="-2.565830">
        <ele>776.907</ele>
        <time>2011-05-14T14:54:22Z</time>
      </trkpt>
      <trkpt lat="42.695290" lon="-2.565900">
        <ele>774.523</ele>
        <time>2011-05-14T14:54:29Z</time>
      </trkpt>
      <trkpt lat="42.695380" lon="-2.565940">
        <ele>771.644</ele>
        <time>2011-05-14T14:54:36Z</time>
      </trkpt>
      <trkpt lat="42.695470" lon="-2.566000">
        <ele>770.144</ele>
        <time>2011-05-14T14:54:44Z</time>
      </trkpt>
      <trkpt lat="42.695570" lon="-2.566040">
        <ele>768.222</ele>
        <time>2011-05-14T14:54:52Z</time>
      </trkpt>
      <trkpt lat="42.695660" lon="-2.566070">
        <ele>765.420</ele>
        <time>2011-05-14T14:55:00Z</time>
      </trkpt>
      <trkpt lat="42.695750" lon="-2.566110">
        <ele>763.425</ele>
        <time>2011-05-14T14:55:07Z</time>
      </trkpt>
      <trkpt lat="42.695840" lon="-2.566170">
        <ele>761.586</ele>
        <time>2011-05-14T14:55:15Z</time>
      </trkpt>
      <trkpt lat="42.695920" lon="-2.566240">
        <ele>759.634</ele>
        <time>2011-05-14T14:55:22Z</time>
      </trkpt>
      <trkpt lat="42.696000" lon="-2.566300">
        <ele>758.655</ele>
        <time>2011-05-14T14:55:29Z</time>
      </trkpt>
      <trkpt lat="42.696100" lon="-2.566330">
        <ele>755.710</ele>
        <time>2011-05-14T14:55:37Z</time>
      </trkpt>
      <trkpt lat="42.696180" lon="-2.566400">
        <ele>754.807</ele>
        <time>2011-05-14T14:55:45Z</time>
      </trkpt>
      <trkpt lat="42.696240" lon="-2.566510">
        <ele>752.465</ele>
        <time>2011-05-14T14:55:53Z</time>
      </trkpt>
      <trkpt lat="42.696290" lon="-2.566630">
        <ele>750.496</ele>
        <time>2011-05-14T14:56:01Z</time>
      </trkpt>
      <trkpt lat="42.696350" lon="-2.566740">
        <ele>747.116</ele>
        <time>2011-05-14T14:56:09Z</time>
      </trkpt>
      <trkpt lat="42.696420" lon="-2.566830">
        <ele>745.644</ele>
        <time>2011-05-14T14:56:17Z</time>
      </trkpt>
      <trkpt lat="42.696470" lon="-2.566930">
        <ele>743.782</ele>
        <time>2011-05-14T14:56:24Z</time>
      </trkpt>
      <trkpt lat="42.696530" lon="-2.567040">
        <ele>741.837</ele>
        <time>2011-05-14T14:56:31Z</time>
      </trkpt>
      <trkpt lat="42.696600" lon="-2.567130">
        <ele>740.428</ele>
        <time>2011-05-14T14:56:38Z</time>
      </trkpt>
      <trkpt lat="42.696670" lon="-2.567210">
        <ele>739.497</ele>
        <time>2011-05-14T14:56:45Z</time>
      </trkpt>
      <trkpt lat="42.696740" lon="-2.567300">
        <ele>738.923</ele>
        <time>2011-05-14T14:56:52Z</time>
      </trkpt>
      <trkpt lat="42.696800" lon="-2.567400">
        <ele>738.925</ele>
        <time>2011-05-14T14:57:01Z</time>
      </trkpt>
      <trkpt lat="42.696850" lon="-2.567520">
        <ele>738.407</ele>
        <time>2011-05-14T14:57:08Z</time>
      </trkpt>
      <trkpt lat="42.696900" lon="-2.567640">
        <ele>738.931</ele>
        <time>2011-05-14T14:57:15Z</time>
      </trkpt>
      <trkpt lat="42.696970" lon="-2.567730">
        <ele>738.932</ele>
        <time>2011-05-14T14:57:23Z</time>
      </trkpt>
      <trkpt lat="42.697040" lon="-2.567820">
        <ele>738.072</ele>
        <time>2011-05-14T14:57:30Z</time>
      </trkpt>
      <trkpt lat="42.697100" lon="-2.567920">
        <ele>737.030</ele>
        <time>2011-05-14T14:57:37Z</time>
      </trkpt>
      <trkpt lat="42.697140" lon="-2.568030">
        <ele>736.518</ele>
        <time>2011-05-14T14:57:44Z</time>
      </trkpt>
      <trkpt lat="42.697160" lon="-2.568160">
        <ele>736.523</ele>
        <time>2011-05-14T14:57:51Z</time>
      </trkpt>
      <trkpt lat="42.697170" lon="-2.568280">
        <ele>735.184</ele>
        <time>2011-05-14T14:57:58Z</time>
      </trkpt>
      <trkpt lat="42.697190" lon="-2.568400">
        <ele>732.658</ele>
        <time>2011-05-14T14:58:05Z</time>
      </trkpt>
      <trkpt lat="42.697230" lon="-2.568510">
        <ele>731.752</ele>
        <time>2011-05-14T14:58:12Z</time>
      </trkpt>
      <trkpt lat="42.697300" lon="-2.568590">
        <ele>730.317</ele>
        <time>2011-05-14T14:58:19Z</time>
      </trkpt>
      <trkpt lat="42.697410" lon="-2.568620">
        <ele>728.807</ele>
        <time>2011-05-14T14:58:27Z</time>
      </trkpt>
      <trkpt lat="42.697500" lon="-2.568620">
        <ele>726.437</ele>
        <time>2011-05-14T14:58:34Z</time>
      </trkpt>
      <trkpt lat="42.697580" lon="-2.568650">
        <ele>724.588</ele>
        <time>2011-05-14T14:58:41Z</time>
      </trkpt>
      <trkpt lat="42.697670" lon="-2.568710">
        <ele>722.668</ele>
        <time>2011-05-14T14:58:48Z</time>
      </trkpt>
      <trkpt lat="42.697750" lon="-2.568770">
        <ele>719.796</ele>
        <time>2011-05-14T14:58:55Z</time>
      </trkpt>
      <trkpt lat="42.697840" lon="-2.568820">
        <ele>717.364</ele>
        <time>2011-05-14T14:59:03Z</time>
      </trkpt>
      <trkpt lat="42.697920" lon="-2.568790">
        <ele>716.859</ele>
        <time>2011-05-14T14:59:10Z</time>
      </trkpt>
      <trkpt lat="42.697980" lon="-2.568700">
        <ele>715.480</ele>
        <time>2011-05-14T14:59:17Z</time>
      </trkpt>
      <trkpt lat="42.698040" lon="-2.568590">
        <ele>714.475</ele>
        <time>2011-05-14T14:59:24Z</time>
      </trkpt>
      <trkpt lat="42.698080" lon="-2.568480">
        <ele>712.528</ele>
        <time>2011-05-14T14:59:31Z</time>
      </trkpt>
      <trkpt lat="42.698140" lon="-2.568380">
        <ele>710.520</ele>
        <time>2011-05-14T14:59:38Z</time>
      </trkpt>
      <trkpt lat="42.698190" lon="-2.568260">
        <ele>709.607</ele>
        <time>2011-05-14T14:59:45Z</time>
      </trkpt>
      <trkpt lat="42.698250" lon="-2.568160">
        <ele>707.749</ele>
        <time>2011-05-14T14:59:55Z</time>
      </trkpt>
      <trkpt lat="42.698330" lon="-2.568070">
        <ele>705.730</ele>
        <time>2011-05-14T15:00:05Z</time>
      </trkpt>
      <trkpt lat="42.698390" lon="-2.568030">
        <ele>704.880</ele>
        <time>2011-05-14T15:00:24Z</time>
      </trkpt>
      <trkpt lat="42.698460" lon="-2.567980">
        <ele>703.438</ele>
        <time>2011-05-14T15:00:49Z</time>
      </trkpt>
      <trkpt lat="42.698560" lon="-2.567930">
        <ele>701.976</ele>
        <time>2011-05-14T15:01:00Z</time>
      </trkpt>
      <trkpt lat="42.698640" lon="-2.567880">
        <ele>700.561</ele>
        <time>2011-05-14T15:01:08Z</time>
      </trkpt>
      <trkpt lat="42.698740" lon="-2.567840">
        <ele>699.592</ele>
        <time>2011-05-14T15:01:16Z</time>
      </trkpt>
      <trkpt lat="42.698830" lon="-2.567800">
        <ele>699.529</ele>
        <time>2011-05-14T15:01:24Z</time>
      </trkpt>
      <trkpt lat="42.698930" lon="-2.567790">
        <ele>698.500</ele>
        <time>2011-05-14T15:01:33Z</time>
      </trkpt>
      <trkpt lat="42.699030" lon="-2.567770">
        <ele>698.120</ele>
        <time>2011-05-14T15:01:41Z</time>
      </trkpt>
      <trkpt lat="42.699140" lon="-2.567780">
        <ele>698.107</ele>
        <time>2011-05-14T15:01:49Z</time>
      </trkpt>
      <trkpt lat="42.699240" lon="-2.567800">
        <ele>698.154</ele>
        <time>2011-05-14T15:01:57Z</time>
      </trkpt>
      <trkpt lat="42.699330" lon="-2.567830">
        <ele>698.525</ele>
        <time>2011-05-14T15:02:04Z</time>
      </trkpt>
      <trkpt lat="42.699420" lon="-2.567870">
        <ele>698.125</ele>
        <time>2011-05-14T15:02:11Z</time>
      </trkpt>
      <trkpt lat="42.699510" lon="-2.567910">
        <ele>698.593</ele>
        <time>2011-05-14T15:02:18Z</time>
      </trkpt>
      <trkpt lat="42.699590" lon="-2.567970">
        <ele>698.541</ele>
        <time>2011-05-14T15:02:25Z</time>
      </trkpt>
      <trkpt lat="42.699660" lon="-2.568050">
        <ele>699.586</ele>
        <time>2011-05-14T15:02:33Z</time>
      </trkpt>
      <trkpt lat="42.699740" lon="-2.568130">
        <ele>699.067</ele>
        <time>2011-05-14T15:02:41Z</time>
      </trkpt>
      <trkpt lat="42.699820" lon="-2.568200">
        <ele>699.029</ele>
        <time>2011-05-14T15:02:49Z</time>
      </trkpt>
      <trkpt lat="42.699900" lon="-2.568270">
        <ele>699.000</ele>
        <time>2011-05-14T15:02:57Z</time>
      </trkpt>
      <trkpt lat="42.700000" lon="-2.568300">
        <ele>698.520</ele>
        <time>2011-05-14T15:03:06Z</time>
      </trkpt>
      <trkpt lat="42.700100" lon="-2.568250">
        <ele>698.507</ele>
        <time>2011-05-14T15:03:15Z</time>
      </trkpt>
      <trkpt lat="42.700170" lon="-2.568150">
        <ele>696.674</ele>
        <time>2011-05-14T15:03:23Z</time>
      </trkpt>
      <trkpt lat="42.700230" lon="-2.568040">
        <ele>696.675</ele>
        <time>2011-05-14T15:03:30Z</time>
      </trkpt>
      <trkpt lat="42.700270" lon="-2.567930">
        <ele>696.185</ele>
        <time>2011-05-14T15:03:37Z</time>
      </trkpt>
      <trkpt lat="42.700300" lon="-2.567830">
        <ele>695.653</ele>
        <time>2011-05-14T15:03:48Z</time>
      </trkpt>
      <trkpt lat="42.700360" lon="-2.567720">
        <ele>695.281</ele>
        <time>2011-05-14T15:03:56Z</time>
      </trkpt>
      <trkpt lat="42.700410" lon="-2.567620">
        <ele>695.296</ele>
        <time>2011-05-14T15:04:03Z</time>
      </trkpt>
      <trkpt lat="42.700450" lon="-2.567500">
        <ele>694.727</ele>
        <time>2011-05-14T15:04:10Z</time>
      </trkpt>
      <trkpt lat="42.700470" lon="-2.567390">
        <ele>694.728</ele>
        <time>2011-05-14T15:04:24Z</time>
      </trkpt>
      <trkpt lat="42.700510" lon="-2.567270">
        <ele>694.789</ele>
        <time>2011-05-14T15:04:32Z</time>
      </trkpt>
      <trkpt lat="42.700560" lon="-2.567150">
        <ele>694.717</ele>
        <time>2011-05-14T15:04:40Z</time>
      </trkpt>
      <trkpt lat="42.700630" lon="-2.567060">
        <ele>694.207</ele>
        <time>2011-05-14T15:04:47Z</time>
      </trkpt>
      <trkpt lat="42.700680" lon="-2.566950">
        <ele>693.764</ele>
        <time>2011-05-14T15:04:54Z</time>
      </trkpt>
      <trkpt lat="42.700730" lon="-2.566850">
        <ele>693.215</ele>
        <time>2011-05-14T15:05:01Z</time>
      </trkpt>
      <trkpt lat="42.700800" lon="-2.566760">
        <ele>692.895</ele>
        <time>2011-05-14T15:05:09Z</time>
      </trkpt>
      <trkpt lat="42.700880" lon="-2.566680">
        <ele>692.313</ele>
        <time>2011-05-14T15:05:19Z</time>
      </trkpt>
      <trkpt lat="42.700950" lon="-2.566620">
        <ele>691.331</ele>
        <time>2011-05-14T15:05:36Z</time>
      </trkpt>
      <trkpt lat="42.701030" lon="-2.566550">
        <ele>690.426</ele>
        <time>2011-05-14T15:05:44Z</time>
      </trkpt>
      <trkpt lat="42.701110" lon="-2.566490">
        <ele>690.957</ele>
        <time>2011-05-14T15:05:51Z</time>
      </trkpt>
      <trkpt lat="42.701190" lon="-2.566410">
        <ele>689.976</ele>
        <time>2011-05-14T15:05:58Z</time>
      </trkpt>
      <trkpt lat="42.701260" lon="-2.566320">
        <ele>689.990</ele>
        <time>2011-05-14T15:06:05Z</time>
      </trkpt>
      <trkpt lat="42.701320" lon="-2.566240">
        <ele>689.919</ele>
        <time>2011-05-14T15:06:12Z</time>
      </trkpt>
      <trkpt lat="42.701390" lon="-2.566150">
        <ele>689.907</ele>
        <time>2011-05-14T15:06:19Z</time>
      </trkpt>
      <trkpt lat="42.701470" lon="-2.566090">
        <ele>690.489</ele>
        <time>2011-05-14T15:06:26Z</time>
      </trkpt>
      <trkpt lat="42.701550" lon="-2.566040">
        <ele>689.460</ele>
        <time>2011-05-14T15:06:33Z</time>
      </trkpt>
      <trkpt lat="42.701630" lon="-2.565980">
        <ele>689.420</ele>
        <time>2011-05-14T15:06:40Z</time>
      </trkpt>
      <trkpt lat="42.701720" lon="-2.565910">
        <ele>689.468</ele>
        <time>2011-05-14T15:06:47Z</time>
      </trkpt>
      <trkpt lat="42.701790" lon="-2.565850">
        <ele>689.926</ele>
        <time>2011-05-14T15:06:54Z</time>
      </trkpt>
      <trkpt lat="42.701850" lon="-2.565760">
        <ele>689.991</ele>
        <time>2011-05-14T15:07:01Z</time>
      </trkpt>
      <trkpt lat="42.701910" lon="-2.565680">
        <ele>689.492</ele>
        <time>2011-05-14T15:07:24Z</time>
      </trkpt>
      <trkpt lat="42.701920" lon="-2.565560">
        <ele>689.438</ele>
        <time>2011-05-14T15:07:35Z</time>
      </trkpt>
      <trkpt lat="42.701920" lon="-2.565440">
        <ele>689.970</ele>
        <time>2011-05-14T15:07:43Z</time>
      </trkpt>
      <trkpt lat="42.701930" lon="-2.565310">
        <ele>689.917</ele>
        <time>2011-05-14T15:07:51Z</time>
      </trkpt>
      <trkpt lat="42.701960" lon="-2.565180">
        <ele>690.907</ele>
        <time>2011-05-14T15:07:59Z</time>
      </trkpt>
      <trkpt lat="42.702020" lon="-2.565060">
        <ele>691.345</ele>
        <time>2011-05-14T15:08:07Z</time>
      </trkpt>
      <trkpt lat="42.702080" lon="-2.564950">
        <ele>691.316</ele>
        <time>2011-05-14T15:08:15Z</time>
      </trkpt>
      <trkpt lat="42.702150" lon="-2.564840">
        <ele>691.326</ele>
        <time>2011-05-14T15:08:23Z</time>
      </trkpt>
      <trkpt lat="42.702200" lon="-2.564730">
        <ele>691.324</ele>
        <time>2011-05-14T15:08:31Z</time>
      </trkpt>
      <trkpt lat="42.702280" lon="-2.564680">
        <ele>691.382</ele>
        <time>2011-05-14T15:08:40Z</time>
      </trkpt>
      <trkpt lat="42.702360" lon="-2.564610">
        <ele>691.897</ele>
        <time>2011-05-14T15:08:52Z</time>
      </trkpt>
      <trkpt lat="42.702400" lon="-2.564610">
        <ele>691.338</ele>
        <time>2011-05-14T15:09:06Z</time>
      </trkpt>
      <trkpt lat="42.702420" lon="-2.564690">
        <ele>691.881</ele>
        <time>2011-05-14T15:09:43Z</time>
      </trkpt>
      <trkpt lat="42.702430" lon="-2.564760">
        <ele>691.361</ele>
        <time>2011-05-14T15:10:53Z</time>
      </trkpt>
      <trkpt lat="42.702510" lon="-2.564800">
        <ele>691.317</ele>
        <time>2011-05-14T15:11:03Z</time>
      </trkpt>
      <trkpt lat="42.702410" lon="-2.564730">
        <ele>687.096</ele>
        <time>2011-06-18T15:17:48Z</time>
      </trkpt>
      <trkpt lat="42.702420" lon="-2.564750">
        <ele>691.331</ele>
        <time>2011-06-18T15:17:22Z</time>
      </trkpt>
      <trkpt lat="42.702400" lon="-2.564860">
        <ele>691.324</ele>
        <time>2011-06-18T15:17:12Z</time>
      </trkpt>
      <trkpt lat="42.702380" lon="-2.564980">
        <ele>690.407</ele>
        <time>2011-06-18T15:17:04Z</time>
      </trkpt>
      <trkpt lat="42.702350" lon="-2.565110">
        <ele>690.971</ele>
        <time>2011-06-18T15:16:56Z</time>
      </trkpt>
      <trkpt lat="42.702350" lon="-2.565250">
        <ele>689.922</ele>
        <time>2011-06-18T15:16:48Z</time>
      </trkpt>
      <trkpt lat="42.702370" lon="-2.565380">
        <ele>690.922</ele>
        <time>2011-06-18T15:16:40Z</time>
      </trkpt>
      <trkpt lat="42.702430" lon="-2.565500">
        <ele>690.461</ele>
        <time>2011-06-18T15:16:32Z</time>
      </trkpt>
      <trkpt lat="42.702480" lon="-2.565590">
        <ele>691.856</ele>
        <time>2011-06-18T15:16:25Z</time>
      </trkpt>
      <trkpt lat="42.702540" lon="-2.565690">
        <ele>691.347</ele>
        <time>2011-06-18T15:16:18Z</time>
      </trkpt>
      <trkpt lat="42.702590" lon="-2.565800">
        <ele>691.311</ele>
        <time>2011-06-18T15:16:11Z</time>
      </trkpt>
      <trkpt lat="42.702640" lon="-2.565910">
        <ele>692.363</ele>
        <time>2011-06-18T15:16:04Z</time>
      </trkpt>
      <trkpt lat="42.702670" lon="-2.566030">
        <ele>692.344</ele>
        <time>2011-06-18T15:15:57Z</time>
      </trkpt>
      <trkpt lat="42.702680" lon="-2.566160">
        <ele>692.318</ele>
        <time>2011-06-18T15:15:50Z</time>
      </trkpt>
      <trkpt lat="42.702680" lon="-2.566280">
        <ele>693.207</ele>
        <time>2011-06-18T15:15:43Z</time>
      </trkpt>
      <trkpt lat="42.702680" lon="-2.566410">
        <ele>693.298</ele>
        <time>2011-06-18T15:15:36Z</time>
      </trkpt>
      <trkpt lat="42.702680" lon="-2.566540">
        <ele>692.359</ele>
        <time>2011-06-18T15:15:29Z</time>
      </trkpt>
      <trkpt lat="42.702670" lon="-2.566660">
        <ele>692.829</ele>
        <time>2011-06-18T15:15:22Z</time>
      </trkpt>
      <trkpt lat="42.702700" lon="-2.566780">
        <ele>694.278</ele>
        <time>2011-06-18T15:15:15Z</time>
      </trkpt>
      <trkpt lat="42.702700" lon="-2.566910">
        <ele>694.223</ele>
        <time>2011-06-18T15:15:08Z</time>
      </trkpt>
      <trkpt lat="42.702700" lon="-2.567030">
        <ele>696.154</ele>
        <time>2011-06-18T15:15:01Z</time>
      </trkpt>
      <trkpt lat="42.702700" lon="-2.567160">
        <ele>695.228</ele>
        <time>2011-06-18T15:14:54Z</time>
      </trkpt>
      <trkpt lat="42.702700" lon="-2.567280">
        <ele>695.614</ele>
        <time>2011-06-18T15:14:47Z</time>
      </trkpt>
      <trkpt lat="42.702720" lon="-2.567410">
        <ele>695.254</ele>
        <time>2011-06-18T15:14:40Z</time>
      </trkpt>
      <trkpt lat="42.702740" lon="-2.567530">
        <ele>696.109</ele>
        <time>2011-06-18T15:14:33Z</time>
      </trkpt>
      <trkpt lat="42.702760" lon="-2.567660">
        <ele>696.107</ele>
        <time>2011-06-18T15:14:26Z</time>
      </trkpt>
      <trkpt lat="42.702790" lon="-2.567770">
        <ele>696.643</ele>
        <time>2011-06-18T15:14:19Z</time>
      </trkpt>
      <trkpt lat="42.702820" lon="-2.567890">
        <ele>697.134</ele>
        <time>2011-06-18T15:14:12Z</time>
      </trkpt>
      <trkpt lat="42.702860" lon="-2.568000">
        <ele>698.544</ele>
        <time>2011-06-18T15:14:05Z</time>
      </trkpt>
      <trkpt lat="42.702880" lon="-2.568130">
        <ele>700.053</ele>
        <time>2011-06-18T15:13:57Z</time>
      </trkpt>
      <trkpt lat="42.702910" lon="-2.568260">
        <ele>700.928</ele>
        <time>2011-06-18T15:13:49Z</time>
      </trkpt>
      <trkpt lat="42.702930" lon="-2.568390">
        <ele>701.949</ele>
        <time>2011-06-18T15:13:41Z</time>
      </trkpt>
      <trkpt lat="42.702940" lon="-2.568520">
        <ele>701.913</ele>
        <time>2011-06-18T15:13:33Z</time>
      </trkpt>
      <trkpt lat="42.702960" lon="-2.568650">
        <ele>701.458</ele>
        <time>2011-06-18T15:13:25Z</time>
      </trkpt>
      <trkpt lat="42.702980" lon="-2.568770">
        <ele>702.952</ele>
        <time>2011-06-18T15:13:18Z</time>
      </trkpt>
      <trkpt lat="42.702990" lon="-2.568900">
        <ele>704.317</ele>
        <time>2011-06-18T15:13:11Z</time>
      </trkpt>
      <trkpt lat="42.702990" lon="-2.569040">
        <ele>707.207</ele>
        <time>2011-06-18T15:13:03Z</time>
      </trkpt>
      <trkpt lat="42.702990" lon="-2.569180">
        <ele>707.247</ele>
        <time>2011-06-18T15:12:55Z</time>
      </trkpt>
      <trkpt lat="42.702990" lon="-2.569320">
        <ele>709.158</ele>
        <time>2011-06-18T15:12:47Z</time>
      </trkpt>
      <trkpt lat="42.702990" lon="-2.569460">
        <ele>709.688</ele>
        <time>2011-06-18T15:12:39Z</time>
      </trkpt>
      <trkpt lat="42.702980" lon="-2.569590">
        <ele>710.577</ele>
        <time>2011-06-18T15:12:31Z</time>
      </trkpt>
      <trkpt lat="42.702970" lon="-2.569710">
        <ele>711.572</ele>
        <time>2011-06-18T15:12:24Z</time>
      </trkpt>
      <trkpt lat="42.702970" lon="-2.569840">
        <ele>713.063</ele>
        <time>2011-06-18T15:12:16Z</time>
      </trkpt>
      <trkpt lat="42.702970" lon="-2.569970">
        <ele>714.987</ele>
        <time>2011-06-18T15:12:08Z</time>
      </trkpt>
      <trkpt lat="42.702970" lon="-2.570110">
        <ele>716.832</ele>
        <time>2011-06-18T15:11:59Z</time>
      </trkpt>
      <trkpt lat="42.702980" lon="-2.570230">
        <ele>719.292</ele>
        <time>2011-06-18T15:11:51Z</time>
      </trkpt>
      <trkpt lat="42.702990" lon="-2.570360">
        <ele>721.111</ele>
        <time>2011-06-18T15:11:43Z</time>
      </trkpt>
      <trkpt lat="42.703020" lon="-2.570470">
        <ele>722.107</ele>
        <time>2011-06-18T15:11:35Z</time>
      </trkpt>
      <trkpt lat="42.703070" lon="-2.570580">
        <ele>723.515</ele>
        <time>2011-06-18T15:11:27Z</time>
      </trkpt>
      <trkpt lat="42.703160" lon="-2.570660">
        <ele>725.516</ele>
        <time>2011-06-18T15:11:19Z</time>
      </trkpt>
      <trkpt lat="42.703240" lon="-2.570710">
        <ele>726.946</ele>
        <time>2011-06-18T15:11:12Z</time>
      </trkpt>
      <trkpt lat="42.703340" lon="-2.570770">
        <ele>730.365</ele>
        <time>2011-06-18T15:11:04Z</time>
      </trkpt>
      <trkpt lat="42.703410" lon="-2.570870">
        <ele>731.210</ele>
        <time>2011-06-18T15:10:56Z</time>
      </trkpt>
      <trkpt lat="42.703470" lon="-2.570980">
        <ele>733.671</ele>
        <time>2011-06-18T15:10:48Z</time>
      </trkpt>
      <trkpt lat="42.703520" lon="-2.571110">
        <ele>735.185</ele>
        <time>2011-06-18T15:10:40Z</time>
      </trkpt>
      <trkpt lat="42.703540" lon="-2.571240">
        <ele>736.032</ele>
        <time>2011-06-18T15:10:32Z</time>
      </trkpt>
      <trkpt lat="42.703560" lon="-2.571380">
        <ele>738.092</ele>
        <time>2011-06-18T15:10:24Z</time>
      </trkpt>
      <trkpt lat="42.703560" lon="-2.571520">
        <ele>738.911</ele>
        <time>2011-06-18T15:10:16Z</time>
      </trkpt>
      <trkpt lat="42.703540" lon="-2.571640">
        <ele>740.807</ele>
        <time>2011-06-18T15:10:09Z</time>
      </trkpt>
      <trkpt lat="42.703510" lon="-2.571780">
        <ele>742.835</ele>
        <time>2011-06-18T15:10:00Z</time>
      </trkpt>
      <trkpt lat="42.703470" lon="-2.571900">
        <ele>744.236</ele>
        <time>2011-06-18T15:09:52Z</time>
      </trkpt>
      <trkpt lat="42.703440" lon="-2.572020">
        <ele>746.636</ele>
        <time>2011-06-18T15:09:42Z</time>
      </trkpt>
      <trkpt lat="42.703440" lon="-2.572140">
        <ele>746.675</ele>
        <time>2011-06-18T15:06:57Z</time>
      </trkpt>
      <trkpt lat="42.703470" lon="-2.572240">
        <ele>749.010</ele>
        <time>2011-06-18T15:06:11Z</time>
      </trkpt>
      <trkpt lat="42.703530" lon="-2.572330">
        <ele>749.081</ele>
        <time>2011-06-18T15:05:31Z</time>
      </trkpt>
      <trkpt lat="42.703610" lon="-2.572380">
        <ele>749.585</ele>
        <time>2011-06-18T15:05:19Z</time>
      </trkpt>
      <trkpt lat="42.703670" lon="-2.572450">
        <ele>750.064</ele>
        <time>2011-06-18T15:04:30Z</time>
      </trkpt>
      <trkpt lat="42.703750" lon="-2.572490">
        <ele>749.006</ele>
        <time>2011-06-18T15:04:15Z</time>
      </trkpt>
      <trkpt lat="42.703800" lon="-2.572580">
        <ele>748.516</ele>
        <time>2011-06-18T15:04:06Z</time>
      </trkpt>
      <trkpt lat="42.703880" lon="-2.572660">
        <ele>745.607</ele>
        <time>2011-06-18T15:03:55Z</time>
      </trkpt>
      <trkpt lat="42.703950" lon="-2.572730">
        <ele>745.148</ele>
        <time>2011-06-18T15:03:47Z</time>
      </trkpt>
      <trkpt lat="42.704030" lon="-2.572800">
        <ele>744.239</ele>
        <time>2011-06-18T15:03:39Z</time>
      </trkpt>
      <trkpt lat="42.704100" lon="-2.572880">
        <ele>742.349</ele>
        <time>2011-06-18T15:03:31Z</time>
      </trkpt>
      <trkpt lat="42.704120" lon="-2.573000">
        <ele>741.898</ele>
        <time>2011-06-18T15:03:23Z</time>
      </trkpt>
      <trkpt lat="42.704130" lon="-2.573130">
        <ele>741.373</ele>
        <time>2011-06-18T15:03:15Z</time>
      </trkpt>
      <trkpt lat="42.704160" lon="-2.573250">
        <ele>740.444</ele>
        <time>2011-06-18T15:03:07Z</time>
      </trkpt>
      <trkpt lat="42.704210" lon="-2.573370">
        <ele>740.468</ele>
        <time>2011-06-18T15:02:59Z</time>
      </trkpt>
      <trkpt lat="42.704260" lon="-2.573470">
        <ele>739.986</ele>
        <time>2011-06-18T15:02:51Z</time>
      </trkpt>
      <trkpt lat="42.704240" lon="-2.573590">
        <ele>739.460</ele>
        <time>2011-06-18T15:02:42Z</time>
      </trkpt>
      <trkpt lat="42.704230" lon="-2.573710">
        <ele>738.426</ele>
        <time>2011-06-18T15:02:33Z</time>
      </trkpt>
      <trkpt lat="42.704250" lon="-2.573830">
        <ele>737.007</ele>
        <time>2011-06-18T15:02:25Z</time>
      </trkpt>
      <trkpt lat="42.704270" lon="-2.573960">
        <ele>736.060</ele>
        <time>2011-06-18T15:02:17Z</time>
      </trkpt>
      <trkpt lat="42.704300" lon="-2.574090">
        <ele>735.521</ele>
        <time>2011-06-18T15:02:09Z</time>
      </trkpt>
      <trkpt lat="42.704340" lon="-2.574220">
        <ele>733.651</ele>
        <time>2011-06-18T15:02:01Z</time>
      </trkpt>
      <trkpt lat="42.704380" lon="-2.574340">
        <ele>733.140</ele>
        <time>2011-06-18T15:01:53Z</time>
      </trkpt>
      <trkpt lat="42.704430" lon="-2.574460">
        <ele>733.625</ele>
        <time>2011-06-18T15:01:45Z</time>
      </trkpt>
      <trkpt lat="42.704470" lon="-2.574580">
        <ele>734.186</ele>
        <time>2011-06-18T15:01:37Z</time>
      </trkpt>
      <trkpt lat="42.704480" lon="-2.574710">
        <ele>733.630</ele>
        <time>2011-06-18T15:01:29Z</time>
      </trkpt>
      <trkpt lat="42.704490" lon="-2.574850">
        <ele>732.622</ele>
        <time>2011-06-18T15:01:21Z</time>
      </trkpt>
      <trkpt lat="42.704520" lon="-2.574980">
        <ele>732.662</ele>
        <time>2011-06-18T15:01:13Z</time>
      </trkpt>
      <trkpt lat="42.704560" lon="-2.575110">
        <ele>732.608</ele>
        <time>2011-06-18T15:01:05Z</time>
      </trkpt>
      <trkpt lat="42.704580" lon="-2.575230">
        <ele>732.607</ele>
        <time>2011-06-18T15:00:57Z</time>
      </trkpt>
      <trkpt lat="42.704590" lon="-2.575360">
        <ele>731.284</ele>
        <time>2011-06-18T15:00:49Z</time>
      </trkpt>
      <trkpt lat="42.704610" lon="-2.575490">
        <ele>729.895</ele>
        <time>2011-06-18T15:00:40Z</time>
      </trkpt>
      <trkpt lat="42.704650" lon="-2.575610">
        <ele>729.865</ele>
        <time>2011-06-18T15:00:31Z</time>
      </trkpt>
      <trkpt lat="42.704690" lon="-2.575730">
        <ele>728.474</ele>
        <time>2011-06-18T15:00:22Z</time>
      </trkpt>
      <trkpt lat="42.704730" lon="-2.575850">
        <ele>728.449</ele>
        <time>2011-06-18T15:00:14Z</time>
      </trkpt>
      <trkpt lat="42.704790" lon="-2.575940">
        <ele>726.980</ele>
        <time>2011-06-18T15:00:06Z</time>
      </trkpt>
      <trkpt lat="42.704860" lon="-2.576020">
        <ele>725.584</ele>
        <time>2011-06-18T14:59:58Z</time>
      </trkpt>
      <trkpt lat="42.704940" lon="-2.576100">
        <ele>725.094</ele>
        <time>2011-06-18T14:59:50Z</time>
      </trkpt>
      <trkpt lat="42.704990" lon="-2.576200">
        <ele>724.057</ele>
        <time>2011-06-18T14:59:42Z</time>
      </trkpt>
      <trkpt lat="42.705040" lon="-2.576310">
        <ele>724.522</ele>
        <time>2011-06-18T14:59:34Z</time>
      </trkpt>
      <trkpt lat="42.705070" lon="-2.576430">
        <ele>724.007</ele>
        <time>2011-06-18T14:59:26Z</time>
      </trkpt>
      <trkpt lat="42.705090" lon="-2.576550">
        <ele>722.631</ele>
        <time>2011-06-18T14:59:18Z</time>
      </trkpt>
      <trkpt lat="42.705130" lon="-2.576670">
        <ele>721.112</ele>
        <time>2011-06-18T14:59:10Z</time>
      </trkpt>
      <trkpt lat="42.705160" lon="-2.576790">
        <ele>721.172</ele>
        <time>2011-06-18T14:59:02Z</time>
      </trkpt>
      <trkpt lat="42.705220" lon="-2.576890">
        <ele>721.161</ele>
        <time>2011-06-18T14:58:54Z</time>
      </trkpt>
      <trkpt lat="42.705270" lon="-2.577000">
        <ele>721.166</ele>
        <time>2011-06-18T14:58:46Z</time>
      </trkpt>
      <trkpt lat="42.705320" lon="-2.577110">
        <ele>719.297</ele>
        <time>2011-06-18T14:58:38Z</time>
      </trkpt>
      <trkpt lat="42.705370" lon="-2.577210">
        <ele>718.731</ele>
        <time>2011-06-18T14:58:30Z</time>
      </trkpt>
      <trkpt lat="42.705430" lon="-2.577320">
        <ele>718.724</ele>
        <time>2011-06-18T14:58:21Z</time>
      </trkpt>
      <trkpt lat="42.705500" lon="-2.577410">
        <ele>718.204</ele>
        <time>2011-06-18T14:58:12Z</time>
      </trkpt>
      <trkpt lat="42.705560" lon="-2.577520">
        <ele>717.314</ele>
        <time>2011-06-18T14:58:03Z</time>
      </trkpt>
      <trkpt lat="42.705610" lon="-2.577630">
        <ele>715.907</ele>
        <time>2011-06-18T14:57:55Z</time>
      </trkpt>
      <trkpt lat="42.705640" lon="-2.577760">
        <ele>714.994</ele>
        <time>2011-06-18T14:57:46Z</time>
      </trkpt>
      <trkpt lat="42.705680" lon="-2.577880">
        <ele>713.445</ele>
        <time>2011-06-18T14:57:37Z</time>
      </trkpt>
      <trkpt lat="42.705730" lon="-2.577980">
        <ele>713.045</ele>
        <time>2011-06-18T14:57:29Z</time>
      </trkpt>
      <trkpt lat="42.705800" lon="-2.578080">
        <ele>711.524</ele>
        <time>2011-06-18T14:57:20Z</time>
      </trkpt>
      <trkpt lat="42.705840" lon="-2.578190">
        <ele>710.129</ele>
        <time>2011-06-18T14:57:12Z</time>
      </trkpt>
      <trkpt lat="42.705900" lon="-2.578300">
        <ele>709.610</ele>
        <time>2011-06-18T14:57:03Z</time>
      </trkpt>
      <trkpt lat="42.705970" lon="-2.578400">
        <ele>709.694</ele>
        <time>2011-06-18T14:56:54Z</time>
      </trkpt>
      <trkpt lat="42.706030" lon="-2.578480">
        <ele>709.191</ele>
        <time>2011-06-18T14:56:46Z</time>
      </trkpt>
      <trkpt lat="42.706100" lon="-2.578570">
        <ele>708.681</ele>
        <time>2011-06-18T14:56:37Z</time>
      </trkpt>
      <trkpt lat="42.706160" lon="-2.578670">
        <ele>707.719</ele>
        <time>2011-06-18T14:56:28Z</time>
      </trkpt>
      <trkpt lat="42.706230" lon="-2.578770">
        <ele>706.707</ele>
        <time>2011-06-18T14:56:19Z</time>
      </trkpt>
      <trkpt lat="42.706290" lon="-2.578870">
        <ele>705.721</ele>
        <time>2011-06-18T14:56:10Z</time>
      </trkpt>
      <trkpt lat="42.706360" lon="-2.578970">
        <ele>705.732</ele>
        <time>2011-06-18T14:56:01Z</time>
      </trkpt>
      <trkpt lat="42.706450" lon="-2.579020">
        <ele>703.442</ele>
        <time>2011-06-18T14:55:51Z</time>
      </trkpt>
      <trkpt lat="42.706540" lon="-2.579060">
        <ele>702.491</ele>
        <time>2011-06-18T14:55:42Z</time>
      </trkpt>
      <trkpt lat="42.706640" lon="-2.579070">
        <ele>701.486</ele>
        <time>2011-06-18T14:55:33Z</time>
      </trkpt>
      <trkpt lat="42.706710" lon="-2.579130">
        <ele>700.977</ele>
        <time>2011-06-18T14:55:24Z</time>
      </trkpt>
      <trkpt lat="42.706770" lon="-2.579240">
        <ele>699.091</ele>
        <time>2011-06-18T14:55:15Z</time>
      </trkpt>
      <trkpt lat="42.706830" lon="-2.579350">
        <ele>698.536</ele>
        <time>2011-06-18T14:55:07Z</time>
      </trkpt>
      <trkpt lat="42.706900" lon="-2.579440">
        <ele>698.517</ele>
        <time>2011-06-18T14:54:59Z</time>
      </trkpt>
      <trkpt lat="42.706950" lon="-2.579550">
        <ele>697.118</ele>
        <time>2011-06-18T14:54:51Z</time>
      </trkpt>
      <trkpt lat="42.707020" lon="-2.579640">
        <ele>696.107</ele>
        <time>2011-06-18T14:54:43Z</time>
      </trkpt>
      <trkpt lat="42.707110" lon="-2.579720">
        <ele>695.225</ele>
        <time>2011-06-18T14:54:35Z</time>
      </trkpt>
      <trkpt lat="42.707200" lon="-2.579690">
        <ele>695.616</ele>
        <time>2011-06-18T14:54:27Z</time>
      </trkpt>
      <trkpt lat="42.707260" lon="-2.579760">
        <ele>695.266</ele>
        <time>2011-06-18T14:54:17Z</time>
      </trkpt>
      <trkpt lat="42.707290" lon="-2.579880">
        <ele>695.275</ele>
        <time>2011-06-18T14:54:09Z</time>
      </trkpt>
      <trkpt lat="42.707360" lon="-2.579980">
        <ele>695.650</ele>
        <time>2011-06-18T14:54:01Z</time>
      </trkpt>
      <trkpt lat="42.707430" lon="-2.580080">
        <ele>695.681</ele>
        <time>2011-06-18T14:53:53Z</time>
      </trkpt>
      <trkpt lat="42.707500" lon="-2.580160">
        <ele>696.635</ele>
        <time>2011-06-18T14:53:46Z</time>
      </trkpt>
      <trkpt lat="42.707560" lon="-2.580250">
        <ele>697.656</ele>
        <time>2011-06-18T14:53:39Z</time>
      </trkpt>
      <trkpt lat="42.707630" lon="-2.580360">
        <ele>698.559</ele>
        <time>2011-06-18T14:53:31Z</time>
      </trkpt>
      <trkpt lat="42.707720" lon="-2.580430">
        <ele>700.014</ele>
        <time>2011-06-18T14:53:23Z</time>
      </trkpt>
      <trkpt lat="42.707820" lon="-2.580430">
        <ele>700.907</ele>
        <time>2011-06-18T14:53:15Z</time>
      </trkpt>
      <trkpt lat="42.707900" lon="-2.580510">
        <ele>700.927</ele>
        <time>2011-06-18T14:53:07Z</time>
      </trkpt>
      <trkpt lat="42.707930" lon="-2.580630">
        <ele>700.978</ele>
        <time>2011-06-18T14:52:59Z</time>
      </trkpt>
      <trkpt lat="42.707970" lon="-2.580760">
        <ele>702.418</ele>
        <time>2011-06-18T14:52:51Z</time>
      </trkpt>
      <trkpt lat="42.708020" lon="-2.580870">
        <ele>702.997</ele>
        <time>2011-06-18T14:52:43Z</time>
      </trkpt>
      <trkpt lat="42.708070" lon="-2.580970">
        <ele>703.832</ele>
        <time>2011-06-18T14:52:36Z</time>
      </trkpt>
      <trkpt lat="42.708130" lon="-2.581070">
        <ele>704.813</ele>
        <time>2011-06-18T14:52:29Z</time>
      </trkpt>
      <trkpt lat="42.708190" lon="-2.581170">
        <ele>705.787</ele>
        <time>2011-06-18T14:52:22Z</time>
      </trkpt>
      <trkpt lat="42.708250" lon="-2.581270">
        <ele>707.263</ele>
        <time>2011-06-18T14:52:15Z</time>
      </trkpt>
      <trkpt lat="42.708310" lon="-2.581370">
        <ele>707.744</ele>
        <time>2011-06-18T14:52:08Z</time>
      </trkpt>
      <trkpt lat="42.708370" lon="-2.581460">
        <ele>708.618</ele>
        <time>2011-06-18T14:52:01Z</time>
      </trkpt>
      <trkpt lat="42.708430" lon="-2.581560">
        <ele>710.107</ele>
        <time>2011-06-18T14:51:54Z</time>
      </trkpt>
      <trkpt lat="42.708490" lon="-2.581650">
        <ele>711.038</ele>
        <time>2011-06-18T14:51:47Z</time>
      </trkpt>
      <trkpt lat="42.708550" lon="-2.581760">
        <ele>712.589</ele>
        <time>2011-06-18T14:51:40Z</time>
      </trkpt>
      <trkpt lat="42.708610" lon="-2.581850">
        <ele>713.039</ele>
        <time>2011-06-18T14:51:33Z</time>
      </trkpt>
      <trkpt lat="42.708670" lon="-2.581950">
        <ele>714.418</ele>
        <time>2011-06-18T14:51:26Z</time>
      </trkpt>
      <trkpt lat="42.708730" lon="-2.582050">
        <ele>715.493</ele>
        <time>2011-06-18T14:51:19Z</time>
      </trkpt>
      <trkpt lat="42.708790" lon="-2.582150">
        <ele>716.814</ele>
        <time>2011-06-18T14:51:11Z</time>
      </trkpt>
      <trkpt lat="42.708850" lon="-2.582250">
        <ele>717.378</ele>
        <time>2011-06-18T14:51:04Z</time>
      </trkpt>
      <trkpt lat="42.708910" lon="-2.582350">
        <ele>717.848</ele>
        <time>2011-06-18T14:50:57Z</time>
      </trkpt>
      <trkpt lat="42.708960" lon="-2.582440">
        <ele>718.761</ele>
        <time>2011-06-18T14:50:50Z</time>
      </trkpt>
      <trkpt lat="42.709030" lon="-2.582530">
        <ele>720.617</ele>
        <time>2011-06-18T14:50:43Z</time>
      </trkpt>
      <trkpt lat="42.709100" lon="-2.582610">
        <ele>721.607</ele>
        <time>2011-06-18T14:50:36Z</time>
      </trkpt>
      <trkpt lat="42.709180" lon="-2.582680">
        <ele>722.116</ele>
        <time>2011-06-18T14:50:29Z</time>
      </trkpt>
      <trkpt lat="42.709250" lon="-2.582760">
        <ele>722.667</ele>
        <time>2011-06-18T14:50:22Z</time>
      </trkpt>
      <trkpt lat="42.709330" lon="-2.582830">
        <ele>723.557</ele>
        <time>2011-06-18T14:50:14Z</time>
      </trkpt>
      <trkpt lat="42.709410" lon="-2.582900">
        <ele>724.096</ele>
        <time>2011-06-18T14:50:07Z</time>
      </trkpt>
      <trkpt lat="42.709500" lon="-2.582950">
        <ele>725.081</ele>
        <time>2011-06-18T14:49:59Z</time>
      </trkpt>
      <trkpt lat="42.709590" lon="-2.582990">
        <ele>726.472</ele>
        <time>2011-06-18T14:49:52Z</time>
      </trkpt>
      <trkpt lat="42.709680" lon="-2.583030">
        <ele>727.416</ele>
        <time>2011-06-18T14:49:45Z</time>
      </trkpt>
      <trkpt lat="42.709770" lon="-2.583060">
        <ele>728.466</ele>
        <time>2011-06-18T14:49:37Z</time>
      </trkpt>
      <trkpt lat="42.709860" lon="-2.583110">
        <ele>728.429</ele>
        <time>2011-06-18T14:49:29Z</time>
      </trkpt>
      <trkpt lat="42.709940" lon="-2.583180">
        <ele>728.421</ele>
        <time>2011-06-18T14:49:21Z</time>
      </trkpt>
      <trkpt lat="42.710020" lon="-2.583260">
        <ele>727.907</ele>
        <time>2011-06-18T14:49:12Z</time>
      </trkpt>
      <trkpt lat="42.710090" lon="-2.583340">
        <ele>727.498</ele>
        <time>2011-06-18T14:49:04Z</time>
      </trkpt>
      <trkpt lat="42.710160" lon="-2.583420">
        <ele>727.489</ele>
        <time>2011-06-18T14:48:56Z</time>
      </trkpt>
      <trkpt lat="42.710230" lon="-2.583500">
        <ele>725.059</ele>
        <time>2011-06-18T14:48:48Z</time>
      </trkpt>
      <trkpt lat="42.710310" lon="-2.583580">
        <ele>724.558</ele>
        <time>2011-06-18T14:48:40Z</time>
      </trkpt>
      <trkpt lat="42.710380" lon="-2.583670">
        <ele>723.583</ele>
        <time>2011-06-18T14:48:31Z</time>
      </trkpt>
      <trkpt lat="42.710450" lon="-2.583750">
        <ele>723.564</ele>
        <time>2011-06-18T14:48:23Z</time>
      </trkpt>
      <trkpt lat="42.710530" lon="-2.583820">
        <ele>723.068</ele>
        <time>2011-06-18T14:48:14Z</time>
      </trkpt>
      <trkpt lat="42.710620" lon="-2.583870">
        <ele>723.031</ele>
        <time>2011-06-18T14:48:06Z</time>
      </trkpt>
      <trkpt lat="42.710710" lon="-2.583850">
        <ele>724.061</ele>
        <time>2011-06-18T14:47:57Z</time>
      </trkpt>
      <trkpt lat="42.710800" lon="-2.583890">
        <ele>723.007</ele>
        <time>2011-06-18T14:47:48Z</time>
      </trkpt>
      <trkpt lat="42.710900" lon="-2.583890">
        <ele>721.607</ele>
        <time>2011-06-18T14:47:39Z</time>
      </trkpt>
      <trkpt lat="42.711000" lon="-2.583910">
        <ele>721.195</ele>
        <time>2011-06-18T14:47:30Z</time>
      </trkpt>
      <trkpt lat="42.711090" lon="-2.583930">
        <ele>721.116</ele>
        <time>2011-06-18T14:47:21Z</time>
      </trkpt>
      <trkpt lat="42.711200" lon="-2.583940">
        <ele>720.256</ele>
        <time>2011-06-18T14:47:11Z</time>
      </trkpt>
      <trkpt lat="42.711270" lon="-2.583910">
        <ele>720.235</ele>
        <time>2011-06-18T14:46:43Z</time>
      </trkpt>
      <trkpt lat="42.711360" lon="-2.583870">
        <ele>719.790</ele>
        <time>2011-06-18T14:46:32Z</time>
      </trkpt>
      <trkpt lat="42.711450" lon="-2.583820">
        <ele>719.781</ele>
        <time>2011-06-18T14:46:20Z</time>
      </trkpt>
      <trkpt lat="42.711540" lon="-2.583790">
        <ele>718.775</ele>
        <time>2011-06-18T14:46:03Z</time>
      </trkpt>
      <trkpt lat="42.711500" lon="-2.583740">
        <ele>720.242</ele>
        <time>2011-06-18T14:45:35Z</time>
      </trkpt>
      <trkpt lat="42.711560" lon="-2.583710">
        <ele>719.722</ele>
        <time>2011-06-18T14:44:25Z</time>
      </trkpt>
      <trkpt lat="42.711630" lon="-2.583780">
        <ele>715.414</ele>
        <time>2011-06-18T14:44:04Z</time>
      </trkpt>
      <trkpt lat="42.711710" lon="-2.583850">
        <ele>713.007</ele>
        <time>2011-06-18T14:43:50Z</time>
      </trkpt>
      <trkpt lat="42.711790" lon="-2.583890">
        <ele>709.616</ele>
        <time>2011-06-18T14:43:38Z</time>
      </trkpt>
      <trkpt lat="42.711880" lon="-2.583950">
        <ele>708.177</ele>
        <time>2011-06-18T14:43:27Z</time>
      </trkpt>
      <trkpt lat="42.711960" lon="-2.584010">
        <ele>705.737</ele>
        <time>2011-06-18T14:43:16Z</time>
      </trkpt>
      <trkpt lat="42.712040" lon="-2.584070">
        <ele>703.866</ele>
        <time>2011-06-18T14:43:05Z</time>
      </trkpt>
      <trkpt lat="42.712130" lon="-2.584080">
        <ele>702.961</ele>
        <time>2011-06-18T14:42:47Z</time>
      </trkpt>
      <trkpt lat="42.712220" lon="-2.584080">
        <ele>702.432</ele>
        <time>2011-06-18T14:42:38Z</time>
      </trkpt>
      <trkpt lat="42.712300" lon="-2.584150">
        <ele>700.976</ele>
        <time>2011-06-18T14:42:26Z</time>
      </trkpt>
      <trkpt lat="42.712330" lon="-2.584270">
        <ele>699.056</ele>
        <time>2011-06-18T14:42:15Z</time>
      </trkpt>
      <trkpt lat="42.712340" lon="-2.584390">
        <ele>698.559</ele>
        <time>2011-06-18T14:42:06Z</time>
      </trkpt>
      <trkpt lat="42.712350" lon="-2.584520">
        <ele>697.614</ele>
        <time>2011-06-18T14:41:57Z</time>
      </trkpt>
      <trkpt lat="42.712360" lon="-2.584660">
        <ele>697.107</ele>
        <time>2011-06-18T14:41:47Z</time>
      </trkpt>
      <trkpt lat="42.712360" lon="-2.584790">
        <ele>697.147</ele>
        <time>2011-06-18T14:41:39Z</time>
      </trkpt>
      <trkpt lat="42.712360" lon="-2.584910">
        <ele>697.668</ele>
        <time>2011-06-18T14:41:31Z</time>
      </trkpt>
      <trkpt lat="42.712350" lon="-2.585050">
        <ele>698.198</ele>
        <time>2011-06-18T14:41:22Z</time>
      </trkpt>
      <trkpt lat="42.712350" lon="-2.585170">
        <ele>699.597</ele>
        <time>2011-06-18T14:41:13Z</time>
      </trkpt>
      <trkpt lat="42.712430" lon="-2.585230">
        <ele>701.482</ele>
        <time>2011-06-18T14:41:02Z</time>
      </trkpt>
      <trkpt lat="42.712500" lon="-2.585310">
        <ele>702.953</ele>
        <time>2011-06-18T14:40:53Z</time>
      </trkpt>
      <trkpt lat="42.712530" lon="-2.585440">
        <ele>702.967</ele>
        <time>2011-06-18T14:40:45Z</time>
      </trkpt>
      <trkpt lat="42.712560" lon="-2.585560">
        <ele>704.323</ele>
        <time>2011-06-18T14:40:38Z</time>
      </trkpt>
      <trkpt lat="42.712600" lon="-2.585680">
        <ele>705.783</ele>
        <time>2011-06-18T14:40:29Z</time>
      </trkpt>
      <trkpt lat="42.712650" lon="-2.585790">
        <ele>707.711</ele>
        <time>2011-06-18T14:40:20Z</time>
      </trkpt>
      <trkpt lat="42.712670" lon="-2.585930">
        <ele>710.507</ele>
        <time>2011-06-18T14:40:10Z</time>
      </trkpt>
      <trkpt lat="42.712630" lon="-2.586040">
        <ele>712.014</ele>
        <time>2011-06-18T14:40:00Z</time>
      </trkpt>
      <trkpt lat="42.712600" lon="-2.586160">
        <ele>713.035</ele>
        <time>2011-06-18T14:39:52Z</time>
      </trkpt>
      <trkpt lat="42.712610" lon="-2.586280">
        <ele>715.435</ele>
        <time>2011-06-18T14:39:43Z</time>
      </trkpt>
      <trkpt lat="42.712580" lon="-2.586390">
        <ele>715.964</ele>
        <time>2011-06-18T14:39:34Z</time>
      </trkpt>
      <trkpt lat="42.712630" lon="-2.586480">
        <ele>716.329</ele>
        <time>2011-06-18T14:39:24Z</time>
      </trkpt>
      <trkpt lat="42.712700" lon="-2.586570">
        <ele>716.370</ele>
        <time>2011-06-18T14:39:15Z</time>
      </trkpt>
      <trkpt lat="42.712780" lon="-2.586630">
        <ele>716.364</ele>
        <time>2011-06-18T14:39:07Z</time>
      </trkpt>
      <trkpt lat="42.712870" lon="-2.586700">
        <ele>715.498</ele>
        <time>2011-06-18T14:38:59Z</time>
      </trkpt>
      <trkpt lat="42.712970" lon="-2.586700">
        <ele>715.915</ele>
        <time>2011-06-18T14:38:51Z</time>
      </trkpt>
      <trkpt lat="42.713060" lon="-2.586700">
        <ele>716.826</ele>
        <time>2011-06-18T14:38:43Z</time>
      </trkpt>
      <trkpt lat="42.713160" lon="-2.586750">
        <ele>716.307</ele>
        <time>2011-06-18T14:38:35Z</time>
      </trkpt>
      <trkpt lat="42.713240" lon="-2.586790">
        <ele>715.451</ele>
        <time>2011-06-18T14:38:28Z</time>
      </trkpt>
      <trkpt lat="42.713320" lon="-2.586860">
        <ele>714.992</ele>
        <time>2011-06-18T14:38:21Z</time>
      </trkpt>
      <trkpt lat="42.713400" lon="-2.586920">
        <ele>714.972</ele>
        <time>2011-06-18T14:38:11Z</time>
      </trkpt>
      <trkpt lat="42.713470" lon="-2.587010">
        <ele>714.911</ele>
        <time>2011-06-18T14:38:03Z</time>
      </trkpt>
      <trkpt lat="42.713550" lon="-2.587080">
        <ele>714.926</ele>
        <time>2011-06-18T14:37:54Z</time>
      </trkpt>
      <trkpt lat="42.713640" lon="-2.587100">
        <ele>714.977</ele>
        <time>2011-06-18T14:37:46Z</time>
      </trkpt>
      <trkpt lat="42.713720" lon="-2.587160">
        <ele>715.991</ele>
        <time>2011-06-18T14:37:37Z</time>
      </trkpt>
      <trkpt lat="42.713820" lon="-2.587150">
        <ele>715.998</ele>
        <time>2011-06-18T14:37:27Z</time>
      </trkpt>
      <trkpt lat="42.713910" lon="-2.587180">
        <ele>716.815</ele>
        <time>2011-06-18T14:37:19Z</time>
      </trkpt>
      <trkpt lat="42.714010" lon="-2.587210">
        <ele>717.326</ele>
        <time>2011-06-18T14:37:11Z</time>
      </trkpt>
      <trkpt lat="42.714100" lon="-2.587220">
        <ele>716.807</ele>
        <time>2011-06-18T14:37:03Z</time>
      </trkpt>
      <trkpt lat="42.714190" lon="-2.587250">
        <ele>716.371</ele>
        <time>2011-06-18T14:36:55Z</time>
      </trkpt>
      <trkpt lat="42.714280" lon="-2.587320">
        <ele>714.962</ele>
        <time>2011-06-18T14:36:46Z</time>
      </trkpt>
      <trkpt lat="42.714360" lon="-2.587380">
        <ele>713.952</ele>
        <time>2011-06-18T14:36:38Z</time>
      </trkpt>
      <trkpt lat="42.714450" lon="-2.587420">
        <ele>712.591</ele>
        <time>2011-06-18T14:36:29Z</time>
      </trkpt>
      <trkpt lat="42.714530" lon="-2.587460">
        <ele>713.046</ele>
        <time>2011-06-18T14:36:21Z</time>
      </trkpt>
      <trkpt lat="42.714580" lon="-2.587560">
        <ele>710.177</ele>
        <time>2011-06-18T14:36:12Z</time>
      </trkpt>
      <trkpt lat="42.714640" lon="-2.587640">
        <ele>710.151</ele>
        <time>2011-06-18T14:36:03Z</time>
      </trkpt>
      <trkpt lat="42.714640" lon="-2.587760">
        <ele>708.652</ele>
        <time>2011-06-18T14:35:54Z</time>
      </trkpt>
      <trkpt lat="42.714570" lon="-2.587890">
        <ele>707.753</ele>
        <time>2011-06-18T14:35:44Z</time>
      </trkpt>
      <trkpt lat="42.714650" lon="-2.587930">
        <ele>704.808</ele>
        <time>2011-06-18T14:35:29Z</time>
      </trkpt>
      <trkpt lat="42.714740" lon="-2.587960">
        <ele>704.307</ele>
        <time>2011-06-18T14:35:21Z</time>
      </trkpt>
      <trkpt lat="42.714820" lon="-2.588000">
        <ele>703.897</ele>
        <time>2011-06-18T14:35:13Z</time>
      </trkpt>
      <trkpt lat="42.714910" lon="-2.588060">
        <ele>703.478</ele>
        <time>2011-06-18T14:35:05Z</time>
      </trkpt>
      <trkpt lat="42.715000" lon="-2.588090">
        <ele>702.448</ele>
        <time>2011-06-18T14:34:57Z</time>
      </trkpt>
      <trkpt lat="42.715090" lon="-2.588140">
        <ele>701.937</ele>
        <time>2011-06-18T14:34:49Z</time>
      </trkpt>
      <trkpt lat="42.715170" lon="-2.588230">
        <ele>700.992</ele>
        <time>2011-06-18T14:34:40Z</time>
      </trkpt>
      <trkpt lat="42.715260" lon="-2.588300">
        <ele>700.563</ele>
        <time>2011-06-18T14:34:31Z</time>
      </trkpt>
      <trkpt lat="42.715340" lon="-2.588340">
        <ele>699.597</ele>
        <time>2011-06-18T14:34:04Z</time>
      </trkpt>
      <trkpt lat="42.715430" lon="-2.588350">
        <ele>698.567</ele>
        <time>2011-06-18T14:33:55Z</time>
      </trkpt>
      <trkpt lat="42.715530" lon="-2.588350">
        <ele>697.681</ele>
        <time>2011-06-18T14:33:47Z</time>
      </trkpt>
      <trkpt lat="42.715610" lon="-2.588300">
        <ele>697.119</ele>
        <time>2011-06-18T14:33:40Z</time>
      </trkpt>
      <trkpt lat="42.715700" lon="-2.588260">
        <ele>697.107</ele>
        <time>2011-06-18T14:33:33Z</time>
      </trkpt>
      <trkpt lat="42.715800" lon="-2.588230">
        <ele>696.138</ele>
        <time>2011-06-18T14:33:25Z</time>
      </trkpt>
      <trkpt lat="42.715900" lon="-2.588200">
        <ele>695.679</ele>
        <time>2011-06-18T14:33:18Z</time>
      </trkpt>
      <trkpt lat="42.715990" lon="-2.588190">
        <ele>695.299</ele>
        <time>2011-06-18T14:33:10Z</time>
      </trkpt>
      <trkpt lat="42.716080" lon="-2.588240">
        <ele>698.188</ele>
        <time>2011-06-18T14:33:00Z</time>
      </trkpt>
      <trkpt lat="42.716160" lon="-2.588200">
        <ele>699.593</ele>
        <time>2011-06-18T14:32:50Z</time>
      </trkpt>
      <trkpt lat="42.716220" lon="-2.588110">
        <ele>700.934</ele>
        <time>2011-06-18T14:32:43Z</time>
      </trkpt>
      <trkpt lat="42.716250" lon="-2.587840">
        <ele>702.928</ele>
        <time>2011-06-18T14:32:29Z</time>
      </trkpt>
      <trkpt lat="42.716300" lon="-2.587730">
        <ele>704.826</ele>
        <time>2011-06-18T14:32:22Z</time>
      </trkpt>
      <trkpt lat="42.716340" lon="-2.587620">
        <ele>705.747</ele>
        <time>2011-06-18T14:32:15Z</time>
      </trkpt>
      <trkpt lat="42.716380" lon="-2.587500">
        <ele>705.711</ele>
        <time>2011-06-18T14:32:08Z</time>
      </trkpt>
      <trkpt lat="42.716450" lon="-2.587410">
        <ele>706.707</ele>
        <time>2011-06-18T14:31:59Z</time>
      </trkpt>
      <trkpt lat="42.716520" lon="-2.587460">
        <ele>707.774</ele>
        <time>2011-06-18T14:31:52Z</time>
      </trkpt>
      <trkpt lat="42.716620" lon="-2.587490">
        <ele>708.115</ele>
        <time>2011-06-18T14:31:45Z</time>
      </trkpt>
      <trkpt lat="42.716690" lon="-2.587410">
        <ele>710.165</ele>
        <time>2011-06-18T14:31:38Z</time>
      </trkpt>
      <trkpt lat="42.716770" lon="-2.587320">
        <ele>711.094</ele>
        <time>2011-06-18T14:31:31Z</time>
      </trkpt>
      <trkpt lat="42.716840" lon="-2.587220">
        <ele>712.049</ele>
        <time>2011-06-18T14:31:23Z</time>
      </trkpt>
      <trkpt lat="42.716930" lon="-2.587190">
        <ele>713.020</ele>
        <time>2011-06-18T14:31:15Z</time>
      </trkpt>
      <trkpt lat="42.717010" lon="-2.587160">
        <ele>713.424</ele>
        <time>2011-06-18T14:31:05Z</time>
      </trkpt>
      <trkpt lat="42.717110" lon="-2.587100">
        <ele>714.972</ele>
        <time>2011-06-18T14:30:57Z</time>
      </trkpt>
      <trkpt lat="42.717200" lon="-2.587090">
        <ele>715.913</ele>
        <time>2011-06-18T14:30:50Z</time>
      </trkpt>
      <trkpt lat="42.717280" lon="-2.587100">
        <ele>718.714</ele>
        <time>2011-06-18T14:29:39Z</time>
      </trkpt>
      <trkpt lat="42.717220" lon="-2.587130">
        <ele>717.307</ele>
        <time>2011-06-18T14:28:12Z</time>
      </trkpt>
      <trkpt lat="42.717140" lon="-2.587100">
        <ele>715.919</ele>
        <time>2011-06-18T14:27:59Z</time>
      </trkpt>
      <trkpt lat="42.717060" lon="-2.587150">
        <ele>715.410</ele>
        <time>2011-06-18T14:27:47Z</time>
      </trkpt>
      <trkpt lat="42.716980" lon="-2.587210">
        <ele>714.450</ele>
        <time>2011-06-18T14:27:37Z</time>
      </trkpt>
      <trkpt lat="42.716890" lon="-2.587220">
        <ele>712.549</ele>
        <time>2011-06-18T14:27:27Z</time>
      </trkpt>
      <trkpt lat="42.716820" lon="-2.587300">
        <ele>711.594</ele>
        <time>2011-06-18T14:27:17Z</time>
      </trkpt>
      <trkpt lat="42.716750" lon="-2.587390">
        <ele>710.525</ele>
        <time>2011-06-18T14:27:07Z</time>
      </trkpt>
      <trkpt lat="42.716690" lon="-2.587480">
        <ele>710.139</ele>
        <time>2011-06-18T14:26:58Z</time>
      </trkpt>
      <trkpt lat="42.716610" lon="-2.587520">
        <ele>709.119</ele>
        <time>2011-06-18T14:26:48Z</time>
      </trkpt>
      <trkpt lat="42.716520" lon="-2.587480">
        <ele>708.609</ele>
        <time>2011-06-18T14:26:32Z</time>
      </trkpt>
      <trkpt lat="42.716440" lon="-2.587410">
        <ele>707.219</ele>
        <time>2011-06-18T14:25:34Z</time>
      </trkpt>
      <trkpt lat="42.716360" lon="-2.587500">
        <ele>706.707</ele>
        <time>2011-06-18T14:25:12Z</time>
      </trkpt>
      <trkpt lat="42.716330" lon="-2.587610">
        <ele>706.273</ele>
        <time>2011-06-18T14:25:03Z</time>
      </trkpt>
      <trkpt lat="42.716330" lon="-2.587660">
        <ele>706.234</ele>
        <time>2011-06-18T14:24:14Z</time>
      </trkpt>
      <trkpt lat="42.716360" lon="-2.587560">
        <ele>706.714</ele>
        <time>2011-06-18T14:24:01Z</time>
      </trkpt>
      <trkpt lat="42.716410" lon="-2.587440">
        <ele>707.223</ele>
        <time>2011-06-18T14:23:49Z</time>
      </trkpt>
      <trkpt lat="42.716490" lon="-2.587420">
        <ele>707.748</ele>
        <time>2011-06-18T14:23:39Z</time>
      </trkpt>
      <trkpt lat="42.716580" lon="-2.587480">
        <ele>708.659</ele>
        <time>2011-06-18T14:23:31Z</time>
      </trkpt>
      <trkpt lat="42.716660" lon="-2.587460">
        <ele>710.173</ele>
        <time>2011-06-18T14:23:24Z</time>
      </trkpt>
      <trkpt lat="42.716720" lon="-2.587360">
        <ele>710.562</ele>
        <time>2011-06-18T14:23:16Z</time>
      </trkpt>
      <trkpt lat="42.716800" lon="-2.587280">
        <ele>712.083</ele>
        <time>2011-06-18T14:23:07Z</time>
      </trkpt>
      <trkpt lat="42.716870" lon="-2.587180">
        <ele>712.511</ele>
        <time>2011-06-18T14:22:43Z</time>
      </trkpt>
      <trkpt lat="42.716950" lon="-2.587190">
        <ele>713.407</ele>
        <time>2011-06-18T14:22:33Z</time>
      </trkpt>
      <trkpt lat="42.717030" lon="-2.587110">
        <ele>714.498</ele>
        <time>2011-06-18T14:22:26Z</time>
      </trkpt>
      <trkpt lat="42.717130" lon="-2.587070">
        <ele>715.979</ele>
        <time>2011-06-18T14:22:19Z</time>
      </trkpt>
      <trkpt lat="42.717210" lon="-2.587090">
        <ele>718.259</ele>
        <time>2011-06-18T14:22:13Z</time>
      </trkpt>
      <trkpt lat="42.717300" lon="-2.587040">
        <ele>718.298</ele>
        <time>2011-06-18T14:22:06Z</time>
      </trkpt>
      <trkpt lat="42.717390" lon="-2.587030">
        <ele>718.273</ele>
        <time>2011-06-18T14:22:00Z</time>
      </trkpt>
      <trkpt lat="42.717490" lon="-2.587040">
        <ele>720.254</ele>
        <time>2011-06-18T14:21:54Z</time>
      </trkpt>
      <trkpt lat="42.717580" lon="-2.587040">
        <ele>722.198</ele>
        <time>2011-06-18T14:21:48Z</time>
      </trkpt>
      <trkpt lat="42.717630" lon="-2.587140">
        <ele>725.068</ele>
        <time>2011-06-18T14:21:41Z</time>
      </trkpt>
      <trkpt lat="42.717600" lon="-2.587260">
        <ele>725.042</ele>
        <time>2011-06-18T14:21:32Z</time>
      </trkpt>
      <trkpt lat="42.717580" lon="-2.587380">
        <ele>726.426</ele>
        <time>2011-06-18T14:21:24Z</time>
      </trkpt>
      <trkpt lat="42.717650" lon="-2.587450">
        <ele>726.407</ele>
        <time>2011-06-18T14:21:16Z</time>
      </trkpt>
      <trkpt lat="42.717750" lon="-2.587410">
        <ele>727.988</ele>
        <time>2011-06-18T14:21:09Z</time>
      </trkpt>
      <trkpt lat="42.717840" lon="-2.587450">
        <ele>728.489</ele>
        <time>2011-06-18T14:21:02Z</time>
      </trkpt>
      <trkpt lat="42.717940" lon="-2.587460">
        <ele>729.359</ele>
        <time>2011-06-18T14:20:55Z</time>
      </trkpt>
      <trkpt lat="42.718030" lon="-2.587480">
        <ele>730.398</ele>
        <time>2011-06-18T14:20:48Z</time>
      </trkpt>
      <trkpt lat="42.718080" lon="-2.587590">
        <ele>732.633</ele>
        <time>2011-06-18T14:20:38Z</time>
      </trkpt>
      <trkpt lat="42.718140" lon="-2.587680">
        <ele>733.664</ele>
        <time>2011-06-18T14:20:18Z</time>
      </trkpt>
      <trkpt lat="42.718210" lon="-2.587760">
        <ele>733.628</ele>
        <time>2011-06-18T14:20:09Z</time>
      </trkpt>
      <trkpt lat="42.718250" lon="-2.587890">
        <ele>733.626</ele>
        <time>2011-06-18T14:20:01Z</time>
      </trkpt>
      <trkpt lat="42.718280" lon="-2.588020">
        <ele>734.147</ele>
        <time>2011-06-18T14:19:53Z</time>
      </trkpt>
      <trkpt lat="42.718300" lon="-2.588140">
        <ele>733.611</ele>
        <time>2011-06-18T14:19:43Z</time>
      </trkpt>
      <trkpt lat="42.718310" lon="-2.588270">
        <ele>733.607</ele>
        <time>2011-06-18T14:19:36Z</time>
      </trkpt>
      <trkpt lat="42.718320" lon="-2.588400">
        <ele>732.694</ele>
        <time>2011-06-18T14:19:28Z</time>
      </trkpt>
      <trkpt lat="42.718320" lon="-2.588520">
        <ele>732.615</ele>
        <time>2011-06-18T14:19:21Z</time>
      </trkpt>
      <trkpt lat="42.718320" lon="-2.588640">
        <ele>732.685</ele>
        <time>2011-06-18T14:19:14Z</time>
      </trkpt>
      <trkpt lat="42.718350" lon="-2.588770">
        <ele>732.244</ele>
        <time>2011-06-18T14:19:07Z</time>
      </trkpt>
      <trkpt lat="42.718370" lon="-2.588900">
        <ele>731.299</ele>
        <time>2011-06-18T14:19:00Z</time>
      </trkpt>
      <trkpt lat="42.718390" lon="-2.589030">
        <ele>730.780</ele>
        <time>2011-06-18T14:18:53Z</time>
      </trkpt>
      <trkpt lat="42.718420" lon="-2.589150">
        <ele>731.264</ele>
        <time>2011-06-18T14:18:46Z</time>
      </trkpt>
      <trkpt lat="42.718450" lon="-2.589290">
        <ele>729.893</ele>
        <time>2011-06-18T14:18:38Z</time>
      </trkpt>
      <trkpt lat="42.718470" lon="-2.589410">
        <ele>729.865</ele>
        <time>2011-06-18T14:18:31Z</time>
      </trkpt>
      <trkpt lat="42.718460" lon="-2.589540">
        <ele>729.321</ele>
        <time>2011-06-18T14:18:24Z</time>
      </trkpt>
      <trkpt lat="42.718450" lon="-2.589670">
        <ele>728.407</ele>
        <time>2011-06-18T14:18:16Z</time>
      </trkpt>
      <trkpt lat="42.718490" lon="-2.589790">
        <ele>727.461</ele>
        <time>2011-06-18T14:18:07Z</time>
      </trkpt>
      <trkpt lat="42.718540" lon="-2.589900">
        <ele>726.952</ele>
        <time>2011-06-18T14:17:59Z</time>
      </trkpt>
      <trkpt lat="42.718610" lon="-2.589990">
        <ele>725.942</ele>
        <time>2011-06-18T14:17:52Z</time>
      </trkpt>
      <trkpt lat="42.718670" lon="-2.590090">
        <ele>724.031</ele>
        <time>2011-06-18T14:17:44Z</time>
      </trkpt>
      <trkpt lat="42.718730" lon="-2.590210">
        <ele>723.016</ele>
        <time>2011-06-18T14:17:37Z</time>
      </trkpt>
      <trkpt lat="42.718790" lon="-2.590320">
        <ele>723.057</ele>
        <time>2011-06-18T14:17:30Z</time>
      </trkpt>
      <trkpt lat="42.718830" lon="-2.590440">
        <ele>722.671</ele>
        <time>2011-06-18T14:17:23Z</time>
      </trkpt>
      <trkpt lat="42.718850" lon="-2.590560">
        <ele>722.112</ele>
        <time>2011-06-18T14:17:16Z</time>
      </trkpt>
      <trkpt lat="42.718840" lon="-2.590700">
        <ele>722.132</ele>
        <time>2011-06-18T14:17:09Z</time>
      </trkpt>
      <trkpt lat="42.718840" lon="-2.590830">
        <ele>721.105</ele>
        <time>2011-06-18T14:17:02Z</time>
      </trkpt>
      <trkpt lat="42.718850" lon="-2.590960">
        <ele>720.207</ele>
        <time>2011-06-18T14:16:55Z</time>
      </trkpt>
      <trkpt lat="42.718850" lon="-2.591090">
        <ele>718.763</ele>
        <time>2011-06-18T14:16:48Z</time>
      </trkpt>
      <trkpt lat="42.718840" lon="-2.591220">
        <ele>718.294</ele>
        <time>2011-06-18T14:16:41Z</time>
      </trkpt>
      <trkpt lat="42.718850" lon="-2.591350">
        <ele>717.314</ele>
        <time>2011-06-18T14:16:34Z</time>
      </trkpt>
      <trkpt lat="42.718860" lon="-2.591470">
        <ele>715.453</ele>
        <time>2011-06-18T14:16:27Z</time>
      </trkpt>
      <trkpt lat="42.718850" lon="-2.591600">
        <ele>714.918</ele>
        <time>2011-06-18T14:16:20Z</time>
      </trkpt>
      <trkpt lat="42.718830" lon="-2.591730">
        <ele>714.429</ele>
        <time>2011-06-18T14:16:12Z</time>
      </trkpt>
      <trkpt lat="42.718820" lon="-2.591860">
        <ele>713.463</ele>
        <time>2011-06-18T14:16:04Z</time>
      </trkpt>
      <trkpt lat="42.718800" lon="-2.591980">
        <ele>712.544</ele>
        <time>2011-06-18T14:15:56Z</time>
      </trkpt>
      <trkpt lat="42.718750" lon="-2.592100">
        <ele>712.505</ele>
        <time>2011-06-18T14:15:46Z</time>
      </trkpt>
      <trkpt lat="42.718750" lon="-2.592180">
        <ele>712.515</ele>
        <time>2011-06-18T14:15:17Z</time>
      </trkpt>
      <trkpt lat="42.718760" lon="-2.592310">
        <ele>709.607</ele>
        <time>2011-06-18T14:15:10Z</time>
      </trkpt>
      <trkpt lat="42.718800" lon="-2.592440">
        <ele>710.166</ele>
        <time>2011-06-18T14:15:03Z</time>
      </trkpt>
      <trkpt lat="42.718860" lon="-2.592540">
        <ele>709.177</ele>
        <time>2011-06-18T14:14:55Z</time>
      </trkpt>
      <trkpt lat="42.718920" lon="-2.592630">
        <ele>709.197</ele>
        <time>2011-06-18T14:14:48Z</time>
      </trkpt>
      <trkpt lat="42.718980" lon="-2.592740">
        <ele>708.116</ele>
        <time>2011-06-18T14:14:41Z</time>
      </trkpt>
      <trkpt lat="42.719020" lon="-2.592860">
        <ele>707.771</ele>
        <time>2011-06-18T14:14:34Z</time>
      </trkpt>
      <trkpt lat="42.719050" lon="-2.592990">
        <ele>707.292</ele>
        <time>2011-06-18T14:14:27Z</time>
      </trkpt>
      <trkpt lat="42.719070" lon="-2.593120">
        <ele>707.726</ele>
        <time>2011-06-18T14:14:20Z</time>
      </trkpt>
      <trkpt lat="42.719080" lon="-2.593250">
        <ele>708.161</ele>
        <time>2011-06-18T14:14:13Z</time>
      </trkpt>
      <trkpt lat="42.719090" lon="-2.593390">
        <ele>708.121</ele>
        <time>2011-06-18T14:14:06Z</time>
      </trkpt>
      <trkpt lat="42.719070" lon="-2.593520">
        <ele>708.113</ele>
        <time>2011-06-18T14:13:59Z</time>
      </trkpt>
      <trkpt lat="42.719020" lon="-2.593640">
        <ele>708.607</ele>
        <time>2011-06-18T14:13:52Z</time>
      </trkpt>
      <trkpt lat="42.718990" lon="-2.593760">
        <ele>709.118</ele>
        <time>2011-06-18T14:13:45Z</time>
      </trkpt>
      <trkpt lat="42.719030" lon="-2.593870">
        <ele>709.649</ele>
        <time>2011-06-18T14:13:36Z</time>
      </trkpt>
      <trkpt lat="42.719080" lon="-2.593860">
        <ele>711.559</ele>
        <time>2011-06-18T14:12:32Z</time>
      </trkpt>
      <trkpt lat="42.719030" lon="-2.593870">
        <ele>711.538</ele>
        <time>2011-06-18T14:12:13Z</time>
      </trkpt>
      <trkpt lat="42.718970" lon="-2.593780">
        <ele>709.123</ele>
        <time>2011-06-18T14:12:00Z</time>
      </trkpt>
      <trkpt lat="42.718940" lon="-2.593880">
        <ele>708.124</ele>
        <time>2011-06-18T14:11:52Z</time>
      </trkpt>
      <trkpt lat="42.718890" lon="-2.594010">
        <ele>707.728</ele>
        <time>2011-06-18T14:11:43Z</time>
      </trkpt>
      <trkpt lat="42.718850" lon="-2.594150">
        <ele>706.777</ele>
        <time>2011-06-18T14:11:26Z</time>
      </trkpt>
      <trkpt lat="42.718800" lon="-2.594270">
        <ele>705.361</ele>
        <time>2011-06-18T14:11:15Z</time>
      </trkpt>
      <trkpt lat="42.718770" lon="-2.594380">
        <ele>701.927</ele>
        <time>2011-06-18T14:09:38Z</time>
      </trkpt>
      <trkpt lat="42.718750" lon="-2.594500">
        <ele>700.907</ele>
        <time>2011-06-18T14:09:19Z</time>
      </trkpt>
      <trkpt lat="42.718800" lon="-2.594600">
        <ele>700.549</ele>
        <time>2011-06-18T14:09:05Z</time>
      </trkpt>
      <trkpt lat="42.718870" lon="-2.594660">
        <ele>698.540</ele>
        <time>2011-06-18T14:08:53Z</time>
      </trkpt>
      <trkpt lat="42.718960" lon="-2.594700">
        <ele>698.190</ele>
        <time>2011-06-18T14:08:44Z</time>
      </trkpt>
      <trkpt lat="42.718920" lon="-2.594680">
        <ele>699.039</ele>
        <time>2011-06-18T14:08:16Z</time>
      </trkpt>
      <trkpt lat="42.718980" lon="-2.594700">
        <ele>697.644</ele>
        <time>2011-06-18T14:08:04Z</time>
      </trkpt>
      <trkpt lat="42.719020" lon="-2.594810">
        <ele>693.255</ele>
        <time>2011-06-18T14:07:51Z</time>
      </trkpt>
      <trkpt lat="42.719000" lon="-2.594940">
        <ele>694.229</ele>
        <time>2011-06-18T14:07:30Z</time>
      </trkpt>
      <trkpt lat="42.718950" lon="-2.595070">
        <ele>692.822</ele>
        <time>2011-06-18T14:07:15Z</time>
      </trkpt>
      <trkpt lat="42.718990" lon="-2.595090">
        <ele>693.262</ele>
        <time>2011-06-18T14:05:29Z</time>
      </trkpt>
      <trkpt lat="42.719010" lon="-2.595150">
        <ele>692.308</ele>
        <time>2011-06-18T14:05:05Z</time>
      </trkpt>
      <trkpt lat="42.719090" lon="-2.595240">
        <ele>691.807</ele>
        <time>2011-06-18T14:04:56Z</time>
      </trkpt>
      <trkpt lat="42.719260" lon="-2.595390">
        <ele>691.344</ele>
        <time>2011-06-18T14:04:38Z</time>
      </trkpt>
      <trkpt lat="42.719350" lon="-2.595440">
        <ele>690.925</ele>
        <time>2011-06-18T14:04:30Z</time>
      </trkpt>
      <trkpt lat="42.719430" lon="-2.595520">
        <ele>690.445</ele>
        <time>2011-06-18T14:04:22Z</time>
      </trkpt>
      <trkpt lat="42.719520" lon="-2.595580">
        <ele>689.914</ele>
        <time>2011-06-18T14:04:13Z</time>
      </trkpt>
      <trkpt lat="42.719600" lon="-2.595650">
        <ele>689.459</ele>
        <time>2011-06-18T14:04:04Z</time>
      </trkpt>
      <trkpt lat="42.719670" lon="-2.595720">
        <ele>688.970</ele>
        <time>2011-06-18T14:03:38Z</time>
      </trkpt>
      <trkpt lat="42.719760" lon="-2.595700">
        <ele>688.034</ele>
        <time>2011-06-18T14:03:28Z</time>
      </trkpt>
      <trkpt lat="42.719820" lon="-2.595790">
        <ele>685.166</ele>
        <time>2011-06-18T14:03:17Z</time>
      </trkpt>
      <trkpt lat="42.719760" lon="-2.595850">
        <ele>687.029</ele>
        <time>2011-06-18T14:03:06Z</time>
      </trkpt>
      <trkpt lat="42.719720" lon="-2.595860">
        <ele>686.021</ele>
        <time>2011-06-18T14:02:49Z</time>
      </trkpt>
      <trkpt lat="42.719370" lon="-2.595920">
        <ele>685.607</ele>
        <time>2011-06-18T14:02:37Z</time>
      </trkpt>
      <trkpt lat="42.719410" lon="-2.595950">
        <ele>687.088</ele>
        <time>2011-06-18T13:47:49Z</time>
      </trkpt>
      <trkpt lat="42.719490" lon="-2.595970">
        <ele>686.549</ele>
        <time>2011-06-18T13:47:37Z</time>
      </trkpt>
      <trkpt lat="42.719580" lon="-2.595960">
        <ele>686.569</ele>
        <time>2011-06-18T13:47:28Z</time>
      </trkpt>
      <trkpt lat="42.719660" lon="-2.595930">
        <ele>686.538</ele>
        <time>2011-06-18T13:47:20Z</time>
      </trkpt>
      <trkpt lat="42.719730" lon="-2.595870">
        <ele>685.693</ele>
        <time>2011-06-18T13:46:47Z</time>
      </trkpt>
      <trkpt lat="42.719790" lon="-2.595770">
        <ele>684.634</ele>
        <time>2011-06-18T13:46:37Z</time>
      </trkpt>
      <trkpt lat="42.719840" lon="-2.595710">
        <ele>684.698</ele>
        <time>2011-06-18T13:46:18Z</time>
      </trkpt>
      <trkpt lat="42.719910" lon="-2.595680">
        <ele>682.783</ele>
        <time>2011-06-18T13:46:08Z</time>
      </trkpt>
      <trkpt lat="42.720000" lon="-2.595700">
        <ele>683.125</ele>
        <time>2011-06-18T13:46:00Z</time>
      </trkpt>
      <trkpt lat="42.720100" lon="-2.595740">
        <ele>682.717</ele>
        <time>2011-06-18T13:45:52Z</time>
      </trkpt>
      <trkpt lat="42.720190" lon="-2.595780">
        <ele>681.207</ele>
        <time>2011-06-18T13:45:43Z</time>
      </trkpt>
      <trkpt lat="42.720290" lon="-2.595750">
        <ele>679.370</ele>
        <time>2011-06-18T13:45:35Z</time>
      </trkpt>
      <trkpt lat="42.720370" lon="-2.595700">
        <ele>678.851</ele>
        <time>2011-06-18T13:45:28Z</time>
      </trkpt>
      <trkpt lat="42.720470" lon="-2.595680">
        <ele>678.381</ele>
        <time>2011-06-18T13:45:21Z</time>
      </trkpt>
      <trkpt lat="42.720570" lon="-2.595690">
        <ele>677.950</ele>
        <time>2011-06-18T13:45:13Z</time>
      </trkpt>
      <trkpt lat="42.720650" lon="-2.595740">
        <ele>677.485</ele>
        <time>2011-06-18T13:45:04Z</time>
      </trkpt>
      <trkpt lat="42.720740" lon="-2.595820">
        <ele>677.446</ele>
        <time>2011-06-18T13:44:56Z</time>
      </trkpt>
      <trkpt lat="42.720800" lon="-2.595900">
        <ele>678.840</ele>
        <time>2011-06-18T13:44:48Z</time>
      </trkpt>
      <trkpt lat="42.720790" lon="-2.596030">
        <ele>679.352</ele>
        <time>2011-06-18T13:44:41Z</time>
      </trkpt>
      <trkpt lat="42.720750" lon="-2.596130">
        <ele>679.853</ele>
        <time>2011-06-18T13:44:34Z</time>
      </trkpt>
      <trkpt lat="42.720720" lon="-2.596230">
        <ele>680.708</ele>
        <time>2011-06-18T13:44:27Z</time>
      </trkpt>
      <trkpt lat="42.720750" lon="-2.596350">
        <ele>682.207</ele>
        <time>2011-06-18T13:44:20Z</time>
      </trkpt>
      <trkpt lat="42.720810" lon="-2.596440">
        <ele>683.147</ele>
        <time>2011-06-18T13:44:13Z</time>
      </trkpt>
      <trkpt lat="42.720890" lon="-2.596510">
        <ele>685.118</ele>
        <time>2011-06-18T13:44:06Z</time>
      </trkpt>
      <trkpt lat="42.721000" lon="-2.596520">
        <ele>686.088</ele>
        <time>2011-06-18T13:43:58Z</time>
      </trkpt>
      <trkpt lat="42.721050" lon="-2.596410">
        <ele>688.037</ele>
        <time>2011-06-18T13:43:50Z</time>
      </trkpt>
      <trkpt lat="42.721090" lon="-2.596300">
        <ele>688.512</ele>
        <time>2011-06-18T13:43:43Z</time>
      </trkpt>
      <trkpt lat="42.721120" lon="-2.596180">
        <ele>688.993</ele>
        <time>2011-06-18T13:43:36Z</time>
      </trkpt>
      <trkpt lat="42.721180" lon="-2.596090">
        <ele>689.487</ele>
        <time>2011-06-18T13:43:29Z</time>
      </trkpt>
      <trkpt lat="42.721260" lon="-2.596000">
        <ele>689.958</ele>
        <time>2011-06-18T13:43:22Z</time>
      </trkpt>
      <trkpt lat="42.721320" lon="-2.595900">
        <ele>689.952</ele>
        <time>2011-06-18T13:43:15Z</time>
      </trkpt>
      <trkpt lat="42.721340" lon="-2.595770">
        <ele>690.417</ele>
        <time>2011-06-18T13:43:08Z</time>
      </trkpt>
      <trkpt lat="42.721350" lon="-2.595640">
        <ele>691.807</ele>
        <time>2011-06-18T13:43:01Z</time>
      </trkpt>
      <trkpt lat="42.721370" lon="-2.595510">
        <ele>693.237</ele>
        <time>2011-06-18T13:42:54Z</time>
      </trkpt>
      <trkpt lat="42.721400" lon="-2.595390">
        <ele>694.298</ele>
        <time>2011-06-18T13:42:47Z</time>
      </trkpt>
      <trkpt lat="42.721460" lon="-2.595280">
        <ele>696.698</ele>
        <time>2011-06-18T13:42:40Z</time>
      </trkpt>
      <trkpt lat="42.721500" lon="-2.595170">
        <ele>699.037</ele>
        <time>2011-06-18T13:42:33Z</time>
      </trkpt>
      <trkpt lat="42.721540" lon="-2.595060">
        <ele>699.582</ele>
        <time>2011-06-18T13:42:26Z</time>
      </trkpt>
      <trkpt lat="42.721580" lon="-2.594940">
        <ele>699.583</ele>
        <time>2011-06-18T13:42:19Z</time>
      </trkpt>
      <trkpt lat="42.721600" lon="-2.594820">
        <ele>700.927</ele>
        <time>2011-06-18T13:42:12Z</time>
      </trkpt>
      <trkpt lat="42.721630" lon="-2.594700">
        <ele>700.984</ele>
        <time>2011-06-18T13:42:05Z</time>
      </trkpt>
      <trkpt lat="42.721650" lon="-2.594580">
        <ele>702.907</ele>
        <time>2011-06-18T13:41:58Z</time>
      </trkpt>
      <trkpt lat="42.721680" lon="-2.594460">
        <ele>704.317</ele>
        <time>2011-06-18T13:41:51Z</time>
      </trkpt>
      <trkpt lat="42.721690" lon="-2.594340">
        <ele>705.307</ele>
        <time>2011-06-18T13:41:44Z</time>
      </trkpt>
      <trkpt lat="42.721740" lon="-2.594200">
        <ele>707.220</ele>
        <time>2011-06-18T13:41:36Z</time>
      </trkpt>
      <trkpt lat="42.721770" lon="-2.594090">
        <ele>708.671</ele>
        <time>2011-06-18T13:41:29Z</time>
      </trkpt>
      <trkpt lat="42.721820" lon="-2.593970">
        <ele>709.131</ele>
        <time>2011-06-18T13:41:21Z</time>
      </trkpt>
      <trkpt lat="42.721860" lon="-2.593860">
        <ele>708.620</ele>
        <time>2011-06-18T13:41:14Z</time>
      </trkpt>
      <trkpt lat="42.721910" lon="-2.593740">
        <ele>709.635</ele>
        <time>2011-06-18T13:41:07Z</time>
      </trkpt>
      <trkpt lat="42.721950" lon="-2.593630">
        <ele>711.076</ele>
        <time>2011-06-18T13:41:00Z</time>
      </trkpt>
      <trkpt lat="42.722010" lon="-2.593470">
        <ele>711.050</ele>
        <time>2011-06-18T13:40:50Z</time>
      </trkpt>
      <trkpt lat="42.722040" lon="-2.593370">
        <ele>711.534</ele>
        <time>2011-06-18T13:40:44Z</time>
      </trkpt>
      <trkpt lat="42.722070" lon="-2.593270">
        <ele>715.455</ele>
        <time>2011-06-18T13:40:38Z</time>
      </trkpt>
      <trkpt lat="42.722110" lon="-2.593140">
        <ele>713.410</ele>
        <time>2011-06-18T13:40:31Z</time>
      </trkpt>
      <trkpt lat="42.722130" lon="-2.593020">
        <ele>713.407</ele>
        <time>2011-06-18T13:40:24Z</time>
      </trkpt>
      <trkpt lat="42.722160" lon="-2.592890">
        <ele>713.445</ele>
        <time>2011-06-18T13:40:17Z</time>
      </trkpt>
      <trkpt lat="42.722190" lon="-2.592770">
        <ele>712.526</ele>
        <time>2011-06-18T13:40:10Z</time>
      </trkpt>
      <trkpt lat="42.722240" lon="-2.592640">
        <ele>715.936</ele>
        <time>2011-06-18T13:40:02Z</time>
      </trkpt>
      <trkpt lat="42.722300" lon="-2.592550">
        <ele>716.395</ele>
        <time>2011-06-18T13:39:55Z</time>
      </trkpt>
      <trkpt lat="42.722370" lon="-2.592450">
        <ele>717.380</ele>
        <time>2011-06-18T13:39:47Z</time>
      </trkpt>
      <trkpt lat="42.722430" lon="-2.592380">
        <ele>717.841</ele>
        <time>2011-06-18T13:39:41Z</time>
      </trkpt>
      <trkpt lat="42.722500" lon="-2.592290">
        <ele>718.285</ele>
        <time>2011-06-18T13:39:33Z</time>
      </trkpt>
      <trkpt lat="42.722580" lon="-2.592200">
        <ele>718.728</ele>
        <time>2011-06-18T13:39:25Z</time>
      </trkpt>
      <trkpt lat="42.722640" lon="-2.592100">
        <ele>719.289</ele>
        <time>2011-06-18T13:39:18Z</time>
      </trkpt>
      <trkpt lat="42.722700" lon="-2.592000">
        <ele>719.217</ele>
        <time>2011-06-18T13:39:11Z</time>
      </trkpt>
      <trkpt lat="42.722760" lon="-2.591900">
        <ele>719.707</ele>
        <time>2011-06-18T13:39:03Z</time>
      </trkpt>
      <trkpt lat="42.722830" lon="-2.591800">
        <ele>719.784</ele>
        <time>2011-06-18T13:38:55Z</time>
      </trkpt>
      <trkpt lat="42.722890" lon="-2.591700">
        <ele>720.245</ele>
        <time>2011-06-18T13:38:47Z</time>
      </trkpt>
      <trkpt lat="42.722950" lon="-2.591600">
        <ele>720.695</ele>
        <time>2011-06-18T13:38:36Z</time>
      </trkpt>
      <trkpt lat="42.722990" lon="-2.591520">
        <ele>721.144</ele>
        <time>2011-06-18T13:38:18Z</time>
      </trkpt>
      <trkpt lat="42.723050" lon="-2.591420">
        <ele>721.629</ele>
        <time>2011-06-18T13:38:11Z</time>
      </trkpt>
      <trkpt lat="42.723100" lon="-2.591320">
        <ele>722.630</ele>
        <time>2011-06-18T13:38:04Z</time>
      </trkpt>
      <trkpt lat="42.723150" lon="-2.591210">
        <ele>723.094</ele>
        <time>2011-06-18T13:37:57Z</time>
      </trkpt>
      <trkpt lat="42.723200" lon="-2.591100">
        <ele>725.081</ele>
        <time>2011-06-18T13:37:50Z</time>
      </trkpt>
      <trkpt lat="42.723250" lon="-2.590980">
        <ele>725.961</ele>
        <time>2011-06-18T13:37:43Z</time>
      </trkpt>
      <trkpt lat="42.723290" lon="-2.590860">
        <ele>726.917</ele>
        <time>2011-06-18T13:37:36Z</time>
      </trkpt>
      <trkpt lat="42.723330" lon="-2.590740">
        <ele>728.407</ele>
        <time>2011-06-18T13:37:29Z</time>
      </trkpt>
      <trkpt lat="42.723370" lon="-2.590630">
        <ele>729.380</ele>
        <time>2011-06-18T13:37:22Z</time>
      </trkpt>
      <trkpt lat="42.723410" lon="-2.590510">
        <ele>729.891</ele>
        <time>2011-06-18T13:37:15Z</time>
      </trkpt>
      <trkpt lat="42.723460" lon="-2.590390">
        <ele>730.391</ele>
        <time>2011-06-18T13:37:08Z</time>
      </trkpt>
      <trkpt lat="42.723520" lon="-2.590290">
        <ele>730.770</ele>
        <time>2011-06-18T13:37:01Z</time>
      </trkpt>
      <trkpt lat="42.723590" lon="-2.590200">
        <ele>732.625</ele>
        <time>2011-06-18T13:36:54Z</time>
      </trkpt>
      <trkpt lat="42.723670" lon="-2.590110">
        <ele>733.626</ele>
        <time>2011-06-18T13:36:47Z</time>
      </trkpt>
      <trkpt lat="42.723740" lon="-2.590020">
        <ele>733.120</ele>
        <time>2011-06-18T13:36:40Z</time>
      </trkpt>
      <trkpt lat="42.723800" lon="-2.589910">
        <ele>734.139</ele>
        <time>2011-06-18T13:36:33Z</time>
      </trkpt>
      <trkpt lat="42.723840" lon="-2.589790">
        <ele>735.101</ele>
        <time>2011-06-18T13:36:26Z</time>
      </trkpt>
      <trkpt lat="42.723870" lon="-2.589670">
        <ele>736.521</ele>
        <time>2011-06-18T13:36:19Z</time>
      </trkpt>
      <trkpt lat="42.723910" lon="-2.589540">
        <ele>737.007</ele>
        <time>2011-06-18T13:36:12Z</time>
      </trkpt>
      <trkpt lat="42.723920" lon="-2.589400">
        <ele>737.065</ele>
        <time>2011-06-18T13:36:05Z</time>
      </trkpt>
      <trkpt lat="42.723910" lon="-2.589270">
        <ele>738.436</ele>
        <time>2011-06-18T13:35:58Z</time>
      </trkpt>
      <trkpt lat="42.723890" lon="-2.589140">
        <ele>739.486</ele>
        <time>2011-06-18T13:35:51Z</time>
      </trkpt>
      <trkpt lat="42.723870" lon="-2.589010">
        <ele>739.475</ele>
        <time>2011-06-18T13:35:44Z</time>
      </trkpt>
      <trkpt lat="42.723890" lon="-2.588880">
        <ele>739.490</ele>
        <time>2011-06-18T13:35:37Z</time>
      </trkpt>
      <trkpt lat="42.723910" lon="-2.588750">
        <ele>739.471</ele>
        <time>2011-06-18T13:35:30Z</time>
      </trkpt>
      <trkpt lat="42.723920" lon="-2.588630">
        <ele>739.415</ele>
        <time>2011-06-18T13:35:23Z</time>
      </trkpt>
      <trkpt lat="42.723940" lon="-2.588500">
        <ele>740.438</ele>
        <time>2011-06-18T13:35:16Z</time>
      </trkpt>
      <trkpt lat="42.723960" lon="-2.588380">
        <ele>739.470</ele>
        <time>2011-06-18T13:35:09Z</time>
      </trkpt>
      <trkpt lat="42.724000" lon="-2.588270">
        <ele>739.917</ele>
        <time>2011-06-18T13:35:02Z</time>
      </trkpt>
      <trkpt lat="42.724040" lon="-2.588150">
        <ele>740.407</ele>
        <time>2011-06-18T13:34:55Z</time>
      </trkpt>
      <trkpt lat="42.724080" lon="-2.588030">
        <ele>741.825</ele>
        <time>2011-06-18T13:34:48Z</time>
      </trkpt>
      <trkpt lat="42.724140" lon="-2.587940">
        <ele>742.386</ele>
        <time>2011-06-18T13:34:41Z</time>
      </trkpt>
      <trkpt lat="42.724190" lon="-2.587830">
        <ele>743.216</ele>
        <time>2011-06-18T13:34:34Z</time>
      </trkpt>
      <trkpt lat="42.724250" lon="-2.587720">
        <ele>744.265</ele>
        <time>2011-06-18T13:34:27Z</time>
      </trkpt>
      <trkpt lat="42.724300" lon="-2.587620">
        <ele>745.690</ele>
        <time>2011-06-18T13:34:20Z</time>
      </trkpt>
      <trkpt lat="42.724360" lon="-2.587520">
        <ele>746.681</ele>
        <time>2011-06-18T13:34:13Z</time>
      </trkpt>
      <trkpt lat="42.724420" lon="-2.587420">
        <ele>748.045</ele>
        <time>2011-06-18T13:34:06Z</time>
      </trkpt>
      <trkpt lat="42.724470" lon="-2.587320">
        <ele>748.029</ele>
        <time>2011-06-18T13:33:59Z</time>
      </trkpt>
      <trkpt lat="42.724540" lon="-2.587220">
        <ele>748.000</ele>
        <time>2011-06-18T13:33:52Z</time>
      </trkpt>
      <trkpt lat="42.724600" lon="-2.587120">
        <ele>749.020</ele>
        <time>2011-06-18T13:33:45Z</time>
      </trkpt>
      <trkpt lat="42.724650" lon="-2.587010">
        <ele>750.007</ele>
        <time>2011-06-18T13:33:38Z</time>
      </trkpt>
      <trkpt lat="42.724710" lon="-2.586910">
        <ele>750.914</ele>
        <time>2011-06-18T13:33:31Z</time>
      </trkpt>
      <trkpt lat="42.724760" lon="-2.586800">
        <ele>750.995</ele>
        <time>2011-06-18T13:33:24Z</time>
      </trkpt>
      <trkpt lat="42.724810" lon="-2.586700">
        <ele>750.435</ele>
        <time>2011-06-18T13:33:17Z</time>
      </trkpt>
      <trkpt lat="42.724850" lon="-2.586590">
        <ele>752.474</ele>
        <time>2011-06-18T13:33:10Z</time>
      </trkpt>
      <trkpt lat="42.724910" lon="-2.586480">
        <ele>752.969</ele>
        <time>2011-06-18T13:33:03Z</time>
      </trkpt>
      <trkpt lat="42.724960" lon="-2.586370">
        <ele>753.340</ele>
        <time>2011-06-18T13:32:56Z</time>
      </trkpt>
      <trkpt lat="42.725010" lon="-2.586260">
        <ele>754.364</ele>
        <time>2011-06-18T13:32:49Z</time>
      </trkpt>
      <trkpt lat="42.725060" lon="-2.586160">
        <ele>754.395</ele>
        <time>2011-06-18T13:32:42Z</time>
      </trkpt>
      <trkpt lat="42.725110" lon="-2.586050">
        <ele>754.849</ele>
        <time>2011-06-18T13:32:34Z</time>
      </trkpt>
      <trkpt lat="42.725160" lon="-2.585950">
        <ele>755.323</ele>
        <time>2011-06-18T13:32:27Z</time>
      </trkpt>
      <trkpt lat="42.725210" lon="-2.585850">
        <ele>756.207</ele>
        <time>2011-06-18T13:32:20Z</time>
      </trkpt>
      <trkpt lat="42.725270" lon="-2.585750">
        <ele>757.671</ele>
        <time>2011-06-18T13:32:13Z</time>
      </trkpt>
      <trkpt lat="42.725330" lon="-2.585650">
        <ele>758.642</ele>
        <time>2011-06-18T13:32:06Z</time>
      </trkpt>
      <trkpt lat="42.725390" lon="-2.585560">
        <ele>759.182</ele>
        <time>2011-06-18T13:31:59Z</time>
      </trkpt>
      <trkpt lat="42.725450" lon="-2.585460">
        <ele>760.581</ele>
        <time>2011-06-18T13:31:52Z</time>
      </trkpt>
      <trkpt lat="42.725490" lon="-2.585340">
        <ele>761.536</ele>
        <time>2011-06-18T13:31:45Z</time>
      </trkpt>
      <trkpt lat="42.725530" lon="-2.585220">
        <ele>762.987</ele>
        <time>2011-06-18T13:31:37Z</time>
      </trkpt>
      <trkpt lat="42.725580" lon="-2.585100">
        <ele>763.921</ele>
        <time>2011-06-18T13:31:29Z</time>
      </trkpt>
      <trkpt lat="42.725620" lon="-2.584970">
        <ele>765.498</ele>
        <time>2011-06-18T13:31:21Z</time>
      </trkpt>
      <trkpt lat="42.725650" lon="-2.584850">
        <ele>766.815</ele>
        <time>2011-06-18T13:31:14Z</time>
      </trkpt>
      <trkpt lat="42.725680" lon="-2.584740">
        <ele>768.726</ele>
        <time>2011-06-18T13:31:06Z</time>
      </trkpt>
      <trkpt lat="42.725670" lon="-2.584620">
        <ele>769.707</ele>
        <time>2011-06-18T13:30:58Z</time>
      </trkpt>
      <trkpt lat="42.725650" lon="-2.584490">
        <ele>771.181</ele>
        <time>2011-06-18T13:30:50Z</time>
      </trkpt>
      <trkpt lat="42.725620" lon="-2.584360">
        <ele>772.542</ele>
        <time>2011-06-18T13:30:42Z</time>
      </trkpt>
      <trkpt lat="42.725620" lon="-2.584230">
        <ele>773.572</ele>
        <time>2011-06-18T13:30:34Z</time>
      </trkpt>
      <trkpt lat="42.725640" lon="-2.584110">
        <ele>774.521</ele>
        <time>2011-06-18T13:30:26Z</time>
      </trkpt>
      <trkpt lat="42.725690" lon="-2.584000">
        <ele>775.946</ele>
        <time>2011-06-18T13:30:18Z</time>
      </trkpt>
      <trkpt lat="42.725730" lon="-2.583870">
        <ele>778.357</ele>
        <time>2011-06-18T13:30:09Z</time>
      </trkpt>
      <trkpt lat="42.725750" lon="-2.583750">
        <ele>780.381</ele>
        <time>2011-06-18T13:30:00Z</time>
      </trkpt>
      <trkpt lat="42.725760" lon="-2.583620">
        <ele>781.241</ele>
        <time>2011-06-18T13:29:52Z</time>
      </trkpt>
      <trkpt lat="42.725790" lon="-2.583510">
        <ele>783.181</ele>
        <time>2011-06-18T13:29:44Z</time>
      </trkpt>
      <trkpt lat="42.725820" lon="-2.583390">
        <ele>785.009</ele>
        <time>2011-06-18T13:29:36Z</time>
      </trkpt>
      <trkpt lat="42.725870" lon="-2.583270">
        <ele>787.007</ele>
        <time>2011-06-18T13:29:28Z</time>
      </trkpt>
      <trkpt lat="42.725910" lon="-2.583160">
        <ele>788.436</ele>
        <time>2011-06-18T13:29:20Z</time>
      </trkpt>
      <trkpt lat="42.725960" lon="-2.583060">
        <ele>789.447</ele>
        <time>2011-06-18T13:29:12Z</time>
      </trkpt>
      <trkpt lat="42.726040" lon="-2.582970">
        <ele>793.287</ele>
        <time>2011-06-18T13:29:02Z</time>
      </trkpt>
      <trkpt lat="42.726110" lon="-2.582910">
        <ele>794.266</ele>
        <time>2011-06-18T13:28:53Z</time>
      </trkpt>
      <trkpt lat="42.726200" lon="-2.582910">
        <ele>797.541</ele>
        <time>2011-06-18T13:28:45Z</time>
      </trkpt>
      <trkpt lat="42.726300" lon="-2.582870">
        <ele>799.012</ele>
        <time>2011-06-18T13:28:37Z</time>
      </trkpt>
      <trkpt lat="42.726370" lon="-2.582800">
        <ele>799.536</ele>
        <time>2011-06-18T13:28:29Z</time>
      </trkpt>
      <trkpt lat="42.726460" lon="-2.582740">
        <ele>799.974</ele>
        <time>2011-06-18T13:28:21Z</time>
      </trkpt>
      <trkpt lat="42.726530" lon="-2.582680">
        <ele>801.956</ele>
        <time>2011-06-18T13:28:13Z</time>
      </trkpt>
      <trkpt lat="42.726600" lon="-2.582590">
        <ele>803.321</ele>
        <time>2011-06-18T13:28:05Z</time>
      </trkpt>
      <trkpt lat="42.726690" lon="-2.582540">
        <ele>804.807</ele>
        <time>2011-06-18T13:27:55Z</time>
      </trkpt>
      <trkpt lat="42.726780" lon="-2.582500">
        <ele>805.759</ele>
        <time>2011-06-18T13:27:47Z</time>
      </trkpt>
      <trkpt lat="42.726860" lon="-2.582440">
        <ele>805.710</ele>
        <time>2011-06-18T13:27:39Z</time>
      </trkpt>
      <trkpt lat="42.726940" lon="-2.582390">
        <ele>806.240</ele>
        <time>2011-06-18T13:27:31Z</time>
      </trkpt>
      <trkpt lat="42.727000" lon="-2.582310">
        <ele>807.799</ele>
        <time>2011-06-18T13:27:23Z</time>
      </trkpt>
      <trkpt lat="42.727070" lon="-2.582210">
        <ele>808.184</ele>
        <time>2011-06-18T13:27:15Z</time>
      </trkpt>
      <trkpt lat="42.727140" lon="-2.582120">
        <ele>809.695</ele>
        <time>2011-06-18T13:27:07Z</time>
      </trkpt>
      <trkpt lat="42.727170" lon="-2.582000">
        <ele>810.529</ele>
        <time>2011-06-18T13:26:58Z</time>
      </trkpt>
      <trkpt lat="42.727260" lon="-2.581940">
        <ele>811.066</ele>
        <time>2011-06-18T13:26:50Z</time>
      </trkpt>
      <trkpt lat="42.727330" lon="-2.581860">
        <ele>812.029</ele>
        <time>2011-06-18T13:26:42Z</time>
      </trkpt>
      <trkpt lat="42.727400" lon="-2.581770">
        <ele>812.021</ele>
        <time>2011-06-18T13:26:33Z</time>
      </trkpt>
      <trkpt lat="42.727440" lon="-2.581650">
        <ele>812.907</ele>
        <time>2011-06-18T13:26:25Z</time>
      </trkpt>
      <trkpt lat="42.727500" lon="-2.581540">
        <ele>812.998</ele>
        <time>2011-06-18T13:26:17Z</time>
      </trkpt>
      <trkpt lat="42.727530" lon="-2.581420">
        <ele>813.469</ele>
        <time>2011-06-18T13:26:10Z</time>
      </trkpt>
      <trkpt lat="42.727590" lon="-2.581330">
        <ele>814.419</ele>
        <time>2011-06-18T13:26:02Z</time>
      </trkpt>
      <trkpt lat="42.727630" lon="-2.581210">
        <ele>814.418</ele>
        <time>2011-06-18T13:25:55Z</time>
      </trkpt>
      <trkpt lat="42.727670" lon="-2.581100">
        <ele>815.833</ele>
        <time>2011-06-18T13:25:48Z</time>
      </trkpt>
      <trkpt lat="42.727710" lon="-2.580990">
        <ele>815.364</ele>
        <time>2011-06-18T13:25:41Z</time>
      </trkpt>
      <trkpt lat="42.727750" lon="-2.580860">
        <ele>815.358</ele>
        <time>2011-06-18T13:25:33Z</time>
      </trkpt>
      <trkpt lat="42.727770" lon="-2.580740">
        <ele>817.331</ele>
        <time>2011-06-18T13:25:26Z</time>
      </trkpt>
      <trkpt lat="42.727810" lon="-2.580620">
        <ele>818.261</ele>
        <time>2011-06-18T13:25:18Z</time>
      </trkpt>
      <trkpt lat="42.727850" lon="-2.580510">
        <ele>818.707</ele>
        <time>2011-06-18T13:25:11Z</time>
      </trkpt>
      <trkpt lat="42.727900" lon="-2.580400">
        <ele>820.207</ele>
        <time>2011-06-18T13:25:03Z</time>
      </trkpt>
      <trkpt lat="42.727970" lon="-2.580290">
        <ele>820.685</ele>
        <time>2011-06-18T13:24:54Z</time>
      </trkpt>
      <trkpt lat="42.728020" lon="-2.580180">
        <ele>821.656</ele>
        <time>2011-06-18T13:24:46Z</time>
      </trkpt>
      <trkpt lat="42.728040" lon="-2.580050">
        <ele>824.556</ele>
        <time>2011-06-18T13:24:37Z</time>
      </trkpt>
      <trkpt lat="42.728080" lon="-2.579920">
        <ele>824.935</ele>
        <time>2011-06-18T13:24:29Z</time>
      </trkpt>
      <trkpt lat="42.728110" lon="-2.579800">
        <ele>827.350</ele>
        <time>2011-06-18T13:24:21Z</time>
      </trkpt>
      <trkpt lat="42.728160" lon="-2.579700">
        <ele>827.881</ele>
        <time>2011-06-18T13:24:13Z</time>
      </trkpt>
      <trkpt lat="42.728230" lon="-2.579600">
        <ele>828.835</ele>
        <time>2011-06-18T13:24:05Z</time>
      </trkpt>
      <trkpt lat="42.728280" lon="-2.579490">
        <ele>829.378</ele>
        <time>2011-06-18T13:23:57Z</time>
      </trkpt>
      <trkpt lat="42.728360" lon="-2.579420">
        <ele>829.833</ele>
        <time>2011-06-18T13:23:49Z</time>
      </trkpt>
      <trkpt lat="42.728430" lon="-2.579350">
        <ele>829.826</ele>
        <time>2011-06-18T13:23:41Z</time>
      </trkpt>
      <trkpt lat="42.728510" lon="-2.579270">
        <ele>829.807</ele>
        <time>2011-06-18T13:23:33Z</time>
      </trkpt>
      <trkpt lat="42.728590" lon="-2.579210">
        <ele>830.239</ele>
        <time>2011-06-18T13:23:25Z</time>
      </trkpt>
      <trkpt lat="42.728690" lon="-2.579160">
        <ele>830.230</ele>
        <time>2011-06-18T13:23:17Z</time>
      </trkpt>
      <trkpt lat="42.728780" lon="-2.579110">
        <ele>831.730</ele>
        <time>2011-06-18T13:23:09Z</time>
      </trkpt>
      <trkpt lat="42.728870" lon="-2.579050">
        <ele>831.749</ele>
        <time>2011-06-18T13:23:01Z</time>
      </trkpt>
      <trkpt lat="42.728960" lon="-2.579000">
        <ele>832.744</ele>
        <time>2011-06-18T13:22:53Z</time>
      </trkpt>
      <trkpt lat="42.729060" lon="-2.578960">
        <ele>833.665</ele>
        <time>2011-06-18T13:22:40Z</time>
      </trkpt>
      <trkpt lat="42.729110" lon="-2.578960">
        <ele>834.699</ele>
        <time>2011-06-18T13:21:51Z</time>
      </trkpt>
      <trkpt lat="42.729150" lon="-2.578890">
        <ele>835.098</ele>
        <time>2011-06-18T13:21:35Z</time>
      </trkpt>
      <trkpt lat="42.729210" lon="-2.578770">
        <ele>835.515</ele>
        <time>2011-06-18T13:21:27Z</time>
      </trkpt>
      <trkpt lat="42.729280" lon="-2.578700">
        <ele>837.026</ele>
        <time>2011-06-18T13:21:18Z</time>
      </trkpt>
      <trkpt lat="42.729370" lon="-2.578630">
        <ele>837.907</ele>
        <time>2011-06-18T13:21:09Z</time>
      </trkpt>
      <trkpt lat="42.729450" lon="-2.578550">
        <ele>837.011</ele>
        <time>2011-06-18T13:20:59Z</time>
      </trkpt>
      <trkpt lat="42.729510" lon="-2.578450">
        <ele>838.982</ele>
        <time>2011-06-18T13:20:51Z</time>
      </trkpt>
      <trkpt lat="42.729590" lon="-2.578360">
        <ele>840.882</ele>
        <time>2011-06-18T13:20:43Z</time>
      </trkpt>
      <trkpt lat="42.729670" lon="-2.578270">
        <ele>840.331</ele>
        <time>2011-06-18T13:20:35Z</time>
      </trkpt>
      <trkpt lat="42.729740" lon="-2.578150">
        <ele>840.876</ele>
        <time>2011-06-18T13:20:27Z</time>
      </trkpt>
      <trkpt lat="42.729770" lon="-2.578030">
        <ele>842.347</ele>
        <time>2011-06-18T13:20:19Z</time>
      </trkpt>
      <trkpt lat="42.729790" lon="-2.577890">
        <ele>842.391</ele>
        <time>2011-06-18T13:20:10Z</time>
      </trkpt>
      <trkpt lat="42.729910" lon="-2.577750">
        <ele>842.329</ele>
        <time>2011-06-18T13:19:51Z</time>
      </trkpt>
      <trkpt lat="42.729990" lon="-2.577650">
        <ele>842.300</ele>
        <time>2011-06-18T13:19:39Z</time>
      </trkpt>
      <trkpt lat="42.730080" lon="-2.577540">
        <ele>843.720</ele>
        <time>2011-06-18T13:19:19Z</time>
      </trkpt>
      <trkpt lat="42.730270" lon="-2.577480">
        <ele>843.707</ele>
        <time>2011-06-18T13:18:58Z</time>
      </trkpt>
      <trkpt lat="42.730360" lon="-2.577460">
        <ele>843.284</ele>
        <time>2011-06-18T13:18:21Z</time>
      </trkpt>
      <trkpt lat="42.730430" lon="-2.577390">
        <ele>843.715</ele>
        <time>2011-06-18T13:18:12Z</time>
      </trkpt>
      <trkpt lat="42.730500" lon="-2.577300">
        <ele>844.715</ele>
        <time>2011-06-18T13:18:03Z</time>
      </trkpt>
      <trkpt lat="42.730530" lon="-2.577180">
        <ele>846.134</ele>
        <time>2011-06-18T13:17:54Z</time>
      </trkpt>
      <trkpt lat="42.730530" lon="-2.577050">
        <ele>848.589</ele>
        <time>2011-06-18T13:17:46Z</time>
      </trkpt>
      <trkpt lat="42.730540" lon="-2.576930">
        <ele>850.980</ele>
        <time>2011-06-18T13:17:37Z</time>
      </trkpt>
      <trkpt lat="42.730530" lon="-2.576800">
        <ele>854.354</ele>
        <time>2011-06-18T13:17:28Z</time>
      </trkpt>
      <trkpt lat="42.730500" lon="-2.576680">
        <ele>854.383</ele>
        <time>2011-06-18T13:17:19Z</time>
      </trkpt>
      <trkpt lat="42.730470" lon="-2.576570">
        <ele>856.225</ele>
        <time>2011-06-18T13:17:11Z</time>
      </trkpt>
      <trkpt lat="42.730460" lon="-2.576430">
        <ele>857.617</ele>
        <time>2011-06-18T13:17:03Z</time>
      </trkpt>
      <trkpt lat="42.730430" lon="-2.576300">
        <ele>859.607</ele>
        <time>2011-06-18T13:16:55Z</time>
      </trkpt>
      <trkpt lat="42.730400" lon="-2.576170">
        <ele>861.550</ele>
        <time>2011-06-18T13:16:47Z</time>
      </trkpt>
      <trkpt lat="42.730400" lon="-2.576050">
        <ele>862.061</ele>
        <time>2011-06-18T13:16:40Z</time>
      </trkpt>
      <trkpt lat="42.730390" lon="-2.575910">
        <ele>862.461</ele>
        <time>2011-06-18T13:16:32Z</time>
      </trkpt>
      <trkpt lat="42.730400" lon="-2.575780">
        <ele>862.960</ele>
        <time>2011-06-18T13:16:24Z</time>
      </trkpt>
      <trkpt lat="42.730400" lon="-2.575670">
        <ele>865.895</ele>
        <time>2011-06-18T13:16:16Z</time>
      </trkpt>
      <trkpt lat="42.730380" lon="-2.575540">
        <ele>868.786</ele>
        <time>2011-06-18T13:16:08Z</time>
      </trkpt>
      <trkpt lat="42.730390" lon="-2.575420">
        <ele>870.620</ele>
        <time>2011-06-18T13:16:00Z</time>
      </trkpt>
      <trkpt lat="42.730380" lon="-2.575290">
        <ele>872.147</ele>
        <time>2011-06-18T13:15:52Z</time>
      </trkpt>
      <trkpt lat="42.730360" lon="-2.575170">
        <ele>874.029</ele>
        <time>2011-06-18T13:15:42Z</time>
      </trkpt>
      <trkpt lat="42.730400" lon="-2.575110">
        <ele>874.521</ele>
        <time>2011-06-18T13:15:21Z</time>
      </trkpt>
      <trkpt lat="42.730490" lon="-2.575060">
        <ele>874.907</ele>
        <time>2011-06-18T13:15:09Z</time>
      </trkpt>
      <trkpt lat="42.730580" lon="-2.575000">
        <ele>875.426</ele>
        <time>2011-06-18T13:15:00Z</time>
      </trkpt>
      <trkpt lat="42.730670" lon="-2.574960">
        <ele>875.917</ele>
        <time>2011-06-18T13:14:52Z</time>
      </trkpt>
      <trkpt lat="42.730740" lon="-2.574900">
        <ele>874.577</ele>
        <time>2011-06-18T13:14:37Z</time>
      </trkpt>
      <trkpt lat="42.730750" lon="-2.574770">
        <ele>876.466</ele>
        <time>2011-06-18T13:14:29Z</time>
      </trkpt>
      <trkpt lat="42.730790" lon="-2.574660">
        <ele>877.351</ele>
        <time>2011-06-18T13:14:20Z</time>
      </trkpt>
      <trkpt lat="42.730860" lon="-2.574610">
        <ele>877.342</ele>
        <time>2011-06-18T13:14:09Z</time>
      </trkpt>
      <trkpt lat="42.730820" lon="-2.574620">
        <ele>877.386</ele>
        <time>2011-06-18T13:12:51Z</time>
      </trkpt>
      <trkpt lat="42.730880" lon="-2.574600">
        <ele>877.327</ele>
        <time>2011-06-18T13:10:41Z</time>
      </trkpt>
      <trkpt lat="42.730950" lon="-2.574530">
        <ele>876.468</ele>
        <time>2011-06-18T13:10:31Z</time>
      </trkpt>
      <trkpt lat="42.731030" lon="-2.574470">
        <ele>875.914</ele>
        <time>2011-06-18T13:10:23Z</time>
      </trkpt>
      <trkpt lat="42.731110" lon="-2.574390">
        <ele>874.907</ele>
        <time>2011-06-18T13:10:14Z</time>
      </trkpt>
      <trkpt lat="42.731200" lon="-2.574340">
        <ele>874.944</ele>
        <time>2011-06-18T13:09:58Z</time>
      </trkpt>
      <trkpt lat="42.731260" lon="-2.574250">
        <ele>874.955</ele>
        <time>2011-06-18T13:09:47Z</time>
      </trkpt>
      <trkpt lat="42.731340" lon="-2.574170">
        <ele>875.435</ele>
        <time>2011-06-18T13:09:38Z</time>
      </trkpt>
      <trkpt lat="42.731410" lon="-2.574100">
        <ele>877.374</ele>
        <time>2011-06-18T13:09:31Z</time>
      </trkpt>
      <trkpt lat="42.731490" lon="-2.574030">
        <ele>877.329</ele>
        <time>2011-06-18T13:09:24Z</time>
      </trkpt>
      <trkpt lat="42.731560" lon="-2.573950">
        <ele>877.870</ele>
        <time>2011-06-18T13:09:17Z</time>
      </trkpt>
      <trkpt lat="42.731650" lon="-2.573900">
        <ele>877.384</ele>
        <time>2011-06-18T13:09:09Z</time>
      </trkpt>
      <trkpt lat="42.731740" lon="-2.573870">
        <ele>877.361</ele>
        <time>2011-06-18T13:09:02Z</time>
      </trkpt>
      <trkpt lat="42.731830" lon="-2.573860">
        <ele>876.821</ele>
        <time>2011-06-18T13:08:55Z</time>
      </trkpt>
      <trkpt lat="42.731920" lon="-2.573840">
        <ele>876.413</ele>
        <time>2011-06-18T13:08:48Z</time>
      </trkpt>
      <trkpt lat="42.732010" lon="-2.573810">
        <ele>875.407</ele>
        <time>2011-06-18T13:08:41Z</time>
      </trkpt>
      <trkpt lat="42.732100" lon="-2.573780">
        <ele>875.468</ele>
        <time>2011-06-18T13:08:34Z</time>
      </trkpt>
      <trkpt lat="42.732190" lon="-2.573740">
        <ele>875.439</ele>
        <time>2011-06-18T13:08:27Z</time>
      </trkpt>
      <trkpt lat="42.732280" lon="-2.573690">
        <ele>875.949</ele>
        <time>2011-06-18T13:08:20Z</time>
      </trkpt>
      <trkpt lat="42.732370" lon="-2.573660">
        <ele>876.878</ele>
        <time>2011-06-18T13:08:13Z</time>
      </trkpt>
      <trkpt lat="42.732460" lon="-2.573620">
        <ele>876.863</ele>
        <time>2011-06-18T13:08:06Z</time>
      </trkpt>
      <trkpt lat="42.732550" lon="-2.573560">
        <ele>877.374</ele>
        <time>2011-06-18T13:07:59Z</time>
      </trkpt>
      <trkpt lat="42.732630" lon="-2.573500">
        <ele>877.348</ele>
        <time>2011-06-18T13:07:52Z</time>
      </trkpt>
      <trkpt lat="42.732710" lon="-2.573450">
        <ele>877.864</ele>
        <time>2011-06-18T13:07:45Z</time>
      </trkpt>
      <trkpt lat="42.732800" lon="-2.573400">
        <ele>879.306</ele>
        <time>2011-06-18T13:07:38Z</time>
      </trkpt>
      <trkpt lat="42.732890" lon="-2.573340">
        <ele>879.316</ele>
        <time>2011-06-18T13:07:31Z</time>
      </trkpt>
      <trkpt lat="42.732980" lon="-2.573300">
        <ele>880.207</ele>
        <time>2011-06-18T13:07:24Z</time>
      </trkpt>
      <trkpt lat="42.733060" lon="-2.573250">
        <ele>880.718</ele>
        <time>2011-06-18T13:07:17Z</time>
      </trkpt>
      <trkpt lat="42.733150" lon="-2.573210">
        <ele>881.759</ele>
        <time>2011-06-18T13:07:10Z</time>
      </trkpt>
      <trkpt lat="42.733240" lon="-2.573170">
        <ele>881.269</ele>
        <time>2011-06-18T13:07:03Z</time>
      </trkpt>
      <trkpt lat="42.733320" lon="-2.573120">
        <ele>881.238</ele>
        <time>2011-06-18T13:06:56Z</time>
      </trkpt>
      <trkpt lat="42.733420" lon="-2.573080">
        <ele>881.223</ele>
        <time>2011-06-18T13:06:49Z</time>
      </trkpt>
      <trkpt lat="42.733510" lon="-2.573030">
        <ele>882.264</ele>
        <time>2011-06-18T13:06:42Z</time>
      </trkpt>
      <trkpt lat="42.733600" lon="-2.572980">
        <ele>882.298</ele>
        <time>2011-06-18T13:06:35Z</time>
      </trkpt>
      <trkpt lat="42.733690" lon="-2.572940">
        <ele>882.645</ele>
        <time>2011-06-18T13:06:28Z</time>
      </trkpt>
      <trkpt lat="42.733780" lon="-2.572910">
        <ele>883.147</ele>
        <time>2011-06-18T13:06:21Z</time>
      </trkpt>
      <trkpt lat="42.733870" lon="-2.572890">
        <ele>883.611</ele>
        <time>2011-06-18T13:06:14Z</time>
      </trkpt>
      <trkpt lat="42.733980" lon="-2.572870">
        <ele>883.607</ele>
        <time>2011-06-18T13:06:06Z</time>
      </trkpt>
      <trkpt lat="42.734080" lon="-2.572860">
        <ele>884.176</ele>
        <time>2011-06-18T13:05:58Z</time>
      </trkpt>
      <trkpt lat="42.734160" lon="-2.572840">
        <ele>884.117</ele>
        <time>2011-06-18T13:05:51Z</time>
      </trkpt>
      <trkpt lat="42.734260" lon="-2.572830">
        <ele>885.087</ele>
        <time>2011-06-18T13:05:43Z</time>
      </trkpt>
      <trkpt lat="42.734350" lon="-2.572820">
        <ele>885.526</ele>
        <time>2011-06-18T13:05:36Z</time>
      </trkpt>
      <trkpt lat="42.734450" lon="-2.572840">
        <ele>885.591</ele>
        <time>2011-06-18T13:05:29Z</time>
      </trkpt>
      <trkpt lat="42.734530" lon="-2.572880">
        <ele>886.032</ele>
        <time>2011-06-18T13:05:22Z</time>
      </trkpt>
      <trkpt lat="42.734620" lon="-2.572930">
        <ele>886.086</ele>
        <time>2011-06-18T13:05:15Z</time>
      </trkpt>
      <trkpt lat="42.734710" lon="-2.572990">
        <ele>886.546</ele>
        <time>2011-06-18T13:05:08Z</time>
      </trkpt>
      <trkpt lat="42.734790" lon="-2.573040">
        <ele>886.088</ele>
        <time>2011-06-18T13:05:01Z</time>
      </trkpt>
      <trkpt lat="42.734870" lon="-2.573120">
        <ele>887.016</ele>
        <time>2011-06-18T13:04:53Z</time>
      </trkpt>
      <trkpt lat="42.734950" lon="-2.573190">
        <ele>887.907</ele>
        <time>2011-06-18T13:04:46Z</time>
      </trkpt>
      <trkpt lat="42.735030" lon="-2.573270">
        <ele>887.436</ele>
        <time>2011-06-18T13:04:38Z</time>
      </trkpt>
      <trkpt lat="42.735100" lon="-2.573350">
        <ele>887.077</ele>
        <time>2011-06-18T13:04:31Z</time>
      </trkpt>
      <trkpt lat="42.735180" lon="-2.573420">
        <ele>887.027</ele>
        <time>2011-06-18T13:04:24Z</time>
      </trkpt>
      <trkpt lat="42.735270" lon="-2.573490">
        <ele>886.596</ele>
        <time>2011-06-18T13:04:16Z</time>
      </trkpt>
      <trkpt lat="42.735350" lon="-2.573550">
        <ele>887.951</ele>
        <time>2011-06-18T13:04:07Z</time>
      </trkpt>
      <trkpt lat="42.735440" lon="-2.573610">
        <ele>887.912</ele>
        <time>2011-06-18T13:03:59Z</time>
      </trkpt>
      <trkpt lat="42.735520" lon="-2.573670">
        <ele>889.876</ele>
        <time>2011-06-18T13:03:52Z</time>
      </trkpt>
      <trkpt lat="42.735600" lon="-2.573720">
        <ele>891.891</ele>
        <time>2011-06-18T13:03:45Z</time>
      </trkpt>
      <trkpt lat="42.735690" lon="-2.573760">
        <ele>891.881</ele>
        <time>2011-06-18T13:03:38Z</time>
      </trkpt>
      <trkpt lat="42.735770" lon="-2.573820">
        <ele>892.219</ele>
        <time>2011-06-18T13:03:31Z</time>
      </trkpt>
      <trkpt lat="42.735870" lon="-2.573860">
        <ele>893.707</ele>
        <time>2011-06-18T13:03:23Z</time>
      </trkpt>
      <trkpt lat="42.735960" lon="-2.573860">
        <ele>893.721</ele>
        <time>2011-06-18T13:03:16Z</time>
      </trkpt>
      <trkpt lat="42.736060" lon="-2.573820">
        <ele>894.632</ele>
        <time>2011-06-18T13:03:08Z</time>
      </trkpt>
      <trkpt lat="42.736140" lon="-2.573770">
        <ele>895.632</ele>
        <time>2011-06-18T13:03:01Z</time>
      </trkpt>
      <trkpt lat="42.736230" lon="-2.573720">
        <ele>896.171</ele>
        <time>2011-06-18T13:02:54Z</time>
      </trkpt>
      <trkpt lat="42.736310" lon="-2.573670">
        <ele>897.126</ele>
        <time>2011-06-18T13:02:47Z</time>
      </trkpt>
      <trkpt lat="42.736400" lon="-2.573620">
        <ele>897.537</ele>
        <time>2011-06-18T13:02:40Z</time>
      </trkpt>
      <trkpt lat="42.736490" lon="-2.573580">
        <ele>897.551</ele>
        <time>2011-06-18T13:02:33Z</time>
      </trkpt>
      <trkpt lat="42.736580" lon="-2.573540">
        <ele>898.082</ele>
        <time>2011-06-18T13:02:26Z</time>
      </trkpt>
      <trkpt lat="42.736680" lon="-2.573500">
        <ele>898.043</ele>
        <time>2011-06-18T13:02:18Z</time>
      </trkpt>
      <trkpt lat="42.736770" lon="-2.573460">
        <ele>898.517</ele>
        <time>2011-06-18T13:02:11Z</time>
      </trkpt>
      <trkpt lat="42.736860" lon="-2.573440">
        <ele>898.007</ele>
        <time>2011-06-18T13:02:04Z</time>
      </trkpt>
      <trkpt lat="42.736960" lon="-2.573420">
        <ele>898.070</ele>
        <time>2011-06-18T13:01:57Z</time>
      </trkpt>
      <trkpt lat="42.737050" lon="-2.573410">
        <ele>897.111</ele>
        <time>2011-06-18T13:01:50Z</time>
      </trkpt>
      <trkpt lat="42.737140" lon="-2.573400">
        <ele>896.681</ele>
        <time>2011-06-18T13:01:43Z</time>
      </trkpt>
      <trkpt lat="42.737230" lon="-2.573390">
        <ele>896.140</ele>
        <time>2011-06-18T13:01:36Z</time>
      </trkpt>
      <trkpt lat="42.737330" lon="-2.573390">
        <ele>896.685</ele>
        <time>2011-06-18T13:01:28Z</time>
      </trkpt>
      <trkpt lat="42.737430" lon="-2.573380">
        <ele>897.556</ele>
        <time>2011-06-18T13:01:21Z</time>
      </trkpt>
      <trkpt lat="42.737520" lon="-2.573370">
        <ele>898.540</ele>
        <time>2011-06-18T13:01:14Z</time>
      </trkpt>
      <trkpt lat="42.737610" lon="-2.573360">
        <ele>898.555</ele>
        <time>2011-06-18T13:01:07Z</time>
      </trkpt>
      <trkpt lat="42.737710" lon="-2.573360">
        <ele>899.907</ele>
        <time>2011-06-18T13:01:00Z</time>
      </trkpt>
      <trkpt lat="42.737810" lon="-2.573360">
        <ele>900.417</ele>
        <time>2011-06-18T13:00:53Z</time>
      </trkpt>
      <trkpt lat="42.737900" lon="-2.573340">
        <ele>901.407</ele>
        <time>2011-06-18T13:00:46Z</time>
      </trkpt>
      <trkpt lat="42.737990" lon="-2.573310">
        <ele>902.357</ele>
        <time>2011-06-18T13:00:39Z</time>
      </trkpt>
      <trkpt lat="42.738080" lon="-2.573290">
        <ele>903.878</ele>
        <time>2011-06-18T13:00:32Z</time>
      </trkpt>
      <trkpt lat="42.738180" lon="-2.573280">
        <ele>905.268</ele>
        <time>2011-06-18T13:00:25Z</time>
      </trkpt>
      <trkpt lat="42.738270" lon="-2.573280">
        <ele>907.657</ele>
        <time>2011-06-18T13:00:17Z</time>
      </trkpt>
      <trkpt lat="42.738360" lon="-2.573290">
        <ele>909.162</ele>
        <time>2011-06-18T13:00:10Z</time>
      </trkpt>
      <trkpt lat="42.738460" lon="-2.573320">
        <ele>911.063</ele>
        <time>2011-06-18T13:00:02Z</time>
      </trkpt>
      <trkpt lat="42.738560" lon="-2.573340">
        <ele>912.427</ele>
        <time>2011-06-18T12:59:54Z</time>
      </trkpt>
      <trkpt lat="42.738650" lon="-2.573360">
        <ele>913.453</ele>
        <time>2011-06-18T12:59:47Z</time>
      </trkpt>
      <trkpt lat="42.738740" lon="-2.573370">
        <ele>913.904</ele>
        <time>2011-06-18T12:59:40Z</time>
      </trkpt>
      <trkpt lat="42.738830" lon="-2.573390">
        <ele>914.314</ele>
        <time>2011-06-18T12:59:33Z</time>
      </trkpt>
      <trkpt lat="42.738930" lon="-2.573410">
        <ele>916.307</ele>
        <time>2011-06-18T12:59:26Z</time>
      </trkpt>
      <trkpt lat="42.739030" lon="-2.573440">
        <ele>917.767</ele>
        <time>2011-06-18T12:59:19Z</time>
      </trkpt>
      <trkpt lat="42.739120" lon="-2.573490">
        <ele>919.238</ele>
        <time>2011-06-18T12:59:11Z</time>
      </trkpt>
      <trkpt lat="42.739210" lon="-2.573520">
        <ele>919.668</ele>
        <time>2011-06-18T12:59:04Z</time>
      </trkpt>
      <trkpt lat="42.739300" lon="-2.573540">
        <ele>920.677</ele>
        <time>2011-06-18T12:58:57Z</time>
      </trkpt>
      <trkpt lat="42.739400" lon="-2.573560">
        <ele>922.582</ele>
        <time>2011-06-18T12:58:50Z</time>
      </trkpt>
      <trkpt lat="42.739490" lon="-2.573560">
        <ele>924.093</ele>
        <time>2011-06-18T12:58:43Z</time>
      </trkpt>
      <trkpt lat="42.739580" lon="-2.573560">
        <ele>924.527</ele>
        <time>2011-06-18T12:58:36Z</time>
      </trkpt>
      <trkpt lat="42.739670" lon="-2.573540">
        <ele>925.946</ele>
        <time>2011-06-18T12:58:29Z</time>
      </trkpt>
      <trkpt lat="42.739760" lon="-2.573520">
        <ele>927.388</ele>
        <time>2011-06-18T12:58:22Z</time>
      </trkpt>
      <trkpt lat="42.739860" lon="-2.573500">
        <ele>927.816</ele>
        <time>2011-06-18T12:58:15Z</time>
      </trkpt>
      <trkpt lat="42.739950" lon="-2.573480">
        <ele>930.207</ele>
        <time>2011-06-18T12:58:08Z</time>
      </trkpt>
      <trkpt lat="42.740050" lon="-2.573460">
        <ele>931.786</ele>
        <time>2011-06-18T12:58:01Z</time>
      </trkpt>
      <trkpt lat="42.740150" lon="-2.573440">
        <ele>933.627</ele>
        <time>2011-06-18T12:57:53Z</time>
      </trkpt>
      <trkpt lat="42.740240" lon="-2.573430">
        <ele>934.587</ele>
        <time>2011-06-18T12:57:46Z</time>
      </trkpt>
      <trkpt lat="42.740330" lon="-2.573380">
        <ele>935.036</ele>
        <time>2011-06-18T12:57:39Z</time>
      </trkpt>
      <trkpt lat="42.740410" lon="-2.573330">
        <ele>936.061</ele>
        <time>2011-06-18T12:57:32Z</time>
      </trkpt>
      <trkpt lat="42.740490" lon="-2.573280">
        <ele>937.462</ele>
        <time>2011-06-18T12:57:25Z</time>
      </trkpt>
      <trkpt lat="42.740580" lon="-2.573220">
        <ele>937.016</ele>
        <time>2011-06-18T12:57:18Z</time>
      </trkpt>
      <trkpt lat="42.740660" lon="-2.573160">
        <ele>939.359</ele>
        <time>2011-06-18T12:57:11Z</time>
      </trkpt>
      <trkpt lat="42.740740" lon="-2.573100">
        <ele>939.803</ele>
        <time>2011-06-18T12:57:04Z</time>
      </trkpt>
      <trkpt lat="42.740810" lon="-2.573030">
        <ele>941.323</ele>
        <time>2011-06-18T12:56:57Z</time>
      </trkpt>
      <trkpt lat="42.740890" lon="-2.572960">
        <ele>942.707</ele>
        <time>2011-06-18T12:56:50Z</time>
      </trkpt>
      <trkpt lat="42.740960" lon="-2.572890">
        <ele>943.757</ele>
        <time>2011-06-18T12:56:43Z</time>
      </trkpt>
      <trkpt lat="42.741040" lon="-2.572810">
        <ele>945.178</ele>
        <time>2011-06-18T12:56:36Z</time>
      </trkpt>
      <trkpt lat="42.741110" lon="-2.572740">
        <ele>945.118</ele>
        <time>2011-06-18T12:56:29Z</time>
      </trkpt>
      <trkpt lat="42.741190" lon="-2.572660">
        <ele>946.627</ele>
        <time>2011-06-18T12:56:22Z</time>
      </trkpt>
      <trkpt lat="42.741250" lon="-2.572580">
        <ele>947.582</ele>
        <time>2011-06-18T12:56:15Z</time>
      </trkpt>
      <trkpt lat="42.741330" lon="-2.572490">
        <ele>948.043</ele>
        <time>2011-06-18T12:56:08Z</time>
      </trkpt>
      <trkpt lat="42.741400" lon="-2.572410">
        <ele>948.037</ele>
        <time>2011-06-18T12:56:01Z</time>
      </trkpt>
      <trkpt lat="42.741460" lon="-2.572320">
        <ele>948.566</ele>
        <time>2011-06-18T12:55:54Z</time>
      </trkpt>
      <trkpt lat="42.741530" lon="-2.572240">
        <ele>949.929</ele>
        <time>2011-06-18T12:55:47Z</time>
      </trkpt>
      <trkpt lat="42.741620" lon="-2.572170">
        <ele>950.921</ele>
        <time>2011-06-18T12:55:39Z</time>
      </trkpt>
      <trkpt lat="42.741710" lon="-2.572120">
        <ele>951.807</ele>
        <time>2011-06-18T12:55:32Z</time>
      </trkpt>
      <trkpt lat="42.741800" lon="-2.572070">
        <ele>952.868</ele>
        <time>2011-06-18T12:55:24Z</time>
      </trkpt>
      <trkpt lat="42.741880" lon="-2.572020">
        <ele>953.859</ele>
        <time>2011-06-18T12:55:17Z</time>
      </trkpt>
      <trkpt lat="42.741970" lon="-2.571970">
        <ele>955.249</ele>
        <time>2011-06-18T12:55:09Z</time>
      </trkpt>
      <trkpt lat="42.742060" lon="-2.571910">
        <ele>956.628</ele>
        <time>2011-06-18T12:55:01Z</time>
      </trkpt>
      <trkpt lat="42.742150" lon="-2.571870">
        <ele>957.633</ele>
        <time>2011-06-18T12:54:54Z</time>
      </trkpt>
      <trkpt lat="42.742230" lon="-2.571810">
        <ele>959.114</ele>
        <time>2011-06-18T12:54:46Z</time>
      </trkpt>
      <trkpt lat="42.742310" lon="-2.571740">
        <ele>960.588</ele>
        <time>2011-06-18T12:54:38Z</time>
      </trkpt>
      <trkpt lat="42.742390" lon="-2.571670">
        <ele>961.983</ele>
        <time>2011-06-18T12:54:30Z</time>
      </trkpt>
      <trkpt lat="42.742470" lon="-2.571590">
        <ele>962.925</ele>
        <time>2011-06-18T12:54:22Z</time>
      </trkpt>
      <trkpt lat="42.742560" lon="-2.571530">
        <ele>964.317</ele>
        <time>2011-06-18T12:54:14Z</time>
      </trkpt>
      <trkpt lat="42.742640" lon="-2.571470">
        <ele>965.807</ele>
        <time>2011-06-18T12:54:07Z</time>
      </trkpt>
      <trkpt lat="42.742730" lon="-2.571400">
        <ele>966.710</ele>
        <time>2011-06-18T12:53:59Z</time>
      </trkpt>
      <trkpt lat="42.742810" lon="-2.571340">
        <ele>968.261</ele>
        <time>2011-06-18T12:53:51Z</time>
      </trkpt>
      <trkpt lat="42.742900" lon="-2.571290">
        <ele>969.131</ele>
        <time>2011-06-18T12:53:43Z</time>
      </trkpt>
      <trkpt lat="42.742990" lon="-2.571240">
        <ele>970.630</ele>
        <time>2011-06-18T12:53:35Z</time>
      </trkpt>
      <trkpt lat="42.743080" lon="-2.571190">
        <ele>971.635</ele>
        <time>2011-06-18T12:53:27Z</time>
      </trkpt>
      <trkpt lat="42.743180" lon="-2.571140">
        <ele>974.066</ele>
        <time>2011-06-18T12:53:19Z</time>
      </trkpt>
      <trkpt lat="42.743270" lon="-2.571100">
        <ele>973.570</ele>
        <time>2011-06-18T12:53:11Z</time>
      </trkpt>
      <trkpt lat="42.743370" lon="-2.571060">
        <ele>975.466</ele>
        <time>2011-06-18T12:53:03Z</time>
      </trkpt>
      <trkpt lat="42.743470" lon="-2.571030">
        <ele>977.329</ele>
        <time>2011-06-18T12:52:55Z</time>
      </trkpt>
      <trkpt lat="42.743560" lon="-2.570990">
        <ele>977.321</ele>
        <time>2011-06-18T12:52:47Z</time>
      </trkpt>
      <trkpt lat="42.743660" lon="-2.570960">
        <ele>977.307</ele>
        <time>2011-06-18T12:52:39Z</time>
      </trkpt>
      <trkpt lat="42.743760" lon="-2.570920">
        <ele>977.328</ele>
        <time>2011-06-18T12:52:31Z</time>
      </trkpt>
      <trkpt lat="42.743850" lon="-2.570880">
        <ele>976.859</ele>
        <time>2011-06-18T12:52:24Z</time>
      </trkpt>
      <trkpt lat="42.743940" lon="-2.570850">
        <ele>978.369</ele>
        <time>2011-06-18T12:52:17Z</time>
      </trkpt>
      <trkpt lat="42.744020" lon="-2.570810">
        <ele>979.228</ele>
        <time>2011-06-18T12:52:10Z</time>
      </trkpt>
      <trkpt lat="42.744110" lon="-2.570780">
        <ele>979.743</ele>
        <time>2011-06-18T12:52:03Z</time>
      </trkpt>
      <trkpt lat="42.744200" lon="-2.570740">
        <ele>980.264</ele>
        <time>2011-06-18T12:51:56Z</time>
      </trkpt>
      <trkpt lat="42.744290" lon="-2.570690">
        <ele>981.238</ele>
        <time>2011-06-18T12:51:48Z</time>
      </trkpt>
      <trkpt lat="42.744390" lon="-2.570660">
        <ele>981.671</ele>
        <time>2011-06-18T12:51:40Z</time>
      </trkpt>
      <trkpt lat="42.744490" lon="-2.570630">
        <ele>982.641</ele>
        <time>2011-06-18T12:51:32Z</time>
      </trkpt>
      <trkpt lat="42.744590" lon="-2.570600">
        <ele>984.015</ele>
        <time>2011-06-18T12:51:24Z</time>
      </trkpt>
      <trkpt lat="42.744680" lon="-2.570570">
        <ele>984.507</ele>
        <time>2011-06-18T12:51:16Z</time>
      </trkpt>
      <trkpt lat="42.744780" lon="-2.570540">
        <ele>985.049</ele>
        <time>2011-06-18T12:51:08Z</time>
      </trkpt>
      <trkpt lat="42.744880" lon="-2.570510">
        <ele>985.090</ele>
        <time>2011-06-18T12:51:00Z</time>
      </trkpt>
      <trkpt lat="42.744970" lon="-2.570480">
        <ele>986.030</ele>
        <time>2011-06-18T12:50:52Z</time>
      </trkpt>
      <trkpt lat="42.745060" lon="-2.570460">
        <ele>986.989</ele>
        <time>2011-06-18T12:50:44Z</time>
      </trkpt>
      <trkpt lat="42.745150" lon="-2.570430">
        <ele>987.954</ele>
        <time>2011-06-18T12:50:36Z</time>
      </trkpt>
      <trkpt lat="42.745250" lon="-2.570410">
        <ele>988.985</ele>
        <time>2011-06-18T12:50:28Z</time>
      </trkpt>
      <trkpt lat="42.745340" lon="-2.570390">
        <ele>988.989</ele>
        <time>2011-06-18T12:50:20Z</time>
      </trkpt>
      <trkpt lat="42.745440" lon="-2.570370">
        <ele>989.392</ele>
        <time>2011-06-18T12:50:12Z</time>
      </trkpt>
      <trkpt lat="42.745540" lon="-2.570360">
        <ele>989.373</ele>
        <time>2011-06-18T12:50:04Z</time>
      </trkpt>
      <trkpt lat="42.745640" lon="-2.570340">
        <ele>989.820</ele>
        <time>2011-06-18T12:49:56Z</time>
      </trkpt>
      <trkpt lat="42.745740" lon="-2.570320">
        <ele>989.807</ele>
        <time>2011-06-18T12:49:48Z</time>
      </trkpt>
      <trkpt lat="42.745830" lon="-2.570330">
        <ele>989.831</ele>
        <time>2011-06-18T12:49:40Z</time>
      </trkpt>
      <trkpt lat="42.745920" lon="-2.570350">
        <ele>990.852</ele>
        <time>2011-06-18T12:49:32Z</time>
      </trkpt>
      <trkpt lat="42.746000" lon="-2.570420">
        <ele>992.762</ele>
        <time>2011-06-18T12:49:23Z</time>
      </trkpt>
      <trkpt lat="42.746060" lon="-2.570530">
        <ele>993.641</ele>
        <time>2011-06-18T12:49:12Z</time>
      </trkpt>
      <trkpt lat="42.746110" lon="-2.570630">
        <ele>996.126</ele>
        <time>2011-06-18T12:49:01Z</time>
      </trkpt>
      <trkpt lat="42.746170" lon="-2.570680">
        <ele>996.157</ele>
        <time>2011-06-18T12:45:15Z</time>
      </trkpt>
      <trkpt lat="42.746220" lon="-2.570630">
        <ele>996.171</ele>
        <time>2011-06-18T12:43:52Z</time>
      </trkpt>
      <trkpt lat="42.746240" lon="-2.570500">
        <ele>996.528</ele>
        <time>2011-06-18T12:43:42Z</time>
      </trkpt>
      <trkpt lat="42.746250" lon="-2.570380">
        <ele>997.089</ele>
        <time>2011-06-18T12:43:34Z</time>
      </trkpt>
      <trkpt lat="42.746270" lon="-2.570250">
        <ele>997.517</ele>
        <time>2011-06-18T12:43:27Z</time>
      </trkpt>
      <trkpt lat="42.746280" lon="-2.570120">
        <ele>997.507</ele>
        <time>2011-06-18T12:43:20Z</time>
      </trkpt>
      <trkpt lat="42.746280" lon="-2.569980">
        <ele>998.594</ele>
        <time>2011-06-18T12:43:13Z</time>
      </trkpt>
      <trkpt lat="42.746290" lon="-2.569850">
        <ele>999.055</ele>
        <time>2011-06-18T12:43:06Z</time>
      </trkpt>
      <trkpt lat="42.746300" lon="-2.569710">
        <ele>999.935</ele>
        <time>2011-06-18T12:42:59Z</time>
      </trkpt>
      <trkpt lat="42.746310" lon="-2.569580">
        <ele>1002.884</ele>
        <time>2011-06-18T12:42:52Z</time>
      </trkpt>
      <trkpt lat="42.746320" lon="-2.569450">
        <ele>1002.379</ele>
        <time>2011-06-18T12:42:45Z</time>
      </trkpt>
      <trkpt lat="42.746330" lon="-2.569320">
        <ele>1002.860</ele>
        <time>2011-06-18T12:42:38Z</time>
      </trkpt>
      <trkpt lat="42.746340" lon="-2.569190">
        <ele>1005.254</ele>
        <time>2011-06-18T12:42:31Z</time>
      </trkpt>
      <trkpt lat="42.746360" lon="-2.569060">
        <ele>1007.118</ele>
        <time>2011-06-18T12:42:24Z</time>
      </trkpt>
      <trkpt lat="42.746370" lon="-2.568920">
        <ele>1009.098</ele>
        <time>2011-06-18T12:42:17Z</time>
      </trkpt>
      <trkpt lat="42.746380" lon="-2.568790">
        <ele>1010.017</ele>
        <time>2011-06-18T12:42:10Z</time>
      </trkpt>
      <trkpt lat="42.746390" lon="-2.568670">
        <ele>1011.007</ele>
        <time>2011-06-18T12:42:03Z</time>
      </trkpt>
      <trkpt lat="42.746410" lon="-2.568540">
        <ele>1011.433</ele>
        <time>2011-06-18T12:41:55Z</time>
      </trkpt>
      <trkpt lat="42.746430" lon="-2.568410">
        <ele>1014.374</ele>
        <time>2011-06-18T12:41:47Z</time>
      </trkpt>
      <trkpt lat="42.746440" lon="-2.568280">
        <ele>1015.374</ele>
        <time>2011-06-18T12:41:39Z</time>
      </trkpt>
      <trkpt lat="42.746480" lon="-2.568160">
        <ele>1014.853</ele>
        <time>2011-06-18T12:41:31Z</time>
      </trkpt>
      <trkpt lat="42.746520" lon="-2.568030">
        <ele>1014.328</ele>
        <time>2011-06-18T12:41:23Z</time>
      </trkpt>
      <trkpt lat="42.746570" lon="-2.567910">
        <ele>1013.919</ele>
        <time>2011-06-18T12:41:15Z</time>
      </trkpt>
      <trkpt lat="42.746610" lon="-2.567800">
        <ele>1012.433</ele>
        <time>2011-06-18T12:41:08Z</time>
      </trkpt>
      <trkpt lat="42.746660" lon="-2.567680">
        <ele>1013.955</ele>
        <time>2011-06-18T12:41:01Z</time>
      </trkpt>
      <trkpt lat="42.746700" lon="-2.567560">
        <ele>1013.907</ele>
        <time>2011-06-18T12:40:54Z</time>
      </trkpt>
      <trkpt lat="42.746750" lon="-2.567450">
        <ele>1014.317</ele>
        <time>2011-06-18T12:40:47Z</time>
      </trkpt>
      <trkpt lat="42.746790" lon="-2.567320">
        <ele>1014.307</ele>
        <time>2011-06-18T12:40:40Z</time>
      </trkpt>
      <trkpt lat="42.746840" lon="-2.567210">
        <ele>1014.827</ele>
        <time>2011-06-18T12:40:33Z</time>
      </trkpt>
      <trkpt lat="42.746880" lon="-2.567090">
        <ele>1014.378</ele>
        <time>2011-06-18T12:40:26Z</time>
      </trkpt>
      <trkpt lat="42.746930" lon="-2.566960">
        <ele>1015.378</ele>
        <time>2011-06-18T12:40:19Z</time>
      </trkpt>
      <trkpt lat="42.746970" lon="-2.566840">
        <ele>1016.767</ele>
        <time>2011-06-18T12:40:12Z</time>
      </trkpt>
      <trkpt lat="42.747010" lon="-2.566710">
        <ele>1017.262</ele>
        <time>2011-06-18T12:40:05Z</time>
      </trkpt>
      <trkpt lat="42.747050" lon="-2.566580">
        <ele>1018.683</ele>
        <time>2011-06-18T12:39:58Z</time>
      </trkpt>
      <trkpt lat="42.747080" lon="-2.566450">
        <ele>1019.137</ele>
        <time>2011-06-18T12:39:51Z</time>
      </trkpt>
      <trkpt lat="42.747120" lon="-2.566330">
        <ele>1021.058</ele>
        <time>2011-06-18T12:39:44Z</time>
      </trkpt>
      <trkpt lat="42.747160" lon="-2.566200">
        <ele>1021.552</ele>
        <time>2011-06-18T12:39:37Z</time>
      </trkpt>
      <trkpt lat="42.747190" lon="-2.566070">
        <ele>1021.517</ele>
        <time>2011-06-18T12:39:30Z</time>
      </trkpt>
      <trkpt lat="42.747220" lon="-2.565940">
        <ele>1023.007</ele>
        <time>2011-06-18T12:39:22Z</time>
      </trkpt>
      <trkpt lat="42.747240" lon="-2.565820">
        <ele>1023.037</ele>
        <time>2011-06-18T12:39:15Z</time>
      </trkpt>
      <trkpt lat="42.747260" lon="-2.565690">
        <ele>1023.978</ele>
        <time>2011-06-18T12:39:08Z</time>
      </trkpt>
      <trkpt lat="42.747290" lon="-2.565560">
        <ele>1024.448</ele>
        <time>2011-06-18T12:39:01Z</time>
      </trkpt>
      <trkpt lat="42.747340" lon="-2.565420">
        <ele>1025.937</ele>
        <time>2011-06-18T12:38:54Z</time>
      </trkpt>
      <trkpt lat="42.747370" lon="-2.565290">
        <ele>1025.922</ele>
        <time>2011-06-18T12:38:46Z</time>
      </trkpt>
      <trkpt lat="42.747410" lon="-2.565180">
        <ele>1026.493</ele>
        <time>2011-06-18T12:38:39Z</time>
      </trkpt>
      <trkpt lat="42.747460" lon="-2.565060">
        <ele>1027.327</ele>
        <time>2011-06-18T12:38:32Z</time>
      </trkpt>
      <trkpt lat="42.747510" lon="-2.564960">
        <ele>1028.827</ele>
        <time>2011-06-18T12:38:24Z</time>
      </trkpt>
      <trkpt lat="42.747570" lon="-2.564860">
        <ele>1028.868</ele>
        <time>2011-06-18T12:38:17Z</time>
      </trkpt>
      <trkpt lat="42.747630" lon="-2.564770">
        <ele>1029.714</ele>
        <time>2011-06-18T12:38:10Z</time>
      </trkpt>
      <trkpt lat="42.747700" lon="-2.564670">
        <ele>1031.107</ele>
        <time>2011-06-18T12:38:03Z</time>
      </trkpt>
      <trkpt lat="42.747760" lon="-2.564570">
        <ele>1031.664</ele>
        <time>2011-06-18T12:37:56Z</time>
      </trkpt>
      <trkpt lat="42.747830" lon="-2.564470">
        <ele>1032.615</ele>
        <time>2011-06-18T12:37:49Z</time>
      </trkpt>
      <trkpt lat="42.747900" lon="-2.564380">
        <ele>1032.635</ele>
        <time>2011-06-18T12:37:42Z</time>
      </trkpt>
      <trkpt lat="42.747970" lon="-2.564280">
        <ele>1033.134</ele>
        <time>2011-06-18T12:37:35Z</time>
      </trkpt>
      <trkpt lat="42.748040" lon="-2.564180">
        <ele>1033.129</ele>
        <time>2011-06-18T12:37:28Z</time>
      </trkpt>
      <trkpt lat="42.748110" lon="-2.564080">
        <ele>1033.580</ele>
        <time>2011-06-18T12:37:21Z</time>
      </trkpt>
      <trkpt lat="42.748180" lon="-2.563980">
        <ele>1034.074</ele>
        <time>2011-06-18T12:37:14Z</time>
      </trkpt>
      <trkpt lat="42.748240" lon="-2.563860">
        <ele>1034.575</ele>
        <time>2011-06-18T12:37:07Z</time>
      </trkpt>
      <trkpt lat="42.748310" lon="-2.563770">
        <ele>1035.028</ele>
        <time>2011-06-18T12:37:00Z</time>
      </trkpt>
      <trkpt lat="42.748370" lon="-2.563660">
        <ele>1035.020</ele>
        <time>2011-06-18T12:36:53Z</time>
      </trkpt>
      <trkpt lat="42.748440" lon="-2.563570">
        <ele>1036.007</ele>
        <time>2011-06-18T12:36:46Z</time>
      </trkpt>
      <trkpt lat="42.748510" lon="-2.563480">
        <ele>1036.439</ele>
        <time>2011-06-18T12:36:39Z</time>
      </trkpt>
      <trkpt lat="42.748580" lon="-2.563400">
        <ele>1037.490</ele>
        <time>2011-06-18T12:36:32Z</time>
      </trkpt>
      <trkpt lat="42.748660" lon="-2.563300">
        <ele>1038.830</ele>
        <time>2011-06-18T12:36:25Z</time>
      </trkpt>
      <trkpt lat="42.748730" lon="-2.563210">
        <ele>1038.499</ele>
        <time>2011-06-18T12:36:18Z</time>
      </trkpt>
      <trkpt lat="42.748800" lon="-2.563120">
        <ele>1038.884</ele>
        <time>2011-06-18T12:36:11Z</time>
      </trkpt>
      <trkpt lat="42.748870" lon="-2.563020">
        <ele>1040.355</ele>
        <time>2011-06-18T12:36:04Z</time>
      </trkpt>
      <trkpt lat="42.748950" lon="-2.562940">
        <ele>1040.899</ele>
        <time>2011-06-18T12:35:56Z</time>
      </trkpt>
      <trkpt lat="42.749030" lon="-2.562850">
        <ele>1042.226</ele>
        <time>2011-06-18T12:35:49Z</time>
      </trkpt>
      <trkpt lat="42.749110" lon="-2.562760">
        <ele>1043.247</ele>
        <time>2011-06-18T12:35:42Z</time>
      </trkpt>
      <trkpt lat="42.749180" lon="-2.562680">
        <ele>1043.211</ele>
        <time>2011-06-18T12:35:35Z</time>
      </trkpt>
      <trkpt lat="42.749260" lon="-2.562590">
        <ele>1045.107</ele>
        <time>2011-06-18T12:35:28Z</time>
      </trkpt>
      <trkpt lat="42.749330" lon="-2.562500">
        <ele>1045.624</ele>
        <time>2011-06-18T12:35:21Z</time>
      </trkpt>
      <trkpt lat="42.749400" lon="-2.562420">
        <ele>1047.075</ele>
        <time>2011-06-18T12:35:14Z</time>
      </trkpt>
      <trkpt lat="42.749470" lon="-2.562320">
        <ele>1048.075</ele>
        <time>2011-06-18T12:35:07Z</time>
      </trkpt>
      <trkpt lat="42.749540" lon="-2.562220">
        <ele>1048.924</ele>
        <time>2011-06-18T12:35:00Z</time>
      </trkpt>
      <trkpt lat="42.749610" lon="-2.562130">
        <ele>1048.939</ele>
        <time>2011-06-18T12:34:53Z</time>
      </trkpt>
      <trkpt lat="42.749680" lon="-2.562030">
        <ele>1049.490</ele>
        <time>2011-06-18T12:34:46Z</time>
      </trkpt>
      <trkpt lat="42.749750" lon="-2.561940">
        <ele>1050.424</ele>
        <time>2011-06-18T12:34:39Z</time>
      </trkpt>
      <trkpt lat="42.749820" lon="-2.561840">
        <ele>1051.325</ele>
        <time>2011-06-18T12:34:32Z</time>
      </trkpt>
      <trkpt lat="42.749890" lon="-2.561750">
        <ele>1051.826</ele>
        <time>2011-06-18T12:34:25Z</time>
      </trkpt>
      <trkpt lat="42.749970" lon="-2.561680">
        <ele>1052.308</ele>
        <time>2011-06-18T12:34:18Z</time>
      </trkpt>
      <trkpt lat="42.750040" lon="-2.561590">
        <ele>1053.307</ele>
        <time>2011-06-18T12:34:11Z</time>
      </trkpt>
      <trkpt lat="42.750120" lon="-2.561510">
        <ele>1052.844</ele>
        <time>2011-06-18T12:34:04Z</time>
      </trkpt>
      <trkpt lat="42.750200" lon="-2.561420">
        <ele>1052.895</ele>
        <time>2011-06-18T12:33:57Z</time>
      </trkpt>
      <trkpt lat="42.750280" lon="-2.561340">
        <ele>1052.365</ele>
        <time>2011-06-18T12:33:50Z</time>
      </trkpt>
      <trkpt lat="42.750360" lon="-2.561270">
        <ele>1051.854</ele>
        <time>2011-06-18T12:33:43Z</time>
      </trkpt>
      <trkpt lat="42.750440" lon="-2.561190">
        <ele>1051.399</ele>
        <time>2011-06-18T12:33:36Z</time>
      </trkpt>
      <trkpt lat="42.750520" lon="-2.561110">
        <ele>1051.850</ele>
        <time>2011-06-18T12:33:29Z</time>
      </trkpt>
      <trkpt lat="42.750600" lon="-2.561020">
        <ele>1053.394</ele>
        <time>2011-06-18T12:33:22Z</time>
      </trkpt>
      <trkpt lat="42.750680" lon="-2.560940">
        <ele>1054.236</ele>
        <time>2011-06-18T12:33:15Z</time>
      </trkpt>
      <trkpt lat="42.750750" lon="-2.560870">
        <ele>1055.217</ele>
        <time>2011-06-18T12:33:08Z</time>
      </trkpt>
      <trkpt lat="42.750830" lon="-2.560790">
        <ele>1056.118</ele>
        <time>2011-06-18T12:33:01Z</time>
      </trkpt>
      <trkpt lat="42.750910" lon="-2.560710">
        <ele>1057.607</ele>
        <time>2011-06-18T12:32:54Z</time>
      </trkpt>
      <trkpt lat="42.750990" lon="-2.560630">
        <ele>1058.185</ele>
        <time>2011-06-18T12:32:47Z</time>
      </trkpt>
      <trkpt lat="42.751070" lon="-2.560550">
        <ele>1058.596</ele>
        <time>2011-06-18T12:32:40Z</time>
      </trkpt>
      <trkpt lat="42.751140" lon="-2.560470">
        <ele>1059.586</ele>
        <time>2011-06-18T12:32:33Z</time>
      </trkpt>
      <trkpt lat="42.751220" lon="-2.560390">
        <ele>1060.515</ele>
        <time>2011-06-18T12:32:26Z</time>
      </trkpt>
      <trkpt lat="42.751300" lon="-2.560310">
        <ele>1061.990</ele>
        <time>2011-06-18T12:32:19Z</time>
      </trkpt>
      <trkpt lat="42.751370" lon="-2.560230">
        <ele>1063.831</ele>
        <time>2011-06-18T12:32:12Z</time>
      </trkpt>
      <trkpt lat="42.751450" lon="-2.560150">
        <ele>1064.885</ele>
        <time>2011-06-18T12:32:05Z</time>
      </trkpt>
      <trkpt lat="42.751530" lon="-2.560080">
        <ele>1065.365</ele>
        <time>2011-06-18T12:31:58Z</time>
      </trkpt>
      <trkpt lat="42.751610" lon="-2.560020">
        <ele>1066.368</ele>
        <time>2011-06-18T12:31:51Z</time>
      </trkpt>
      <trkpt lat="42.751700" lon="-2.559950">
        <ele>1066.714</ele>
        <time>2011-06-18T12:31:44Z</time>
      </trkpt>
      <trkpt lat="42.751780" lon="-2.559890">
        <ele>1067.707</ele>
        <time>2011-06-18T12:31:37Z</time>
      </trkpt>
      <trkpt lat="42.751870" lon="-2.559820">
        <ele>1068.288</ele>
        <time>2011-06-18T12:31:30Z</time>
      </trkpt>
      <trkpt lat="42.751960" lon="-2.559760">
        <ele>1068.699</ele>
        <time>2011-06-18T12:31:23Z</time>
      </trkpt>
      <trkpt lat="42.752040" lon="-2.559690">
        <ele>1069.699</ele>
        <time>2011-06-18T12:31:16Z</time>
      </trkpt>
      <trkpt lat="42.752130" lon="-2.559630">
        <ele>1070.638</ele>
        <time>2011-06-18T12:31:09Z</time>
      </trkpt>
      <trkpt lat="42.752210" lon="-2.559560">
        <ele>1071.523</ele>
        <time>2011-06-18T12:31:02Z</time>
      </trkpt>
      <trkpt lat="42.752300" lon="-2.559490">
        <ele>1072.074</ele>
        <time>2011-06-18T12:30:55Z</time>
      </trkpt>
      <trkpt lat="42.752390" lon="-2.559420">
        <ele>1072.058</ele>
        <time>2011-06-18T12:30:48Z</time>
      </trkpt>
      <trkpt lat="42.752470" lon="-2.559350">
        <ele>1073.052</ele>
        <time>2011-06-18T12:30:41Z</time>
      </trkpt>
      <trkpt lat="42.752550" lon="-2.559290">
        <ele>1073.953</ele>
        <time>2011-06-18T12:30:33Z</time>
      </trkpt>
      <trkpt lat="42.752630" lon="-2.559230">
        <ele>1074.908</ele>
        <time>2011-06-18T12:30:26Z</time>
      </trkpt>
      <trkpt lat="42.752720" lon="-2.559170">
        <ele>1073.907</ele>
        <time>2011-06-18T12:30:18Z</time>
      </trkpt>
      <trkpt lat="42.752800" lon="-2.559110">
        <ele>1075.927</ele>
        <time>2011-06-18T12:30:11Z</time>
      </trkpt>
      <trkpt lat="42.752880" lon="-2.559030">
        <ele>1077.868</ele>
        <time>2011-06-18T12:30:03Z</time>
      </trkpt>
      <trkpt lat="42.752960" lon="-2.558970">
        <ele>1075.968</ele>
        <time>2011-06-18T12:29:56Z</time>
      </trkpt>
      <trkpt lat="42.753040" lon="-2.558910">
        <ele>1076.327</ele>
        <time>2011-06-18T12:29:49Z</time>
      </trkpt>
      <trkpt lat="42.753130" lon="-2.558850">
        <ele>1076.332</ele>
        <time>2011-06-18T12:29:41Z</time>
      </trkpt>
      <trkpt lat="42.753210" lon="-2.558800">
        <ele>1077.333</ele>
        <time>2011-06-18T12:29:34Z</time>
      </trkpt>
      <trkpt lat="42.753290" lon="-2.558750">
        <ele>1078.737</ele>
        <time>2011-06-18T12:29:27Z</time>
      </trkpt>
      <trkpt lat="42.753380" lon="-2.558700">
        <ele>1079.747</ele>
        <time>2011-06-18T12:29:20Z</time>
      </trkpt>
      <trkpt lat="42.753460" lon="-2.558670">
        <ele>1080.229</ele>
        <time>2011-06-18T12:29:13Z</time>
      </trkpt>
      <trkpt lat="42.753570" lon="-2.558640">
        <ele>1081.621</ele>
        <time>2011-06-18T12:29:05Z</time>
      </trkpt>
      <trkpt lat="42.753650" lon="-2.558610">
        <ele>1082.607</ele>
        <time>2011-06-18T12:28:58Z</time>
      </trkpt>
      <trkpt lat="42.753750" lon="-2.558580">
        <ele>1082.666</ele>
        <time>2011-06-18T12:28:50Z</time>
      </trkpt>
      <trkpt lat="42.753840" lon="-2.558550">
        <ele>1083.117</ele>
        <time>2011-06-18T12:28:42Z</time>
      </trkpt>
      <trkpt lat="42.753930" lon="-2.558510">
        <ele>1083.547</ele>
        <time>2011-06-18T12:28:28Z</time>
      </trkpt>
      <trkpt lat="42.754010" lon="-2.558480">
        <ele>1085.516</ele>
        <time>2011-06-18T12:28:13Z</time>
      </trkpt>
      <trkpt lat="42.754110" lon="-2.558460">
        <ele>1086.441</ele>
        <time>2011-06-18T12:28:05Z</time>
      </trkpt>
      <trkpt lat="42.754200" lon="-2.558430">
        <ele>1088.362</ele>
        <time>2011-06-18T12:27:57Z</time>
      </trkpt>
      <trkpt lat="42.754290" lon="-2.558400">
        <ele>1089.336</ele>
        <time>2011-06-18T12:27:49Z</time>
      </trkpt>
      <trkpt lat="42.754390" lon="-2.558370">
        <ele>1090.382</ele>
        <time>2011-06-18T12:27:41Z</time>
      </trkpt>
      <trkpt lat="42.754480" lon="-2.558350">
        <ele>1091.243</ele>
        <time>2011-06-18T12:27:33Z</time>
      </trkpt>
      <trkpt lat="42.754580" lon="-2.558330">
        <ele>1092.217</ele>
        <time>2011-06-18T12:27:24Z</time>
      </trkpt>
      <trkpt lat="42.754680" lon="-2.558310">
        <ele>1093.207</ele>
        <time>2011-06-18T12:27:16Z</time>
      </trkpt>
      <trkpt lat="42.754770" lon="-2.558300">
        <ele>1094.130</ele>
        <time>2011-06-18T12:27:09Z</time>
      </trkpt>
      <trkpt lat="42.754870" lon="-2.558280">
        <ele>1094.661</ele>
        <time>2011-06-18T12:27:01Z</time>
      </trkpt>
      <trkpt lat="42.754960" lon="-2.558280">
        <ele>1095.191</ele>
        <time>2011-06-18T12:26:54Z</time>
      </trkpt>
      <trkpt lat="42.755050" lon="-2.558270">
        <ele>1095.630</ele>
        <time>2011-06-18T12:26:47Z</time>
      </trkpt>
      <trkpt lat="42.755140" lon="-2.558270">
        <ele>1096.095</ele>
        <time>2011-06-18T12:26:40Z</time>
      </trkpt>
      <trkpt lat="42.755230" lon="-2.558270">
        <ele>1096.516</ele>
        <time>2011-06-18T12:26:33Z</time>
      </trkpt>
      <trkpt lat="42.755330" lon="-2.558260">
        <ele>1098.480</ele>
        <time>2011-06-18T12:26:26Z</time>
      </trkpt>
      <trkpt lat="42.755420" lon="-2.558250">
        <ele>1099.438</ele>
        <time>2011-06-18T12:26:19Z</time>
      </trkpt>
      <trkpt lat="42.755530" lon="-2.558240">
        <ele>1101.370</ele>
        <time>2011-06-18T12:26:11Z</time>
      </trkpt>
      <trkpt lat="42.755640" lon="-2.558240">
        <ele>1101.817</ele>
        <time>2011-06-18T12:26:03Z</time>
      </trkpt>
      <trkpt lat="42.755740" lon="-2.558240">
        <ele>1102.807</ele>
        <time>2011-06-18T12:25:55Z</time>
      </trkpt>
      <trkpt lat="42.755830" lon="-2.558220">
        <ele>1104.215</ele>
        <time>2011-06-18T12:25:48Z</time>
      </trkpt>
      <trkpt lat="42.755920" lon="-2.558210">
        <ele>1105.766</ele>
        <time>2011-06-18T12:25:41Z</time>
      </trkpt>
      <trkpt lat="42.756010" lon="-2.558200">
        <ele>1106.146</ele>
        <time>2011-06-18T12:25:34Z</time>
      </trkpt>
      <trkpt lat="42.756110" lon="-2.558200">
        <ele>1107.645</ele>
        <time>2011-06-18T12:25:27Z</time>
      </trkpt>
      <trkpt lat="42.756210" lon="-2.558190">
        <ele>1108.190</ele>
        <time>2011-06-18T12:25:19Z</time>
      </trkpt>
      <trkpt lat="42.756320" lon="-2.558200">
        <ele>1109.561</ele>
        <time>2011-06-18T12:25:11Z</time>
      </trkpt>
      <trkpt lat="42.756400" lon="-2.558230">
        <ele>1109.515</ele>
        <time>2011-06-18T12:25:04Z</time>
      </trkpt>
      <trkpt lat="42.756490" lon="-2.558260">
        <ele>1110.452</ele>
        <time>2011-06-18T12:24:57Z</time>
      </trkpt>
      <trkpt lat="42.756590" lon="-2.558300">
        <ele>1110.953</ele>
        <time>2011-06-18T12:24:49Z</time>
      </trkpt>
      <trkpt lat="42.756680" lon="-2.558350">
        <ele>1111.408</ele>
        <time>2011-06-18T12:24:41Z</time>
      </trkpt>
      <trkpt lat="42.756770" lon="-2.558400">
        <ele>1111.907</ele>
        <time>2011-06-18T12:24:33Z</time>
      </trkpt>
      <trkpt lat="42.756870" lon="-2.558430">
        <ele>1112.487</ele>
        <time>2011-06-18T12:24:25Z</time>
      </trkpt>
      <trkpt lat="42.756960" lon="-2.558460">
        <ele>1112.978</ele>
        <time>2011-06-18T12:24:17Z</time>
      </trkpt>
      <trkpt lat="42.757060" lon="-2.558510">
        <ele>1113.388</ele>
        <time>2011-06-18T12:24:09Z</time>
      </trkpt>
      <trkpt lat="42.757140" lon="-2.558570">
        <ele>1113.367</ele>
        <time>2011-06-18T12:24:01Z</time>
      </trkpt>
      <trkpt lat="42.757210" lon="-2.558660">
        <ele>1112.932</ele>
        <time>2011-06-18T12:23:53Z</time>
      </trkpt>
      <trkpt lat="42.757260" lon="-2.558780">
        <ele>1112.473</ele>
        <time>2011-06-18T12:23:45Z</time>
      </trkpt>
      <trkpt lat="42.757300" lon="-2.558910">
        <ele>1112.467</ele>
        <time>2011-06-18T12:23:37Z</time>
      </trkpt>
      <trkpt lat="42.757330" lon="-2.559030">
        <ele>1111.477</ele>
        <time>2011-06-18T12:23:29Z</time>
      </trkpt>
      <trkpt lat="42.757360" lon="-2.559160">
        <ele>1111.461</ele>
        <time>2011-06-18T12:23:21Z</time>
      </trkpt>
      <trkpt lat="42.757380" lon="-2.559280">
        <ele>1110.927</ele>
        <time>2011-06-18T12:23:13Z</time>
      </trkpt>
      <trkpt lat="42.757400" lon="-2.559410">
        <ele>1110.407</ele>
        <time>2011-06-18T12:23:05Z</time>
      </trkpt>
      <trkpt lat="42.757440" lon="-2.559520">
        <ele>1109.599</ele>
        <time>2011-06-18T12:22:57Z</time>
      </trkpt>
      <trkpt lat="42.757490" lon="-2.559650">
        <ele>1107.630</ele>
        <time>2011-06-18T12:22:48Z</time>
      </trkpt>
      <trkpt lat="42.757560" lon="-2.559730">
        <ele>1106.150</ele>
        <time>2011-06-18T12:22:39Z</time>
      </trkpt>
      <trkpt lat="42.757630" lon="-2.559800">
        <ele>1104.219</ele>
        <time>2011-06-18T12:22:31Z</time>
      </trkpt>
      <trkpt lat="42.757680" lon="-2.559920">
        <ele>1103.794</ele>
        <time>2011-06-18T12:22:22Z</time>
      </trkpt>
      <trkpt lat="42.757720" lon="-2.560030">
        <ele>1103.335</ele>
        <time>2011-06-18T12:22:13Z</time>
      </trkpt>
      <trkpt lat="42.757810" lon="-2.560070">
        <ele>1103.329</ele>
        <time>2011-06-18T12:22:05Z</time>
      </trkpt>
      <trkpt lat="42.757900" lon="-2.560120">
        <ele>1104.766</ele>
        <time>2011-06-18T12:21:57Z</time>
      </trkpt>
      <trkpt lat="42.757990" lon="-2.560180">
        <ele>1104.729</ele>
        <time>2011-06-18T12:21:49Z</time>
      </trkpt>
      <trkpt lat="42.758090" lon="-2.560150">
        <ele>1106.621</ele>
        <time>2011-06-18T12:21:41Z</time>
      </trkpt>
      <trkpt lat="42.758180" lon="-2.560130">
        <ele>1108.107</ele>
        <time>2011-06-18T12:21:33Z</time>
      </trkpt>
      <trkpt lat="42.758270" lon="-2.560080">
        <ele>1109.038</ele>
        <time>2011-06-18T12:21:25Z</time>
      </trkpt>
      <trkpt lat="42.758360" lon="-2.560030">
        <ele>1110.439</ele>
        <time>2011-06-18T12:21:18Z</time>
      </trkpt>
      <trkpt lat="42.758440" lon="-2.559990">
        <ele>1110.449</ele>
        <time>2011-06-18T12:21:11Z</time>
      </trkpt>
      <trkpt lat="42.758540" lon="-2.559960">
        <ele>1111.448</ele>
        <time>2011-06-18T12:21:03Z</time>
      </trkpt>
      <trkpt lat="42.758630" lon="-2.559910">
        <ele>1112.493</ele>
        <time>2011-06-18T12:20:55Z</time>
      </trkpt>
      <trkpt lat="42.758710" lon="-2.559840">
        <ele>1112.944</ele>
        <time>2011-06-18T12:20:48Z</time>
      </trkpt>
      <trkpt lat="42.758790" lon="-2.559790">
        <ele>1113.878</ele>
        <time>2011-06-18T12:20:41Z</time>
      </trkpt>
      <trkpt lat="42.758880" lon="-2.559730">
        <ele>1114.828</ele>
        <time>2011-06-18T12:20:34Z</time>
      </trkpt>
      <trkpt lat="42.758970" lon="-2.559670">
        <ele>1116.789</ele>
        <time>2011-06-18T12:20:26Z</time>
      </trkpt>
      <trkpt lat="42.759060" lon="-2.559610">
        <ele>1117.717</ele>
        <time>2011-06-18T12:20:18Z</time>
      </trkpt>
      <trkpt lat="42.759130" lon="-2.559540">
        <ele>1119.607</ele>
        <time>2011-06-18T12:20:10Z</time>
      </trkpt>
      <trkpt lat="42.759220" lon="-2.559470">
        <ele>1121.044</ele>
        <time>2011-06-18T12:19:57Z</time>
      </trkpt>
      <trkpt lat="42.759300" lon="-2.559410">
        <ele>1122.035</ele>
        <time>2011-06-18T12:19:49Z</time>
      </trkpt>
      <trkpt lat="42.759390" lon="-2.559360">
        <ele>1122.975</ele>
        <time>2011-06-18T12:19:40Z</time>
      </trkpt>
      <trkpt lat="42.759480" lon="-2.559350">
        <ele>1123.924</ele>
        <time>2011-06-18T12:19:32Z</time>
      </trkpt>
      <trkpt lat="42.759570" lon="-2.559400">
        <ele>1126.379</ele>
        <time>2011-06-18T12:19:23Z</time>
      </trkpt>
      <trkpt lat="42.759640" lon="-2.559490">
        <ele>1128.270</ele>
        <time>2011-06-18T12:19:14Z</time>
      </trkpt>
      <trkpt lat="42.759720" lon="-2.559540">
        <ele>1131.674</ele>
        <time>2011-06-18T12:19:04Z</time>
      </trkpt>
      <trkpt lat="42.759780" lon="-2.559640">
        <ele>1134.065</ele>
        <time>2011-06-18T12:18:54Z</time>
      </trkpt>
      <trkpt lat="42.759850" lon="-2.559720">
        <ele>1137.468</ele>
        <time>2011-06-18T12:18:43Z</time>
      </trkpt>
      <trkpt lat="42.759920" lon="-2.559800">
        <ele>1138.814</ele>
        <time>2011-06-18T12:18:33Z</time>
      </trkpt>
      <trkpt lat="42.759990" lon="-2.559880">
        <ele>1139.307</ele>
        <time>2011-06-18T12:18:24Z</time>
      </trkpt>
      <trkpt lat="42.760080" lon="-2.559930">
        <ele>1139.368</ele>
        <time>2011-06-18T12:18:13Z</time>
      </trkpt>
      <trkpt lat="42.760160" lon="-2.559990">
        <ele>1140.339</ele>
        <time>2011-06-18T12:18:04Z</time>
      </trkpt>
      <trkpt lat="42.760230" lon="-2.560070">
        <ele>1139.849</ele>
        <time>2011-06-18T12:17:56Z</time>
      </trkpt>
      <trkpt lat="42.760280" lon="-2.560180">
        <ele>1139.848</ele>
        <time>2011-06-18T12:17:48Z</time>
      </trkpt>
      <trkpt lat="42.760330" lon="-2.560280">
        <ele>1139.823</ele>
        <time>2011-06-18T12:17:40Z</time>
      </trkpt>
      <trkpt lat="42.760360" lon="-2.560400">
        <ele>1140.364</ele>
        <time>2011-06-18T12:17:32Z</time>
      </trkpt>
      <trkpt lat="42.760390" lon="-2.560520">
        <ele>1140.398</ele>
        <time>2011-06-18T12:17:24Z</time>
      </trkpt>
      <trkpt lat="42.760420" lon="-2.560640">
        <ele>1140.378</ele>
        <time>2011-06-18T12:17:16Z</time>
      </trkpt>
      <trkpt lat="42.760420" lon="-2.560760">
        <ele>1139.833</ele>
        <time>2011-06-18T12:17:08Z</time>
      </trkpt>
      <trkpt lat="42.760430" lon="-2.560890">
        <ele>1139.826</ele>
        <time>2011-06-18T12:16:59Z</time>
      </trkpt>
      <trkpt lat="42.760460" lon="-2.561010">
        <ele>1140.307</ele>
        <time>2011-06-18T12:16:51Z</time>
      </trkpt>
      <trkpt lat="42.760520" lon="-2.561110">
        <ele>1139.329</ele>
        <time>2011-06-18T12:16:43Z</time>
      </trkpt>
      <trkpt lat="42.760560" lon="-2.561240">
        <ele>1140.350</ele>
        <time>2011-06-18T12:16:35Z</time>
      </trkpt>
      <trkpt lat="42.760640" lon="-2.561320">
        <ele>1140.730</ele>
        <time>2011-06-18T12:16:27Z</time>
      </trkpt>
      <trkpt lat="42.760710" lon="-2.561400">
        <ele>1141.799</ele>
        <time>2011-06-18T12:16:18Z</time>
      </trkpt>
      <trkpt lat="42.760780" lon="-2.561480">
        <ele>1142.214</ele>
        <time>2011-06-18T12:16:07Z</time>
      </trkpt>
      <trkpt lat="42.760860" lon="-2.561540">
        <ele>1142.265</ele>
        <time>2011-06-18T12:15:57Z</time>
      </trkpt>
      <trkpt lat="42.760900" lon="-2.561680">
        <ele>1143.299</ele>
        <time>2011-06-18T12:15:45Z</time>
      </trkpt>
      <trkpt lat="42.760920" lon="-2.561690">
        <ele>1139.836</ele>
        <time>2011-06-18T12:14:25Z</time>
      </trkpt>
      <trkpt lat="42.760940" lon="-2.561700">
        <ele>1141.217</ele>
        <time>2011-06-18T12:13:51Z</time>
      </trkpt>
      <trkpt lat="42.760940" lon="-2.561700">
        <ele>1139.818</ele>
        <time>2011-06-18T11:51:21Z</time>
      </trkpt>
      <trkpt lat="42.760930" lon="-2.561710">
        <ele>1140.307</ele>
        <time>2011-06-18T11:50:29Z</time>
      </trkpt>
      <trkpt lat="42.760920" lon="-2.561690">
        <ele>1141.755</ele>
        <time>2011-06-18T11:48:22Z</time>
      </trkpt>
      <trkpt lat="42.760910" lon="-2.561740">
        <ele>1141.786</ele>
        <time>2011-06-18T11:47:08Z</time>
      </trkpt>
      <trkpt lat="42.760830" lon="-2.561790">
        <ele>1141.236</ele>
        <time>2011-06-18T11:46:54Z</time>
      </trkpt>
      <trkpt lat="42.760750" lon="-2.561850">
        <ele>1139.825</ele>
        <time>2011-06-18T11:46:45Z</time>
      </trkpt>
      <trkpt lat="42.760670" lon="-2.561910">
        <ele>1138.840</ele>
        <time>2011-06-18T11:46:36Z</time>
      </trkpt>
      <trkpt lat="42.760590" lon="-2.561980">
        <ele>1137.481</ele>
        <time>2011-06-18T11:46:27Z</time>
      </trkpt>
      <trkpt lat="42.760510" lon="-2.562050">
        <ele>1136.435</ele>
        <time>2011-06-18T11:46:18Z</time>
      </trkpt>
      <trkpt lat="42.760460" lon="-2.562150">
        <ele>1135.452</ele>
        <time>2011-06-18T11:46:09Z</time>
      </trkpt>
      <trkpt lat="42.760460" lon="-2.562270">
        <ele>1135.053</ele>
        <time>2011-06-18T11:46:00Z</time>
      </trkpt>
      <trkpt lat="42.760430" lon="-2.562380">
        <ele>1134.008</ele>
        <time>2011-06-18T11:45:51Z</time>
      </trkpt>
      <trkpt lat="42.760400" lon="-2.562510">
        <ele>1133.107</ele>
        <time>2011-06-18T11:45:41Z</time>
      </trkpt>
      <trkpt lat="42.760370" lon="-2.562640">
        <ele>1131.667</ele>
        <time>2011-06-18T11:45:31Z</time>
      </trkpt>
      <trkpt lat="42.760340" lon="-2.562750">
        <ele>1131.138</ele>
        <time>2011-06-18T11:45:22Z</time>
      </trkpt>
      <trkpt lat="42.760270" lon="-2.562840">
        <ele>1130.778</ele>
        <time>2011-06-18T11:45:14Z</time>
      </trkpt>
      <trkpt lat="42.760200" lon="-2.562940">
        <ele>1128.747</ele>
        <time>2011-06-18T11:45:05Z</time>
      </trkpt>
      <trkpt lat="42.760120" lon="-2.563010">
        <ele>1127.892</ele>
        <time>2011-06-18T11:44:56Z</time>
      </trkpt>
      <trkpt lat="42.760070" lon="-2.563140">
        <ele>1127.813</ele>
        <time>2011-06-18T11:44:44Z</time>
      </trkpt>
      <trkpt lat="42.760060" lon="-2.563050">
        <ele>1126.887</ele>
        <time>2011-06-18T11:41:54Z</time>
      </trkpt>
      <trkpt lat="42.760090" lon="-2.563080">
        <ele>1126.899</ele>
        <time>2011-06-18T11:40:28Z</time>
      </trkpt>
      <trkpt lat="42.760070" lon="-2.563140">
        <ele>1127.307</ele>
        <time>2011-06-18T11:38:10Z</time>
      </trkpt>
      <trkpt lat="42.760000" lon="-2.563230">
        <ele>1126.827</ele>
        <time>2011-06-18T11:38:00Z</time>
      </trkpt>
      <trkpt lat="42.759940" lon="-2.563340">
        <ele>1126.307</ele>
        <time>2011-06-18T11:37:50Z</time>
      </trkpt>
      <trkpt lat="42.759870" lon="-2.563420">
        <ele>1125.461</ele>
        <time>2011-06-18T11:37:40Z</time>
      </trkpt>
      <trkpt lat="42.759800" lon="-2.563510">
        <ele>1123.942</ele>
        <time>2011-06-18T11:37:29Z</time>
      </trkpt>
      <trkpt lat="42.759750" lon="-2.563610">
        <ele>1122.072</ele>
        <time>2011-06-18T11:37:18Z</time>
      </trkpt>
      <trkpt lat="42.759680" lon="-2.563700">
        <ele>1119.621</ele>
        <time>2011-06-18T11:37:07Z</time>
      </trkpt>
      <trkpt lat="42.759600" lon="-2.563730">
        <ele>1119.676</ele>
        <time>2011-06-18T11:36:55Z</time>
      </trkpt>
      <trkpt lat="42.759510" lon="-2.563700">
        <ele>1116.717</ele>
        <time>2011-06-18T11:36:42Z</time>
      </trkpt>
      <trkpt lat="42.759420" lon="-2.563690">
        <ele>1114.321</ele>
        <time>2011-06-18T11:36:29Z</time>
      </trkpt>
      <trkpt lat="42.759320" lon="-2.563700">
        <ele>1112.977</ele>
        <time>2011-06-18T11:36:16Z</time>
      </trkpt>
      <trkpt lat="42.759230" lon="-2.563670">
        <ele>1110.961</ele>
        <time>2011-06-18T11:36:05Z</time>
      </trkpt>
      <trkpt lat="42.759140" lon="-2.563660">
        <ele>1109.527</ele>
        <time>2011-06-18T11:35:54Z</time>
      </trkpt>
      <trkpt lat="42.759060" lon="-2.563620">
        <ele>1107.607</ele>
        <time>2011-06-18T11:35:43Z</time>
      </trkpt>
      <trkpt lat="42.758970" lon="-2.563630">
        <ele>1105.269</ele>
        <time>2011-06-18T11:35:31Z</time>
      </trkpt>
      <trkpt lat="42.758880" lon="-2.563640">
        <ele>1105.230</ele>
        <time>2011-06-18T11:35:20Z</time>
      </trkpt>
      <trkpt lat="42.758790" lon="-2.563670">
        <ele>1103.780</ele>
        <time>2011-06-18T11:35:09Z</time>
      </trkpt>
      <trkpt lat="42.758700" lon="-2.563660">
        <ele>1101.879</ele>
        <time>2011-06-18T11:34:58Z</time>
      </trkpt>
      <trkpt lat="42.758620" lon="-2.563680">
        <ele>1099.474</ele>
        <time>2011-06-18T11:34:48Z</time>
      </trkpt>
      <trkpt lat="42.758530" lon="-2.563650">
        <ele>1098.475</ele>
        <time>2011-06-18T11:34:37Z</time>
      </trkpt>
      <trkpt lat="42.758430" lon="-2.563630">
        <ele>1097.549</ele>
        <time>2011-06-18T11:34:27Z</time>
      </trkpt>
      <trkpt lat="42.758330" lon="-2.563620">
        <ele>1096.079</ele>
        <time>2011-06-18T11:34:16Z</time>
      </trkpt>
      <trkpt lat="42.758230" lon="-2.563570">
        <ele>1095.105</ele>
        <time>2011-06-18T11:34:05Z</time>
      </trkpt>
      <trkpt lat="42.758150" lon="-2.563590">
        <ele>1092.725</ele>
        <time>2011-06-18T11:33:53Z</time>
      </trkpt>
      <trkpt lat="42.758070" lon="-2.563600">
        <ele>1092.207</ele>
        <time>2011-06-18T11:33:42Z</time>
      </trkpt>
      <trkpt lat="42.757980" lon="-2.563630">
        <ele>1091.759</ele>
        <time>2011-06-18T11:33:31Z</time>
      </trkpt>
      <trkpt lat="42.757890" lon="-2.563650">
        <ele>1089.370</ele>
        <time>2011-06-18T11:33:19Z</time>
      </trkpt>
      <trkpt lat="42.757800" lon="-2.563690">
        <ele>1089.810</ele>
        <time>2011-06-18T11:33:08Z</time>
      </trkpt>
      <trkpt lat="42.757720" lon="-2.563780">
        <ele>1088.879</ele>
        <time>2011-06-18T11:32:57Z</time>
      </trkpt>
      <trkpt lat="42.757650" lon="-2.563880">
        <ele>1086.964</ele>
        <time>2011-06-18T11:32:44Z</time>
      </trkpt>
      <trkpt lat="42.757600" lon="-2.563950">
        <ele>1086.465</ele>
        <time>2011-06-18T11:32:07Z</time>
      </trkpt>
      <trkpt lat="42.757550" lon="-2.564050">
        <ele>1081.639</ele>
        <time>2011-06-18T11:31:52Z</time>
      </trkpt>
      <trkpt lat="42.757470" lon="-2.564090">
        <ele>1078.344</ele>
        <time>2011-06-18T11:31:35Z</time>
      </trkpt>
      <trkpt lat="42.757390" lon="-2.564120">
        <ele>1075.405</ele>
        <time>2011-06-18T11:31:16Z</time>
      </trkpt>
      <trkpt lat="42.757300" lon="-2.564140">
        <ele>1073.015</ele>
        <time>2011-06-18T11:31:01Z</time>
      </trkpt>
      <trkpt lat="42.757300" lon="-2.564260">
        <ele>1071.507</ele>
        <time>2011-06-18T11:30:46Z</time>
      </trkpt>
      <trkpt lat="42.757280" lon="-2.564360">
        <ele>1069.186</ele>
        <time>2011-06-18T11:30:28Z</time>
      </trkpt>
      <trkpt lat="42.757250" lon="-2.564460">
        <ele>1065.387</ele>
        <time>2011-06-18T11:30:05Z</time>
      </trkpt>
      <trkpt lat="42.757210" lon="-2.564550">
        <ele>1061.437</ele>
        <time>2011-06-18T11:29:46Z</time>
      </trkpt>
      <trkpt lat="42.756980" lon="-2.564450">
        <ele>1049.976</ele>
        <time>2011-06-18T11:28:10Z</time>
      </trkpt>
      <trkpt lat="42.756910" lon="-2.564650">
        <ele>1046.561</ele>
        <time>2011-06-18T11:27:44Z</time>
      </trkpt>
      <trkpt lat="42.756950" lon="-2.564910">
        <ele>1042.782</ele>
        <time>2011-06-18T11:27:22Z</time>
      </trkpt>
      <trkpt lat="42.757010" lon="-2.565150">
        <ele>1039.836</ele>
        <time>2011-06-18T11:27:05Z</time>
      </trkpt>
      <trkpt lat="42.757050" lon="-2.565270">
        <ele>1038.456</ele>
        <time>2011-06-18T11:26:58Z</time>
      </trkpt>
      <trkpt lat="42.757100" lon="-2.565400">
        <ele>1038.459</ele>
        <time>2011-06-18T11:26:51Z</time>
      </trkpt>
      <trkpt lat="42.757140" lon="-2.565490">
        <ele>1037.414</ele>
        <time>2011-06-18T11:26:43Z</time>
      </trkpt>
      <trkpt lat="42.757230" lon="-2.565560">
        <ele>1036.907</ele>
        <time>2011-06-18T11:26:34Z</time>
      </trkpt>
      <trkpt lat="42.757340" lon="-2.565610">
        <ele>1037.457</ele>
        <time>2011-06-18T11:26:26Z</time>
      </trkpt>
      <trkpt lat="42.757560" lon="-2.565640">
        <ele>1042.258</ele>
        <time>2011-06-18T11:26:08Z</time>
      </trkpt>
      <trkpt lat="42.757650" lon="-2.565620">
        <ele>1042.268</ele>
        <time>2011-06-18T11:25:59Z</time>
      </trkpt>
      <trkpt lat="42.757740" lon="-2.565650">
        <ele>1043.237</ele>
        <time>2011-06-18T11:25:47Z</time>
      </trkpt>
      <trkpt lat="42.757820" lon="-2.565670">
        <ele>1043.242</ele>
        <time>2011-06-18T11:25:35Z</time>
      </trkpt>
      <trkpt lat="42.757930" lon="-2.565670">
        <ele>1043.223</ele>
        <time>2011-06-18T11:25:27Z</time>
      </trkpt>
      <trkpt lat="42.758040" lon="-2.565680">
        <ele>1043.217</ele>
        <time>2011-06-18T11:25:19Z</time>
      </trkpt>
      <trkpt lat="42.758150" lon="-2.565720">
        <ele>1043.238</ele>
        <time>2011-06-18T11:25:11Z</time>
      </trkpt>
      <trkpt lat="42.758250" lon="-2.565750">
        <ele>1043.670</ele>
        <time>2011-06-18T11:25:04Z</time>
      </trkpt>
      <trkpt lat="42.758430" lon="-2.565860">
        <ele>1047.017</ele>
        <time>2011-06-18T11:24:47Z</time>
      </trkpt>
      <trkpt lat="42.758490" lon="-2.565980">
        <ele>1047.507</ele>
        <time>2011-06-18T11:24:34Z</time>
      </trkpt>
      <trkpt lat="42.758550" lon="-2.566090">
        <ele>1047.595</ele>
        <time>2011-06-18T11:24:25Z</time>
      </trkpt>
      <trkpt lat="42.758600" lon="-2.566190">
        <ele>1047.586</ele>
        <time>2011-06-18T11:24:15Z</time>
      </trkpt>
      <trkpt lat="42.758660" lon="-2.566280">
        <ele>1048.086</ele>
        <time>2011-06-18T11:24:06Z</time>
      </trkpt>
      <trkpt lat="42.758760" lon="-2.566370">
        <ele>1047.085</ele>
        <time>2011-06-18T11:23:57Z</time>
      </trkpt>
      <trkpt lat="42.758840" lon="-2.566460">
        <ele>1049.930</ele>
        <time>2011-06-18T11:23:48Z</time>
      </trkpt>
      <trkpt lat="42.758890" lon="-2.566580">
        <ele>1047.081</ele>
        <time>2011-06-18T11:23:39Z</time>
      </trkpt>
      <trkpt lat="42.758900" lon="-2.566730">
        <ele>1045.685</ele>
        <time>2011-06-18T11:23:27Z</time>
      </trkpt>
      <trkpt lat="42.758900" lon="-2.566850">
        <ele>1043.225</ele>
        <time>2011-06-18T11:23:15Z</time>
      </trkpt>
      <trkpt lat="42.758960" lon="-2.566950">
        <ele>1042.226</ele>
        <time>2011-06-18T11:23:04Z</time>
      </trkpt>
      <trkpt lat="42.759050" lon="-2.567020">
        <ele>1041.708</ele>
        <time>2011-06-18T11:22:55Z</time>
      </trkpt>
      <trkpt lat="42.759220" lon="-2.567190">
        <ele>1040.307</ele>
        <time>2011-06-18T11:22:36Z</time>
      </trkpt>
      <trkpt lat="42.759290" lon="-2.567290">
        <ele>1039.374</ele>
        <time>2011-06-18T11:22:25Z</time>
      </trkpt>
      <trkpt lat="42.759450" lon="-2.567490">
        <ele>1036.935</ele>
        <time>2011-06-18T11:22:02Z</time>
      </trkpt>
      <trkpt lat="42.759600" lon="-2.567840">
        <ele>1034.565</ele>
        <time>2011-06-18T11:21:34Z</time>
      </trkpt>
      <trkpt lat="42.759670" lon="-2.567950">
        <ele>1033.514</ele>
        <time>2011-06-18T11:21:25Z</time>
      </trkpt>
      <trkpt lat="42.759820" lon="-2.568150">
        <ele>1033.169</ele>
        <time>2011-06-18T11:21:08Z</time>
      </trkpt>
      <trkpt lat="42.760038" lon="-2.568310">
        <ele>1032.120</ele>
        <time>2011-06-18T11:20:51Z</time>
      </trkpt>
      <trkpt lat="42.760128" lon="-2.568401">
        <ele>1030.744</ele>
        <time>2011-06-18T11:20:43Z</time>
      </trkpt>
      <trkpt lat="42.760190" lon="-2.568540">
        <ele>1031.113</ele>
        <time>2011-06-18T11:20:33Z</time>
      </trkpt>
      <trkpt lat="42.760340" lon="-2.568880">
        <ele>1030.243</ele>
        <time>2011-06-18T11:20:04Z</time>
      </trkpt>
      <trkpt lat="42.760400" lon="-2.568990">
        <ele>1029.707</ele>
        <time>2011-06-18T11:19:52Z</time>
      </trkpt>
      <trkpt lat="42.760460" lon="-2.569080">
        <ele>1029.207</ele>
        <time>2011-06-18T11:19:44Z</time>
      </trkpt>
      <trkpt lat="42.760509" lon="-2.569181">
        <ele>1028.393</ele>
        <time>2011-06-18T11:19:36Z</time>
      </trkpt>
      <trkpt lat="42.760580" lon="-2.569330">
        <ele>1029.234</ele>
        <time>2011-06-18T11:19:27Z</time>
      </trkpt>
      <trkpt lat="42.760590" lon="-2.569470">
        <ele>1028.344</ele>
        <time>2011-06-18T11:19:20Z</time>
      </trkpt>
      <trkpt lat="42.760641" lon="-2.569577">
        <ele>1028.323</ele>
        <time>2011-06-18T11:19:11Z</time>
      </trkpt>
      <trkpt lat="42.760691" lon="-2.569699">
        <ele>1028.848</ele>
        <time>2011-06-18T11:19:01Z</time>
      </trkpt>
      <trkpt lat="42.760740" lon="-2.569800">
        <ele>1029.269</ele>
        <time>2011-06-18T11:18:52Z</time>
      </trkpt>
      <trkpt lat="42.760830" lon="-2.569890">
        <ele>1028.823</ele>
        <time>2011-06-18T11:18:43Z</time>
      </trkpt>
      <trkpt lat="42.760870" lon="-2.570000">
        <ele>1029.268</ele>
        <time>2011-06-18T11:18:33Z</time>
      </trkpt>
      <trkpt lat="42.760960" lon="-2.570100">
        <ele>1029.242</ele>
        <time>2011-06-18T11:18:21Z</time>
      </trkpt>
      <trkpt lat="42.761020" lon="-2.570200">
        <ele>1028.326</ele>
        <time>2011-06-18T11:18:08Z</time>
      </trkpt>
      <trkpt lat="42.761110" lon="-2.570270">
        <ele>1028.307</ele>
        <time>2011-06-18T11:17:57Z</time>
      </trkpt>
      <trkpt lat="42.761180" lon="-2.570340">
        <ele>1027.868</ele>
        <time>2011-06-18T11:17:47Z</time>
      </trkpt>
      <trkpt lat="42.761240" lon="-2.570440">
        <ele>1027.889</ele>
        <time>2011-06-18T11:17:36Z</time>
      </trkpt>
      <trkpt lat="42.761290" lon="-2.570540">
        <ele>1028.869</ele>
        <time>2011-06-18T11:17:14Z</time>
      </trkpt>
      <trkpt lat="42.761340" lon="-2.570650">
        <ele>1028.838</ele>
        <time>2011-06-18T11:16:55Z</time>
      </trkpt>
      <trkpt lat="42.761390" lon="-2.570760">
        <ele>1028.883</ele>
        <time>2011-06-18T11:16:37Z</time>
      </trkpt>
      <trkpt lat="42.761440" lon="-2.570860">
        <ele>1028.894</ele>
        <time>2011-06-18T11:16:26Z</time>
      </trkpt>
      <trkpt lat="42.761420" lon="-2.570900">
        <ele>1029.798</ele>
        <time>2011-06-18T11:15:16Z</time>
      </trkpt>
      <trkpt lat="42.761490" lon="-2.570980">
        <ele>1030.749</ele>
        <time>2011-06-18T11:13:50Z</time>
      </trkpt>
      <trkpt lat="42.761560" lon="-2.571010">
        <ele>1031.102</ele>
        <time>2011-06-18T11:13:33Z</time>
      </trkpt>
      <trkpt lat="42.761750" lon="-2.571200">
        <ele>1031.122</ele>
        <time>2011-06-18T11:13:10Z</time>
      </trkpt>
      <trkpt lat="42.761970" lon="-2.571340">
        <ele>1029.207</ele>
        <time>2011-06-18T11:12:48Z</time>
      </trkpt>
      <trkpt lat="42.762090" lon="-2.571440">
        <ele>1027.386</ele>
        <time>2011-06-18T11:12:31Z</time>
      </trkpt>
      <trkpt lat="42.762270" lon="-2.571440">
        <ele>1023.937</ele>
        <time>2011-06-18T11:12:07Z</time>
      </trkpt>
      <trkpt lat="42.762440" lon="-2.571260">
        <ele>1019.177</ele>
        <time>2011-06-18T11:11:37Z</time>
      </trkpt>
      <trkpt lat="42.762500" lon="-2.571160">
        <ele>1018.216</ele>
        <time>2011-06-18T11:11:25Z</time>
      </trkpt>
      <trkpt lat="42.762620" lon="-2.570950">
        <ele>1012.971</ele>
        <time>2011-06-18T11:11:03Z</time>
      </trkpt>
      <trkpt lat="42.762700" lon="-2.570870">
        <ele>1011.472</ele>
        <time>2011-06-18T11:10:52Z</time>
      </trkpt>
      <trkpt lat="42.762780" lon="-2.570750">
        <ele>1009.026</ele>
        <time>2011-06-18T11:10:33Z</time>
      </trkpt>
      <trkpt lat="42.762860" lon="-2.570720">
        <ele>1005.246</ele>
        <time>2011-06-18T11:10:17Z</time>
      </trkpt>
      <trkpt lat="42.762950" lon="-2.570670">
        <ele>1002.888</ele>
        <time>2011-06-18T11:10:04Z</time>
      </trkpt>
      <trkpt lat="42.763040" lon="-2.570700">
        <ele>1001.416</ele>
        <time>2011-06-18T11:09:53Z</time>
      </trkpt>
      <trkpt lat="42.763080" lon="-2.570820">
        <ele>1000.407</ele>
        <time>2011-06-18T11:09:40Z</time>
      </trkpt>
      <trkpt lat="42.763130" lon="-2.570920">
        <ele>998.566</ele>
        <time>2011-06-18T11:09:29Z</time>
      </trkpt>
      <trkpt lat="42.763160" lon="-2.571050">
        <ele>996.187</ele>
        <time>2011-06-18T11:09:18Z</time>
      </trkpt>
      <trkpt lat="42.763190" lon="-2.571180">
        <ele>994.117</ele>
        <time>2011-06-18T11:09:06Z</time>
      </trkpt>
      <trkpt lat="42.763200" lon="-2.571290">
        <ele>991.746</ele>
        <time>2011-06-18T11:08:56Z</time>
      </trkpt>
      <trkpt lat="42.763280" lon="-2.571420">
        <ele>989.391</ele>
        <time>2011-06-18T11:08:48Z</time>
      </trkpt>
      <trkpt lat="42.763360" lon="-2.571520">
        <ele>988.432</ele>
        <time>2011-06-18T11:08:41Z</time>
      </trkpt>
      <trkpt lat="42.763400" lon="-2.571650">
        <ele>987.496</ele>
        <time>2011-06-18T11:08:34Z</time>
      </trkpt>
      <trkpt lat="42.763460" lon="-2.571780">
        <ele>986.548</ele>
        <time>2011-06-18T11:08:27Z</time>
      </trkpt>
      <trkpt lat="42.763530" lon="-2.571890">
        <ele>984.561</ele>
        <time>2011-06-18T11:08:19Z</time>
      </trkpt>
      <trkpt lat="42.763600" lon="-2.572000">
        <ele>981.217</ele>
        <time>2011-06-18T11:08:04Z</time>
      </trkpt>
      <trkpt lat="42.763640" lon="-2.572110">
        <ele>981.207</ele>
        <time>2011-06-18T11:07:54Z</time>
      </trkpt>
      <trkpt lat="42.763680" lon="-2.572230">
        <ele>979.766</ele>
        <time>2011-06-18T11:07:47Z</time>
      </trkpt>
      <trkpt lat="42.763690" lon="-2.572350">
        <ele>978.327</ele>
        <time>2011-06-18T11:07:34Z</time>
      </trkpt>
      <trkpt lat="42.763740" lon="-2.572440">
        <ele>976.857</ele>
        <time>2011-06-18T11:07:27Z</time>
      </trkpt>
      <trkpt lat="42.763760" lon="-2.572570">
        <ele>976.486</ele>
        <time>2011-06-18T11:07:18Z</time>
      </trkpt>
      <trkpt lat="42.763800" lon="-2.572690">
        <ele>976.491</ele>
        <time>2011-06-18T11:07:10Z</time>
      </trkpt>
      <trkpt lat="42.763870" lon="-2.572790">
        <ele>975.952</ele>
        <time>2011-06-18T11:07:00Z</time>
      </trkpt>
      <trkpt lat="42.763940" lon="-2.572870">
        <ele>976.866</ele>
        <time>2011-06-18T11:06:50Z</time>
      </trkpt>
      <trkpt lat="42.764000" lon="-2.572960">
        <ele>977.319</ele>
        <time>2011-06-18T11:06:41Z</time>
      </trkpt>
      <trkpt lat="42.764050" lon="-2.573070">
        <ele>977.809</ele>
        <time>2011-06-18T11:06:32Z</time>
      </trkpt>
      <trkpt lat="42.764100" lon="-2.573190">
        <ele>977.819</ele>
        <time>2011-06-18T11:06:23Z</time>
      </trkpt>
      <trkpt lat="42.764150" lon="-2.573290">
        <ele>978.307</ele>
        <time>2011-06-18T11:06:15Z</time>
      </trkpt>
      <trkpt lat="42.764210" lon="-2.573390">
        <ele>978.833</ele>
        <time>2011-06-18T11:06:07Z</time>
      </trkpt>
      <trkpt lat="42.764280" lon="-2.573470">
        <ele>978.354</ele>
        <time>2011-06-18T11:05:59Z</time>
      </trkpt>
      <trkpt lat="42.764340" lon="-2.573580">
        <ele>977.844</ele>
        <time>2011-06-18T11:05:50Z</time>
      </trkpt>
      <trkpt lat="42.764360" lon="-2.573710">
        <ele>977.893</ele>
        <time>2011-06-18T11:05:41Z</time>
      </trkpt>
      <trkpt lat="42.764420" lon="-2.573810">
        <ele>977.358</ele>
        <time>2011-06-18T11:05:32Z</time>
      </trkpt>
      <trkpt lat="42.764500" lon="-2.573880">
        <ele>977.389</ele>
        <time>2011-06-18T11:05:24Z</time>
      </trkpt>
      <trkpt lat="42.764590" lon="-2.573950">
        <ele>975.953</ele>
        <time>2011-06-18T11:05:15Z</time>
      </trkpt>
      <trkpt lat="42.764670" lon="-2.574040">
        <ele>974.922</ele>
        <time>2011-06-18T11:05:04Z</time>
      </trkpt>
      <trkpt lat="42.764740" lon="-2.574100">
        <ele>973.562</ele>
        <time>2011-06-18T11:02:57Z</time>
      </trkpt>
      <trkpt lat="42.764780" lon="-2.574210">
        <ele>974.008</ele>
        <time>2011-06-18T11:02:48Z</time>
      </trkpt>
      <trkpt lat="42.764790" lon="-2.574330">
        <ele>974.907</ele>
        <time>2011-06-18T11:02:38Z</time>
      </trkpt>
      <trkpt lat="42.764770" lon="-2.574440">
        <ele>975.434</ele>
        <time>2011-06-18T11:02:27Z</time>
      </trkpt>
      <trkpt lat="42.764710" lon="-2.574540">
        <ele>975.415</ele>
        <time>2011-06-18T11:02:17Z</time>
      </trkpt>
      <trkpt lat="42.764650" lon="-2.574640">
        <ele>975.925</ele>
        <time>2011-06-18T11:02:07Z</time>
      </trkpt>
      <trkpt lat="42.764620" lon="-2.574760">
        <ele>976.434</ele>
        <time>2011-06-18T11:01:57Z</time>
      </trkpt>
      <trkpt lat="42.764600" lon="-2.574880">
        <ele>976.499</ele>
        <time>2011-06-18T11:01:41Z</time>
      </trkpt>
      <trkpt lat="42.764610" lon="-2.575000">
        <ele>976.820</ele>
        <time>2011-06-18T11:01:28Z</time>
      </trkpt>
      <trkpt lat="42.764610" lon="-2.575120">
        <ele>976.454</ele>
        <time>2011-06-18T11:01:18Z</time>
      </trkpt>
      <trkpt lat="42.764670" lon="-2.575170">
        <ele>977.872</ele>
        <time>2011-06-18T11:01:09Z</time>
      </trkpt>
      <trkpt lat="42.764680" lon="-2.575200">
        <ele>977.313</ele>
        <time>2011-06-18T11:00:50Z</time>
      </trkpt>
      <trkpt lat="42.764670" lon="-2.575300">
        <ele>976.814</ele>
        <time>2011-06-18T11:00:36Z</time>
      </trkpt>
      <trkpt lat="42.764740" lon="-2.575390">
        <ele>977.307</ele>
        <time>2011-06-18T11:00:25Z</time>
      </trkpt>
      <trkpt lat="42.764780" lon="-2.575510">
        <ele>977.339</ele>
        <time>2011-06-18T11:00:14Z</time>
      </trkpt>
      <trkpt lat="42.764780" lon="-2.575640">
        <ele>975.980</ele>
        <time>2011-06-18T11:00:04Z</time>
      </trkpt>
      <trkpt lat="42.764760" lon="-2.575760">
        <ele>974.470</ele>
        <time>2011-06-18T10:59:54Z</time>
      </trkpt>
      <trkpt lat="42.764770" lon="-2.575900">
        <ele>973.549</ele>
        <time>2011-06-18T10:59:41Z</time>
      </trkpt>
      <trkpt lat="42.764840" lon="-2.575950">
        <ele>974.474</ele>
        <time>2011-06-18T10:57:56Z</time>
      </trkpt>
      <trkpt lat="42.764830" lon="-2.575830">
        <ele>974.025</ele>
        <time>2011-06-18T10:56:23Z</time>
      </trkpt>
      <trkpt lat="42.764820" lon="-2.575870">
        <ele>973.069</ele>
        <time>2011-06-18T10:55:24Z</time>
      </trkpt>
      <trkpt lat="42.764820" lon="-2.575800">
        <ele>972.076</ele>
        <time>2011-06-18T10:54:43Z</time>
      </trkpt>
      <trkpt lat="42.764810" lon="-2.575820">
        <ele>972.590</ele>
        <time>2011-06-18T10:54:03Z</time>
      </trkpt>
      <trkpt lat="42.764850" lon="-2.575890">
        <ele>974.019</ele>
        <time>2011-06-18T10:53:30Z</time>
      </trkpt>
      <trkpt lat="42.764780" lon="-2.575810">
        <ele>972.507</ele>
        <time>2011-06-18T10:53:13Z</time>
      </trkpt>
      <trkpt lat="42.764760" lon="-2.575700">
        <ele>973.589</ele>
        <time>2011-06-18T10:53:05Z</time>
      </trkpt>
      <trkpt lat="42.764780" lon="-2.575570">
        <ele>974.970</ele>
        <time>2011-06-18T10:52:57Z</time>
      </trkpt>
      <trkpt lat="42.764790" lon="-2.575460">
        <ele>975.420</ele>
        <time>2011-06-18T10:52:41Z</time>
      </trkpt>
      <trkpt lat="42.764760" lon="-2.575430">
        <ele>975.469</ele>
        <time>2011-06-18T10:52:10Z</time>
      </trkpt>
      <trkpt lat="42.764710" lon="-2.575330">
        <ele>974.954</ele>
        <time>2011-06-18T10:52:01Z</time>
      </trkpt>
      <trkpt lat="42.764650" lon="-2.575230">
        <ele>974.015</ele>
        <time>2011-06-18T10:51:52Z</time>
      </trkpt>
      <trkpt lat="42.764630" lon="-2.575110">
        <ele>974.069</ele>
        <time>2011-06-18T10:51:44Z</time>
      </trkpt>
      <trkpt lat="42.764620" lon="-2.574970">
        <ele>973.598</ele>
        <time>2011-06-18T10:51:34Z</time>
      </trkpt>
      <trkpt lat="42.764610" lon="-2.574850">
        <ele>973.015</ele>
        <time>2011-06-18T10:51:23Z</time>
      </trkpt>
      <trkpt lat="42.764640" lon="-2.574720">
        <ele>972.026</ele>
        <time>2011-06-18T10:51:14Z</time>
      </trkpt>
      <trkpt lat="42.764650" lon="-2.574590">
        <ele>971.107</ele>
        <time>2011-06-18T10:51:05Z</time>
      </trkpt>
      <trkpt lat="42.764720" lon="-2.574500">
        <ele>972.011</ele>
        <time>2011-06-18T10:50:57Z</time>
      </trkpt>
      <trkpt lat="42.764770" lon="-2.574400">
        <ele>971.182</ele>
        <time>2011-06-18T10:50:49Z</time>
      </trkpt>
      <trkpt lat="42.764770" lon="-2.574250">
        <ele>969.692</ele>
        <time>2011-06-18T10:50:40Z</time>
      </trkpt>
      <trkpt lat="42.764740" lon="-2.574130">
        <ele>968.231</ele>
        <time>2011-06-18T10:50:27Z</time>
      </trkpt>
      <trkpt lat="42.764660" lon="-2.574140">
        <ele>968.246</ele>
        <time>2011-06-18T10:50:16Z</time>
      </trkpt>
      <trkpt lat="42.764600" lon="-2.574230">
        <ele>965.827</ele>
        <time>2011-06-18T10:50:06Z</time>
      </trkpt>
      <trkpt lat="42.764500" lon="-2.574290">
        <ele>961.991</ele>
        <time>2011-06-18T10:49:48Z</time>
      </trkpt>
      <trkpt lat="42.764420" lon="-2.574310">
        <ele>959.151</ele>
        <time>2011-06-18T10:49:32Z</time>
      </trkpt>
      <trkpt lat="42.764320" lon="-2.574330">
        <ele>955.701</ele>
        <time>2011-06-18T10:49:17Z</time>
      </trkpt>
      <trkpt lat="42.764230" lon="-2.574330">
        <ele>953.811</ele>
        <time>2011-06-18T10:49:05Z</time>
      </trkpt>
      <trkpt lat="42.764120" lon="-2.574360">
        <ele>949.007</ele>
        <time>2011-06-18T10:48:52Z</time>
      </trkpt>
      <trkpt lat="42.764070" lon="-2.574410">
        <ele>947.547</ele>
        <time>2011-06-18T10:46:38Z</time>
      </trkpt>
      <trkpt lat="42.764000" lon="-2.574490">
        <ele>946.128</ele>
        <time>2011-06-18T10:46:28Z</time>
      </trkpt>
      <trkpt lat="42.763940" lon="-2.574600">
        <ele>943.298</ele>
        <time>2011-06-18T10:46:17Z</time>
      </trkpt>
      <trkpt lat="42.763900" lon="-2.574720">
        <ele>941.337</ele>
        <time>2011-06-18T10:46:04Z</time>
      </trkpt>
      <trkpt lat="42.763870" lon="-2.574850">
        <ele>939.882</ele>
        <time>2011-06-18T10:45:52Z</time>
      </trkpt>
      <trkpt lat="42.763944" lon="-2.574993">
        <ele>937.023</ele>
        <time>2011-06-18T10:45:16Z</time>
      </trkpt>
      <trkpt lat="42.763954" lon="-2.575243">
        <ele>935.017</ele>
        <time>2011-06-18T10:45:03Z</time>
      </trkpt>
      <trkpt lat="42.763905" lon="-2.575366">
        <ele>932.131</ele>
        <time>2011-06-18T10:44:48Z</time>
      </trkpt>
      <trkpt lat="42.763685" lon="-2.575441">
        <ele>925.961</ele>
        <time>2011-06-18T10:44:08Z</time>
      </trkpt>
      <trkpt lat="42.763520" lon="-2.575440">
        <ele>924.507</ele>
        <time>2011-06-18T10:43:50Z</time>
      </trkpt>
      <trkpt lat="42.763400" lon="-2.575510">
        <ele>922.507</ele>
        <time>2011-06-18T10:43:39Z</time>
      </trkpt>
      <trkpt lat="42.763334" lon="-2.575663">
        <ele>921.675</ele>
        <time>2011-06-18T10:43:25Z</time>
      </trkpt>
      <trkpt lat="42.763241" lon="-2.575945">
        <ele>918.716</ele>
        <time>2011-06-18T10:43:00Z</time>
      </trkpt>
      <trkpt lat="42.763075" lon="-2.576264">
        <ele>912.016</ele>
        <time>2011-06-18T10:42:05Z</time>
      </trkpt>
      <trkpt lat="42.763026" lon="-2.576441">
        <ele>911.075</ele>
        <time>2011-06-18T10:41:53Z</time>
      </trkpt>
      <trkpt lat="42.762946" lon="-2.576668">
        <ele>908.190</ele>
        <time>2011-06-18T10:41:23Z</time>
      </trkpt>
      <trkpt lat="42.762938" lon="-2.576821">
        <ele>906.761</ele>
        <time>2011-06-18T10:41:09Z</time>
      </trkpt>
      <trkpt lat="42.762920" lon="-2.576920">
        <ele>904.355</ele>
        <time>2011-06-18T10:40:57Z</time>
      </trkpt>
      <trkpt lat="42.762903" lon="-2.577029">
        <ele>902.839</ele>
        <time>2011-06-18T10:40:41Z</time>
      </trkpt>
      <trkpt lat="42.762876" lon="-2.577176">
        <ele>899.501</ele>
        <time>2011-06-18T10:40:29Z</time>
      </trkpt>
      <trkpt lat="42.762854" lon="-2.577298">
        <ele>896.621</ele>
        <time>2011-06-18T10:40:14Z</time>
      </trkpt>
      <trkpt lat="42.762818" lon="-2.577420">
        <ele>893.207</ele>
        <time>2011-06-18T10:39:55Z</time>
      </trkpt>
      <trkpt lat="42.762805" lon="-2.577543">
        <ele>892.275</ele>
        <time>2011-06-18T10:39:42Z</time>
      </trkpt>
      <trkpt lat="42.762774" lon="-2.577684">
        <ele>889.886</ele>
        <time>2011-06-18T10:39:32Z</time>
      </trkpt>
      <trkpt lat="42.762757" lon="-2.577800">
        <ele>888.966</ele>
        <time>2011-06-18T10:39:22Z</time>
      </trkpt>
      <trkpt lat="42.762744" lon="-2.577922">
        <ele>887.975</ele>
        <time>2011-06-18T10:39:12Z</time>
      </trkpt>
      <trkpt lat="42.762717" lon="-2.578020">
        <ele>887.030</ele>
        <time>2011-06-18T10:39:01Z</time>
      </trkpt>
      <trkpt lat="42.762700" lon="-2.578173">
        <ele>884.681</ele>
        <time>2011-06-18T10:38:51Z</time>
      </trkpt>
      <trkpt lat="42.762682" lon="-2.578277">
        <ele>882.665</ele>
        <time>2011-06-18T10:38:37Z</time>
      </trkpt>
      <trkpt lat="42.762660" lon="-2.578405">
        <ele>881.224</ele>
        <time>2011-06-18T10:38:27Z</time>
      </trkpt>
      <trkpt lat="42.762625" lon="-2.578632">
        <ele>880.704</ele>
        <time>2011-06-18T10:38:06Z</time>
      </trkpt>
      <trkpt lat="42.762612" lon="-2.578742">
        <ele>880.214</ele>
        <time>2011-06-18T10:37:50Z</time>
      </trkpt>
      <trkpt lat="42.762612" lon="-2.578864">
        <ele>878.307</ele>
        <time>2011-06-18T10:37:31Z</time>
      </trkpt>
      <trkpt lat="42.762603" lon="-2.578968">
        <ele>877.814</ele>
        <time>2011-06-18T10:37:22Z</time>
      </trkpt>
      <trkpt lat="42.762568" lon="-2.579103">
        <ele>876.865</ele>
        <time>2011-06-18T10:37:11Z</time>
      </trkpt>
      <trkpt lat="42.762559" lon="-2.579200">
        <ele>874.995</ele>
        <time>2011-06-18T10:37:02Z</time>
      </trkpt>
      <trkpt lat="42.762546" lon="-2.579317">
        <ele>874.044</ele>
        <time>2011-06-18T10:36:52Z</time>
      </trkpt>
      <trkpt lat="42.762538" lon="-2.579433">
        <ele>872.569</ele>
        <time>2011-06-18T10:36:42Z</time>
      </trkpt>
      <trkpt lat="42.762534" lon="-2.579561">
        <ele>871.170</ele>
        <time>2011-06-18T10:36:34Z</time>
      </trkpt>
      <trkpt lat="42.762525" lon="-2.579671">
        <ele>870.634</ele>
        <time>2011-06-18T10:36:26Z</time>
      </trkpt>
      <trkpt lat="42.762534" lon="-2.579775">
        <ele>869.742</ele>
        <time>2011-06-18T10:36:19Z</time>
      </trkpt>
      <trkpt lat="42.762520" lon="-2.579910">
        <ele>869.222</ele>
        <time>2011-06-18T10:36:12Z</time>
      </trkpt>
      <trkpt lat="42.762520" lon="-2.580030">
        <ele>867.714</ele>
        <time>2011-06-18T10:36:01Z</time>
      </trkpt>
      <trkpt lat="42.762530" lon="-2.580160">
        <ele>866.807</ele>
        <time>2011-06-18T10:35:51Z</time>
      </trkpt>
      <trkpt lat="42.762510" lon="-2.580270">
        <ele>865.366</ele>
        <time>2011-06-18T10:35:42Z</time>
      </trkpt>
      <trkpt lat="42.762500" lon="-2.580400">
        <ele>864.827</ele>
        <time>2011-06-18T10:35:33Z</time>
      </trkpt>
      <trkpt lat="42.762500" lon="-2.580510">
        <ele>863.917</ele>
        <time>2011-06-18T10:35:24Z</time>
      </trkpt>
      <trkpt lat="42.762500" lon="-2.580640">
        <ele>862.996</ele>
        <time>2011-06-18T10:35:15Z</time>
      </trkpt>
      <trkpt lat="42.762520" lon="-2.580760">
        <ele>861.521</ele>
        <time>2011-06-18T10:35:06Z</time>
      </trkpt>
      <trkpt lat="42.762520" lon="-2.580870">
        <ele>861.082</ele>
        <time>2011-06-18T10:34:57Z</time>
      </trkpt>
      <trkpt lat="42.762510" lon="-2.580980">
        <ele>860.576</ele>
        <time>2011-06-18T10:34:49Z</time>
      </trkpt>
      <trkpt lat="42.762470" lon="-2.581090">
        <ele>859.196</ele>
        <time>2011-06-18T10:34:42Z</time>
      </trkpt>
      <trkpt lat="42.762450" lon="-2.581220">
        <ele>857.631</ele>
        <time>2011-06-18T10:34:32Z</time>
      </trkpt>
      <trkpt lat="42.762440" lon="-2.581350">
        <ele>857.224</ele>
        <time>2011-06-18T10:34:22Z</time>
      </trkpt>
      <trkpt lat="42.762430" lon="-2.581470">
        <ele>856.207</ele>
        <time>2011-06-18T10:34:12Z</time>
      </trkpt>
      <trkpt lat="42.762420" lon="-2.581590">
        <ele>854.851</ele>
        <time>2011-06-18T10:34:02Z</time>
      </trkpt>
      <trkpt lat="42.762420" lon="-2.581710">
        <ele>853.312</ele>
        <time>2011-06-18T10:33:51Z</time>
      </trkpt>
      <trkpt lat="42.762410" lon="-2.581840">
        <ele>851.962</ele>
        <time>2011-06-18T10:33:39Z</time>
      </trkpt>
      <trkpt lat="42.762390" lon="-2.581970">
        <ele>850.951</ele>
        <time>2011-06-18T10:33:27Z</time>
      </trkpt>
      <trkpt lat="42.762390" lon="-2.582090">
        <ele>849.086</ele>
        <time>2011-06-18T10:33:15Z</time>
      </trkpt>
      <trkpt lat="42.762390" lon="-2.582210">
        <ele>847.197</ele>
        <time>2011-06-18T10:33:03Z</time>
      </trkpt>
      <trkpt lat="42.762390" lon="-2.582340">
        <ele>844.211</ele>
        <time>2011-06-18T10:32:51Z</time>
      </trkpt>
      <trkpt lat="42.762400" lon="-2.582460">
        <ele>843.214</ele>
        <time>2011-06-18T10:32:40Z</time>
      </trkpt>
      <trkpt lat="42.762380" lon="-2.582590">
        <ele>841.854</ele>
        <time>2011-06-18T10:32:30Z</time>
      </trkpt>
      <trkpt lat="42.762370" lon="-2.582710">
        <ele>839.409</ele>
        <time>2011-06-18T10:32:20Z</time>
      </trkpt>
      <trkpt lat="42.762350" lon="-2.582830">
        <ele>837.907</ele>
        <time>2011-06-18T10:32:11Z</time>
      </trkpt>
      <trkpt lat="42.762310" lon="-2.582950">
        <ele>837.043</ele>
        <time>2011-06-18T10:32:01Z</time>
      </trkpt>
      <trkpt lat="42.762260" lon="-2.583070">
        <ele>835.534</ele>
        <time>2011-06-18T10:31:51Z</time>
      </trkpt>
      <trkpt lat="42.762220" lon="-2.583180">
        <ele>834.114</ele>
        <time>2011-06-18T10:31:39Z</time>
      </trkpt>
      <trkpt lat="42.762180" lon="-2.583290">
        <ele>833.193</ele>
        <time>2011-06-18T10:31:27Z</time>
      </trkpt>
      <trkpt lat="42.762120" lon="-2.583400">
        <ele>831.298</ele>
        <time>2011-06-18T10:31:14Z</time>
      </trkpt>
      <trkpt lat="42.762080" lon="-2.583520">
        <ele>829.359</ele>
        <time>2011-06-18T10:31:00Z</time>
      </trkpt>
      <trkpt lat="42.762050" lon="-2.583630">
        <ele>825.953</ele>
        <time>2011-06-18T10:30:45Z</time>
      </trkpt>
      <trkpt lat="42.762020" lon="-2.583740">
        <ele>823.535</ele>
        <time>2011-06-18T10:30:32Z</time>
      </trkpt>
      <trkpt lat="42.761990" lon="-2.583870">
        <ele>822.186</ele>
        <time>2011-06-18T10:30:20Z</time>
      </trkpt>
      <trkpt lat="42.761950" lon="-2.583980">
        <ele>820.614</ele>
        <time>2011-06-18T10:30:09Z</time>
      </trkpt>
      <trkpt lat="42.761900" lon="-2.584090">
        <ele>820.607</ele>
        <time>2011-06-18T10:29:58Z</time>
      </trkpt>
      <trkpt lat="42.761840" lon="-2.584190">
        <ele>818.725</ele>
        <time>2011-06-18T10:29:49Z</time>
      </trkpt>
      <trkpt lat="42.761770" lon="-2.584300">
        <ele>816.826</ele>
        <time>2011-06-18T10:29:39Z</time>
      </trkpt>
      <trkpt lat="42.761720" lon="-2.584400">
        <ele>816.346</ele>
        <time>2011-06-18T10:29:29Z</time>
      </trkpt>
      <trkpt lat="42.761660" lon="-2.584490">
        <ele>814.425</ele>
        <time>2011-06-18T10:29:19Z</time>
      </trkpt>
      <trkpt lat="42.761600" lon="-2.584580">
        <ele>812.990</ele>
        <time>2011-06-18T10:29:09Z</time>
      </trkpt>
      <trkpt lat="42.761520" lon="-2.584670">
        <ele>811.581</ele>
        <time>2011-06-18T10:28:59Z</time>
      </trkpt>
      <trkpt lat="42.761450" lon="-2.584770">
        <ele>809.665</ele>
        <time>2011-06-18T10:28:49Z</time>
      </trkpt>
      <trkpt lat="42.761390" lon="-2.584860">
        <ele>808.669</ele>
        <time>2011-06-18T10:28:39Z</time>
      </trkpt>
      <trkpt lat="42.761330" lon="-2.584960">
        <ele>808.604</ele>
        <time>2011-06-18T10:28:30Z</time>
      </trkpt>
      <trkpt lat="42.761270" lon="-2.585060">
        <ele>807.224</ele>
        <time>2011-06-18T10:28:20Z</time>
      </trkpt>
      <trkpt lat="42.761210" lon="-2.585160">
        <ele>806.707</ele>
        <time>2011-06-18T10:28:10Z</time>
      </trkpt>
      <trkpt lat="42.761150" lon="-2.585240">
        <ele>806.268</ele>
        <time>2011-06-18T10:27:59Z</time>
      </trkpt>
      <trkpt lat="42.761080" lon="-2.585320">
        <ele>804.899</ele>
        <time>2011-06-18T10:27:49Z</time>
      </trkpt>
      <trkpt lat="42.761010" lon="-2.585400">
        <ele>802.889</ele>
        <time>2011-06-18T10:27:38Z</time>
      </trkpt>
      <trkpt lat="42.760930" lon="-2.585480">
        <ele>801.498</ele>
        <time>2011-06-18T10:27:28Z</time>
      </trkpt>
      <trkpt lat="42.760860" lon="-2.585560">
        <ele>799.973</ele>
        <time>2011-06-18T10:27:18Z</time>
      </trkpt>
      <trkpt lat="42.760790" lon="-2.585650">
        <ele>797.584</ele>
        <time>2011-06-18T10:27:08Z</time>
      </trkpt>
      <trkpt lat="42.760730" lon="-2.585740">
        <ele>796.118</ele>
        <time>2011-06-18T10:26:58Z</time>
      </trkpt>
      <trkpt lat="42.760660" lon="-2.585830">
        <ele>795.287</ele>
        <time>2011-06-18T10:26:48Z</time>
      </trkpt>
      <trkpt lat="42.760600" lon="-2.585930">
        <ele>790.842</ele>
        <time>2011-06-18T10:26:37Z</time>
      </trkpt>
      <trkpt lat="42.760540" lon="-2.586030">
        <ele>790.326</ele>
        <time>2011-06-18T10:26:26Z</time>
      </trkpt>
      <trkpt lat="42.760520" lon="-2.586150">
        <ele>787.507</ele>
        <time>2011-06-18T10:26:13Z</time>
      </trkpt>
      <trkpt lat="42.760581" lon="-2.586211">
        <ele>784.620</ele>
        <time>2011-06-18T10:26:00Z</time>
      </trkpt>
      <trkpt lat="42.760658" lon="-2.586265">
        <ele>782.261</ele>
        <time>2011-06-18T10:25:49Z</time>
      </trkpt>
      <trkpt lat="42.760739" lon="-2.586326">
        <ele>781.221</ele>
        <time>2011-06-18T10:25:38Z</time>
      </trkpt>
      <trkpt lat="42.760829" lon="-2.586362">
        <ele>780.370</ele>
        <time>2011-06-18T10:25:27Z</time>
      </trkpt>
      <trkpt lat="42.760920" lon="-2.586392">
        <ele>778.835</ele>
        <time>2011-06-18T10:25:16Z</time>
      </trkpt>
      <trkpt lat="42.761001" lon="-2.586434">
        <ele>778.356</ele>
        <time>2011-06-18T10:25:06Z</time>
      </trkpt>
      <trkpt lat="42.761091" lon="-2.586482">
        <ele>775.420</ele>
        <time>2011-06-18T10:24:54Z</time>
      </trkpt>
      <trkpt lat="42.761181" lon="-2.586555">
        <ele>774.013</ele>
        <time>2011-06-18T10:24:42Z</time>
      </trkpt>
      <trkpt lat="42.761272" lon="-2.586603">
        <ele>773.043</ele>
        <time>2011-06-18T10:24:32Z</time>
      </trkpt>
      <trkpt lat="42.761362" lon="-2.586633">
        <ele>772.507</ele>
        <time>2011-06-18T10:24:24Z</time>
      </trkpt>
      <trkpt lat="42.761461" lon="-2.586645">
        <ele>771.607</ele>
        <time>2011-06-18T10:24:16Z</time>
      </trkpt>
      <trkpt lat="42.761542" lon="-2.586644">
        <ele>769.753</ele>
        <time>2011-06-18T10:24:08Z</time>
      </trkpt>
      <trkpt lat="42.761641" lon="-2.586643">
        <ele>769.274</ele>
        <time>2011-06-18T10:23:59Z</time>
      </trkpt>
      <trkpt lat="42.761740" lon="-2.586655">
        <ele>768.744</ele>
        <time>2011-06-18T10:23:50Z</time>
      </trkpt>
      <trkpt lat="42.761830" lon="-2.586642">
        <ele>769.253</ele>
        <time>2011-06-18T10:23:41Z</time>
      </trkpt>
      <trkpt lat="42.761938" lon="-2.586623">
        <ele>766.838</ele>
        <time>2011-06-18T10:23:30Z</time>
      </trkpt>
      <trkpt lat="42.762461" lon="-2.588013">
        <ele>804.332</ele>
        <time>2011-08-06T10:04:06Z</time>
      </trkpt>
      <trkpt lat="42.762487" lon="-2.587811">
        <ele>792.892</ele>
        <time>2011-08-06T10:05:02Z</time>
      </trkpt>
      <trkpt lat="42.762520" lon="-2.587630">
        <ele>790.311</ele>
        <time>2011-08-06T10:06:14Z</time>
      </trkpt>
      <trkpt lat="42.762620" lon="-2.587650">
        <ele>792.307</ele>
        <time>2011-08-06T10:06:25Z</time>
      </trkpt>
      <trkpt lat="42.762710" lon="-2.587700">
        <ele>793.235</ele>
        <time>2011-08-06T10:07:00Z</time>
      </trkpt>
      <trkpt lat="42.762820" lon="-2.587720">
        <ele>793.796</ele>
        <time>2011-08-06T10:07:09Z</time>
      </trkpt>
      <trkpt lat="42.762920" lon="-2.587740">
        <ele>794.217</ele>
        <time>2011-08-06T10:07:18Z</time>
      </trkpt>
      <trkpt lat="42.763020" lon="-2.587760">
        <ele>795.241</ele>
        <time>2011-08-06T10:07:28Z</time>
      </trkpt>
      <trkpt lat="42.763120" lon="-2.587770">
        <ele>797.184</ele>
        <time>2011-08-06T10:07:39Z</time>
      </trkpt>
      <trkpt lat="42.763220" lon="-2.587780">
        <ele>799.015</ele>
        <time>2011-08-06T10:07:48Z</time>
      </trkpt>
      <trkpt lat="42.763310" lon="-2.587810">
        <ele>800.414</ele>
        <time>2011-08-06T10:07:59Z</time>
      </trkpt>
      <trkpt lat="42.763400" lon="-2.587820">
        <ele>803.314</ele>
        <time>2011-08-06T10:08:08Z</time>
      </trkpt>
      <trkpt lat="42.763490" lon="-2.587850">
        <ele>803.854</ele>
        <time>2011-08-06T10:08:17Z</time>
      </trkpt>
      <trkpt lat="42.763580" lon="-2.587870">
        <ele>805.309</ele>
        <time>2011-08-06T10:08:29Z</time>
      </trkpt>
      <trkpt lat="42.763670" lon="-2.587900">
        <ele>807.207</ele>
        <time>2011-08-06T10:08:41Z</time>
      </trkpt>
      <trkpt lat="42.763760" lon="-2.587930">
        <ele>807.213</ele>
        <time>2011-08-06T10:08:51Z</time>
      </trkpt>
      <trkpt lat="42.763840" lon="-2.587970">
        <ele>808.174</ele>
        <time>2011-08-06T10:09:00Z</time>
      </trkpt>
      <trkpt lat="42.763930" lon="-2.588010">
        <ele>811.035</ele>
        <time>2011-08-06T10:09:11Z</time>
      </trkpt>
      <trkpt lat="42.764020" lon="-2.588050">
        <ele>812.089</ele>
        <time>2011-08-06T10:09:22Z</time>
      </trkpt>
      <trkpt lat="42.764110" lon="-2.588100">
        <ele>812.942</ele>
        <time>2011-08-06T10:09:34Z</time>
      </trkpt>
      <trkpt lat="42.764190" lon="-2.588160">
        <ele>815.863</ele>
        <time>2011-08-06T10:09:45Z</time>
      </trkpt>
      <trkpt lat="42.764280" lon="-2.588220">
        <ele>818.222</ele>
        <time>2011-08-06T10:09:56Z</time>
      </trkpt>
      <trkpt lat="42.764360" lon="-2.588280">
        <ele>819.797</ele>
        <time>2011-08-06T10:10:07Z</time>
      </trkpt>
      <trkpt lat="42.764430" lon="-2.588370">
        <ele>821.123</ele>
        <time>2011-08-06T10:10:18Z</time>
      </trkpt>
      <trkpt lat="42.764480" lon="-2.588470">
        <ele>822.525</ele>
        <time>2011-08-06T10:10:28Z</time>
      </trkpt>
      <trkpt lat="42.764550" lon="-2.588520">
        <ele>824.507</ele>
        <time>2011-08-06T10:10:57Z</time>
      </trkpt>
      <trkpt lat="42.764630" lon="-2.588580">
        <ele>825.921</ele>
        <time>2011-08-06T10:11:07Z</time>
      </trkpt>
      <trkpt lat="42.764720" lon="-2.588640">
        <ele>828.812</ele>
        <time>2011-08-06T10:11:19Z</time>
      </trkpt>
      <trkpt lat="42.764800" lon="-2.588710">
        <ele>830.293</ele>
        <time>2011-08-06T10:11:31Z</time>
      </trkpt>
      <trkpt lat="42.764880" lon="-2.588780">
        <ele>832.717</ele>
        <time>2011-08-06T10:11:43Z</time>
      </trkpt>
      <trkpt lat="42.764940" lon="-2.588870">
        <ele>834.170</ele>
        <time>2011-08-06T10:11:54Z</time>
      </trkpt>
      <trkpt lat="42.765000" lon="-2.588960">
        <ele>835.521</ele>
        <time>2011-08-06T10:12:05Z</time>
      </trkpt>
      <trkpt lat="42.765070" lon="-2.589050">
        <ele>837.470</ele>
        <time>2011-08-06T10:12:16Z</time>
      </trkpt>
      <trkpt lat="42.765130" lon="-2.589140">
        <ele>837.474</ele>
        <time>2011-08-06T10:12:27Z</time>
      </trkpt>
      <trkpt lat="42.765210" lon="-2.589210">
        <ele>839.456</ele>
        <time>2011-08-06T10:12:40Z</time>
      </trkpt>
      <trkpt lat="42.765290" lon="-2.589270">
        <ele>841.821</ele>
        <time>2011-08-06T10:12:53Z</time>
      </trkpt>
      <trkpt lat="42.765380" lon="-2.589320">
        <ele>842.707</ele>
        <time>2011-08-06T10:13:05Z</time>
      </trkpt>
      <trkpt lat="42.765460" lon="-2.589380">
        <ele>845.679</ele>
        <time>2011-08-06T10:13:17Z</time>
      </trkpt>
      <trkpt lat="42.765560" lon="-2.589410">
        <ele>846.190</ele>
        <time>2011-08-06T10:13:30Z</time>
      </trkpt>
      <trkpt lat="42.765650" lon="-2.589440">
        <ele>849.031</ele>
        <time>2011-08-06T10:13:41Z</time>
      </trkpt>
      <trkpt lat="42.765730" lon="-2.589510">
        <ele>850.425</ele>
        <time>2011-08-06T10:13:52Z</time>
      </trkpt>
      <trkpt lat="42.765810" lon="-2.589580">
        <ele>852.378</ele>
        <time>2011-08-06T10:14:02Z</time>
      </trkpt>
      <trkpt lat="42.765880" lon="-2.589660">
        <ele>852.399</ele>
        <time>2011-08-06T10:14:12Z</time>
      </trkpt>
      <trkpt lat="42.765950" lon="-2.589740">
        <ele>853.368</ele>
        <time>2011-08-06T10:14:22Z</time>
      </trkpt>
      <trkpt lat="42.766010" lon="-2.589840">
        <ele>854.877</ele>
        <time>2011-08-06T10:14:32Z</time>
      </trkpt>
      <trkpt lat="42.766070" lon="-2.589940">
        <ele>858.161</ele>
        <time>2011-08-06T10:14:42Z</time>
      </trkpt>
      <trkpt lat="42.766130" lon="-2.590050">
        <ele>858.127</ele>
        <time>2011-08-06T10:14:52Z</time>
      </trkpt>
      <trkpt lat="42.766190" lon="-2.590140">
        <ele>859.107</ele>
        <time>2011-08-06T10:15:02Z</time>
      </trkpt>
      <trkpt lat="42.766270" lon="-2.590230">
        <ele>859.619</ele>
        <time>2011-08-06T10:15:13Z</time>
      </trkpt>
      <trkpt lat="42.766340" lon="-2.590310">
        <ele>861.540</ele>
        <time>2011-08-06T10:15:23Z</time>
      </trkpt>
      <trkpt lat="42.766420" lon="-2.590360">
        <ele>863.951</ele>
        <time>2011-08-06T10:15:34Z</time>
      </trkpt>
      <trkpt lat="42.766510" lon="-2.590420">
        <ele>864.815</ele>
        <time>2011-08-06T10:15:45Z</time>
      </trkpt>
      <trkpt lat="42.766570" lon="-2.590500">
        <ele>866.358</ele>
        <time>2011-08-06T10:15:55Z</time>
      </trkpt>
      <trkpt lat="42.766650" lon="-2.590580">
        <ele>867.769</ele>
        <time>2011-08-06T10:16:05Z</time>
      </trkpt>
      <trkpt lat="42.766720" lon="-2.590670">
        <ele>869.218</ele>
        <time>2011-08-06T10:16:15Z</time>
      </trkpt>
      <trkpt lat="42.766790" lon="-2.590760">
        <ele>870.159</ele>
        <time>2011-08-06T10:16:25Z</time>
      </trkpt>
      <trkpt lat="42.766850" lon="-2.590850">
        <ele>872.503</ele>
        <time>2011-08-06T10:16:34Z</time>
      </trkpt>
      <trkpt lat="42.766910" lon="-2.590950">
        <ele>872.523</ele>
        <time>2011-08-06T10:16:44Z</time>
      </trkpt>
      <trkpt lat="42.766970" lon="-2.591050">
        <ele>873.007</ele>
        <time>2011-08-06T10:16:54Z</time>
      </trkpt>
      <trkpt lat="42.767040" lon="-2.591140">
        <ele>874.587</ele>
        <time>2011-08-06T10:17:04Z</time>
      </trkpt>
      <trkpt lat="42.767120" lon="-2.591210">
        <ele>874.948</ele>
        <time>2011-08-06T10:17:14Z</time>
      </trkpt>
      <trkpt lat="42.767180" lon="-2.591300">
        <ele>877.339</ele>
        <time>2011-08-06T10:17:24Z</time>
      </trkpt>
      <trkpt lat="42.767230" lon="-2.591400">
        <ele>878.323</ele>
        <time>2011-08-06T10:17:33Z</time>
      </trkpt>
      <trkpt lat="42.767280" lon="-2.591500">
        <ele>878.346</ele>
        <time>2011-08-06T10:17:44Z</time>
      </trkpt>
      <trkpt lat="42.767330" lon="-2.591610">
        <ele>877.347</ele>
        <time>2011-08-06T10:17:55Z</time>
      </trkpt>
      <trkpt lat="42.767370" lon="-2.591720">
        <ele>880.246</ele>
        <time>2011-08-06T10:18:06Z</time>
      </trkpt>
      <trkpt lat="42.767420" lon="-2.591840">
        <ele>880.213</ele>
        <time>2011-08-06T10:18:17Z</time>
      </trkpt>
      <trkpt lat="42.767470" lon="-2.591940">
        <ele>881.243</ele>
        <time>2011-08-06T10:18:27Z</time>
      </trkpt>
      <trkpt lat="42.767510" lon="-2.592060">
        <ele>883.107</ele>
        <time>2011-08-06T10:18:37Z</time>
      </trkpt>
      <trkpt lat="42.767550" lon="-2.592180">
        <ele>883.607</ele>
        <time>2011-08-06T10:18:48Z</time>
      </trkpt>
      <trkpt lat="42.767580" lon="-2.592300">
        <ele>884.163</ele>
        <time>2011-08-06T10:18:58Z</time>
      </trkpt>
      <trkpt lat="42.767590" lon="-2.592430">
        <ele>884.644</ele>
        <time>2011-08-06T10:19:07Z</time>
      </trkpt>
      <trkpt lat="42.767620" lon="-2.592560">
        <ele>885.565</ele>
        <time>2011-08-06T10:19:16Z</time>
      </trkpt>
      <trkpt lat="42.767630" lon="-2.592680">
        <ele>885.589</ele>
        <time>2011-08-06T10:19:25Z</time>
      </trkpt>
      <trkpt lat="42.767640" lon="-2.592810">
        <ele>887.092</ele>
        <time>2011-08-06T10:19:35Z</time>
      </trkpt>
      <trkpt lat="42.767650" lon="-2.592930">
        <ele>887.083</ele>
        <time>2011-08-06T10:19:44Z</time>
      </trkpt>
      <trkpt lat="42.767650" lon="-2.593060">
        <ele>887.072</ele>
        <time>2011-08-06T10:19:53Z</time>
      </trkpt>
      <trkpt lat="42.767660" lon="-2.593190">
        <ele>887.017</ele>
        <time>2011-08-06T10:20:02Z</time>
      </trkpt>
      <trkpt lat="42.767640" lon="-2.593310">
        <ele>887.987</ele>
        <time>2011-08-06T10:20:12Z</time>
      </trkpt>
      <trkpt lat="42.767600" lon="-2.593430">
        <ele>890.315</ele>
        <time>2011-08-06T10:20:22Z</time>
      </trkpt>
      <trkpt lat="42.767590" lon="-2.593530">
        <ele>891.307</ele>
        <time>2011-08-06T10:20:45Z</time>
      </trkpt>
      <trkpt lat="42.767550" lon="-2.593640">
        <ele>892.753</ele>
        <time>2011-08-06T10:20:58Z</time>
      </trkpt>
      <trkpt lat="42.767510" lon="-2.593750">
        <ele>894.234</ele>
        <time>2011-08-06T10:21:09Z</time>
      </trkpt>
      <trkpt lat="42.767480" lon="-2.593870">
        <ele>894.295</ele>
        <time>2011-08-06T10:21:21Z</time>
      </trkpt>
      <trkpt lat="42.767480" lon="-2.593970">
        <ele>893.219</ele>
        <time>2011-08-06T10:22:09Z</time>
      </trkpt>
      <trkpt lat="42.767470" lon="-2.594110">
        <ele>895.192</ele>
        <time>2011-08-06T10:22:18Z</time>
      </trkpt>
      <trkpt lat="42.767470" lon="-2.594250">
        <ele>895.133</ele>
        <time>2011-08-06T10:22:27Z</time>
      </trkpt>
      <trkpt lat="42.767460" lon="-2.594380">
        <ele>896.132</ele>
        <time>2011-08-06T10:22:35Z</time>
      </trkpt>
      <trkpt lat="42.767450" lon="-2.594500">
        <ele>897.183</ele>
        <time>2011-08-06T10:22:43Z</time>
      </trkpt>
      <trkpt lat="42.767460" lon="-2.594640">
        <ele>897.525</ele>
        <time>2011-08-06T10:22:52Z</time>
      </trkpt>
      <trkpt lat="42.767460" lon="-2.594770">
        <ele>899.517</ele>
        <time>2011-08-06T10:23:02Z</time>
      </trkpt>
      <trkpt lat="42.767460" lon="-2.594890">
        <ele>901.807</ele>
        <time>2011-08-06T10:23:11Z</time>
      </trkpt>
      <trkpt lat="42.767470" lon="-2.595020">
        <ele>901.870</ele>
        <time>2011-08-06T10:23:20Z</time>
      </trkpt>
      <trkpt lat="42.767470" lon="-2.595150">
        <ele>902.891</ele>
        <time>2011-08-06T10:23:31Z</time>
      </trkpt>
      <trkpt lat="42.767490" lon="-2.595280">
        <ele>902.812</ele>
        <time>2011-08-06T10:23:42Z</time>
      </trkpt>
      <trkpt lat="42.767480" lon="-2.595410">
        <ele>903.896</ele>
        <time>2011-08-06T10:23:52Z</time>
      </trkpt>
      <trkpt lat="42.767490" lon="-2.595540">
        <ele>904.359</ele>
        <time>2011-08-06T10:24:02Z</time>
      </trkpt>
      <trkpt lat="42.767490" lon="-2.595670">
        <ele>905.250</ele>
        <time>2011-08-06T10:24:12Z</time>
      </trkpt>
      <trkpt lat="42.767490" lon="-2.595800">
        <ele>906.729</ele>
        <time>2011-08-06T10:24:22Z</time>
      </trkpt>
      <trkpt lat="42.767500" lon="-2.595930">
        <ele>907.168</ele>
        <time>2011-08-06T10:24:31Z</time>
      </trkpt>
      <trkpt lat="42.767490" lon="-2.596050">
        <ele>907.142</ele>
        <time>2011-08-06T10:24:40Z</time>
      </trkpt>
      <trkpt lat="42.767490" lon="-2.596180">
        <ele>908.126</ele>
        <time>2011-08-06T10:24:49Z</time>
      </trkpt>
      <trkpt lat="42.767490" lon="-2.596310">
        <ele>907.607</ele>
        <time>2011-08-06T10:24:58Z</time>
      </trkpt>
      <trkpt lat="42.767490" lon="-2.596430">
        <ele>908.128</ele>
        <time>2011-08-06T10:25:07Z</time>
      </trkpt>
      <trkpt lat="42.767500" lon="-2.596570">
        <ele>907.679</ele>
        <time>2011-08-06T10:25:16Z</time>
      </trkpt>
      <trkpt lat="42.767510" lon="-2.596690">
        <ele>907.680</ele>
        <time>2011-08-06T10:25:26Z</time>
      </trkpt>
      <trkpt lat="42.767550" lon="-2.596800">
        <ele>906.714</ele>
        <time>2011-08-06T10:25:36Z</time>
      </trkpt>
      <trkpt lat="42.767630" lon="-2.596880">
        <ele>905.247</ele>
        <time>2011-08-06T10:25:45Z</time>
      </trkpt>
      <trkpt lat="42.767730" lon="-2.596940">
        <ele>905.758</ele>
        <time>2011-08-06T10:25:55Z</time>
      </trkpt>
      <trkpt lat="42.767820" lon="-2.597000">
        <ele>906.287</ele>
        <time>2011-08-06T10:26:05Z</time>
      </trkpt>
      <trkpt lat="42.767900" lon="-2.597060">
        <ele>907.658</ele>
        <time>2011-08-06T10:26:14Z</time>
      </trkpt>
      <trkpt lat="42.767990" lon="-2.597120">
        <ele>907.652</ele>
        <time>2011-08-06T10:26:24Z</time>
      </trkpt>
      <trkpt lat="42.768070" lon="-2.597190">
        <ele>909.617</ele>
        <time>2011-08-06T10:26:35Z</time>
      </trkpt>
      <trkpt lat="42.768120" lon="-2.597290">
        <ele>911.007</ele>
        <time>2011-08-06T10:26:45Z</time>
      </trkpt>
      <trkpt lat="42.768130" lon="-2.597420">
        <ele>910.517</ele>
        <time>2011-08-06T10:26:55Z</time>
      </trkpt>
      <trkpt lat="42.768130" lon="-2.597550">
        <ele>910.538</ele>
        <time>2011-08-06T10:27:04Z</time>
      </trkpt>
      <trkpt lat="42.768150" lon="-2.597670">
        <ele>910.549</ele>
        <time>2011-08-06T10:27:14Z</time>
      </trkpt>
      <trkpt lat="42.768200" lon="-2.597770">
        <ele>912.033</ele>
        <time>2011-08-06T10:27:23Z</time>
      </trkpt>
      <trkpt lat="42.768280" lon="-2.597840">
        <ele>912.926</ele>
        <time>2011-08-06T10:27:34Z</time>
      </trkpt>
      <trkpt lat="42.768370" lon="-2.597900">
        <ele>912.927</ele>
        <time>2011-08-06T10:27:45Z</time>
      </trkpt>
      <trkpt lat="42.768450" lon="-2.597960">
        <ele>913.466</ele>
        <time>2011-08-06T10:27:54Z</time>
      </trkpt>
      <trkpt lat="42.768540" lon="-2.598000">
        <ele>915.349</ele>
        <time>2011-08-06T10:28:03Z</time>
      </trkpt>
      <trkpt lat="42.768620" lon="-2.598070">
        <ele>915.802</ele>
        <time>2011-08-06T10:28:12Z</time>
      </trkpt>
      <trkpt lat="42.768700" lon="-2.598140">
        <ele>916.722</ele>
        <time>2011-08-06T10:28:22Z</time>
      </trkpt>
      <trkpt lat="42.768770" lon="-2.598230">
        <ele>916.307</ele>
        <time>2011-08-06T10:28:31Z</time>
      </trkpt>
      <trkpt lat="42.768830" lon="-2.598310">
        <ele>914.326</ele>
        <time>2011-08-06T10:28:41Z</time>
      </trkpt>
      <trkpt lat="42.768910" lon="-2.598410">
        <ele>913.457</ele>
        <time>2011-08-06T10:28:51Z</time>
      </trkpt>
      <trkpt lat="42.768990" lon="-2.598480">
        <ele>913.448</ele>
        <time>2011-08-06T10:29:00Z</time>
      </trkpt>
      <trkpt lat="42.769070" lon="-2.598500">
        <ele>915.892</ele>
        <time>2011-08-06T10:29:11Z</time>
      </trkpt>
      <trkpt lat="42.769180" lon="-2.598470">
        <ele>915.385</ele>
        <time>2011-08-06T10:29:21Z</time>
      </trkpt>
      <trkpt lat="42.769280" lon="-2.598410">
        <ele>916.766</ele>
        <time>2011-08-06T10:29:32Z</time>
      </trkpt>
      <trkpt lat="42.769360" lon="-2.598300">
        <ele>917.265</ele>
        <time>2011-08-06T10:29:43Z</time>
      </trkpt>
      <trkpt lat="42.769400" lon="-2.598160">
        <ele>919.654</ele>
        <time>2011-08-06T10:29:55Z</time>
      </trkpt>
      <trkpt lat="42.769460" lon="-2.598030">
        <ele>920.656</ele>
        <time>2011-08-06T10:30:08Z</time>
      </trkpt>
      <trkpt lat="42.769510" lon="-2.597900">
        <ele>922.111</ele>
        <time>2011-08-06T10:30:20Z</time>
      </trkpt>
      <trkpt lat="42.769560" lon="-2.597780">
        <ele>923.007</ele>
        <time>2011-08-06T10:30:32Z</time>
      </trkpt>
      <trkpt lat="42.769610" lon="-2.597670">
        <ele>924.087</ele>
        <time>2011-08-06T10:30:43Z</time>
      </trkpt>
      <trkpt lat="42.769690" lon="-2.597600">
        <ele>924.998</ele>
        <time>2011-08-06T10:30:55Z</time>
      </trkpt>
      <trkpt lat="42.769770" lon="-2.597630">
        <ele>926.429</ele>
        <time>2011-08-06T10:31:07Z</time>
      </trkpt>
      <trkpt lat="42.769840" lon="-2.597700">
        <ele>928.373</ele>
        <time>2011-08-06T10:31:19Z</time>
      </trkpt>
      <trkpt lat="42.769890" lon="-2.597800">
        <ele>928.896</ele>
        <time>2011-08-06T10:31:32Z</time>
      </trkpt>
      <trkpt lat="42.769950" lon="-2.597880">
        <ele>929.767</ele>
        <time>2011-08-06T10:31:45Z</time>
      </trkpt>
      <trkpt lat="42.770030" lon="-2.597950">
        <ele>931.256</ele>
        <time>2011-08-06T10:31:57Z</time>
      </trkpt>
      <trkpt lat="42.770090" lon="-2.598040">
        <ele>932.679</ele>
        <time>2011-08-06T10:32:09Z</time>
      </trkpt>
      <trkpt lat="42.770170" lon="-2.598110">
        <ele>934.105</ele>
        <time>2011-08-06T10:32:22Z</time>
      </trkpt>
      <trkpt lat="42.770240" lon="-2.598190">
        <ele>935.025</ele>
        <time>2011-08-06T10:32:35Z</time>
      </trkpt>
      <trkpt lat="42.770320" lon="-2.598260">
        <ele>937.407</ele>
        <time>2011-08-06T10:32:48Z</time>
      </trkpt>
      <trkpt lat="42.770400" lon="-2.598330">
        <ele>939.319</ele>
        <time>2011-08-06T10:33:00Z</time>
      </trkpt>
      <trkpt lat="42.770470" lon="-2.598420">
        <ele>938.910</ele>
        <time>2011-08-06T10:33:11Z</time>
      </trkpt>
      <trkpt lat="42.770540" lon="-2.598510">
        <ele>940.861</ele>
        <time>2011-08-06T10:33:22Z</time>
      </trkpt>
      <trkpt lat="42.770600" lon="-2.598600">
        <ele>943.295</ele>
        <time>2011-08-06T10:33:33Z</time>
      </trkpt>
      <trkpt lat="42.770700" lon="-2.598800">
        <ele>945.198</ele>
        <time>2011-08-06T10:33:54Z</time>
      </trkpt>
      <trkpt lat="42.770720" lon="-2.598910">
        <ele>946.649</ele>
        <time>2011-08-06T10:34:04Z</time>
      </trkpt>
      <trkpt lat="42.770750" lon="-2.599030">
        <ele>948.028</ele>
        <time>2011-08-06T10:34:14Z</time>
      </trkpt>
      <trkpt lat="42.770780" lon="-2.599140">
        <ele>949.047</ele>
        <time>2011-08-06T10:34:25Z</time>
      </trkpt>
      <trkpt lat="42.770850" lon="-2.599240">
        <ele>949.529</ele>
        <time>2011-08-06T10:34:36Z</time>
      </trkpt>
      <trkpt lat="42.770930" lon="-2.599300">
        <ele>951.821</ele>
        <time>2011-08-06T10:34:48Z</time>
      </trkpt>
      <trkpt lat="42.771020" lon="-2.599360">
        <ele>954.707</ele>
        <time>2011-08-06T10:35:00Z</time>
      </trkpt>
      <trkpt lat="42.771100" lon="-2.599420">
        <ele>955.736</ele>
        <time>2011-08-06T10:35:12Z</time>
      </trkpt>
      <trkpt lat="42.771190" lon="-2.599480">
        <ele>958.157</ele>
        <time>2011-08-06T10:35:24Z</time>
      </trkpt>
      <trkpt lat="42.771270" lon="-2.599550">
        <ele>959.518</ele>
        <time>2011-08-06T10:35:36Z</time>
      </trkpt>
      <trkpt lat="42.771340" lon="-2.599620">
        <ele>961.062</ele>
        <time>2011-08-06T10:35:49Z</time>
      </trkpt>
      <trkpt lat="42.771420" lon="-2.599690">
        <ele>963.465</ele>
        <time>2011-08-06T10:36:01Z</time>
      </trkpt>
      <trkpt lat="42.771460" lon="-2.599800">
        <ele>964.356</ele>
        <time>2011-08-06T10:36:13Z</time>
      </trkpt>
      <trkpt lat="42.771490" lon="-2.599910">
        <ele>966.315</ele>
        <time>2011-08-06T10:36:26Z</time>
      </trkpt>
      <trkpt lat="42.771470" lon="-2.600040">
        <ele>966.759</ele>
        <time>2011-08-06T10:36:37Z</time>
      </trkpt>
      <trkpt lat="42.771430" lon="-2.600140">
        <ele>966.303</ele>
        <time>2011-08-06T10:36:46Z</time>
      </trkpt>
      <trkpt lat="42.771360" lon="-2.600240">
        <ele>965.823</ele>
        <time>2011-08-06T10:36:56Z</time>
      </trkpt>
      <trkpt lat="42.771280" lon="-2.600310">
        <ele>965.807</ele>
        <time>2011-08-06T10:37:06Z</time>
      </trkpt>
      <trkpt lat="42.771190" lon="-2.600370">
        <ele>966.337</ele>
        <time>2011-08-06T10:37:17Z</time>
      </trkpt>
      <trkpt lat="42.771105" lon="-2.600491">
        <ele>967.258</ele>
        <time>2011-08-06T10:37:29Z</time>
      </trkpt>
      <trkpt lat="42.771038" lon="-2.600705">
        <ele>971.179</ele>
        <time>2011-08-06T10:38:47Z</time>
      </trkpt>
      <trkpt lat="42.771061" lon="-2.600833">
        <ele>974.993</ele>
        <time>2011-08-06T10:39:04Z</time>
      </trkpt>
      <trkpt lat="42.771100" lon="-2.600970">
        <ele>976.426</ele>
        <time>2011-08-06T10:39:17Z</time>
      </trkpt>
      <trkpt lat="42.771090" lon="-2.601090">
        <ele>978.857</ele>
        <time>2011-08-06T10:39:31Z</time>
      </trkpt>
      <trkpt lat="42.771030" lon="-2.601150">
        <ele>979.756</ele>
        <time>2011-08-06T10:39:47Z</time>
      </trkpt>
      <trkpt lat="42.770940" lon="-2.601180">
        <ele>979.713</ele>
        <time>2011-08-06T10:39:57Z</time>
      </trkpt>
      <trkpt lat="42.770870" lon="-2.601250">
        <ele>980.243</ele>
        <time>2011-08-06T10:40:06Z</time>
      </trkpt>
      <trkpt lat="42.770860" lon="-2.601370">
        <ele>981.607</ele>
        <time>2011-08-06T10:40:17Z</time>
      </trkpt>
      <trkpt lat="42.770790" lon="-2.601450">
        <ele>984.507</ele>
        <time>2011-08-06T10:40:30Z</time>
      </trkpt>
      <trkpt lat="42.770810" lon="-2.601560">
        <ele>986.913</ele>
        <time>2011-08-06T10:40:46Z</time>
      </trkpt>
      <trkpt lat="42.770760" lon="-2.601580">
        <ele>991.324</ele>
        <time>2011-08-06T10:41:01Z</time>
      </trkpt>
      <trkpt lat="42.770760" lon="-2.601670">
        <ele>993.685</ele>
        <time>2011-08-06T10:41:28Z</time>
      </trkpt>
      <trkpt lat="42.770820" lon="-2.601750">
        <ele>995.149</ele>
        <time>2011-08-06T10:41:41Z</time>
      </trkpt>
      <trkpt lat="42.770754" lon="-2.601825">
        <ele>998.092</ele>
        <time>2011-08-06T10:41:58Z</time>
      </trkpt>
      <trkpt lat="42.770740" lon="-2.601910">
        <ele>1000.443</ele>
        <time>2011-08-06T10:42:11Z</time>
      </trkpt>
      <trkpt lat="42.770670" lon="-2.602010">
        <ele>1003.812</ele>
        <time>2011-08-06T10:42:32Z</time>
      </trkpt>
      <trkpt lat="42.770650" lon="-2.602130">
        <ele>1006.638</ele>
        <time>2011-08-06T10:42:51Z</time>
      </trkpt>
      <trkpt lat="42.770630" lon="-2.602230">
        <ele>1009.070</ele>
        <time>2011-08-06T10:43:09Z</time>
      </trkpt>
      <trkpt lat="42.770590" lon="-2.602340">
        <ele>1011.417</ele>
        <time>2011-08-06T10:43:31Z</time>
      </trkpt>
      <trkpt lat="42.770510" lon="-2.602410">
        <ele>1014.807</ele>
        <time>2011-08-06T10:43:50Z</time>
      </trkpt>
      <trkpt lat="42.770450" lon="-2.602500">
        <ele>1015.895</ele>
        <time>2011-08-06T10:44:05Z</time>
      </trkpt>
      <trkpt lat="42.770350" lon="-2.602550">
        <ele>1018.296</ele>
        <time>2011-08-06T10:44:24Z</time>
      </trkpt>
      <trkpt lat="42.770270" lon="-2.602600">
        <ele>1021.057</ele>
        <time>2011-08-06T10:44:39Z</time>
      </trkpt>
      <trkpt lat="42.770200" lon="-2.602680">
        <ele>1021.081</ele>
        <time>2011-08-06T10:44:48Z</time>
      </trkpt>
      <trkpt lat="42.770140" lon="-2.602750">
        <ele>1023.584</ele>
        <time>2011-08-06T10:45:01Z</time>
      </trkpt>
      <trkpt lat="42.770060" lon="-2.602780">
        <ele>1025.935</ele>
        <time>2011-08-06T10:45:12Z</time>
      </trkpt>
      <trkpt lat="42.769980" lon="-2.602840">
        <ele>1026.884</ele>
        <time>2011-08-06T10:45:23Z</time>
      </trkpt>
      <trkpt lat="42.769920" lon="-2.602930">
        <ele>1027.874</ele>
        <time>2011-08-06T10:45:35Z</time>
      </trkpt>
      <trkpt lat="42.769830" lon="-2.602970">
        <ele>1029.256</ele>
        <time>2011-08-06T10:45:48Z</time>
      </trkpt>
      <trkpt lat="42.769720" lon="-2.602960">
        <ele>1030.721</ele>
        <time>2011-08-06T10:45:59Z</time>
      </trkpt>
      <trkpt lat="42.769620" lon="-2.602960">
        <ele>1032.607</ele>
        <time>2011-08-06T10:46:10Z</time>
      </trkpt>
      <trkpt lat="42.769540" lon="-2.602930">
        <ele>1033.559</ele>
        <time>2011-08-06T10:46:23Z</time>
      </trkpt>
      <trkpt lat="42.769450" lon="-2.602940">
        <ele>1036.440</ele>
        <time>2011-08-06T10:46:38Z</time>
      </trkpt>
      <trkpt lat="42.769370" lon="-2.602910">
        <ele>1035.591</ele>
        <time>2011-08-06T10:46:48Z</time>
      </trkpt>
      <trkpt lat="42.769290" lon="-2.602960">
        <ele>1036.015</ele>
        <time>2011-08-06T10:46:58Z</time>
      </trkpt>
      <trkpt lat="42.769200" lon="-2.602970">
        <ele>1036.958</ele>
        <time>2011-08-06T10:47:08Z</time>
      </trkpt>
      <trkpt lat="42.769110" lon="-2.602960">
        <ele>1038.879</ele>
        <time>2011-08-06T10:47:19Z</time>
      </trkpt>
      <trkpt lat="42.769010" lon="-2.602950">
        <ele>1039.328</ele>
        <time>2011-08-06T10:47:30Z</time>
      </trkpt>
      <trkpt lat="42.768920" lon="-2.602980">
        <ele>1039.386</ele>
        <time>2011-08-06T10:47:39Z</time>
      </trkpt>
      <trkpt lat="42.768830" lon="-2.602990">
        <ele>1041.360</ele>
        <time>2011-08-06T10:47:49Z</time>
      </trkpt>
      <trkpt lat="42.768740" lon="-2.602980">
        <ele>1043.226</ele>
        <time>2011-08-06T10:48:00Z</time>
      </trkpt>
      <trkpt lat="42.768740" lon="-2.602970">
        <ele>1044.607</ele>
        <time>2011-08-06T10:49:42Z</time>
      </trkpt>
      <trkpt lat="42.768740" lon="-2.603050">
        <ele>1044.190</ele>
        <time>2011-08-06T10:53:13Z</time>
      </trkpt>
      <trkpt lat="42.768800" lon="-2.603140">
        <ele>1041.351</ele>
        <time>2011-08-06T10:53:25Z</time>
      </trkpt>
      <trkpt lat="42.768850" lon="-2.603240">
        <ele>1039.322</ele>
        <time>2011-08-06T10:53:34Z</time>
      </trkpt>
      <trkpt lat="42.768890" lon="-2.603350">
        <ele>1036.476</ele>
        <time>2011-08-06T10:53:45Z</time>
      </trkpt>
      <trkpt lat="42.768950" lon="-2.603440">
        <ele>1033.599</ele>
        <time>2011-08-06T10:53:57Z</time>
      </trkpt>
      <trkpt lat="42.769010" lon="-2.603530">
        <ele>1031.630</ele>
        <time>2011-08-06T10:54:08Z</time>
      </trkpt>
      <trkpt lat="42.769080" lon="-2.603590">
        <ele>1030.759</ele>
        <time>2011-08-06T10:54:17Z</time>
      </trkpt>
      <trkpt lat="42.769160" lon="-2.603760">
        <ele>1025.973</ele>
        <time>2011-08-06T10:54:56Z</time>
      </trkpt>
      <trkpt lat="42.769325" lon="-2.603863">
        <ele>1023.985</ele>
        <time>2011-08-06T10:55:09Z</time>
      </trkpt>
      <trkpt lat="42.769524" lon="-2.604113">
        <ele>1019.613</ele>
        <time>2011-08-06T10:55:49Z</time>
      </trkpt>
      <trkpt lat="42.769580" lon="-2.604320">
        <ele>1018.607</ele>
        <time>2011-08-06T10:55:58Z</time>
      </trkpt>
      <trkpt lat="42.769640" lon="-2.604460">
        <ele>1018.699</ele>
        <time>2011-08-06T10:56:07Z</time>
      </trkpt>
      <trkpt lat="42.769710" lon="-2.604600">
        <ele>1015.870</ele>
        <time>2011-08-06T10:56:16Z</time>
      </trkpt>
      <trkpt lat="42.769760" lon="-2.604720">
        <ele>1016.381</ele>
        <time>2011-08-06T10:56:24Z</time>
      </trkpt>
      <trkpt lat="42.769820" lon="-2.604840">
        <ele>1013.995</ele>
        <time>2011-08-06T10:56:32Z</time>
      </trkpt>
      <trkpt lat="42.769850" lon="-2.604970">
        <ele>1014.338</ele>
        <time>2011-08-06T10:56:42Z</time>
      </trkpt>
      <trkpt lat="42.769900" lon="-2.605100">
        <ele>1012.499</ele>
        <time>2011-08-06T10:56:51Z</time>
      </trkpt>
      <trkpt lat="42.769920" lon="-2.605230">
        <ele>1013.998</ele>
        <time>2011-08-06T10:57:01Z</time>
      </trkpt>
      <trkpt lat="42.769960" lon="-2.605340">
        <ele>1015.878</ele>
        <time>2011-08-06T10:57:10Z</time>
      </trkpt>
      <trkpt lat="42.770000" lon="-2.605470">
        <ele>1014.333</ele>
        <time>2011-08-06T10:57:18Z</time>
      </trkpt>
      <trkpt lat="42.770030" lon="-2.605600">
        <ele>1014.326</ele>
        <time>2011-08-06T10:57:26Z</time>
      </trkpt>
      <trkpt lat="42.770050" lon="-2.605730">
        <ele>1014.807</ele>
        <time>2011-08-06T10:57:34Z</time>
      </trkpt>
      <trkpt lat="42.770070" lon="-2.605860">
        <ele>1014.339</ele>
        <time>2011-08-06T10:57:42Z</time>
      </trkpt>
      <trkpt lat="42.770100" lon="-2.605990">
        <ele>1013.470</ele>
        <time>2011-08-06T10:57:50Z</time>
      </trkpt>
      <trkpt lat="42.770150" lon="-2.606100">
        <ele>1013.411</ele>
        <time>2011-08-06T10:57:58Z</time>
      </trkpt>
      <trkpt lat="42.770190" lon="-2.606220">
        <ele>1013.955</ele>
        <time>2011-08-06T10:58:06Z</time>
      </trkpt>
      <trkpt lat="42.770230" lon="-2.606330">
        <ele>1013.478</ele>
        <time>2011-08-06T10:58:14Z</time>
      </trkpt>
      <trkpt lat="42.770270" lon="-2.606440">
        <ele>1013.999</ele>
        <time>2011-08-06T10:58:22Z</time>
      </trkpt>
      <trkpt lat="42.770310" lon="-2.606570">
        <ele>1015.838</ele>
        <time>2011-08-06T10:58:31Z</time>
      </trkpt>
      <trkpt lat="42.770350" lon="-2.606690">
        <ele>1016.316</ele>
        <time>2011-08-06T10:58:40Z</time>
      </trkpt>
      <trkpt lat="42.770390" lon="-2.606800">
        <ele>1017.276</ele>
        <time>2011-08-06T10:58:48Z</time>
      </trkpt>
      <trkpt lat="42.770440" lon="-2.606920">
        <ele>1017.213</ele>
        <time>2011-08-06T10:58:56Z</time>
      </trkpt>
      <trkpt lat="42.770480" lon="-2.607020">
        <ele>1018.607</ele>
        <time>2011-08-06T10:59:04Z</time>
      </trkpt>
      <trkpt lat="42.770500" lon="-2.607150">
        <ele>1019.613</ele>
        <time>2011-08-06T10:59:13Z</time>
      </trkpt>
      <trkpt lat="42.770510" lon="-2.607290">
        <ele>1019.154</ele>
        <time>2011-08-06T10:59:22Z</time>
      </trkpt>
      <trkpt lat="42.770530" lon="-2.607410">
        <ele>1019.185</ele>
        <time>2011-08-06T10:59:30Z</time>
      </trkpt>
      <trkpt lat="42.770560" lon="-2.607540">
        <ele>1019.689</ele>
        <time>2011-08-06T10:59:39Z</time>
      </trkpt>
      <trkpt lat="42.770590" lon="-2.607670">
        <ele>1020.622</ele>
        <time>2011-08-06T10:59:48Z</time>
      </trkpt>
      <trkpt lat="42.770600" lon="-2.607800">
        <ele>1021.043</ele>
        <time>2011-08-06T10:59:57Z</time>
      </trkpt>
      <trkpt lat="42.770600" lon="-2.607930">
        <ele>1022.532</ele>
        <time>2011-08-06T11:00:05Z</time>
      </trkpt>
      <trkpt lat="42.770620" lon="-2.608060">
        <ele>1022.565</ele>
        <time>2011-08-06T11:00:14Z</time>
      </trkpt>
      <trkpt lat="42.770590" lon="-2.608180">
        <ele>1023.568</ele>
        <time>2011-08-06T11:00:22Z</time>
      </trkpt>
      <trkpt lat="42.770580" lon="-2.608300">
        <ele>1023.514</ele>
        <time>2011-08-06T11:00:30Z</time>
      </trkpt>
      <trkpt lat="42.770580" lon="-2.608440">
        <ele>1023.907</ele>
        <time>2011-08-06T11:00:39Z</time>
      </trkpt>
      <trkpt lat="42.770600" lon="-2.608570">
        <ele>1022.088</ele>
        <time>2011-08-06T11:00:48Z</time>
      </trkpt>
      <trkpt lat="42.770610" lon="-2.608700">
        <ele>1019.629</ele>
        <time>2011-08-06T11:00:57Z</time>
      </trkpt>
      <trkpt lat="42.770590" lon="-2.608830">
        <ele>1016.760</ele>
        <time>2011-08-06T11:01:05Z</time>
      </trkpt>
      <trkpt lat="42.770580" lon="-2.608950">
        <ele>1015.874</ele>
        <time>2011-08-06T11:01:12Z</time>
      </trkpt>
      <trkpt lat="42.770580" lon="-2.609090">
        <ele>1016.337</ele>
        <time>2011-08-06T11:01:20Z</time>
      </trkpt>
      <trkpt lat="42.770560" lon="-2.609220">
        <ele>1015.378</ele>
        <time>2011-08-06T11:01:28Z</time>
      </trkpt>
      <trkpt lat="42.770540" lon="-2.609350">
        <ele>1013.947</ele>
        <time>2011-08-06T11:01:36Z</time>
      </trkpt>
      <trkpt lat="42.770490" lon="-2.609460">
        <ele>1012.466</ele>
        <time>2011-08-06T11:01:44Z</time>
      </trkpt>
      <trkpt lat="42.770440" lon="-2.609570">
        <ele>1009.529</ele>
        <time>2011-08-06T11:01:52Z</time>
      </trkpt>
      <trkpt lat="42.770370" lon="-2.609670">
        <ele>1008.121</ele>
        <time>2011-08-06T11:02:00Z</time>
      </trkpt>
      <trkpt lat="42.770300" lon="-2.609780">
        <ele>1006.607</ele>
        <time>2011-08-06T11:02:08Z</time>
      </trkpt>
      <trkpt lat="42.770240" lon="-2.609880">
        <ele>1006.118</ele>
        <time>2011-08-06T11:02:16Z</time>
      </trkpt>
      <trkpt lat="42.770190" lon="-2.609980">
        <ele>1004.769</ele>
        <time>2011-08-06T11:02:24Z</time>
      </trkpt>
      <trkpt lat="42.770130" lon="-2.610080">
        <ele>1001.830</ele>
        <time>2011-08-06T11:02:32Z</time>
      </trkpt>
      <trkpt lat="42.770060" lon="-2.610170">
        <ele>1000.944</ele>
        <time>2011-08-06T11:02:40Z</time>
      </trkpt>
      <trkpt lat="42.770000" lon="-2.610270">
        <ele>1000.437</ele>
        <time>2011-08-06T11:02:48Z</time>
      </trkpt>
      <trkpt lat="42.769930" lon="-2.610380">
        <ele>999.918</ele>
        <time>2011-08-06T11:02:56Z</time>
      </trkpt>
      <trkpt lat="42.769880" lon="-2.610490">
        <ele>998.557</ele>
        <time>2011-08-06T11:03:04Z</time>
      </trkpt>
      <trkpt lat="42.769820" lon="-2.610580">
        <ele>996.142</ele>
        <time>2011-08-06T11:03:12Z</time>
      </trkpt>
      <trkpt lat="42.769740" lon="-2.610680">
        <ele>996.122</ele>
        <time>2011-08-06T11:03:20Z</time>
      </trkpt>
      <trkpt lat="42.769660" lon="-2.610770">
        <ele>995.114</ele>
        <time>2011-08-06T11:03:28Z</time>
      </trkpt>
      <trkpt lat="42.769570" lon="-2.610860">
        <ele>994.607</ele>
        <time>2011-08-06T11:03:36Z</time>
      </trkpt>
      <trkpt lat="42.769520" lon="-2.610970">
        <ele>995.196</ele>
        <time>2011-08-06T11:03:44Z</time>
      </trkpt>
      <trkpt lat="42.769470" lon="-2.611070">
        <ele>995.647</ele>
        <time>2011-08-06T11:03:52Z</time>
      </trkpt>
      <trkpt lat="42.769430" lon="-2.611180">
        <ele>995.688</ele>
        <time>2011-08-06T11:04:00Z</time>
      </trkpt>
      <trkpt lat="42.769360" lon="-2.611270">
        <ele>997.052</ele>
        <time>2011-08-06T11:04:08Z</time>
      </trkpt>
      <trkpt lat="42.769300" lon="-2.611350">
        <ele>997.035</ele>
        <time>2011-08-06T11:04:16Z</time>
      </trkpt>
      <trkpt lat="42.769240" lon="-2.611450">
        <ele>999.096</ele>
        <time>2011-08-06T11:04:25Z</time>
      </trkpt>
      <trkpt lat="42.769180" lon="-2.611540">
        <ele>1000.915</ele>
        <time>2011-08-06T11:04:35Z</time>
      </trkpt>
      <trkpt lat="42.769110" lon="-2.611620">
        <ele>1003.363</ele>
        <time>2011-08-06T11:04:47Z</time>
      </trkpt>
      <trkpt lat="42.769040" lon="-2.611700">
        <ele>1004.744</ele>
        <time>2011-08-06T11:05:00Z</time>
      </trkpt>
      <trkpt lat="42.768970" lon="-2.611790">
        <ele>1009.518</ele>
        <time>2011-08-06T11:05:14Z</time>
      </trkpt>
      <trkpt lat="42.768910" lon="-2.611870">
        <ele>1011.907</ele>
        <time>2011-08-06T11:05:27Z</time>
      </trkpt>
      <trkpt lat="42.768860" lon="-2.611980">
        <ele>1014.368</ele>
        <time>2011-08-06T11:05:39Z</time>
      </trkpt>
      <trkpt lat="42.768850" lon="-2.612100">
        <ele>1013.969</ele>
        <time>2011-08-06T11:05:50Z</time>
      </trkpt>
      <trkpt lat="42.768830" lon="-2.612230">
        <ele>1017.730</ele>
        <time>2011-08-06T11:06:02Z</time>
      </trkpt>
      <trkpt lat="42.768810" lon="-2.612350">
        <ele>1018.224</ele>
        <time>2011-08-06T11:06:12Z</time>
      </trkpt>
      <trkpt lat="42.768790" lon="-2.612470">
        <ele>1018.217</ele>
        <time>2011-08-06T11:06:21Z</time>
      </trkpt>
      <trkpt lat="42.768770" lon="-2.612590">
        <ele>1019.648</ele>
        <time>2011-08-06T11:06:30Z</time>
      </trkpt>
      <trkpt lat="42.768740" lon="-2.612710">
        <ele>1020.117</ele>
        <time>2011-08-06T11:06:39Z</time>
      </trkpt>
      <trkpt lat="42.768710" lon="-2.612840">
        <ele>1020.663</ele>
        <time>2011-08-06T11:06:48Z</time>
      </trkpt>
      <trkpt lat="42.768680" lon="-2.612970">
        <ele>1020.644</ele>
        <time>2011-08-06T11:06:57Z</time>
      </trkpt>
      <trkpt lat="42.768650" lon="-2.613080">
        <ele>1020.618</ele>
        <time>2011-08-06T11:07:05Z</time>
      </trkpt>
      <trkpt lat="42.768600" lon="-2.613190">
        <ele>1021.507</ele>
        <time>2011-08-06T11:07:13Z</time>
      </trkpt>
      <trkpt lat="42.768560" lon="-2.613300">
        <ele>1022.038</ele>
        <time>2011-08-06T11:07:21Z</time>
      </trkpt>
      <trkpt lat="42.768530" lon="-2.613420">
        <ele>1023.079</ele>
        <time>2011-08-06T11:07:29Z</time>
      </trkpt>
      <trkpt lat="42.768500" lon="-2.613550">
        <ele>1025.450</ele>
        <time>2011-08-06T11:07:38Z</time>
      </trkpt>
      <trkpt lat="42.768470" lon="-2.613670">
        <ele>1025.464</ele>
        <time>2011-08-06T11:07:46Z</time>
      </trkpt>
      <trkpt lat="42.768440" lon="-2.613780">
        <ele>1025.937</ele>
        <time>2011-08-06T11:07:55Z</time>
      </trkpt>
      <trkpt lat="42.768380" lon="-2.613880">
        <ele>1026.468</ele>
        <time>2011-08-06T11:08:03Z</time>
      </trkpt>
      <trkpt lat="42.768340" lon="-2.613990">
        <ele>1026.487</ele>
        <time>2011-08-06T11:08:11Z</time>
      </trkpt>
      <trkpt lat="42.768320" lon="-2.614130">
        <ele>1026.872</ele>
        <time>2011-08-06T11:08:20Z</time>
      </trkpt>
      <trkpt lat="42.768290" lon="-2.614240">
        <ele>1026.813</ele>
        <time>2011-08-06T11:08:28Z</time>
      </trkpt>
      <trkpt lat="42.768260" lon="-2.614360">
        <ele>1028.814</ele>
        <time>2011-08-06T11:08:36Z</time>
      </trkpt>
      <trkpt lat="42.768240" lon="-2.614480">
        <ele>1029.207</ele>
        <time>2011-08-06T11:08:47Z</time>
      </trkpt>
      <trkpt lat="42.768250" lon="-2.614560">
        <ele>1030.299</ele>
        <time>2011-08-06T11:08:59Z</time>
      </trkpt>
      <trkpt lat="42.768290" lon="-2.614490">
        <ele>1031.150</ele>
        <time>2011-08-06T11:09:43Z</time>
      </trkpt>
      <trkpt lat="42.768270" lon="-2.614510">
        <ele>1030.281</ele>
        <time>2011-08-06T11:12:24Z</time>
      </trkpt>
      <trkpt lat="42.768240" lon="-2.614580">
        <ele>1030.725</ele>
        <time>2011-08-06T11:15:42Z</time>
      </trkpt>
      <trkpt lat="42.768220" lon="-2.614690">
        <ele>1026.898</ele>
        <time>2011-08-06T11:15:52Z</time>
      </trkpt>
      <trkpt lat="42.768160" lon="-2.614790">
        <ele>1023.989</ele>
        <time>2011-08-06T11:16:05Z</time>
      </trkpt>
      <trkpt lat="42.768110" lon="-2.614900">
        <ele>1022.028</ele>
        <time>2011-08-06T11:16:18Z</time>
      </trkpt>
      <trkpt lat="42.768040" lon="-2.615060">
        <ele>1021.035</ele>
        <time>2011-08-06T11:16:41Z</time>
      </trkpt>
      <trkpt lat="42.767980" lon="-2.615160">
        <ele>1019.186</ele>
        <time>2011-08-06T11:16:54Z</time>
      </trkpt>
      <trkpt lat="42.767950" lon="-2.615270">
        <ele>1019.114</ele>
        <time>2011-08-06T11:17:03Z</time>
      </trkpt>
      <trkpt lat="42.767960" lon="-2.615400">
        <ele>1017.207</ele>
        <time>2011-08-06T11:17:12Z</time>
      </trkpt>
      <trkpt lat="42.767980" lon="-2.615520">
        <ele>1016.755</ele>
        <time>2011-08-06T11:17:21Z</time>
      </trkpt>
      <trkpt lat="42.768010" lon="-2.615640">
        <ele>1016.396</ele>
        <time>2011-08-06T11:17:30Z</time>
      </trkpt>
      <trkpt lat="42.768040" lon="-2.615760">
        <ele>1013.467</ele>
        <time>2011-08-06T11:17:39Z</time>
      </trkpt>
      <trkpt lat="42.768060" lon="-2.615880">
        <ele>1011.431</ele>
        <time>2011-08-06T11:17:47Z</time>
      </trkpt>
      <trkpt lat="42.768090" lon="-2.616000">
        <ele>1009.094</ele>
        <time>2011-08-06T11:17:55Z</time>
      </trkpt>
      <trkpt lat="42.768120" lon="-2.616110">
        <ele>1008.675</ele>
        <time>2011-08-06T11:18:03Z</time>
      </trkpt>
      <trkpt lat="42.768160" lon="-2.616230">
        <ele>1006.684</ele>
        <time>2011-08-06T11:18:11Z</time>
      </trkpt>
      <trkpt lat="42.768190" lon="-2.616350">
        <ele>1004.723</ele>
        <time>2011-08-06T11:18:19Z</time>
      </trkpt>
      <trkpt lat="42.768220" lon="-2.616470">
        <ele>1002.883</ele>
        <time>2011-08-06T11:18:26Z</time>
      </trkpt>
      <trkpt lat="42.768260" lon="-2.616590">
        <ele>1000.411</ele>
        <time>2011-08-06T11:18:34Z</time>
      </trkpt>
      <trkpt lat="42.768300" lon="-2.616720">
        <ele>999.007</ele>
        <time>2011-08-06T11:18:42Z</time>
      </trkpt>
      <trkpt lat="42.768340" lon="-2.616830">
        <ele>997.584</ele>
        <time>2011-08-06T11:18:49Z</time>
      </trkpt>
      <trkpt lat="42.768370" lon="-2.616960">
        <ele>996.535</ele>
        <time>2011-08-06T11:18:57Z</time>
      </trkpt>
      <trkpt lat="42.768400" lon="-2.617090">
        <ele>996.566</ele>
        <time>2011-08-06T11:19:05Z</time>
      </trkpt>
      <trkpt lat="42.768420" lon="-2.617220">
        <ele>996.190</ele>
        <time>2011-08-06T11:19:13Z</time>
      </trkpt>
      <trkpt lat="42.768450" lon="-2.617350">
        <ele>994.123</ele>
        <time>2011-08-06T11:19:21Z</time>
      </trkpt>
      <trkpt lat="42.768480" lon="-2.617470">
        <ele>991.344</ele>
        <time>2011-08-06T11:19:29Z</time>
      </trkpt>
      <trkpt lat="42.768510" lon="-2.617600">
        <ele>988.913</ele>
        <time>2011-08-06T11:19:37Z</time>
      </trkpt>
      <trkpt lat="42.768550" lon="-2.617710">
        <ele>988.952</ele>
        <time>2011-08-06T11:19:44Z</time>
      </trkpt>
      <trkpt lat="42.768600" lon="-2.617820">
        <ele>988.453</ele>
        <time>2011-08-06T11:19:52Z</time>
      </trkpt>
      <trkpt lat="42.768650" lon="-2.617950">
        <ele>987.908</ele>
        <time>2011-08-06T11:20:00Z</time>
      </trkpt>
      <trkpt lat="42.768690" lon="-2.618050">
        <ele>986.907</ele>
        <time>2011-08-06T11:20:07Z</time>
      </trkpt>
      <trkpt lat="42.768740" lon="-2.618170">
        <ele>986.037</ele>
        <time>2011-08-06T11:20:15Z</time>
      </trkpt>
      <trkpt lat="42.768790" lon="-2.618290">
        <ele>985.568</ele>
        <time>2011-08-06T11:20:23Z</time>
      </trkpt>
      <trkpt lat="42.768830" lon="-2.618420">
        <ele>984.569</ele>
        <time>2011-08-06T11:20:31Z</time>
      </trkpt>
      <trkpt lat="42.768820" lon="-2.618550">
        <ele>983.143</ele>
        <time>2011-08-06T11:20:39Z</time>
      </trkpt>
      <trkpt lat="42.768810" lon="-2.618680">
        <ele>981.616</ele>
        <time>2011-08-06T11:20:47Z</time>
      </trkpt>
      <trkpt lat="42.768770" lon="-2.618790">
        <ele>979.277</ele>
        <time>2011-08-06T11:20:55Z</time>
      </trkpt>
      <trkpt lat="42.768730" lon="-2.618910">
        <ele>978.896</ele>
        <time>2011-08-06T11:21:03Z</time>
      </trkpt>
      <trkpt lat="42.768690" lon="-2.619020">
        <ele>978.369</ele>
        <time>2011-08-06T11:21:10Z</time>
      </trkpt>
      <trkpt lat="42.768650" lon="-2.619130">
        <ele>977.304</ele>
        <time>2011-08-06T11:21:17Z</time>
      </trkpt>
      <trkpt lat="42.768600" lon="-2.619250">
        <ele>977.324</ele>
        <time>2011-08-06T11:21:25Z</time>
      </trkpt>
      <trkpt lat="42.768560" lon="-2.619360">
        <ele>977.307</ele>
        <time>2011-08-06T11:21:33Z</time>
      </trkpt>
      <trkpt lat="42.768500" lon="-2.619450">
        <ele>977.358</ele>
        <time>2011-08-06T11:21:41Z</time>
      </trkpt>
      <trkpt lat="42.768430" lon="-2.619550">
        <ele>978.349</ele>
        <time>2011-08-06T11:21:49Z</time>
      </trkpt>
      <trkpt lat="42.768370" lon="-2.619650">
        <ele>978.370</ele>
        <time>2011-08-06T11:21:57Z</time>
      </trkpt>
      <trkpt lat="42.768310" lon="-2.619750">
        <ele>977.354</ele>
        <time>2011-08-06T11:22:05Z</time>
      </trkpt>
      <trkpt lat="42.768260" lon="-2.619870">
        <ele>978.377</ele>
        <time>2011-08-06T11:22:13Z</time>
      </trkpt>
      <trkpt lat="42.768240" lon="-2.619980">
        <ele>978.888</ele>
        <time>2011-08-06T11:22:21Z</time>
      </trkpt>
      <trkpt lat="42.768250" lon="-2.620110">
        <ele>980.767</ele>
        <time>2011-08-06T11:22:30Z</time>
      </trkpt>
      <trkpt lat="42.768250" lon="-2.620240">
        <ele>980.756</ele>
        <time>2011-08-06T11:22:40Z</time>
      </trkpt>
      <trkpt lat="42.768270" lon="-2.620370">
        <ele>979.759</ele>
        <time>2011-08-06T11:22:51Z</time>
      </trkpt>
      <trkpt lat="42.768320" lon="-2.620470">
        <ele>977.314</ele>
        <time>2011-08-06T11:23:02Z</time>
      </trkpt>
      <trkpt lat="42.768400" lon="-2.620700">
        <ele>972.507</ele>
        <time>2011-08-06T11:23:27Z</time>
      </trkpt>
      <trkpt lat="42.768460" lon="-2.620820">
        <ele>970.127</ele>
        <time>2011-08-06T11:23:37Z</time>
      </trkpt>
      <trkpt lat="42.768530" lon="-2.620920">
        <ele>968.288</ele>
        <time>2011-08-06T11:23:47Z</time>
      </trkpt>
      <trkpt lat="42.768600" lon="-2.621020">
        <ele>966.359</ele>
        <time>2011-08-06T11:23:57Z</time>
      </trkpt>
      <trkpt lat="42.768660" lon="-2.621130">
        <ele>963.493</ele>
        <time>2011-08-06T11:24:08Z</time>
      </trkpt>
      <trkpt lat="42.768721" lon="-2.621230">
        <ele>962.476</ele>
        <time>2011-08-06T11:24:18Z</time>
      </trkpt>
      <trkpt lat="42.768767" lon="-2.621321">
        <ele>961.527</ele>
        <time>2011-08-06T11:24:27Z</time>
      </trkpt>
      <trkpt lat="42.768866" lon="-2.621437">
        <ele>959.126</ele>
        <time>2011-08-06T11:24:37Z</time>
      </trkpt>
      <trkpt lat="42.768934" lon="-2.621552">
        <ele>957.158</ele>
        <time>2011-08-06T11:24:46Z</time>
      </trkpt>
      <trkpt lat="42.769011" lon="-2.621662">
        <ele>955.752</ele>
        <time>2011-08-06T11:24:56Z</time>
      </trkpt>
      <trkpt lat="42.769052" lon="-2.621802">
        <ele>953.817</ele>
        <time>2011-08-06T11:25:06Z</time>
      </trkpt>
      <trkpt lat="42.769043" lon="-2.621937">
        <ele>951.407</ele>
        <time>2011-08-06T11:25:14Z</time>
      </trkpt>
      <trkpt lat="42.769060" lon="-2.622060">
        <ele>949.567</ele>
        <time>2011-08-06T11:25:23Z</time>
      </trkpt>
      <trkpt lat="42.769090" lon="-2.622291">
        <ele>948.058</ele>
        <time>2011-08-06T11:25:33Z</time>
      </trkpt>
      <trkpt lat="42.769127" lon="-2.622633">
        <ele>942.299</ele>
        <time>2011-08-06T11:26:20Z</time>
      </trkpt>
      <trkpt lat="42.769236" lon="-2.622895">
        <ele>941.713</ele>
        <time>2011-08-06T11:26:28Z</time>
      </trkpt>
      <trkpt lat="42.769308" lon="-2.623029">
        <ele>941.746</ele>
        <time>2011-08-06T11:26:36Z</time>
      </trkpt>
      <trkpt lat="42.769399" lon="-2.623133">
        <ele>941.787</ele>
        <time>2011-08-06T11:26:44Z</time>
      </trkpt>
      <trkpt lat="42.769470" lon="-2.623260">
        <ele>942.286</ele>
        <time>2011-08-06T11:26:52Z</time>
      </trkpt>
      <trkpt lat="42.769540" lon="-2.623380">
        <ele>942.783</ele>
        <time>2011-08-06T11:27:01Z</time>
      </trkpt>
      <trkpt lat="42.769650" lon="-2.623560">
        <ele>941.725</ele>
        <time>2011-08-06T11:27:20Z</time>
      </trkpt>
      <trkpt lat="42.769670" lon="-2.623700">
        <ele>940.817</ele>
        <time>2011-08-06T11:27:29Z</time>
      </trkpt>
      <trkpt lat="42.769670" lon="-2.623940">
        <ele>940.807</ele>
        <time>2011-08-06T11:27:51Z</time>
      </trkpt>
      <trkpt lat="42.769660" lon="-2.624060">
        <ele>940.880</ele>
        <time>2011-08-06T11:28:02Z</time>
      </trkpt>
      <trkpt lat="42.769640" lon="-2.624110">
        <ele>940.391</ele>
        <time>2011-08-06T11:28:27Z</time>
      </trkpt>
      <trkpt lat="42.769640" lon="-2.624110">
        <ele>941.732</ele>
        <time>2011-08-06T12:18:14Z</time>
      </trkpt>
      <trkpt lat="42.769610" lon="-2.624070">
        <ele>942.716</ele>
        <time>2011-08-06T12:18:49Z</time>
      </trkpt>
      <trkpt lat="42.769550" lon="-2.624061">
        <ele>929.729</ele>
        <time>2011-08-06T12:20:37Z</time>
      </trkpt>
      <trkpt lat="42.769500" lon="-2.624130">
        <ele>927.890</ele>
        <time>2011-08-06T12:21:09Z</time>
      </trkpt>
      <trkpt lat="42.769430" lon="-2.624230">
        <ele>927.829</ele>
        <time>2011-08-06T12:21:19Z</time>
      </trkpt>
      <trkpt lat="42.769370" lon="-2.624330">
        <ele>927.324</ele>
        <time>2011-08-06T12:21:29Z</time>
      </trkpt>
      <trkpt lat="42.769310" lon="-2.624420">
        <ele>929.204</ele>
        <time>2011-08-06T12:21:39Z</time>
      </trkpt>
      <trkpt lat="42.769240" lon="-2.624510">
        <ele>927.814</ele>
        <time>2011-08-06T12:21:48Z</time>
      </trkpt>
      <trkpt lat="42.769170" lon="-2.624600">
        <ele>927.307</ele>
        <time>2011-08-06T12:21:56Z</time>
      </trkpt>
      <trkpt lat="42.769110" lon="-2.624690">
        <ele>927.384</ele>
        <time>2011-08-06T12:22:04Z</time>
      </trkpt>
      <trkpt lat="42.769050" lon="-2.624760">
        <ele>927.395</ele>
        <time>2011-08-06T12:22:17Z</time>
      </trkpt>
      <trkpt lat="42.768980" lon="-2.624840">
        <ele>926.866</ele>
        <time>2011-08-06T12:22:29Z</time>
      </trkpt>
      <trkpt lat="42.768910" lon="-2.624930">
        <ele>926.820</ele>
        <time>2011-08-06T12:22:38Z</time>
      </trkpt>
      <trkpt lat="42.768840" lon="-2.625010">
        <ele>926.483</ele>
        <time>2011-08-06T12:22:46Z</time>
      </trkpt>
      <trkpt lat="42.768760" lon="-2.625080">
        <ele>924.054</ele>
        <time>2011-08-06T12:22:54Z</time>
      </trkpt>
      <trkpt lat="42.768690" lon="-2.625160">
        <ele>923.063</ele>
        <time>2011-08-06T12:23:04Z</time>
      </trkpt>
      <trkpt lat="42.768660" lon="-2.625280">
        <ele>925.488</ele>
        <time>2011-08-06T12:23:15Z</time>
      </trkpt>
      <trkpt lat="42.768640" lon="-2.625410">
        <ele>926.424</ele>
        <time>2011-08-06T12:23:25Z</time>
      </trkpt>
      <trkpt lat="42.768660" lon="-2.625500">
        <ele>926.426</ele>
        <time>2011-08-06T12:23:38Z</time>
      </trkpt>
      <trkpt lat="42.768610" lon="-2.625580">
        <ele>927.307</ele>
        <time>2011-08-06T12:23:46Z</time>
      </trkpt>
      <trkpt lat="42.768610" lon="-2.625720">
        <ele>928.320</ele>
        <time>2011-08-06T12:23:56Z</time>
      </trkpt>
      <trkpt lat="42.768620" lon="-2.625850">
        <ele>929.721</ele>
        <time>2011-08-06T12:24:07Z</time>
      </trkpt>
      <trkpt lat="42.768610" lon="-2.625980">
        <ele>931.772</ele>
        <time>2011-08-06T12:24:18Z</time>
      </trkpt>
      <trkpt lat="42.768590" lon="-2.626100">
        <ele>932.176</ele>
        <time>2011-08-06T12:24:29Z</time>
      </trkpt>
      <trkpt lat="42.768610" lon="-2.626230">
        <ele>934.579</ele>
        <time>2011-08-06T12:24:43Z</time>
      </trkpt>
      <trkpt lat="42.768690" lon="-2.626300">
        <ele>936.010</ele>
        <time>2011-08-06T12:24:56Z</time>
      </trkpt>
      <trkpt lat="42.768730" lon="-2.626420">
        <ele>938.429</ele>
        <time>2011-08-06T12:25:09Z</time>
      </trkpt>
      <trkpt lat="42.768740" lon="-2.626550">
        <ele>938.451</ele>
        <time>2011-08-06T12:25:21Z</time>
      </trkpt>
      <trkpt lat="42.768800" lon="-2.626630">
        <ele>942.701</ele>
        <time>2011-08-06T12:25:33Z</time>
      </trkpt>
      <trkpt lat="42.768870" lon="-2.626720">
        <ele>943.211</ele>
        <time>2011-08-06T12:25:46Z</time>
      </trkpt>
      <trkpt lat="42.768900" lon="-2.626830">
        <ele>945.607</ele>
        <time>2011-08-06T12:26:00Z</time>
      </trkpt>
      <trkpt lat="42.768900" lon="-2.626950">
        <ele>946.687</ele>
        <time>2011-08-06T12:26:12Z</time>
      </trkpt>
      <trkpt lat="42.768850" lon="-2.627060">
        <ele>947.588</ele>
        <time>2011-08-06T12:26:23Z</time>
      </trkpt>
      <trkpt lat="42.768790" lon="-2.627170">
        <ele>949.049</ele>
        <time>2011-08-06T12:26:33Z</time>
      </trkpt>
      <trkpt lat="42.768780" lon="-2.627290">
        <ele>949.523</ele>
        <time>2011-08-06T12:26:44Z</time>
      </trkpt>
      <trkpt lat="42.768836" lon="-2.627451">
        <ele>950.966</ele>
        <time>2011-08-06T12:26:55Z</time>
      </trkpt>
      <trkpt lat="42.768922" lon="-2.627585">
        <ele>953.337</ele>
        <time>2011-08-06T12:27:42Z</time>
      </trkpt>
      <trkpt lat="42.768860" lon="-2.627540">
        <ele>953.366</ele>
        <time>2011-08-06T12:28:02Z</time>
      </trkpt>
      <trkpt lat="42.769112" lon="-2.627687">
        <ele>952.816</ele>
        <time>2011-08-06T12:28:15Z</time>
      </trkpt>
      <trkpt lat="42.769233" lon="-2.627607">
        <ele>955.276</ele>
        <time>2011-08-06T12:28:24Z</time>
      </trkpt>
      <trkpt lat="42.769345" lon="-2.627393">
        <ele>961.013</ele>
        <time>2011-08-06T12:28:49Z</time>
      </trkpt>
      <trkpt lat="42.769290" lon="-2.627540">
        <ele>961.007</ele>
        <time>2011-08-06T12:30:01Z</time>
      </trkpt>
      <trkpt lat="42.769260" lon="-2.627589">
        <ele>961.523</ele>
        <time>2011-08-06T12:33:17Z</time>
      </trkpt>
      <trkpt lat="42.769180" lon="-2.627660">
        <ele>955.724</ele>
        <time>2011-08-06T12:33:44Z</time>
      </trkpt>
      <trkpt lat="42.769080" lon="-2.627670">
        <ele>956.695</ele>
        <time>2011-08-06T12:34:01Z</time>
      </trkpt>
      <trkpt lat="42.768990" lon="-2.627660">
        <ele>956.289</ele>
        <time>2011-08-06T12:34:14Z</time>
      </trkpt>
      <trkpt lat="42.768840" lon="-2.627500">
        <ele>952.812</ele>
        <time>2011-08-06T12:35:09Z</time>
      </trkpt>
      <trkpt lat="42.768810" lon="-2.627350">
        <ele>950.963</ele>
        <time>2011-08-06T12:35:21Z</time>
      </trkpt>
      <trkpt lat="42.768730" lon="-2.627230">
        <ele>948.542</ele>
        <time>2011-08-06T12:35:33Z</time>
      </trkpt>
      <trkpt lat="42.768690" lon="-2.627110">
        <ele>947.524</ele>
        <time>2011-08-06T12:35:45Z</time>
      </trkpt>
      <trkpt lat="42.768600" lon="-2.627090">
        <ele>945.604</ele>
        <time>2011-08-06T12:35:54Z</time>
      </trkpt>
      <trkpt lat="42.768500" lon="-2.627100">
        <ele>944.614</ele>
        <time>2011-08-06T12:36:03Z</time>
      </trkpt>
      <trkpt lat="42.768430" lon="-2.627150">
        <ele>943.707</ele>
        <time>2011-08-06T12:36:12Z</time>
      </trkpt>
      <trkpt lat="42.768330" lon="-2.627190">
        <ele>943.774</ele>
        <time>2011-08-06T12:36:22Z</time>
      </trkpt>
      <trkpt lat="42.768240" lon="-2.627240">
        <ele>940.375</ele>
        <time>2011-08-06T12:36:31Z</time>
      </trkpt>
      <trkpt lat="42.768160" lon="-2.627300">
        <ele>940.396</ele>
        <time>2011-08-06T12:36:40Z</time>
      </trkpt>
      <trkpt lat="42.768100" lon="-2.627390">
        <ele>941.310</ele>
        <time>2011-08-06T12:36:50Z</time>
      </trkpt>
      <trkpt lat="42.768030" lon="-2.627480">
        <ele>941.383</ele>
        <time>2011-08-06T12:37:00Z</time>
      </trkpt>
      <trkpt lat="42.767960" lon="-2.627570">
        <ele>942.214</ele>
        <time>2011-08-06T12:37:09Z</time>
      </trkpt>
      <trkpt lat="42.767870" lon="-2.627610">
        <ele>941.383</ele>
        <time>2011-08-06T12:37:20Z</time>
      </trkpt>
      <trkpt lat="42.767780" lon="-2.627640">
        <ele>941.763</ele>
        <time>2011-08-06T12:37:30Z</time>
      </trkpt>
      <trkpt lat="42.767700" lon="-2.627710">
        <ele>940.344</ele>
        <time>2011-08-06T12:37:40Z</time>
      </trkpt>
      <trkpt lat="42.767640" lon="-2.627800">
        <ele>940.318</ele>
        <time>2011-08-06T12:37:50Z</time>
      </trkpt>
      <trkpt lat="42.767560" lon="-2.627740">
        <ele>938.907</ele>
        <time>2011-08-06T12:38:03Z</time>
      </trkpt>
      <trkpt lat="42.767480" lon="-2.627770">
        <ele>936.038</ele>
        <time>2011-08-06T12:38:13Z</time>
      </trkpt>
      <trkpt lat="42.767400" lon="-2.627840">
        <ele>935.059</ele>
        <time>2011-08-06T12:38:23Z</time>
      </trkpt>
      <trkpt lat="42.767320" lon="-2.627900">
        <ele>933.680</ele>
        <time>2011-08-06T12:38:33Z</time>
      </trkpt>
      <trkpt lat="42.767260" lon="-2.628000">
        <ele>934.144</ele>
        <time>2011-08-06T12:38:42Z</time>
      </trkpt>
      <trkpt lat="42.767200" lon="-2.628090">
        <ele>934.547</ele>
        <time>2011-08-06T12:38:51Z</time>
      </trkpt>
      <trkpt lat="42.767150" lon="-2.628210">
        <ele>934.188</ele>
        <time>2011-08-06T12:39:02Z</time>
      </trkpt>
      <trkpt lat="42.767090" lon="-2.628310">
        <ele>934.187</ele>
        <time>2011-08-06T12:39:12Z</time>
      </trkpt>
      <trkpt lat="42.767050" lon="-2.628430">
        <ele>934.133</ele>
        <time>2011-08-06T12:39:22Z</time>
      </trkpt>
      <trkpt lat="42.766990" lon="-2.628540">
        <ele>934.523</ele>
        <time>2011-08-06T12:39:32Z</time>
      </trkpt>
      <trkpt lat="42.766940" lon="-2.628650">
        <ele>935.515</ele>
        <time>2011-08-06T12:39:43Z</time>
      </trkpt>
      <trkpt lat="42.766910" lon="-2.628710">
        <ele>936.007</ele>
        <time>2011-08-06T12:40:37Z</time>
      </trkpt>
      <trkpt lat="42.766860" lon="-2.628830">
        <ele>935.075</ele>
        <time>2011-08-06T12:40:46Z</time>
      </trkpt>
      <trkpt lat="42.766810" lon="-2.628920">
        <ele>934.546</ele>
        <time>2011-08-06T12:40:54Z</time>
      </trkpt>
      <trkpt lat="42.766750" lon="-2.629040">
        <ele>933.647</ele>
        <time>2011-08-06T12:41:03Z</time>
      </trkpt>
      <trkpt lat="42.766700" lon="-2.629150">
        <ele>933.131</ele>
        <time>2011-08-06T12:41:12Z</time>
      </trkpt>
      <trkpt lat="42.766630" lon="-2.629250">
        <ele>931.754</ele>
        <time>2011-08-06T12:41:21Z</time>
      </trkpt>
      <trkpt lat="42.766560" lon="-2.629350">
        <ele>932.645</ele>
        <time>2011-08-06T12:41:30Z</time>
      </trkpt>
      <trkpt lat="42.766490" lon="-2.629440">
        <ele>932.644</ele>
        <time>2011-08-06T12:41:40Z</time>
      </trkpt>
      <trkpt lat="42.766430" lon="-2.629540">
        <ele>931.236</ele>
        <time>2011-08-06T12:41:48Z</time>
      </trkpt>
      <trkpt lat="42.766360" lon="-2.629630">
        <ele>931.717</ele>
        <time>2011-08-06T12:41:56Z</time>
      </trkpt>
      <trkpt lat="42.766290" lon="-2.629720">
        <ele>931.218</ele>
        <time>2011-08-06T12:42:04Z</time>
      </trkpt>
      <trkpt lat="42.766230" lon="-2.629800">
        <ele>930.707</ele>
        <time>2011-08-06T12:42:12Z</time>
      </trkpt>
      <trkpt lat="42.766170" lon="-2.629900">
        <ele>929.745</ele>
        <time>2011-08-06T12:42:20Z</time>
      </trkpt>
      <trkpt lat="42.766120" lon="-2.630000">
        <ele>929.726</ele>
        <time>2011-08-06T12:42:28Z</time>
      </trkpt>
      <trkpt lat="42.766060" lon="-2.630100">
        <ele>929.267</ele>
        <time>2011-08-06T12:42:36Z</time>
      </trkpt>
      <trkpt lat="42.765990" lon="-2.630170">
        <ele>928.841</ele>
        <time>2011-08-06T12:42:46Z</time>
      </trkpt>
      <trkpt lat="42.765930" lon="-2.630280">
        <ele>929.214</ele>
        <time>2011-08-06T12:42:55Z</time>
      </trkpt>
      <trkpt lat="42.765870" lon="-2.630390">
        <ele>927.855</ele>
        <time>2011-08-06T12:43:03Z</time>
      </trkpt>
      <trkpt lat="42.765820" lon="-2.630500">
        <ele>927.854</ele>
        <time>2011-08-06T12:43:11Z</time>
      </trkpt>
      <trkpt lat="42.765790" lon="-2.630620">
        <ele>928.379</ele>
        <time>2011-08-06T12:43:19Z</time>
      </trkpt>
      <trkpt lat="42.765740" lon="-2.630730">
        <ele>927.805</ele>
        <time>2011-08-06T12:43:27Z</time>
      </trkpt>
      <trkpt lat="42.765680" lon="-2.630830">
        <ele>927.325</ele>
        <time>2011-08-06T12:43:35Z</time>
      </trkpt>
      <trkpt lat="42.765620" lon="-2.630930">
        <ele>926.807</ele>
        <time>2011-08-06T12:43:43Z</time>
      </trkpt>
      <trkpt lat="42.765560" lon="-2.631030">
        <ele>926.829</ele>
        <time>2011-08-06T12:43:51Z</time>
      </trkpt>
      <trkpt lat="42.765490" lon="-2.631110">
        <ele>928.830</ele>
        <time>2011-08-06T12:43:59Z</time>
      </trkpt>
      <trkpt lat="42.765430" lon="-2.631210">
        <ele>927.871</ele>
        <time>2011-08-06T12:44:07Z</time>
      </trkpt>
      <trkpt lat="42.765380" lon="-2.631320">
        <ele>927.895</ele>
        <time>2011-08-06T12:44:15Z</time>
      </trkpt>
      <trkpt lat="42.765340" lon="-2.631440">
        <ele>927.898</ele>
        <time>2011-08-06T12:44:23Z</time>
      </trkpt>
      <trkpt lat="42.765300" lon="-2.631550">
        <ele>927.819</ele>
        <time>2011-08-06T12:44:31Z</time>
      </trkpt>
      <trkpt lat="42.765250" lon="-2.631660">
        <ele>927.848</ele>
        <time>2011-08-06T12:44:39Z</time>
      </trkpt>
      <trkpt lat="42.765200" lon="-2.631770">
        <ele>927.841</ele>
        <time>2011-08-06T12:44:47Z</time>
      </trkpt>
      <trkpt lat="42.765140" lon="-2.631880">
        <ele>927.881</ele>
        <time>2011-08-06T12:44:55Z</time>
      </trkpt>
      <trkpt lat="42.765070" lon="-2.631980">
        <ele>927.309</ele>
        <time>2011-08-06T12:45:03Z</time>
      </trkpt>
      <trkpt lat="42.765010" lon="-2.632060">
        <ele>925.907</ele>
        <time>2011-08-06T12:45:11Z</time>
      </trkpt>
      <trkpt lat="42.764950" lon="-2.632170">
        <ele>925.456</ele>
        <time>2011-08-06T12:45:19Z</time>
      </trkpt>
      <trkpt lat="42.764910" lon="-2.632290">
        <ele>926.437</ele>
        <time>2011-08-06T12:45:28Z</time>
      </trkpt>
      <trkpt lat="42.764870" lon="-2.632400">
        <ele>925.918</ele>
        <time>2011-08-06T12:45:37Z</time>
      </trkpt>
      <trkpt lat="42.764920" lon="-2.632490">
        <ele>927.832</ele>
        <time>2011-08-06T12:45:48Z</time>
      </trkpt>
      <trkpt lat="42.764980" lon="-2.632540">
        <ele>929.275</ele>
        <time>2011-08-06T12:46:05Z</time>
      </trkpt>
      <trkpt lat="42.765000" lon="-2.632670">
        <ele>928.846</ele>
        <time>2011-08-06T12:46:21Z</time>
      </trkpt>
      <trkpt lat="42.765070" lon="-2.632750">
        <ele>928.865</ele>
        <time>2011-08-06T12:46:32Z</time>
      </trkpt>
      <trkpt lat="42.765090" lon="-2.632810">
        <ele>930.754</ele>
        <time>2011-08-06T12:46:42Z</time>
      </trkpt>
      <trkpt lat="42.765030" lon="-2.632900">
        <ele>929.756</ele>
        <time>2011-08-06T12:46:51Z</time>
      </trkpt>
      <trkpt lat="42.764950" lon="-2.632960">
        <ele>929.711</ele>
        <time>2011-08-06T12:47:26Z</time>
      </trkpt>
      <trkpt lat="42.764870" lon="-2.633040">
        <ele>930.707</ele>
        <time>2011-08-06T12:47:34Z</time>
      </trkpt>
      <trkpt lat="42.764830" lon="-2.633130">
        <ele>929.727</ele>
        <time>2011-08-06T12:47:44Z</time>
      </trkpt>
      <trkpt lat="42.764760" lon="-2.633220">
        <ele>929.788</ele>
        <time>2011-08-06T12:47:53Z</time>
      </trkpt>
      <trkpt lat="42.764790" lon="-2.633340">
        <ele>928.359</ele>
        <time>2011-08-06T12:48:02Z</time>
      </trkpt>
      <trkpt lat="42.764870" lon="-2.633460">
        <ele>927.873</ele>
        <time>2011-08-06T12:48:24Z</time>
      </trkpt>
      <trkpt lat="42.764860" lon="-2.633610">
        <ele>927.346</ele>
        <time>2011-08-06T12:48:32Z</time>
      </trkpt>
      <trkpt lat="42.764840" lon="-2.633750">
        <ele>927.847</ele>
        <time>2011-08-06T12:48:40Z</time>
      </trkpt>
      <trkpt lat="42.764830" lon="-2.633890">
        <ele>930.766</ele>
        <time>2011-08-06T12:48:48Z</time>
      </trkpt>
      <trkpt lat="42.764800" lon="-2.633960">
        <ele>926.812</ele>
        <time>2011-08-06T12:49:31Z</time>
      </trkpt>
      <trkpt lat="42.764750" lon="-2.634080">
        <ele>928.332</ele>
        <time>2011-08-06T12:49:39Z</time>
      </trkpt>
      <trkpt lat="42.764730" lon="-2.634210">
        <ele>928.305</ele>
        <time>2011-08-06T12:49:52Z</time>
      </trkpt>
      <trkpt lat="42.764720" lon="-2.634340">
        <ele>927.307</ele>
        <time>2011-08-06T12:50:06Z</time>
      </trkpt>
      <trkpt lat="42.764650" lon="-2.634440">
        <ele>926.813</ele>
        <time>2011-08-06T12:50:18Z</time>
      </trkpt>
      <trkpt lat="42.764620" lon="-2.634560">
        <ele>927.314</ele>
        <time>2011-08-06T12:50:27Z</time>
      </trkpt>
      <trkpt lat="42.764654" lon="-2.634650">
        <ele>927.325</ele>
        <time>2011-08-06T12:50:40Z</time>
      </trkpt>
      <trkpt lat="42.764600" lon="-2.634840">
        <ele>924.939</ele>
        <time>2011-08-06T12:50:58Z</time>
      </trkpt>
      <trkpt lat="42.764590" lon="-2.634970">
        <ele>924.572</ele>
        <time>2011-08-06T12:51:15Z</time>
      </trkpt>
      <trkpt lat="42.764590" lon="-2.635090">
        <ele>924.963</ele>
        <time>2011-08-06T12:51:23Z</time>
      </trkpt>
      <trkpt lat="42.764590" lon="-2.635220">
        <ele>925.452</ele>
        <time>2011-08-06T12:51:33Z</time>
      </trkpt>
      <trkpt lat="42.764560" lon="-2.635350">
        <ele>924.963</ele>
        <time>2011-08-06T12:51:42Z</time>
      </trkpt>
      <trkpt lat="42.764540" lon="-2.635460">
        <ele>925.444</ele>
        <time>2011-08-06T12:51:55Z</time>
      </trkpt>
      <trkpt lat="42.764560" lon="-2.635600">
        <ele>925.418</ele>
        <time>2011-08-06T12:52:13Z</time>
      </trkpt>
      <trkpt lat="42.764630" lon="-2.635680">
        <ele>923.007</ele>
        <time>2011-08-06T12:52:24Z</time>
      </trkpt>
      <trkpt lat="42.764660" lon="-2.635810">
        <ele>921.188</ele>
        <time>2011-08-06T12:52:34Z</time>
      </trkpt>
      <trkpt lat="42.764700" lon="-2.635930">
        <ele>921.149</ele>
        <time>2011-08-06T12:52:43Z</time>
      </trkpt>
      <trkpt lat="42.764740" lon="-2.636040">
        <ele>919.670</ele>
        <time>2011-08-06T12:52:52Z</time>
      </trkpt>
      <trkpt lat="42.764780" lon="-2.636150">
        <ele>918.254</ele>
        <time>2011-08-06T12:53:02Z</time>
      </trkpt>
      <trkpt lat="42.764990" lon="-2.636390">
        <ele>916.377</ele>
        <time>2011-08-06T12:53:32Z</time>
      </trkpt>
      <trkpt lat="42.765050" lon="-2.636510">
        <ele>915.838</ele>
        <time>2011-08-06T12:53:41Z</time>
      </trkpt>
      <trkpt lat="42.765110" lon="-2.636620">
        <ele>914.847</ele>
        <time>2011-08-06T12:53:51Z</time>
      </trkpt>
      <trkpt lat="42.765170" lon="-2.636720">
        <ele>915.895</ele>
        <time>2011-08-06T12:54:00Z</time>
      </trkpt>
      <trkpt lat="42.765200" lon="-2.636850">
        <ele>916.749</ele>
        <time>2011-08-06T12:54:10Z</time>
      </trkpt>
      <trkpt lat="42.765220" lon="-2.636970">
        <ele>918.223</ele>
        <time>2011-08-06T12:54:20Z</time>
      </trkpt>
      <trkpt lat="42.765230" lon="-2.637100">
        <ele>919.207</ele>
        <time>2011-08-06T12:54:30Z</time>
      </trkpt>
      <trkpt lat="42.765260" lon="-2.637210">
        <ele>920.161</ele>
        <time>2011-08-06T12:54:39Z</time>
      </trkpt>
      <trkpt lat="42.765270" lon="-2.637330">
        <ele>920.672</ele>
        <time>2011-08-06T12:54:48Z</time>
      </trkpt>
      <trkpt lat="42.765270" lon="-2.637460">
        <ele>922.183</ele>
        <time>2011-08-06T12:54:57Z</time>
      </trkpt>
      <trkpt lat="42.765270" lon="-2.637590">
        <ele>922.517</ele>
        <time>2011-08-06T12:55:06Z</time>
      </trkpt>
      <trkpt lat="42.765290" lon="-2.637710">
        <ele>924.080</ele>
        <time>2011-08-06T12:55:16Z</time>
      </trkpt>
      <trkpt lat="42.765290" lon="-2.637830">
        <ele>925.411</ele>
        <time>2011-08-06T12:55:27Z</time>
      </trkpt>
      <trkpt lat="42.765310" lon="-2.637900">
        <ele>925.430</ele>
        <time>2011-08-06T12:55:35Z</time>
      </trkpt>
      <trkpt lat="42.765260" lon="-2.638090">
        <ele>923.083</ele>
        <time>2011-08-06T12:55:51Z</time>
      </trkpt>
      <trkpt lat="42.765240" lon="-2.638210">
        <ele>921.125</ele>
        <time>2011-08-06T12:56:00Z</time>
      </trkpt>
      <trkpt lat="42.765210" lon="-2.638330">
        <ele>920.117</ele>
        <time>2011-08-06T12:56:08Z</time>
      </trkpt>
      <trkpt lat="42.765220" lon="-2.638470">
        <ele>920.107</ele>
        <time>2011-08-06T12:56:16Z</time>
      </trkpt>
      <trkpt lat="42.765260" lon="-2.638590">
        <ele>920.610</ele>
        <time>2011-08-06T12:56:25Z</time>
      </trkpt>
      <trkpt lat="42.765270" lon="-2.638720">
        <ele>920.691</ele>
        <time>2011-08-06T12:56:37Z</time>
      </trkpt>
      <trkpt lat="42.765300" lon="-2.638850">
        <ele>921.122</ele>
        <time>2011-08-06T12:56:47Z</time>
      </trkpt>
      <trkpt lat="42.765300" lon="-2.638990">
        <ele>921.186</ele>
        <time>2011-08-06T12:56:57Z</time>
      </trkpt>
      <trkpt lat="42.765330" lon="-2.639120">
        <ele>921.179</ele>
        <time>2011-08-06T12:57:07Z</time>
      </trkpt>
      <trkpt lat="42.765410" lon="-2.639410">
        <ele>913.990</ele>
        <time>2011-08-06T12:57:53Z</time>
      </trkpt>
      <trkpt lat="42.765500" lon="-2.639530">
        <ele>912.419</ele>
        <time>2011-08-06T12:58:07Z</time>
      </trkpt>
      <trkpt lat="42.765790" lon="-2.639980">
        <ele>909.626</ele>
        <time>2011-08-06T12:58:54Z</time>
      </trkpt>
      <trkpt lat="42.765870" lon="-2.640080">
        <ele>909.147</ele>
        <time>2011-08-06T12:59:14Z</time>
      </trkpt>
      <trkpt lat="42.765920" lon="-2.640210">
        <ele>909.611</ele>
        <time>2011-08-06T12:59:27Z</time>
      </trkpt>
      <trkpt lat="42.766010" lon="-2.640300">
        <ele>908.107</ele>
        <time>2011-08-06T12:59:37Z</time>
      </trkpt>
      <trkpt lat="42.766090" lon="-2.640360">
        <ele>907.684</ele>
        <time>2011-08-06T12:59:45Z</time>
      </trkpt>
      <trkpt lat="42.766110" lon="-2.640510">
        <ele>907.665</ele>
        <time>2011-08-06T12:59:56Z</time>
      </trkpt>
      <trkpt lat="42.766090" lon="-2.640660">
        <ele>905.236</ele>
        <time>2011-08-06T13:00:06Z</time>
      </trkpt>
      <trkpt lat="42.766030" lon="-2.640780">
        <ele>904.790</ele>
        <time>2011-08-06T13:00:13Z</time>
      </trkpt>
      <trkpt lat="42.765970" lon="-2.640900">
        <ele>902.863</ele>
        <time>2011-08-06T13:00:20Z</time>
      </trkpt>
      <trkpt lat="42.765950" lon="-2.641030">
        <ele>900.924</ele>
        <time>2011-08-06T13:00:28Z</time>
      </trkpt>
      <trkpt lat="42.765890" lon="-2.641150">
        <ele>899.963</ele>
        <time>2011-08-06T13:00:38Z</time>
      </trkpt>
      <trkpt lat="42.765750" lon="-2.641490">
        <ele>895.637</ele>
        <time>2011-08-06T13:01:05Z</time>
      </trkpt>
      <trkpt lat="42.765710" lon="-2.641610">
        <ele>894.649</ele>
        <time>2011-08-06T13:01:13Z</time>
      </trkpt>
      <trkpt lat="42.765650" lon="-2.641730">
        <ele>894.213</ele>
        <time>2011-08-06T13:01:21Z</time>
      </trkpt>
      <trkpt lat="42.765620" lon="-2.641860">
        <ele>894.607</ele>
        <time>2011-08-06T13:01:32Z</time>
      </trkpt>
      <trkpt lat="42.765610" lon="-2.641990">
        <ele>896.625</ele>
        <time>2011-08-06T13:01:43Z</time>
      </trkpt>
      <trkpt lat="42.765550" lon="-2.642120">
        <ele>897.196</ele>
        <time>2011-08-06T13:01:53Z</time>
      </trkpt>
      <trkpt lat="42.765520" lon="-2.642250">
        <ele>897.587</ele>
        <time>2011-08-06T13:02:05Z</time>
      </trkpt>
      <trkpt lat="42.765470" lon="-2.642400">
        <ele>897.591</ele>
        <time>2011-08-06T13:02:17Z</time>
      </trkpt>
      <trkpt lat="42.765420" lon="-2.642530">
        <ele>898.084</ele>
        <time>2011-08-06T13:02:26Z</time>
      </trkpt>
      <trkpt lat="42.765360" lon="-2.642660">
        <ele>898.515</ele>
        <time>2011-08-06T13:02:35Z</time>
      </trkpt>
      <trkpt lat="42.765280" lon="-2.642920">
        <ele>898.594</ele>
        <time>2011-08-06T13:02:54Z</time>
      </trkpt>
      <trkpt lat="42.765110" lon="-2.643290">
        <ele>893.724</ele>
        <time>2011-08-06T13:03:27Z</time>
      </trkpt>
      <trkpt lat="42.765060" lon="-2.643430">
        <ele>892.704</ele>
        <time>2011-08-06T13:03:39Z</time>
      </trkpt>
      <trkpt lat="42.764980" lon="-2.643620">
        <ele>892.714</ele>
        <time>2011-08-06T13:04:15Z</time>
      </trkpt>
      <trkpt lat="42.765010" lon="-2.643730">
        <ele>890.307</ele>
        <time>2011-08-06T13:04:22Z</time>
      </trkpt>
      <trkpt lat="42.765050" lon="-2.643820">
        <ele>887.984</ele>
        <time>2011-08-06T13:04:33Z</time>
      </trkpt>
      <trkpt lat="42.765010" lon="-2.643950">
        <ele>885.515</ele>
        <time>2011-08-06T13:04:43Z</time>
      </trkpt>
      <trkpt lat="42.764980" lon="-2.644160">
        <ele>882.686</ele>
        <time>2011-08-06T13:05:00Z</time>
      </trkpt>
      <trkpt lat="42.765020" lon="-2.644280">
        <ele>879.330</ele>
        <time>2011-08-06T13:05:09Z</time>
      </trkpt>
      <trkpt lat="42.765010" lon="-2.644420">
        <ele>874.973</ele>
        <time>2011-08-06T13:05:20Z</time>
      </trkpt>
      <trkpt lat="42.765100" lon="-2.644800">
        <ele>871.654</ele>
        <time>2011-08-06T13:05:49Z</time>
      </trkpt>
      <trkpt lat="42.765210" lon="-2.645040">
        <ele>870.163</ele>
        <time>2011-08-06T13:06:14Z</time>
      </trkpt>
      <trkpt lat="42.765550" lon="-2.645320">
        <ele>870.175</ele>
        <time>2011-08-06T13:07:32Z</time>
      </trkpt>
      <trkpt lat="42.766380" lon="-2.645850">
        <ele>874.928</ele>
        <time>2011-08-06T13:08:31Z</time>
      </trkpt>
      <trkpt lat="42.766440" lon="-2.645960">
        <ele>876.420</ele>
        <time>2011-08-06T13:08:43Z</time>
      </trkpt>
      <trkpt lat="42.766570" lon="-2.646030">
        <ele>876.807</ele>
        <time>2011-08-06T13:08:58Z</time>
      </trkpt>
      <trkpt lat="42.766660" lon="-2.646090">
        <ele>879.719</ele>
        <time>2011-08-06T13:09:08Z</time>
      </trkpt>
      <trkpt lat="42.766730" lon="-2.646170">
        <ele>877.880</ele>
        <time>2011-08-06T13:09:18Z</time>
      </trkpt>
      <trkpt lat="42.766780" lon="-2.646260">
        <ele>877.841</ele>
        <time>2011-08-06T13:09:28Z</time>
      </trkpt>
      <trkpt lat="42.766800" lon="-2.646390">
        <ele>876.885</ele>
        <time>2011-08-06T13:09:39Z</time>
      </trkpt>
      <trkpt lat="42.766750" lon="-2.646530">
        <ele>877.388</ele>
        <time>2011-08-06T13:09:48Z</time>
      </trkpt>
      <trkpt lat="42.766710" lon="-2.646660">
        <ele>877.319</ele>
        <time>2011-08-06T13:10:00Z</time>
      </trkpt>
      <trkpt lat="42.766680" lon="-2.646950">
        <ele>880.788</ele>
        <time>2011-08-06T13:10:19Z</time>
      </trkpt>
      <trkpt lat="42.766680" lon="-2.647080">
        <ele>882.299</ele>
        <time>2011-08-06T13:10:29Z</time>
      </trkpt>
      <trkpt lat="42.766690" lon="-2.647220">
        <ele>883.107</ele>
        <time>2011-08-06T13:10:39Z</time>
      </trkpt>
      <trkpt lat="42.766680" lon="-2.647370">
        <ele>885.027</ele>
        <time>2011-08-06T13:10:58Z</time>
      </trkpt>
      <trkpt lat="42.766740" lon="-2.647480">
        <ele>886.507</ele>
        <time>2011-08-06T13:11:08Z</time>
      </trkpt>
      <trkpt lat="42.766740" lon="-2.647610">
        <ele>887.991</ele>
        <time>2011-08-06T13:11:19Z</time>
      </trkpt>
      <trkpt lat="42.766640" lon="-2.647680">
        <ele>886.592</ele>
        <time>2011-08-06T13:11:29Z</time>
      </trkpt>
      <trkpt lat="42.766530" lon="-2.647670">
        <ele>885.593</ele>
        <time>2011-08-06T13:11:37Z</time>
      </trkpt>
      <trkpt lat="42.766360" lon="-2.647770">
        <ele>885.547</ele>
        <time>2011-08-06T13:11:51Z</time>
      </trkpt>
      <trkpt lat="42.766330" lon="-2.648050">
        <ele>887.420</ele>
        <time>2011-08-06T13:12:10Z</time>
      </trkpt>
      <trkpt lat="42.766440" lon="-2.648390">
        <ele>890.821</ele>
        <time>2011-08-06T13:12:38Z</time>
      </trkpt>
      <trkpt lat="42.766520" lon="-2.648510">
        <ele>891.340</ele>
        <time>2011-08-06T13:12:45Z</time>
      </trkpt>
      <trkpt lat="42.766550" lon="-2.648660">
        <ele>892.227</ele>
        <time>2011-08-06T13:12:56Z</time>
      </trkpt>
      <trkpt lat="42.766550" lon="-2.648800">
        <ele>892.768</ele>
        <time>2011-08-06T13:13:04Z</time>
      </trkpt>
      <trkpt lat="42.766520" lon="-2.648940">
        <ele>891.814</ele>
        <time>2011-08-06T13:13:12Z</time>
      </trkpt>
      <trkpt lat="42.766520" lon="-2.649080">
        <ele>891.807</ele>
        <time>2011-08-06T13:13:20Z</time>
      </trkpt>
      <trkpt lat="42.766490" lon="-2.649200">
        <ele>887.484</ele>
        <time>2011-08-06T13:13:27Z</time>
      </trkpt>
      <trkpt lat="42.766470" lon="-2.649340">
        <ele>888.465</ele>
        <time>2011-08-06T13:13:35Z</time>
      </trkpt>
      <trkpt lat="42.766440" lon="-2.649480">
        <ele>887.496</ele>
        <time>2011-08-06T13:13:43Z</time>
      </trkpt>
      <trkpt lat="42.766400" lon="-2.649600">
        <ele>890.370</ele>
        <time>2011-08-06T13:13:50Z</time>
      </trkpt>
      <trkpt lat="42.766360" lon="-2.649720">
        <ele>887.963</ele>
        <time>2011-08-06T13:13:57Z</time>
      </trkpt>
      <trkpt lat="42.766320" lon="-2.649840">
        <ele>888.454</ele>
        <time>2011-08-06T13:14:06Z</time>
      </trkpt>
      <trkpt lat="42.766296" lon="-2.649967">
        <ele>891.893</ele>
        <time>2011-08-06T13:14:14Z</time>
      </trkpt>
      <trkpt lat="42.766283" lon="-2.650077">
        <ele>891.332</ele>
        <time>2011-08-06T13:14:23Z</time>
      </trkpt>
      <trkpt lat="42.766270" lon="-2.650181">
        <ele>887.092</ele>
        <time>2011-08-06T13:14:32Z</time>
      </trkpt>
      <trkpt lat="42.766252" lon="-2.650316">
        <ele>891.311</ele>
        <time>2011-08-06T13:14:41Z</time>
      </trkpt>
      <trkpt lat="42.766260" lon="-2.650440">
        <ele>887.407</ele>
        <time>2011-08-06T13:14:49Z</time>
      </trkpt>
      <trkpt lat="42.766250" lon="-2.650640">
        <ele>885.515</ele>
        <time>2011-08-06T13:15:05Z</time>
      </trkpt>
      <trkpt lat="42.766230" lon="-2.650760">
        <ele>885.546</ele>
        <time>2011-08-06T13:15:12Z</time>
      </trkpt>
      <trkpt lat="42.766230" lon="-2.650880">
        <ele>885.087</ele>
        <time>2011-08-06T13:15:19Z</time>
      </trkpt>
      <trkpt lat="42.766250" lon="-2.650990">
        <ele>885.591</ele>
        <time>2011-08-06T13:15:26Z</time>
      </trkpt>
      <trkpt lat="42.766290" lon="-2.651100">
        <ele>886.044</ele>
        <time>2011-08-06T13:15:34Z</time>
      </trkpt>
      <trkpt lat="42.766340" lon="-2.651220">
        <ele>881.745</ele>
        <time>2011-08-06T13:15:47Z</time>
      </trkpt>
      <trkpt lat="42.766390" lon="-2.651320">
        <ele>880.724</ele>
        <time>2011-08-06T13:15:53Z</time>
      </trkpt>
      <trkpt lat="42.766450" lon="-2.651400">
        <ele>880.241</ele>
        <time>2011-08-06T13:16:00Z</time>
      </trkpt>
      <trkpt lat="42.766520" lon="-2.651470">
        <ele>878.881</ele>
        <time>2011-08-06T13:16:07Z</time>
      </trkpt>
      <trkpt lat="42.766560" lon="-2.651580">
        <ele>875.909</ele>
        <time>2011-08-06T13:16:14Z</time>
      </trkpt>
      <trkpt lat="42.766580" lon="-2.651720">
        <ele>876.807</ele>
        <time>2011-08-06T13:16:22Z</time>
      </trkpt>
      <trkpt lat="42.766630" lon="-2.651850">
        <ele>878.836</ele>
        <time>2011-08-06T13:16:30Z</time>
      </trkpt>
      <trkpt lat="42.766690" lon="-2.651960">
        <ele>877.857</ele>
        <time>2011-08-06T13:16:38Z</time>
      </trkpt>
      <trkpt lat="42.766750" lon="-2.652060">
        <ele>879.758</ele>
        <time>2011-08-06T13:16:46Z</time>
      </trkpt>
      <trkpt lat="42.766820" lon="-2.652130">
        <ele>879.722</ele>
        <time>2011-08-06T13:16:54Z</time>
      </trkpt>
      <trkpt lat="42.766850" lon="-2.652110">
        <ele>880.235</ele>
        <time>2011-08-06T13:17:14Z</time>
      </trkpt>
      <trkpt lat="42.766920" lon="-2.652090">
        <ele>880.266</ele>
        <time>2011-08-06T13:18:04Z</time>
      </trkpt>
      <trkpt lat="42.766910" lon="-2.652120">
        <ele>880.715</ele>
        <time>2011-08-06T13:18:35Z</time>
      </trkpt>
      <trkpt lat="42.766820" lon="-2.652140">
        <ele>878.346</ele>
        <time>2011-08-06T13:18:45Z</time>
      </trkpt>
      <trkpt lat="42.766850" lon="-2.652080">
        <ele>879.788</ele>
        <time>2011-08-06T13:19:44Z</time>
      </trkpt>
      <trkpt lat="42.766940" lon="-2.652060">
        <ele>879.716</ele>
        <time>2011-08-06T13:19:54Z</time>
      </trkpt>
      <trkpt lat="42.767000" lon="-2.652110">
        <ele>877.307</ele>
        <time>2011-08-06T13:20:11Z</time>
      </trkpt>
      <trkpt lat="42.767020" lon="-2.652260">
        <ele>872.196</ele>
        <time>2011-08-06T13:20:21Z</time>
      </trkpt>
      <trkpt lat="42.767100" lon="-2.652350">
        <ele>869.747</ele>
        <time>2011-08-06T13:20:30Z</time>
      </trkpt>
      <trkpt lat="42.767460" lon="-2.652380">
        <ele>866.348</ele>
        <time>2011-08-06T13:20:53Z</time>
      </trkpt>
      <trkpt lat="42.767590" lon="-2.652420">
        <ele>865.862</ele>
        <time>2011-08-06T13:21:01Z</time>
      </trkpt>
      <trkpt lat="42.767800" lon="-2.652480">
        <ele>856.785</ele>
        <time>2011-08-06T13:21:21Z</time>
      </trkpt>
      <trkpt lat="42.767890" lon="-2.652530">
        <ele>855.756</ele>
        <time>2011-08-06T13:21:33Z</time>
      </trkpt>
      <trkpt lat="42.768000" lon="-2.652550">
        <ele>851.485</ele>
        <time>2011-08-06T13:21:46Z</time>
      </trkpt>
      <trkpt lat="42.768110" lon="-2.652540">
        <ele>849.966</ele>
        <time>2011-08-06T13:21:54Z</time>
      </trkpt>
      <trkpt lat="42.768220" lon="-2.652550">
        <ele>850.929</ele>
        <time>2011-08-06T13:22:02Z</time>
      </trkpt>
      <trkpt lat="42.768410" lon="-2.652620">
        <ele>846.621</ele>
        <time>2011-08-06T13:22:17Z</time>
      </trkpt>
      <trkpt lat="42.768960" lon="-2.652670">
        <ele>831.707</ele>
        <time>2011-08-06T13:23:11Z</time>
      </trkpt>
      <trkpt lat="42.769150" lon="-2.652710">
        <ele>832.778</ele>
        <time>2011-08-06T13:23:25Z</time>
      </trkpt>
      <trkpt lat="42.769240" lon="-2.652720">
        <ele>829.859</ele>
        <time>2011-08-06T13:23:34Z</time>
      </trkpt>
      <trkpt lat="42.769330" lon="-2.652730">
        <ele>826.920</ele>
        <time>2011-08-06T13:23:47Z</time>
      </trkpt>
      <trkpt lat="42.769610" lon="-2.652830">
        <ele>814.414</ele>
        <time>2011-08-06T13:24:21Z</time>
      </trkpt>
      <trkpt lat="42.769870" lon="-2.652940">
        <ele>810.597</ele>
        <time>2011-08-06T13:25:20Z</time>
      </trkpt>
      <trkpt lat="42.770060" lon="-2.653120">
        <ele>807.218</ele>
        <time>2011-08-06T13:25:39Z</time>
      </trkpt>
      <trkpt lat="42.770220" lon="-2.653270">
        <ele>806.267</ele>
        <time>2011-08-06T13:25:57Z</time>
      </trkpt>
      <trkpt lat="42.770516" lon="-2.653421">
        <ele>806.728</ele>
        <time>2011-08-06T13:26:21Z</time>
      </trkpt>
      <trkpt lat="42.770634" lon="-2.653463">
        <ele>806.789</ele>
        <time>2011-08-06T13:26:29Z</time>
      </trkpt>
      <trkpt lat="42.770764" lon="-2.653469">
        <ele>806.217</ele>
        <time>2011-08-06T13:26:38Z</time>
      </trkpt>
      <trkpt lat="42.770904" lon="-2.653486">
        <ele>806.207</ele>
        <time>2011-08-06T13:26:46Z</time>
      </trkpt>
      <trkpt lat="42.771016" lon="-2.653492">
        <ele>806.294</ele>
        <time>2011-08-06T13:26:54Z</time>
      </trkpt>
      <trkpt lat="42.771124" lon="-2.653485">
        <ele>806.215</ele>
        <time>2011-08-06T13:27:02Z</time>
      </trkpt>
      <trkpt lat="42.771250" lon="-2.653484">
        <ele>806.236</ele>
        <time>2011-08-06T13:27:10Z</time>
      </trkpt>
      <trkpt lat="42.771363" lon="-2.653502">
        <ele>806.210</ele>
        <time>2011-08-06T13:27:17Z</time>
      </trkpt>
      <trkpt lat="42.771471" lon="-2.653489">
        <ele>805.743</ele>
        <time>2011-08-06T13:27:25Z</time>
      </trkpt>
      <trkpt lat="42.771588" lon="-2.653476">
        <ele>806.224</ele>
        <time>2011-08-06T13:27:32Z</time>
      </trkpt>
      <trkpt lat="42.771660" lon="-2.653433">
        <ele>806.283</ele>
        <time>2011-08-06T13:27:39Z</time>
      </trkpt>
      <trkpt lat="42.771755" lon="-2.653396">
        <ele>806.718</ele>
        <time>2011-08-06T13:27:46Z</time>
      </trkpt>
      <trkpt lat="42.771858" lon="-2.653401">
        <ele>806.798</ele>
        <time>2011-08-06T13:29:12Z</time>
      </trkpt>
      <trkpt lat="42.771971" lon="-2.653407">
        <ele>806.217</ele>
        <time>2011-08-06T13:41:49Z</time>
      </trkpt>
      <trkpt lat="42.772115" lon="-2.653394">
        <ele>805.707</ele>
        <time>2011-08-06T13:42:19Z</time>
      </trkpt>
      <trkpt lat="42.772331" lon="-2.653393">
        <ele>787.023</ele>
        <time>2011-08-06T13:45:02Z</time>
      </trkpt>
      <trkpt lat="42.772488" lon="-2.653398">
        <ele>796.654</ele>
        <time>2011-08-06T13:52:18Z</time>
      </trkpt>
      <trkpt lat="42.772871" lon="-2.653237">
        <ele>774.095</ele>
        <time>2011-08-06T13:52:25Z</time>
      </trkpt>
      <trkpt lat="42.773033" lon="-2.653230">
        <ele>770.699</ele>
        <time>2011-08-06T13:52:34Z</time>
      </trkpt>
      <trkpt lat="42.773253" lon="-2.653222">
        <ele>745.172</ele>
        <time>2011-08-06T13:53:02Z</time>
      </trkpt>
      <trkpt lat="42.773457" lon="-2.653417">
        <ele>766.343</ele>
        <time>2011-08-06T13:53:31Z</time>
      </trkpt>
      <trkpt lat="42.773561" lon="-2.653581">
        <ele>765.842</ele>
        <time>2011-08-06T13:53:39Z</time>
      </trkpt>
      <trkpt lat="42.773630" lon="-2.653710">
        <ele>766.392</ele>
        <time>2011-08-06T13:53:47Z</time>
      </trkpt>
      <trkpt lat="42.773827" lon="-2.653965">
        <ele>764.973</ele>
        <time>2011-08-06T13:54:05Z</time>
      </trkpt>
      <trkpt lat="42.773945" lon="-2.654038">
        <ele>764.920</ele>
        <time>2011-08-06T13:54:13Z</time>
      </trkpt>
      <trkpt lat="42.774062" lon="-2.654141">
        <ele>764.407</ele>
        <time>2011-08-06T13:54:23Z</time>
      </trkpt>
      <trkpt lat="42.774157" lon="-2.654189">
        <ele>762.991</ele>
        <time>2011-08-06T13:54:31Z</time>
      </trkpt>
      <trkpt lat="42.774301" lon="-2.654274">
        <ele>763.472</ele>
        <time>2011-08-06T13:54:39Z</time>
      </trkpt>
      <trkpt lat="42.774400" lon="-2.654310">
        <ele>762.983</ele>
        <time>2011-08-06T13:54:48Z</time>
      </trkpt>
      <trkpt lat="42.774480" lon="-2.654430">
        <ele>762.057</ele>
        <time>2011-08-06T13:54:56Z</time>
      </trkpt>
      <trkpt lat="42.774550" lon="-2.654540">
        <ele>762.040</ele>
        <time>2011-08-06T13:55:03Z</time>
      </trkpt>
      <trkpt lat="42.774610" lon="-2.654640">
        <ele>762.541</ele>
        <time>2011-08-06T13:55:10Z</time>
      </trkpt>
      <trkpt lat="42.774670" lon="-2.654770">
        <ele>762.050</ele>
        <time>2011-08-06T13:55:17Z</time>
      </trkpt>
      <trkpt lat="42.774740" lon="-2.654880">
        <ele>760.068</ele>
        <time>2011-08-06T13:55:24Z</time>
      </trkpt>
      <trkpt lat="42.774810" lon="-2.655000">
        <ele>759.642</ele>
        <time>2011-08-06T13:55:31Z</time>
      </trkpt>
      <trkpt lat="42.774880" lon="-2.655120">
        <ele>759.126</ele>
        <time>2011-08-06T13:55:38Z</time>
      </trkpt>
      <trkpt lat="42.774940" lon="-2.655250">
        <ele>757.207</ele>
        <time>2011-08-06T13:55:46Z</time>
      </trkpt>
      <trkpt lat="42.774960" lon="-2.655390">
        <ele>755.768</ele>
        <time>2011-08-06T13:55:54Z</time>
      </trkpt>
      <trkpt lat="42.775030" lon="-2.655500">
        <ele>755.379</ele>
        <time>2011-08-06T13:56:01Z</time>
      </trkpt>
      <trkpt lat="42.775060" lon="-2.655620">
        <ele>753.820</ele>
        <time>2011-08-06T13:56:09Z</time>
      </trkpt>
      <trkpt lat="42.775100" lon="-2.655740">
        <ele>753.364</ele>
        <time>2011-08-06T13:56:17Z</time>
      </trkpt>
      <trkpt lat="42.775160" lon="-2.655870">
        <ele>752.487</ele>
        <time>2011-08-06T13:56:25Z</time>
      </trkpt>
      <trkpt lat="42.775220" lon="-2.655980">
        <ele>751.968</ele>
        <time>2011-08-06T13:56:33Z</time>
      </trkpt>
      <trkpt lat="42.775270" lon="-2.656110">
        <ele>750.427</ele>
        <time>2011-08-06T13:56:41Z</time>
      </trkpt>
      <trkpt lat="42.775320" lon="-2.656230">
        <ele>750.481</ele>
        <time>2011-08-06T13:56:49Z</time>
      </trkpt>
      <trkpt lat="42.775390" lon="-2.656340">
        <ele>750.061</ele>
        <time>2011-08-06T13:56:57Z</time>
      </trkpt>
      <trkpt lat="42.775450" lon="-2.656460">
        <ele>750.017</ele>
        <time>2011-08-06T13:57:05Z</time>
      </trkpt>
      <trkpt lat="42.775490" lon="-2.656570">
        <ele>749.507</ele>
        <time>2011-08-06T13:57:13Z</time>
      </trkpt>
      <trkpt lat="42.775470" lon="-2.656700">
        <ele>750.420</ele>
        <time>2011-08-06T13:57:22Z</time>
      </trkpt>
      <trkpt lat="42.775440" lon="-2.656850">
        <ele>749.511</ele>
        <time>2011-08-06T13:57:32Z</time>
      </trkpt>
      <trkpt lat="42.775380" lon="-2.656960">
        <ele>750.932</ele>
        <time>2011-08-06T13:57:40Z</time>
      </trkpt>
      <trkpt lat="42.775300" lon="-2.657070">
        <ele>750.966</ele>
        <time>2011-08-06T13:57:47Z</time>
      </trkpt>
      <trkpt lat="42.775230" lon="-2.657170">
        <ele>750.929</ele>
        <time>2011-08-06T13:57:54Z</time>
      </trkpt>
      <trkpt lat="42.775190" lon="-2.657300">
        <ele>750.420</ele>
        <time>2011-08-06T13:58:02Z</time>
      </trkpt>
      <trkpt lat="42.775170" lon="-2.657430">
        <ele>750.459</ele>
        <time>2011-08-06T13:58:10Z</time>
      </trkpt>
      <trkpt lat="42.775160" lon="-2.657570">
        <ele>752.424</ele>
        <time>2011-08-06T13:58:19Z</time>
      </trkpt>
      <trkpt lat="42.775180" lon="-2.657710">
        <ele>752.904</ele>
        <time>2011-08-06T13:58:27Z</time>
      </trkpt>
      <trkpt lat="42.775200" lon="-2.657850">
        <ele>754.314</ele>
        <time>2011-08-06T13:58:34Z</time>
      </trkpt>
      <trkpt lat="42.775230" lon="-2.657990">
        <ele>754.807</ele>
        <time>2011-08-06T13:58:42Z</time>
      </trkpt>
      <trkpt lat="42.775260" lon="-2.658120">
        <ele>754.814</ele>
        <time>2011-08-06T13:58:50Z</time>
      </trkpt>
      <trkpt lat="42.775280" lon="-2.658250">
        <ele>754.865</ele>
        <time>2011-08-06T13:58:58Z</time>
      </trkpt>
      <trkpt lat="42.775300" lon="-2.658390">
        <ele>754.386</ele>
        <time>2011-08-06T13:59:06Z</time>
      </trkpt>
      <trkpt lat="42.775340" lon="-2.658520">
        <ele>757.230</ele>
        <time>2011-08-06T13:59:14Z</time>
      </trkpt>
      <trkpt lat="42.775380" lon="-2.658640">
        <ele>756.733</ele>
        <time>2011-08-06T13:59:22Z</time>
      </trkpt>
      <trkpt lat="42.775420" lon="-2.658760">
        <ele>757.274</ele>
        <time>2011-08-06T13:59:29Z</time>
      </trkpt>
      <trkpt lat="42.775460" lon="-2.658900">
        <ele>755.773</ele>
        <time>2011-08-06T13:59:37Z</time>
      </trkpt>
      <trkpt lat="42.775490" lon="-2.659020">
        <ele>754.854</ele>
        <time>2011-08-06T13:59:46Z</time>
      </trkpt>
      <trkpt lat="42.775530" lon="-2.659140">
        <ele>753.856</ele>
        <time>2011-08-06T13:59:54Z</time>
      </trkpt>
      <trkpt lat="42.775590" lon="-2.659250">
        <ele>753.811</ele>
        <time>2011-08-06T14:00:01Z</time>
      </trkpt>
      <trkpt lat="42.775670" lon="-2.659340">
        <ele>752.907</ele>
        <time>2011-08-06T14:00:09Z</time>
      </trkpt>
      <trkpt lat="42.775760" lon="-2.659410">
        <ele>751.987</ele>
        <time>2011-08-06T14:00:22Z</time>
      </trkpt>
      <trkpt lat="42.775874" lon="-2.659442">
        <ele>751.958</ele>
        <time>2011-08-06T14:00:30Z</time>
      </trkpt>
      <trkpt lat="42.776014" lon="-2.659484">
        <ele>752.429</ele>
        <time>2011-08-06T14:00:40Z</time>
      </trkpt>
      <trkpt lat="42.776118" lon="-2.659520">
        <ele>753.343</ele>
        <time>2011-08-06T14:00:55Z</time>
      </trkpt>
      <trkpt lat="42.776280" lon="-2.659562">
        <ele>752.926</ele>
        <time>2011-08-06T14:01:05Z</time>
      </trkpt>
      <trkpt lat="42.776402" lon="-2.659592">
        <ele>753.387</ele>
        <time>2011-08-06T14:01:13Z</time>
      </trkpt>
      <trkpt lat="42.776564" lon="-2.659622">
        <ele>753.316</ele>
        <time>2011-08-06T14:01:21Z</time>
      </trkpt>
      <trkpt lat="42.776645" lon="-2.659670">
        <ele>753.834</ele>
        <time>2011-08-06T14:01:28Z</time>
      </trkpt>
      <trkpt lat="42.776776" lon="-2.659755">
        <ele>753.855</ele>
        <time>2011-08-06T14:01:35Z</time>
      </trkpt>
      <trkpt lat="42.776857" lon="-2.659822">
        <ele>753.810</ele>
        <time>2011-08-06T14:01:43Z</time>
      </trkpt>
      <trkpt lat="42.776925" lon="-2.659938">
        <ele>753.307</ele>
        <time>2011-08-06T14:01:51Z</time>
      </trkpt>
      <trkpt lat="42.776984" lon="-2.660035">
        <ele>753.365</ele>
        <time>2011-08-06T14:01:59Z</time>
      </trkpt>
      <trkpt lat="42.777052" lon="-2.660114">
        <ele>754.376</ele>
        <time>2011-08-06T14:02:07Z</time>
      </trkpt>
      <trkpt lat="42.777115" lon="-2.660212">
        <ele>755.367</ele>
        <time>2011-08-06T14:02:15Z</time>
      </trkpt>
      <trkpt lat="42.777160" lon="-2.660310">
        <ele>755.391</ele>
        <time>2011-08-06T14:02:23Z</time>
      </trkpt>
      <trkpt lat="42.777230" lon="-2.660390">
        <ele>756.744</ele>
        <time>2011-08-06T14:02:31Z</time>
      </trkpt>
      <trkpt lat="42.777320" lon="-2.660460">
        <ele>758.195</ele>
        <time>2011-08-06T14:02:40Z</time>
      </trkpt>
      <trkpt lat="42.777390" lon="-2.660530">
        <ele>758.124</ele>
        <time>2011-08-06T14:02:51Z</time>
      </trkpt>
      <trkpt lat="42.777470" lon="-2.660590">
        <ele>759.118</ele>
        <time>2011-08-06T14:03:05Z</time>
      </trkpt>
      <trkpt lat="42.777550" lon="-2.660630">
        <ele>759.198</ele>
        <time>2011-08-06T14:03:14Z</time>
      </trkpt>
      <trkpt lat="42.777640" lon="-2.660650">
        <ele>761.017</ele>
        <time>2011-08-06T14:03:23Z</time>
      </trkpt>
      <trkpt lat="42.777720" lon="-2.660660">
        <ele>760.507</ele>
        <time>2011-08-06T14:03:31Z</time>
      </trkpt>
      <trkpt lat="42.777810" lon="-2.660650">
        <ele>762.553</ele>
        <time>2011-08-06T14:03:40Z</time>
      </trkpt>
      <trkpt lat="42.777910" lon="-2.660670">
        <ele>763.984</ele>
        <time>2011-08-06T14:03:49Z</time>
      </trkpt>
      <trkpt lat="42.778000" lon="-2.660680">
        <ele>763.425</ele>
        <time>2011-08-06T14:04:00Z</time>
      </trkpt>
      <trkpt lat="42.778090" lon="-2.660710">
        <ele>764.969</ele>
        <time>2011-08-06T14:04:09Z</time>
      </trkpt>
      <trkpt lat="42.778180" lon="-2.660740">
        <ele>764.922</ele>
        <time>2011-08-06T14:04:18Z</time>
      </trkpt>
      <trkpt lat="42.778280" lon="-2.660770">
        <ele>764.913</ele>
        <time>2011-08-06T14:04:29Z</time>
      </trkpt>
      <trkpt lat="42.778350" lon="-2.660850">
        <ele>766.372</ele>
        <time>2011-08-06T14:04:39Z</time>
      </trkpt>
      <trkpt lat="42.778410" lon="-2.660950">
        <ele>767.324</ele>
        <time>2011-08-06T14:04:47Z</time>
      </trkpt>
      <trkpt lat="42.778470" lon="-2.661040">
        <ele>766.304</ele>
        <time>2011-08-06T14:04:55Z</time>
      </trkpt>
      <trkpt lat="42.778520" lon="-2.661160">
        <ele>765.814</ele>
        <time>2011-08-06T14:05:04Z</time>
      </trkpt>
      <trkpt lat="42.778560" lon="-2.661270">
        <ele>766.807</ele>
        <time>2011-08-06T14:05:12Z</time>
      </trkpt>
      <trkpt lat="42.778600" lon="-2.661400">
        <ele>765.814</ele>
        <time>2011-08-06T14:05:21Z</time>
      </trkpt>
      <trkpt lat="42.778650" lon="-2.661510">
        <ele>765.815</ele>
        <time>2011-08-06T14:05:29Z</time>
      </trkpt>
      <trkpt lat="42.778710" lon="-2.661610">
        <ele>768.276</ele>
        <time>2011-08-06T14:05:37Z</time>
      </trkpt>
      <trkpt lat="42.778770" lon="-2.661710">
        <ele>767.320</ele>
        <time>2011-08-06T14:05:45Z</time>
      </trkpt>
      <trkpt lat="42.778840" lon="-2.661810">
        <ele>770.173</ele>
        <time>2011-08-06T14:05:53Z</time>
      </trkpt>
      <trkpt lat="42.778900" lon="-2.661920">
        <ele>770.184</ele>
        <time>2011-08-06T14:06:01Z</time>
      </trkpt>
      <trkpt lat="42.778940" lon="-2.662030">
        <ele>770.143</ele>
        <time>2011-08-06T14:06:09Z</time>
      </trkpt>
      <trkpt lat="42.778960" lon="-2.662150">
        <ele>769.713</ele>
        <time>2011-08-06T14:06:17Z</time>
      </trkpt>
      <trkpt lat="42.778940" lon="-2.662280">
        <ele>768.743</ele>
        <time>2011-08-06T14:06:25Z</time>
      </trkpt>
      <trkpt lat="42.778930" lon="-2.662410">
        <ele>768.207</ele>
        <time>2011-08-06T14:06:33Z</time>
      </trkpt>
      <trkpt lat="42.778970" lon="-2.662540">
        <ele>768.707</ele>
        <time>2011-08-06T14:06:41Z</time>
      </trkpt>
      <trkpt lat="42.779018" lon="-2.662622">
        <ele>768.733</ele>
        <time>2011-08-06T14:06:49Z</time>
      </trkpt>
      <trkpt lat="42.779122" lon="-2.662713">
        <ele>768.264</ele>
        <time>2011-08-06T14:06:57Z</time>
      </trkpt>
      <trkpt lat="42.779216" lon="-2.662853">
        <ele>767.845</ele>
        <time>2011-08-06T14:07:04Z</time>
      </trkpt>
      <trkpt lat="42.779250" lon="-2.662950">
        <ele>767.349</ele>
        <time>2011-08-06T14:07:11Z</time>
      </trkpt>
      <trkpt lat="42.779320" lon="-2.663050">
        <ele>767.372</ele>
        <time>2011-08-06T14:07:19Z</time>
      </trkpt>
      <trkpt lat="42.779380" lon="-2.663150">
        <ele>767.343</ele>
        <time>2011-08-06T14:07:27Z</time>
      </trkpt>
      <trkpt lat="42.779440" lon="-2.663250">
        <ele>766.892</ele>
        <time>2011-08-06T14:07:35Z</time>
      </trkpt>
      <trkpt lat="42.779510" lon="-2.663350">
        <ele>767.338</ele>
        <time>2011-08-06T14:07:43Z</time>
      </trkpt>
      <trkpt lat="42.779570" lon="-2.663450">
        <ele>767.870</ele>
        <time>2011-08-06T14:07:51Z</time>
      </trkpt>
      <trkpt lat="42.779640" lon="-2.663540">
        <ele>768.717</ele>
        <time>2011-08-06T14:07:59Z</time>
      </trkpt>
      <trkpt lat="42.779710" lon="-2.663620">
        <ele>769.207</ele>
        <time>2011-08-06T14:08:07Z</time>
      </trkpt>
      <trkpt lat="42.779780" lon="-2.663700">
        <ele>770.695</ele>
        <time>2011-08-06T14:08:15Z</time>
      </trkpt>
      <trkpt lat="42.779860" lon="-2.663770">
        <ele>771.116</ele>
        <time>2011-08-06T14:08:23Z</time>
      </trkpt>
      <trkpt lat="42.779950" lon="-2.663810">
        <ele>770.627</ele>
        <time>2011-08-06T14:08:31Z</time>
      </trkpt>
      <trkpt lat="42.780030" lon="-2.663860">
        <ele>770.161</ele>
        <time>2011-08-06T14:08:39Z</time>
      </trkpt>
      <trkpt lat="42.780110" lon="-2.663910">
        <ele>767.864</ele>
        <time>2011-08-06T14:08:47Z</time>
      </trkpt>
      <trkpt lat="42.780190" lon="-2.663980">
        <ele>767.315</ele>
        <time>2011-08-06T14:08:55Z</time>
      </trkpt>
      <trkpt lat="42.780280" lon="-2.664050">
        <ele>766.394</ele>
        <time>2011-08-06T14:09:03Z</time>
      </trkpt>
      <trkpt lat="42.780350" lon="-2.664090">
        <ele>765.811</ele>
        <time>2011-08-06T14:09:18Z</time>
      </trkpt>
      <trkpt lat="42.780430" lon="-2.664190">
        <ele>764.921</ele>
        <time>2011-08-06T14:09:34Z</time>
      </trkpt>
      <trkpt lat="42.780490" lon="-2.664280">
        <ele>764.403</ele>
        <time>2011-08-06T14:09:43Z</time>
      </trkpt>
      <trkpt lat="42.780550" lon="-2.664380">
        <ele>763.907</ele>
        <time>2011-08-06T14:09:51Z</time>
      </trkpt>
      <trkpt lat="42.780610" lon="-2.664490">
        <ele>762.943</ele>
        <time>2011-08-06T14:09:59Z</time>
      </trkpt>
      <trkpt lat="42.780660" lon="-2.664600">
        <ele>762.064</ele>
        <time>2011-08-06T14:10:07Z</time>
      </trkpt>
      <trkpt lat="42.780710" lon="-2.664710">
        <ele>761.095</ele>
        <time>2011-08-06T14:10:15Z</time>
      </trkpt>
      <trkpt lat="42.780760" lon="-2.664830">
        <ele>760.049</ele>
        <time>2011-08-06T14:10:23Z</time>
      </trkpt>
      <trkpt lat="42.780810" lon="-2.664950">
        <ele>759.642</ele>
        <time>2011-08-06T14:10:31Z</time>
      </trkpt>
      <trkpt lat="42.780860" lon="-2.665060">
        <ele>758.153</ele>
        <time>2011-08-06T14:10:39Z</time>
      </trkpt>
      <trkpt lat="42.780920" lon="-2.665170">
        <ele>756.742</ele>
        <time>2011-08-06T14:10:47Z</time>
      </trkpt>
      <trkpt lat="42.780980" lon="-2.665270">
        <ele>755.347</ele>
        <time>2011-08-06T14:10:55Z</time>
      </trkpt>
      <trkpt lat="42.781040" lon="-2.665380">
        <ele>755.329</ele>
        <time>2011-08-06T14:11:03Z</time>
      </trkpt>
      <trkpt lat="42.781090" lon="-2.665500">
        <ele>755.721</ele>
        <time>2011-08-06T14:11:11Z</time>
      </trkpt>
      <trkpt lat="42.781110" lon="-2.665630">
        <ele>754.807</ele>
        <time>2011-08-06T14:11:19Z</time>
      </trkpt>
      <trkpt lat="42.781110" lon="-2.665750">
        <ele>755.316</ele>
        <time>2011-08-06T14:11:26Z</time>
      </trkpt>
      <trkpt lat="42.781080" lon="-2.665870">
        <ele>755.387</ele>
        <time>2011-08-06T14:11:33Z</time>
      </trkpt>
      <trkpt lat="42.781000" lon="-2.665960">
        <ele>756.728</ele>
        <time>2011-08-06T14:11:41Z</time>
      </trkpt>
      <trkpt lat="42.780930" lon="-2.666050">
        <ele>756.742</ele>
        <time>2011-08-06T14:11:49Z</time>
      </trkpt>
      <trkpt lat="42.780850" lon="-2.666140">
        <ele>757.225</ele>
        <time>2011-08-06T14:11:57Z</time>
      </trkpt>
      <trkpt lat="42.780770" lon="-2.666230">
        <ele>755.736</ele>
        <time>2011-08-06T14:12:05Z</time>
      </trkpt>
      <trkpt lat="42.780700" lon="-2.666320">
        <ele>755.745</ele>
        <time>2011-08-06T14:12:13Z</time>
      </trkpt>
      <trkpt lat="42.780630" lon="-2.666410">
        <ele>755.785</ele>
        <time>2011-08-06T14:12:21Z</time>
      </trkpt>
      <trkpt lat="42.780560" lon="-2.666520">
        <ele>755.789</ele>
        <time>2011-08-06T14:12:29Z</time>
      </trkpt>
      <trkpt lat="42.780530" lon="-2.666640">
        <ele>756.717</ele>
        <time>2011-08-06T14:12:37Z</time>
      </trkpt>
      <trkpt lat="42.780530" lon="-2.666760">
        <ele>756.707</ele>
        <time>2011-08-06T14:12:45Z</time>
      </trkpt>
      <trkpt lat="42.780560" lon="-2.666890">
        <ele>756.720</ele>
        <time>2011-08-06T14:12:53Z</time>
      </trkpt>
      <trkpt lat="42.780580" lon="-2.667020">
        <ele>755.721</ele>
        <time>2011-08-06T14:13:01Z</time>
      </trkpt>
      <trkpt lat="42.780600" lon="-2.667160">
        <ele>753.812</ele>
        <time>2011-08-06T14:13:09Z</time>
      </trkpt>
      <trkpt lat="42.780630" lon="-2.667290">
        <ele>752.966</ele>
        <time>2011-08-06T14:13:17Z</time>
      </trkpt>
      <trkpt lat="42.780650" lon="-2.667420">
        <ele>751.949</ele>
        <time>2011-08-06T14:13:25Z</time>
      </trkpt>
      <trkpt lat="42.780670" lon="-2.667560">
        <ele>750.470</ele>
        <time>2011-08-06T14:13:33Z</time>
      </trkpt>
      <trkpt lat="42.780700" lon="-2.667690">
        <ele>750.059</ele>
        <time>2011-08-06T14:13:41Z</time>
      </trkpt>
      <trkpt lat="42.780730" lon="-2.667830">
        <ele>750.053</ele>
        <time>2011-08-06T14:13:49Z</time>
      </trkpt>
      <trkpt lat="42.780750" lon="-2.667960">
        <ele>749.004</ele>
        <time>2011-08-06T14:13:57Z</time>
      </trkpt>
      <trkpt lat="42.780790" lon="-2.668090">
        <ele>748.514</ele>
        <time>2011-08-06T14:14:05Z</time>
      </trkpt>
      <trkpt lat="42.780840" lon="-2.668210">
        <ele>749.507</ele>
        <time>2011-08-06T14:14:13Z</time>
      </trkpt>
      <trkpt lat="42.780910" lon="-2.668300">
        <ele>749.517</ele>
        <time>2011-08-06T14:14:21Z</time>
      </trkpt>
      <trkpt lat="42.780990" lon="-2.668380">
        <ele>750.098</ele>
        <time>2011-08-06T14:14:29Z</time>
      </trkpt>
      <trkpt lat="42.781080" lon="-2.668450">
        <ele>750.049</ele>
        <time>2011-08-06T14:14:37Z</time>
      </trkpt>
      <trkpt lat="42.781160" lon="-2.668530">
        <ele>750.423</ele>
        <time>2011-08-06T14:14:45Z</time>
      </trkpt>
      <trkpt lat="42.781240" lon="-2.668600">
        <ele>750.486</ele>
        <time>2011-08-06T14:14:53Z</time>
      </trkpt>
      <trkpt lat="42.781330" lon="-2.668650">
        <ele>751.447</ele>
        <time>2011-08-06T14:15:01Z</time>
      </trkpt>
      <trkpt lat="42.781420" lon="-2.668700">
        <ele>752.926</ele>
        <time>2011-08-06T14:15:09Z</time>
      </trkpt>
      <trkpt lat="42.781520" lon="-2.668750">
        <ele>752.991</ele>
        <time>2011-08-06T14:15:17Z</time>
      </trkpt>
      <trkpt lat="42.781600" lon="-2.668790">
        <ele>752.981</ele>
        <time>2011-08-06T14:15:24Z</time>
      </trkpt>
      <trkpt lat="42.781690" lon="-2.668840">
        <ele>751.919</ele>
        <time>2011-08-06T14:15:32Z</time>
      </trkpt>
      <trkpt lat="42.781780" lon="-2.668900">
        <ele>751.907</ele>
        <time>2011-08-06T14:15:40Z</time>
      </trkpt>
      <trkpt lat="42.781860" lon="-2.668960">
        <ele>751.971</ele>
        <time>2011-08-06T14:15:47Z</time>
      </trkpt>
      <trkpt lat="42.781950" lon="-2.669040">
        <ele>752.432</ele>
        <time>2011-08-06T14:15:55Z</time>
      </trkpt>
      <trkpt lat="42.782030" lon="-2.669130">
        <ele>752.983</ele>
        <time>2011-08-06T14:16:03Z</time>
      </trkpt>
      <trkpt lat="42.782100" lon="-2.669220">
        <ele>752.477</ele>
        <time>2011-08-06T14:16:11Z</time>
      </trkpt>
      <trkpt lat="42.782180" lon="-2.669330">
        <ele>751.930</ele>
        <time>2011-08-06T14:16:19Z</time>
      </trkpt>
      <trkpt lat="42.782230" lon="-2.669410">
        <ele>750.481</ele>
        <time>2011-08-06T14:16:25Z</time>
      </trkpt>
      <trkpt lat="42.782270" lon="-2.669510">
        <ele>751.410</ele>
        <time>2011-08-06T14:16:31Z</time>
      </trkpt>
      <trkpt lat="42.782310" lon="-2.669610">
        <ele>751.956</ele>
        <time>2011-08-06T14:16:38Z</time>
      </trkpt>
      <trkpt lat="42.782360" lon="-2.669730">
        <ele>751.459</ele>
        <time>2011-08-06T14:16:46Z</time>
      </trkpt>
      <trkpt lat="42.782410" lon="-2.669830">
        <ele>752.914</ele>
        <time>2011-08-06T14:16:53Z</time>
      </trkpt>
      <trkpt lat="42.782470" lon="-2.669950">
        <ele>752.407</ele>
        <time>2011-08-06T14:17:01Z</time>
      </trkpt>
      <trkpt lat="42.782520" lon="-2.670060">
        <ele>751.957</ele>
        <time>2011-08-06T14:17:09Z</time>
      </trkpt>
      <trkpt lat="42.782570" lon="-2.670180">
        <ele>752.468</ele>
        <time>2011-08-06T14:17:17Z</time>
      </trkpt>
      <trkpt lat="42.782630" lon="-2.670300">
        <ele>753.339</ele>
        <time>2011-08-06T14:17:25Z</time>
      </trkpt>
      <trkpt lat="42.782670" lon="-2.670400">
        <ele>751.963</ele>
        <time>2011-08-06T14:17:32Z</time>
      </trkpt>
      <trkpt lat="42.782720" lon="-2.670510">
        <ele>751.986</ele>
        <time>2011-08-06T14:17:39Z</time>
      </trkpt>
      <trkpt lat="42.782770" lon="-2.670620">
        <ele>751.457</ele>
        <time>2011-08-06T14:17:46Z</time>
      </trkpt>
      <trkpt lat="42.782820" lon="-2.670730">
        <ele>752.916</ele>
        <time>2011-08-06T14:17:53Z</time>
      </trkpt>
      <trkpt lat="42.782860" lon="-2.670830">
        <ele>751.912</ele>
        <time>2011-08-06T14:18:00Z</time>
      </trkpt>
      <trkpt lat="42.782910" lon="-2.670950">
        <ele>753.332</ele>
        <time>2011-08-06T14:18:08Z</time>
      </trkpt>
      <trkpt lat="42.782960" lon="-2.671060">
        <ele>752.905</ele>
        <time>2011-08-06T14:18:15Z</time>
      </trkpt>
      <trkpt lat="42.783020" lon="-2.671160">
        <ele>753.807</ele>
        <time>2011-08-06T14:18:23Z</time>
      </trkpt>
      <trkpt lat="42.783090" lon="-2.671260">
        <ele>754.383</ele>
        <time>2011-08-06T14:18:31Z</time>
      </trkpt>
      <trkpt lat="42.783140" lon="-2.671380">
        <ele>755.734</ele>
        <time>2011-08-06T14:18:39Z</time>
      </trkpt>
      <trkpt lat="42.783170" lon="-2.671500">
        <ele>755.795</ele>
        <time>2011-08-06T14:18:47Z</time>
      </trkpt>
      <trkpt lat="42.783190" lon="-2.671620">
        <ele>756.299</ele>
        <time>2011-08-06T14:18:55Z</time>
      </trkpt>
      <trkpt lat="42.783230" lon="-2.671750">
        <ele>757.272</ele>
        <time>2011-08-06T14:19:03Z</time>
      </trkpt>
      <trkpt lat="42.783260" lon="-2.671880">
        <ele>758.193</ele>
        <time>2011-08-06T14:19:11Z</time>
      </trkpt>
      <trkpt lat="42.783290" lon="-2.672010">
        <ele>758.682</ele>
        <time>2011-08-06T14:19:19Z</time>
      </trkpt>
      <trkpt lat="42.783320" lon="-2.672140">
        <ele>759.663</ele>
        <time>2011-08-06T14:19:27Z</time>
      </trkpt>
      <trkpt lat="42.783350" lon="-2.672260">
        <ele>760.044</ele>
        <time>2011-08-06T14:19:35Z</time>
      </trkpt>
      <trkpt lat="42.783400" lon="-2.672380">
        <ele>760.018</ele>
        <time>2011-08-06T14:19:43Z</time>
      </trkpt>
      <trkpt lat="42.783460" lon="-2.672490">
        <ele>759.607</ele>
        <time>2011-08-06T14:19:51Z</time>
      </trkpt>
      <trkpt lat="42.783530" lon="-2.672590">
        <ele>759.678</ele>
        <time>2011-08-06T14:19:59Z</time>
      </trkpt>
      <trkpt lat="42.783600" lon="-2.672700">
        <ele>758.129</ele>
        <time>2011-08-06T14:20:07Z</time>
      </trkpt>
      <trkpt lat="42.783660" lon="-2.672810">
        <ele>757.270</ele>
        <time>2011-08-06T14:20:15Z</time>
      </trkpt>
      <trkpt lat="42.783720" lon="-2.672910">
        <ele>756.234</ele>
        <time>2011-08-06T14:20:22Z</time>
      </trkpt>
      <trkpt lat="42.783780" lon="-2.673000">
        <ele>756.227</ele>
        <time>2011-08-06T14:20:29Z</time>
      </trkpt>
      <trkpt lat="42.783850" lon="-2.673090">
        <ele>755.398</ele>
        <time>2011-08-06T14:20:36Z</time>
      </trkpt>
      <trkpt lat="42.783910" lon="-2.673190">
        <ele>754.357</ele>
        <time>2011-08-06T14:20:44Z</time>
      </trkpt>
      <trkpt lat="42.783980" lon="-2.673290">
        <ele>752.941</ele>
        <time>2011-08-06T14:20:52Z</time>
      </trkpt>
      <trkpt lat="42.784040" lon="-2.673380">
        <ele>752.481</ele>
        <time>2011-08-06T14:20:59Z</time>
      </trkpt>
      <trkpt lat="42.784100" lon="-2.673470">
        <ele>751.909</ele>
        <time>2011-08-06T14:21:06Z</time>
      </trkpt>
      <trkpt lat="42.784160" lon="-2.673570">
        <ele>751.407</ele>
        <time>2011-08-06T14:21:13Z</time>
      </trkpt>
      <trkpt lat="42.784230" lon="-2.673670">
        <ele>750.966</ele>
        <time>2011-08-06T14:21:21Z</time>
      </trkpt>
      <trkpt lat="42.784280" lon="-2.673780">
        <ele>750.457</ele>
        <time>2011-08-06T14:21:29Z</time>
      </trkpt>
      <trkpt lat="42.784310" lon="-2.673900">
        <ele>750.418</ele>
        <time>2011-08-06T14:21:36Z</time>
      </trkpt>
      <trkpt lat="42.784300" lon="-2.674030">
        <ele>750.412</ele>
        <time>2011-08-06T14:21:44Z</time>
      </trkpt>
      <trkpt lat="42.784260" lon="-2.674140">
        <ele>750.055</ele>
        <time>2011-08-06T14:21:52Z</time>
      </trkpt>
      <trkpt lat="42.784170" lon="-2.674200">
        <ele>750.466</ele>
        <time>2011-08-06T14:21:59Z</time>
      </trkpt>
      <trkpt lat="42.784072" lon="-2.674197">
        <ele>750.025</ele>
        <time>2011-08-06T14:22:06Z</time>
      </trkpt>
      <trkpt lat="42.783977" lon="-2.674283">
        <ele>749.576</ele>
        <time>2011-08-06T14:22:13Z</time>
      </trkpt>
      <trkpt lat="42.783865" lon="-2.674332">
        <ele>749.590</ele>
        <time>2011-08-06T14:22:20Z</time>
      </trkpt>
      <trkpt lat="42.783816" lon="-2.674443">
        <ele>749.019</ele>
        <time>2011-08-06T14:22:27Z</time>
      </trkpt>
      <trkpt lat="42.783726" lon="-2.674504">
        <ele>749.007</ele>
        <time>2011-08-06T14:22:34Z</time>
      </trkpt>
      <trkpt lat="42.783670" lon="-2.674600">
        <ele>748.519</ele>
        <time>2011-08-06T14:22:41Z</time>
      </trkpt>
      <trkpt lat="42.783590" lon="-2.674640">
        <ele>749.090</ele>
        <time>2011-08-06T14:22:48Z</time>
      </trkpt>
      <trkpt lat="42.783510" lon="-2.674720">
        <ele>749.041</ele>
        <time>2011-08-06T14:22:55Z</time>
      </trkpt>
      <trkpt lat="42.783440" lon="-2.674800">
        <ele>749.535</ele>
        <time>2011-08-06T14:23:03Z</time>
      </trkpt>
      <trkpt lat="42.783370" lon="-2.674900">
        <ele>749.528</ele>
        <time>2011-08-06T14:23:11Z</time>
      </trkpt>
      <trkpt lat="42.783300" lon="-2.674990">
        <ele>749.559</ele>
        <time>2011-08-06T14:23:18Z</time>
      </trkpt>
      <trkpt lat="42.783230" lon="-2.675090">
        <ele>750.468</ele>
        <time>2011-08-06T14:23:25Z</time>
      </trkpt>
      <trkpt lat="42.783170" lon="-2.675190">
        <ele>750.446</ele>
        <time>2011-08-06T14:23:32Z</time>
      </trkpt>
      <trkpt lat="42.783110" lon="-2.675310">
        <ele>750.988</ele>
        <time>2011-08-06T14:23:39Z</time>
      </trkpt>
      <trkpt lat="42.783070" lon="-2.675430">
        <ele>750.016</ele>
        <time>2011-08-06T14:23:46Z</time>
      </trkpt>
      <trkpt lat="42.783050" lon="-2.675560">
        <ele>750.007</ele>
        <time>2011-08-06T14:23:53Z</time>
      </trkpt>
      <trkpt lat="42.783020" lon="-2.675690">
        <ele>749.516</ele>
        <time>2011-08-06T14:24:00Z</time>
      </trkpt>
      <trkpt lat="42.782990" lon="-2.675810">
        <ele>748.057</ele>
        <time>2011-08-06T14:24:07Z</time>
      </trkpt>
      <trkpt lat="42.782920" lon="-2.675910">
        <ele>747.688</ele>
        <time>2011-08-06T14:24:14Z</time>
      </trkpt>
      <trkpt lat="42.782870" lon="-2.676010">
        <ele>746.692</ele>
        <time>2011-08-06T14:24:21Z</time>
      </trkpt>
      <trkpt lat="42.782830" lon="-2.676120">
        <ele>747.165</ele>
        <time>2011-08-06T14:24:28Z</time>
      </trkpt>
      <trkpt lat="42.782767" lon="-2.676251">
        <ele>746.146</ele>
        <time>2011-08-06T14:24:35Z</time>
      </trkpt>
      <trkpt lat="42.782723" lon="-2.676392">
        <ele>746.125</ele>
        <time>2011-08-06T14:24:42Z</time>
      </trkpt>
      <trkpt lat="42.782660" lon="-2.676509">
        <ele>746.145</ele>
        <time>2011-08-06T14:24:49Z</time>
      </trkpt>
      <trkpt lat="42.782593" lon="-2.676656">
        <ele>746.147</ele>
        <time>2011-08-06T14:25:06Z</time>
      </trkpt>
      <trkpt lat="42.782562" lon="-2.676784">
        <ele>745.611</ele>
        <time>2011-08-06T14:25:23Z</time>
      </trkpt>
      <trkpt lat="42.782530" lon="-2.676860">
        <ele>747.107</ele>
        <time>2011-08-06T14:26:26Z</time>
      </trkpt>
      <trkpt lat="42.782480" lon="-2.676970">
        <ele>747.176</ele>
        <time>2011-08-06T14:26:34Z</time>
      </trkpt>
      <trkpt lat="42.782430" lon="-2.677080">
        <ele>747.617</ele>
        <time>2011-08-06T14:26:42Z</time>
      </trkpt>
      <trkpt lat="42.782390" lon="-2.677190">
        <ele>746.648</ele>
        <time>2011-08-06T14:27:01Z</time>
      </trkpt>
      <trkpt lat="42.782380" lon="-2.677330">
        <ele>745.622</ele>
        <time>2011-08-06T14:27:08Z</time>
      </trkpt>
      <trkpt lat="42.782350" lon="-2.677440">
        <ele>746.675</ele>
        <time>2011-08-06T14:27:18Z</time>
      </trkpt>
      <trkpt lat="42.782325" lon="-2.677470">
        <ele>734.098</ele>
        <time>2011-10-01T10:34:37Z</time>
      </trkpt>
      <trkpt lat="42.782267" lon="-2.677568">
        <ele>734.115</ele>
        <time>2011-10-01T10:35:25Z</time>
      </trkpt>
      <trkpt lat="42.782231" lon="-2.677654">
        <ele>737.526</ele>
        <time>2011-10-01T10:35:45Z</time>
      </trkpt>
      <trkpt lat="42.782195" lon="-2.677770">
        <ele>747.107</ele>
        <time>2011-10-01T10:36:43Z</time>
      </trkpt>
      <trkpt lat="42.782173" lon="-2.677874">
        <ele>748.021</ele>
        <time>2011-10-01T10:37:03Z</time>
      </trkpt>
      <trkpt lat="42.782182" lon="-2.677966">
        <ele>748.012</ele>
        <time>2011-10-01T10:37:14Z</time>
      </trkpt>
      <trkpt lat="42.782180" lon="-2.678080">
        <ele>748.584</ele>
        <time>2011-10-01T10:37:24Z</time>
      </trkpt>
      <trkpt lat="42.782160" lon="-2.678210">
        <ele>750.097</ele>
        <time>2011-10-01T10:37:33Z</time>
      </trkpt>
      <trkpt lat="42.782150" lon="-2.678330">
        <ele>751.484</ele>
        <time>2011-10-01T10:37:43Z</time>
      </trkpt>
      <trkpt lat="42.782160" lon="-2.678450">
        <ele>751.449</ele>
        <time>2011-10-01T10:37:53Z</time>
      </trkpt>
      <trkpt lat="42.782160" lon="-2.678590">
        <ele>751.966</ele>
        <time>2011-10-01T10:38:02Z</time>
      </trkpt>
      <trkpt lat="42.782150" lon="-2.678720">
        <ele>752.962</ele>
        <time>2011-10-01T10:38:10Z</time>
      </trkpt>
      <trkpt lat="42.782140" lon="-2.678850">
        <ele>754.383</ele>
        <time>2011-10-01T10:38:18Z</time>
      </trkpt>
      <trkpt lat="42.782135" lon="-2.678981">
        <ele>755.311</ele>
        <time>2011-10-01T10:38:26Z</time>
      </trkpt>
      <trkpt lat="42.782120" lon="-2.679120">
        <ele>755.707</ele>
        <time>2011-10-01T10:38:34Z</time>
      </trkpt>
      <trkpt lat="42.782090" lon="-2.679240">
        <ele>756.758</ele>
        <time>2011-10-01T10:38:42Z</time>
      </trkpt>
      <trkpt lat="42.782060" lon="-2.679360">
        <ele>756.219</ele>
        <time>2011-10-01T10:38:50Z</time>
      </trkpt>
      <trkpt lat="42.782020" lon="-2.679480">
        <ele>758.111</ele>
        <time>2011-10-01T10:38:58Z</time>
      </trkpt>
      <trkpt lat="42.781950" lon="-2.679580">
        <ele>759.164</ele>
        <time>2011-10-01T10:39:06Z</time>
      </trkpt>
      <trkpt lat="42.781880" lon="-2.679670">
        <ele>759.121</ele>
        <time>2011-10-01T10:39:14Z</time>
      </trkpt>
      <trkpt lat="42.781790" lon="-2.679750">
        <ele>759.616</ele>
        <time>2011-10-01T10:39:22Z</time>
      </trkpt>
      <trkpt lat="42.781710" lon="-2.679820">
        <ele>761.063</ele>
        <time>2011-10-01T10:39:29Z</time>
      </trkpt>
      <trkpt lat="42.781620" lon="-2.679890">
        <ele>762.921</ele>
        <time>2011-10-01T10:39:37Z</time>
      </trkpt>
      <trkpt lat="42.781548" lon="-2.679925">
        <ele>763.941</ele>
        <time>2011-10-01T10:39:45Z</time>
      </trkpt>
      <trkpt lat="42.781463" lon="-2.679981">
        <ele>764.405</ele>
        <time>2011-10-01T10:39:52Z</time>
      </trkpt>
      <trkpt lat="42.781391" lon="-2.680048">
        <ele>765.807</ele>
        <time>2011-10-01T10:40:00Z</time>
      </trkpt>
      <trkpt lat="42.781292" lon="-2.680134">
        <ele>766.874</ele>
        <time>2011-10-01T10:40:08Z</time>
      </trkpt>
      <trkpt lat="42.781207" lon="-2.680202">
        <ele>767.325</ele>
        <time>2011-10-01T10:40:16Z</time>
      </trkpt>
      <trkpt lat="42.781040" lon="-2.680264">
        <ele>768.727</ele>
        <time>2011-10-01T10:40:35Z</time>
      </trkpt>
      <trkpt lat="42.780923" lon="-2.680307">
        <ele>769.270</ele>
        <time>2011-10-01T10:40:42Z</time>
      </trkpt>
      <trkpt lat="42.780770" lon="-2.680284">
        <ele>769.257</ele>
        <time>2011-10-01T10:40:56Z</time>
      </trkpt>
      <trkpt lat="42.780608" lon="-2.680260">
        <ele>769.212</ele>
        <time>2011-10-01T10:41:03Z</time>
      </trkpt>
      <trkpt lat="42.780500" lon="-2.680249">
        <ele>769.719</ele>
        <time>2011-10-01T10:41:10Z</time>
      </trkpt>
      <trkpt lat="42.780360" lon="-2.680237">
        <ele>769.732</ele>
        <time>2011-10-01T10:41:17Z</time>
      </trkpt>
      <trkpt lat="42.780290" lon="-2.680300">
        <ele>771.192</ele>
        <time>2011-10-01T10:41:36Z</time>
      </trkpt>
      <trkpt lat="42.780230" lon="-2.680410">
        <ele>771.111</ele>
        <time>2011-10-01T10:41:46Z</time>
      </trkpt>
      <trkpt lat="42.780170" lon="-2.680510">
        <ele>772.107</ele>
        <time>2011-10-01T10:41:54Z</time>
      </trkpt>
      <trkpt lat="42.780091" lon="-2.680617">
        <ele>773.065</ele>
        <time>2011-10-01T10:42:02Z</time>
      </trkpt>
      <trkpt lat="42.780010" lon="-2.680830">
        <ele>774.586</ele>
        <time>2011-10-01T10:42:18Z</time>
      </trkpt>
      <trkpt lat="42.779980" lon="-2.680950">
        <ele>775.068</ele>
        <time>2011-10-01T10:42:27Z</time>
      </trkpt>
      <trkpt lat="42.779950" lon="-2.681070">
        <ele>775.491</ele>
        <time>2011-10-01T10:42:35Z</time>
      </trkpt>
      <trkpt lat="42.779930" lon="-2.681180">
        <ele>776.928</ele>
        <time>2011-10-01T10:42:42Z</time>
      </trkpt>
      <trkpt lat="42.779900" lon="-2.681300">
        <ele>777.823</ele>
        <time>2011-10-01T10:42:49Z</time>
      </trkpt>
      <trkpt lat="42.779880" lon="-2.681430">
        <ele>778.850</ele>
        <time>2011-10-01T10:42:57Z</time>
      </trkpt>
      <trkpt lat="42.779860" lon="-2.681560">
        <ele>778.383</ele>
        <time>2011-10-01T10:43:05Z</time>
      </trkpt>
      <trkpt lat="42.779870" lon="-2.681690">
        <ele>778.325</ele>
        <time>2011-10-01T10:43:13Z</time>
      </trkpt>
      <trkpt lat="42.779890" lon="-2.681820">
        <ele>779.817</ele>
        <time>2011-10-01T10:43:21Z</time>
      </trkpt>
      <trkpt lat="42.779880" lon="-2.681940">
        <ele>780.707</ele>
        <time>2011-10-01T10:43:29Z</time>
      </trkpt>
      <trkpt lat="42.779880" lon="-2.682070">
        <ele>781.710</ele>
        <time>2011-10-01T10:43:38Z</time>
      </trkpt>
      <trkpt lat="42.779890" lon="-2.682200">
        <ele>781.711</ele>
        <time>2011-10-01T10:43:46Z</time>
      </trkpt>
      <trkpt lat="42.779910" lon="-2.682320">
        <ele>783.143</ele>
        <time>2011-10-01T10:43:54Z</time>
      </trkpt>
      <trkpt lat="42.779940" lon="-2.682440">
        <ele>783.656</ele>
        <time>2011-10-01T10:44:02Z</time>
      </trkpt>
      <trkpt lat="42.779960" lon="-2.682570">
        <ele>784.173</ele>
        <time>2011-10-01T10:44:10Z</time>
      </trkpt>
      <trkpt lat="42.779960" lon="-2.682690">
        <ele>785.568</ele>
        <time>2011-10-01T10:44:18Z</time>
      </trkpt>
      <trkpt lat="42.779950" lon="-2.682820">
        <ele>787.995</ele>
        <time>2011-10-01T10:44:26Z</time>
      </trkpt>
      <trkpt lat="42.779950" lon="-2.682960">
        <ele>788.438</ele>
        <time>2011-10-01T10:44:35Z</time>
      </trkpt>
      <trkpt lat="42.779918" lon="-2.683082">
        <ele>787.570</ele>
        <time>2011-10-01T10:44:43Z</time>
      </trkpt>
      <trkpt lat="42.779882" lon="-2.683186">
        <ele>787.917</ele>
        <time>2011-10-01T10:44:51Z</time>
      </trkpt>
      <trkpt lat="42.779833" lon="-2.683302">
        <ele>787.507</ele>
        <time>2011-10-01T10:44:59Z</time>
      </trkpt>
      <trkpt lat="42.779771" lon="-2.683437">
        <ele>788.475</ele>
        <time>2011-10-01T10:45:07Z</time>
      </trkpt>
      <trkpt lat="42.779717" lon="-2.683553">
        <ele>788.926</ele>
        <time>2011-10-01T10:45:15Z</time>
      </trkpt>
      <trkpt lat="42.779672" lon="-2.683651">
        <ele>789.428</ele>
        <time>2011-10-01T10:45:23Z</time>
      </trkpt>
      <trkpt lat="42.779630" lon="-2.683780">
        <ele>789.931</ele>
        <time>2011-10-01T10:45:31Z</time>
      </trkpt>
      <trkpt lat="42.779600" lon="-2.683890">
        <ele>791.348</ele>
        <time>2011-10-01T10:45:39Z</time>
      </trkpt>
      <trkpt lat="42.779580" lon="-2.684010">
        <ele>792.363</ele>
        <time>2011-10-01T10:45:47Z</time>
      </trkpt>
      <trkpt lat="42.779610" lon="-2.684140">
        <ele>794.780</ele>
        <time>2011-10-01T10:45:56Z</time>
      </trkpt>
      <trkpt lat="42.779620" lon="-2.684270">
        <ele>793.775</ele>
        <time>2011-10-01T10:46:04Z</time>
      </trkpt>
      <trkpt lat="42.779630" lon="-2.684410">
        <ele>794.228</ele>
        <time>2011-10-01T10:46:12Z</time>
      </trkpt>
      <trkpt lat="42.779630" lon="-2.684530">
        <ele>793.720</ele>
        <time>2011-10-01T10:46:20Z</time>
      </trkpt>
      <trkpt lat="42.779630" lon="-2.684670">
        <ele>793.707</ele>
        <time>2011-10-01T10:46:28Z</time>
      </trkpt>
      <trkpt lat="42.779580" lon="-2.684740">
        <ele>795.649</ele>
        <time>2011-10-01T10:46:39Z</time>
      </trkpt>
      <trkpt lat="42.779500" lon="-2.684795">
        <ele>795.210</ele>
        <time>2011-10-01T10:46:47Z</time>
      </trkpt>
      <trkpt lat="42.779441" lon="-2.684893">
        <ele>796.122</ele>
        <time>2011-10-01T10:46:54Z</time>
      </trkpt>
      <trkpt lat="42.779415" lon="-2.685022">
        <ele>795.655</ele>
        <time>2011-10-01T10:47:01Z</time>
      </trkpt>
      <trkpt lat="42.779365" lon="-2.685102">
        <ele>795.252</ele>
        <time>2011-10-01T10:47:08Z</time>
      </trkpt>
      <trkpt lat="42.779294" lon="-2.685169">
        <ele>795.617</ele>
        <time>2011-10-01T10:47:15Z</time>
      </trkpt>
      <trkpt lat="42.779217" lon="-2.685194">
        <ele>797.184</ele>
        <time>2011-10-01T10:47:23Z</time>
      </trkpt>
      <trkpt lat="42.779170" lon="-2.685280">
        <ele>798.026</ele>
        <time>2011-10-01T10:48:21Z</time>
      </trkpt>
      <trkpt lat="42.779190" lon="-2.685380">
        <ele>797.547</ele>
        <time>2011-10-01T10:48:29Z</time>
      </trkpt>
      <trkpt lat="42.779140" lon="-2.685490">
        <ele>797.111</ele>
        <time>2011-10-01T10:48:37Z</time>
      </trkpt>
      <trkpt lat="42.779120" lon="-2.685610">
        <ele>797.507</ele>
        <time>2011-10-01T10:48:45Z</time>
      </trkpt>
      <trkpt lat="42.779100" lon="-2.685740">
        <ele>796.184</ele>
        <time>2011-10-01T10:48:52Z</time>
      </trkpt>
      <trkpt lat="42.779080" lon="-2.685850">
        <ele>795.655</ele>
        <time>2011-10-01T10:48:59Z</time>
      </trkpt>
      <trkpt lat="42.779060" lon="-2.686000">
        <ele>795.227</ele>
        <time>2011-10-01T10:49:07Z</time>
      </trkpt>
      <trkpt lat="42.779010" lon="-2.686120">
        <ele>795.270</ele>
        <time>2011-10-01T10:49:14Z</time>
      </trkpt>
      <trkpt lat="42.778932" lon="-2.686235">
        <ele>795.237</ele>
        <time>2011-10-01T10:49:22Z</time>
      </trkpt>
      <trkpt lat="42.778838" lon="-2.686400">
        <ele>794.272</ele>
        <time>2011-10-01T10:49:43Z</time>
      </trkpt>
      <trkpt lat="42.778793" lon="-2.686584">
        <ele>794.239</ele>
        <time>2011-10-01T10:49:50Z</time>
      </trkpt>
      <trkpt lat="42.778785" lon="-2.686749">
        <ele>794.257</ele>
        <time>2011-10-01T10:49:57Z</time>
      </trkpt>
      <trkpt lat="42.778776" lon="-2.686902">
        <ele>794.200</ele>
        <time>2011-10-01T10:50:04Z</time>
      </trkpt>
      <trkpt lat="42.778776" lon="-2.687085">
        <ele>794.720</ele>
        <time>2011-10-01T10:50:12Z</time>
      </trkpt>
      <trkpt lat="42.778718" lon="-2.687226">
        <ele>796.107</ele>
        <time>2011-10-01T10:50:19Z</time>
      </trkpt>
      <trkpt lat="42.778570" lon="-2.687350">
        <ele>797.187</ele>
        <time>2011-10-01T10:50:34Z</time>
      </trkpt>
      <trkpt lat="42.778471" lon="-2.687386">
        <ele>797.528</ele>
        <time>2011-10-01T10:51:04Z</time>
      </trkpt>
      <trkpt lat="42.778354" lon="-2.687429">
        <ele>799.560</ele>
        <time>2011-10-01T10:51:12Z</time>
      </trkpt>
      <trkpt lat="42.778233" lon="-2.687564">
        <ele>800.453</ele>
        <time>2011-10-01T10:51:20Z</time>
      </trkpt>
      <trkpt lat="42.778134" lon="-2.687718">
        <ele>801.920</ele>
        <time>2011-10-01T10:51:36Z</time>
      </trkpt>
      <trkpt lat="42.778090" lon="-2.687883">
        <ele>802.855</ele>
        <time>2011-10-01T10:52:16Z</time>
      </trkpt>
      <trkpt lat="42.778110" lon="-2.688100">
        <ele>803.332</ele>
        <time>2011-10-01T10:52:24Z</time>
      </trkpt>
      <trkpt lat="42.778150" lon="-2.688240">
        <ele>804.356</ele>
        <time>2011-10-01T10:52:32Z</time>
      </trkpt>
      <trkpt lat="42.778200" lon="-2.688380">
        <ele>805.359</ele>
        <time>2011-10-01T10:52:40Z</time>
      </trkpt>
      <trkpt lat="42.778260" lon="-2.688500">
        <ele>805.714</ele>
        <time>2011-10-01T10:52:47Z</time>
      </trkpt>
      <trkpt lat="42.778320" lon="-2.688620">
        <ele>806.707</ele>
        <time>2011-10-01T10:52:55Z</time>
      </trkpt>
      <trkpt lat="42.778500" lon="-2.688970">
        <ele>810.037</ele>
        <time>2011-10-01T10:53:20Z</time>
      </trkpt>
      <trkpt lat="42.778570" lon="-2.689070">
        <ele>811.548</ele>
        <time>2011-10-01T10:53:28Z</time>
      </trkpt>
      <trkpt lat="42.778630" lon="-2.689180">
        <ele>812.440</ele>
        <time>2011-10-01T10:53:36Z</time>
      </trkpt>
      <trkpt lat="42.778660" lon="-2.689300">
        <ele>813.983</ele>
        <time>2011-10-01T10:53:45Z</time>
      </trkpt>
      <trkpt lat="42.778650" lon="-2.689420">
        <ele>814.970</ele>
        <time>2011-10-01T10:53:54Z</time>
      </trkpt>
      <trkpt lat="42.778630" lon="-2.689540">
        <ele>817.355</ele>
        <time>2011-10-01T10:54:03Z</time>
      </trkpt>
      <trkpt lat="42.778550" lon="-2.689610">
        <ele>819.222</ele>
        <time>2011-10-01T10:54:13Z</time>
      </trkpt>
      <trkpt lat="42.778470" lon="-2.689670">
        <ele>820.659</ele>
        <time>2011-10-01T10:54:21Z</time>
      </trkpt>
      <trkpt lat="42.778390" lon="-2.689740">
        <ele>822.103</ele>
        <time>2011-10-01T10:54:30Z</time>
      </trkpt>
      <trkpt lat="42.778223" lon="-2.689869">
        <ele>824.923</ele>
        <time>2011-10-01T10:54:47Z</time>
      </trkpt>
      <trkpt lat="42.777930" lon="-2.689871">
        <ele>828.307</ele>
        <time>2011-10-01T10:55:13Z</time>
      </trkpt>
      <trkpt lat="42.777704" lon="-2.689963">
        <ele>830.237</ele>
        <time>2011-10-01T10:55:24Z</time>
      </trkpt>
      <trkpt lat="42.777358" lon="-2.690289">
        <ele>827.338</ele>
        <time>2011-10-01T10:56:53Z</time>
      </trkpt>
      <trkpt lat="42.777211" lon="-2.690516">
        <ele>827.310</ele>
        <time>2011-10-01T10:57:02Z</time>
      </trkpt>
      <trkpt lat="42.777212" lon="-2.690822">
        <ele>828.343</ele>
        <time>2011-10-01T10:57:10Z</time>
      </trkpt>
      <trkpt lat="42.777168" lon="-2.691097">
        <ele>830.220</ele>
        <time>2011-10-01T10:57:18Z</time>
      </trkpt>
      <trkpt lat="42.776988" lon="-2.691251">
        <ele>829.815</ele>
        <time>2011-10-01T10:57:28Z</time>
      </trkpt>
      <trkpt lat="42.776780" lon="-2.691340">
        <ele>829.352</ele>
        <time>2011-10-01T10:57:38Z</time>
      </trkpt>
      <trkpt lat="42.776610" lon="-2.691380">
        <ele>829.852</ele>
        <time>2011-10-01T10:57:50Z</time>
      </trkpt>
      <trkpt lat="42.776353" lon="-2.691516">
        <ele>830.253</ele>
        <time>2011-10-01T10:58:31Z</time>
      </trkpt>
      <trkpt lat="42.776146" lon="-2.691725">
        <ele>830.708</ele>
        <time>2011-10-01T10:58:40Z</time>
      </trkpt>
      <trkpt lat="42.776061" lon="-2.691958">
        <ele>831.707</ele>
        <time>2011-10-01T10:58:48Z</time>
      </trkpt>
      <trkpt lat="42.776039" lon="-2.692172">
        <ele>831.757</ele>
        <time>2011-10-01T10:58:56Z</time>
      </trkpt>
      <trkpt lat="42.776070" lon="-2.692390">
        <ele>832.788</ele>
        <time>2011-10-01T10:59:12Z</time>
      </trkpt>
      <trkpt lat="42.776136" lon="-2.692539">
        <ele>833.680</ele>
        <time>2011-10-01T10:59:22Z</time>
      </trkpt>
      <trkpt lat="42.776136" lon="-2.692691">
        <ele>835.073</ele>
        <time>2011-10-01T10:59:31Z</time>
      </trkpt>
      <trkpt lat="42.776120" lon="-2.692850">
        <ele>836.520</ele>
        <time>2011-10-01T10:59:40Z</time>
      </trkpt>
      <trkpt lat="42.776140" lon="-2.692990">
        <ele>838.965</ele>
        <time>2011-10-01T10:59:50Z</time>
      </trkpt>
      <trkpt lat="42.776160" lon="-2.693150">
        <ele>840.812</ele>
        <time>2011-10-01T11:00:00Z</time>
      </trkpt>
      <trkpt lat="42.776170" lon="-2.693320">
        <ele>840.888</ele>
        <time>2011-10-01T11:00:10Z</time>
      </trkpt>
      <trkpt lat="42.776150" lon="-2.693440">
        <ele>841.824</ele>
        <time>2011-10-01T11:00:18Z</time>
      </trkpt>
      <trkpt lat="42.776140" lon="-2.693550">
        <ele>840.826</ele>
        <time>2011-10-01T11:01:47Z</time>
      </trkpt>
      <trkpt lat="42.776110" lon="-2.693670">
        <ele>840.307</ele>
        <time>2011-10-01T11:02:11Z</time>
      </trkpt>
      <trkpt lat="42.776080" lon="-2.693790">
        <ele>839.490</ele>
        <time>2011-10-01T11:02:18Z</time>
      </trkpt>
      <trkpt lat="42.776060" lon="-2.693910">
        <ele>838.951</ele>
        <time>2011-10-01T11:02:25Z</time>
      </trkpt>
      <trkpt lat="42.776060" lon="-2.694030">
        <ele>838.973</ele>
        <time>2011-10-01T11:02:32Z</time>
      </trkpt>
      <trkpt lat="42.776080" lon="-2.694160">
        <ele>838.426</ele>
        <time>2011-10-01T11:02:39Z</time>
      </trkpt>
      <trkpt lat="42.776100" lon="-2.694290">
        <ele>837.063</ele>
        <time>2011-10-01T11:02:46Z</time>
      </trkpt>
      <trkpt lat="42.776090" lon="-2.694420">
        <ele>834.678</ele>
        <time>2011-10-01T11:02:53Z</time>
      </trkpt>
      <trkpt lat="42.776090" lon="-2.694540">
        <ele>838.935</ele>
        <time>2011-10-01T11:03:00Z</time>
      </trkpt>
      <trkpt lat="42.776110" lon="-2.694680">
        <ele>835.592</ele>
        <time>2011-10-01T11:03:08Z</time>
      </trkpt>
      <trkpt lat="42.776160" lon="-2.694810">
        <ele>835.073</ele>
        <time>2011-10-01T11:03:16Z</time>
      </trkpt>
      <trkpt lat="42.776230" lon="-2.694900">
        <ele>835.520</ele>
        <time>2011-10-01T11:03:24Z</time>
      </trkpt>
      <trkpt lat="42.776310" lon="-2.694980">
        <ele>835.507</ele>
        <time>2011-10-01T11:03:32Z</time>
      </trkpt>
      <trkpt lat="42.776380" lon="-2.695090">
        <ele>836.081</ele>
        <time>2011-10-01T11:03:40Z</time>
      </trkpt>
      <trkpt lat="42.776440" lon="-2.695180">
        <ele>835.052</ele>
        <time>2011-10-01T11:03:47Z</time>
      </trkpt>
      <trkpt lat="42.776500" lon="-2.695270">
        <ele>833.164</ele>
        <time>2011-10-01T11:03:54Z</time>
      </trkpt>
      <trkpt lat="42.776570" lon="-2.695370">
        <ele>833.677</ele>
        <time>2011-10-01T11:04:02Z</time>
      </trkpt>
      <trkpt lat="42.776620" lon="-2.695490">
        <ele>836.564</ele>
        <time>2011-10-01T11:04:10Z</time>
      </trkpt>
      <trkpt lat="42.776670" lon="-2.695580">
        <ele>836.099</ele>
        <time>2011-10-01T11:04:17Z</time>
      </trkpt>
      <trkpt lat="42.776730" lon="-2.695670">
        <ele>836.046</ele>
        <time>2011-10-01T11:04:24Z</time>
      </trkpt>
      <trkpt lat="42.776800" lon="-2.695750">
        <ele>836.066</ele>
        <time>2011-10-01T11:04:31Z</time>
      </trkpt>
      <trkpt lat="42.776870" lon="-2.695850">
        <ele>836.529</ele>
        <time>2011-10-01T11:04:39Z</time>
      </trkpt>
      <trkpt lat="42.776968" lon="-2.695890">
        <ele>837.921</ele>
        <time>2011-10-01T11:04:47Z</time>
      </trkpt>
      <trkpt lat="42.777044" lon="-2.695901">
        <ele>838.907</ele>
        <time>2011-10-01T11:04:56Z</time>
      </trkpt>
      <trkpt lat="42.777134" lon="-2.695913">
        <ele>840.898</ele>
        <time>2011-10-01T11:05:05Z</time>
      </trkpt>
      <trkpt lat="42.777229" lon="-2.695925">
        <ele>840.879</ele>
        <time>2011-10-01T11:05:14Z</time>
      </trkpt>
      <trkpt lat="42.777319" lon="-2.695931">
        <ele>844.751</ele>
        <time>2011-10-01T11:05:24Z</time>
      </trkpt>
      <trkpt lat="42.777395" lon="-2.695869">
        <ele>845.674</ele>
        <time>2011-10-01T11:05:32Z</time>
      </trkpt>
      <trkpt lat="42.777476" lon="-2.695789">
        <ele>846.161</ele>
        <time>2011-10-01T11:05:40Z</time>
      </trkpt>
      <trkpt lat="42.777570" lon="-2.695800">
        <ele>848.586</ele>
        <time>2011-10-01T11:05:49Z</time>
      </trkpt>
      <trkpt lat="42.777650" lon="-2.695730">
        <ele>848.583</ele>
        <time>2011-10-01T11:05:58Z</time>
      </trkpt>
      <trkpt lat="42.777740" lon="-2.695760">
        <ele>849.496</ele>
        <time>2011-10-01T11:06:07Z</time>
      </trkpt>
      <trkpt lat="42.777930" lon="-2.695770">
        <ele>850.931</ele>
        <time>2011-10-01T11:06:23Z</time>
      </trkpt>
      <trkpt lat="42.778120" lon="-2.695710">
        <ele>852.824</ele>
        <time>2011-10-01T11:06:39Z</time>
      </trkpt>
      <trkpt lat="42.778210" lon="-2.695700">
        <ele>852.807</ele>
        <time>2011-10-01T11:06:47Z</time>
      </trkpt>
      <trkpt lat="42.778290" lon="-2.695690">
        <ele>853.361</ele>
        <time>2011-10-01T11:06:55Z</time>
      </trkpt>
      <trkpt lat="42.778380" lon="-2.695640">
        <ele>854.382</ele>
        <time>2011-10-01T11:07:04Z</time>
      </trkpt>
      <trkpt lat="42.778434" lon="-2.695510">
        <ele>855.764</ele>
        <time>2011-10-01T11:07:12Z</time>
      </trkpt>
      <trkpt lat="42.778538" lon="-2.695375">
        <ele>856.727</ele>
        <time>2011-10-01T11:07:20Z</time>
      </trkpt>
      <trkpt lat="42.778660" lon="-2.695240">
        <ele>857.644</ele>
        <time>2011-10-01T11:07:35Z</time>
      </trkpt>
      <trkpt lat="42.778740" lon="-2.695150">
        <ele>858.699</ele>
        <time>2011-10-01T11:07:43Z</time>
      </trkpt>
      <trkpt lat="42.778830" lon="-2.695120">
        <ele>861.566</ele>
        <time>2011-10-01T11:07:52Z</time>
      </trkpt>
      <trkpt lat="42.778920" lon="-2.695090">
        <ele>863.471</ele>
        <time>2011-10-01T11:08:02Z</time>
      </trkpt>
      <trkpt lat="42.779020" lon="-2.695080">
        <ele>865.841</ele>
        <time>2011-10-01T11:08:12Z</time>
      </trkpt>
      <trkpt lat="42.779110" lon="-2.695120">
        <ele>866.315</ele>
        <time>2011-10-01T11:08:20Z</time>
      </trkpt>
      <trkpt lat="42.779170" lon="-2.695250">
        <ele>867.207</ele>
        <time>2011-10-01T11:08:29Z</time>
      </trkpt>
      <trkpt lat="42.779200" lon="-2.695380">
        <ele>867.719</ele>
        <time>2011-10-01T11:08:37Z</time>
      </trkpt>
      <trkpt lat="42.779250" lon="-2.695520">
        <ele>868.750</ele>
        <time>2011-10-01T11:08:45Z</time>
      </trkpt>
      <trkpt lat="42.779300" lon="-2.695630">
        <ele>869.212</ele>
        <time>2011-10-01T11:08:53Z</time>
      </trkpt>
      <trkpt lat="42.779340" lon="-2.695760">
        <ele>870.175</ele>
        <time>2011-10-01T11:09:00Z</time>
      </trkpt>
      <trkpt lat="42.779390" lon="-2.695870">
        <ele>870.152</ele>
        <time>2011-10-01T11:09:08Z</time>
      </trkpt>
      <trkpt lat="42.779440" lon="-2.695980">
        <ele>871.647</ele>
        <time>2011-10-01T11:09:17Z</time>
      </trkpt>
      <trkpt lat="42.779500" lon="-2.696080">
        <ele>872.544</ele>
        <time>2011-10-01T11:09:24Z</time>
      </trkpt>
      <trkpt lat="42.779550" lon="-2.696190">
        <ele>873.019</ele>
        <time>2011-10-01T11:09:32Z</time>
      </trkpt>
      <trkpt lat="42.779630" lon="-2.696270">
        <ele>875.409</ele>
        <time>2011-10-01T11:09:41Z</time>
      </trkpt>
      <trkpt lat="42.779700" lon="-2.696350">
        <ele>876.819</ele>
        <time>2011-10-01T11:09:50Z</time>
      </trkpt>
      <trkpt lat="42.779750" lon="-2.696450">
        <ele>878.807</ele>
        <time>2011-10-01T11:09:59Z</time>
      </trkpt>
      <trkpt lat="42.779820" lon="-2.696530">
        <ele>880.243</ele>
        <time>2011-10-01T11:10:08Z</time>
      </trkpt>
      <trkpt lat="42.779900" lon="-2.696600">
        <ele>880.784</ele>
        <time>2011-10-01T11:10:17Z</time>
      </trkpt>
      <trkpt lat="42.779960" lon="-2.696690">
        <ele>882.256</ele>
        <time>2011-10-01T11:10:26Z</time>
      </trkpt>
      <trkpt lat="42.780000" lon="-2.696800">
        <ele>884.119</ele>
        <time>2011-10-01T11:10:35Z</time>
      </trkpt>
      <trkpt lat="42.780080" lon="-2.696880">
        <ele>886.046</ele>
        <time>2011-10-01T11:10:44Z</time>
      </trkpt>
      <trkpt lat="42.780150" lon="-2.696960">
        <ele>888.441</ele>
        <time>2011-10-01T11:10:54Z</time>
      </trkpt>
      <trkpt lat="42.780230" lon="-2.697050">
        <ele>891.888</ele>
        <time>2011-10-01T11:11:04Z</time>
      </trkpt>
      <trkpt lat="42.780250" lon="-2.697170">
        <ele>891.333</ele>
        <time>2011-10-01T11:11:13Z</time>
      </trkpt>
      <trkpt lat="42.780300" lon="-2.697280">
        <ele>893.223</ele>
        <time>2011-10-01T11:11:22Z</time>
      </trkpt>
      <trkpt lat="42.780370" lon="-2.697370">
        <ele>895.115</ele>
        <time>2011-10-01T11:11:32Z</time>
      </trkpt>
      <trkpt lat="42.780430" lon="-2.697470">
        <ele>895.107</ele>
        <time>2011-10-01T11:11:41Z</time>
      </trkpt>
      <trkpt lat="42.780490" lon="-2.697570">
        <ele>896.635</ele>
        <time>2011-10-01T11:11:50Z</time>
      </trkpt>
      <trkpt lat="42.780570" lon="-2.697670">
        <ele>898.516</ele>
        <time>2011-10-01T11:11:59Z</time>
      </trkpt>
      <trkpt lat="42.780650" lon="-2.697740">
        <ele>899.028</ele>
        <time>2011-10-01T11:12:07Z</time>
      </trkpt>
      <trkpt lat="42.780730" lon="-2.697770">
        <ele>899.951</ele>
        <time>2011-10-01T11:12:15Z</time>
      </trkpt>
      <trkpt lat="42.780830" lon="-2.697820">
        <ele>903.338</ele>
        <time>2011-10-01T11:12:24Z</time>
      </trkpt>
      <trkpt lat="42.780920" lon="-2.697850">
        <ele>904.313</ele>
        <time>2011-10-01T11:12:33Z</time>
      </trkpt>
      <trkpt lat="42.781010" lon="-2.697880">
        <ele>905.760</ele>
        <time>2011-10-01T11:12:42Z</time>
      </trkpt>
      <trkpt lat="42.781100" lon="-2.697910">
        <ele>906.744</ele>
        <time>2011-10-01T11:12:51Z</time>
      </trkpt>
      <trkpt lat="42.781190" lon="-2.697940">
        <ele>908.105</ele>
        <time>2011-10-01T11:13:00Z</time>
      </trkpt>
      <trkpt lat="42.781280" lon="-2.698020">
        <ele>911.015</ele>
        <time>2011-10-01T11:13:09Z</time>
      </trkpt>
      <trkpt lat="42.781360" lon="-2.698050">
        <ele>912.407</ele>
        <time>2011-10-01T11:13:18Z</time>
      </trkpt>
      <trkpt lat="42.781450" lon="-2.698090">
        <ele>913.986</ele>
        <time>2011-10-01T11:13:27Z</time>
      </trkpt>
      <trkpt lat="42.781540" lon="-2.698100">
        <ele>915.817</ele>
        <time>2011-10-01T11:13:36Z</time>
      </trkpt>
      <trkpt lat="42.781630" lon="-2.698150">
        <ele>917.289</ele>
        <time>2011-10-01T11:13:46Z</time>
      </trkpt>
      <trkpt lat="42.781720" lon="-2.698140">
        <ele>918.752</ele>
        <time>2011-10-01T11:13:55Z</time>
      </trkpt>
      <trkpt lat="42.781820" lon="-2.698150">
        <ele>920.669</ele>
        <time>2011-10-01T11:14:04Z</time>
      </trkpt>
      <trkpt lat="42.781900" lon="-2.698220">
        <ele>921.164</ele>
        <time>2011-10-01T11:14:12Z</time>
      </trkpt>
      <trkpt lat="42.781980" lon="-2.698300">
        <ele>920.611</ele>
        <time>2011-10-01T11:14:22Z</time>
      </trkpt>
      <trkpt lat="42.782050" lon="-2.698390">
        <ele>921.187</ele>
        <time>2011-10-01T11:14:30Z</time>
      </trkpt>
      <trkpt lat="42.782100" lon="-2.698500">
        <ele>920.642</ele>
        <time>2011-10-01T11:14:37Z</time>
      </trkpt>
      <trkpt lat="42.782160" lon="-2.698590">
        <ele>920.626</ele>
        <time>2011-10-01T11:14:44Z</time>
      </trkpt>
      <trkpt lat="42.782190" lon="-2.698720">
        <ele>920.607</ele>
        <time>2011-10-01T11:14:52Z</time>
      </trkpt>
      <trkpt lat="42.782190" lon="-2.698850">
        <ele>919.630</ele>
        <time>2011-10-01T11:15:00Z</time>
      </trkpt>
      <trkpt lat="42.782200" lon="-2.698980">
        <ele>918.731</ele>
        <time>2011-10-01T11:15:08Z</time>
      </trkpt>
      <trkpt lat="42.782210" lon="-2.699110">
        <ele>918.213</ele>
        <time>2011-10-01T11:15:16Z</time>
      </trkpt>
      <trkpt lat="42.782240" lon="-2.699240">
        <ele>917.276</ele>
        <time>2011-10-01T11:15:25Z</time>
      </trkpt>
      <trkpt lat="42.782260" lon="-2.699360">
        <ele>916.763</ele>
        <time>2011-10-01T11:15:33Z</time>
      </trkpt>
      <trkpt lat="42.782300" lon="-2.699490">
        <ele>916.798</ele>
        <time>2011-10-01T11:15:41Z</time>
      </trkpt>
      <trkpt lat="42.782320" lon="-2.699620">
        <ele>916.755</ele>
        <time>2011-10-01T11:15:50Z</time>
      </trkpt>
      <trkpt lat="42.782310" lon="-2.699750">
        <ele>915.873</ele>
        <time>2011-10-01T11:15:59Z</time>
      </trkpt>
      <trkpt lat="42.782310" lon="-2.699890">
        <ele>914.885</ele>
        <time>2011-10-01T11:16:07Z</time>
      </trkpt>
      <trkpt lat="42.782340" lon="-2.700020">
        <ele>915.313</ele>
        <time>2011-10-01T11:16:15Z</time>
      </trkpt>
      <trkpt lat="42.782380" lon="-2.700140">
        <ele>915.807</ele>
        <time>2011-10-01T11:16:23Z</time>
      </trkpt>
      <trkpt lat="42.782420" lon="-2.700250">
        <ele>916.759</ele>
        <time>2011-10-01T11:16:31Z</time>
      </trkpt>
      <trkpt lat="42.782460" lon="-2.700360">
        <ele>917.210</ele>
        <time>2011-10-01T11:16:40Z</time>
      </trkpt>
      <trkpt lat="42.782510" lon="-2.700470">
        <ele>918.282</ele>
        <time>2011-10-01T11:16:49Z</time>
      </trkpt>
      <trkpt lat="42.782560" lon="-2.700590">
        <ele>919.695</ele>
        <time>2011-10-01T11:16:58Z</time>
      </trkpt>
      <trkpt lat="42.782620" lon="-2.700700">
        <ele>920.632</ele>
        <time>2011-10-01T11:17:07Z</time>
      </trkpt>
      <trkpt lat="42.782660" lon="-2.700810">
        <ele>921.687</ele>
        <time>2011-10-01T11:17:16Z</time>
      </trkpt>
      <trkpt lat="42.782700" lon="-2.700930">
        <ele>923.584</ele>
        <time>2011-10-01T11:17:26Z</time>
      </trkpt>
      <trkpt lat="42.782750" lon="-2.701050">
        <ele>925.968</ele>
        <time>2011-10-01T11:17:36Z</time>
      </trkpt>
      <trkpt lat="42.782810" lon="-2.701160">
        <ele>927.842</ele>
        <time>2011-10-01T11:17:46Z</time>
      </trkpt>
      <trkpt lat="42.782870" lon="-2.701260">
        <ele>929.226</ele>
        <time>2011-10-01T11:17:56Z</time>
      </trkpt>
      <trkpt lat="42.782940" lon="-2.701340">
        <ele>930.707</ele>
        <time>2011-10-01T11:18:06Z</time>
      </trkpt>
      <trkpt lat="42.783010" lon="-2.701410">
        <ele>933.158</ele>
        <time>2011-10-01T11:18:16Z</time>
      </trkpt>
      <trkpt lat="42.783080" lon="-2.701490">
        <ele>936.049</ele>
        <time>2011-10-01T11:18:27Z</time>
      </trkpt>
      <trkpt lat="42.783160" lon="-2.701570">
        <ele>938.491</ele>
        <time>2011-10-01T11:18:38Z</time>
      </trkpt>
      <trkpt lat="42.783230" lon="-2.701650">
        <ele>940.374</ele>
        <time>2011-10-01T11:18:49Z</time>
      </trkpt>
      <trkpt lat="42.783300" lon="-2.701720">
        <ele>944.671</ele>
        <time>2011-10-01T11:19:00Z</time>
      </trkpt>
      <trkpt lat="42.783370" lon="-2.701820">
        <ele>945.126</ele>
        <time>2011-10-01T11:19:11Z</time>
      </trkpt>
      <trkpt lat="42.783430" lon="-2.701920">
        <ele>948.053</ele>
        <time>2011-10-01T11:19:21Z</time>
      </trkpt>
      <trkpt lat="42.783500" lon="-2.702010">
        <ele>950.915</ele>
        <time>2011-10-01T11:19:32Z</time>
      </trkpt>
      <trkpt lat="42.783560" lon="-2.702100">
        <ele>951.865</ele>
        <time>2011-10-01T11:19:43Z</time>
      </trkpt>
      <trkpt lat="42.783630" lon="-2.702190">
        <ele>954.211</ele>
        <time>2011-10-01T11:19:58Z</time>
      </trkpt>
      <trkpt lat="42.783690" lon="-2.702280">
        <ele>955.707</ele>
        <time>2011-10-01T11:20:08Z</time>
      </trkpt>
      <trkpt lat="42.783770" lon="-2.702360">
        <ele>959.583</ele>
        <time>2011-10-01T11:20:19Z</time>
      </trkpt>
      <trkpt lat="42.783840" lon="-2.702430">
        <ele>961.924</ele>
        <time>2011-10-01T11:20:30Z</time>
      </trkpt>
      <trkpt lat="42.783920" lon="-2.702500">
        <ele>964.886</ele>
        <time>2011-10-01T11:20:44Z</time>
      </trkpt>
      <trkpt lat="42.784000" lon="-2.702530">
        <ele>967.239</ele>
        <time>2011-10-01T11:20:55Z</time>
      </trkpt>
      <trkpt lat="42.784100" lon="-2.702550">
        <ele>970.196</ele>
        <time>2011-10-01T11:21:07Z</time>
      </trkpt>
      <trkpt lat="42.784180" lon="-2.702560">
        <ele>972.071</ele>
        <time>2011-10-01T11:21:20Z</time>
      </trkpt>
      <trkpt lat="42.784270" lon="-2.702620">
        <ele>974.068</ele>
        <time>2011-10-01T11:21:31Z</time>
      </trkpt>
      <trkpt lat="42.784350" lon="-2.702690">
        <ele>977.816</ele>
        <time>2011-10-01T11:21:42Z</time>
      </trkpt>
      <trkpt lat="42.784420" lon="-2.702770">
        <ele>979.276</ele>
        <time>2011-10-01T11:21:53Z</time>
      </trkpt>
      <trkpt lat="42.784480" lon="-2.702870">
        <ele>981.213</ele>
        <time>2011-10-01T11:22:03Z</time>
      </trkpt>
      <trkpt lat="42.784540" lon="-2.702960">
        <ele>985.007</ele>
        <time>2011-10-01T11:22:13Z</time>
      </trkpt>
      <trkpt lat="42.784590" lon="-2.703070">
        <ele>987.493</ele>
        <time>2011-10-01T11:22:24Z</time>
      </trkpt>
      <trkpt lat="42.784569" lon="-2.703206">
        <ele>987.454</ele>
        <time>2011-10-01T11:22:33Z</time>
      </trkpt>
      <trkpt lat="42.784556" lon="-2.703341">
        <ele>987.436</ele>
        <time>2011-10-01T11:22:41Z</time>
      </trkpt>
      <trkpt lat="42.784540" lon="-2.703440">
        <ele>987.449</ele>
        <time>2011-10-01T11:22:51Z</time>
      </trkpt>
      <trkpt lat="42.784500" lon="-2.703550">
        <ele>986.916</ele>
        <time>2011-10-01T11:22:58Z</time>
      </trkpt>
      <trkpt lat="42.784450" lon="-2.703670">
        <ele>986.581</ele>
        <time>2011-10-01T11:23:06Z</time>
      </trkpt>
      <trkpt lat="42.784409" lon="-2.703763">
        <ele>986.578</ele>
        <time>2011-10-01T11:23:14Z</time>
      </trkpt>
      <trkpt lat="42.784346" lon="-2.703849">
        <ele>986.523</ele>
        <time>2011-10-01T11:23:21Z</time>
      </trkpt>
      <trkpt lat="42.784274" lon="-2.703978">
        <ele>986.583</ele>
        <time>2011-10-01T11:23:29Z</time>
      </trkpt>
      <trkpt lat="42.784230" lon="-2.704070">
        <ele>986.511</ele>
        <time>2011-10-01T11:23:36Z</time>
      </trkpt>
      <trkpt lat="42.784180" lon="-2.704190">
        <ele>987.907</ele>
        <time>2011-10-01T11:23:44Z</time>
      </trkpt>
      <trkpt lat="42.784160" lon="-2.704310">
        <ele>989.814</ele>
        <time>2011-10-01T11:23:52Z</time>
      </trkpt>
      <trkpt lat="42.784170" lon="-2.704440">
        <ele>991.795</ele>
        <time>2011-10-01T11:24:01Z</time>
      </trkpt>
      <trkpt lat="42.784170" lon="-2.704570">
        <ele>992.727</ele>
        <time>2011-10-01T11:24:10Z</time>
      </trkpt>
      <trkpt lat="42.784190" lon="-2.704700">
        <ele>993.660</ele>
        <time>2011-10-01T11:24:18Z</time>
      </trkpt>
      <trkpt lat="42.784200" lon="-2.704840">
        <ele>994.177</ele>
        <time>2011-10-01T11:24:26Z</time>
      </trkpt>
      <trkpt lat="42.784210" lon="-2.704970">
        <ele>994.622</ele>
        <time>2011-10-01T11:24:34Z</time>
      </trkpt>
      <trkpt lat="42.784200" lon="-2.705110">
        <ele>994.639</ele>
        <time>2011-10-01T11:24:42Z</time>
      </trkpt>
      <trkpt lat="42.784240" lon="-2.705220">
        <ele>996.581</ele>
        <time>2011-10-01T11:24:50Z</time>
      </trkpt>
      <trkpt lat="42.784270" lon="-2.705330">
        <ele>999.461</ele>
        <time>2011-10-01T11:25:03Z</time>
      </trkpt>
      <trkpt lat="42.784260" lon="-2.705360">
        <ele>996.517</ele>
        <time>2011-10-01T11:26:56Z</time>
      </trkpt>
      <trkpt lat="42.784170" lon="-2.705410">
        <ele>996.507</ele>
        <time>2011-10-01T11:27:08Z</time>
      </trkpt>
      <trkpt lat="42.784090" lon="-2.705480">
        <ele>994.190</ele>
        <time>2011-10-01T11:27:17Z</time>
      </trkpt>
      <trkpt lat="42.784020" lon="-2.705570">
        <ele>993.251</ele>
        <time>2011-10-01T11:27:25Z</time>
      </trkpt>
      <trkpt lat="42.783970" lon="-2.705670">
        <ele>992.283</ele>
        <time>2011-10-01T11:27:33Z</time>
      </trkpt>
      <trkpt lat="42.783920" lon="-2.705770">
        <ele>990.816</ele>
        <time>2011-10-01T11:27:41Z</time>
      </trkpt>
      <trkpt lat="42.783860" lon="-2.705870">
        <ele>988.493</ele>
        <time>2011-10-01T11:27:49Z</time>
      </trkpt>
      <trkpt lat="42.783800" lon="-2.705970">
        <ele>987.968</ele>
        <time>2011-10-01T11:27:57Z</time>
      </trkpt>
      <trkpt lat="42.783740" lon="-2.706070">
        <ele>985.525</ele>
        <time>2011-10-01T11:28:05Z</time>
      </trkpt>
      <trkpt lat="42.783710" lon="-2.706170">
        <ele>985.551</ele>
        <time>2011-10-01T11:28:17Z</time>
      </trkpt>
      <trkpt lat="42.783700" lon="-2.706300">
        <ele>982.601</ele>
        <time>2011-10-01T11:28:24Z</time>
      </trkpt>
      <trkpt lat="42.783690" lon="-2.706420">
        <ele>981.611</ele>
        <time>2011-10-01T11:28:31Z</time>
      </trkpt>
      <trkpt lat="42.783690" lon="-2.706540">
        <ele>978.807</ele>
        <time>2011-10-01T11:28:41Z</time>
      </trkpt>
      <trkpt lat="42.783670" lon="-2.706670">
        <ele>977.857</ele>
        <time>2011-10-01T11:28:49Z</time>
      </trkpt>
      <trkpt lat="42.783670" lon="-2.706800">
        <ele>974.418</ele>
        <time>2011-10-01T11:28:57Z</time>
      </trkpt>
      <trkpt lat="42.783650" lon="-2.706930">
        <ele>972.090</ele>
        <time>2011-10-01T11:29:10Z</time>
      </trkpt>
      <trkpt lat="42.783650" lon="-2.707050">
        <ele>971.683</ele>
        <time>2011-10-01T11:29:16Z</time>
      </trkpt>
      <trkpt lat="42.783640" lon="-2.707190">
        <ele>971.190</ele>
        <time>2011-10-01T11:29:22Z</time>
      </trkpt>
      <trkpt lat="42.783620" lon="-2.707320">
        <ele>969.145</ele>
        <time>2011-10-01T11:29:28Z</time>
      </trkpt>
      <trkpt lat="42.783610" lon="-2.707450">
        <ele>968.212</ele>
        <time>2011-10-01T11:29:34Z</time>
      </trkpt>
      <trkpt lat="42.783580" lon="-2.707570">
        <ele>969.668</ele>
        <time>2011-10-01T11:29:40Z</time>
      </trkpt>
      <trkpt lat="42.783550" lon="-2.707700">
        <ele>970.642</ele>
        <time>2011-10-01T11:29:47Z</time>
      </trkpt>
      <trkpt lat="42.783530" lon="-2.707820">
        <ele>969.626</ele>
        <time>2011-10-01T11:29:55Z</time>
      </trkpt>
      <trkpt lat="42.783510" lon="-2.707950">
        <ele>969.607</ele>
        <time>2011-10-01T11:30:02Z</time>
      </trkpt>
      <trkpt lat="42.783470" lon="-2.708070">
        <ele>970.158</ele>
        <time>2011-10-01T11:30:09Z</time>
      </trkpt>
      <trkpt lat="42.783440" lon="-2.708180">
        <ele>970.139</ele>
        <time>2011-10-01T11:30:16Z</time>
      </trkpt>
      <trkpt lat="42.783410" lon="-2.708310">
        <ele>971.121</ele>
        <time>2011-10-01T11:30:24Z</time>
      </trkpt>
      <trkpt lat="42.783380" lon="-2.708440">
        <ele>970.674</ele>
        <time>2011-10-01T11:30:32Z</time>
      </trkpt>
      <trkpt lat="42.783360" lon="-2.708560">
        <ele>970.671</ele>
        <time>2011-10-01T11:30:40Z</time>
      </trkpt>
      <trkpt lat="42.783360" lon="-2.708700">
        <ele>970.626</ele>
        <time>2011-10-01T11:30:48Z</time>
      </trkpt>
      <trkpt lat="42.783370" lon="-2.708830">
        <ele>971.143</ele>
        <time>2011-10-01T11:30:56Z</time>
      </trkpt>
      <trkpt lat="42.783380" lon="-2.708970">
        <ele>972.035</ele>
        <time>2011-10-01T11:31:04Z</time>
      </trkpt>
      <trkpt lat="42.783390" lon="-2.709090">
        <ele>972.086</ele>
        <time>2011-10-01T11:31:12Z</time>
      </trkpt>
      <trkpt lat="42.783410" lon="-2.709230">
        <ele>971.614</ele>
        <time>2011-10-01T11:31:20Z</time>
      </trkpt>
      <trkpt lat="42.783430" lon="-2.709350">
        <ele>971.107</ele>
        <time>2011-10-01T11:31:29Z</time>
      </trkpt>
      <trkpt lat="42.783460" lon="-2.709480">
        <ele>969.645</ele>
        <time>2011-10-01T11:31:37Z</time>
      </trkpt>
      <trkpt lat="42.783480" lon="-2.709600">
        <ele>968.786</ele>
        <time>2011-10-01T11:31:44Z</time>
      </trkpt>
      <trkpt lat="42.783510" lon="-2.709720">
        <ele>969.148</ele>
        <time>2011-10-01T11:31:52Z</time>
      </trkpt>
      <trkpt lat="42.783530" lon="-2.709860">
        <ele>967.291</ele>
        <time>2011-10-01T11:32:12Z</time>
      </trkpt>
      <trkpt lat="42.783560" lon="-2.709980">
        <ele>966.778</ele>
        <time>2011-10-01T11:32:20Z</time>
      </trkpt>
      <trkpt lat="42.783580" lon="-2.710100">
        <ele>965.893</ele>
        <time>2011-10-01T11:32:27Z</time>
      </trkpt>
      <trkpt lat="42.783610" lon="-2.710230">
        <ele>964.820</ele>
        <time>2011-10-01T11:32:35Z</time>
      </trkpt>
      <trkpt lat="42.783620" lon="-2.710360">
        <ele>963.924</ele>
        <time>2011-10-01T11:32:43Z</time>
      </trkpt>
      <trkpt lat="42.783620" lon="-2.710490">
        <ele>963.404</ele>
        <time>2011-10-01T11:32:51Z</time>
      </trkpt>
      <trkpt lat="42.783630" lon="-2.710610">
        <ele>961.514</ele>
        <time>2011-10-01T11:32:58Z</time>
      </trkpt>
      <trkpt lat="42.783640" lon="-2.710740">
        <ele>961.507</ele>
        <time>2011-10-01T11:33:05Z</time>
      </trkpt>
      <trkpt lat="42.783670" lon="-2.710860">
        <ele>961.094</ele>
        <time>2011-10-01T11:33:12Z</time>
      </trkpt>
      <trkpt lat="42.783700" lon="-2.710970">
        <ele>960.595</ele>
        <time>2011-10-01T11:33:19Z</time>
      </trkpt>
      <trkpt lat="42.783720" lon="-2.711100">
        <ele>960.567</ele>
        <time>2011-10-01T11:33:27Z</time>
      </trkpt>
      <trkpt lat="42.783740" lon="-2.711220">
        <ele>959.590</ele>
        <time>2011-10-01T11:33:34Z</time>
      </trkpt>
      <trkpt lat="42.783770" lon="-2.711350">
        <ele>958.647</ele>
        <time>2011-10-01T11:33:42Z</time>
      </trkpt>
      <trkpt lat="42.783810" lon="-2.711460">
        <ele>957.132</ele>
        <time>2011-10-01T11:33:50Z</time>
      </trkpt>
      <trkpt lat="42.783840" lon="-2.711580">
        <ele>957.149</ele>
        <time>2011-10-01T11:33:58Z</time>
      </trkpt>
      <trkpt lat="42.783880" lon="-2.711700">
        <ele>954.786</ele>
        <time>2011-10-01T11:34:06Z</time>
      </trkpt>
      <trkpt lat="42.783910" lon="-2.711830">
        <ele>952.860</ele>
        <time>2011-10-01T11:34:14Z</time>
      </trkpt>
      <trkpt lat="42.783950" lon="-2.711960">
        <ele>951.426</ele>
        <time>2011-10-01T11:34:22Z</time>
      </trkpt>
      <trkpt lat="42.783980" lon="-2.712070">
        <ele>949.507</ele>
        <time>2011-10-01T11:34:30Z</time>
      </trkpt>
      <trkpt lat="42.784010" lon="-2.712190">
        <ele>948.550</ele>
        <time>2011-10-01T11:34:38Z</time>
      </trkpt>
      <trkpt lat="42.784030" lon="-2.712330">
        <ele>946.161</ele>
        <time>2011-10-01T11:34:46Z</time>
      </trkpt>
      <trkpt lat="42.784050" lon="-2.712460">
        <ele>944.123</ele>
        <time>2011-10-01T11:34:54Z</time>
      </trkpt>
      <trkpt lat="42.784070" lon="-2.712590">
        <ele>942.776</ele>
        <time>2011-10-01T11:35:02Z</time>
      </trkpt>
      <trkpt lat="42.784090" lon="-2.712730">
        <ele>941.323</ele>
        <time>2011-10-01T11:35:10Z</time>
      </trkpt>
      <trkpt lat="42.784120" lon="-2.712850">
        <ele>940.328</ele>
        <time>2011-10-01T11:35:18Z</time>
      </trkpt>
      <trkpt lat="42.784130" lon="-2.712990">
        <ele>939.365</ele>
        <time>2011-10-01T11:35:26Z</time>
      </trkpt>
      <trkpt lat="42.784180" lon="-2.713090">
        <ele>937.454</ele>
        <time>2011-10-01T11:35:34Z</time>
      </trkpt>
      <trkpt lat="42.784250" lon="-2.713170">
        <ele>936.056</ele>
        <time>2011-10-01T11:35:42Z</time>
      </trkpt>
      <trkpt lat="42.784330" lon="-2.713230">
        <ele>935.511</ele>
        <time>2011-10-01T11:35:50Z</time>
      </trkpt>
      <trkpt lat="42.784420" lon="-2.713280">
        <ele>935.007</ele>
        <time>2011-10-01T11:35:59Z</time>
      </trkpt>
      <trkpt lat="42.784700" lon="-2.713480">
        <ele>929.737</ele>
        <time>2011-10-01T11:36:32Z</time>
      </trkpt>
      <trkpt lat="42.784780" lon="-2.713600">
        <ele>927.878</ele>
        <time>2011-10-01T11:36:41Z</time>
      </trkpt>
      <trkpt lat="42.784840" lon="-2.713710">
        <ele>929.290</ele>
        <time>2011-10-01T11:36:49Z</time>
      </trkpt>
      <trkpt lat="42.784860" lon="-2.713860">
        <ele>929.223</ele>
        <time>2011-10-01T11:36:57Z</time>
      </trkpt>
      <trkpt lat="42.784880" lon="-2.713990">
        <ele>929.240</ele>
        <time>2011-10-01T11:37:04Z</time>
      </trkpt>
      <trkpt lat="42.784900" lon="-2.714120">
        <ele>929.245</ele>
        <time>2011-10-01T11:37:11Z</time>
      </trkpt>
      <trkpt lat="42.784910" lon="-2.714270">
        <ele>928.322</ele>
        <time>2011-10-01T11:37:19Z</time>
      </trkpt>
      <trkpt lat="42.784940" lon="-2.714410">
        <ele>929.281</ele>
        <time>2011-10-01T11:37:27Z</time>
      </trkpt>
      <trkpt lat="42.784950" lon="-2.714570">
        <ele>928.861</ele>
        <time>2011-10-01T11:37:35Z</time>
      </trkpt>
      <trkpt lat="42.784950" lon="-2.714710">
        <ele>925.917</ele>
        <time>2011-10-01T11:37:43Z</time>
      </trkpt>
      <trkpt lat="42.784990" lon="-2.714820">
        <ele>925.407</ele>
        <time>2011-10-01T11:37:51Z</time>
      </trkpt>
      <trkpt lat="42.785000" lon="-2.714950">
        <ele>924.530</ele>
        <time>2011-10-01T11:37:59Z</time>
      </trkpt>
      <trkpt lat="42.785040" lon="-2.715250">
        <ele>921.131</ele>
        <time>2011-10-01T11:38:20Z</time>
      </trkpt>
      <trkpt lat="42.785070" lon="-2.715540">
        <ele>918.273</ele>
        <time>2011-10-01T11:38:37Z</time>
      </trkpt>
      <trkpt lat="42.785100" lon="-2.715690">
        <ele>916.736</ele>
        <time>2011-10-01T11:38:46Z</time>
      </trkpt>
      <trkpt lat="42.785160" lon="-2.715810">
        <ele>915.873</ele>
        <time>2011-10-01T11:38:54Z</time>
      </trkpt>
      <trkpt lat="42.785130" lon="-2.716070">
        <ele>910.558</ele>
        <time>2011-10-01T11:39:10Z</time>
      </trkpt>
      <trkpt lat="42.785110" lon="-2.716220">
        <ele>910.555</ele>
        <time>2011-10-01T11:39:17Z</time>
      </trkpt>
      <trkpt lat="42.785090" lon="-2.716360">
        <ele>909.171</ele>
        <time>2011-10-01T11:39:25Z</time>
      </trkpt>
      <trkpt lat="42.785030" lon="-2.716500">
        <ele>906.741</ele>
        <time>2011-10-01T11:39:35Z</time>
      </trkpt>
      <trkpt lat="42.785010" lon="-2.716970">
        <ele>894.615</ele>
        <time>2011-10-01T11:40:32Z</time>
      </trkpt>
      <trkpt lat="42.785060" lon="-2.717220">
        <ele>890.307</ele>
        <time>2011-10-01T11:40:46Z</time>
      </trkpt>
      <trkpt lat="42.785080" lon="-2.717380">
        <ele>886.579</ele>
        <time>2011-10-01T11:40:57Z</time>
      </trkpt>
      <trkpt lat="42.785110" lon="-2.717550">
        <ele>884.160</ele>
        <time>2011-10-01T11:41:05Z</time>
      </trkpt>
      <trkpt lat="42.785150" lon="-2.717710">
        <ele>881.742</ele>
        <time>2011-10-01T11:41:13Z</time>
      </trkpt>
      <trkpt lat="42.785190" lon="-2.717860">
        <ele>880.265</ele>
        <time>2011-10-01T11:41:21Z</time>
      </trkpt>
      <trkpt lat="42.785210" lon="-2.717990">
        <ele>877.892</ele>
        <time>2011-10-01T11:41:29Z</time>
      </trkpt>
      <trkpt lat="42.785210" lon="-2.718140">
        <ele>875.437</ele>
        <time>2011-10-01T11:41:39Z</time>
      </trkpt>
      <trkpt lat="42.785220" lon="-2.718280">
        <ele>874.594</ele>
        <time>2011-10-01T11:41:54Z</time>
      </trkpt>
      <trkpt lat="42.785200" lon="-2.718420">
        <ele>872.516</ele>
        <time>2011-10-01T11:42:02Z</time>
      </trkpt>
      <trkpt lat="42.785180" lon="-2.718550">
        <ele>869.276</ele>
        <time>2011-10-01T11:42:10Z</time>
      </trkpt>
      <trkpt lat="42.785150" lon="-2.718680">
        <ele>867.213</ele>
        <time>2011-10-01T11:42:18Z</time>
      </trkpt>
      <trkpt lat="42.785150" lon="-2.718820">
        <ele>866.307</ele>
        <time>2011-10-01T11:42:26Z</time>
      </trkpt>
      <trkpt lat="42.785190" lon="-2.718950">
        <ele>865.893</ele>
        <time>2011-10-01T11:42:34Z</time>
      </trkpt>
      <trkpt lat="42.785284" lon="-2.718993">
        <ele>862.414</ele>
        <time>2011-10-01T11:42:42Z</time>
      </trkpt>
      <trkpt lat="42.785379" lon="-2.718962">
        <ele>862.426</ele>
        <time>2011-10-01T11:42:49Z</time>
      </trkpt>
      <trkpt lat="42.785469" lon="-2.718919">
        <ele>862.019</ele>
        <time>2011-10-01T11:42:56Z</time>
      </trkpt>
      <trkpt lat="42.785559" lon="-2.718876">
        <ele>859.666</ele>
        <time>2011-10-01T11:43:03Z</time>
      </trkpt>
      <trkpt lat="42.785660" lon="-2.718900">
        <ele>857.291</ele>
        <time>2011-10-01T11:43:11Z</time>
      </trkpt>
      <trkpt lat="42.785750" lon="-2.718940">
        <ele>855.288</ele>
        <time>2011-10-01T11:43:19Z</time>
      </trkpt>
      <trkpt lat="42.785840" lon="-2.718980">
        <ele>854.323</ele>
        <time>2011-10-01T11:43:27Z</time>
      </trkpt>
      <trkpt lat="42.785920" lon="-2.719040">
        <ele>849.983</ele>
        <time>2011-10-01T11:43:36Z</time>
      </trkpt>
      <trkpt lat="42.785980" lon="-2.719170">
        <ele>848.011</ele>
        <time>2011-10-01T11:43:46Z</time>
      </trkpt>
      <trkpt lat="42.785990" lon="-2.719300">
        <ele>846.107</ele>
        <time>2011-10-01T11:43:54Z</time>
      </trkpt>
      <trkpt lat="42.786030" lon="-2.719430">
        <ele>843.774</ele>
        <time>2011-10-01T11:44:02Z</time>
      </trkpt>
      <trkpt lat="42.786080" lon="-2.719530">
        <ele>840.835</ele>
        <time>2011-10-01T11:44:09Z</time>
      </trkpt>
      <trkpt lat="42.786160" lon="-2.719610">
        <ele>840.857</ele>
        <time>2011-10-01T11:44:16Z</time>
      </trkpt>
      <trkpt lat="42.786210" lon="-2.719700">
        <ele>839.470</ele>
        <time>2011-10-01T11:44:23Z</time>
      </trkpt>
      <trkpt lat="42.786250" lon="-2.719783">
        <ele>840.887</ele>
        <time>2011-10-01T11:45:07Z</time>
      </trkpt>
      <trkpt lat="42.786340" lon="-2.719770">
        <ele>839.432</ele>
        <time>2011-10-01T11:45:32Z</time>
      </trkpt>
      <trkpt lat="42.786420" lon="-2.719810">
        <ele>837.989</ele>
        <time>2011-10-01T11:45:47Z</time>
      </trkpt>
      <trkpt lat="42.786500" lon="-2.719880">
        <ele>836.064</ele>
        <time>2011-10-01T11:45:58Z</time>
      </trkpt>
      <trkpt lat="42.786550" lon="-2.719960">
        <ele>833.606</ele>
        <time>2011-10-01T11:46:29Z</time>
      </trkpt>
      <trkpt lat="42.786630" lon="-2.720060">
        <ele>833.116</ele>
        <time>2011-10-01T11:46:37Z</time>
      </trkpt>
      <trkpt lat="42.786700" lon="-2.720150">
        <ele>831.707</ele>
        <time>2011-10-01T11:46:44Z</time>
      </trkpt>
      <trkpt lat="42.786780" lon="-2.720240">
        <ele>831.278</ele>
        <time>2011-10-01T11:46:51Z</time>
      </trkpt>
      <trkpt lat="42.786860" lon="-2.720310">
        <ele>831.269</ele>
        <time>2011-10-01T11:46:59Z</time>
      </trkpt>
      <trkpt lat="42.786950" lon="-2.720390">
        <ele>829.841</ele>
        <time>2011-10-01T11:47:06Z</time>
      </trkpt>
      <trkpt lat="42.787020" lon="-2.720480">
        <ele>828.344</ele>
        <time>2011-10-01T11:47:16Z</time>
      </trkpt>
      <trkpt lat="42.787120" lon="-2.720540">
        <ele>826.411</ele>
        <time>2011-10-01T11:47:31Z</time>
      </trkpt>
      <trkpt lat="42.787310" lon="-2.720670">
        <ele>827.386</ele>
        <time>2011-10-01T11:47:59Z</time>
      </trkpt>
      <trkpt lat="42.787490" lon="-2.720880">
        <ele>830.253</ele>
        <time>2011-10-01T11:48:17Z</time>
      </trkpt>
      <trkpt lat="42.787540" lon="-2.721030">
        <ele>831.237</ele>
        <time>2011-10-01T11:48:25Z</time>
      </trkpt>
      <trkpt lat="42.787630" lon="-2.721260">
        <ele>833.149</ele>
        <time>2011-10-01T11:48:42Z</time>
      </trkpt>
      <trkpt lat="42.787740" lon="-2.721510">
        <ele>836.013</ele>
        <time>2011-10-01T11:49:00Z</time>
      </trkpt>
      <trkpt lat="42.787790" lon="-2.721640">
        <ele>837.007</ele>
        <time>2011-10-01T11:49:09Z</time>
      </trkpt>
      <trkpt lat="42.787810" lon="-2.721760">
        <ele>838.965</ele>
        <time>2011-10-01T11:49:17Z</time>
      </trkpt>
      <trkpt lat="42.787880" lon="-2.722030">
        <ele>841.886</ele>
        <time>2011-10-01T11:49:37Z</time>
      </trkpt>
      <trkpt lat="42.787940" lon="-2.722170">
        <ele>844.738</ele>
        <time>2011-10-01T11:49:48Z</time>
      </trkpt>
      <trkpt lat="42.787960" lon="-2.722300">
        <ele>846.191</ele>
        <time>2011-10-01T11:50:00Z</time>
      </trkpt>
      <trkpt lat="42.788020" lon="-2.722580">
        <ele>848.088</ele>
        <time>2011-10-01T11:50:18Z</time>
      </trkpt>
      <trkpt lat="42.788070" lon="-2.722720">
        <ele>849.413</ele>
        <time>2011-10-01T11:50:27Z</time>
      </trkpt>
      <trkpt lat="42.788110" lon="-2.722840">
        <ele>849.490</ele>
        <time>2011-10-01T11:50:36Z</time>
      </trkpt>
      <trkpt lat="42.788160" lon="-2.722960">
        <ele>849.938</ele>
        <time>2011-10-01T11:50:45Z</time>
      </trkpt>
      <trkpt lat="42.788230" lon="-2.723230">
        <ele>851.970</ele>
        <time>2011-10-01T11:51:03Z</time>
      </trkpt>
      <trkpt lat="42.788210" lon="-2.723660">
        <ele>856.217</ele>
        <time>2011-10-01T11:51:35Z</time>
      </trkpt>
      <trkpt lat="42.788190" lon="-2.723830">
        <ele>858.107</ele>
        <time>2011-10-01T11:51:44Z</time>
      </trkpt>
      <trkpt lat="42.788220" lon="-2.724240">
        <ele>863.955</ele>
        <time>2011-10-01T11:52:13Z</time>
      </trkpt>
      <trkpt lat="42.788270" lon="-2.724540">
        <ele>864.496</ele>
        <time>2011-10-01T11:52:32Z</time>
      </trkpt>
      <trkpt lat="42.788300" lon="-2.724710">
        <ele>864.888</ele>
        <time>2011-10-01T11:52:40Z</time>
      </trkpt>
      <trkpt lat="42.788310" lon="-2.724990">
        <ele>866.391</ele>
        <time>2011-10-01T11:52:56Z</time>
      </trkpt>
      <trkpt lat="42.788340" lon="-2.725150">
        <ele>866.868</ele>
        <time>2011-10-01T11:53:05Z</time>
      </trkpt>
      <trkpt lat="42.788380" lon="-2.725300">
        <ele>865.373</ele>
        <time>2011-10-01T11:53:14Z</time>
      </trkpt>
      <trkpt lat="42.788400" lon="-2.725430">
        <ele>865.390</ele>
        <time>2011-10-01T11:53:22Z</time>
      </trkpt>
      <trkpt lat="42.788510" lon="-2.725690">
        <ele>861.044</ele>
        <time>2011-10-01T11:53:38Z</time>
      </trkpt>
      <trkpt lat="42.788570" lon="-2.725810">
        <ele>858.605</ele>
        <time>2011-10-01T11:53:47Z</time>
      </trkpt>
      <trkpt lat="42.788670" lon="-2.725900">
        <ele>855.215</ele>
        <time>2011-10-01T11:53:56Z</time>
      </trkpt>
      <trkpt lat="42.788840" lon="-2.726030">
        <ele>846.607</ele>
        <time>2011-10-01T11:54:24Z</time>
      </trkpt>
      <trkpt lat="42.788930" lon="-2.726120">
        <ele>846.196</ele>
        <time>2011-10-01T11:54:34Z</time>
      </trkpt>
      <trkpt lat="42.789010" lon="-2.726270">
        <ele>847.147</ele>
        <time>2011-10-01T11:54:43Z</time>
      </trkpt>
      <trkpt lat="42.789220" lon="-2.726710">
        <ele>846.159</ele>
        <time>2011-10-01T11:55:11Z</time>
      </trkpt>
      <trkpt lat="42.789410" lon="-2.727210">
        <ele>841.872</ele>
        <time>2011-10-01T11:55:44Z</time>
      </trkpt>
      <trkpt lat="42.789520" lon="-2.727670">
        <ele>837.049</ele>
        <time>2011-10-01T11:56:11Z</time>
      </trkpt>
      <trkpt lat="42.789580" lon="-2.727850">
        <ele>836.074</ele>
        <time>2011-10-01T11:56:20Z</time>
      </trkpt>
      <trkpt lat="42.789640" lon="-2.727990">
        <ele>834.641</ele>
        <time>2011-10-01T11:56:27Z</time>
      </trkpt>
      <trkpt lat="42.789660" lon="-2.728160">
        <ele>834.117</ele>
        <time>2011-10-01T11:56:37Z</time>
      </trkpt>
      <trkpt lat="42.789670" lon="-2.728320">
        <ele>833.187</ele>
        <time>2011-10-01T11:56:45Z</time>
      </trkpt>
      <trkpt lat="42.789680" lon="-2.728460">
        <ele>831.215</ele>
        <time>2011-10-01T11:56:52Z</time>
      </trkpt>
      <trkpt lat="42.789660" lon="-2.728590">
        <ele>829.307</ele>
        <time>2011-10-01T11:56:59Z</time>
      </trkpt>
      <trkpt lat="42.789650" lon="-2.728730">
        <ele>828.313</ele>
        <time>2011-10-01T11:57:07Z</time>
      </trkpt>
      <trkpt lat="42.789610" lon="-2.728850">
        <ele>826.424</ele>
        <time>2011-10-01T11:57:14Z</time>
      </trkpt>
      <trkpt lat="42.789670" lon="-2.728940">
        <ele>824.556</ele>
        <time>2011-10-01T11:57:21Z</time>
      </trkpt>
      <trkpt lat="42.789760" lon="-2.728950">
        <ele>823.099</ele>
        <time>2011-10-01T11:57:28Z</time>
      </trkpt>
      <trkpt lat="42.789860" lon="-2.728970">
        <ele>822.116</ele>
        <time>2011-10-01T11:57:35Z</time>
      </trkpt>
      <trkpt lat="42.790030" lon="-2.728940">
        <ele>819.741</ele>
        <time>2011-10-01T11:57:51Z</time>
      </trkpt>
      <trkpt lat="42.790120" lon="-2.728900">
        <ele>817.768</ele>
        <time>2011-10-01T11:57:59Z</time>
      </trkpt>
      <trkpt lat="42.790200" lon="-2.728850">
        <ele>816.333</ele>
        <time>2011-10-01T11:58:29Z</time>
      </trkpt>
      <trkpt lat="42.790280" lon="-2.728760">
        <ele>814.423</ele>
        <time>2011-10-01T11:58:37Z</time>
      </trkpt>
      <trkpt lat="42.790330" lon="-2.728650">
        <ele>813.415</ele>
        <time>2011-10-01T11:58:44Z</time>
      </trkpt>
      <trkpt lat="42.790390" lon="-2.728550">
        <ele>811.507</ele>
        <time>2011-10-01T11:58:52Z</time>
      </trkpt>
      <trkpt lat="42.790440" lon="-2.728440">
        <ele>811.565</ele>
        <time>2011-10-01T11:58:59Z</time>
      </trkpt>
      <trkpt lat="42.790507" lon="-2.728335">
        <ele>810.556</ele>
        <time>2011-10-01T11:59:07Z</time>
      </trkpt>
      <trkpt lat="42.790588" lon="-2.728249">
        <ele>808.628</ele>
        <time>2011-10-01T11:59:15Z</time>
      </trkpt>
      <trkpt lat="42.790678" lon="-2.728200">
        <ele>808.141</ele>
        <time>2011-10-01T11:59:23Z</time>
      </trkpt>
      <trkpt lat="42.790760" lon="-2.728160">
        <ele>807.768</ele>
        <time>2011-10-01T11:59:33Z</time>
      </trkpt>
      <trkpt lat="42.790850" lon="-2.728170">
        <ele>807.733</ele>
        <time>2011-10-01T12:00:09Z</time>
      </trkpt>
      <trkpt lat="42.790854" lon="-2.728297">
        <ele>808.610</ele>
        <time>2011-10-01T12:00:19Z</time>
      </trkpt>
      <trkpt lat="42.790908" lon="-2.728370">
        <ele>810.061</ele>
        <time>2011-10-01T12:00:37Z</time>
      </trkpt>
      <trkpt lat="42.790950" lon="-2.728370">
        <ele>811.021</ele>
        <time>2011-10-01T12:00:59Z</time>
      </trkpt>
      <trkpt lat="42.791010" lon="-2.728480">
        <ele>811.013</ele>
        <time>2011-10-01T12:01:11Z</time>
      </trkpt>
      <trkpt lat="42.791090" lon="-2.728550">
        <ele>812.007</ele>
        <time>2011-10-01T12:01:23Z</time>
      </trkpt>
      <trkpt lat="42.791180" lon="-2.728600">
        <ele>814.428</ele>
        <time>2011-10-01T12:01:33Z</time>
      </trkpt>
      <trkpt lat="42.791260" lon="-2.728670">
        <ele>816.889</ele>
        <time>2011-10-01T12:01:48Z</time>
      </trkpt>
      <trkpt lat="42.791340" lon="-2.728750">
        <ele>819.721</ele>
        <time>2011-10-01T12:02:03Z</time>
      </trkpt>
      <trkpt lat="42.791430" lon="-2.728820">
        <ele>821.634</ele>
        <time>2011-10-01T12:02:17Z</time>
      </trkpt>
      <trkpt lat="42.791500" lon="-2.728910">
        <ele>823.571</ele>
        <time>2011-10-01T12:02:29Z</time>
      </trkpt>
      <trkpt lat="42.791590" lon="-2.728930">
        <ele>824.076</ele>
        <time>2011-10-01T12:02:43Z</time>
      </trkpt>
      <trkpt lat="42.791671" lon="-2.728972">
        <ele>826.973</ele>
        <time>2011-10-01T12:03:01Z</time>
      </trkpt>
      <trkpt lat="42.791740" lon="-2.729020">
        <ele>828.892</ele>
        <time>2011-10-01T12:03:13Z</time>
      </trkpt>
      <trkpt lat="42.791760" lon="-2.729130">
        <ele>828.873</ele>
        <time>2011-10-01T12:03:25Z</time>
      </trkpt>
      <trkpt lat="42.791820" lon="-2.729220">
        <ele>829.820</ele>
        <time>2011-10-01T12:03:38Z</time>
      </trkpt>
      <trkpt lat="42.791910" lon="-2.729290">
        <ele>833.607</ele>
        <time>2011-10-01T12:03:53Z</time>
      </trkpt>
      <trkpt lat="42.792000" lon="-2.729350">
        <ele>836.511</ele>
        <time>2011-10-01T12:04:07Z</time>
      </trkpt>
      <trkpt lat="42.792080" lon="-2.729410">
        <ele>837.952</ele>
        <time>2011-10-01T12:04:20Z</time>
      </trkpt>
      <trkpt lat="42.792160" lon="-2.729470">
        <ele>841.354</ele>
        <time>2011-10-01T12:04:33Z</time>
      </trkpt>
      <trkpt lat="42.792250" lon="-2.729510">
        <ele>843.237</ele>
        <time>2011-10-01T12:04:49Z</time>
      </trkpt>
      <trkpt lat="42.792320" lon="-2.729610">
        <ele>845.684</ele>
        <time>2011-10-01T12:05:02Z</time>
      </trkpt>
      <trkpt lat="42.792560" lon="-2.729790">
        <ele>848.089</ele>
        <time>2011-10-01T12:05:34Z</time>
      </trkpt>
      <trkpt lat="42.792640" lon="-2.729870">
        <ele>849.426</ele>
        <time>2011-10-01T12:05:47Z</time>
      </trkpt>
      <trkpt lat="42.792730" lon="-2.729940">
        <ele>850.914</ele>
        <time>2011-10-01T12:05:59Z</time>
      </trkpt>
      <trkpt lat="42.792810" lon="-2.730020">
        <ele>852.354</ele>
        <time>2011-10-01T12:06:13Z</time>
      </trkpt>
      <trkpt lat="42.792880" lon="-2.730120">
        <ele>855.709</ele>
        <time>2011-10-01T12:06:28Z</time>
      </trkpt>
      <trkpt lat="42.792970" lon="-2.730180">
        <ele>860.007</ele>
        <time>2011-10-01T12:06:41Z</time>
      </trkpt>
      <trkpt lat="42.793060" lon="-2.730260">
        <ele>862.913</ele>
        <time>2011-10-01T12:06:54Z</time>
      </trkpt>
      <trkpt lat="42.793130" lon="-2.730340">
        <ele>862.434</ele>
        <time>2011-10-01T12:07:05Z</time>
      </trkpt>
      <trkpt lat="42.793210" lon="-2.730420">
        <ele>864.486</ele>
        <time>2011-10-01T12:07:16Z</time>
      </trkpt>
      <trkpt lat="42.793280" lon="-2.730490">
        <ele>864.869</ele>
        <time>2011-10-01T12:07:26Z</time>
      </trkpt>
      <trkpt lat="42.793340" lon="-2.730580">
        <ele>867.296</ele>
        <time>2011-10-01T12:07:37Z</time>
      </trkpt>
      <trkpt lat="42.793420" lon="-2.730660">
        <ele>869.291</ele>
        <time>2011-10-01T12:07:49Z</time>
      </trkpt>
      <trkpt lat="42.793500" lon="-2.730730">
        <ele>871.638</ele>
        <time>2011-10-01T12:08:02Z</time>
      </trkpt>
      <trkpt lat="42.793580" lon="-2.730800">
        <ele>873.556</ele>
        <time>2011-10-01T12:08:15Z</time>
      </trkpt>
      <trkpt lat="42.793660" lon="-2.730860">
        <ele>876.459</ele>
        <time>2011-10-01T12:08:28Z</time>
      </trkpt>
      <trkpt lat="42.793740" lon="-2.730930">
        <ele>878.814</ele>
        <time>2011-10-01T12:08:41Z</time>
      </trkpt>
      <trkpt lat="42.793830" lon="-2.731000">
        <ele>881.707</ele>
        <time>2011-10-01T12:08:52Z</time>
      </trkpt>
      <trkpt lat="42.793900" lon="-2.731070">
        <ele>882.267</ele>
        <time>2011-10-01T12:09:02Z</time>
      </trkpt>
      <trkpt lat="42.793980" lon="-2.731150">
        <ele>883.678</ele>
        <time>2011-10-01T12:09:14Z</time>
      </trkpt>
      <trkpt lat="42.794060" lon="-2.731230">
        <ele>885.090</ele>
        <time>2011-10-01T12:09:24Z</time>
      </trkpt>
      <trkpt lat="42.794120" lon="-2.731320">
        <ele>886.533</ele>
        <time>2011-10-01T12:09:33Z</time>
      </trkpt>
      <trkpt lat="42.794190" lon="-2.731420">
        <ele>887.940</ele>
        <time>2011-10-01T12:09:42Z</time>
      </trkpt>
      <trkpt lat="42.794270" lon="-2.731480">
        <ele>890.865</ele>
        <time>2011-10-01T12:09:51Z</time>
      </trkpt>
      <trkpt lat="42.794360" lon="-2.731510">
        <ele>891.342</ele>
        <time>2011-10-01T12:10:01Z</time>
      </trkpt>
      <trkpt lat="42.794440" lon="-2.731540">
        <ele>892.273</ele>
        <time>2011-10-01T12:10:11Z</time>
      </trkpt>
      <trkpt lat="42.794510" lon="-2.731640">
        <ele>892.285</ele>
        <time>2011-10-01T12:10:20Z</time>
      </trkpt>
      <trkpt lat="42.794550" lon="-2.731750">
        <ele>891.813</ele>
        <time>2011-10-01T12:10:32Z</time>
      </trkpt>
      <trkpt lat="42.794590" lon="-2.731870">
        <ele>892.707</ele>
        <time>2011-10-01T12:10:40Z</time>
      </trkpt>
      <trkpt lat="42.794640" lon="-2.731990">
        <ele>892.219</ele>
        <time>2011-10-01T12:10:49Z</time>
      </trkpt>
      <trkpt lat="42.794670" lon="-2.732110">
        <ele>894.670</ele>
        <time>2011-10-01T12:10:58Z</time>
      </trkpt>
      <trkpt lat="42.794730" lon="-2.732220">
        <ele>896.112</ele>
        <time>2011-10-01T12:11:08Z</time>
      </trkpt>
      <trkpt lat="42.794770" lon="-2.732320">
        <ele>898.095</ele>
        <time>2011-10-01T12:11:17Z</time>
      </trkpt>
      <trkpt lat="42.794810" lon="-2.732450">
        <ele>899.512</ele>
        <time>2011-10-01T12:11:28Z</time>
      </trkpt>
      <trkpt lat="42.794840" lon="-2.732580">
        <ele>901.817</ele>
        <time>2011-10-01T12:11:39Z</time>
      </trkpt>
      <trkpt lat="42.794880" lon="-2.732700">
        <ele>903.864</ele>
        <time>2011-10-01T12:11:50Z</time>
      </trkpt>
      <trkpt lat="42.794910" lon="-2.732820">
        <ele>905.714</ele>
        <time>2011-10-01T12:12:00Z</time>
      </trkpt>
      <trkpt lat="42.794950" lon="-2.732940">
        <ele>907.154</ele>
        <time>2011-10-01T12:12:11Z</time>
      </trkpt>
      <trkpt lat="42.794990" lon="-2.733070">
        <ele>909.109</ele>
        <time>2011-10-01T12:12:22Z</time>
      </trkpt>
      <trkpt lat="42.795030" lon="-2.733180">
        <ele>910.507</ele>
        <time>2011-10-01T12:12:32Z</time>
      </trkpt>
      <trkpt lat="42.795060" lon="-2.733300">
        <ele>913.493</ele>
        <time>2011-10-01T12:12:42Z</time>
      </trkpt>
      <trkpt lat="42.795100" lon="-2.733420">
        <ele>915.824</ele>
        <time>2011-10-01T12:12:52Z</time>
      </trkpt>
      <trkpt lat="42.795130" lon="-2.733550">
        <ele>916.736</ele>
        <time>2011-10-01T12:13:02Z</time>
      </trkpt>
      <trkpt lat="42.795160" lon="-2.733670">
        <ele>917.749</ele>
        <time>2011-10-01T12:13:12Z</time>
      </trkpt>
      <trkpt lat="42.795180" lon="-2.733800">
        <ele>920.176</ele>
        <time>2011-10-01T12:13:22Z</time>
      </trkpt>
      <trkpt lat="42.795200" lon="-2.733920">
        <ele>921.611</ele>
        <time>2011-10-01T12:13:31Z</time>
      </trkpt>
      <trkpt lat="42.795220" lon="-2.734050">
        <ele>924.018</ele>
        <time>2011-10-01T12:13:41Z</time>
      </trkpt>
      <trkpt lat="42.795240" lon="-2.734180">
        <ele>925.981</ele>
        <time>2011-10-01T12:13:51Z</time>
      </trkpt>
      <trkpt lat="42.795250" lon="-2.734290">
        <ele>929.261</ele>
        <time>2011-10-01T12:14:01Z</time>
      </trkpt>
      <trkpt lat="42.795260" lon="-2.734420">
        <ele>929.717</ele>
        <time>2011-10-01T12:14:12Z</time>
      </trkpt>
      <trkpt lat="42.795270" lon="-2.734550">
        <ele>932.607</ele>
        <time>2011-10-01T12:14:23Z</time>
      </trkpt>
      <trkpt lat="42.795280" lon="-2.734690">
        <ele>935.040</ele>
        <time>2011-10-01T12:14:34Z</time>
      </trkpt>
      <trkpt lat="42.795260" lon="-2.734810">
        <ele>935.511</ele>
        <time>2011-10-01T12:14:44Z</time>
      </trkpt>
      <trkpt lat="42.795230" lon="-2.734930">
        <ele>937.053</ele>
        <time>2011-10-01T12:14:54Z</time>
      </trkpt>
      <trkpt lat="42.795190" lon="-2.735050">
        <ele>939.836</ele>
        <time>2011-10-01T12:15:05Z</time>
      </trkpt>
      <trkpt lat="42.795190" lon="-2.735120">
        <ele>940.873</ele>
        <time>2011-10-01T12:15:48Z</time>
      </trkpt>
      <trkpt lat="42.795190" lon="-2.735240">
        <ele>943.788</ele>
        <time>2011-10-01T12:16:14Z</time>
      </trkpt>
      <trkpt lat="42.795150" lon="-2.735360">
        <ele>945.615</ele>
        <time>2011-10-01T12:16:27Z</time>
      </trkpt>
      <trkpt lat="42.795180" lon="-2.735480">
        <ele>947.584</ele>
        <time>2011-10-01T12:16:36Z</time>
      </trkpt>
      <trkpt lat="42.795160" lon="-2.735630">
        <ele>947.507</ele>
        <time>2011-10-01T12:16:45Z</time>
      </trkpt>
      <trkpt lat="42.795130" lon="-2.735880">
        <ele>948.517</ele>
        <time>2011-10-01T12:17:02Z</time>
      </trkpt>
      <trkpt lat="42.795120" lon="-2.736010">
        <ele>950.907</ele>
        <time>2011-10-01T12:17:11Z</time>
      </trkpt>
      <trkpt lat="42.795080" lon="-2.736140">
        <ele>951.440</ele>
        <time>2011-10-01T12:17:20Z</time>
      </trkpt>
      <trkpt lat="42.795080" lon="-2.736280">
        <ele>950.451</ele>
        <time>2011-10-01T12:17:30Z</time>
      </trkpt>
      <trkpt lat="42.795100" lon="-2.736400">
        <ele>950.423</ele>
        <time>2011-10-01T12:17:42Z</time>
      </trkpt>
      <trkpt lat="42.795120" lon="-2.736510">
        <ele>949.936</ele>
        <time>2011-10-01T12:17:52Z</time>
      </trkpt>
      <trkpt lat="42.795130" lon="-2.736630">
        <ele>950.423</ele>
        <time>2011-10-01T12:18:00Z</time>
      </trkpt>
      <trkpt lat="42.795140" lon="-2.736760">
        <ele>951.438</ele>
        <time>2011-10-01T12:18:08Z</time>
      </trkpt>
      <trkpt lat="42.795140" lon="-2.737000">
        <ele>952.895</ele>
        <time>2011-10-01T12:18:24Z</time>
      </trkpt>
      <trkpt lat="42.795130" lon="-2.737130">
        <ele>953.341</ele>
        <time>2011-10-01T12:18:34Z</time>
      </trkpt>
      <trkpt lat="42.795150" lon="-2.737250">
        <ele>951.881</ele>
        <time>2011-10-01T12:18:43Z</time>
      </trkpt>
      <trkpt lat="42.795140" lon="-2.737390">
        <ele>951.409</ele>
        <time>2011-10-01T12:18:54Z</time>
      </trkpt>
      <trkpt lat="42.795140" lon="-2.737520">
        <ele>950.407</ele>
        <time>2011-10-01T12:19:02Z</time>
      </trkpt>
      <trkpt lat="42.795180" lon="-2.737650">
        <ele>948.566</ele>
        <time>2011-10-01T12:19:10Z</time>
      </trkpt>
      <trkpt lat="42.795210" lon="-2.737770">
        <ele>947.017</ele>
        <time>2011-10-01T12:19:16Z</time>
      </trkpt>
      <trkpt lat="42.795270" lon="-2.737870">
        <ele>946.139</ele>
        <time>2011-10-01T12:19:23Z</time>
      </trkpt>
      <trkpt lat="42.795310" lon="-2.737990">
        <ele>945.692</ele>
        <time>2011-10-01T12:19:30Z</time>
      </trkpt>
      <trkpt lat="42.795330" lon="-2.738110">
        <ele>947.069</ele>
        <time>2011-10-01T12:19:38Z</time>
      </trkpt>
      <trkpt lat="42.795360" lon="-2.738220">
        <ele>946.644</ele>
        <time>2011-10-01T12:19:46Z</time>
      </trkpt>
      <trkpt lat="42.795360" lon="-2.738350">
        <ele>947.041</ele>
        <time>2011-10-01T12:19:53Z</time>
      </trkpt>
      <trkpt lat="42.795340" lon="-2.738470">
        <ele>947.558</ele>
        <time>2011-10-01T12:20:00Z</time>
      </trkpt>
      <trkpt lat="42.795330" lon="-2.738590">
        <ele>948.052</ele>
        <time>2011-10-01T12:20:08Z</time>
      </trkpt>
      <trkpt lat="42.795340" lon="-2.738720">
        <ele>949.517</ele>
        <time>2011-10-01T12:20:15Z</time>
      </trkpt>
      <trkpt lat="42.795350" lon="-2.738830">
        <ele>949.507</ele>
        <time>2011-10-01T12:20:22Z</time>
      </trkpt>
      <trkpt lat="42.795380" lon="-2.738960">
        <ele>949.927</ele>
        <time>2011-10-01T12:20:30Z</time>
      </trkpt>
      <trkpt lat="42.795390" lon="-2.739100">
        <ele>952.368</ele>
        <time>2011-10-01T12:20:39Z</time>
      </trkpt>
      <trkpt lat="42.795410" lon="-2.739230">
        <ele>953.850</ele>
        <time>2011-10-01T12:20:47Z</time>
      </trkpt>
      <trkpt lat="42.795440" lon="-2.739360">
        <ele>953.393</ele>
        <time>2011-10-01T12:20:55Z</time>
      </trkpt>
      <trkpt lat="42.795450" lon="-2.739480">
        <ele>954.290</ele>
        <time>2011-10-01T12:21:02Z</time>
      </trkpt>
      <trkpt lat="42.795470" lon="-2.739610">
        <ele>955.245</ele>
        <time>2011-10-01T12:21:09Z</time>
      </trkpt>
      <trkpt lat="42.795480" lon="-2.739740">
        <ele>954.712</ele>
        <time>2011-10-01T12:21:17Z</time>
      </trkpt>
      <trkpt lat="42.795480" lon="-2.739870">
        <ele>953.312</ele>
        <time>2011-10-01T12:21:26Z</time>
      </trkpt>
      <trkpt lat="42.795450" lon="-2.739980">
        <ele>952.832</ele>
        <time>2011-10-01T12:21:58Z</time>
      </trkpt>
      <trkpt lat="42.795410" lon="-2.740100">
        <ele>949.505</ele>
        <time>2011-10-01T12:22:10Z</time>
      </trkpt>
      <trkpt lat="42.795360" lon="-2.740210">
        <ele>945.607</ele>
        <time>2011-10-01T12:22:38Z</time>
      </trkpt>
      <trkpt lat="42.795340" lon="-2.740340">
        <ele>942.263</ele>
        <time>2011-10-01T12:22:48Z</time>
      </trkpt>
      <trkpt lat="42.795320" lon="-2.740470">
        <ele>939.364</ele>
        <time>2011-10-01T12:22:57Z</time>
      </trkpt>
      <trkpt lat="42.795320" lon="-2.740590">
        <ele>938.476</ele>
        <time>2011-10-01T12:23:06Z</time>
      </trkpt>
      <trkpt lat="42.795300" lon="-2.740710">
        <ele>935.579</ele>
        <time>2011-10-01T12:23:16Z</time>
      </trkpt>
      <trkpt lat="42.795270" lon="-2.740810">
        <ele>932.636</ele>
        <time>2011-10-01T12:23:25Z</time>
      </trkpt>
      <trkpt lat="42.795230" lon="-2.740920">
        <ele>931.231</ele>
        <time>2011-10-01T12:23:35Z</time>
      </trkpt>
      <trkpt lat="42.795170" lon="-2.741030">
        <ele>925.458</ele>
        <time>2011-10-01T12:23:45Z</time>
      </trkpt>
      <trkpt lat="42.795160" lon="-2.741150">
        <ele>923.597</ele>
        <time>2011-10-01T12:23:54Z</time>
      </trkpt>
      <trkpt lat="42.795120" lon="-2.741260">
        <ele>921.123</ele>
        <time>2011-10-01T12:24:02Z</time>
      </trkpt>
      <trkpt lat="42.795080" lon="-2.741380">
        <ele>919.625</ele>
        <time>2011-10-01T12:24:10Z</time>
      </trkpt>
      <trkpt lat="42.795030" lon="-2.741500">
        <ele>917.707</ele>
        <time>2011-10-01T12:24:18Z</time>
      </trkpt>
      <trkpt lat="42.795020" lon="-2.741620">
        <ele>917.751</ele>
        <time>2011-10-01T12:24:26Z</time>
      </trkpt>
      <trkpt lat="42.794990" lon="-2.741750">
        <ele>917.252</ele>
        <time>2011-10-01T12:24:35Z</time>
      </trkpt>
      <trkpt lat="42.794950" lon="-2.741870">
        <ele>915.364</ele>
        <time>2011-10-01T12:24:47Z</time>
      </trkpt>
      <trkpt lat="42.794900" lon="-2.742000">
        <ele>914.377</ele>
        <time>2011-10-01T12:24:55Z</time>
      </trkpt>
      <trkpt lat="42.794850" lon="-2.742130">
        <ele>911.014</ele>
        <time>2011-10-01T12:25:03Z</time>
      </trkpt>
      <trkpt lat="42.794800" lon="-2.742240">
        <ele>912.419</ele>
        <time>2011-10-01T12:25:11Z</time>
      </trkpt>
      <trkpt lat="42.794760" lon="-2.742340">
        <ele>911.516</ele>
        <time>2011-10-01T12:25:18Z</time>
      </trkpt>
      <trkpt lat="42.794720" lon="-2.742450">
        <ele>911.517</ele>
        <time>2011-10-01T12:25:25Z</time>
      </trkpt>
      <trkpt lat="42.794680" lon="-2.742580">
        <ele>911.087</ele>
        <time>2011-10-01T12:25:33Z</time>
      </trkpt>
      <trkpt lat="42.794640" lon="-2.742680">
        <ele>910.515</ele>
        <time>2011-10-01T12:25:40Z</time>
      </trkpt>
      <trkpt lat="42.794600" lon="-2.742810">
        <ele>910.007</ele>
        <time>2011-10-01T12:25:48Z</time>
      </trkpt>
      <trkpt lat="42.794580" lon="-2.742920">
        <ele>905.783</ele>
        <time>2011-10-01T12:25:55Z</time>
      </trkpt>
      <trkpt lat="42.794530" lon="-2.743050">
        <ele>909.624</ele>
        <time>2011-10-01T12:26:03Z</time>
      </trkpt>
      <trkpt lat="42.794490" lon="-2.743170">
        <ele>909.126</ele>
        <time>2011-10-01T12:26:10Z</time>
      </trkpt>
      <trkpt lat="42.794450" lon="-2.743300">
        <ele>909.189</ele>
        <time>2011-10-01T12:26:17Z</time>
      </trkpt>
      <trkpt lat="42.794420" lon="-2.743420">
        <ele>905.756</ele>
        <time>2011-10-01T12:26:25Z</time>
      </trkpt>
      <trkpt lat="42.794400" lon="-2.743540">
        <ele>909.691</ele>
        <time>2011-10-01T12:26:32Z</time>
      </trkpt>
      <trkpt lat="42.794390" lon="-2.743670">
        <ele>909.668</ele>
        <time>2011-10-01T12:26:39Z</time>
      </trkpt>
      <trkpt lat="42.794380" lon="-2.743800">
        <ele>909.664</ele>
        <time>2011-10-01T12:26:45Z</time>
      </trkpt>
      <trkpt lat="42.794386" lon="-2.743866">
        <ele>908.106</ele>
        <time>2011-10-01T12:26:51Z</time>
      </trkpt>
      <trkpt lat="42.794386" lon="-2.743958">
        <ele>907.616</ele>
        <time>2011-10-01T12:26:58Z</time>
      </trkpt>
      <trkpt lat="42.794364" lon="-2.744081">
        <ele>908.107</ele>
        <time>2011-10-01T12:27:04Z</time>
      </trkpt>
      <trkpt lat="42.794364" lon="-2.744203">
        <ele>907.628</ele>
        <time>2011-10-01T12:27:10Z</time>
      </trkpt>
      <trkpt lat="42.794364" lon="-2.744325">
        <ele>907.629</ele>
        <time>2011-10-01T12:27:17Z</time>
      </trkpt>
      <trkpt lat="42.794350" lon="-2.744470">
        <ele>906.751</ele>
        <time>2011-10-01T12:27:24Z</time>
      </trkpt>
      <trkpt lat="42.794330" lon="-2.744750">
        <ele>905.234</ele>
        <time>2011-10-01T12:27:39Z</time>
      </trkpt>
      <trkpt lat="42.794360" lon="-2.744890">
        <ele>904.781</ele>
        <time>2011-10-01T12:27:47Z</time>
      </trkpt>
      <trkpt lat="42.794410" lon="-2.745010">
        <ele>904.336</ele>
        <time>2011-10-01T12:27:55Z</time>
      </trkpt>
      <trkpt lat="42.794450" lon="-2.745160">
        <ele>903.843</ele>
        <time>2011-10-01T12:28:03Z</time>
      </trkpt>
      <trkpt lat="42.794480" lon="-2.745280">
        <ele>903.335</ele>
        <time>2011-10-01T12:28:10Z</time>
      </trkpt>
      <trkpt lat="42.794490" lon="-2.745400">
        <ele>903.386</ele>
        <time>2011-10-01T12:28:17Z</time>
      </trkpt>
      <trkpt lat="42.794470" lon="-2.745540">
        <ele>902.814</ele>
        <time>2011-10-01T12:28:24Z</time>
      </trkpt>
      <trkpt lat="42.794440" lon="-2.745670">
        <ele>901.807</ele>
        <time>2011-10-01T12:28:31Z</time>
      </trkpt>
      <trkpt lat="42.794420" lon="-2.745800">
        <ele>901.845</ele>
        <time>2011-10-01T12:28:38Z</time>
      </trkpt>
      <trkpt lat="42.794400" lon="-2.745930">
        <ele>900.956</ele>
        <time>2011-10-01T12:28:45Z</time>
      </trkpt>
      <trkpt lat="42.794400" lon="-2.746050">
        <ele>899.998</ele>
        <time>2011-10-01T12:28:52Z</time>
      </trkpt>
      <trkpt lat="42.794370" lon="-2.746170">
        <ele>899.581</ele>
        <time>2011-10-01T12:28:59Z</time>
      </trkpt>
      <trkpt lat="42.794340" lon="-2.746310">
        <ele>897.188</ele>
        <time>2011-10-01T12:29:06Z</time>
      </trkpt>
      <trkpt lat="42.794330" lon="-2.746440">
        <ele>896.633</ele>
        <time>2011-10-01T12:29:13Z</time>
      </trkpt>
      <trkpt lat="42.794320" lon="-2.746570">
        <ele>896.140</ele>
        <time>2011-10-01T12:29:20Z</time>
      </trkpt>
      <trkpt lat="42.794280" lon="-2.746700">
        <ele>895.649</ele>
        <time>2011-10-01T12:29:27Z</time>
      </trkpt>
      <trkpt lat="42.794270" lon="-2.746830">
        <ele>894.602</ele>
        <time>2011-10-01T12:29:34Z</time>
      </trkpt>
      <trkpt lat="42.794240" lon="-2.746950">
        <ele>894.622</ele>
        <time>2011-10-01T12:29:41Z</time>
      </trkpt>
      <trkpt lat="42.794220" lon="-2.747070">
        <ele>894.607</ele>
        <time>2011-10-01T12:29:48Z</time>
      </trkpt>
      <trkpt lat="42.794200" lon="-2.747200">
        <ele>894.256</ele>
        <time>2011-10-01T12:29:55Z</time>
      </trkpt>
      <trkpt lat="42.794190" lon="-2.747320">
        <ele>892.297</ele>
        <time>2011-10-01T12:30:15Z</time>
      </trkpt>
      <trkpt lat="42.794190" lon="-2.747460">
        <ele>891.819</ele>
        <time>2011-10-01T12:30:23Z</time>
      </trkpt>
      <trkpt lat="42.794170" lon="-2.747600">
        <ele>892.262</ele>
        <time>2011-10-01T12:30:31Z</time>
      </trkpt>
      <trkpt lat="42.794150" lon="-2.747730">
        <ele>891.349</ele>
        <time>2011-10-01T12:30:38Z</time>
      </trkpt>
      <trkpt lat="42.794140" lon="-2.747860">
        <ele>891.334</ele>
        <time>2011-10-01T12:30:45Z</time>
      </trkpt>
      <trkpt lat="42.794120" lon="-2.747990">
        <ele>892.731</ele>
        <time>2011-10-01T12:30:52Z</time>
      </trkpt>
      <trkpt lat="42.794090" lon="-2.748120">
        <ele>892.281</ele>
        <time>2011-10-01T12:30:59Z</time>
      </trkpt>
      <trkpt lat="42.794070" lon="-2.748250">
        <ele>893.261</ele>
        <time>2011-10-01T12:31:06Z</time>
      </trkpt>
      <trkpt lat="42.794070" lon="-2.748390">
        <ele>893.217</ele>
        <time>2011-10-01T12:31:14Z</time>
      </trkpt>
      <trkpt lat="42.794070" lon="-2.748520">
        <ele>892.207</ele>
        <time>2011-10-01T12:31:21Z</time>
      </trkpt>
      <trkpt lat="42.794050" lon="-2.748650">
        <ele>891.890</ele>
        <time>2011-10-01T12:31:29Z</time>
      </trkpt>
      <trkpt lat="42.794030" lon="-2.748780">
        <ele>890.841</ele>
        <time>2011-10-01T12:31:37Z</time>
      </trkpt>
      <trkpt lat="42.794000" lon="-2.748910">
        <ele>888.453</ele>
        <time>2011-10-01T12:31:45Z</time>
      </trkpt>
      <trkpt lat="42.793950" lon="-2.749010">
        <ele>887.926</ele>
        <time>2011-10-01T12:31:52Z</time>
      </trkpt>
      <trkpt lat="42.793900" lon="-2.749110">
        <ele>886.513</ele>
        <time>2011-10-01T12:31:59Z</time>
      </trkpt>
      <trkpt lat="42.793820" lon="-2.749210">
        <ele>886.068</ele>
        <time>2011-10-01T12:32:06Z</time>
      </trkpt>
      <trkpt lat="42.793770" lon="-2.749320">
        <ele>884.115</ele>
        <time>2011-10-01T12:32:14Z</time>
      </trkpt>
      <trkpt lat="42.793730" lon="-2.749420">
        <ele>884.624</ele>
        <time>2011-10-01T12:32:22Z</time>
      </trkpt>
      <trkpt lat="42.793680" lon="-2.749530">
        <ele>886.504</ele>
        <time>2011-10-01T12:32:30Z</time>
      </trkpt>
      <trkpt lat="42.793630" lon="-2.749620">
        <ele>887.414</ele>
        <time>2011-10-01T12:32:37Z</time>
      </trkpt>
      <trkpt lat="42.793590" lon="-2.749730">
        <ele>886.507</ele>
        <time>2011-10-01T12:32:46Z</time>
      </trkpt>
      <trkpt lat="42.793480" lon="-2.749950">
        <ele>886.584</ele>
        <time>2011-10-01T12:33:02Z</time>
      </trkpt>
      <trkpt lat="42.793440" lon="-2.750090">
        <ele>885.075</ele>
        <time>2011-10-01T12:33:11Z</time>
      </trkpt>
      <trkpt lat="42.793420" lon="-2.750240">
        <ele>886.057</ele>
        <time>2011-10-01T12:33:19Z</time>
      </trkpt>
      <trkpt lat="42.793410" lon="-2.750380">
        <ele>887.030</ele>
        <time>2011-10-01T12:33:28Z</time>
      </trkpt>
      <trkpt lat="42.793380" lon="-2.750610">
        <ele>890.897</ele>
        <time>2011-10-01T12:33:45Z</time>
      </trkpt>
      <trkpt lat="42.793370" lon="-2.750750">
        <ele>894.272</ele>
        <time>2011-10-01T12:33:56Z</time>
      </trkpt>
      <trkpt lat="42.793420" lon="-2.750860">
        <ele>898.579</ele>
        <time>2011-10-01T12:34:12Z</time>
      </trkpt>
      <trkpt lat="42.793396" lon="-2.751335">
        <ele>904.389</ele>
        <time>2011-10-01T12:34:59Z</time>
      </trkpt>
      <trkpt lat="42.793360" lon="-2.751490">
        <ele>906.206</ele>
        <time>2011-10-01T12:35:10Z</time>
      </trkpt>
      <trkpt lat="42.793370" lon="-2.751812">
        <ele>912.026</ele>
        <time>2011-10-01T12:36:06Z</time>
      </trkpt>
      <trkpt lat="42.793507" lon="-2.752533">
        <ele>935.007</ele>
        <time>2011-10-01T12:38:12Z</time>
      </trkpt>
      <trkpt lat="42.793540" lon="-2.752880">
        <ele>938.460</ele>
        <time>2011-10-01T12:38:28Z</time>
      </trkpt>
      <trkpt lat="42.793647" lon="-2.753178">
        <ele>938.441</ele>
        <time>2011-10-01T12:38:41Z</time>
      </trkpt>
      <trkpt lat="42.793877" lon="-2.753630">
        <ele>958.613</ele>
        <time>2011-10-01T12:41:06Z</time>
      </trkpt>
      <trkpt lat="42.794222" lon="-2.754607">
        <ele>961.996</ele>
        <time>2011-10-01T12:41:19Z</time>
      </trkpt>
      <trkpt lat="42.794200" lon="-2.754750">
        <ele>966.783</ele>
        <time>2011-10-01T12:41:45Z</time>
      </trkpt>
      <trkpt lat="42.794090" lon="-2.754880">
        <ele>971.678</ele>
        <time>2011-10-01T12:42:01Z</time>
      </trkpt>
      <trkpt lat="42.793950" lon="-2.754920">
        <ele>974.995</ele>
        <time>2011-10-01T12:42:14Z</time>
      </trkpt>
      <trkpt lat="42.793808" lon="-2.754920">
        <ele>976.455</ele>
        <time>2011-10-01T12:42:28Z</time>
      </trkpt>
      <trkpt lat="42.793730" lon="-2.755030">
        <ele>976.407</ele>
        <time>2011-10-01T13:01:24Z</time>
      </trkpt>
      <trkpt lat="42.793750" lon="-2.755150">
        <ele>975.417</ele>
        <time>2011-10-01T13:01:52Z</time>
      </trkpt>
      <trkpt lat="42.793764" lon="-2.755293">
        <ele>972.007</ele>
        <time>2011-10-01T13:02:04Z</time>
      </trkpt>
      <trkpt lat="42.793773" lon="-2.755415">
        <ele>970.177</ele>
        <time>2011-10-01T13:02:13Z</time>
      </trkpt>
      <trkpt lat="42.793770" lon="-2.755550">
        <ele>968.738</ele>
        <time>2011-10-01T13:02:23Z</time>
      </trkpt>
      <trkpt lat="42.793760" lon="-2.755670">
        <ele>967.750</ele>
        <time>2011-10-01T13:02:30Z</time>
      </trkpt>
      <trkpt lat="42.793760" lon="-2.755790">
        <ele>967.293</ele>
        <time>2011-10-01T13:02:37Z</time>
      </trkpt>
      <trkpt lat="42.793750" lon="-2.755920">
        <ele>965.870</ele>
        <time>2011-10-01T13:02:45Z</time>
      </trkpt>
      <trkpt lat="42.793734" lon="-2.755966">
        <ele>965.365</ele>
        <time>2011-10-01T13:02:57Z</time>
      </trkpt>
      <trkpt lat="42.793670" lon="-2.756080">
        <ele>965.392</ele>
        <time>2011-10-01T13:03:06Z</time>
      </trkpt>
      <trkpt lat="42.793640" lon="-2.756190">
        <ele>962.951</ele>
        <time>2011-10-01T13:03:15Z</time>
      </trkpt>
      <trkpt lat="42.793650" lon="-2.756330">
        <ele>961.501</ele>
        <time>2011-10-01T13:03:23Z</time>
      </trkpt>
      <trkpt lat="42.793650" lon="-2.756450">
        <ele>960.511</ele>
        <time>2011-10-01T13:03:30Z</time>
      </trkpt>
      <trkpt lat="42.793640" lon="-2.756580">
        <ele>958.607</ele>
        <time>2011-10-01T13:03:37Z</time>
      </trkpt>
      <trkpt lat="42.793640" lon="-2.756710">
        <ele>958.197</ele>
        <time>2011-10-01T13:03:44Z</time>
      </trkpt>
      <trkpt lat="42.793650" lon="-2.756850">
        <ele>957.168</ele>
        <time>2011-10-01T13:03:51Z</time>
      </trkpt>
      <trkpt lat="42.793668" lon="-2.756889">
        <ele>957.110</ele>
        <time>2011-10-01T13:05:06Z</time>
      </trkpt>
      <trkpt lat="42.793690" lon="-2.756970">
        <ele>958.693</ele>
        <time>2011-10-01T13:05:13Z</time>
      </trkpt>
      <trkpt lat="42.793710" lon="-2.757090">
        <ele>959.170</ele>
        <time>2011-10-01T13:05:20Z</time>
      </trkpt>
      <trkpt lat="42.793720" lon="-2.757210">
        <ele>961.015</ele>
        <time>2011-10-01T13:05:28Z</time>
      </trkpt>
      <trkpt lat="42.793730" lon="-2.757340">
        <ele>960.542</ele>
        <time>2011-10-01T13:05:36Z</time>
      </trkpt>
      <trkpt lat="42.793770" lon="-2.757450">
        <ele>961.954</ele>
        <time>2011-10-01T13:05:44Z</time>
      </trkpt>
      <trkpt lat="42.793830" lon="-2.757550">
        <ele>962.956</ele>
        <time>2011-10-01T13:05:53Z</time>
      </trkpt>
      <trkpt lat="42.793870" lon="-2.757670">
        <ele>965.311</ele>
        <time>2011-10-01T13:06:04Z</time>
      </trkpt>
      <trkpt lat="42.793920" lon="-2.757790">
        <ele>966.307</ele>
        <time>2011-10-01T13:06:14Z</time>
      </trkpt>
      <trkpt lat="42.793940" lon="-2.757920">
        <ele>967.287</ele>
        <time>2011-10-01T13:06:24Z</time>
      </trkpt>
      <trkpt lat="42.793930" lon="-2.758040">
        <ele>967.298</ele>
        <time>2011-10-01T13:06:32Z</time>
      </trkpt>
      <trkpt lat="42.793920" lon="-2.758170">
        <ele>966.730</ele>
        <time>2011-10-01T13:06:40Z</time>
      </trkpt>
      <trkpt lat="42.793860" lon="-2.758270">
        <ele>964.393</ele>
        <time>2011-10-01T13:06:47Z</time>
      </trkpt>
      <trkpt lat="42.793810" lon="-2.758390">
        <ele>963.910</ele>
        <time>2011-10-01T13:06:54Z</time>
      </trkpt>
      <trkpt lat="42.793770" lon="-2.758510">
        <ele>962.965</ele>
        <time>2011-10-01T13:07:01Z</time>
      </trkpt>
      <trkpt lat="42.793760" lon="-2.758620">
        <ele>961.972</ele>
        <time>2011-10-01T13:07:12Z</time>
      </trkpt>
      <trkpt lat="42.793740" lon="-2.758750">
        <ele>962.458</ele>
        <time>2011-10-01T13:07:31Z</time>
      </trkpt>
      <trkpt lat="42.793720" lon="-2.758870">
        <ele>961.952</ele>
        <time>2011-10-01T13:07:38Z</time>
      </trkpt>
      <trkpt lat="42.793700" lon="-2.758990">
        <ele>961.017</ele>
        <time>2011-10-01T13:07:45Z</time>
      </trkpt>
      <trkpt lat="42.793660" lon="-2.759120">
        <ele>960.507</ele>
        <time>2011-10-01T13:07:52Z</time>
      </trkpt>
      <trkpt lat="42.793670" lon="-2.759250">
        <ele>961.917</ele>
        <time>2011-10-01T13:07:59Z</time>
      </trkpt>
      <trkpt lat="42.793680" lon="-2.759270">
        <ele>961.968</ele>
        <time>2011-10-01T13:11:20Z</time>
      </trkpt>
      <trkpt lat="42.793660" lon="-2.759390">
        <ele>962.430</ele>
        <time>2011-10-01T13:11:29Z</time>
      </trkpt>
      <trkpt lat="42.793610" lon="-2.759510">
        <ele>963.923</ele>
        <time>2011-10-01T13:11:38Z</time>
      </trkpt>
      <trkpt lat="42.793560" lon="-2.759640">
        <ele>963.460</ele>
        <time>2011-10-01T13:11:46Z</time>
      </trkpt>
      <trkpt lat="42.793530" lon="-2.759760">
        <ele>962.985</ele>
        <time>2011-10-01T13:11:53Z</time>
      </trkpt>
      <trkpt lat="42.793510" lon="-2.759870">
        <ele>962.932</ele>
        <time>2011-10-01T13:12:00Z</time>
      </trkpt>
      <trkpt lat="42.793530" lon="-2.760000">
        <ele>960.022</ele>
        <time>2011-10-01T13:12:08Z</time>
      </trkpt>
      <trkpt lat="42.793560" lon="-2.760130">
        <ele>958.162</ele>
        <time>2011-10-01T13:12:15Z</time>
      </trkpt>
      <trkpt lat="42.793570" lon="-2.760250">
        <ele>958.108</ele>
        <time>2011-10-01T13:12:22Z</time>
      </trkpt>
      <trkpt lat="42.793580" lon="-2.760380">
        <ele>956.207</ele>
        <time>2011-10-01T13:12:29Z</time>
      </trkpt>
      <trkpt lat="42.793590" lon="-2.760500">
        <ele>955.744</ele>
        <time>2011-10-01T13:12:36Z</time>
      </trkpt>
      <trkpt lat="42.793590" lon="-2.760630">
        <ele>954.725</ele>
        <time>2011-10-01T13:12:43Z</time>
      </trkpt>
      <trkpt lat="42.793590" lon="-2.760760">
        <ele>953.817</ele>
        <time>2011-10-01T13:12:50Z</time>
      </trkpt>
      <trkpt lat="42.793610" lon="-2.760890">
        <ele>953.870</ele>
        <time>2011-10-01T13:12:57Z</time>
      </trkpt>
      <trkpt lat="42.793620" lon="-2.761020">
        <ele>952.887</ele>
        <time>2011-10-01T13:13:04Z</time>
      </trkpt>
      <trkpt lat="42.793630" lon="-2.761140">
        <ele>953.342</ele>
        <time>2011-10-01T13:13:11Z</time>
      </trkpt>
      <trkpt lat="42.793630" lon="-2.761280">
        <ele>952.329</ele>
        <time>2011-10-01T13:13:18Z</time>
      </trkpt>
      <trkpt lat="42.793630" lon="-2.761410">
        <ele>951.482</ele>
        <time>2011-10-01T13:13:25Z</time>
      </trkpt>
      <trkpt lat="42.793630" lon="-2.761550">
        <ele>952.343</ele>
        <time>2011-10-01T13:13:32Z</time>
      </trkpt>
      <trkpt lat="42.793640" lon="-2.761680">
        <ele>951.417</ele>
        <time>2011-10-01T13:13:39Z</time>
      </trkpt>
      <trkpt lat="42.793650" lon="-2.761810">
        <ele>950.907</ele>
        <time>2011-10-01T13:13:46Z</time>
      </trkpt>
      <trkpt lat="42.793650" lon="-2.761920">
        <ele>949.050</ele>
        <time>2011-10-01T13:13:53Z</time>
      </trkpt>
      <trkpt lat="42.793600" lon="-2.762040">
        <ele>947.041</ele>
        <time>2011-10-01T13:14:00Z</time>
      </trkpt>
      <trkpt lat="42.793590" lon="-2.762150">
        <ele>946.153</ele>
        <time>2011-10-01T13:14:07Z</time>
      </trkpt>
      <trkpt lat="42.793600" lon="-2.762280">
        <ele>946.686</ele>
        <time>2011-10-01T13:14:14Z</time>
      </trkpt>
      <trkpt lat="42.793560" lon="-2.762400">
        <ele>945.163</ele>
        <time>2011-10-01T13:14:21Z</time>
      </trkpt>
      <trkpt lat="42.793520" lon="-2.762520">
        <ele>945.128</ele>
        <time>2011-10-01T13:14:28Z</time>
      </trkpt>
      <trkpt lat="42.793530" lon="-2.762660">
        <ele>945.135</ele>
        <time>2011-10-01T13:14:35Z</time>
      </trkpt>
      <trkpt lat="42.793560" lon="-2.762780">
        <ele>946.133</ele>
        <time>2011-10-01T13:14:42Z</time>
      </trkpt>
      <trkpt lat="42.793590" lon="-2.762900">
        <ele>945.123</ele>
        <time>2011-10-01T13:14:49Z</time>
      </trkpt>
      <trkpt lat="42.793600" lon="-2.763030">
        <ele>945.615</ele>
        <time>2011-10-01T13:14:56Z</time>
      </trkpt>
      <trkpt lat="42.793540" lon="-2.763120">
        <ele>944.607</ele>
        <time>2011-10-01T13:15:04Z</time>
      </trkpt>
      <trkpt lat="42.793460" lon="-2.763190">
        <ele>942.235</ele>
        <time>2011-10-01T13:15:11Z</time>
      </trkpt>
      <trkpt lat="42.793400" lon="-2.763290">
        <ele>939.886</ele>
        <time>2011-10-01T13:15:18Z</time>
      </trkpt>
      <trkpt lat="42.793360" lon="-2.763410">
        <ele>938.968</ele>
        <time>2011-10-01T13:15:25Z</time>
      </trkpt>
      <trkpt lat="42.793380" lon="-2.763530">
        <ele>938.971</ele>
        <time>2011-10-01T13:15:32Z</time>
      </trkpt>
      <trkpt lat="42.793360" lon="-2.763660">
        <ele>937.968</ele>
        <time>2011-10-01T13:15:39Z</time>
      </trkpt>
      <trkpt lat="42.793320" lon="-2.763790">
        <ele>937.423</ele>
        <time>2011-10-01T13:15:47Z</time>
      </trkpt>
      <trkpt lat="42.793270" lon="-2.763900">
        <ele>935.070</ele>
        <time>2011-10-01T13:15:55Z</time>
      </trkpt>
      <trkpt lat="42.793220" lon="-2.764010">
        <ele>933.668</ele>
        <time>2011-10-01T13:16:03Z</time>
      </trkpt>
      <trkpt lat="42.793150" lon="-2.764110">
        <ele>932.642</ele>
        <time>2011-10-01T13:16:10Z</time>
      </trkpt>
      <trkpt lat="42.793100" lon="-2.764220">
        <ele>931.726</ele>
        <time>2011-10-01T13:16:17Z</time>
      </trkpt>
      <trkpt lat="42.793070" lon="-2.764350">
        <ele>931.707</ele>
        <time>2011-10-01T13:16:24Z</time>
      </trkpt>
      <trkpt lat="42.793060" lon="-2.764480">
        <ele>931.748</ele>
        <time>2011-10-01T13:16:31Z</time>
      </trkpt>
      <trkpt lat="42.793040" lon="-2.764600">
        <ele>931.789</ele>
        <time>2011-10-01T13:16:38Z</time>
      </trkpt>
      <trkpt lat="42.793010" lon="-2.764720">
        <ele>930.261</ele>
        <time>2011-10-01T13:16:45Z</time>
      </trkpt>
      <trkpt lat="42.792980" lon="-2.764840">
        <ele>929.294</ele>
        <time>2011-10-01T13:16:52Z</time>
      </trkpt>
      <trkpt lat="42.792950" lon="-2.764970">
        <ele>929.761</ele>
        <time>2011-10-01T13:16:59Z</time>
      </trkpt>
      <trkpt lat="42.792910" lon="-2.765090">
        <ele>928.336</ele>
        <time>2011-10-01T13:17:06Z</time>
      </trkpt>
      <trkpt lat="42.792880" lon="-2.765230">
        <ele>928.363</ele>
        <time>2011-10-01T13:17:13Z</time>
      </trkpt>
      <trkpt lat="42.792850" lon="-2.765350">
        <ele>926.472</ele>
        <time>2011-10-01T13:17:20Z</time>
      </trkpt>
      <trkpt lat="42.792810" lon="-2.765480">
        <ele>925.413</ele>
        <time>2011-10-01T13:17:27Z</time>
      </trkpt>
      <trkpt lat="42.792760" lon="-2.765590">
        <ele>924.514</ele>
        <time>2011-10-01T13:17:34Z</time>
      </trkpt>
      <trkpt lat="42.792750" lon="-2.765730">
        <ele>925.907</ele>
        <time>2011-10-01T13:17:41Z</time>
      </trkpt>
      <trkpt lat="42.792740" lon="-2.765860">
        <ele>924.959</ele>
        <time>2011-10-01T13:17:48Z</time>
      </trkpt>
      <trkpt lat="42.792760" lon="-2.765980">
        <ele>924.570</ele>
        <time>2011-10-01T13:17:55Z</time>
      </trkpt>
      <trkpt lat="42.792780" lon="-2.766120">
        <ele>924.552</ele>
        <time>2011-10-01T13:18:02Z</time>
      </trkpt>
      <trkpt lat="42.792800" lon="-2.766250">
        <ele>924.985</ele>
        <time>2011-10-01T13:18:09Z</time>
      </trkpt>
      <trkpt lat="42.792780" lon="-2.766370">
        <ele>925.912</ele>
        <time>2011-10-01T13:18:17Z</time>
      </trkpt>
      <trkpt lat="42.792710" lon="-2.766460">
        <ele>925.417</ele>
        <time>2011-10-01T13:18:24Z</time>
      </trkpt>
      <trkpt lat="42.792650" lon="-2.766560">
        <ele>925.464</ele>
        <time>2011-10-01T13:18:31Z</time>
      </trkpt>
      <trkpt lat="42.792600" lon="-2.766670">
        <ele>924.942</ele>
        <time>2011-10-01T13:18:39Z</time>
      </trkpt>
      <trkpt lat="42.792540" lon="-2.766780">
        <ele>923.022</ele>
        <time>2011-10-01T13:18:47Z</time>
      </trkpt>
      <trkpt lat="42.792540" lon="-2.766920">
        <ele>924.014</ele>
        <time>2011-10-01T13:18:55Z</time>
      </trkpt>
      <trkpt lat="42.792490" lon="-2.767020">
        <ele>924.907</ele>
        <time>2011-10-01T13:19:03Z</time>
      </trkpt>
      <trkpt lat="42.792450" lon="-2.767120">
        <ele>923.576</ele>
        <time>2011-10-01T13:19:10Z</time>
      </trkpt>
      <trkpt lat="42.792430" lon="-2.767250">
        <ele>922.567</ele>
        <time>2011-10-01T13:19:18Z</time>
      </trkpt>
      <trkpt lat="42.792410" lon="-2.767360">
        <ele>918.799</ele>
        <time>2011-10-01T13:19:27Z</time>
      </trkpt>
      <trkpt lat="42.792410" lon="-2.767500">
        <ele>917.742</ele>
        <time>2011-10-01T13:19:35Z</time>
      </trkpt>
      <trkpt lat="42.792450" lon="-2.767630">
        <ele>917.729</ele>
        <time>2011-10-01T13:19:43Z</time>
      </trkpt>
      <trkpt lat="42.792500" lon="-2.767750">
        <ele>919.284</ele>
        <time>2011-10-01T13:19:51Z</time>
      </trkpt>
      <trkpt lat="42.792550" lon="-2.767870">
        <ele>920.181</ele>
        <time>2011-10-01T13:19:59Z</time>
      </trkpt>
      <trkpt lat="42.792560" lon="-2.768000">
        <ele>919.624</ele>
        <time>2011-10-01T13:20:07Z</time>
      </trkpt>
      <trkpt lat="42.792560" lon="-2.768120">
        <ele>920.104</ele>
        <time>2011-10-01T13:20:15Z</time>
      </trkpt>
      <trkpt lat="42.792580" lon="-2.768250">
        <ele>918.214</ele>
        <time>2011-10-01T13:20:23Z</time>
      </trkpt>
      <trkpt lat="42.792590" lon="-2.768380">
        <ele>918.207</ele>
        <time>2011-10-01T13:20:30Z</time>
      </trkpt>
      <trkpt lat="42.792558" lon="-2.768473">
        <ele>918.214</ele>
        <time>2011-10-01T13:20:38Z</time>
      </trkpt>
      <trkpt lat="42.792530" lon="-2.768570">
        <ele>919.695</ele>
        <time>2011-10-01T13:20:47Z</time>
      </trkpt>
      <trkpt lat="42.792580" lon="-2.768680">
        <ele>922.577</ele>
        <time>2011-10-01T13:20:57Z</time>
      </trkpt>
      <trkpt lat="42.792630" lon="-2.768810">
        <ele>923.040</ele>
        <time>2011-10-01T13:21:06Z</time>
      </trkpt>
      <trkpt lat="42.792670" lon="-2.768930">
        <ele>923.057</ele>
        <time>2011-10-01T13:21:14Z</time>
      </trkpt>
      <trkpt lat="42.792670" lon="-2.769060">
        <ele>923.582</ele>
        <time>2011-10-01T13:21:22Z</time>
      </trkpt>
      <trkpt lat="42.792720" lon="-2.769170">
        <ele>926.479</ele>
        <time>2011-10-01T13:21:30Z</time>
      </trkpt>
      <trkpt lat="42.792790" lon="-2.769260">
        <ele>927.898</ele>
        <time>2011-10-01T13:21:38Z</time>
      </trkpt>
      <trkpt lat="42.792800" lon="-2.769380">
        <ele>927.315</ele>
        <time>2011-10-01T13:21:46Z</time>
      </trkpt>
      <trkpt lat="42.792840" lon="-2.769490">
        <ele>929.226</ele>
        <time>2011-10-01T13:21:54Z</time>
      </trkpt>
      <trkpt lat="42.792880" lon="-2.769600">
        <ele>930.707</ele>
        <time>2011-10-01T13:22:02Z</time>
      </trkpt>
      <trkpt lat="42.792890" lon="-2.769730">
        <ele>929.791</ele>
        <time>2011-10-01T13:22:10Z</time>
      </trkpt>
      <trkpt lat="42.792910" lon="-2.769850">
        <ele>931.722</ele>
        <time>2011-10-01T13:22:19Z</time>
      </trkpt>
      <trkpt lat="42.792980" lon="-2.769940">
        <ele>932.164</ele>
        <time>2011-10-01T13:22:27Z</time>
      </trkpt>
      <trkpt lat="42.793060" lon="-2.770010">
        <ele>934.177</ele>
        <time>2011-10-01T13:22:35Z</time>
      </trkpt>
      <trkpt lat="42.793140" lon="-2.770080">
        <ele>934.194</ele>
        <time>2011-10-01T13:22:44Z</time>
      </trkpt>
      <trkpt lat="42.793190" lon="-2.770190">
        <ele>934.529</ele>
        <time>2011-10-01T13:22:53Z</time>
      </trkpt>
      <trkpt lat="42.793201" lon="-2.770225">
        <ele>937.076</ele>
        <time>2011-10-01T13:23:22Z</time>
      </trkpt>
      <trkpt lat="42.793228" lon="-2.770262">
        <ele>935.566</ele>
        <time>2011-10-01T13:24:12Z</time>
      </trkpt>
      <trkpt lat="42.793260" lon="-2.770320">
        <ele>937.029</ele>
        <time>2011-10-01T13:24:20Z</time>
      </trkpt>
      <trkpt lat="42.793320" lon="-2.770430">
        <ele>937.421</ele>
        <time>2011-10-01T13:24:29Z</time>
      </trkpt>
      <trkpt lat="42.793380" lon="-2.770530">
        <ele>937.907</ele>
        <time>2011-10-01T13:24:37Z</time>
      </trkpt>
      <trkpt lat="42.793440" lon="-2.770610">
        <ele>939.398</ele>
        <time>2011-10-01T13:24:47Z</time>
      </trkpt>
      <trkpt lat="42.793460" lon="-2.770730">
        <ele>940.339</ele>
        <time>2011-10-01T13:24:55Z</time>
      </trkpt>
      <trkpt lat="42.793490" lon="-2.770860">
        <ele>940.331</ele>
        <time>2011-10-01T13:25:03Z</time>
      </trkpt>
      <trkpt lat="42.793520" lon="-2.770970">
        <ele>939.344</ele>
        <time>2011-10-01T13:25:10Z</time>
      </trkpt>
      <trkpt lat="42.793540" lon="-2.771100">
        <ele>939.851</ele>
        <time>2011-10-01T13:25:17Z</time>
      </trkpt>
      <trkpt lat="42.793560" lon="-2.771220">
        <ele>939.836</ele>
        <time>2011-10-01T13:25:24Z</time>
      </trkpt>
      <trkpt lat="42.793590" lon="-2.771350">
        <ele>941.723</ele>
        <time>2011-10-01T13:25:31Z</time>
      </trkpt>
      <trkpt lat="42.793630" lon="-2.771450">
        <ele>941.374</ele>
        <time>2011-10-01T13:25:38Z</time>
      </trkpt>
      <trkpt lat="42.793680" lon="-2.771570">
        <ele>942.256</ele>
        <time>2011-10-01T13:25:46Z</time>
      </trkpt>
      <trkpt lat="42.793720" lon="-2.771700">
        <ele>943.721</ele>
        <time>2011-10-01T13:25:54Z</time>
      </trkpt>
      <trkpt lat="42.793750" lon="-2.771840">
        <ele>942.707</ele>
        <time>2011-10-01T13:26:02Z</time>
      </trkpt>
      <trkpt lat="42.793760" lon="-2.771970">
        <ele>941.719</ele>
        <time>2011-10-01T13:26:09Z</time>
      </trkpt>
      <trkpt lat="42.793800" lon="-2.772080">
        <ele>942.230</ele>
        <time>2011-10-01T13:26:16Z</time>
      </trkpt>
      <trkpt lat="42.793840" lon="-2.772200">
        <ele>944.132</ele>
        <time>2011-10-01T13:26:23Z</time>
      </trkpt>
      <trkpt lat="42.793890" lon="-2.772310">
        <ele>945.635</ele>
        <time>2011-10-01T13:26:30Z</time>
      </trkpt>
      <trkpt lat="42.793940" lon="-2.772430">
        <ele>945.622</ele>
        <time>2011-10-01T13:26:38Z</time>
      </trkpt>
      <trkpt lat="42.794000" lon="-2.772530">
        <ele>945.677</ele>
        <time>2011-10-01T13:26:46Z</time>
      </trkpt>
      <trkpt lat="42.794050" lon="-2.772650">
        <ele>948.544</ele>
        <time>2011-10-01T13:26:54Z</time>
      </trkpt>
      <trkpt lat="42.794080" lon="-2.772780">
        <ele>946.652</ele>
        <time>2011-10-01T13:27:02Z</time>
      </trkpt>
      <trkpt lat="42.794120" lon="-2.772900">
        <ele>948.053</ele>
        <time>2011-10-01T13:27:09Z</time>
      </trkpt>
      <trkpt lat="42.794150" lon="-2.773030">
        <ele>947.008</ele>
        <time>2011-10-01T13:27:17Z</time>
      </trkpt>
      <trkpt lat="42.794170" lon="-2.773160">
        <ele>944.107</ele>
        <time>2011-10-01T13:27:25Z</time>
      </trkpt>
      <trkpt lat="42.794200" lon="-2.773280">
        <ele>946.657</ele>
        <time>2011-10-01T13:27:33Z</time>
      </trkpt>
      <trkpt lat="42.794220" lon="-2.773290">
        <ele>948.028</ele>
        <time>2011-10-01T13:36:44Z</time>
      </trkpt>
      <trkpt lat="42.794210" lon="-2.773410">
        <ele>944.620</ele>
        <time>2011-10-01T13:39:17Z</time>
      </trkpt>
      <trkpt lat="42.794200" lon="-2.773530">
        <ele>943.793</ele>
        <time>2011-10-01T13:39:26Z</time>
      </trkpt>
      <trkpt lat="42.794150" lon="-2.773640">
        <ele>943.230</ele>
        <time>2011-10-01T13:39:35Z</time>
      </trkpt>
      <trkpt lat="42.794100" lon="-2.773770">
        <ele>943.745</ele>
        <time>2011-10-01T13:39:44Z</time>
      </trkpt>
      <trkpt lat="42.794050" lon="-2.773880">
        <ele>942.712</ele>
        <time>2011-10-01T13:39:52Z</time>
      </trkpt>
      <trkpt lat="42.794010" lon="-2.773990">
        <ele>941.735</ele>
        <time>2011-10-01T13:40:00Z</time>
      </trkpt>
      <trkpt lat="42.793960" lon="-2.774110">
        <ele>941.386</ele>
        <time>2011-10-01T13:40:08Z</time>
      </trkpt>
      <trkpt lat="42.793910" lon="-2.774220">
        <ele>939.814</ele>
        <time>2011-10-01T13:40:16Z</time>
      </trkpt>
      <trkpt lat="42.793870" lon="-2.774350">
        <ele>936.007</ele>
        <time>2011-10-01T13:40:24Z</time>
      </trkpt>
      <trkpt lat="42.793830" lon="-2.774470">
        <ele>934.155</ele>
        <time>2011-10-01T13:40:32Z</time>
      </trkpt>
      <trkpt lat="42.793790" lon="-2.774590">
        <ele>934.566</ele>
        <time>2011-10-01T13:40:40Z</time>
      </trkpt>
      <trkpt lat="42.793740" lon="-2.774700">
        <ele>932.148</ele>
        <time>2011-10-01T13:40:48Z</time>
      </trkpt>
      <trkpt lat="42.793710" lon="-2.774830">
        <ele>930.241</ele>
        <time>2011-10-01T13:40:56Z</time>
      </trkpt>
      <trkpt lat="42.793680" lon="-2.774960">
        <ele>928.848</ele>
        <time>2011-10-01T13:41:03Z</time>
      </trkpt>
      <trkpt lat="42.793650" lon="-2.775080">
        <ele>928.823</ele>
        <time>2011-10-01T13:41:10Z</time>
      </trkpt>
      <trkpt lat="42.793630" lon="-2.775200">
        <ele>927.890</ele>
        <time>2011-10-01T13:41:17Z</time>
      </trkpt>
      <trkpt lat="42.793620" lon="-2.775330">
        <ele>927.395</ele>
        <time>2011-10-01T13:41:24Z</time>
      </trkpt>
      <trkpt lat="42.793600" lon="-2.775450">
        <ele>926.849</ele>
        <time>2011-10-01T13:41:31Z</time>
      </trkpt>
      <trkpt lat="42.793560" lon="-2.775570">
        <ele>924.523</ele>
        <time>2011-10-01T13:41:39Z</time>
      </trkpt>
      <trkpt lat="42.793500" lon="-2.775680">
        <ele>924.507</ele>
        <time>2011-10-01T13:41:46Z</time>
      </trkpt>
      <trkpt lat="42.793460" lon="-2.775790">
        <ele>923.531</ele>
        <time>2011-10-01T13:41:53Z</time>
      </trkpt>
      <trkpt lat="42.793430" lon="-2.775910">
        <ele>923.082</ele>
        <time>2011-10-01T13:42:00Z</time>
      </trkpt>
      <trkpt lat="42.793400" lon="-2.776030">
        <ele>921.674</ele>
        <time>2011-10-01T13:42:07Z</time>
      </trkpt>
      <trkpt lat="42.793360" lon="-2.776150">
        <ele>920.137</ele>
        <time>2011-10-01T13:42:15Z</time>
      </trkpt>
      <trkpt lat="42.793330" lon="-2.776270">
        <ele>919.264</ele>
        <time>2011-10-01T13:42:22Z</time>
      </trkpt>
      <trkpt lat="42.793310" lon="-2.776410">
        <ele>916.399</ele>
        <time>2011-10-01T13:42:31Z</time>
      </trkpt>
      <trkpt lat="42.793270" lon="-2.776510">
        <ele>914.836</ele>
        <time>2011-10-01T13:42:38Z</time>
      </trkpt>
      <trkpt lat="42.793220" lon="-2.776610">
        <ele>914.314</ele>
        <time>2011-10-01T13:42:45Z</time>
      </trkpt>
      <trkpt lat="42.793170" lon="-2.776720">
        <ele>911.054</ele>
        <time>2011-10-01T13:42:53Z</time>
      </trkpt>
      <trkpt lat="42.793110" lon="-2.776820">
        <ele>908.109</ele>
        <time>2011-10-01T13:43:01Z</time>
      </trkpt>
      <trkpt lat="42.793070" lon="-2.776940">
        <ele>905.707</ele>
        <time>2011-10-01T13:43:09Z</time>
      </trkpt>
      <trkpt lat="42.793050" lon="-2.777060">
        <ele>903.863</ele>
        <time>2011-10-01T13:43:18Z</time>
      </trkpt>
      <trkpt lat="42.792990" lon="-2.777160">
        <ele>899.994</ele>
        <time>2011-10-01T13:43:28Z</time>
      </trkpt>
      <trkpt lat="42.792980" lon="-2.777280">
        <ele>898.036</ele>
        <time>2011-10-01T13:43:37Z</time>
      </trkpt>
      <trkpt lat="42.792980" lon="-2.777400">
        <ele>896.629</ele>
        <time>2011-10-01T13:43:47Z</time>
      </trkpt>
      <trkpt lat="42.792980" lon="-2.777530">
        <ele>894.216</ele>
        <time>2011-10-01T13:43:57Z</time>
      </trkpt>
      <trkpt lat="42.792960" lon="-2.777640">
        <ele>890.811</ele>
        <time>2011-10-01T13:44:06Z</time>
      </trkpt>
      <trkpt lat="42.792930" lon="-2.777760">
        <ele>889.898</ele>
        <time>2011-10-01T13:44:15Z</time>
      </trkpt>
      <trkpt lat="42.792900" lon="-2.777870">
        <ele>885.585</ele>
        <time>2011-10-01T13:44:24Z</time>
      </trkpt>
      <trkpt lat="42.792880" lon="-2.778000">
        <ele>882.689</ele>
        <time>2011-10-01T13:44:34Z</time>
      </trkpt>
      <trkpt lat="42.792880" lon="-2.778130">
        <ele>879.717</ele>
        <time>2011-10-01T13:44:43Z</time>
      </trkpt>
      <trkpt lat="42.792860" lon="-2.778260">
        <ele>877.807</ele>
        <time>2011-10-01T13:44:51Z</time>
      </trkpt>
      <trkpt lat="42.792860" lon="-2.778390">
        <ele>875.460</ele>
        <time>2011-10-01T13:44:59Z</time>
      </trkpt>
      <trkpt lat="42.792860" lon="-2.778520">
        <ele>872.511</ele>
        <time>2011-10-01T13:45:07Z</time>
      </trkpt>
      <trkpt lat="42.792840" lon="-2.778660">
        <ele>872.133</ele>
        <time>2011-10-01T13:45:15Z</time>
      </trkpt>
      <trkpt lat="42.792850" lon="-2.778780">
        <ele>871.636</ele>
        <time>2011-10-01T13:45:22Z</time>
      </trkpt>
      <trkpt lat="42.792860" lon="-2.778910">
        <ele>872.143</ele>
        <time>2011-10-01T13:45:30Z</time>
      </trkpt>
      <trkpt lat="42.792860" lon="-2.779040">
        <ele>875.448</ele>
        <time>2011-10-01T13:45:39Z</time>
      </trkpt>
      <trkpt lat="42.792860" lon="-2.779170">
        <ele>875.935</ele>
        <time>2011-10-01T13:45:48Z</time>
      </trkpt>
      <trkpt lat="42.792860" lon="-2.779300">
        <ele>878.878</ele>
        <time>2011-10-01T13:45:57Z</time>
      </trkpt>
      <trkpt lat="42.792840" lon="-2.779397">
        <ele>879.333</ele>
        <time>2011-10-01T13:46:07Z</time>
      </trkpt>
      <trkpt lat="42.792780" lon="-2.779520">
        <ele>880.226</ele>
        <time>2011-10-01T13:46:16Z</time>
      </trkpt>
      <trkpt lat="42.792700" lon="-2.779600">
        <ele>879.707</ele>
        <time>2011-10-01T13:46:24Z</time>
      </trkpt>
      <trkpt lat="42.792630" lon="-2.779690">
        <ele>878.879</ele>
        <time>2011-10-01T13:46:32Z</time>
      </trkpt>
      <trkpt lat="42.792560" lon="-2.779780">
        <ele>878.360</ele>
        <time>2011-10-01T13:46:40Z</time>
      </trkpt>
      <trkpt lat="42.792490" lon="-2.779860">
        <ele>877.312</ele>
        <time>2011-10-01T13:46:48Z</time>
      </trkpt>
      <trkpt lat="42.792410" lon="-2.779940">
        <ele>874.975</ele>
        <time>2011-10-01T13:46:55Z</time>
      </trkpt>
      <trkpt lat="42.792340" lon="-2.780030">
        <ele>874.572</ele>
        <time>2011-10-01T13:47:02Z</time>
      </trkpt>
      <trkpt lat="42.792280" lon="-2.780120">
        <ele>872.597</ele>
        <time>2011-10-01T13:47:09Z</time>
      </trkpt>
      <trkpt lat="42.792210" lon="-2.780200">
        <ele>871.114</ele>
        <time>2011-10-01T13:47:16Z</time>
      </trkpt>
      <trkpt lat="42.792140" lon="-2.780290">
        <ele>869.763</ele>
        <time>2011-10-01T13:47:23Z</time>
      </trkpt>
      <trkpt lat="42.792080" lon="-2.780390">
        <ele>869.244</ele>
        <time>2011-10-01T13:47:30Z</time>
      </trkpt>
      <trkpt lat="42.792020" lon="-2.780490">
        <ele>866.318</ele>
        <time>2011-10-01T13:47:37Z</time>
      </trkpt>
      <trkpt lat="42.791970" lon="-2.780590">
        <ele>864.807</ele>
        <time>2011-10-01T13:47:44Z</time>
      </trkpt>
      <trkpt lat="42.791900" lon="-2.780670">
        <ele>863.978</ele>
        <time>2011-10-01T13:47:51Z</time>
      </trkpt>
      <trkpt lat="42.791820" lon="-2.780760">
        <ele>862.979</ele>
        <time>2011-10-01T13:47:59Z</time>
      </trkpt>
      <trkpt lat="42.791760" lon="-2.780860">
        <ele>861.571</ele>
        <time>2011-10-01T13:48:07Z</time>
      </trkpt>
      <trkpt lat="42.791690" lon="-2.780970">
        <ele>860.054</ele>
        <time>2011-10-01T13:48:16Z</time>
      </trkpt>
      <trkpt lat="42.791630" lon="-2.781070">
        <ele>858.141</ele>
        <time>2011-10-01T13:48:24Z</time>
      </trkpt>
      <trkpt lat="42.791560" lon="-2.781150">
        <ele>856.236</ele>
        <time>2011-10-01T13:48:32Z</time>
      </trkpt>
      <trkpt lat="42.791480" lon="-2.781230">
        <ele>853.393</ele>
        <time>2011-10-01T13:48:40Z</time>
      </trkpt>
      <trkpt lat="42.791410" lon="-2.781320">
        <ele>851.468</ele>
        <time>2011-10-01T13:48:48Z</time>
      </trkpt>
      <trkpt lat="42.791330" lon="-2.781400">
        <ele>850.942</ele>
        <time>2011-10-01T13:48:56Z</time>
      </trkpt>
      <trkpt lat="42.791250" lon="-2.781480">
        <ele>849.926</ele>
        <time>2011-10-01T13:49:04Z</time>
      </trkpt>
      <trkpt lat="42.791180" lon="-2.781560">
        <ele>848.507</ele>
        <time>2011-10-01T13:49:11Z</time>
      </trkpt>
      <trkpt lat="42.791110" lon="-2.781650">
        <ele>847.178</ele>
        <time>2011-10-01T13:49:18Z</time>
      </trkpt>
      <trkpt lat="42.791040" lon="-2.781740">
        <ele>846.189</ele>
        <time>2011-10-01T13:49:25Z</time>
      </trkpt>
      <trkpt lat="42.790970" lon="-2.781830">
        <ele>845.631</ele>
        <time>2011-10-01T13:49:32Z</time>
      </trkpt>
      <trkpt lat="42.790910" lon="-2.781930">
        <ele>845.184</ele>
        <time>2011-10-01T13:49:39Z</time>
      </trkpt>
      <trkpt lat="42.790850" lon="-2.782020">
        <ele>844.731</ele>
        <time>2011-10-01T13:49:46Z</time>
      </trkpt>
      <trkpt lat="42.790780" lon="-2.782110">
        <ele>843.276</ele>
        <time>2011-10-01T13:49:53Z</time>
      </trkpt>
      <trkpt lat="42.790730" lon="-2.782210">
        <ele>842.333</ele>
        <time>2011-10-01T13:50:00Z</time>
      </trkpt>
      <trkpt lat="42.790670" lon="-2.782310">
        <ele>840.398</ele>
        <time>2011-10-01T13:50:07Z</time>
      </trkpt>
      <trkpt lat="42.790610" lon="-2.782400">
        <ele>840.315</ele>
        <time>2011-10-01T13:50:14Z</time>
      </trkpt>
      <trkpt lat="42.790560" lon="-2.782500">
        <ele>837.926</ele>
        <time>2011-10-01T13:50:21Z</time>
      </trkpt>
      <trkpt lat="42.790500" lon="-2.782590">
        <ele>837.007</ele>
        <time>2011-10-01T13:50:28Z</time>
      </trkpt>
      <trkpt lat="42.790450" lon="-2.782710">
        <ele>835.551</ele>
        <time>2011-10-01T13:50:36Z</time>
      </trkpt>
      <trkpt lat="42.790390" lon="-2.782830">
        <ele>834.692</ele>
        <time>2011-10-01T13:50:44Z</time>
      </trkpt>
      <trkpt lat="42.790340" lon="-2.782940">
        <ele>834.114</ele>
        <time>2011-10-01T13:50:52Z</time>
      </trkpt>
      <trkpt lat="42.790270" lon="-2.783050">
        <ele>830.747</ele>
        <time>2011-10-01T13:51:00Z</time>
      </trkpt>
      <trkpt lat="42.790220" lon="-2.783150">
        <ele>829.394</ele>
        <time>2011-10-01T13:51:07Z</time>
      </trkpt>
      <trkpt lat="42.790160" lon="-2.783260">
        <ele>827.819</ele>
        <time>2011-10-01T13:51:14Z</time>
      </trkpt>
      <trkpt lat="42.790100" lon="-2.783360">
        <ele>825.996</ele>
        <time>2011-10-01T13:51:21Z</time>
      </trkpt>
      <trkpt lat="42.790040" lon="-2.783460">
        <ele>825.958</ele>
        <time>2011-10-01T13:51:28Z</time>
      </trkpt>
      <trkpt lat="42.789980" lon="-2.783560">
        <ele>824.952</ele>
        <time>2011-10-01T13:51:35Z</time>
      </trkpt>
      <trkpt lat="42.789910" lon="-2.783650">
        <ele>824.017</ele>
        <time>2011-10-01T13:51:43Z</time>
      </trkpt>
      <trkpt lat="42.789828" lon="-2.783653">
        <ele>823.007</ele>
        <time>2011-10-01T13:51:52Z</time>
      </trkpt>
      <trkpt lat="42.789733" lon="-2.783688">
        <ele>818.757</ele>
        <time>2011-10-01T13:52:01Z</time>
      </trkpt>
      <trkpt lat="42.789652" lon="-2.783725">
        <ele>817.758</ele>
        <time>2011-10-01T13:52:10Z</time>
      </trkpt>
      <trkpt lat="42.789550" lon="-2.783790">
        <ele>814.430</ele>
        <time>2011-10-01T13:52:19Z</time>
      </trkpt>
      <trkpt lat="42.789460" lon="-2.783830">
        <ele>812.423</ele>
        <time>2011-10-01T13:52:29Z</time>
      </trkpt>
      <trkpt lat="42.789360" lon="-2.783860">
        <ele>807.260</ele>
        <time>2011-10-01T13:52:42Z</time>
      </trkpt>
      <trkpt lat="42.789270" lon="-2.783900">
        <ele>805.365</ele>
        <time>2011-10-01T13:52:54Z</time>
      </trkpt>
      <trkpt lat="42.789190" lon="-2.783950">
        <ele>802.852</ele>
        <time>2011-10-01T13:53:05Z</time>
      </trkpt>
      <trkpt lat="42.789100" lon="-2.784010">
        <ele>800.467</ele>
        <time>2011-10-01T13:53:15Z</time>
      </trkpt>
      <trkpt lat="42.789070" lon="-2.784120">
        <ele>799.981</ele>
        <time>2011-10-01T13:53:23Z</time>
      </trkpt>
      <trkpt lat="42.789010" lon="-2.784240">
        <ele>799.519</ele>
        <time>2011-10-01T13:53:31Z</time>
      </trkpt>
      <trkpt lat="42.788940" lon="-2.784320">
        <ele>798.507</ele>
        <time>2011-10-01T13:53:38Z</time>
      </trkpt>
      <trkpt lat="42.788850" lon="-2.784360">
        <ele>796.688</ele>
        <time>2011-10-01T13:53:46Z</time>
      </trkpt>
      <trkpt lat="42.788750" lon="-2.784420">
        <ele>796.119</ele>
        <time>2011-10-01T13:53:54Z</time>
      </trkpt>
      <trkpt lat="42.788710" lon="-2.784530">
        <ele>796.131</ele>
        <time>2011-10-01T13:54:01Z</time>
      </trkpt>
      <trkpt lat="42.788680" lon="-2.784650">
        <ele>797.114</ele>
        <time>2011-10-01T13:54:10Z</time>
      </trkpt>
      <trkpt lat="42.788640" lon="-2.784760">
        <ele>797.521</ele>
        <time>2011-10-01T13:54:20Z</time>
      </trkpt>
      <trkpt lat="42.788580" lon="-2.784870">
        <ele>797.546</ele>
        <time>2011-10-01T13:54:28Z</time>
      </trkpt>
      <trkpt lat="42.788500" lon="-2.784950">
        <ele>798.093</ele>
        <time>2011-10-01T13:54:36Z</time>
      </trkpt>
      <trkpt lat="42.788420" lon="-2.785020">
        <ele>797.515</ele>
        <time>2011-10-01T13:54:44Z</time>
      </trkpt>
      <trkpt lat="42.788360" lon="-2.785110">
        <ele>798.065</ele>
        <time>2011-10-01T13:54:52Z</time>
      </trkpt>
      <trkpt lat="42.788340" lon="-2.785240">
        <ele>799.511</ele>
        <time>2011-10-01T13:55:00Z</time>
      </trkpt>
      <trkpt lat="42.788350" lon="-2.785360">
        <ele>800.907</ele>
        <time>2011-10-01T13:55:08Z</time>
      </trkpt>
      <trkpt lat="42.788360" lon="-2.785490">
        <ele>802.433</ele>
        <time>2011-10-01T13:55:17Z</time>
      </trkpt>
      <trkpt lat="42.788400" lon="-2.785610">
        <ele>802.834</ele>
        <time>2011-10-01T13:55:25Z</time>
      </trkpt>
      <trkpt lat="42.788450" lon="-2.785730">
        <ele>805.356</ele>
        <time>2011-10-01T13:55:34Z</time>
      </trkpt>
      <trkpt lat="42.788500" lon="-2.785850">
        <ele>805.719</ele>
        <time>2011-10-01T13:55:42Z</time>
      </trkpt>
      <trkpt lat="42.788550" lon="-2.785970">
        <ele>806.276</ele>
        <time>2011-10-01T13:55:50Z</time>
      </trkpt>
      <trkpt lat="42.788600" lon="-2.786080">
        <ele>807.231</ele>
        <time>2011-10-01T13:55:58Z</time>
      </trkpt>
      <trkpt lat="42.788610" lon="-2.786200">
        <ele>807.258</ele>
        <time>2011-10-01T13:56:06Z</time>
      </trkpt>
      <trkpt lat="42.788580" lon="-2.786310">
        <ele>806.746</ele>
        <time>2011-10-01T13:56:15Z</time>
      </trkpt>
      <trkpt lat="42.788530" lon="-2.786430">
        <ele>804.388</ele>
        <time>2011-10-01T13:56:24Z</time>
      </trkpt>
      <trkpt lat="42.788500" lon="-2.786550">
        <ele>802.816</ele>
        <time>2011-10-01T13:56:32Z</time>
      </trkpt>
      <trkpt lat="42.788480" lon="-2.786700">
        <ele>801.407</ele>
        <time>2011-10-01T13:56:41Z</time>
      </trkpt>
      <trkpt lat="42.788480" lon="-2.786840">
        <ele>800.976</ele>
        <time>2011-10-01T13:56:49Z</time>
      </trkpt>
      <trkpt lat="42.788460" lon="-2.786970">
        <ele>799.977</ele>
        <time>2011-10-01T13:56:57Z</time>
      </trkpt>
      <trkpt lat="42.788430" lon="-2.787080">
        <ele>798.529</ele>
        <time>2011-10-01T13:57:04Z</time>
      </trkpt>
      <trkpt lat="42.788400" lon="-2.787190">
        <ele>797.532</ele>
        <time>2011-10-01T13:57:11Z</time>
      </trkpt>
      <trkpt lat="42.788370" lon="-2.787310">
        <ele>797.119</ele>
        <time>2011-10-01T13:57:18Z</time>
      </trkpt>
      <trkpt lat="42.788330" lon="-2.787420">
        <ele>794.774</ele>
        <time>2011-10-01T13:57:25Z</time>
      </trkpt>
      <trkpt lat="42.788320" lon="-2.787550">
        <ele>793.291</ele>
        <time>2011-10-01T13:57:32Z</time>
      </trkpt>
      <trkpt lat="42.788290" lon="-2.787670">
        <ele>791.872</ele>
        <time>2011-10-01T13:57:40Z</time>
      </trkpt>
      <trkpt lat="42.788280" lon="-2.787790">
        <ele>789.913</ele>
        <time>2011-10-01T13:57:48Z</time>
      </trkpt>
      <trkpt lat="42.788330" lon="-2.787910">
        <ele>788.414</ele>
        <time>2011-10-01T13:57:57Z</time>
      </trkpt>
      <trkpt lat="42.788400" lon="-2.788010">
        <ele>787.507</ele>
        <time>2011-10-01T13:58:04Z</time>
      </trkpt>
      <trkpt lat="42.788450" lon="-2.788100">
        <ele>787.979</ele>
        <time>2011-10-01T13:58:11Z</time>
      </trkpt>
      <trkpt lat="42.788500" lon="-2.788230">
        <ele>787.040</ele>
        <time>2011-10-01T13:58:19Z</time>
      </trkpt>
      <trkpt lat="42.788560" lon="-2.788340">
        <ele>786.062</ele>
        <time>2011-10-01T13:58:26Z</time>
      </trkpt>
      <trkpt lat="42.788610" lon="-2.788440">
        <ele>782.795</ele>
        <time>2011-10-01T13:58:34Z</time>
      </trkpt>
      <trkpt lat="42.788600" lon="-2.788550">
        <ele>785.052</ele>
        <time>2011-10-01T13:58:44Z</time>
      </trkpt>
      <trkpt lat="42.788550" lon="-2.788628">
        <ele>781.777</ele>
        <time>2011-10-01T13:58:53Z</time>
      </trkpt>
      <trkpt lat="42.788437" lon="-2.788683">
        <ele>779.834</ele>
        <time>2011-10-01T13:59:02Z</time>
      </trkpt>
      <trkpt lat="42.788356" lon="-2.788745">
        <ele>778.324</ele>
        <time>2011-10-01T13:59:12Z</time>
      </trkpt>
      <trkpt lat="42.788267" lon="-2.788831">
        <ele>775.904</ele>
        <time>2011-10-01T13:59:20Z</time>
      </trkpt>
      <trkpt lat="42.788190" lon="-2.788941">
        <ele>774.014</ele>
        <time>2011-10-01T13:59:28Z</time>
      </trkpt>
      <trkpt lat="42.788109" lon="-2.789051">
        <ele>773.507</ele>
        <time>2011-10-01T13:59:35Z</time>
      </trkpt>
      <trkpt lat="42.788101" lon="-2.789174">
        <ele>772.564</ele>
        <time>2011-10-01T13:59:42Z</time>
      </trkpt>
      <trkpt lat="42.788078" lon="-2.789296">
        <ele>772.575</ele>
        <time>2011-10-01T13:59:49Z</time>
      </trkpt>
      <trkpt lat="42.788033" lon="-2.789406">
        <ele>771.667</ele>
        <time>2011-10-01T13:59:56Z</time>
      </trkpt>
      <trkpt lat="42.787975" lon="-2.789504">
        <ele>769.710</ele>
        <time>2011-10-01T14:00:04Z</time>
      </trkpt>
      <trkpt lat="42.787917" lon="-2.789590">
        <ele>768.247</ele>
        <time>2011-10-01T14:00:11Z</time>
      </trkpt>
      <trkpt lat="42.787836" lon="-2.789713">
        <ele>766.342</ele>
        <time>2011-10-01T14:00:18Z</time>
      </trkpt>
      <trkpt lat="42.787782" lon="-2.789811">
        <ele>765.439</ele>
        <time>2011-10-01T14:00:25Z</time>
      </trkpt>
      <trkpt lat="42.787733" lon="-2.789921">
        <ele>764.986</ele>
        <time>2011-10-01T14:00:32Z</time>
      </trkpt>
      <trkpt lat="42.787690" lon="-2.790020">
        <ele>763.460</ele>
        <time>2011-10-01T14:00:40Z</time>
      </trkpt>
      <trkpt lat="42.787610" lon="-2.790080">
        <ele>761.526</ele>
        <time>2011-10-01T14:00:48Z</time>
      </trkpt>
      <trkpt lat="42.787510" lon="-2.790110">
        <ele>759.607</ele>
        <time>2011-10-01T14:00:57Z</time>
      </trkpt>
      <trkpt lat="42.787422" lon="-2.790124">
        <ele>757.210</ele>
        <time>2011-10-01T14:01:05Z</time>
      </trkpt>
      <trkpt lat="42.787320" lon="-2.790170">
        <ele>755.711</ele>
        <time>2011-10-01T14:01:13Z</time>
      </trkpt>
      <trkpt lat="42.787220" lon="-2.790220">
        <ele>754.383</ele>
        <time>2011-10-01T14:01:21Z</time>
      </trkpt>
      <trkpt lat="42.787120" lon="-2.790260">
        <ele>752.966</ele>
        <time>2011-10-01T14:01:28Z</time>
      </trkpt>
      <trkpt lat="42.787030" lon="-2.790280">
        <ele>750.913</ele>
        <time>2011-10-01T14:01:35Z</time>
      </trkpt>
      <trkpt lat="42.786930" lon="-2.790280">
        <ele>748.598</ele>
        <time>2011-10-01T14:01:43Z</time>
      </trkpt>
      <trkpt lat="42.786840" lon="-2.790310">
        <ele>746.675</ele>
        <time>2011-10-01T14:01:50Z</time>
      </trkpt>
      <trkpt lat="42.786750" lon="-2.790350">
        <ele>745.621</ele>
        <time>2011-10-01T14:01:57Z</time>
      </trkpt>
      <trkpt lat="42.786670" lon="-2.790430">
        <ele>744.741</ele>
        <time>2011-10-01T14:02:05Z</time>
      </trkpt>
      <trkpt lat="42.786580" lon="-2.790500">
        <ele>742.305</ele>
        <time>2011-10-01T14:02:13Z</time>
      </trkpt>
      <trkpt lat="42.786480" lon="-2.790510">
        <ele>740.407</ele>
        <time>2011-10-01T14:02:21Z</time>
      </trkpt>
      <trkpt lat="42.786370" lon="-2.790550">
        <ele>737.064</ele>
        <time>2011-10-01T14:02:29Z</time>
      </trkpt>
      <trkpt lat="42.786280" lon="-2.790600">
        <ele>734.615</ele>
        <time>2011-10-01T14:02:37Z</time>
      </trkpt>
      <trkpt lat="42.786190" lon="-2.790650">
        <ele>733.677</ele>
        <time>2011-10-01T14:02:45Z</time>
      </trkpt>
      <trkpt lat="42.786080" lon="-2.790660">
        <ele>731.730</ele>
        <time>2011-10-01T14:02:53Z</time>
      </trkpt>
      <trkpt lat="42.785970" lon="-2.790650">
        <ele>729.377</ele>
        <time>2011-10-01T14:03:01Z</time>
      </trkpt>
      <trkpt lat="42.785880" lon="-2.790640">
        <ele>726.962</ele>
        <time>2011-10-01T14:03:08Z</time>
      </trkpt>
      <trkpt lat="42.785770" lon="-2.790650">
        <ele>724.599</ele>
        <time>2011-10-01T14:03:16Z</time>
      </trkpt>
      <trkpt lat="42.785660" lon="-2.790670">
        <ele>721.693</ele>
        <time>2011-10-01T14:03:24Z</time>
      </trkpt>
      <trkpt lat="42.785560" lon="-2.790680">
        <ele>719.265</ele>
        <time>2011-10-01T14:03:32Z</time>
      </trkpt>
      <trkpt lat="42.785460" lon="-2.790700">
        <ele>716.321</ele>
        <time>2011-10-01T14:03:40Z</time>
      </trkpt>
      <trkpt lat="42.785360" lon="-2.790710">
        <ele>715.907</ele>
        <time>2011-10-01T14:03:47Z</time>
      </trkpt>
      <trkpt lat="42.785260" lon="-2.790730">
        <ele>714.451</ele>
        <time>2011-10-01T14:03:55Z</time>
      </trkpt>
      <trkpt lat="42.785160" lon="-2.790750">
        <ele>713.482</ele>
        <time>2011-10-01T14:04:02Z</time>
      </trkpt>
      <trkpt lat="42.785070" lon="-2.790790">
        <ele>711.064</ele>
        <time>2011-10-01T14:04:09Z</time>
      </trkpt>
      <trkpt lat="42.784980" lon="-2.790810">
        <ele>710.587</ele>
        <time>2011-10-01T14:04:16Z</time>
      </trkpt>
      <trkpt lat="42.784880" lon="-2.790860">
        <ele>709.124</ele>
        <time>2011-10-01T14:04:24Z</time>
      </trkpt>
      <trkpt lat="42.784790" lon="-2.790910">
        <ele>707.229</ele>
        <time>2011-10-01T14:04:31Z</time>
      </trkpt>
      <trkpt lat="42.784720" lon="-2.791010">
        <ele>706.776</ele>
        <time>2011-10-01T14:04:38Z</time>
      </trkpt>
      <trkpt lat="42.784660" lon="-2.791110">
        <ele>704.392</ele>
        <time>2011-10-01T14:04:46Z</time>
      </trkpt>
      <trkpt lat="42.784600" lon="-2.791210">
        <ele>702.473</ele>
        <time>2011-10-01T14:04:53Z</time>
      </trkpt>
      <trkpt lat="42.784540" lon="-2.791330">
        <ele>701.420</ele>
        <time>2011-10-01T14:05:00Z</time>
      </trkpt>
      <trkpt lat="42.784490" lon="-2.791450">
        <ele>700.507</ele>
        <time>2011-10-01T14:05:07Z</time>
      </trkpt>
      <trkpt lat="42.784440" lon="-2.791570">
        <ele>699.511</ele>
        <time>2011-10-01T14:05:14Z</time>
      </trkpt>
      <trkpt lat="42.784390" lon="-2.791670">
        <ele>699.592</ele>
        <time>2011-10-01T14:05:20Z</time>
      </trkpt>
      <trkpt lat="42.784330" lon="-2.791780">
        <ele>699.084</ele>
        <time>2011-10-01T14:05:27Z</time>
      </trkpt>
      <trkpt lat="42.784260" lon="-2.791890">
        <ele>698.137</ele>
        <time>2011-10-01T14:05:35Z</time>
      </trkpt>
      <trkpt lat="42.784190" lon="-2.791970">
        <ele>694.724</ele>
        <time>2011-10-01T14:05:42Z</time>
      </trkpt>
      <trkpt lat="42.784120" lon="-2.792050">
        <ele>692.859</ele>
        <time>2011-10-01T14:05:49Z</time>
      </trkpt>
      <trkpt lat="42.784040" lon="-2.792130">
        <ele>691.856</ele>
        <time>2011-10-01T14:05:57Z</time>
      </trkpt>
      <trkpt lat="42.783960" lon="-2.792180">
        <ele>689.955</ele>
        <time>2011-10-01T14:06:05Z</time>
      </trkpt>
      <trkpt lat="42.783870" lon="-2.792230">
        <ele>687.007</ele>
        <time>2011-10-01T14:06:13Z</time>
      </trkpt>
      <trkpt lat="42.783780" lon="-2.792300">
        <ele>684.617</ele>
        <time>2011-10-01T14:06:21Z</time>
      </trkpt>
      <trkpt lat="42.783720" lon="-2.792400">
        <ele>681.707</ele>
        <time>2011-10-01T14:06:29Z</time>
      </trkpt>
      <trkpt lat="42.783660" lon="-2.792490">
        <ele>679.857</ele>
        <time>2011-10-01T14:06:37Z</time>
      </trkpt>
      <trkpt lat="42.783590" lon="-2.792580">
        <ele>677.998</ele>
        <time>2011-10-01T14:06:46Z</time>
      </trkpt>
      <trkpt lat="42.783540" lon="-2.792700">
        <ele>676.050</ele>
        <time>2011-10-01T14:06:54Z</time>
      </trkpt>
      <trkpt lat="42.783500" lon="-2.792830">
        <ele>673.543</ele>
        <time>2011-10-01T14:07:02Z</time>
      </trkpt>
      <trkpt lat="42.783450" lon="-2.792930">
        <ele>670.780</ele>
        <time>2011-10-01T14:07:10Z</time>
      </trkpt>
      <trkpt lat="42.783440" lon="-2.793070">
        <ele>668.785</ele>
        <time>2011-10-01T14:07:18Z</time>
      </trkpt>
      <trkpt lat="42.783420" lon="-2.793200">
        <ele>667.812</ele>
        <time>2011-10-01T14:07:26Z</time>
      </trkpt>
      <trkpt lat="42.783410" lon="-2.793330">
        <ele>666.333</ele>
        <time>2011-10-01T14:07:34Z</time>
      </trkpt>
      <trkpt lat="42.783400" lon="-2.793460">
        <ele>663.923</ele>
        <time>2011-10-01T14:07:42Z</time>
      </trkpt>
      <trkpt lat="42.783380" lon="-2.793600">
        <ele>661.115</ele>
        <time>2011-10-01T14:07:50Z</time>
      </trkpt>
      <trkpt lat="42.783350" lon="-2.793720">
        <ele>659.607</ele>
        <time>2011-10-01T14:07:57Z</time>
      </trkpt>
      <trkpt lat="42.783330" lon="-2.793850">
        <ele>658.225</ele>
        <time>2011-10-01T14:08:04Z</time>
      </trkpt>
      <trkpt lat="42.783300" lon="-2.793970">
        <ele>656.246</ele>
        <time>2011-10-01T14:08:11Z</time>
      </trkpt>
      <trkpt lat="42.783260" lon="-2.794080">
        <ele>654.828</ele>
        <time>2011-10-01T14:08:18Z</time>
      </trkpt>
      <trkpt lat="42.783210" lon="-2.794200">
        <ele>651.991</ele>
        <time>2011-10-01T14:08:26Z</time>
      </trkpt>
      <trkpt lat="42.783180" lon="-2.794320">
        <ele>650.548</ele>
        <time>2011-10-01T14:08:33Z</time>
      </trkpt>
      <trkpt lat="42.783130" lon="-2.794430">
        <ele>649.043</ele>
        <time>2011-10-01T14:08:40Z</time>
      </trkpt>
      <trkpt lat="42.783090" lon="-2.794540">
        <ele>647.180</ele>
        <time>2011-10-01T14:08:47Z</time>
      </trkpt>
      <trkpt lat="42.783030" lon="-2.794640">
        <ele>645.215</ele>
        <time>2011-10-01T14:08:55Z</time>
      </trkpt>
      <trkpt lat="42.782960" lon="-2.794730">
        <ele>643.265</ele>
        <time>2011-10-01T14:09:02Z</time>
      </trkpt>
      <trkpt lat="42.782880" lon="-2.794810">
        <ele>641.311</ele>
        <time>2011-10-01T14:09:09Z</time>
      </trkpt>
      <trkpt lat="42.782790" lon="-2.794890">
        <ele>640.407</ele>
        <time>2011-10-01T14:09:16Z</time>
      </trkpt>
      <trkpt lat="42.782720" lon="-2.794980">
        <ele>638.553</ele>
        <time>2011-10-01T14:09:23Z</time>
      </trkpt>
      <trkpt lat="42.782640" lon="-2.795060">
        <ele>638.034</ele>
        <time>2011-10-01T14:09:30Z</time>
      </trkpt>
      <trkpt lat="42.782560" lon="-2.795140">
        <ele>636.586</ele>
        <time>2011-10-01T14:09:37Z</time>
      </trkpt>
      <trkpt lat="42.782480" lon="-2.795220">
        <ele>635.629</ele>
        <time>2011-10-01T14:09:44Z</time>
      </trkpt>
      <trkpt lat="42.782410" lon="-2.795300">
        <ele>635.686</ele>
        <time>2011-10-01T14:09:51Z</time>
      </trkpt>
      <trkpt lat="42.782330" lon="-2.795360">
        <ele>634.661</ele>
        <time>2011-10-01T14:09:58Z</time>
      </trkpt>
      <trkpt lat="42.782250" lon="-2.795440">
        <ele>634.138</ele>
        <time>2011-10-01T14:10:05Z</time>
      </trkpt>
      <trkpt lat="42.782190" lon="-2.795540">
        <ele>633.276</ele>
        <time>2011-10-01T14:10:12Z</time>
      </trkpt>
      <trkpt lat="42.782130" lon="-2.795630">
        <ele>631.790</ele>
        <time>2011-10-01T14:10:19Z</time>
      </trkpt>
      <trkpt lat="42.782080" lon="-2.795730">
        <ele>628.819</ele>
        <time>2011-10-01T14:10:26Z</time>
      </trkpt>
      <trkpt lat="42.782030" lon="-2.795830">
        <ele>626.907</ele>
        <time>2011-10-01T14:10:33Z</time>
      </trkpt>
      <trkpt lat="42.781930" lon="-2.795880">
        <ele>626.439</ele>
        <time>2011-10-01T14:10:40Z</time>
      </trkpt>
      <trkpt lat="42.781840" lon="-2.795900">
        <ele>624.570</ele>
        <time>2011-10-01T14:10:47Z</time>
      </trkpt>
      <trkpt lat="42.781740" lon="-2.795910">
        <ele>624.022</ele>
        <time>2011-10-01T14:10:54Z</time>
      </trkpt>
      <trkpt lat="42.781660" lon="-2.795940">
        <ele>622.635</ele>
        <time>2011-10-01T14:11:01Z</time>
      </trkpt>
      <trkpt lat="42.781570" lon="-2.796000">
        <ele>621.272</ele>
        <time>2011-10-01T14:11:09Z</time>
      </trkpt>
      <trkpt lat="42.781490" lon="-2.796060">
        <ele>619.797</ele>
        <time>2011-10-01T14:11:17Z</time>
      </trkpt>
      <trkpt lat="42.781400" lon="-2.796100">
        <ele>618.754</ele>
        <time>2011-10-01T14:11:24Z</time>
      </trkpt>
      <trkpt lat="42.781310" lon="-2.796140">
        <ele>617.336</ele>
        <time>2011-10-01T14:11:31Z</time>
      </trkpt>
      <trkpt lat="42.781200" lon="-2.796170">
        <ele>617.317</ele>
        <time>2011-10-01T14:11:38Z</time>
      </trkpt>
      <trkpt lat="42.781110" lon="-2.796200">
        <ele>616.818</ele>
        <time>2011-10-01T14:11:45Z</time>
      </trkpt>
      <trkpt lat="42.781010" lon="-2.796250">
        <ele>615.407</ele>
        <time>2011-10-01T14:11:53Z</time>
      </trkpt>
      <trkpt lat="42.780930" lon="-2.796320">
        <ele>615.455</ele>
        <time>2011-10-01T14:12:01Z</time>
      </trkpt>
      <trkpt lat="42.780840" lon="-2.796370">
        <ele>613.036</ele>
        <time>2011-10-01T14:12:09Z</time>
      </trkpt>
      <trkpt lat="42.780730" lon="-2.796360">
        <ele>609.618</ele>
        <time>2011-10-01T14:12:18Z</time>
      </trkpt>
      <trkpt lat="42.780630" lon="-2.796370">
        <ele>607.791</ele>
        <time>2011-10-01T14:12:27Z</time>
      </trkpt>
      <trkpt lat="42.780530" lon="-2.796370">
        <ele>604.878</ele>
        <time>2011-10-01T14:12:35Z</time>
      </trkpt>
      <trkpt lat="42.780440" lon="-2.796380">
        <ele>602.933</ele>
        <time>2011-10-01T14:12:43Z</time>
      </trkpt>
      <trkpt lat="42.780350" lon="-2.796370">
        <ele>601.440</ele>
        <time>2011-10-01T14:12:51Z</time>
      </trkpt>
      <trkpt lat="42.780260" lon="-2.796320">
        <ele>599.082</ele>
        <time>2011-10-01T14:13:00Z</time>
      </trkpt>
      <trkpt lat="42.780160" lon="-2.796300">
        <ele>596.643</ele>
        <time>2011-10-01T14:13:08Z</time>
      </trkpt>
      <trkpt lat="42.780080" lon="-2.796260">
        <ele>594.217</ele>
        <time>2011-10-01T14:13:16Z</time>
      </trkpt>
      <trkpt lat="42.779990" lon="-2.796210">
        <ele>592.807</ele>
        <time>2011-10-01T14:13:24Z</time>
      </trkpt>
      <trkpt lat="42.779900" lon="-2.796180">
        <ele>589.940</ele>
        <time>2011-10-01T14:13:32Z</time>
      </trkpt>
      <trkpt lat="42.779810" lon="-2.796140">
        <ele>587.531</ele>
        <time>2011-10-01T14:13:40Z</time>
      </trkpt>
      <trkpt lat="42.779710" lon="-2.796100">
        <ele>585.693</ele>
        <time>2011-10-01T14:13:48Z</time>
      </trkpt>
      <trkpt lat="42.779620" lon="-2.796090">
        <ele>582.716</ele>
        <time>2011-10-01T14:13:56Z</time>
      </trkpt>
      <trkpt lat="42.779520" lon="-2.796110">
        <ele>581.713</ele>
        <time>2011-10-01T14:14:05Z</time>
      </trkpt>
      <trkpt lat="42.779440" lon="-2.796160">
        <ele>579.868</ele>
        <time>2011-10-01T14:14:13Z</time>
      </trkpt>
      <trkpt lat="42.779360" lon="-2.796250">
        <ele>576.925</ele>
        <time>2011-10-01T14:14:21Z</time>
      </trkpt>
      <trkpt lat="42.779280" lon="-2.796320">
        <ele>575.547</ele>
        <time>2011-10-01T14:14:29Z</time>
      </trkpt>
      <trkpt lat="42.779190" lon="-2.796380">
        <ele>573.129</ele>
        <time>2011-10-01T14:14:37Z</time>
      </trkpt>
      <trkpt lat="42.779110" lon="-2.796440">
        <ele>572.121</ele>
        <time>2011-10-01T14:14:44Z</time>
      </trkpt>
      <trkpt lat="42.779020" lon="-2.796490">
        <ele>569.707</ele>
        <time>2011-10-01T14:14:52Z</time>
      </trkpt>
      <trkpt lat="42.778930" lon="-2.796560">
        <ele>567.836</ele>
        <time>2011-10-01T14:15:00Z</time>
      </trkpt>
      <trkpt lat="42.778850" lon="-2.796610">
        <ele>565.917</ele>
        <time>2011-10-01T14:15:07Z</time>
      </trkpt>
      <trkpt lat="42.778760" lon="-2.796640">
        <ele>563.919</ele>
        <time>2011-10-01T14:15:14Z</time>
      </trkpt>
      <trkpt lat="42.778670" lon="-2.796650">
        <ele>563.082</ele>
        <time>2011-10-01T14:15:21Z</time>
      </trkpt>
      <trkpt lat="42.778580" lon="-2.796680">
        <ele>562.089</ele>
        <time>2011-10-01T14:15:28Z</time>
      </trkpt>
      <trkpt lat="42.778490" lon="-2.796730">
        <ele>559.674</ele>
        <time>2011-10-01T14:15:35Z</time>
      </trkpt>
      <trkpt lat="42.778420" lon="-2.796800">
        <ele>558.791</ele>
        <time>2011-10-01T14:15:44Z</time>
      </trkpt>
      <trkpt lat="42.778350" lon="-2.796890">
        <ele>558.799</ele>
        <time>2011-10-01T14:15:52Z</time>
      </trkpt>
      <trkpt lat="42.778290" lon="-2.796980">
        <ele>558.207</ele>
        <time>2011-10-01T14:15:59Z</time>
      </trkpt>
      <trkpt lat="42.778220" lon="-2.797080">
        <ele>557.727</ele>
        <time>2011-10-01T14:16:06Z</time>
      </trkpt>
      <trkpt lat="42.778150" lon="-2.797180">
        <ele>556.707</ele>
        <time>2011-10-01T14:16:14Z</time>
      </trkpt>
      <trkpt lat="42.778080" lon="-2.797270">
        <ele>556.721</ele>
        <time>2011-10-01T14:16:21Z</time>
      </trkpt>
      <trkpt lat="42.778000" lon="-2.797340">
        <ele>556.392</ele>
        <time>2011-10-01T14:16:28Z</time>
      </trkpt>
      <trkpt lat="42.777920" lon="-2.797400">
        <ele>555.884</ele>
        <time>2011-10-01T14:16:35Z</time>
      </trkpt>
      <trkpt lat="42.777840" lon="-2.797450">
        <ele>554.897</ele>
        <time>2011-10-01T14:16:43Z</time>
      </trkpt>
      <trkpt lat="42.777810" lon="-2.797460">
        <ele>554.854</ele>
        <time>2011-10-01T14:17:00Z</time>
      </trkpt>
      <trkpt lat="42.777740" lon="-2.797550">
        <ele>554.369</ele>
        <time>2011-10-01T14:17:07Z</time>
      </trkpt>
      <trkpt lat="42.777660" lon="-2.797630">
        <ele>554.346</ele>
        <time>2011-10-01T14:17:15Z</time>
      </trkpt>
      <trkpt lat="42.777580" lon="-2.797700">
        <ele>554.875</ele>
        <time>2011-10-01T14:17:23Z</time>
      </trkpt>
      <trkpt lat="42.777520" lon="-2.797820">
        <ele>553.928</ele>
        <time>2011-10-01T14:17:33Z</time>
      </trkpt>
      <trkpt lat="42.777470" lon="-2.797870">
        <ele>553.920</ele>
        <time>2011-10-01T14:18:14Z</time>
      </trkpt>
      <trkpt lat="42.777390" lon="-2.797940">
        <ele>554.307</ele>
        <time>2011-10-01T14:18:25Z</time>
      </trkpt>
      <trkpt lat="42.777310" lon="-2.798000">
        <ele>554.329</ele>
        <time>2011-10-01T14:18:33Z</time>
      </trkpt>
      <trkpt lat="42.777220" lon="-2.798060">
        <ele>555.360</ele>
        <time>2011-10-01T14:18:41Z</time>
      </trkpt>
      <trkpt lat="42.777130" lon="-2.798110">
        <ele>554.892</ele>
        <time>2011-10-01T14:18:49Z</time>
      </trkpt>
      <trkpt lat="42.777030" lon="-2.798150">
        <ele>553.945</ele>
        <time>2011-10-01T14:18:57Z</time>
      </trkpt>
      <trkpt lat="42.776930" lon="-2.798170">
        <ele>553.442</ele>
        <time>2011-10-01T14:19:05Z</time>
      </trkpt>
      <trkpt lat="42.776820" lon="-2.798180">
        <ele>551.427</ele>
        <time>2011-10-01T14:19:13Z</time>
      </trkpt>
      <trkpt lat="42.776630" lon="-2.798220">
        <ele>550.524</ele>
        <time>2011-10-01T14:19:31Z</time>
      </trkpt>
      <trkpt lat="42.776568" lon="-2.798351">
        <ele>550.089</ele>
        <time>2011-10-01T14:19:39Z</time>
      </trkpt>
      <trkpt lat="42.776491" lon="-2.798345">
        <ele>549.506</ele>
        <time>2011-10-01T14:19:47Z</time>
      </trkpt>
      <trkpt lat="42.776406" lon="-2.798284">
        <ele>548.126</ele>
        <time>2011-10-01T14:19:54Z</time>
      </trkpt>
      <trkpt lat="42.776210" lon="-2.798230">
        <ele>546.707</ele>
        <time>2011-10-01T14:20:08Z</time>
      </trkpt>
      <trkpt lat="42.776110" lon="-2.798200">
        <ele>546.750</ele>
        <time>2011-10-01T14:20:16Z</time>
      </trkpt>
      <trkpt lat="42.775930" lon="-2.798130">
        <ele>546.721</ele>
        <time>2011-10-01T14:20:31Z</time>
      </trkpt>
      <trkpt lat="42.775830" lon="-2.798080">
        <ele>548.113</ele>
        <time>2011-10-01T14:21:00Z</time>
      </trkpt>
      <trkpt lat="42.775810" lon="-2.798020">
        <ele>549.566</ele>
        <time>2011-10-01T14:21:39Z</time>
      </trkpt>
      <trkpt lat="42.775770" lon="-2.797970">
        <ele>549.083</ele>
        <time>2011-10-01T14:22:49Z</time>
      </trkpt>
      <trkpt lat="42.775670" lon="-2.797960">
        <ele>550.078</ele>
        <time>2011-10-01T14:22:59Z</time>
      </trkpt>
      <trkpt lat="42.775570" lon="-2.797930">
        <ele>551.035</ele>
        <time>2011-10-01T14:23:08Z</time>
      </trkpt>
      <trkpt lat="42.775480" lon="-2.797920">
        <ele>551.977</ele>
        <time>2011-10-01T14:23:18Z</time>
      </trkpt>
      <trkpt lat="42.775410" lon="-2.797990">
        <ele>552.461</ele>
        <time>2011-10-01T14:23:28Z</time>
      </trkpt>
      <trkpt lat="42.775320" lon="-2.798050">
        <ele>552.927</ele>
        <time>2011-10-01T14:23:41Z</time>
      </trkpt>
      <trkpt lat="42.775290" lon="-2.798140">
        <ele>553.907</ele>
        <time>2011-10-01T14:23:51Z</time>
      </trkpt>
      <trkpt lat="42.775325" lon="-2.798153">
        <ele>553.429</ele>
        <time>2011-10-01T14:24:12Z</time>
      </trkpt>
      <trkpt lat="42.775298" lon="-2.798226">
        <ele>552.930</ele>
        <time>2011-10-01T14:25:36Z</time>
      </trkpt>
      <trkpt lat="42.775300" lon="-2.798260">
        <ele>551.072</ele>
        <time>2011-10-01T14:25:54Z</time>
      </trkpt>
      <trkpt lat="42.775360" lon="-2.798330">
        <ele>548.685</ele>
        <time>2011-10-01T14:26:07Z</time>
      </trkpt>
      <trkpt lat="42.806030" lon="-2.776910">
        <ele>602.487</ele>
        <time>2012-05-01T09:51:04Z</time>
      </trkpt>
      <trkpt lat="42.805970" lon="-2.776790">
        <ele>603.442</ele>
        <time>2012-05-01T09:51:05Z</time>
      </trkpt>
      <trkpt lat="42.805980" lon="-2.776840">
        <ele>603.026</ele>
        <time>2012-05-01T09:51:09Z</time>
      </trkpt>
      <trkpt lat="42.806000" lon="-2.776830">
        <ele>603.007</ele>
        <time>2012-05-01T09:55:10Z</time>
      </trkpt>
      <trkpt lat="42.805970" lon="-2.776780">
        <ele>603.430</ele>
        <time>2012-05-01T09:55:51Z</time>
      </trkpt>
      <trkpt lat="42.805950" lon="-2.776720">
        <ele>603.877</ele>
        <time>2012-05-01T09:56:13Z</time>
      </trkpt>
      <trkpt lat="42.805890" lon="-2.776680">
        <ele>604.257</ele>
        <time>2012-05-01T09:56:39Z</time>
      </trkpt>
      <trkpt lat="42.805810" lon="-2.776620">
        <ele>604.838</ele>
        <time>2012-05-01T09:56:53Z</time>
      </trkpt>
      <trkpt lat="42.805760" lon="-2.776630">
        <ele>604.821</ele>
        <time>2012-05-01T09:57:33Z</time>
      </trkpt>
      <trkpt lat="42.805700" lon="-2.776570">
        <ele>605.350</ele>
        <time>2012-05-01T09:57:45Z</time>
      </trkpt>
      <trkpt lat="42.805610" lon="-2.776540">
        <ele>605.829</ele>
        <time>2012-05-01T09:57:55Z</time>
      </trkpt>
      <trkpt lat="42.805520" lon="-2.776510">
        <ele>606.598</ele>
        <time>2012-05-01T09:58:05Z</time>
      </trkpt>
      <trkpt lat="42.805430" lon="-2.776460">
        <ele>607.315</ele>
        <time>2012-05-01T09:58:14Z</time>
      </trkpt>
      <trkpt lat="42.805340" lon="-2.776400">
        <ele>608.426</ele>
        <time>2012-05-01T09:58:24Z</time>
      </trkpt>
      <trkpt lat="42.805250" lon="-2.776340">
        <ele>609.507</ele>
        <time>2012-05-01T09:58:33Z</time>
      </trkpt>
      <trkpt lat="42.805170" lon="-2.776280">
        <ele>610.661</ele>
        <time>2012-05-01T09:58:41Z</time>
      </trkpt>
      <trkpt lat="42.805090" lon="-2.776220">
        <ele>611.748</ele>
        <time>2012-05-01T09:58:50Z</time>
      </trkpt>
      <trkpt lat="42.805000" lon="-2.776170">
        <ele>612.928</ele>
        <time>2012-05-01T09:58:59Z</time>
      </trkpt>
      <trkpt lat="42.804920" lon="-2.776100">
        <ele>614.289</ele>
        <time>2012-05-01T09:59:09Z</time>
      </trkpt>
      <trkpt lat="42.804840" lon="-2.776040">
        <ele>615.442</ele>
        <time>2012-05-01T09:59:19Z</time>
      </trkpt>
      <trkpt lat="42.804750" lon="-2.775990">
        <ele>616.721</ele>
        <time>2012-05-01T09:59:29Z</time>
      </trkpt>
      <trkpt lat="42.804660" lon="-2.775950">
        <ele>617.910</ele>
        <time>2012-05-01T09:59:39Z</time>
      </trkpt>
      <trkpt lat="42.804560" lon="-2.775910">
        <ele>619.428</ele>
        <time>2012-05-01T09:59:49Z</time>
      </trkpt>
      <trkpt lat="42.804470" lon="-2.775870">
        <ele>620.689</ele>
        <time>2012-05-01T09:59:59Z</time>
      </trkpt>
      <trkpt lat="42.804380" lon="-2.775830">
        <ele>621.917</ele>
        <time>2012-05-01T10:00:09Z</time>
      </trkpt>
      <trkpt lat="42.804300" lon="-2.775790">
        <ele>623.007</ele>
        <time>2012-05-01T10:01:09Z</time>
      </trkpt>
      <trkpt lat="42.804220" lon="-2.775740">
        <ele>624.174</ele>
        <time>2012-05-01T10:01:21Z</time>
      </trkpt>
      <trkpt lat="42.804130" lon="-2.775690">
        <ele>625.461</ele>
        <time>2012-05-01T10:01:34Z</time>
      </trkpt>
      <trkpt lat="42.804050" lon="-2.775620">
        <ele>626.721</ele>
        <time>2012-05-01T10:01:43Z</time>
      </trkpt>
      <trkpt lat="42.803960" lon="-2.775550">
        <ele>628.312</ele>
        <time>2012-05-01T10:01:53Z</time>
      </trkpt>
      <trkpt lat="42.803880" lon="-2.775490">
        <ele>629.785</ele>
        <time>2012-05-01T10:02:02Z</time>
      </trkpt>
      <trkpt lat="42.803800" lon="-2.775430">
        <ele>631.124</ele>
        <time>2012-05-01T10:02:12Z</time>
      </trkpt>
      <trkpt lat="42.803720" lon="-2.775360">
        <ele>632.583</ele>
        <time>2012-05-01T10:02:19Z</time>
      </trkpt>
      <trkpt lat="42.803640" lon="-2.775280">
        <ele>633.692</ele>
        <time>2012-05-01T10:02:27Z</time>
      </trkpt>
      <trkpt lat="42.803550" lon="-2.775220">
        <ele>634.873</ele>
        <time>2012-05-01T10:02:35Z</time>
      </trkpt>
      <trkpt lat="42.803460" lon="-2.775200">
        <ele>636.020</ele>
        <time>2012-05-01T10:02:44Z</time>
      </trkpt>
      <trkpt lat="42.803430" lon="-2.775330">
        <ele>636.807</ele>
        <time>2012-05-01T10:03:23Z</time>
      </trkpt>
      <trkpt lat="42.803430" lon="-2.775450">
        <ele>637.151</ele>
        <time>2012-05-01T10:03:31Z</time>
      </trkpt>
      <trkpt lat="42.803380" lon="-2.775550">
        <ele>637.928</ele>
        <time>2012-05-01T10:03:41Z</time>
      </trkpt>
      <trkpt lat="42.803290" lon="-2.775560">
        <ele>639.448</ele>
        <time>2012-05-01T10:03:52Z</time>
      </trkpt>
      <trkpt lat="42.803190" lon="-2.775550">
        <ele>641.189</ele>
        <time>2012-05-01T10:04:02Z</time>
      </trkpt>
      <trkpt lat="42.803100" lon="-2.775550">
        <ele>642.852</ele>
        <time>2012-05-01T10:04:12Z</time>
      </trkpt>
      <trkpt lat="42.803000" lon="-2.775570">
        <ele>644.821</ele>
        <time>2012-05-01T10:04:22Z</time>
      </trkpt>
      <trkpt lat="42.802900" lon="-2.775590">
        <ele>647.230</ele>
        <time>2012-05-01T10:04:32Z</time>
      </trkpt>
      <trkpt lat="42.802810" lon="-2.775630">
        <ele>649.354</ele>
        <time>2012-05-01T10:04:41Z</time>
      </trkpt>
      <trkpt lat="42.802720" lon="-2.775670">
        <ele>651.456</ele>
        <time>2012-05-01T10:04:51Z</time>
      </trkpt>
      <trkpt lat="42.802620" lon="-2.775700">
        <ele>653.611</ele>
        <time>2012-05-01T10:05:01Z</time>
      </trkpt>
      <trkpt lat="42.802540" lon="-2.775740">
        <ele>655.307</ele>
        <time>2012-05-01T10:05:13Z</time>
      </trkpt>
      <trkpt lat="42.802450" lon="-2.775770">
        <ele>657.137</ele>
        <time>2012-05-01T10:05:23Z</time>
      </trkpt>
      <trkpt lat="42.802370" lon="-2.775810">
        <ele>658.754</ele>
        <time>2012-05-01T10:05:33Z</time>
      </trkpt>
      <trkpt lat="42.802280" lon="-2.775860">
        <ele>660.464</ele>
        <time>2012-05-01T10:05:43Z</time>
      </trkpt>
      <trkpt lat="42.802180" lon="-2.775880">
        <ele>662.165</ele>
        <time>2012-05-01T10:05:53Z</time>
      </trkpt>
      <trkpt lat="42.802090" lon="-2.775900">
        <ele>663.738</ele>
        <time>2012-05-01T10:06:03Z</time>
      </trkpt>
      <trkpt lat="42.801990" lon="-2.775910">
        <ele>665.587</ele>
        <time>2012-05-01T10:06:13Z</time>
      </trkpt>
      <trkpt lat="42.801910" lon="-2.775940">
        <ele>666.836</ele>
        <time>2012-05-01T10:06:23Z</time>
      </trkpt>
      <trkpt lat="42.801820" lon="-2.775990">
        <ele>668.173</ele>
        <time>2012-05-01T10:06:34Z</time>
      </trkpt>
      <trkpt lat="42.801750" lon="-2.776070">
        <ele>669.285</ele>
        <time>2012-05-01T10:06:45Z</time>
      </trkpt>
      <trkpt lat="42.801670" lon="-2.776140">
        <ele>670.413</ele>
        <time>2012-05-01T10:06:56Z</time>
      </trkpt>
      <trkpt lat="42.801590" lon="-2.776220">
        <ele>671.807</ele>
        <time>2012-05-01T10:07:07Z</time>
      </trkpt>
      <trkpt lat="42.801520" lon="-2.776300">
        <ele>673.319</ele>
        <time>2012-05-01T10:07:18Z</time>
      </trkpt>
      <trkpt lat="42.801450" lon="-2.776390">
        <ele>675.066</ele>
        <time>2012-05-01T10:07:29Z</time>
      </trkpt>
      <trkpt lat="42.801450" lon="-2.776520">
        <ele>676.786</ele>
        <time>2012-05-01T10:07:42Z</time>
      </trkpt>
      <trkpt lat="42.801460" lon="-2.776650">
        <ele>678.797</ele>
        <time>2012-05-01T10:07:53Z</time>
      </trkpt>
      <trkpt lat="42.801480" lon="-2.776780">
        <ele>680.760</ele>
        <time>2012-05-01T10:08:03Z</time>
      </trkpt>
      <trkpt lat="42.801530" lon="-2.776880">
        <ele>682.159</ele>
        <time>2012-05-01T10:08:13Z</time>
      </trkpt>
      <trkpt lat="42.801580" lon="-2.776980">
        <ele>683.378</ele>
        <time>2012-05-01T10:08:22Z</time>
      </trkpt>
      <trkpt lat="42.801650" lon="-2.777080">
        <ele>684.327</ele>
        <time>2012-05-01T10:08:32Z</time>
      </trkpt>
      <trkpt lat="42.801700" lon="-2.777180">
        <ele>685.468</ele>
        <time>2012-05-01T10:08:43Z</time>
      </trkpt>
      <trkpt lat="42.801740" lon="-2.777300">
        <ele>686.514</ele>
        <time>2012-05-01T10:08:53Z</time>
      </trkpt>
      <trkpt lat="42.801730" lon="-2.777420">
        <ele>687.607</ele>
        <time>2012-05-01T10:09:04Z</time>
      </trkpt>
      <trkpt lat="42.801710" lon="-2.777540">
        <ele>688.584</ele>
        <time>2012-05-01T10:09:14Z</time>
      </trkpt>
      <trkpt lat="42.801680" lon="-2.777660">
        <ele>689.131</ele>
        <time>2012-05-01T10:09:23Z</time>
      </trkpt>
      <trkpt lat="42.801650" lon="-2.777780">
        <ele>689.391</ele>
        <time>2012-05-01T10:09:34Z</time>
      </trkpt>
      <trkpt lat="42.801600" lon="-2.777900">
        <ele>689.412</ele>
        <time>2012-05-01T10:09:45Z</time>
      </trkpt>
      <trkpt lat="42.801550" lon="-2.778010">
        <ele>689.715</ele>
        <time>2012-05-01T10:09:56Z</time>
      </trkpt>
      <trkpt lat="42.801500" lon="-2.778120">
        <ele>689.724</ele>
        <time>2012-05-01T10:10:05Z</time>
      </trkpt>
      <trkpt lat="42.801440" lon="-2.778210">
        <ele>689.783</ele>
        <time>2012-05-01T10:10:20Z</time>
      </trkpt>
      <trkpt lat="42.801400" lon="-2.778310">
        <ele>689.498</ele>
        <time>2012-05-01T10:10:31Z</time>
      </trkpt>
      <trkpt lat="42.801350" lon="-2.778420">
        <ele>689.015</ele>
        <time>2012-05-01T10:10:42Z</time>
      </trkpt>
      <trkpt lat="42.801290" lon="-2.778520">
        <ele>688.826</ele>
        <time>2012-05-01T10:10:53Z</time>
      </trkpt>
      <trkpt lat="42.801210" lon="-2.778620">
        <ele>689.207</ele>
        <time>2012-05-01T10:11:03Z</time>
      </trkpt>
      <trkpt lat="42.801150" lon="-2.778700">
        <ele>689.591</ele>
        <time>2012-05-01T10:11:12Z</time>
      </trkpt>
      <trkpt lat="42.801070" lon="-2.778740">
        <ele>690.468</ele>
        <time>2012-05-01T10:11:58Z</time>
      </trkpt>
      <trkpt lat="42.801010" lon="-2.778720">
        <ele>691.628</ele>
        <time>2012-05-01T10:12:11Z</time>
      </trkpt>
      <trkpt lat="42.800920" lon="-2.778700">
        <ele>693.019</ele>
        <time>2012-05-01T10:12:19Z</time>
      </trkpt>
      <trkpt lat="42.800830" lon="-2.778670">
        <ele>694.322</ele>
        <time>2012-05-01T10:12:29Z</time>
      </trkpt>
      <trkpt lat="42.800750" lon="-2.778620">
        <ele>695.791</ele>
        <time>2012-05-01T10:12:39Z</time>
      </trkpt>
      <trkpt lat="42.800660" lon="-2.778570">
        <ele>697.170</ele>
        <time>2012-05-01T10:12:49Z</time>
      </trkpt>
      <trkpt lat="42.800570" lon="-2.778510">
        <ele>698.571</ele>
        <time>2012-05-01T10:12:59Z</time>
      </trkpt>
      <trkpt lat="42.800490" lon="-2.778460">
        <ele>699.841</ele>
        <time>2012-05-01T10:13:09Z</time>
      </trkpt>
      <trkpt lat="42.800400" lon="-2.778420">
        <ele>701.315</ele>
        <time>2012-05-01T10:13:20Z</time>
      </trkpt>
      <trkpt lat="42.800310" lon="-2.778360">
        <ele>703.107</ele>
        <time>2012-05-01T10:13:30Z</time>
      </trkpt>
      <trkpt lat="42.800220" lon="-2.778310">
        <ele>704.619</ele>
        <time>2012-05-01T10:13:40Z</time>
      </trkpt>
      <trkpt lat="42.800150" lon="-2.778260">
        <ele>705.996</ele>
        <time>2012-05-01T10:13:58Z</time>
      </trkpt>
      <trkpt lat="42.800060" lon="-2.778210">
        <ele>707.686</ele>
        <time>2012-05-01T10:14:09Z</time>
      </trkpt>
      <trkpt lat="42.799960" lon="-2.778180">
        <ele>709.467</ele>
        <time>2012-05-01T10:14:22Z</time>
      </trkpt>
      <trkpt lat="42.799870" lon="-2.778200">
        <ele>710.810</ele>
        <time>2012-05-01T10:14:33Z</time>
      </trkpt>
      <trkpt lat="42.799780" lon="-2.778210">
        <ele>712.369</ele>
        <time>2012-05-01T10:14:44Z</time>
      </trkpt>
      <trkpt lat="42.799680" lon="-2.778220">
        <ele>714.128</ele>
        <time>2012-05-01T10:14:56Z</time>
      </trkpt>
      <trkpt lat="42.799590" lon="-2.778240">
        <ele>715.555</ele>
        <time>2012-05-01T10:15:07Z</time>
      </trkpt>
      <trkpt lat="42.799500" lon="-2.778240">
        <ele>717.407</ele>
        <time>2012-05-01T10:15:19Z</time>
      </trkpt>
      <trkpt lat="42.799410" lon="-2.778200">
        <ele>719.617</ele>
        <time>2012-05-01T10:15:31Z</time>
      </trkpt>
      <trkpt lat="42.799310" lon="-2.778170">
        <ele>721.907</ele>
        <time>2012-05-01T10:15:42Z</time>
      </trkpt>
      <trkpt lat="42.799220" lon="-2.778150">
        <ele>723.667</ele>
        <time>2012-05-01T10:15:53Z</time>
      </trkpt>
      <trkpt lat="42.799130" lon="-2.778130">
        <ele>725.444</ele>
        <time>2012-05-01T10:16:03Z</time>
      </trkpt>
      <trkpt lat="42.799040" lon="-2.778130">
        <ele>726.724</ele>
        <time>2012-05-01T10:16:14Z</time>
      </trkpt>
      <trkpt lat="42.798940" lon="-2.778140">
        <ele>728.265</ele>
        <time>2012-05-01T10:16:26Z</time>
      </trkpt>
      <trkpt lat="42.798850" lon="-2.778140">
        <ele>729.628</ele>
        <time>2012-05-01T10:16:38Z</time>
      </trkpt>
      <trkpt lat="42.798760" lon="-2.778120">
        <ele>731.247</ele>
        <time>2012-05-01T10:16:49Z</time>
      </trkpt>
      <trkpt lat="42.798670" lon="-2.778110">
        <ele>732.756</ele>
        <time>2012-05-01T10:17:00Z</time>
      </trkpt>
      <trkpt lat="42.798580" lon="-2.778090">
        <ele>734.148</ele>
        <time>2012-05-01T10:17:12Z</time>
      </trkpt>
      <trkpt lat="42.798490" lon="-2.778060">
        <ele>735.561</ele>
        <time>2012-05-01T10:17:24Z</time>
      </trkpt>
      <trkpt lat="42.798400" lon="-2.778020">
        <ele>736.717</ele>
        <time>2012-05-01T10:17:35Z</time>
      </trkpt>
      <trkpt lat="42.798320" lon="-2.777960">
        <ele>738.007</ele>
        <time>2012-05-01T10:17:48Z</time>
      </trkpt>
      <trkpt lat="42.798240" lon="-2.777900">
        <ele>739.566</ele>
        <time>2012-05-01T10:18:02Z</time>
      </trkpt>
      <trkpt lat="42.798150" lon="-2.777840">
        <ele>741.463</ele>
        <time>2012-05-01T10:18:17Z</time>
      </trkpt>
      <trkpt lat="42.798070" lon="-2.777790">
        <ele>743.243</ele>
        <time>2012-05-01T10:18:29Z</time>
      </trkpt>
      <trkpt lat="42.797990" lon="-2.777740">
        <ele>745.294</ele>
        <time>2012-05-01T10:18:40Z</time>
      </trkpt>
      <trkpt lat="42.797910" lon="-2.777700">
        <ele>747.477</ele>
        <time>2012-05-01T10:18:53Z</time>
      </trkpt>
      <trkpt lat="42.797820" lon="-2.777640">
        <ele>750.296</ele>
        <time>2012-05-01T10:19:05Z</time>
      </trkpt>
      <trkpt lat="42.797740" lon="-2.777610">
        <ele>752.465</ele>
        <time>2012-05-01T10:19:18Z</time>
      </trkpt>
      <trkpt lat="42.797660" lon="-2.777550">
        <ele>755.186</ele>
        <time>2012-05-01T10:19:31Z</time>
      </trkpt>
      <trkpt lat="42.797590" lon="-2.777500">
        <ele>757.460</ele>
        <time>2012-05-01T10:19:45Z</time>
      </trkpt>
      <trkpt lat="42.797500" lon="-2.777440">
        <ele>760.226</ele>
        <time>2012-05-01T10:19:58Z</time>
      </trkpt>
      <trkpt lat="42.797410" lon="-2.777400">
        <ele>762.807</ele>
        <time>2012-05-01T10:20:11Z</time>
      </trkpt>
      <trkpt lat="42.797330" lon="-2.777360">
        <ele>765.220</ele>
        <time>2012-05-01T10:20:23Z</time>
      </trkpt>
      <trkpt lat="42.797240" lon="-2.777310">
        <ele>767.957</ele>
        <time>2012-05-01T10:20:36Z</time>
      </trkpt>
      <trkpt lat="42.797150" lon="-2.777280">
        <ele>770.617</ele>
        <time>2012-05-01T10:20:50Z</time>
      </trkpt>
      <trkpt lat="42.797060" lon="-2.777250">
        <ele>773.548</ele>
        <time>2012-05-01T10:21:04Z</time>
      </trkpt>
      <trkpt lat="42.796990" lon="-2.777190">
        <ele>775.971</ele>
        <time>2012-05-01T10:21:17Z</time>
      </trkpt>
      <trkpt lat="42.796910" lon="-2.777120">
        <ele>778.630</ele>
        <time>2012-05-01T10:21:31Z</time>
      </trkpt>
      <trkpt lat="42.796820" lon="-2.777110">
        <ele>780.979</ele>
        <time>2012-05-01T10:21:44Z</time>
      </trkpt>
      <trkpt lat="42.796720" lon="-2.777130">
        <ele>783.293</ele>
        <time>2012-05-01T10:21:58Z</time>
      </trkpt>
      <trkpt lat="42.796630" lon="-2.777130">
        <ele>785.365</ele>
        <time>2012-05-01T10:22:32Z</time>
      </trkpt>
      <trkpt lat="42.796550" lon="-2.777130">
        <ele>787.421</ele>
        <time>2012-05-01T10:22:45Z</time>
      </trkpt>
      <trkpt lat="42.796460" lon="-2.777140">
        <ele>789.607</ele>
        <time>2012-05-01T10:23:00Z</time>
      </trkpt>
      <trkpt lat="42.796370" lon="-2.777170">
        <ele>791.861</ele>
        <time>2012-05-01T10:23:15Z</time>
      </trkpt>
      <trkpt lat="42.796280" lon="-2.777190">
        <ele>794.448</ele>
        <time>2012-05-01T10:23:30Z</time>
      </trkpt>
      <trkpt lat="42.796190" lon="-2.777190">
        <ele>797.518</ele>
        <time>2012-05-01T10:23:49Z</time>
      </trkpt>
      <trkpt lat="42.796110" lon="-2.777180">
        <ele>800.339</ele>
        <time>2012-05-01T10:24:02Z</time>
      </trkpt>
      <trkpt lat="42.796010" lon="-2.777170">
        <ele>803.672</ele>
        <time>2012-05-01T10:24:17Z</time>
      </trkpt>
      <trkpt lat="42.795920" lon="-2.777200">
        <ele>805.921</ele>
        <time>2012-05-01T10:24:30Z</time>
      </trkpt>
      <trkpt lat="42.795830" lon="-2.777240">
        <ele>808.180</ele>
        <time>2012-05-01T10:24:44Z</time>
      </trkpt>
      <trkpt lat="42.795760" lon="-2.777290">
        <ele>809.561</ele>
        <time>2012-05-01T10:24:57Z</time>
      </trkpt>
      <trkpt lat="42.795680" lon="-2.777350">
        <ele>811.221</ele>
        <time>2012-05-01T10:25:13Z</time>
      </trkpt>
      <trkpt lat="42.795590" lon="-2.777390">
        <ele>813.813</ele>
        <time>2012-05-01T10:25:28Z</time>
      </trkpt>
      <trkpt lat="42.795510" lon="-2.777410">
        <ele>816.407</ele>
        <time>2012-05-01T10:25:58Z</time>
      </trkpt>
      <trkpt lat="42.795430" lon="-2.777460">
        <ele>818.968</ele>
        <time>2012-05-01T10:26:11Z</time>
      </trkpt>
      <trkpt lat="42.795350" lon="-2.777520">
        <ele>821.345</ele>
        <time>2012-05-01T10:26:26Z</time>
      </trkpt>
      <trkpt lat="42.795280" lon="-2.777600">
        <ele>823.095</ele>
        <time>2012-05-01T10:26:39Z</time>
      </trkpt>
      <trkpt lat="42.795190" lon="-2.777660">
        <ele>825.656</ele>
        <time>2012-05-01T10:26:52Z</time>
      </trkpt>
      <trkpt lat="42.795120" lon="-2.777730">
        <ele>827.359</ele>
        <time>2012-05-01T10:27:05Z</time>
      </trkpt>
      <trkpt lat="42.795040" lon="-2.777790">
        <ele>829.448</ele>
        <time>2012-05-01T10:27:19Z</time>
      </trkpt>
      <trkpt lat="42.794950" lon="-2.777830">
        <ele>832.257</ele>
        <time>2012-05-01T10:27:33Z</time>
      </trkpt>
      <trkpt lat="42.794870" lon="-2.777880">
        <ele>834.621</ele>
        <time>2012-05-01T10:27:48Z</time>
      </trkpt>
      <trkpt lat="42.794790" lon="-2.777940">
        <ele>836.941</ele>
        <time>2012-05-01T10:28:01Z</time>
      </trkpt>
      <trkpt lat="42.794700" lon="-2.777980">
        <ele>839.805</ele>
        <time>2012-05-01T10:28:14Z</time>
      </trkpt>
      <trkpt lat="42.794610" lon="-2.778020">
        <ele>843.207</ele>
        <time>2012-05-01T10:28:27Z</time>
      </trkpt>
      <trkpt lat="42.794530" lon="-2.778050">
        <ele>846.844</ele>
        <time>2012-05-01T10:30:31Z</time>
      </trkpt>
      <trkpt lat="42.794440" lon="-2.778120">
        <ele>850.381</ele>
        <time>2012-05-01T10:30:43Z</time>
      </trkpt>
      <trkpt lat="42.794360" lon="-2.778200">
        <ele>853.391</ele>
        <time>2012-05-01T10:30:57Z</time>
      </trkpt>
      <trkpt lat="42.794290" lon="-2.778270">
        <ele>856.172</ele>
        <time>2012-05-01T10:31:08Z</time>
      </trkpt>
      <trkpt lat="42.794220" lon="-2.778340">
        <ele>858.765</ele>
        <time>2012-05-01T10:31:21Z</time>
      </trkpt>
      <trkpt lat="42.794140" lon="-2.778420">
        <ele>861.954</ele>
        <time>2012-05-01T10:31:34Z</time>
      </trkpt>
      <trkpt lat="42.794060" lon="-2.778490">
        <ele>865.013</ele>
        <time>2012-05-01T10:31:46Z</time>
      </trkpt>
      <trkpt lat="42.793990" lon="-2.778580">
        <ele>867.898</ele>
        <time>2012-05-01T10:31:57Z</time>
      </trkpt>
      <trkpt lat="42.793940" lon="-2.778680">
        <ele>869.915</ele>
        <time>2012-05-01T10:32:07Z</time>
      </trkpt>
      <trkpt lat="42.793870" lon="-2.778760">
        <ele>872.926</ele>
        <time>2012-05-01T10:32:20Z</time>
      </trkpt>
      <trkpt lat="42.793810" lon="-2.778860">
        <ele>875.107</ele>
        <time>2012-05-01T10:32:32Z</time>
      </trkpt>
      <trkpt lat="42.793770" lon="-2.778970">
        <ele>877.191</ele>
        <time>2012-05-01T10:32:44Z</time>
      </trkpt>
      <trkpt lat="42.793730" lon="-2.779080">
        <ele>879.448</ele>
        <time>2012-05-01T10:32:56Z</time>
      </trkpt>
      <trkpt lat="42.793690" lon="-2.779200">
        <ele>882.468</ele>
        <time>2012-05-01T10:33:09Z</time>
      </trkpt>
      <trkpt lat="42.793650" lon="-2.779190">
        <ele>884.029</ele>
        <time>2012-05-01T10:34:14Z</time>
      </trkpt>
      <trkpt lat="42.793550" lon="-2.779200">
        <ele>887.892</ele>
        <time>2012-05-01T10:34:33Z</time>
      </trkpt>
      <trkpt lat="42.793460" lon="-2.779200">
        <ele>890.361</ele>
        <time>2012-05-01T10:34:55Z</time>
      </trkpt>
      <trkpt lat="42.793370" lon="-2.779180">
        <ele>892.060</ele>
        <time>2012-05-01T10:35:28Z</time>
      </trkpt>
      <trkpt lat="42.793310" lon="-2.779090">
        <ele>891.838</ele>
        <time>2012-05-01T10:35:41Z</time>
      </trkpt>
      <trkpt lat="42.793240" lon="-2.778900">
        <ele>890.870</ele>
        <time>2012-05-01T10:36:03Z</time>
      </trkpt>
      <trkpt lat="42.793160" lon="-2.778820">
        <ele>890.717</ele>
        <time>2012-05-01T10:36:18Z</time>
      </trkpt>
      <trkpt lat="42.793080" lon="-2.778760">
        <ele>890.407</ele>
        <time>2012-05-01T10:36:32Z</time>
      </trkpt>
      <trkpt lat="42.792990" lon="-2.778750">
        <ele>889.825</ele>
        <time>2012-05-01T10:37:46Z</time>
      </trkpt>
      <trkpt lat="42.792910" lon="-2.778740">
        <ele>888.942</ele>
        <time>2012-05-01T10:38:19Z</time>
      </trkpt>
      <trkpt lat="42.792860" lon="-2.778760">
        <ele>889.132</ele>
        <time>2012-05-01T10:38:31Z</time>
      </trkpt>
      <trkpt lat="42.792860" lon="-2.778890">
        <ele>889.513</ele>
        <time>2012-05-01T10:38:41Z</time>
      </trkpt>
      <trkpt lat="42.792870" lon="-2.779020">
        <ele>890.456</ele>
        <time>2012-05-01T10:38:57Z</time>
      </trkpt>
      <trkpt lat="42.792880" lon="-2.779120">
        <ele>891.475</ele>
        <time>2012-05-01T10:39:10Z</time>
      </trkpt>
      <trkpt lat="42.792890" lon="-2.779240">
        <ele>892.844</ele>
        <time>2012-05-01T10:39:35Z</time>
      </trkpt>
      <trkpt lat="42.792910" lon="-2.779360">
        <ele>894.351</ele>
        <time>2012-05-01T10:39:46Z</time>
      </trkpt>
      <trkpt lat="42.792920" lon="-2.779480">
        <ele>895.801</ele>
        <time>2012-05-01T10:40:09Z</time>
      </trkpt>
      <trkpt lat="42.792910" lon="-2.779600">
        <ele>897.211</ele>
        <time>2012-05-01T10:40:22Z</time>
      </trkpt>
      <trkpt lat="42.792970" lon="-2.779700">
        <ele>898.707</ele>
        <time>2012-05-01T10:40:36Z</time>
      </trkpt>
      <trkpt lat="42.792960" lon="-2.779830">
        <ele>899.517</ele>
        <time>2012-05-01T10:40:49Z</time>
      </trkpt>
      <trkpt lat="42.792990" lon="-2.779930">
        <ele>900.394</ele>
        <time>2012-05-01T10:41:32Z</time>
      </trkpt>
      <trkpt lat="42.793020" lon="-2.779980">
        <ele>900.744</ele>
        <time>2012-05-01T10:46:46Z</time>
      </trkpt>
      <trkpt lat="42.792990" lon="-2.780120">
        <ele>901.085</ele>
        <time>2012-05-01T10:47:37Z</time>
      </trkpt>
      <trkpt lat="42.792940" lon="-2.780220">
        <ele>900.728</ele>
        <time>2012-05-01T10:47:47Z</time>
      </trkpt>
      <trkpt lat="42.792870" lon="-2.780320">
        <ele>901.067</ele>
        <time>2012-05-01T10:47:59Z</time>
      </trkpt>
      <trkpt lat="42.792830" lon="-2.780430">
        <ele>901.516</ele>
        <time>2012-05-01T10:48:08Z</time>
      </trkpt>
      <trkpt lat="42.792810" lon="-2.780550">
        <ele>902.446</ele>
        <time>2012-05-01T10:48:32Z</time>
      </trkpt>
      <trkpt lat="42.792800" lon="-2.780680">
        <ele>903.488</ele>
        <time>2012-05-01T10:48:41Z</time>
      </trkpt>
      <trkpt lat="42.792800" lon="-2.780810">
        <ele>904.316</ele>
        <time>2012-05-01T10:48:49Z</time>
      </trkpt>
      <trkpt lat="42.792810" lon="-2.780940">
        <ele>905.007</ele>
        <time>2012-05-01T10:48:58Z</time>
      </trkpt>
      <trkpt lat="42.792800" lon="-2.781060">
        <ele>905.486</ele>
        <time>2012-05-01T10:49:06Z</time>
      </trkpt>
      <trkpt lat="42.792790" lon="-2.781190">
        <ele>905.733</ele>
        <time>2012-05-01T10:49:14Z</time>
      </trkpt>
      <trkpt lat="42.792770" lon="-2.781310">
        <ele>906.073</ele>
        <time>2012-05-01T10:49:22Z</time>
      </trkpt>
      <trkpt lat="42.792760" lon="-2.781440">
        <ele>906.374</ele>
        <time>2012-05-01T10:49:32Z</time>
      </trkpt>
      <trkpt lat="42.792760" lon="-2.781560">
        <ele>906.377</ele>
        <time>2012-05-01T10:49:42Z</time>
      </trkpt>
      <trkpt lat="42.792740" lon="-2.781680">
        <ele>906.026</ele>
        <time>2012-05-01T10:49:50Z</time>
      </trkpt>
      <trkpt lat="42.792710" lon="-2.781800">
        <ele>905.545</ele>
        <time>2012-05-01T10:49:59Z</time>
      </trkpt>
      <trkpt lat="42.792740" lon="-2.781870">
        <ele>905.053</ele>
        <time>2012-05-01T10:50:20Z</time>
      </trkpt>
      <trkpt lat="42.792810" lon="-2.781920">
        <ele>903.504</ele>
        <time>2012-05-01T10:50:37Z</time>
      </trkpt>
      <trkpt lat="42.792820" lon="-2.781970">
        <ele>902.814</ele>
        <time>2012-05-01T10:50:59Z</time>
      </trkpt>
      <trkpt lat="42.792830" lon="-2.782000">
        <ele>902.107</ele>
        <time>2012-05-01T10:52:06Z</time>
      </trkpt>
      <trkpt lat="42.792780" lon="-2.782060">
        <ele>902.477</ele>
        <time>2012-05-01T10:53:47Z</time>
      </trkpt>
      <trkpt lat="42.792700" lon="-2.782110">
        <ele>903.094</ele>
        <time>2012-05-01T10:53:58Z</time>
      </trkpt>
      <trkpt lat="42.792630" lon="-2.782150">
        <ele>903.044</ele>
        <time>2012-05-01T10:54:08Z</time>
      </trkpt>
      <trkpt lat="42.792570" lon="-2.782240">
        <ele>902.325</ele>
        <time>2012-05-01T10:54:17Z</time>
      </trkpt>
      <trkpt lat="42.792570" lon="-2.782360">
        <ele>901.568</ele>
        <time>2012-05-01T10:54:26Z</time>
      </trkpt>
      <trkpt lat="42.792550" lon="-2.782490">
        <ele>900.427</ele>
        <time>2012-05-01T10:54:35Z</time>
      </trkpt>
      <trkpt lat="42.792540" lon="-2.782610">
        <ele>899.326</ele>
        <time>2012-05-01T10:54:47Z</time>
      </trkpt>
      <trkpt lat="42.792470" lon="-2.782700">
        <ele>898.797</ele>
        <time>2012-05-01T10:54:58Z</time>
      </trkpt>
      <trkpt lat="42.792420" lon="-2.782790">
        <ele>897.923</ele>
        <time>2012-05-01T10:55:19Z</time>
      </trkpt>
      <trkpt lat="42.792400" lon="-2.782900">
        <ele>897.125</ele>
        <time>2012-05-01T10:55:36Z</time>
      </trkpt>
      <trkpt lat="42.792330" lon="-2.782990">
        <ele>896.507</ele>
        <time>2012-05-01T10:55:48Z</time>
      </trkpt>
      <trkpt lat="42.792250" lon="-2.783060">
        <ele>895.881</ele>
        <time>2012-05-01T10:55:58Z</time>
      </trkpt>
      <trkpt lat="42.792190" lon="-2.783170">
        <ele>895.178</ele>
        <time>2012-05-01T10:56:07Z</time>
      </trkpt>
      <trkpt lat="42.792140" lon="-2.783270">
        <ele>894.548</ele>
        <time>2012-05-01T10:56:16Z</time>
      </trkpt>
      <trkpt lat="42.792070" lon="-2.783360">
        <ele>893.859</ele>
        <time>2012-05-01T10:56:25Z</time>
      </trkpt>
      <trkpt lat="42.792030" lon="-2.783480">
        <ele>893.952</ele>
        <time>2012-05-01T10:56:33Z</time>
      </trkpt>
      <trkpt lat="42.792000" lon="-2.783600">
        <ele>893.971</ele>
        <time>2012-05-01T10:56:41Z</time>
      </trkpt>
      <trkpt lat="42.791980" lon="-2.783730">
        <ele>893.890</ele>
        <time>2012-05-01T10:56:48Z</time>
      </trkpt>
      <trkpt lat="42.791970" lon="-2.783860">
        <ele>893.644</ele>
        <time>2012-05-01T10:56:56Z</time>
      </trkpt>
      <trkpt lat="42.791970" lon="-2.783980">
        <ele>893.405</ele>
        <time>2012-05-01T10:57:04Z</time>
      </trkpt>
      <trkpt lat="42.791940" lon="-2.784110">
        <ele>893.015</ele>
        <time>2012-05-01T10:57:12Z</time>
      </trkpt>
      <trkpt lat="42.791910" lon="-2.784230">
        <ele>892.507</ele>
        <time>2012-05-01T10:57:20Z</time>
      </trkpt>
      <trkpt lat="42.791910" lon="-2.784360">
        <ele>892.086</ele>
        <time>2012-05-01T10:57:29Z</time>
      </trkpt>
      <trkpt lat="42.791910" lon="-2.784490">
        <ele>891.523</ele>
        <time>2012-05-01T10:57:37Z</time>
      </trkpt>
      <trkpt lat="42.791920" lon="-2.784630">
        <ele>891.263</ele>
        <time>2012-05-01T10:57:45Z</time>
      </trkpt>
      <trkpt lat="42.791930" lon="-2.784760">
        <ele>891.224</ele>
        <time>2012-05-01T10:57:53Z</time>
      </trkpt>
      <trkpt lat="42.791960" lon="-2.784880">
        <ele>891.347</ele>
        <time>2012-05-01T10:58:01Z</time>
      </trkpt>
      <trkpt lat="42.792000" lon="-2.785010">
        <ele>891.196</ele>
        <time>2012-05-01T10:58:10Z</time>
      </trkpt>
      <trkpt lat="42.792000" lon="-2.785150">
        <ele>891.135</ele>
        <time>2012-05-01T10:58:20Z</time>
      </trkpt>
      <trkpt lat="42.792030" lon="-2.785270">
        <ele>890.676</ele>
        <time>2012-05-01T10:58:28Z</time>
      </trkpt>
      <trkpt lat="42.792090" lon="-2.785360">
        <ele>889.390</ele>
        <time>2012-05-01T10:58:37Z</time>
      </trkpt>
      <trkpt lat="42.792090" lon="-2.785390">
        <ele>889.119</ele>
        <time>2012-05-01T11:00:16Z</time>
      </trkpt>
      <trkpt lat="42.792080" lon="-2.785440">
        <ele>889.007</ele>
        <time>2012-05-01T11:04:22Z</time>
      </trkpt>
      <trkpt lat="42.792060" lon="-2.785570">
        <ele>889.069</ele>
        <time>2012-05-01T11:04:34Z</time>
      </trkpt>
      <trkpt lat="42.792050" lon="-2.785700">
        <ele>888.686</ele>
        <time>2012-05-01T11:04:44Z</time>
      </trkpt>
      <trkpt lat="42.792040" lon="-2.785830">
        <ele>887.996</ele>
        <time>2012-05-01T11:04:53Z</time>
      </trkpt>
      <trkpt lat="42.792010" lon="-2.785950">
        <ele>887.577</ele>
        <time>2012-05-01T11:05:02Z</time>
      </trkpt>
      <trkpt lat="42.791970" lon="-2.786070">
        <ele>886.740</ele>
        <time>2012-05-01T11:05:11Z</time>
      </trkpt>
      <trkpt lat="42.791930" lon="-2.786180">
        <ele>885.529</ele>
        <time>2012-05-01T11:05:20Z</time>
      </trkpt>
      <trkpt lat="42.791880" lon="-2.786280">
        <ele>884.218</ele>
        <time>2012-05-01T11:05:29Z</time>
      </trkpt>
      <trkpt lat="42.791830" lon="-2.786390">
        <ele>882.642</ele>
        <time>2012-05-01T11:05:38Z</time>
      </trkpt>
      <trkpt lat="42.791770" lon="-2.786490">
        <ele>880.922</ele>
        <time>2012-05-01T11:05:47Z</time>
      </trkpt>
      <trkpt lat="42.791710" lon="-2.786590">
        <ele>879.014</ele>
        <time>2012-05-01T11:05:56Z</time>
      </trkpt>
      <trkpt lat="42.791720" lon="-2.786730">
        <ele>877.007</ele>
        <time>2012-05-01T11:06:05Z</time>
      </trkpt>
      <trkpt lat="42.791680" lon="-2.786850">
        <ele>874.976</ele>
        <time>2012-05-01T11:06:14Z</time>
      </trkpt>
      <trkpt lat="42.791620" lon="-2.786950">
        <ele>873.073</ele>
        <time>2012-05-01T11:06:22Z</time>
      </trkpt>
      <trkpt lat="42.791590" lon="-2.787010">
        <ele>871.933</ele>
        <time>2012-05-01T11:07:51Z</time>
      </trkpt>
      <trkpt lat="42.791540" lon="-2.787120">
        <ele>869.854</ele>
        <time>2012-05-01T11:08:00Z</time>
      </trkpt>
      <trkpt lat="42.791500" lon="-2.787240">
        <ele>867.847</ele>
        <time>2012-05-01T11:08:09Z</time>
      </trkpt>
      <trkpt lat="42.791480" lon="-2.787360">
        <ele>866.286</ele>
        <time>2012-05-01T11:08:17Z</time>
      </trkpt>
      <trkpt lat="42.791450" lon="-2.787470">
        <ele>864.655</ele>
        <time>2012-05-01T11:08:26Z</time>
      </trkpt>
      <trkpt lat="42.791490" lon="-2.787590">
        <ele>863.537</ele>
        <time>2012-05-01T11:08:37Z</time>
      </trkpt>
      <trkpt lat="42.791490" lon="-2.787710">
        <ele>862.149</ele>
        <time>2012-05-01T11:08:46Z</time>
      </trkpt>
      <trkpt lat="42.791440" lon="-2.787820">
        <ele>860.713</ele>
        <time>2012-05-01T11:08:55Z</time>
      </trkpt>
      <trkpt lat="42.791390" lon="-2.787950">
        <ele>859.207</ele>
        <time>2012-05-01T11:09:04Z</time>
      </trkpt>
      <trkpt lat="42.791350" lon="-2.788070">
        <ele>858.025</ele>
        <time>2012-05-01T11:09:12Z</time>
      </trkpt>
      <trkpt lat="42.791300" lon="-2.788180">
        <ele>857.132</ele>
        <time>2012-05-01T11:09:21Z</time>
      </trkpt>
      <trkpt lat="42.791230" lon="-2.788270">
        <ele>856.552</ele>
        <time>2012-05-01T11:09:29Z</time>
      </trkpt>
      <trkpt lat="42.791170" lon="-2.788360">
        <ele>856.583</ele>
        <time>2012-05-01T11:09:37Z</time>
      </trkpt>
      <trkpt lat="42.791150" lon="-2.788480">
        <ele>856.416</ele>
        <time>2012-05-01T11:09:45Z</time>
      </trkpt>
      <trkpt lat="42.791210" lon="-2.788590">
        <ele>856.065</ele>
        <time>2012-05-01T11:09:53Z</time>
      </trkpt>
      <trkpt lat="42.791260" lon="-2.788690">
        <ele>855.324</ele>
        <time>2012-05-01T11:10:01Z</time>
      </trkpt>
      <trkpt lat="42.791280" lon="-2.788810">
        <ele>854.958</ele>
        <time>2012-05-01T11:10:10Z</time>
      </trkpt>
      <trkpt lat="42.791240" lon="-2.788920">
        <ele>854.552</ele>
        <time>2012-05-01T11:10:19Z</time>
      </trkpt>
      <trkpt lat="42.791190" lon="-2.789030">
        <ele>854.717</ele>
        <time>2012-05-01T11:10:27Z</time>
      </trkpt>
      <trkpt lat="42.791140" lon="-2.789140">
        <ele>854.607</ele>
        <time>2012-05-01T11:10:38Z</time>
      </trkpt>
      <trkpt lat="42.791130" lon="-2.789280">
        <ele>853.817</ele>
        <time>2012-05-01T11:10:47Z</time>
      </trkpt>
      <trkpt lat="42.791110" lon="-2.789420">
        <ele>852.754</ele>
        <time>2012-05-01T11:10:56Z</time>
      </trkpt>
      <trkpt lat="42.791100" lon="-2.789560">
        <ele>851.154</ele>
        <time>2012-05-01T11:11:05Z</time>
      </trkpt>
      <trkpt lat="42.791070" lon="-2.789680">
        <ele>849.645</ele>
        <time>2012-05-01T11:11:15Z</time>
      </trkpt>
      <trkpt lat="42.791060" lon="-2.789800">
        <ele>848.098</ele>
        <time>2012-05-01T11:11:28Z</time>
      </trkpt>
      <trkpt lat="42.791120" lon="-2.789900">
        <ele>846.287</ele>
        <time>2012-05-01T11:11:40Z</time>
      </trkpt>
      <trkpt lat="42.791120" lon="-2.790030">
        <ele>843.886</ele>
        <time>2012-05-01T11:11:51Z</time>
      </trkpt>
      <trkpt lat="42.791130" lon="-2.790150">
        <ele>841.261</ele>
        <time>2012-05-01T11:12:11Z</time>
      </trkpt>
      <trkpt lat="42.791130" lon="-2.790160">
        <ele>841.021</ele>
        <time>2012-05-01T11:13:28Z</time>
      </trkpt>
      <trkpt lat="42.791110" lon="-2.790240">
        <ele>839.413</ele>
        <time>2012-05-01T11:14:17Z</time>
      </trkpt>
      <trkpt lat="42.791090" lon="-2.790340">
        <ele>837.207</ele>
        <time>2012-05-01T11:14:45Z</time>
      </trkpt>
      <trkpt lat="42.791100" lon="-2.790470">
        <ele>833.718</ele>
        <time>2012-05-01T11:14:57Z</time>
      </trkpt>
      <trkpt lat="42.791060" lon="-2.790600">
        <ele>831.125</ele>
        <time>2012-05-01T11:15:07Z</time>
      </trkpt>
      <trkpt lat="42.791020" lon="-2.790710">
        <ele>829.095</ele>
        <time>2012-05-01T11:15:18Z</time>
      </trkpt>
      <trkpt lat="42.790950" lon="-2.790760">
        <ele>828.466</ele>
        <time>2012-05-01T11:15:45Z</time>
      </trkpt>
      <trkpt lat="42.790870" lon="-2.790840">
        <ele>826.949</ele>
        <time>2012-05-01T11:15:56Z</time>
      </trkpt>
      <trkpt lat="42.790790" lon="-2.790910">
        <ele>825.288</ele>
        <time>2012-05-01T11:16:06Z</time>
      </trkpt>
      <trkpt lat="42.790700" lon="-2.790940">
        <ele>824.117</ele>
        <time>2012-05-01T11:16:15Z</time>
      </trkpt>
      <trkpt lat="42.790600" lon="-2.790950">
        <ele>823.166</ele>
        <time>2012-05-01T11:16:24Z</time>
      </trkpt>
      <trkpt lat="42.790520" lon="-2.791010">
        <ele>820.829</ele>
        <time>2012-05-01T11:16:34Z</time>
      </trkpt>
      <trkpt lat="42.790430" lon="-2.791040">
        <ele>819.121</ele>
        <time>2012-05-01T11:16:42Z</time>
      </trkpt>
      <trkpt lat="42.790350" lon="-2.791110">
        <ele>817.207</ele>
        <time>2012-05-01T11:16:55Z</time>
      </trkpt>
      <trkpt lat="42.790290" lon="-2.791200">
        <ele>815.048</ele>
        <time>2012-05-01T11:17:06Z</time>
      </trkpt>
      <trkpt lat="42.790200" lon="-2.791250">
        <ele>813.535</ele>
        <time>2012-05-01T11:17:16Z</time>
      </trkpt>
      <trkpt lat="42.790140" lon="-2.791350">
        <ele>811.125</ele>
        <time>2012-05-01T11:17:25Z</time>
      </trkpt>
      <trkpt lat="42.790090" lon="-2.791430">
        <ele>809.336</ele>
        <time>2012-05-01T11:17:34Z</time>
      </trkpt>
      <trkpt lat="42.790060" lon="-2.791550">
        <ele>807.179</ele>
        <time>2012-05-01T11:17:43Z</time>
      </trkpt>
      <trkpt lat="42.789980" lon="-2.791610">
        <ele>805.958</ele>
        <time>2012-05-01T11:17:57Z</time>
      </trkpt>
      <trkpt lat="42.789930" lon="-2.791720">
        <ele>804.067</ele>
        <time>2012-05-01T11:18:07Z</time>
      </trkpt>
      <trkpt lat="42.789860" lon="-2.791800">
        <ele>802.724</ele>
        <time>2012-05-01T11:18:16Z</time>
      </trkpt>
      <trkpt lat="42.789770" lon="-2.791880">
        <ele>801.204</ele>
        <time>2012-05-01T11:18:25Z</time>
      </trkpt>
      <trkpt lat="42.789690" lon="-2.791960">
        <ele>799.914</ele>
        <time>2012-05-01T11:18:34Z</time>
      </trkpt>
      <trkpt lat="42.789610" lon="-2.792010">
        <ele>798.807</ele>
        <time>2012-05-01T11:18:43Z</time>
      </trkpt>
      <trkpt lat="42.789530" lon="-2.792100">
        <ele>797.774</ele>
        <time>2012-05-01T11:18:53Z</time>
      </trkpt>
      <trkpt lat="42.789450" lon="-2.792150">
        <ele>797.161</ele>
        <time>2012-05-01T11:19:02Z</time>
      </trkpt>
      <trkpt lat="42.789370" lon="-2.792230">
        <ele>796.241</ele>
        <time>2012-05-01T11:19:11Z</time>
      </trkpt>
      <trkpt lat="42.789300" lon="-2.792310">
        <ele>795.562</ele>
        <time>2012-05-01T11:19:20Z</time>
      </trkpt>
      <trkpt lat="42.789220" lon="-2.792400">
        <ele>794.825</ele>
        <time>2012-05-01T11:19:29Z</time>
      </trkpt>
      <trkpt lat="42.789150" lon="-2.792470">
        <ele>794.144</ele>
        <time>2012-05-01T11:19:38Z</time>
      </trkpt>
      <trkpt lat="42.789090" lon="-2.792570">
        <ele>793.563</ele>
        <time>2012-05-01T11:19:48Z</time>
      </trkpt>
      <trkpt lat="42.789030" lon="-2.792620">
        <ele>792.858</ele>
        <time>2012-05-01T11:20:33Z</time>
      </trkpt>
      <trkpt lat="42.789010" lon="-2.792760">
        <ele>792.652</ele>
        <time>2012-05-01T11:20:43Z</time>
      </trkpt>
      <trkpt lat="42.788990" lon="-2.792890">
        <ele>792.417</ele>
        <time>2012-05-01T11:20:51Z</time>
      </trkpt>
      <trkpt lat="42.788970" lon="-2.793000">
        <ele>792.207</ele>
        <time>2012-05-01T11:21:07Z</time>
      </trkpt>
      <trkpt lat="42.789058" lon="-2.792994">
        <ele>793.197</ele>
        <time>2012-05-01T11:21:32Z</time>
      </trkpt>
      <trkpt lat="42.789105" lon="-2.792999">
        <ele>793.594</ele>
        <time>2012-05-01T11:21:42Z</time>
      </trkpt>
      <trkpt lat="42.789260" lon="-2.793070">
        <ele>794.344</ele>
        <time>2012-05-01T11:21:50Z</time>
      </trkpt>
      <trkpt lat="42.789350" lon="-2.793070">
        <ele>794.485</ele>
        <time>2012-05-01T11:21:57Z</time>
      </trkpt>
      <trkpt lat="42.789440" lon="-2.793090">
        <ele>794.298</ele>
        <time>2012-05-01T11:22:05Z</time>
      </trkpt>
      <trkpt lat="42.789530" lon="-2.793120">
        <ele>793.897</ele>
        <time>2012-05-01T11:22:13Z</time>
      </trkpt>
      <trkpt lat="42.789610" lon="-2.793190">
        <ele>793.346</ele>
        <time>2012-05-01T11:22:21Z</time>
      </trkpt>
      <trkpt lat="42.789700" lon="-2.793240">
        <ele>793.168</ele>
        <time>2012-05-01T11:22:29Z</time>
      </trkpt>
      <trkpt lat="42.789790" lon="-2.793300">
        <ele>792.742</ele>
        <time>2012-05-01T11:22:38Z</time>
      </trkpt>
      <trkpt lat="42.789870" lon="-2.793350">
        <ele>792.126</ele>
        <time>2012-05-01T11:22:46Z</time>
      </trkpt>
      <trkpt lat="42.789970" lon="-2.793370">
        <ele>791.307</ele>
        <time>2012-05-01T11:22:54Z</time>
      </trkpt>
      <trkpt lat="42.790060" lon="-2.793400">
        <ele>790.318</ele>
        <time>2012-05-01T11:23:03Z</time>
      </trkpt>
      <trkpt lat="42.790160" lon="-2.793400">
        <ele>788.985</ele>
        <time>2012-05-01T11:23:13Z</time>
      </trkpt>
      <trkpt lat="42.790240" lon="-2.793360">
        <ele>787.835</ele>
        <time>2012-05-01T11:23:22Z</time>
      </trkpt>
      <trkpt lat="42.790330" lon="-2.793300">
        <ele>786.596</ele>
        <time>2012-05-01T11:23:32Z</time>
      </trkpt>
      <trkpt lat="42.790400" lon="-2.793230">
        <ele>785.349</ele>
        <time>2012-05-01T11:23:41Z</time>
      </trkpt>
      <trkpt lat="42.790490" lon="-2.793170">
        <ele>784.048</ele>
        <time>2012-05-01T11:23:50Z</time>
      </trkpt>
      <trkpt lat="42.790590" lon="-2.793150">
        <ele>782.387</ele>
        <time>2012-05-01T11:23:58Z</time>
      </trkpt>
      <trkpt lat="42.790680" lon="-2.793120">
        <ele>780.863</ele>
        <time>2012-05-01T11:24:06Z</time>
      </trkpt>
      <trkpt lat="42.790776" lon="-2.793135">
        <ele>779.044</ele>
        <time>2012-05-01T11:24:15Z</time>
      </trkpt>
      <trkpt lat="42.790867" lon="-2.793178">
        <ele>777.118</ele>
        <time>2012-05-01T11:24:26Z</time>
      </trkpt>
      <trkpt lat="42.790954" lon="-2.793216">
        <ele>775.307</ele>
        <time>2012-05-01T11:24:33Z</time>
      </trkpt>
      <trkpt lat="42.791048" lon="-2.793248">
        <ele>773.548</ele>
        <time>2012-05-01T11:24:40Z</time>
      </trkpt>
      <trkpt lat="42.791135" lon="-2.793291">
        <ele>771.975</ele>
        <time>2012-05-01T11:24:47Z</time>
      </trkpt>
      <trkpt lat="42.791221" lon="-2.793339">
        <ele>770.235</ele>
        <time>2012-05-01T11:24:55Z</time>
      </trkpt>
      <trkpt lat="42.791296" lon="-2.793430">
        <ele>768.476</ele>
        <time>2012-05-01T11:25:03Z</time>
      </trkpt>
      <trkpt lat="42.791406" lon="-2.793527">
        <ele>766.289</ele>
        <time>2012-05-01T11:25:20Z</time>
      </trkpt>
      <trkpt lat="42.791565" lon="-2.793642">
        <ele>763.238</ele>
        <time>2012-05-01T11:25:28Z</time>
      </trkpt>
      <trkpt lat="42.791621" lon="-2.793685">
        <ele>762.127</ele>
        <time>2012-05-01T11:39:22Z</time>
      </trkpt>
      <trkpt lat="42.791699" lon="-2.793685">
        <ele>761.333</ele>
        <time>2012-05-01T11:39:33Z</time>
      </trkpt>
      <trkpt lat="42.791778" lon="-2.793642">
        <ele>761.123</ele>
        <time>2012-05-01T11:39:43Z</time>
      </trkpt>
      <trkpt lat="42.791837" lon="-2.793599">
        <ele>761.115</ele>
        <time>2012-05-01T11:39:53Z</time>
      </trkpt>
      <trkpt lat="42.791898" lon="-2.793531">
        <ele>761.407</ele>
        <time>2012-05-01T11:40:03Z</time>
      </trkpt>
      <trkpt lat="42.791970" lon="-2.793479">
        <ele>761.555</ele>
        <time>2012-05-01T11:40:13Z</time>
      </trkpt>
      <trkpt lat="42.792052" lon="-2.793457">
        <ele>761.452</ele>
        <time>2012-05-01T11:40:22Z</time>
      </trkpt>
      <trkpt lat="42.792131" lon="-2.793452">
        <ele>761.492</ele>
        <time>2012-05-01T11:40:30Z</time>
      </trkpt>
      <trkpt lat="42.792174" lon="-2.793398">
        <ele>762.053</ele>
        <time>2012-05-01T11:42:44Z</time>
      </trkpt>
      <trkpt lat="42.792247" lon="-2.793352">
        <ele>762.816</ele>
        <time>2012-05-01T11:42:53Z</time>
      </trkpt>
      <trkpt lat="42.792322" lon="-2.793363">
        <ele>762.915</ele>
        <time>2012-05-01T11:43:01Z</time>
      </trkpt>
      <trkpt lat="42.792381" lon="-2.793352">
        <ele>763.334</ele>
        <time>2012-05-01T11:43:09Z</time>
      </trkpt>
      <trkpt lat="42.792420" lon="-2.793331">
        <ele>763.713</ele>
        <time>2012-05-01T11:43:18Z</time>
      </trkpt>
      <trkpt lat="42.792475" lon="-2.793363">
        <ele>763.543</ele>
        <time>2012-05-01T11:43:27Z</time>
      </trkpt>
      <trkpt lat="42.792538" lon="-2.793416">
        <ele>763.107</ele>
        <time>2012-05-01T11:43:37Z</time>
      </trkpt>
      <trkpt lat="42.792538" lon="-2.793513">
        <ele>762.107</ele>
        <time>2012-05-01T11:43:47Z</time>
      </trkpt>
      <trkpt lat="42.792544" lon="-2.793606">
        <ele>761.143</ele>
        <time>2012-05-01T11:43:57Z</time>
      </trkpt>
      <trkpt lat="42.792548" lon="-2.793692">
        <ele>760.110</ele>
        <time>2012-05-01T11:44:07Z</time>
      </trkpt>
      <trkpt lat="42.792548" lon="-2.793767">
        <ele>759.230</ele>
        <time>2012-05-01T11:44:16Z</time>
      </trkpt>
      <trkpt lat="42.792536" lon="-2.793848">
        <ele>758.171</ele>
        <time>2012-05-01T11:44:24Z</time>
      </trkpt>
      <trkpt lat="42.792509" lon="-2.793912">
        <ele>757.294</ele>
        <time>2012-05-01T11:44:33Z</time>
      </trkpt>
      <trkpt lat="42.792477" lon="-2.793971">
        <ele>756.413</ele>
        <time>2012-05-01T11:44:41Z</time>
      </trkpt>
      <trkpt lat="42.792430" lon="-2.794035">
        <ele>755.562</ele>
        <time>2012-05-01T11:44:49Z</time>
      </trkpt>
      <trkpt lat="42.792386" lon="-2.794111">
        <ele>754.543</ele>
        <time>2012-05-01T11:44:58Z</time>
      </trkpt>
      <trkpt lat="42.792355" lon="-2.794196">
        <ele>753.664</ele>
        <time>2012-05-01T11:45:07Z</time>
      </trkpt>
      <trkpt lat="42.792331" lon="-2.794277">
        <ele>752.810</ele>
        <time>2012-05-01T11:45:16Z</time>
      </trkpt>
      <trkpt lat="42.792320" lon="-2.794373">
        <ele>752.107</ele>
        <time>2012-05-01T11:45:25Z</time>
      </trkpt>
      <trkpt lat="42.792308" lon="-2.794475">
        <ele>751.516</ele>
        <time>2012-05-01T11:45:33Z</time>
      </trkpt>
      <trkpt lat="42.792292" lon="-2.794588">
        <ele>751.193</ele>
        <time>2012-05-01T11:46:09Z</time>
      </trkpt>
      <trkpt lat="42.792292" lon="-2.794786">
        <ele>750.473</ele>
        <time>2012-05-01T11:46:17Z</time>
      </trkpt>
      <trkpt lat="42.792276" lon="-2.795006">
        <ele>750.634</ele>
        <time>2012-05-01T11:46:27Z</time>
      </trkpt>
      <trkpt lat="42.792320" lon="-2.795324">
        <ele>752.747</ele>
        <time>2012-05-01T11:46:36Z</time>
      </trkpt>
      <trkpt lat="42.792319" lon="-2.795539">
        <ele>753.776</ele>
        <time>2012-05-01T11:46:44Z</time>
      </trkpt>
      <trkpt lat="42.792315" lon="-2.795662">
        <ele>754.125</ele>
        <time>2012-05-01T11:47:01Z</time>
      </trkpt>
      <trkpt lat="42.792295" lon="-2.795764">
        <ele>754.346</ele>
        <time>2012-05-01T11:47:09Z</time>
      </trkpt>
      <trkpt lat="42.792275" lon="-2.795877">
        <ele>754.588</ele>
        <time>2012-05-01T11:47:24Z</time>
      </trkpt>
      <trkpt lat="42.792252" lon="-2.795973">
        <ele>754.616</ele>
        <time>2012-05-01T11:47:40Z</time>
      </trkpt>
      <trkpt lat="42.792228" lon="-2.796037">
        <ele>754.707</ele>
        <time>2012-05-01T11:47:48Z</time>
      </trkpt>
      <trkpt lat="42.792165" lon="-2.796091">
        <ele>754.356</ele>
        <time>2012-05-01T11:47:56Z</time>
      </trkpt>
      <trkpt lat="42.792122" lon="-2.796118">
        <ele>754.093</ele>
        <time>2012-05-01T11:48:04Z</time>
      </trkpt>
      <trkpt lat="42.792090" lon="-2.796161">
        <ele>753.813</ele>
        <time>2012-05-01T11:48:12Z</time>
      </trkpt>
      <trkpt lat="42.792031" lon="-2.796241">
        <ele>753.634</ele>
        <time>2012-05-01T11:48:21Z</time>
      </trkpt>
      <trkpt lat="42.791990" lon="-2.796332">
        <ele>753.577</ele>
        <time>2012-05-01T11:48:37Z</time>
      </trkpt>
      <trkpt lat="42.791893" lon="-2.796445">
        <ele>752.486</ele>
        <time>2012-05-01T11:48:54Z</time>
      </trkpt>
      <trkpt lat="42.791838" lon="-2.796542">
        <ele>751.515</ele>
        <time>2012-05-01T11:49:02Z</time>
      </trkpt>
      <trkpt lat="42.791787" lon="-2.796622">
        <ele>750.494</ele>
        <time>2012-05-01T11:49:10Z</time>
      </trkpt>
      <trkpt lat="42.791754" lon="-2.796697">
        <ele>749.757</ele>
        <time>2012-05-01T11:49:27Z</time>
      </trkpt>
      <trkpt lat="42.791720" lon="-2.796805">
        <ele>749.022</ele>
        <time>2012-05-01T11:49:35Z</time>
      </trkpt>
      <trkpt lat="42.791704" lon="-2.796912">
        <ele>748.607</ele>
        <time>2012-05-01T11:49:44Z</time>
      </trkpt>
      <trkpt lat="42.791677" lon="-2.797019">
        <ele>748.021</ele>
        <time>2012-05-01T11:49:53Z</time>
      </trkpt>
      <trkpt lat="42.791612" lon="-2.797148">
        <ele>746.398</ele>
        <time>2012-05-01T11:50:08Z</time>
      </trkpt>
      <trkpt lat="42.791590" lon="-2.797266">
        <ele>745.968</ele>
        <time>2012-05-01T11:50:23Z</time>
      </trkpt>
      <trkpt lat="42.791586" lon="-2.797357">
        <ele>745.919</ele>
        <time>2012-05-01T11:50:31Z</time>
      </trkpt>
      <trkpt lat="42.791581" lon="-2.797452">
        <ele>745.882</ele>
        <time>2012-05-01T11:50:40Z</time>
      </trkpt>
      <trkpt lat="42.791596" lon="-2.797534">
        <ele>746.441</ele>
        <time>2012-05-01T11:50:57Z</time>
      </trkpt>
      <trkpt lat="42.791628" lon="-2.797623">
        <ele>747.630</ele>
        <time>2012-05-01T11:51:26Z</time>
      </trkpt>
      <trkpt lat="42.791648" lon="-2.797688">
        <ele>748.337</ele>
        <time>2012-05-01T11:51:51Z</time>
      </trkpt>
      <trkpt lat="42.791687" lon="-2.797784">
        <ele>749.749</ele>
        <time>2012-05-01T11:52:02Z</time>
      </trkpt>
      <trkpt lat="42.791726" lon="-2.797859">
        <ele>751.113</ele>
        <time>2012-05-01T11:53:14Z</time>
      </trkpt>
      <trkpt lat="42.791746" lon="-2.797902">
        <ele>751.807</ele>
        <time>2012-05-01T11:58:55Z</time>
      </trkpt>
      <trkpt lat="42.791774" lon="-2.797966">
        <ele>752.955</ele>
        <time>2012-05-01T11:59:45Z</time>
      </trkpt>
      <trkpt lat="42.791793" lon="-2.798020">
        <ele>753.672</ele>
        <time>2012-05-01T12:00:08Z</time>
      </trkpt>
      <trkpt lat="42.791809" lon="-2.798074">
        <ele>754.462</ele>
        <time>2012-05-01T12:00:32Z</time>
      </trkpt>
      <trkpt lat="42.791817" lon="-2.798133">
        <ele>755.033</ele>
        <time>2012-05-01T12:00:56Z</time>
      </trkpt>
      <trkpt lat="42.791829" lon="-2.798208">
        <ele>755.876</ele>
        <time>2012-05-01T12:01:04Z</time>
      </trkpt>
      <trkpt lat="42.791833" lon="-2.798251">
        <ele>756.215</ele>
        <time>2012-05-01T12:01:42Z</time>
      </trkpt>
      <trkpt lat="42.791837" lon="-2.798326">
        <ele>756.954</ele>
        <time>2012-05-01T12:02:24Z</time>
      </trkpt>
      <trkpt lat="42.791841" lon="-2.798401">
        <ele>757.623</ele>
        <time>2012-05-01T12:03:16Z</time>
      </trkpt>
      <trkpt lat="42.791852" lon="-2.798460">
        <ele>758.383</ele>
        <time>2012-05-01T12:04:12Z</time>
      </trkpt>
      <trkpt lat="42.791864" lon="-2.798519">
        <ele>758.911</ele>
        <time>2012-05-01T12:04:53Z</time>
      </trkpt>
      <trkpt lat="42.791884" lon="-2.798589">
        <ele>759.707</ele>
        <time>2012-05-01T12:05:31Z</time>
      </trkpt>
      <trkpt lat="42.791900" lon="-2.798659">
        <ele>760.424</ele>
        <time>2012-05-01T12:10:11Z</time>
      </trkpt>
      <trkpt lat="42.791911" lon="-2.798718">
        <ele>760.911</ele>
        <time>2012-05-01T12:11:15Z</time>
      </trkpt>
      <trkpt lat="42.791947" lon="-2.798798">
        <ele>761.981</ele>
        <time>2012-05-01T12:12:03Z</time>
      </trkpt>
      <trkpt lat="42.791959" lon="-2.798868">
        <ele>762.672</ele>
        <time>2012-05-01T12:12:24Z</time>
      </trkpt>
      <trkpt lat="42.791995" lon="-2.798945">
        <ele>763.695</ele>
        <time>2012-05-01T12:12:36Z</time>
      </trkpt>
      <trkpt lat="42.792035" lon="-2.799079">
        <ele>764.674</ele>
        <time>2012-05-01T12:12:46Z</time>
      </trkpt>
      <trkpt lat="42.792113" lon="-2.799229">
        <ele>766.113</ele>
        <time>2012-05-01T12:14:24Z</time>
      </trkpt>
      <trkpt lat="42.792145" lon="-2.799342">
        <ele>766.538</ele>
        <time>2012-05-01T12:14:58Z</time>
      </trkpt>
      <trkpt lat="42.792145" lon="-2.799524">
        <ele>765.270</ele>
        <time>2012-05-01T12:15:25Z</time>
      </trkpt>
      <trkpt lat="42.792131" lon="-2.799680">
        <ele>763.117</ele>
        <time>2012-05-01T12:16:12Z</time>
      </trkpt>
      <trkpt lat="42.792172" lon="-2.799766">
        <ele>762.907</ele>
        <time>2012-05-01T12:16:29Z</time>
      </trkpt>
      <trkpt lat="42.792194" lon="-2.799852">
        <ele>762.015</ele>
        <time>2012-05-01T12:16:50Z</time>
      </trkpt>
      <trkpt lat="42.792231" lon="-2.799975">
        <ele>760.652</ele>
        <time>2012-05-01T12:18:59Z</time>
      </trkpt>
      <trkpt lat="42.792271" lon="-2.800066">
        <ele>759.762</ele>
        <time>2012-05-01T12:19:15Z</time>
      </trkpt>
      <trkpt lat="42.792322" lon="-2.800179">
        <ele>758.783</ele>
        <time>2012-05-01T12:19:29Z</time>
      </trkpt>
      <trkpt lat="42.792361" lon="-2.800265">
        <ele>758.146</ele>
        <time>2012-05-01T12:19:40Z</time>
      </trkpt>
      <trkpt lat="42.792389" lon="-2.800361">
        <ele>757.195</ele>
        <time>2012-05-01T12:20:01Z</time>
      </trkpt>
      <trkpt lat="42.792424" lon="-2.800436">
        <ele>756.724</ele>
        <time>2012-05-01T12:20:24Z</time>
      </trkpt>
      <trkpt lat="42.792432" lon="-2.800506">
        <ele>755.925</ele>
        <time>2012-05-01T12:20:35Z</time>
      </trkpt>
      <trkpt lat="42.792462" lon="-2.800574">
        <ele>755.726</ele>
        <time>2012-05-01T12:20:45Z</time>
      </trkpt>
      <trkpt lat="42.792497" lon="-2.800681">
        <ele>755.408</ele>
        <time>2012-05-01T12:21:04Z</time>
      </trkpt>
      <trkpt lat="42.792505" lon="-2.800745">
        <ele>755.207</ele>
        <time>2012-05-01T12:21:28Z</time>
      </trkpt>
      <trkpt lat="42.792531" lon="-2.800830">
        <ele>755.374</ele>
        <time>2012-05-01T12:21:55Z</time>
      </trkpt>
      <trkpt lat="42.792533" lon="-2.800872">
        <ele>755.361</ele>
        <time>2012-05-01T12:22:06Z</time>
      </trkpt>
      <trkpt lat="42.792546" lon="-2.800918">
        <ele>755.481</ele>
        <time>2012-05-01T12:22:17Z</time>
      </trkpt>
      <trkpt lat="42.792562" lon="-2.800982">
        <ele>755.772</ele>
        <time>2012-05-01T12:22:28Z</time>
      </trkpt>
      <trkpt lat="42.792586" lon="-2.801057">
        <ele>756.385</ele>
        <time>2012-05-01T12:22:41Z</time>
      </trkpt>
      <trkpt lat="42.792609" lon="-2.801122">
        <ele>756.954</ele>
        <time>2012-05-01T12:22:54Z</time>
      </trkpt>
      <trkpt lat="42.792641" lon="-2.801218">
        <ele>757.843</ele>
        <time>2012-05-01T12:23:06Z</time>
      </trkpt>
      <trkpt lat="42.792633" lon="-2.801315">
        <ele>758.219</ele>
        <time>2012-05-01T12:23:16Z</time>
      </trkpt>
      <trkpt lat="42.792620" lon="-2.801410">
        <ele>758.709</ele>
        <time>2012-05-01T12:23:32Z</time>
      </trkpt>
      <trkpt lat="42.792560" lon="-2.801490">
        <ele>759.019</ele>
        <time>2012-05-01T12:23:58Z</time>
      </trkpt>
      <trkpt lat="42.792520" lon="-2.801620">
        <ele>760.307</ele>
        <time>2012-05-01T12:30:17Z</time>
      </trkpt>
      <trkpt lat="42.792460" lon="-2.801720">
        <ele>761.583</ele>
        <time>2012-05-01T12:30:29Z</time>
      </trkpt>
      <trkpt lat="42.792430" lon="-2.801790">
        <ele>762.690</ele>
        <time>2012-05-01T12:31:23Z</time>
      </trkpt>
      <trkpt lat="42.792420" lon="-2.801930">
        <ele>765.840</ele>
        <time>2012-05-01T12:31:34Z</time>
      </trkpt>
      <trkpt lat="42.792410" lon="-2.802050">
        <ele>769.031</ele>
        <time>2012-05-01T12:31:44Z</time>
      </trkpt>
      <trkpt lat="42.792360" lon="-2.802170">
        <ele>771.634</ele>
        <time>2012-05-01T12:31:54Z</time>
      </trkpt>
      <trkpt lat="42.792310" lon="-2.802280">
        <ele>773.983</ele>
        <time>2012-05-01T12:32:03Z</time>
      </trkpt>
      <trkpt lat="42.792300" lon="-2.802410">
        <ele>776.822</ele>
        <time>2012-05-01T12:32:13Z</time>
      </trkpt>
      <trkpt lat="42.792290" lon="-2.802520">
        <ele>779.224</ele>
        <time>2012-05-01T12:32:24Z</time>
      </trkpt>
      <trkpt lat="42.792240" lon="-2.802630">
        <ele>781.304</ele>
        <time>2012-05-01T12:32:39Z</time>
      </trkpt>
      <trkpt lat="42.792190" lon="-2.802750">
        <ele>783.514</ele>
        <time>2012-05-01T12:32:57Z</time>
      </trkpt>
      <trkpt lat="42.792140" lon="-2.802810">
        <ele>784.307</ele>
        <time>2012-05-01T12:33:16Z</time>
      </trkpt>
      <trkpt lat="42.792050" lon="-2.802830">
        <ele>783.814</ele>
        <time>2012-05-01T12:33:31Z</time>
      </trkpt>
      <trkpt lat="42.792060" lon="-2.802960">
        <ele>787.391</ele>
        <time>2012-05-01T12:33:58Z</time>
      </trkpt>
      <trkpt lat="42.792090" lon="-2.803060">
        <ele>790.311</ele>
        <time>2012-05-01T12:34:20Z</time>
      </trkpt>
      <trkpt lat="42.792070" lon="-2.803180">
        <ele>793.082</ele>
        <time>2012-05-01T12:37:27Z</time>
      </trkpt>
      <trkpt lat="42.791980" lon="-2.803240">
        <ele>793.865</ele>
        <time>2012-05-01T12:37:40Z</time>
      </trkpt>
      <trkpt lat="42.791940" lon="-2.803330">
        <ele>794.954</ele>
        <time>2012-05-01T12:37:56Z</time>
      </trkpt>
      <trkpt lat="42.792010" lon="-2.803370">
        <ele>796.563</ele>
        <time>2012-05-01T12:38:18Z</time>
      </trkpt>
      <trkpt lat="42.791930" lon="-2.803440">
        <ele>796.583</ele>
        <time>2012-05-01T12:38:36Z</time>
      </trkpt>
      <trkpt lat="42.791880" lon="-2.803540">
        <ele>796.725</ele>
        <time>2012-05-01T12:38:51Z</time>
      </trkpt>
      <trkpt lat="42.791880" lon="-2.803620">
        <ele>797.517</ele>
        <time>2012-05-01T12:39:08Z</time>
      </trkpt>
      <trkpt lat="42.791910" lon="-2.803720">
        <ele>799.207</ele>
        <time>2012-05-01T12:39:25Z</time>
      </trkpt>
      <trkpt lat="42.791930" lon="-2.803830">
        <ele>801.010</ele>
        <time>2012-05-01T12:40:08Z</time>
      </trkpt>
      <trkpt lat="42.791970" lon="-2.803930">
        <ele>802.847</ele>
        <time>2012-05-01T12:40:19Z</time>
      </trkpt>
      <trkpt lat="42.792050" lon="-2.804030">
        <ele>804.617</ele>
        <time>2012-05-01T12:40:49Z</time>
      </trkpt>
      <trkpt lat="42.792110" lon="-2.804020">
        <ele>805.538</ele>
        <time>2012-05-01T12:41:06Z</time>
      </trkpt>
      <trkpt lat="42.792030" lon="-2.804050">
        <ele>804.521</ele>
        <time>2012-05-01T12:41:42Z</time>
      </trkpt>
      <trkpt lat="42.792060" lon="-2.804170">
        <ele>805.030</ele>
        <time>2012-05-01T12:41:53Z</time>
      </trkpt>
      <trkpt lat="42.792080" lon="-2.804290">
        <ele>805.069</ele>
        <time>2012-05-01T12:42:02Z</time>
      </trkpt>
      <trkpt lat="42.792090" lon="-2.804400">
        <ele>804.943</ele>
        <time>2012-05-01T12:42:13Z</time>
      </trkpt>
      <trkpt lat="42.792100" lon="-2.804540">
        <ele>804.664</ele>
        <time>2012-05-01T12:42:24Z</time>
      </trkpt>
      <trkpt lat="42.792110" lon="-2.804670">
        <ele>804.810</ele>
        <time>2012-05-01T12:42:34Z</time>
      </trkpt>
      <trkpt lat="42.792160" lon="-2.804780">
        <ele>805.907</ele>
        <time>2012-05-01T12:42:48Z</time>
      </trkpt>
      <trkpt lat="42.792180" lon="-2.804910">
        <ele>806.176</ele>
        <time>2012-05-01T12:43:00Z</time>
      </trkpt>
      <trkpt lat="42.792120" lon="-2.805020">
        <ele>805.083</ele>
        <time>2012-05-01T12:43:15Z</time>
      </trkpt>
      <trkpt lat="42.792070" lon="-2.805130">
        <ele>803.993</ele>
        <time>2012-05-01T12:43:24Z</time>
      </trkpt>
      <trkpt lat="42.792040" lon="-2.805240">
        <ele>803.584</ele>
        <time>2012-05-01T12:43:36Z</time>
      </trkpt>
      <trkpt lat="42.791990" lon="-2.805340">
        <ele>802.837</ele>
        <time>2012-05-01T12:43:50Z</time>
      </trkpt>
      <trkpt lat="42.792010" lon="-2.805430">
        <ele>802.846</ele>
        <time>2012-05-01T12:44:23Z</time>
      </trkpt>
      <trkpt lat="42.792000" lon="-2.805400">
        <ele>802.795</ele>
        <time>2012-05-01T12:46:12Z</time>
      </trkpt>
      <trkpt lat="42.791920" lon="-2.805450">
        <ele>801.349</ele>
        <time>2012-05-01T12:46:21Z</time>
      </trkpt>
      <trkpt lat="42.791860" lon="-2.805540">
        <ele>799.402</ele>
        <time>2012-05-01T12:46:31Z</time>
      </trkpt>
      <trkpt lat="42.791870" lon="-2.805660">
        <ele>799.522</ele>
        <time>2012-05-01T12:46:41Z</time>
      </trkpt>
      <trkpt lat="42.791930" lon="-2.805750">
        <ele>800.607</ele>
        <time>2012-05-01T12:46:50Z</time>
      </trkpt>
      <trkpt lat="42.791950" lon="-2.805890">
        <ele>800.576</ele>
        <time>2012-05-01T12:47:01Z</time>
      </trkpt>
      <trkpt lat="42.791930" lon="-2.806010">
        <ele>799.663</ele>
        <time>2012-05-01T12:47:10Z</time>
      </trkpt>
      <trkpt lat="42.791930" lon="-2.806130">
        <ele>799.153</ele>
        <time>2012-05-01T12:47:18Z</time>
      </trkpt>
      <trkpt lat="42.791950" lon="-2.806260">
        <ele>798.924</ele>
        <time>2012-05-01T12:47:26Z</time>
      </trkpt>
      <trkpt lat="42.791930" lon="-2.806390">
        <ele>798.157</ele>
        <time>2012-05-01T12:47:36Z</time>
      </trkpt>
      <trkpt lat="42.791930" lon="-2.806510">
        <ele>797.846</ele>
        <time>2012-05-01T12:47:45Z</time>
      </trkpt>
      <trkpt lat="42.791910" lon="-2.806630">
        <ele>797.245</ele>
        <time>2012-05-01T12:48:05Z</time>
      </trkpt>
      <trkpt lat="42.791890" lon="-2.806750">
        <ele>796.874</ele>
        <time>2012-05-01T12:48:14Z</time>
      </trkpt>
      <trkpt lat="42.791880" lon="-2.806870">
        <ele>796.756</ele>
        <time>2012-05-01T12:48:24Z</time>
      </trkpt>
      <trkpt lat="42.791840" lon="-2.806980">
        <ele>796.421</ele>
        <time>2012-05-01T12:48:33Z</time>
      </trkpt>
      <trkpt lat="42.791800" lon="-2.807100">
        <ele>796.307</ele>
        <time>2012-05-01T12:48:43Z</time>
      </trkpt>
      <trkpt lat="42.791760" lon="-2.807230">
        <ele>796.539</ele>
        <time>2012-05-01T12:48:52Z</time>
      </trkpt>
      <trkpt lat="42.791710" lon="-2.807340">
        <ele>796.986</ele>
        <time>2012-05-01T12:49:00Z</time>
      </trkpt>
      <trkpt lat="42.791680" lon="-2.807460">
        <ele>797.756</ele>
        <time>2012-05-01T12:49:09Z</time>
      </trkpt>
      <trkpt lat="42.791650" lon="-2.807580">
        <ele>798.777</ele>
        <time>2012-05-01T12:49:17Z</time>
      </trkpt>
      <trkpt lat="42.791620" lon="-2.807700">
        <ele>799.840</ele>
        <time>2012-05-01T12:49:25Z</time>
      </trkpt>
      <trkpt lat="42.791570" lon="-2.807820">
        <ele>800.789</ele>
        <time>2012-05-01T12:49:33Z</time>
      </trkpt>
      <trkpt lat="42.791480" lon="-2.807880">
        <ele>800.748</ele>
        <time>2012-05-01T12:49:42Z</time>
      </trkpt>
      <trkpt lat="42.791410" lon="-2.807950">
        <ele>800.824</ele>
        <time>2012-05-01T12:49:50Z</time>
      </trkpt>
      <trkpt lat="42.791350" lon="-2.808060">
        <ele>801.704</ele>
        <time>2012-05-01T12:49:58Z</time>
      </trkpt>
      <trkpt lat="42.791300" lon="-2.808170">
        <ele>802.214</ele>
        <time>2012-05-01T12:50:06Z</time>
      </trkpt>
      <trkpt lat="42.791300" lon="-2.808280">
        <ele>803.107</ele>
        <time>2012-05-01T12:50:14Z</time>
      </trkpt>
      <trkpt lat="42.791270" lon="-2.808210">
        <ele>802.114</ele>
        <time>2012-05-01T12:50:32Z</time>
      </trkpt>
      <trkpt lat="42.791270" lon="-2.808320">
        <ele>802.841</ele>
        <time>2012-05-01T12:50:43Z</time>
      </trkpt>
      <trkpt lat="42.791280" lon="-2.808430">
        <ele>803.271</ele>
        <time>2012-05-01T12:50:54Z</time>
      </trkpt>
      <trkpt lat="42.791330" lon="-2.808540">
        <ele>803.742</ele>
        <time>2012-05-01T12:51:05Z</time>
      </trkpt>
      <trkpt lat="42.791330" lon="-2.808660">
        <ele>803.265</ele>
        <time>2012-05-01T12:51:16Z</time>
      </trkpt>
      <trkpt lat="42.791270" lon="-2.808760">
        <ele>802.354</ele>
        <time>2012-05-01T12:51:29Z</time>
      </trkpt>
      <trkpt lat="42.791200" lon="-2.808850">
        <ele>802.563</ele>
        <time>2012-05-01T12:51:39Z</time>
      </trkpt>
      <trkpt lat="42.791170" lon="-2.808980">
        <ele>802.477</ele>
        <time>2012-05-01T12:51:48Z</time>
      </trkpt>
      <trkpt lat="42.791130" lon="-2.809100">
        <ele>801.761</ele>
        <time>2012-05-01T12:51:58Z</time>
      </trkpt>
      <trkpt lat="42.791140" lon="-2.809220">
        <ele>800.827</ele>
        <time>2012-05-01T12:52:07Z</time>
      </trkpt>
      <trkpt lat="42.791130" lon="-2.809340">
        <ele>799.707</ele>
        <time>2012-05-01T12:52:16Z</time>
      </trkpt>
      <trkpt lat="42.791100" lon="-2.809460">
        <ele>798.499</ele>
        <time>2012-05-01T12:52:24Z</time>
      </trkpt>
      <trkpt lat="42.791030" lon="-2.809570">
        <ele>796.566</ele>
        <time>2012-05-01T12:52:32Z</time>
      </trkpt>
      <trkpt lat="42.791010" lon="-2.809700">
        <ele>795.586</ele>
        <time>2012-05-01T12:52:39Z</time>
      </trkpt>
      <trkpt lat="42.791000" lon="-2.809840">
        <ele>794.717</ele>
        <time>2012-05-01T12:52:48Z</time>
      </trkpt>
      <trkpt lat="42.791000" lon="-2.809960">
        <ele>794.250</ele>
        <time>2012-05-01T12:52:56Z</time>
      </trkpt>
      <trkpt lat="42.791020" lon="-2.810080">
        <ele>794.069</ele>
        <time>2012-05-01T12:53:04Z</time>
      </trkpt>
      <trkpt lat="42.791080" lon="-2.810180">
        <ele>793.938</ele>
        <time>2012-05-01T12:53:13Z</time>
      </trkpt>
      <trkpt lat="42.791050" lon="-2.810300">
        <ele>792.784</ele>
        <time>2012-05-01T12:53:22Z</time>
      </trkpt>
      <trkpt lat="42.791090" lon="-2.810420">
        <ele>791.607</ele>
        <time>2012-05-01T12:53:31Z</time>
      </trkpt>
      <trkpt lat="42.791130" lon="-2.810530">
        <ele>790.417</ele>
        <time>2012-05-01T12:53:39Z</time>
      </trkpt>
      <trkpt lat="42.791150" lon="-2.810650">
        <ele>789.007</ele>
        <time>2012-05-01T12:53:48Z</time>
      </trkpt>
      <trkpt lat="42.791110" lon="-2.810710">
        <ele>788.580</ele>
        <time>2012-05-01T12:54:24Z</time>
      </trkpt>
      <trkpt lat="42.791140" lon="-2.810820">
        <ele>787.027</ele>
        <time>2012-05-01T12:54:32Z</time>
      </trkpt>
      <trkpt lat="42.791130" lon="-2.810940">
        <ele>785.397</ele>
        <time>2012-05-01T12:54:39Z</time>
      </trkpt>
      <trkpt lat="42.791160" lon="-2.811060">
        <ele>782.948</ele>
        <time>2012-05-01T12:54:47Z</time>
      </trkpt>
      <trkpt lat="42.791220" lon="-2.811170">
        <ele>779.611</ele>
        <time>2012-05-01T12:54:56Z</time>
      </trkpt>
      <trkpt lat="42.791190" lon="-2.811190">
        <ele>779.740</ele>
        <time>2012-05-01T12:55:12Z</time>
      </trkpt>
      <trkpt lat="42.791240" lon="-2.811240">
        <ele>777.549</ele>
        <time>2012-05-01T12:55:46Z</time>
      </trkpt>
      <trkpt lat="42.791230" lon="-2.811230">
        <ele>778.044</ele>
        <time>2012-05-01T12:55:58Z</time>
      </trkpt>
      <trkpt lat="42.791230" lon="-2.811230">
        <ele>778.005</ele>
        <time>2012-05-01T13:41:50Z</time>
      </trkpt>
      <trkpt lat="42.791220" lon="-2.811230">
        <ele>778.215</ele>
        <time>2012-05-01T13:42:01Z</time>
      </trkpt>
      <trkpt lat="42.791240" lon="-2.811340">
        <ele>775.107</ele>
        <time>2012-05-01T13:42:36Z</time>
      </trkpt>
      <trkpt lat="42.791140" lon="-2.811390">
        <ele>775.916</ele>
        <time>2012-05-01T13:42:52Z</time>
      </trkpt>
      <trkpt lat="42.791070" lon="-2.811490">
        <ele>774.423</ele>
        <time>2012-05-01T13:43:02Z</time>
      </trkpt>
      <trkpt lat="42.790980" lon="-2.811540">
        <ele>773.893</ele>
        <time>2012-05-01T13:43:12Z</time>
      </trkpt>
      <trkpt lat="42.790900" lon="-2.811600">
        <ele>772.544</ele>
        <time>2012-05-01T13:43:21Z</time>
      </trkpt>
      <trkpt lat="42.790810" lon="-2.811660">
        <ele>771.037</ele>
        <time>2012-05-01T13:43:31Z</time>
      </trkpt>
      <trkpt lat="42.790770" lon="-2.811770">
        <ele>769.216</ele>
        <time>2012-05-01T13:43:40Z</time>
      </trkpt>
      <trkpt lat="42.790730" lon="-2.811880">
        <ele>767.565</ele>
        <time>2012-05-01T13:43:49Z</time>
      </trkpt>
      <trkpt lat="42.790660" lon="-2.811980">
        <ele>765.828</ele>
        <time>2012-05-01T13:43:58Z</time>
      </trkpt>
      <trkpt lat="42.790600" lon="-2.812090">
        <ele>764.189</ele>
        <time>2012-05-01T13:44:07Z</time>
      </trkpt>
      <trkpt lat="42.790560" lon="-2.812200">
        <ele>762.717</ele>
        <time>2012-05-01T13:44:15Z</time>
      </trkpt>
      <trkpt lat="42.790500" lon="-2.812310">
        <ele>761.207</ele>
        <time>2012-05-01T13:44:23Z</time>
      </trkpt>
      <trkpt lat="42.790460" lon="-2.812420">
        <ele>760.014</ele>
        <time>2012-05-01T13:44:31Z</time>
      </trkpt>
      <trkpt lat="42.790410" lon="-2.812540">
        <ele>758.841</ele>
        <time>2012-05-01T13:44:40Z</time>
      </trkpt>
      <trkpt lat="42.790350" lon="-2.812640">
        <ele>758.391</ele>
        <time>2012-05-01T13:44:49Z</time>
      </trkpt>
      <trkpt lat="42.790300" lon="-2.812760">
        <ele>757.462</ele>
        <time>2012-05-01T13:44:58Z</time>
      </trkpt>
      <trkpt lat="42.790240" lon="-2.812860">
        <ele>756.575</ele>
        <time>2012-05-01T13:45:06Z</time>
      </trkpt>
      <trkpt lat="42.790180" lon="-2.812970">
        <ele>755.484</ele>
        <time>2012-05-01T13:45:14Z</time>
      </trkpt>
      <trkpt lat="42.790130" lon="-2.813070">
        <ele>754.423</ele>
        <time>2012-05-01T13:45:22Z</time>
      </trkpt>
      <trkpt lat="42.790090" lon="-2.813200">
        <ele>753.525</ele>
        <time>2012-05-01T13:45:31Z</time>
      </trkpt>
      <trkpt lat="42.790050" lon="-2.813310">
        <ele>752.526</ele>
        <time>2012-05-01T13:45:39Z</time>
      </trkpt>
      <trkpt lat="42.790040" lon="-2.813450">
        <ele>751.908</ele>
        <time>2012-05-01T13:45:48Z</time>
      </trkpt>
      <trkpt lat="42.790070" lon="-2.813570">
        <ele>751.707</ele>
        <time>2012-05-01T13:45:57Z</time>
      </trkpt>
      <trkpt lat="42.790080" lon="-2.813700">
        <ele>750.724</ele>
        <time>2012-05-01T13:46:06Z</time>
      </trkpt>
      <trkpt lat="42.790080" lon="-2.813840">
        <ele>749.491</ele>
        <time>2012-05-01T13:46:15Z</time>
      </trkpt>
      <trkpt lat="42.790030" lon="-2.813950">
        <ele>747.831</ele>
        <time>2012-05-01T13:46:24Z</time>
      </trkpt>
      <trkpt lat="42.789970" lon="-2.814040">
        <ele>746.052</ele>
        <time>2012-05-01T13:46:34Z</time>
      </trkpt>
      <trkpt lat="42.789930" lon="-2.814150">
        <ele>744.145</ele>
        <time>2012-05-01T13:46:45Z</time>
      </trkpt>
      <trkpt lat="42.789840" lon="-2.814170">
        <ele>741.944</ele>
        <time>2012-05-01T13:46:54Z</time>
      </trkpt>
      <trkpt lat="42.789790" lon="-2.814190">
        <ele>740.573</ele>
        <time>2012-05-01T13:47:13Z</time>
      </trkpt>
      <trkpt lat="42.789730" lon="-2.814280">
        <ele>737.728</ele>
        <time>2012-05-01T13:47:30Z</time>
      </trkpt>
      <trkpt lat="42.789650" lon="-2.814330">
        <ele>734.889</ele>
        <time>2012-05-01T13:47:40Z</time>
      </trkpt>
      <trkpt lat="42.789580" lon="-2.814410">
        <ele>731.717</ele>
        <time>2012-05-01T13:47:48Z</time>
      </trkpt>
      <trkpt lat="42.789500" lon="-2.814460">
        <ele>729.807</ele>
        <time>2012-05-01T13:47:56Z</time>
      </trkpt>
      <trkpt lat="42.789420" lon="-2.814530">
        <ele>727.544</ele>
        <time>2012-05-01T13:48:05Z</time>
      </trkpt>
      <trkpt lat="42.789380" lon="-2.814630">
        <ele>725.511</ele>
        <time>2012-05-01T13:48:14Z</time>
      </trkpt>
      <trkpt lat="42.789410" lon="-2.814760">
        <ele>724.181</ele>
        <time>2012-05-01T13:48:23Z</time>
      </trkpt>
      <trkpt lat="42.789430" lon="-2.814830">
        <ele>723.292</ele>
        <time>2012-05-01T13:48:32Z</time>
      </trkpt>
      <trkpt lat="42.789360" lon="-2.814920">
        <ele>720.915</ele>
        <time>2012-05-01T13:48:41Z</time>
      </trkpt>
      <trkpt lat="42.789340" lon="-2.815040">
        <ele>718.734</ele>
        <time>2012-05-01T13:48:50Z</time>
      </trkpt>
      <trkpt lat="42.789390" lon="-2.815130">
        <ele>717.313</ele>
        <time>2012-05-01T13:49:01Z</time>
      </trkpt>
      <trkpt lat="42.789460" lon="-2.815220">
        <ele>715.816</ele>
        <time>2012-05-01T13:49:11Z</time>
      </trkpt>
      <trkpt lat="42.789520" lon="-2.815300">
        <ele>714.376</ele>
        <time>2012-05-01T13:49:20Z</time>
      </trkpt>
      <trkpt lat="42.789580" lon="-2.815410">
        <ele>712.113</ele>
        <time>2012-05-01T13:49:29Z</time>
      </trkpt>
      <trkpt lat="42.789630" lon="-2.815520">
        <ele>710.607</ele>
        <time>2012-05-01T13:49:37Z</time>
      </trkpt>
      <trkpt lat="42.789690" lon="-2.815630">
        <ele>709.743</ele>
        <time>2012-05-01T13:49:46Z</time>
      </trkpt>
      <trkpt lat="42.789760" lon="-2.815720">
        <ele>709.880</ele>
        <time>2012-05-01T13:49:55Z</time>
      </trkpt>
      <trkpt lat="42.789810" lon="-2.815830">
        <ele>709.370</ele>
        <time>2012-05-01T13:50:05Z</time>
      </trkpt>
      <trkpt lat="42.789770" lon="-2.815960">
        <ele>706.791</ele>
        <time>2012-05-01T13:50:14Z</time>
      </trkpt>
      <trkpt lat="42.789770" lon="-2.816090">
        <ele>705.244</ele>
        <time>2012-05-01T13:50:23Z</time>
      </trkpt>
      <trkpt lat="42.789820" lon="-2.816210">
        <ele>705.153</ele>
        <time>2012-05-01T13:50:32Z</time>
      </trkpt>
      <trkpt lat="42.789840" lon="-2.816350">
        <ele>703.512</ele>
        <time>2012-05-01T13:50:41Z</time>
      </trkpt>
      <trkpt lat="42.789800" lon="-2.816470">
        <ele>701.255</ele>
        <time>2012-05-01T13:50:55Z</time>
      </trkpt>
      <trkpt lat="42.789760" lon="-2.816590">
        <ele>699.107</ele>
        <time>2012-05-01T13:51:06Z</time>
      </trkpt>
      <trkpt lat="42.789670" lon="-2.816670">
        <ele>696.117</ele>
        <time>2012-05-01T13:51:15Z</time>
      </trkpt>
      <trkpt lat="42.789640" lon="-2.816790">
        <ele>694.507</ele>
        <time>2012-05-01T13:51:23Z</time>
      </trkpt>
      <trkpt lat="42.789610" lon="-2.816930">
        <ele>693.237</ele>
        <time>2012-05-01T13:51:31Z</time>
      </trkpt>
      <trkpt lat="42.789580" lon="-2.817060">
        <ele>692.034</ele>
        <time>2012-05-01T13:51:38Z</time>
      </trkpt>
      <trkpt lat="42.789580" lon="-2.817190">
        <ele>691.834</ele>
        <time>2012-05-01T13:51:45Z</time>
      </trkpt>
      <trkpt lat="42.789540" lon="-2.817310">
        <ele>692.135</ele>
        <time>2012-05-01T13:51:53Z</time>
      </trkpt>
      <trkpt lat="42.789480" lon="-2.817420">
        <ele>692.668</ele>
        <time>2012-05-01T13:52:01Z</time>
      </trkpt>
      <trkpt lat="42.789440" lon="-2.817550">
        <ele>693.537</ele>
        <time>2012-05-01T13:52:09Z</time>
      </trkpt>
      <trkpt lat="42.789420" lon="-2.817670">
        <ele>694.116</ele>
        <time>2012-05-01T13:52:25Z</time>
      </trkpt>
      <trkpt lat="42.789460" lon="-2.817810">
        <ele>694.285</ele>
        <time>2012-05-01T13:52:34Z</time>
      </trkpt>
      <trkpt lat="42.789450" lon="-2.817930">
        <ele>693.789</ele>
        <time>2012-05-01T13:52:41Z</time>
      </trkpt>
      <trkpt lat="42.789450" lon="-2.818060">
        <ele>693.117</ele>
        <time>2012-05-01T13:52:48Z</time>
      </trkpt>
      <trkpt lat="42.789420" lon="-2.818180">
        <ele>692.607</ele>
        <time>2012-05-01T13:52:56Z</time>
      </trkpt>
      <trkpt lat="42.789360" lon="-2.818280">
        <ele>692.540</ele>
        <time>2012-05-01T13:53:04Z</time>
      </trkpt>
      <trkpt lat="42.789290" lon="-2.818390">
        <ele>692.027</ele>
        <time>2012-05-01T13:53:12Z</time>
      </trkpt>
      <trkpt lat="42.789230" lon="-2.818480">
        <ele>691.487</ele>
        <time>2012-05-01T13:53:20Z</time>
      </trkpt>
      <trkpt lat="42.789170" lon="-2.818590">
        <ele>690.268</ele>
        <time>2012-05-01T13:53:29Z</time>
      </trkpt>
      <trkpt lat="42.789110" lon="-2.818690">
        <ele>688.961</ele>
        <time>2012-05-01T13:53:38Z</time>
      </trkpt>
      <trkpt lat="42.789040" lon="-2.818780">
        <ele>688.110</ele>
        <time>2012-05-01T13:53:51Z</time>
      </trkpt>
      <trkpt lat="42.788970" lon="-2.818850">
        <ele>688.389</ele>
        <time>2012-05-01T13:54:00Z</time>
      </trkpt>
      <trkpt lat="42.788900" lon="-2.818930">
        <ele>688.447</ele>
        <time>2012-05-01T13:54:09Z</time>
      </trkpt>
      <trkpt lat="42.788870" lon="-2.819000">
        <ele>687.829</ele>
        <time>2012-05-01T13:54:22Z</time>
      </trkpt>
      <trkpt lat="42.788850" lon="-2.818960">
        <ele>688.721</ele>
        <time>2012-05-01T13:54:33Z</time>
      </trkpt>
      <trkpt lat="42.788760" lon="-2.818960">
        <ele>689.607</ele>
        <time>2012-05-01T13:54:44Z</time>
      </trkpt>
      <trkpt lat="42.788660" lon="-2.818970">
        <ele>691.336</ele>
        <time>2012-05-01T13:54:54Z</time>
      </trkpt>
      <trkpt lat="42.788590" lon="-2.819030">
        <ele>691.713</ele>
        <time>2012-05-01T13:55:14Z</time>
      </trkpt>
      <trkpt lat="42.788540" lon="-2.819140">
        <ele>690.963</ele>
        <time>2012-05-01T13:55:33Z</time>
      </trkpt>
      <trkpt lat="42.788620" lon="-2.819150">
        <ele>689.984</ele>
        <time>2012-05-01T13:56:04Z</time>
      </trkpt>
      <trkpt lat="42.788630" lon="-2.819150">
        <ele>689.797</ele>
        <time>2012-05-01T13:58:06Z</time>
      </trkpt>
      <trkpt lat="42.788560" lon="-2.819190">
        <ele>689.966</ele>
        <time>2012-05-01T13:58:39Z</time>
      </trkpt>
      <trkpt lat="42.788490" lon="-2.819230">
        <ele>689.625</ele>
        <time>2012-05-01T13:58:52Z</time>
      </trkpt>
      <trkpt lat="42.788430" lon="-2.819270">
        <ele>689.052</ele>
        <time>2012-05-01T13:59:16Z</time>
      </trkpt>
      <trkpt lat="42.788370" lon="-2.819260">
        <ele>688.953</ele>
        <time>2012-05-01T13:59:30Z</time>
      </trkpt>
      <trkpt lat="42.788310" lon="-2.819350">
        <ele>686.808</ele>
        <time>2012-05-01T13:59:56Z</time>
      </trkpt>
      <trkpt lat="42.788300" lon="-2.819440">
        <ele>684.507</ele>
        <time>2012-05-01T14:00:12Z</time>
      </trkpt>
      <trkpt lat="42.788310" lon="-2.819370">
        <ele>686.357</ele>
        <time>2012-05-01T14:00:45Z</time>
      </trkpt>
      <trkpt lat="42.788270" lon="-2.819320">
        <ele>687.074</ele>
        <time>2012-05-01T14:00:56Z</time>
      </trkpt>
      <trkpt lat="42.788180" lon="-2.819350">
        <ele>685.484</ele>
        <time>2012-05-01T14:01:13Z</time>
      </trkpt>
      <trkpt lat="42.788110" lon="-2.819430">
        <ele>682.855</ele>
        <time>2012-05-01T14:01:25Z</time>
      </trkpt>
      <trkpt lat="42.788060" lon="-2.819540">
        <ele>679.888</ele>
        <time>2012-05-01T14:01:34Z</time>
      </trkpt>
      <trkpt lat="42.788000" lon="-2.819630">
        <ele>677.497</ele>
        <time>2012-05-01T14:01:46Z</time>
      </trkpt>
      <trkpt lat="42.787920" lon="-2.819680">
        <ele>676.066</ele>
        <time>2012-05-01T14:01:56Z</time>
      </trkpt>
      <trkpt lat="42.787830" lon="-2.819690">
        <ele>676.275</ele>
        <time>2012-05-01T14:02:25Z</time>
      </trkpt>
      <trkpt lat="42.787740" lon="-2.819700">
        <ele>676.028</ele>
        <time>2012-05-01T14:02:33Z</time>
      </trkpt>
      <trkpt lat="42.787670" lon="-2.819610">
        <ele>676.220</ele>
        <time>2012-05-01T14:02:41Z</time>
      </trkpt>
      <trkpt lat="42.787610" lon="-2.819510">
        <ele>676.607</ele>
        <time>2012-05-01T14:02:50Z</time>
      </trkpt>
      <trkpt lat="42.787530" lon="-2.819440">
        <ele>676.219</ele>
        <time>2012-05-01T14:02:58Z</time>
      </trkpt>
      <trkpt lat="42.787460" lon="-2.819360">
        <ele>675.586</ele>
        <time>2012-05-01T14:03:06Z</time>
      </trkpt>
      <trkpt lat="42.787370" lon="-2.819370">
        <ele>673.926</ele>
        <time>2012-05-01T14:03:13Z</time>
      </trkpt>
      <trkpt lat="42.787290" lon="-2.819420">
        <ele>672.137</ele>
        <time>2012-05-01T14:03:21Z</time>
      </trkpt>
      <trkpt lat="42.787220" lon="-2.819510">
        <ele>670.040</ele>
        <time>2012-05-01T14:03:29Z</time>
      </trkpt>
      <trkpt lat="42.787170" lon="-2.819620">
        <ele>668.039</ele>
        <time>2012-05-01T14:03:38Z</time>
      </trkpt>
      <trkpt lat="42.787080" lon="-2.819660">
        <ele>665.618</ele>
        <time>2012-05-01T14:03:48Z</time>
      </trkpt>
      <trkpt lat="42.786990" lon="-2.819670">
        <ele>664.043</ele>
        <time>2012-05-01T14:03:56Z</time>
      </trkpt>
      <trkpt lat="42.786900" lon="-2.819690">
        <ele>662.464</ele>
        <time>2012-05-01T14:04:05Z</time>
      </trkpt>
      <trkpt lat="42.786820" lon="-2.819760">
        <ele>660.610</ele>
        <time>2012-05-01T14:04:13Z</time>
      </trkpt>
      <trkpt lat="42.786750" lon="-2.819830">
        <ele>659.007</ele>
        <time>2012-05-01T14:04:20Z</time>
      </trkpt>
      <trkpt lat="42.786660" lon="-2.819880">
        <ele>657.296</ele>
        <time>2012-05-01T14:04:31Z</time>
      </trkpt>
      <trkpt lat="42.786590" lon="-2.819800">
        <ele>656.763</ele>
        <time>2012-05-01T14:04:44Z</time>
      </trkpt>
      <trkpt lat="42.786510" lon="-2.819710">
        <ele>655.223</ele>
        <time>2012-05-01T14:04:54Z</time>
      </trkpt>
      <trkpt lat="42.786450" lon="-2.819580">
        <ele>653.274</ele>
        <time>2012-05-01T14:05:03Z</time>
      </trkpt>
      <trkpt lat="42.786370" lon="-2.819520">
        <ele>650.857</ele>
        <time>2012-05-01T14:05:11Z</time>
      </trkpt>
      <trkpt lat="42.786280" lon="-2.819560">
        <ele>648.716</ele>
        <time>2012-05-01T14:05:19Z</time>
      </trkpt>
      <trkpt lat="42.786200" lon="-2.819620">
        <ele>647.195</ele>
        <time>2012-05-01T14:05:27Z</time>
      </trkpt>
      <trkpt lat="42.786100" lon="-2.819640">
        <ele>644.716</ele>
        <time>2012-05-01T14:05:37Z</time>
      </trkpt>
      <trkpt lat="42.786000" lon="-2.819640">
        <ele>642.276</ele>
        <time>2012-05-01T14:05:46Z</time>
      </trkpt>
      <trkpt lat="42.785900" lon="-2.819630">
        <ele>639.813</ele>
        <time>2012-05-01T14:05:55Z</time>
      </trkpt>
      <trkpt lat="42.785810" lon="-2.819650">
        <ele>637.907</ele>
        <time>2012-05-01T14:06:03Z</time>
      </trkpt>
      <trkpt lat="42.785730" lon="-2.819720">
        <ele>636.853</ele>
        <time>2012-05-01T14:06:11Z</time>
      </trkpt>
      <trkpt lat="42.785650" lon="-2.819800">
        <ele>635.560</ele>
        <time>2012-05-01T14:06:19Z</time>
      </trkpt>
      <trkpt lat="42.785590" lon="-2.819910">
        <ele>634.940</ele>
        <time>2012-05-01T14:06:27Z</time>
      </trkpt>
      <trkpt lat="42.785510" lon="-2.819980">
        <ele>633.221</ele>
        <time>2012-05-01T14:06:35Z</time>
      </trkpt>
      <trkpt lat="42.785410" lon="-2.820010">
        <ele>630.564</ele>
        <time>2012-05-01T14:06:43Z</time>
      </trkpt>
      <trkpt lat="42.785320" lon="-2.820070">
        <ele>628.283</ele>
        <time>2012-05-01T14:06:51Z</time>
      </trkpt>
      <trkpt lat="42.785240" lon="-2.820130">
        <ele>626.422</ele>
        <time>2012-05-01T14:07:00Z</time>
      </trkpt>
      <trkpt lat="42.785140" lon="-2.820170">
        <ele>624.272</ele>
        <time>2012-05-01T14:07:09Z</time>
      </trkpt>
      <trkpt lat="42.785050" lon="-2.820200">
        <ele>622.213</ele>
        <time>2012-05-01T14:07:18Z</time>
      </trkpt>
      <trkpt lat="42.784950" lon="-2.820180">
        <ele>619.714</ele>
        <time>2012-05-01T14:07:27Z</time>
      </trkpt>
      <trkpt lat="42.784850" lon="-2.820170">
        <ele>617.307</ele>
        <time>2012-05-01T14:07:39Z</time>
      </trkpt>
      <trkpt lat="42.784770" lon="-2.820190">
        <ele>615.459</ele>
        <time>2012-05-01T14:07:51Z</time>
      </trkpt>
      <trkpt lat="42.784660" lon="-2.820190">
        <ele>612.596</ele>
        <time>2012-05-01T14:08:02Z</time>
      </trkpt>
      <trkpt lat="42.784570" lon="-2.820190">
        <ele>609.986</ele>
        <time>2012-05-01T14:08:11Z</time>
      </trkpt>
      <trkpt lat="42.784470" lon="-2.820230">
        <ele>607.437</ele>
        <time>2012-05-01T14:08:20Z</time>
      </trkpt>
      <trkpt lat="42.784370" lon="-2.820240">
        <ele>604.970</ele>
        <time>2012-05-01T14:08:30Z</time>
      </trkpt>
      <trkpt lat="42.784280" lon="-2.820250">
        <ele>602.859</ele>
        <time>2012-05-01T14:08:40Z</time>
      </trkpt>
      <trkpt lat="42.784190" lon="-2.820220">
        <ele>600.558</ele>
        <time>2012-05-01T14:08:49Z</time>
      </trkpt>
      <trkpt lat="42.784110" lon="-2.820190">
        <ele>598.545</ele>
        <time>2012-05-01T14:09:00Z</time>
      </trkpt>
      <trkpt lat="42.784010" lon="-2.820170">
        <ele>596.347</ele>
        <time>2012-05-01T14:09:09Z</time>
      </trkpt>
      <trkpt lat="42.783910" lon="-2.820180">
        <ele>594.111</ele>
        <time>2012-05-01T14:09:19Z</time>
      </trkpt>
      <trkpt lat="42.783820" lon="-2.820190">
        <ele>592.307</ele>
        <time>2012-05-01T14:09:29Z</time>
      </trkpt>
      <trkpt lat="42.783730" lon="-2.820170">
        <ele>590.016</ele>
        <time>2012-05-01T14:09:38Z</time>
      </trkpt>
      <trkpt lat="42.783650" lon="-2.820150">
        <ele>587.613</ele>
        <time>2012-05-01T14:09:50Z</time>
      </trkpt>
      <trkpt lat="42.783560" lon="-2.820160">
        <ele>585.343</ele>
        <time>2012-05-01T14:10:03Z</time>
      </trkpt>
      <trkpt lat="42.783460" lon="-2.820170">
        <ele>582.734</ele>
        <time>2012-05-01T14:10:12Z</time>
      </trkpt>
      <trkpt lat="42.783360" lon="-2.820160">
        <ele>580.667</ele>
        <time>2012-05-01T14:10:22Z</time>
      </trkpt>
      <trkpt lat="42.783270" lon="-2.820150">
        <ele>579.096</ele>
        <time>2012-05-01T14:10:30Z</time>
      </trkpt>
      <trkpt lat="42.783180" lon="-2.820160">
        <ele>577.525</ele>
        <time>2012-05-01T14:10:38Z</time>
      </trkpt>
      <trkpt lat="42.783090" lon="-2.820200">
        <ele>576.199</ele>
        <time>2012-05-01T14:10:46Z</time>
      </trkpt>
      <trkpt lat="42.783000" lon="-2.820230">
        <ele>575.007</ele>
        <time>2012-05-01T14:10:54Z</time>
      </trkpt>
      <trkpt lat="42.782910" lon="-2.820280">
        <ele>573.927</ele>
        <time>2012-05-01T14:11:02Z</time>
      </trkpt>
      <trkpt lat="42.782820" lon="-2.820330">
        <ele>572.707</ele>
        <time>2012-05-01T14:11:10Z</time>
      </trkpt>
      <trkpt lat="42.782740" lon="-2.820390">
        <ele>572.081</ele>
        <time>2012-05-01T14:11:18Z</time>
      </trkpt>
      <trkpt lat="42.782650" lon="-2.820450">
        <ele>571.688</ele>
        <time>2012-05-01T14:11:26Z</time>
      </trkpt>
      <trkpt lat="42.782570" lon="-2.820520">
        <ele>571.688</ele>
        <time>2012-05-01T14:11:34Z</time>
      </trkpt>
      <trkpt lat="42.782500" lon="-2.820600">
        <ele>571.869</ele>
        <time>2012-05-01T14:11:42Z</time>
      </trkpt>
      <trkpt lat="42.782450" lon="-2.820710">
        <ele>572.042</ele>
        <time>2012-05-01T14:11:50Z</time>
      </trkpt>
      <trkpt lat="42.782400" lon="-2.820830">
        <ele>572.771</ele>
        <time>2012-05-01T14:11:58Z</time>
      </trkpt>
      <trkpt lat="42.782350" lon="-2.820920">
        <ele>573.520</ele>
        <time>2012-05-01T14:12:11Z</time>
      </trkpt>
      <trkpt lat="42.782270" lon="-2.821010">
        <ele>575.073</ele>
        <time>2012-05-01T14:12:35Z</time>
      </trkpt>
      <trkpt lat="42.782250" lon="-2.821140">
        <ele>575.285</ele>
        <time>2012-05-01T14:12:43Z</time>
      </trkpt>
      <trkpt lat="42.782240" lon="-2.821270">
        <ele>574.913</ele>
        <time>2012-05-01T14:12:51Z</time>
      </trkpt>
      <trkpt lat="42.782230" lon="-2.821400">
        <ele>574.507</ele>
        <time>2012-05-01T14:12:58Z</time>
      </trkpt>
      <trkpt lat="42.782210" lon="-2.821530">
        <ele>574.159</ele>
        <time>2012-05-01T14:13:05Z</time>
      </trkpt>
      <trkpt lat="42.782160" lon="-2.821650">
        <ele>574.426</ele>
        <time>2012-05-01T14:13:13Z</time>
      </trkpt>
      <trkpt lat="42.782120" lon="-2.821770">
        <ele>574.416</ele>
        <time>2012-05-01T14:13:21Z</time>
      </trkpt>
      <trkpt lat="42.782070" lon="-2.821890">
        <ele>574.157</ele>
        <time>2012-05-01T14:13:29Z</time>
      </trkpt>
      <trkpt lat="42.782020" lon="-2.822010">
        <ele>573.470</ele>
        <time>2012-05-01T14:13:37Z</time>
      </trkpt>
      <trkpt lat="42.781970" lon="-2.822120">
        <ele>572.449</ele>
        <time>2012-05-01T14:13:45Z</time>
      </trkpt>
      <trkpt lat="42.781950" lon="-2.822250">
        <ele>570.728</ele>
        <time>2012-05-01T14:13:53Z</time>
      </trkpt>
      <trkpt lat="42.781940" lon="-2.822380">
        <ele>568.676</ele>
        <time>2012-05-01T14:14:00Z</time>
      </trkpt>
      <trkpt lat="42.781930" lon="-2.822520">
        <ele>566.190</ele>
        <time>2012-05-01T14:14:08Z</time>
      </trkpt>
      <trkpt lat="42.781910" lon="-2.822640">
        <ele>563.919</ele>
        <time>2012-05-01T14:14:15Z</time>
      </trkpt>
      <trkpt lat="42.781900" lon="-2.822770">
        <ele>561.307</ele>
        <time>2012-05-01T14:14:22Z</time>
      </trkpt>
      <trkpt lat="42.781880" lon="-2.822890">
        <ele>558.949</ele>
        <time>2012-05-01T14:14:29Z</time>
      </trkpt>
      <trkpt lat="42.781850" lon="-2.823020">
        <ele>556.456</ele>
        <time>2012-05-01T14:14:37Z</time>
      </trkpt>
      <trkpt lat="42.781780" lon="-2.823120">
        <ele>555.096</ele>
        <time>2012-05-01T14:14:45Z</time>
      </trkpt>
      <trkpt lat="42.781690" lon="-2.823190">
        <ele>554.037</ele>
        <time>2012-05-01T14:14:53Z</time>
      </trkpt>
      <trkpt lat="42.781600" lon="-2.823220">
        <ele>553.590</ele>
        <time>2012-05-01T14:15:00Z</time>
      </trkpt>
      <trkpt lat="42.781500" lon="-2.823240">
        <ele>552.959</ele>
        <time>2012-05-01T14:15:07Z</time>
      </trkpt>
      <trkpt lat="42.781410" lon="-2.823260">
        <ele>552.078</ele>
        <time>2012-05-01T14:15:14Z</time>
      </trkpt>
      <trkpt lat="42.781320" lon="-2.823270">
        <ele>551.238</ele>
        <time>2012-05-01T14:15:21Z</time>
      </trkpt>
      <trkpt lat="42.781230" lon="-2.823280">
        <ele>550.270</ele>
        <time>2012-05-01T14:15:29Z</time>
      </trkpt>
      <trkpt lat="42.781130" lon="-2.823290">
        <ele>549.317</ele>
        <time>2012-05-01T14:15:37Z</time>
      </trkpt>
      <trkpt lat="42.781030" lon="-2.823300">
        <ele>548.207</ele>
        <time>2012-05-01T14:15:44Z</time>
      </trkpt>
      <trkpt lat="42.780940" lon="-2.823320">
        <ele>546.925</ele>
        <time>2012-05-01T14:15:51Z</time>
      </trkpt>
      <trkpt lat="42.780850" lon="-2.823330">
        <ele>545.772</ele>
        <time>2012-05-01T14:15:58Z</time>
      </trkpt>
      <trkpt lat="42.780750" lon="-2.823340">
        <ele>544.392</ele>
        <time>2012-05-01T14:16:06Z</time>
      </trkpt>
      <trkpt lat="42.780660" lon="-2.823360">
        <ele>542.873</ele>
        <time>2012-05-01T14:16:13Z</time>
      </trkpt>
      <trkpt lat="42.780570" lon="-2.823370">
        <ele>541.416</ele>
        <time>2012-05-01T14:16:20Z</time>
      </trkpt>
      <trkpt lat="42.780480" lon="-2.823370">
        <ele>540.155</ele>
        <time>2012-05-01T14:16:27Z</time>
      </trkpt>
      <trkpt lat="42.780380" lon="-2.823380">
        <ele>538.664</ele>
        <time>2012-05-01T14:16:35Z</time>
      </trkpt>
      <trkpt lat="42.780280" lon="-2.823390">
        <ele>537.316</ele>
        <time>2012-05-01T14:16:43Z</time>
      </trkpt>
      <trkpt lat="42.780180" lon="-2.823400">
        <ele>536.176</ele>
        <time>2012-05-01T14:16:52Z</time>
      </trkpt>
      <trkpt lat="42.780080" lon="-2.823420">
        <ele>534.913</ele>
        <time>2012-05-01T14:17:00Z</time>
      </trkpt>
      <trkpt lat="42.779990" lon="-2.823440">
        <ele>533.807</ele>
        <time>2012-05-01T14:17:08Z</time>
      </trkpt>
      <trkpt lat="42.779890" lon="-2.823450">
        <ele>532.773</ele>
        <time>2012-05-01T14:17:15Z</time>
      </trkpt>
      <trkpt lat="42.779790" lon="-2.823460">
        <ele>531.610</ele>
        <time>2012-05-01T14:17:22Z</time>
      </trkpt>
      <trkpt lat="42.779700" lon="-2.823450">
        <ele>530.750</ele>
        <time>2012-05-01T14:17:30Z</time>
      </trkpt>
      <trkpt lat="42.779590" lon="-2.823460">
        <ele>529.381</ele>
        <time>2012-05-01T14:17:39Z</time>
      </trkpt>
      <trkpt lat="42.779500" lon="-2.823450">
        <ele>528.054</ele>
        <time>2012-05-01T14:17:46Z</time>
      </trkpt>
      <trkpt lat="42.779400" lon="-2.823440">
        <ele>526.673</ele>
        <time>2012-05-01T14:17:53Z</time>
      </trkpt>
      <trkpt lat="42.779310" lon="-2.823430">
        <ele>525.472</ele>
        <time>2012-05-01T14:18:00Z</time>
      </trkpt>
      <trkpt lat="42.779210" lon="-2.823420">
        <ele>524.153</ele>
        <time>2012-05-01T14:18:07Z</time>
      </trkpt>
      <trkpt lat="42.779110" lon="-2.823410">
        <ele>523.004</ele>
        <time>2012-05-01T14:18:14Z</time>
      </trkpt>
      <trkpt lat="42.779020" lon="-2.823410">
        <ele>522.114</ele>
        <time>2012-05-01T14:18:21Z</time>
      </trkpt>
      <trkpt lat="42.778930" lon="-2.823410">
        <ele>521.407</ele>
        <time>2012-05-01T14:18:29Z</time>
      </trkpt>
      <trkpt lat="42.778830" lon="-2.823400">
        <ele>520.927</ele>
        <time>2012-05-01T14:18:37Z</time>
      </trkpt>
      <trkpt lat="42.778730" lon="-2.823390">
        <ele>520.774</ele>
        <time>2012-05-01T14:18:44Z</time>
      </trkpt>
      <trkpt lat="42.778640" lon="-2.823380">
        <ele>520.674</ele>
        <time>2012-05-01T14:18:51Z</time>
      </trkpt>
      <trkpt lat="42.778484" lon="-2.823484">
        <ele>520.175</ele>
        <time>2012-05-01T14:18:58Z</time>
      </trkpt>
      <trkpt lat="42.778439" lon="-2.823729">
        <ele>518.448</ele>
        <time>2012-05-01T14:19:06Z</time>
      </trkpt>
      <trkpt lat="42.778395" lon="-2.824157">
        <ele>515.917</ele>
        <time>2012-05-01T14:19:59Z</time>
      </trkpt>
      <trkpt lat="42.778370" lon="-2.824440">
        <ele>514.416</ele>
        <time>2012-05-01T14:20:06Z</time>
      </trkpt>
      <trkpt lat="42.778380" lon="-2.824590">
        <ele>513.254</ele>
        <time>2012-05-01T14:20:13Z</time>
      </trkpt>
      <trkpt lat="42.778380" lon="-2.824750">
        <ele>511.556</ele>
        <time>2012-05-01T14:20:20Z</time>
      </trkpt>
      <trkpt lat="42.778380" lon="-2.824890">
        <ele>510.111</ele>
        <time>2012-05-01T14:20:27Z</time>
      </trkpt>
      <trkpt lat="42.778340" lon="-2.825010">
        <ele>508.907</ele>
        <time>2012-05-01T14:20:34Z</time>
      </trkpt>
      <trkpt lat="42.778240" lon="-2.825050">
        <ele>508.477</ele>
        <time>2012-05-01T14:20:42Z</time>
      </trkpt>
      <trkpt lat="42.778150" lon="-2.825060">
        <ele>508.234</ele>
        <time>2012-05-01T14:20:49Z</time>
      </trkpt>
      <trkpt lat="42.778060" lon="-2.825080">
        <ele>507.854</ele>
        <time>2012-05-01T14:20:56Z</time>
      </trkpt>
      <trkpt lat="42.777970" lon="-2.825100">
        <ele>507.445</ele>
        <time>2012-05-01T14:21:03Z</time>
      </trkpt>
      <trkpt lat="42.777890" lon="-2.825120">
        <ele>507.198</ele>
        <time>2012-05-01T14:21:10Z</time>
      </trkpt>
      <trkpt lat="42.777800" lon="-2.825150">
        <ele>506.647</ele>
        <time>2012-05-01T14:21:17Z</time>
      </trkpt>
      <trkpt lat="42.777700" lon="-2.825170">
        <ele>506.376</ele>
        <time>2012-05-01T14:21:24Z</time>
      </trkpt>
      <trkpt lat="42.777610" lon="-2.825210">
        <ele>505.788</ele>
        <time>2012-05-01T14:21:31Z</time>
      </trkpt>
      <trkpt lat="42.777520" lon="-2.825250">
        <ele>505.124</ele>
        <time>2012-05-01T14:21:38Z</time>
      </trkpt>
      <trkpt lat="42.777430" lon="-2.825290">
        <ele>504.526</ele>
        <time>2012-05-01T14:21:45Z</time>
      </trkpt>
      <trkpt lat="42.777330" lon="-2.825330">
        <ele>504.007</ele>
        <time>2012-05-01T14:21:52Z</time>
      </trkpt>
      <trkpt lat="42.777240" lon="-2.825380">
        <ele>503.310</ele>
        <time>2012-05-01T14:21:59Z</time>
      </trkpt>
      <trkpt lat="42.777140" lon="-2.825430">
        <ele>502.777</ele>
        <time>2012-05-01T14:22:06Z</time>
      </trkpt>
      <trkpt lat="42.777050" lon="-2.825480">
        <ele>502.157</ele>
        <time>2012-05-01T14:22:13Z</time>
      </trkpt>
      <trkpt lat="42.776960" lon="-2.825520">
        <ele>501.758</ele>
        <time>2012-05-01T14:22:20Z</time>
      </trkpt>
      <trkpt lat="42.776860" lon="-2.825570">
        <ele>501.411</ele>
        <time>2012-05-01T14:22:27Z</time>
      </trkpt>
      <trkpt lat="42.776770" lon="-2.825610">
        <ele>501.330</ele>
        <time>2012-05-01T14:22:34Z</time>
      </trkpt>
      <trkpt lat="42.776670" lon="-2.825660">
        <ele>501.259</ele>
        <time>2012-05-01T14:22:41Z</time>
      </trkpt>
      <trkpt lat="42.776580" lon="-2.825700">
        <ele>501.363</ele>
        <time>2012-05-01T14:22:48Z</time>
      </trkpt>
      <trkpt lat="42.776480" lon="-2.825750">
        <ele>501.444</ele>
        <time>2012-05-01T14:22:55Z</time>
      </trkpt>
      <trkpt lat="42.776390" lon="-2.825800">
        <ele>501.518</ele>
        <time>2012-05-01T14:23:02Z</time>
      </trkpt>
      <trkpt lat="42.776300" lon="-2.825840">
        <ele>501.707</ele>
        <time>2012-05-01T14:23:09Z</time>
      </trkpt>
      <trkpt lat="42.776200" lon="-2.825880">
        <ele>501.938</ele>
        <time>2012-05-01T14:23:16Z</time>
      </trkpt>
      <trkpt lat="42.776110" lon="-2.825930">
        <ele>502.035</ele>
        <time>2012-05-01T14:23:23Z</time>
      </trkpt>
      <trkpt lat="42.776010" lon="-2.825970">
        <ele>502.145</ele>
        <time>2012-05-01T14:23:30Z</time>
      </trkpt>
      <trkpt lat="42.775920" lon="-2.826010">
        <ele>502.246</ele>
        <time>2012-05-01T14:23:37Z</time>
      </trkpt>
      <trkpt lat="42.775830" lon="-2.826050">
        <ele>502.299</ele>
        <time>2012-05-01T14:23:44Z</time>
      </trkpt>
      <trkpt lat="42.775740" lon="-2.826090">
        <ele>502.278</ele>
        <time>2012-05-01T14:23:51Z</time>
      </trkpt>
      <trkpt lat="42.775650" lon="-2.826140">
        <ele>502.187</ele>
        <time>2012-05-01T14:23:58Z</time>
      </trkpt>
      <trkpt lat="42.775560" lon="-2.826180">
        <ele>502.177</ele>
        <time>2012-05-01T14:24:05Z</time>
      </trkpt>
      <trkpt lat="42.775460" lon="-2.826220">
        <ele>502.061</ele>
        <time>2012-05-01T14:24:12Z</time>
      </trkpt>
      <trkpt lat="42.775370" lon="-2.826270">
        <ele>502.027</ele>
        <time>2012-05-01T14:24:19Z</time>
      </trkpt>
      <trkpt lat="42.775280" lon="-2.826320">
        <ele>502.007</ele>
        <time>2012-05-01T14:24:26Z</time>
      </trkpt>
      <trkpt lat="42.775180" lon="-2.826360">
        <ele>502.049</ele>
        <time>2012-05-01T14:24:33Z</time>
      </trkpt>
      <trkpt lat="42.775090" lon="-2.826400">
        <ele>502.046</ele>
        <time>2012-05-01T14:24:40Z</time>
      </trkpt>
      <trkpt lat="42.775000" lon="-2.826450">
        <ele>501.926</ele>
        <time>2012-05-01T14:24:47Z</time>
      </trkpt>
      <trkpt lat="42.774900" lon="-2.826500">
        <ele>501.897</ele>
        <time>2012-05-01T14:24:54Z</time>
      </trkpt>
      <trkpt lat="42.774810" lon="-2.826540">
        <ele>501.630</ele>
        <time>2012-05-01T14:25:01Z</time>
      </trkpt>
      <trkpt lat="42.774720" lon="-2.826590">
        <ele>501.519</ele>
        <time>2012-05-01T14:25:08Z</time>
      </trkpt>
      <trkpt lat="42.774620" lon="-2.826640">
        <ele>501.348</ele>
        <time>2012-05-01T14:25:15Z</time>
      </trkpt>
      <trkpt lat="42.774530" lon="-2.826690">
        <ele>501.144</ele>
        <time>2012-05-01T14:25:22Z</time>
      </trkpt>
      <trkpt lat="42.774440" lon="-2.826740">
        <ele>501.005</ele>
        <time>2012-05-01T14:25:29Z</time>
      </trkpt>
      <trkpt lat="42.774350" lon="-2.826790">
        <ele>500.815</ele>
        <time>2012-05-01T14:25:36Z</time>
      </trkpt>
      <trkpt lat="42.774260" lon="-2.826850">
        <ele>500.807</ele>
        <time>2012-05-01T14:25:43Z</time>
      </trkpt>
      <trkpt lat="42.774170" lon="-2.826900">
        <ele>500.766</ele>
        <time>2012-05-01T14:25:50Z</time>
      </trkpt>
      <trkpt lat="42.774080" lon="-2.826960">
        <ele>500.723</ele>
        <time>2012-05-01T14:25:57Z</time>
      </trkpt>
      <trkpt lat="42.773990" lon="-2.827010">
        <ele>500.793</ele>
        <time>2012-05-01T14:26:04Z</time>
      </trkpt>
      <trkpt lat="42.773900" lon="-2.827070">
        <ele>500.854</ele>
        <time>2012-05-01T14:26:11Z</time>
      </trkpt>
      <trkpt lat="42.773810" lon="-2.827120">
        <ele>500.857</ele>
        <time>2012-05-01T14:26:18Z</time>
      </trkpt>
      <trkpt lat="42.773730" lon="-2.827180">
        <ele>500.846</ele>
        <time>2012-05-01T14:26:25Z</time>
      </trkpt>
      <trkpt lat="42.773640" lon="-2.827230">
        <ele>500.915</ele>
        <time>2012-05-01T14:26:33Z</time>
      </trkpt>
      <trkpt lat="42.773540" lon="-2.827280">
        <ele>501.045</ele>
        <time>2012-05-01T14:26:40Z</time>
      </trkpt>
      <trkpt lat="42.773460" lon="-2.827340">
        <ele>501.147</ele>
        <time>2012-05-01T14:26:47Z</time>
      </trkpt>
      <trkpt lat="42.773370" lon="-2.827400">
        <ele>501.211</ele>
        <time>2012-05-01T14:26:54Z</time>
      </trkpt>
      <trkpt lat="42.773280" lon="-2.827450">
        <ele>501.307</ele>
        <time>2012-05-01T14:27:01Z</time>
      </trkpt>
      <trkpt lat="42.773190" lon="-2.827500">
        <ele>501.546</ele>
        <time>2012-05-01T14:27:08Z</time>
      </trkpt>
      <trkpt lat="42.773120" lon="-2.827580">
        <ele>501.553</ele>
        <time>2012-05-01T14:27:15Z</time>
      </trkpt>
      <trkpt lat="42.773050" lon="-2.827670">
        <ele>501.543</ele>
        <time>2012-05-01T14:27:22Z</time>
      </trkpt>
      <trkpt lat="42.772980" lon="-2.827740">
        <ele>501.564</ele>
        <time>2012-05-01T14:27:29Z</time>
      </trkpt>
      <trkpt lat="42.772890" lon="-2.827810">
        <ele>501.587</ele>
        <time>2012-05-01T14:27:36Z</time>
      </trkpt>
      <trkpt lat="42.772810" lon="-2.827870">
        <ele>501.526</ele>
        <time>2012-05-01T14:27:43Z</time>
      </trkpt>
      <trkpt lat="42.772720" lon="-2.827940">
        <ele>501.415</ele>
        <time>2012-05-01T14:27:50Z</time>
      </trkpt>
      <trkpt lat="42.772670" lon="-2.828040">
        <ele>501.281</ele>
        <time>2012-05-01T14:27:57Z</time>
      </trkpt>
      <trkpt lat="42.772610" lon="-2.828140">
        <ele>501.061</ele>
        <time>2012-05-01T14:28:04Z</time>
      </trkpt>
      <trkpt lat="42.772530" lon="-2.828220">
        <ele>501.117</ele>
        <time>2012-05-01T14:28:12Z</time>
      </trkpt>
      <trkpt lat="42.772450" lon="-2.828270">
        <ele>501.307</ele>
        <time>2012-05-01T14:28:20Z</time>
      </trkpt>
      <trkpt lat="42.772380" lon="-2.828340">
        <ele>501.510</ele>
        <time>2012-05-01T14:28:31Z</time>
      </trkpt>
      <trkpt lat="42.772320" lon="-2.828430">
        <ele>501.887</ele>
        <time>2012-05-01T14:28:39Z</time>
      </trkpt>
      <trkpt lat="42.772250" lon="-2.828540">
        <ele>502.297</ele>
        <time>2012-05-01T14:28:47Z</time>
      </trkpt>
      <trkpt lat="42.772200" lon="-2.828650">
        <ele>502.458</ele>
        <time>2012-05-01T14:28:55Z</time>
      </trkpt>
      <trkpt lat="42.772130" lon="-2.828760">
        <ele>502.871</ele>
        <time>2012-05-01T14:29:03Z</time>
      </trkpt>
      <trkpt lat="42.772080" lon="-2.828870">
        <ele>502.930</ele>
        <time>2012-05-01T14:29:11Z</time>
      </trkpt>
      <trkpt lat="42.772030" lon="-2.828980">
        <ele>503.039</ele>
        <time>2012-05-01T14:29:18Z</time>
      </trkpt>
      <trkpt lat="42.771990" lon="-2.829100">
        <ele>502.896</ele>
        <time>2012-05-01T14:29:25Z</time>
      </trkpt>
      <trkpt lat="42.771960" lon="-2.829220">
        <ele>502.531</ele>
        <time>2012-05-01T14:29:32Z</time>
      </trkpt>
      <trkpt lat="42.771930" lon="-2.829340">
        <ele>502.224</ele>
        <time>2012-05-01T14:29:39Z</time>
      </trkpt>
      <trkpt lat="42.771900" lon="-2.829460">
        <ele>501.807</ele>
        <time>2012-05-01T14:29:47Z</time>
      </trkpt>
      <trkpt lat="42.771880" lon="-2.829590">
        <ele>501.531</ele>
        <time>2012-05-01T14:30:03Z</time>
      </trkpt>
      <trkpt lat="42.771840" lon="-2.829710">
        <ele>501.228</ele>
        <time>2012-05-01T14:30:11Z</time>
      </trkpt>
      <trkpt lat="42.771800" lon="-2.829820">
        <ele>500.998</ele>
        <time>2012-05-01T14:30:19Z</time>
      </trkpt>
      <trkpt lat="42.771740" lon="-2.829930">
        <ele>500.649</ele>
        <time>2012-05-01T14:30:27Z</time>
      </trkpt>
      <trkpt lat="42.771680" lon="-2.830010">
        <ele>500.492</ele>
        <time>2012-05-01T14:30:34Z</time>
      </trkpt>
      <trkpt lat="42.771600" lon="-2.830080">
        <ele>500.151</ele>
        <time>2012-05-01T14:30:41Z</time>
      </trkpt>
      <trkpt lat="42.771530" lon="-2.830160">
        <ele>499.980</ele>
        <time>2012-05-01T14:30:48Z</time>
      </trkpt>
      <trkpt lat="42.771450" lon="-2.830230">
        <ele>499.633</ele>
        <time>2012-05-01T14:30:55Z</time>
      </trkpt>
      <trkpt lat="42.771370" lon="-2.830300">
        <ele>499.423</ele>
        <time>2012-05-01T14:31:02Z</time>
      </trkpt>
      <trkpt lat="42.771300" lon="-2.830380">
        <ele>499.115</ele>
        <time>2012-05-01T14:31:09Z</time>
      </trkpt>
      <trkpt lat="42.771230" lon="-2.830470">
        <ele>498.907</ele>
        <time>2012-05-01T14:31:16Z</time>
      </trkpt>
      <trkpt lat="42.771170" lon="-2.830580">
        <ele>498.745</ele>
        <time>2012-05-01T14:31:23Z</time>
      </trkpt>
      <trkpt lat="42.771120" lon="-2.830690">
        <ele>498.422</ele>
        <time>2012-05-01T14:31:30Z</time>
      </trkpt>
      <trkpt lat="42.771030" lon="-2.830910">
        <ele>497.922</ele>
        <time>2012-05-01T14:31:44Z</time>
      </trkpt>
      <trkpt lat="42.770980" lon="-2.831020">
        <ele>497.613</ele>
        <time>2012-05-01T14:31:51Z</time>
      </trkpt>
      <trkpt lat="42.770920" lon="-2.831110">
        <ele>497.386</ele>
        <time>2012-05-01T14:31:58Z</time>
      </trkpt>
      <trkpt lat="42.770830" lon="-2.831170">
        <ele>497.145</ele>
        <time>2012-05-01T14:32:05Z</time>
      </trkpt>
      <trkpt lat="42.770740" lon="-2.831210">
        <ele>496.944</ele>
        <time>2012-05-01T14:32:13Z</time>
      </trkpt>
      <trkpt lat="42.770680" lon="-2.831220">
        <ele>496.999</ele>
        <time>2012-05-01T14:33:31Z</time>
      </trkpt>
      <trkpt lat="42.770580" lon="-2.831190">
        <ele>496.907</ele>
        <time>2012-05-01T14:33:38Z</time>
      </trkpt>
      <trkpt lat="42.770490" lon="-2.831140">
        <ele>497.027</ele>
        <time>2012-05-01T14:33:45Z</time>
      </trkpt>
      <trkpt lat="42.770410" lon="-2.831080">
        <ele>497.207</ele>
        <time>2012-05-01T14:33:51Z</time>
      </trkpt>
      <trkpt lat="42.770340" lon="-2.831010">
        <ele>497.471</ele>
        <time>2012-05-01T14:33:57Z</time>
      </trkpt>
      <trkpt lat="42.770260" lon="-2.830940">
        <ele>497.768</ele>
        <time>2012-05-01T14:34:03Z</time>
      </trkpt>
      <trkpt lat="42.770190" lon="-2.830870">
        <ele>498.058</ele>
        <time>2012-05-01T14:34:09Z</time>
      </trkpt>
      <trkpt lat="42.770100" lon="-2.830820">
        <ele>498.399</ele>
        <time>2012-05-01T14:34:15Z</time>
      </trkpt>
      <trkpt lat="42.770010" lon="-2.830780">
        <ele>498.792</ele>
        <time>2012-05-01T14:34:22Z</time>
      </trkpt>
      <trkpt lat="42.769910" lon="-2.830750">
        <ele>499.131</ele>
        <time>2012-05-01T14:34:29Z</time>
      </trkpt>
      <trkpt lat="42.769810" lon="-2.830720">
        <ele>499.570</ele>
        <time>2012-05-01T14:34:36Z</time>
      </trkpt>
      <trkpt lat="42.769710" lon="-2.830700">
        <ele>499.844</ele>
        <time>2012-05-01T14:34:43Z</time>
      </trkpt>
      <trkpt lat="42.769610" lon="-2.830670">
        <ele>500.205</ele>
        <time>2012-05-01T14:34:50Z</time>
      </trkpt>
      <trkpt lat="42.769510" lon="-2.830650">
        <ele>500.515</ele>
        <time>2012-05-01T14:34:57Z</time>
      </trkpt>
      <trkpt lat="42.769410" lon="-2.830620">
        <ele>500.807</ele>
        <time>2012-05-01T14:35:04Z</time>
      </trkpt>
      <trkpt lat="42.769320" lon="-2.830600">
        <ele>501.056</ele>
        <time>2012-05-01T14:35:11Z</time>
      </trkpt>
      <trkpt lat="42.769220" lon="-2.830580">
        <ele>501.273</ele>
        <time>2012-05-01T14:35:18Z</time>
      </trkpt>
      <trkpt lat="42.769120" lon="-2.830550">
        <ele>501.533</ele>
        <time>2012-05-01T14:35:25Z</time>
      </trkpt>
      <trkpt lat="42.769030" lon="-2.830520">
        <ele>501.834</ele>
        <time>2012-05-01T14:35:32Z</time>
      </trkpt>
      <trkpt lat="42.768930" lon="-2.830500">
        <ele>502.187</ele>
        <time>2012-05-01T14:35:39Z</time>
      </trkpt>
      <trkpt lat="42.768830" lon="-2.830480">
        <ele>502.536</ele>
        <time>2012-05-01T14:35:46Z</time>
      </trkpt>
      <trkpt lat="42.768740" lon="-2.830430">
        <ele>503.035</ele>
        <time>2012-05-01T14:35:53Z</time>
      </trkpt>
      <trkpt lat="42.768650" lon="-2.830380">
        <ele>503.558</ele>
        <time>2012-05-01T14:36:01Z</time>
      </trkpt>
      <trkpt lat="42.768560" lon="-2.830360">
        <ele>503.952</ele>
        <time>2012-05-01T14:36:09Z</time>
      </trkpt>
      <trkpt lat="42.768490" lon="-2.830390">
        <ele>504.117</ele>
        <time>2012-05-01T14:36:26Z</time>
      </trkpt>
      <trkpt lat="42.768480" lon="-2.830390">
        <ele>504.107</ele>
        <time>2012-05-01T14:36:33Z</time>
      </trkpt>
    </trkseg>
  </trk>
</gpx>
